﻿<?xml version="1.0" encoding="utf-8"?><gpx creator="Garmin Desktop App" version="1.1" xsi:schemaLocation="http://www.topografix.com/GPX/1/1 http://www.topografix.com/GPX/1/1/gpx.xsd http://www.garmin.com/xmlschemas/WaypointExtension/v1 http://www8.garmin.com/xmlschemas/WaypointExtensionv1.xsd http://www.garmin.com/xmlschemas/TrackPointExtension/v1 http://www.garmin.com/xmlschemas/TrackPointExtensionv1.xsd http://www.garmin.com/xmlschemas/GpxExtensions/v3 http://www8.garmin.com/xmlschemas/GpxExtensionsv3.xsd http://www.garmin.com/xmlschemas/ActivityExtension/v1 http://www8.garmin.com/xmlschemas/ActivityExtensionv1.xsd http://www.garmin.com/xmlschemas/AdventuresExtensions/v1 http://www8.garmin.com/xmlschemas/AdventuresExtensionv1.xsd http://www.garmin.com/xmlschemas/PressureExtension/v1 http://www.garmin.com/xmlschemas/PressureExtensionv1.xsd http://www.garmin.com/xmlschemas/TripExtensions/v1 http://www.garmin.com/xmlschemas/TripExtensionsv1.xsd http://www.garmin.com/xmlschemas/TripMetaDataExtensions/v1 http://www.garmin.com/xmlschemas/TripMetaDataExtensionsv1.xsd http://www.garmin.com/xmlschemas/ViaPointTransportationModeExtensions/v1 http://www.garmin.com/xmlschemas/ViaPointTransportationModeExtensionsv1.xsd http://www.garmin.com/xmlschemas/CreationTimeExtension/v1 http://www.garmin.com/xmlschemas/CreationTimeExtensionsv1.xsd http://www.garmin.com/xmlschemas/AccelerationExtension/v1 http://www.garmin.com/xmlschemas/AccelerationExtensionv1.xsd http://www.garmin.com/xmlschemas/PowerExtension/v1 http://www.garmin.com/xmlschemas/PowerExtensionv1.xsd http://www.garmin.com/xmlschemas/VideoExtension/v1 http://www.garmin.com/xmlschemas/VideoExtensionv1.xsd" xmlns="http://www.topografix.com/GPX/1/1" xmlns:xsi="http://www.w3.org/2001/XMLSchema-instance" xmlns:wptx1="http://www.garmin.com/xmlschemas/WaypointExtension/v1" xmlns:gpxtrx="http://www.garmin.com/xmlschemas/GpxExtensions/v3" xmlns:gpxtpx="http://www.garmin.com/xmlschemas/TrackPointExtension/v1" xmlns:gpxx="http://www.garmin.com/xmlschemas/GpxExtensions/v3" xmlns:trp="http://www.garmin.com/xmlschemas/TripExtensions/v1" xmlns:adv="http://www.garmin.com/xmlschemas/AdventuresExtensions/v1" xmlns:prs="http://www.garmin.com/xmlschemas/PressureExtension/v1" xmlns:tmd="http://www.garmin.com/xmlschemas/TripMetaDataExtensions/v1" xmlns:vptm="http://www.garmin.com/xmlschemas/ViaPointTransportationModeExtensions/v1" xmlns:ctx="http://www.garmin.com/xmlschemas/CreationTimeExtension/v1" xmlns:gpxacc="http://www.garmin.com/xmlschemas/AccelerationExtension/v1" xmlns:gpxpx="http://www.garmin.com/xmlschemas/PowerExtension/v1" xmlns:vidx1="http://www.garmin.com/xmlschemas/VideoExtension/v1">

  <metadata>
    <link href="http://www.garmin.com">
      <text>Garmin International</text>
    </link>
    <time>2021-01-23T07:40:12Z</time>
    <bounds maxlat="46.378842685371637" maxlon="11.949546681717038" minlat="46.061972212046385" minlon="11.793969003483653" />
  </metadata>

  <trk>
    <name>1-p-s-pellegrino-rif-volpi2017-07-02</name>
    <extensions>
      <gpxx:TrackExtension>
        <gpxx:DisplayColor>Yellow</gpxx:DisplayColor>
      </gpxx:TrackExtension>
    </extensions>
    <trkseg>
      <trkpt lat="46.378752663731575" lon="11.795397531241179">
        <ele>1942</ele>
        <time>2017-07-02T09:33:49Z</time>
      </trkpt>
      <trkpt lat="46.378750400617719" lon="11.795398285612464">
        <ele>1942</ele>
        <time>2017-07-02T09:33:50Z</time>
      </trkpt>
      <trkpt lat="46.378751825541258" lon="11.795410020276904">
        <ele>1920.8499999999999</ele>
        <time>2017-07-02T09:33:53Z</time>
      </trkpt>
      <trkpt lat="46.378755597397685" lon="11.795390993356705">
        <ele>1920.8499999999999</ele>
        <time>2017-07-02T09:34:09Z</time>
      </trkpt>
      <trkpt lat="46.378758111968637" lon="11.795385628938675">
        <ele>1920.8499999999999</ele>
        <time>2017-07-02T09:34:27Z</time>
      </trkpt>
      <trkpt lat="46.378760039806366" lon="11.79539074189961">
        <ele>1921.3299999999999</ele>
        <time>2017-07-02T09:34:44Z</time>
      </trkpt>
      <trkpt lat="46.378751574084163" lon="11.795335924252868">
        <ele>1921.3299999999999</ele>
        <time>2017-07-02T09:35:00Z</time>
      </trkpt>
      <trkpt lat="46.378724416717887" lon="11.795318489894271">
        <ele>1920.3699999999999</ele>
        <time>2017-07-02T09:35:11Z</time>
      </trkpt>
      <trkpt lat="46.378670521080494" lon="11.795475231483579">
        <ele>1921.3299999999999</ele>
        <time>2017-07-02T09:35:22Z</time>
      </trkpt>
      <trkpt lat="46.378672029823065" lon="11.79544547572732">
        <ele>1921.3299999999999</ele>
        <time>2017-07-02T09:35:28Z</time>
      </trkpt>
      <trkpt lat="46.378747131675482" lon="11.795436087995768">
        <ele>1921.3299999999999</ele>
        <time>2017-07-02T09:35:38Z</time>
      </trkpt>
      <trkpt lat="46.378747299313545" lon="11.795445811003447">
        <ele>1920.8499999999999</ele>
        <time>2017-07-02T09:35:50Z</time>
      </trkpt>
      <trkpt lat="46.378759201616049" lon="11.795419491827488">
        <ele>1922.29</ele>
        <time>2017-07-02T09:36:00Z</time>
      </trkpt>
      <trkpt lat="46.378756854683161" lon="11.795381437987089">
        <ele>1921.3299999999999</ele>
        <time>2017-07-02T09:36:13Z</time>
      </trkpt>
      <trkpt lat="46.378771606832743" lon="11.795383952558041">
        <ele>1920.8499999999999</ele>
        <time>2017-07-02T09:36:25Z</time>
      </trkpt>
      <trkpt lat="46.378761883825064" lon="11.795374983921647">
        <ele>1921.3299999999999</ele>
        <time>2017-07-02T09:36:35Z</time>
      </trkpt>
      <trkpt lat="46.37875534594059" lon="11.795367021113634">
        <ele>1921.3299999999999</ele>
        <time>2017-07-02T09:36:45Z</time>
      </trkpt>
      <trkpt lat="46.378750819712877" lon="11.795349419116974">
        <ele>1921.3299999999999</ele>
        <time>2017-07-02T09:36:59Z</time>
      </trkpt>
      <trkpt lat="46.378745958209038" lon="11.795342797413468">
        <ele>1921.3299999999999</ele>
        <time>2017-07-02T09:37:10Z</time>
      </trkpt>
      <trkpt lat="46.378763308748603" lon="11.795339193195105">
        <ele>1920.8499999999999</ele>
        <time>2017-07-02T09:37:24Z</time>
      </trkpt>
      <trkpt lat="46.378781413659453" lon="11.795392837375402">
        <ele>1920.8499999999999</ele>
        <time>2017-07-02T09:37:34Z</time>
      </trkpt>
      <trkpt lat="46.378803290426731" lon="11.795346988365054">
        <ele>1920.8499999999999</ele>
        <time>2017-07-02T09:37:46Z</time>
      </trkpt>
      <trkpt lat="46.378842685371637" lon="11.7952651809901">
        <ele>1920.3699999999999</ele>
        <time>2017-07-02T09:37:58Z</time>
      </trkpt>
      <trkpt lat="46.378805385902524" lon="11.795271299779415">
        <ele>1920.3699999999999</ele>
        <time>2017-07-02T09:38:06Z</time>
      </trkpt>
      <trkpt lat="46.378668257966638" lon="11.795229893177748">
        <ele>1918.45</ele>
        <time>2017-07-02T09:38:19Z</time>
      </trkpt>
      <trkpt lat="46.378473965451121" lon="11.795176165178418">
        <ele>1917.01</ele>
        <time>2017-07-02T09:38:35Z</time>
      </trkpt>
      <trkpt lat="46.378462566062808" lon="11.795171638950706">
        <ele>1917.01</ele>
        <time>2017-07-02T09:38:36Z</time>
      </trkpt>
      <trkpt lat="46.378318062052131" lon="11.794958906248212">
        <ele>1917.01</ele>
        <time>2017-07-02T09:38:52Z</time>
      </trkpt>
      <trkpt lat="46.378310853615403" lon="11.794956307858229">
        <ele>1917.01</ele>
        <time>2017-07-02T09:38:53Z</time>
      </trkpt>
      <trkpt lat="46.378276655450463" lon="11.794923031702638">
        <ele>1916.53</ele>
        <time>2017-07-02T09:38:56Z</time>
      </trkpt>
      <trkpt lat="46.37813625857234" lon="11.794783053919673">
        <ele>1917.49</ele>
        <time>2017-07-02T09:39:11Z</time>
      </trkpt>
      <trkpt lat="46.378045566380024" lon="11.794604938477278">
        <ele>1917.97</ele>
        <time>2017-07-02T09:39:24Z</time>
      </trkpt>
      <trkpt lat="46.377977002412081" lon="11.794380387291312">
        <ele>1918.9300000000001</ele>
        <time>2017-07-02T09:39:38Z</time>
      </trkpt>
      <trkpt lat="46.37793492525816" lon="11.794193554669619">
        <ele>1918.9300000000001</ele>
        <time>2017-07-02T09:39:51Z</time>
      </trkpt>
      <trkpt lat="46.37788605876267" lon="11.79400160908699">
        <ele>1919.8900000000001</ele>
        <time>2017-07-02T09:40:03Z</time>
      </trkpt>
      <trkpt lat="46.377881532534957" lon="11.793969003483653">
        <ele>1920.8499999999999</ele>
        <time>2017-07-02T09:40:11Z</time>
      </trkpt>
      <trkpt lat="46.377837024629116" lon="11.793970093131065">
        <ele>1920.8499999999999</ele>
        <time>2017-07-02T09:40:21Z</time>
      </trkpt>
      <trkpt lat="46.37784062884748" lon="11.79399473592639">
        <ele>1920.3699999999999</ele>
        <time>2017-07-02T09:40:29Z</time>
      </trkpt>
      <trkpt lat="46.377827636897564" lon="11.794006554409862">
        <ele>1920.3699999999999</ele>
        <time>2017-07-02T09:40:46Z</time>
      </trkpt>
      <trkpt lat="46.377863846719265" lon="11.793999010697007">
        <ele>1920.3699999999999</ele>
        <time>2017-07-02T09:41:03Z</time>
      </trkpt>
      <trkpt lat="46.377860242500901" lon="11.794001022353768">
        <ele>1920.3699999999999</ele>
        <time>2017-07-02T09:41:06Z</time>
      </trkpt>
      <trkpt lat="46.377813052386045" lon="11.794025413691998">
        <ele>1919.8900000000001</ele>
        <time>2017-07-02T09:41:16Z</time>
      </trkpt>
      <trkpt lat="46.377768963575363" lon="11.79409196600318">
        <ele>1918.45</ele>
        <time>2017-07-02T09:41:27Z</time>
      </trkpt>
      <trkpt lat="46.37775756418705" lon="11.794135803356767">
        <ele>1918.45</ele>
        <time>2017-07-02T09:41:36Z</time>
      </trkpt>
      <trkpt lat="46.377735352143645" lon="11.794173773378134">
        <ele>1917.97</ele>
        <time>2017-07-02T09:41:45Z</time>
      </trkpt>
      <trkpt lat="46.377737112343311" lon="11.794122811406851">
        <ele>1917.97</ele>
        <time>2017-07-02T09:41:55Z</time>
      </trkpt>
      <trkpt lat="46.377746751531959" lon="11.79412130266428">
        <ele>1918.45</ele>
        <time>2017-07-02T09:42:08Z</time>
      </trkpt>
      <trkpt lat="46.377743063494563" lon="11.794146951287985">
        <ele>1917.49</ele>
        <time>2017-07-02T09:42:23Z</time>
      </trkpt>
      <trkpt lat="46.377729987725616" lon="11.794157680124044">
        <ele>1917.01</ele>
        <time>2017-07-02T09:42:52Z</time>
      </trkpt>
      <trkpt lat="46.377718336880207" lon="11.794170001521707">
        <ele>1917.01</ele>
        <time>2017-07-02T09:43:16Z</time>
      </trkpt>
      <trkpt lat="46.377731328830123" lon="11.794180730357766">
        <ele>1917.01</ele>
        <time>2017-07-02T09:43:45Z</time>
      </trkpt>
      <trkpt lat="46.377736441791058" lon="11.79418483749032">
        <ele>1917.49</ele>
        <time>2017-07-02T09:44:06Z</time>
      </trkpt>
      <trkpt lat="46.377730909734964" lon="11.794162038713694">
        <ele>1917.97</ele>
        <time>2017-07-02T09:44:13Z</time>
      </trkpt>
      <trkpt lat="46.377726551145315" lon="11.794210486114025">
        <ele>1917.97</ele>
        <time>2017-07-02T09:44:25Z</time>
      </trkpt>
      <trkpt lat="46.377725629135966" lon="11.794227585196495">
        <ele>1917.97</ele>
        <time>2017-07-02T09:44:27Z</time>
      </trkpt>
      <trkpt lat="46.377670392394066" lon="11.79443939588964">
        <ele>1916.04</ele>
        <time>2017-07-02T09:44:43Z</time>
      </trkpt>
      <trkpt lat="46.3776168320328" lon="11.794615499675274">
        <ele>1915.0799999999999</ele>
        <time>2017-07-02T09:44:55Z</time>
      </trkpt>
      <trkpt lat="46.377590009942651" lon="11.794651625677943">
        <ele>1915.0799999999999</ele>
        <time>2017-07-02T09:44:58Z</time>
      </trkpt>
      <trkpt lat="46.377462688833475" lon="11.794795459136367">
        <ele>1914.5999999999999</ele>
        <time>2017-07-02T09:45:14Z</time>
      </trkpt>
      <trkpt lat="46.377428406849504" lon="11.794882128015161">
        <ele>1914.1199999999999</ele>
        <time>2017-07-02T09:45:23Z</time>
      </trkpt>
      <trkpt lat="46.377339055761695" lon="11.795049179345369">
        <ele>1914.5999999999999</ele>
        <time>2017-07-02T09:45:39Z</time>
      </trkpt>
      <trkpt lat="46.377288093790412" lon="11.795171806588769">
        <ele>1914.5999999999999</ele>
        <time>2017-07-02T09:45:53Z</time>
      </trkpt>
      <trkpt lat="46.377258421853185" lon="11.795385796576738">
        <ele>1914.1199999999999</ele>
        <time>2017-07-02T09:46:08Z</time>
      </trkpt>
      <trkpt lat="46.377189606428146" lon="11.795608839020133">
        <ele>1914.1199999999999</ele>
        <time>2017-07-02T09:46:25Z</time>
      </trkpt>
      <trkpt lat="46.377136548981071" lon="11.795705817639828">
        <ele>1913.1600000000001</ele>
        <time>2017-07-02T09:46:31Z</time>
      </trkpt>
      <trkpt lat="46.377092460170388" lon="11.795810339972377">
        <ele>1912.2</ele>
        <time>2017-07-02T09:46:42Z</time>
      </trkpt>
      <trkpt lat="46.377031859010458" lon="11.795948809012771">
        <ele>1911.72</ele>
        <time>2017-07-02T09:46:53Z</time>
      </trkpt>
      <trkpt lat="46.376995733007789" lon="11.796037321910262">
        <ele>1912.2</ele>
        <time>2017-07-02T09:47:00Z</time>
      </trkpt>
      <trkpt lat="46.376986848190427" lon="11.796154836192727">
        <ele>1912.2</ele>
        <time>2017-07-02T09:47:09Z</time>
      </trkpt>
      <trkpt lat="46.376924654468894" lon="11.796285007148981">
        <ele>1912.6800000000001</ele>
        <time>2017-07-02T09:47:20Z</time>
      </trkpt>
      <trkpt lat="46.376894731074572" lon="11.79638609290123">
        <ele>1912.2</ele>
        <time>2017-07-02T09:47:28Z</time>
      </trkpt>
      <trkpt lat="46.376846116036177" lon="11.796484412625432">
        <ele>1912.6800000000001</ele>
        <time>2017-07-02T09:47:39Z</time>
      </trkpt>
      <trkpt lat="46.376833040267229" lon="11.79653855971992">
        <ele>1912.6800000000001</ele>
        <time>2017-07-02T09:47:53Z</time>
      </trkpt>
      <trkpt lat="46.376807391643524" lon="11.796592203900218">
        <ele>1913.1600000000001</ele>
        <time>2017-07-02T09:48:00Z</time>
      </trkpt>
      <trkpt lat="46.376797249540687" lon="11.796704605221748">
        <ele>1914.1199999999999</ele>
        <time>2017-07-02T09:48:11Z</time>
      </trkpt>
      <trkpt lat="46.376755172386765" lon="11.796804014593363">
        <ele>1915.0799999999999</ele>
        <time>2017-07-02T09:48:21Z</time>
      </trkpt>
      <trkpt lat="46.37672214768827" lon="11.796840140596032">
        <ele>1915.0799999999999</ele>
        <time>2017-07-02T09:48:32Z</time>
      </trkpt>
      <trkpt lat="46.376672359183431" lon="11.796930329874158">
        <ele>1916.04</ele>
        <time>2017-07-02T09:48:42Z</time>
      </trkpt>
      <trkpt lat="46.376658109948039" lon="11.797007862478495">
        <ele>1916.04</ele>
        <time>2017-07-02T09:48:52Z</time>
      </trkpt>
      <trkpt lat="46.376640675589442" lon="11.797108696773648">
        <ele>1916.04</ele>
        <time>2017-07-02T09:49:03Z</time>
      </trkpt>
      <trkpt lat="46.376590467989445" lon="11.797173237428069">
        <ele>1915.5599999999999</ele>
        <time>2017-07-02T09:49:12Z</time>
      </trkpt>
      <trkpt lat="46.376580493524671" lon="11.797188911587">
        <ele>1915.5599999999999</ele>
        <time>2017-07-02T09:49:18Z</time>
      </trkpt>
      <trkpt lat="46.376517880707979" lon="11.797347329556942">
        <ele>1916.53</ele>
        <time>2017-07-02T09:49:31Z</time>
      </trkpt>
      <trkpt lat="46.376469433307648" lon="11.797413630411029">
        <ele>1917.01</ele>
        <time>2017-07-02T09:49:39Z</time>
      </trkpt>
      <trkpt lat="46.376391733065248" lon="11.797510189935565">
        <ele>1917.97</ele>
        <time>2017-07-02T09:49:50Z</time>
      </trkpt>
      <trkpt lat="46.376329958438873" lon="11.797622675076127">
        <ele>1918.45</ele>
        <time>2017-07-02T09:50:02Z</time>
      </trkpt>
      <trkpt lat="46.376281594857574" lon="11.797667685896158">
        <ele>1919.8900000000001</ele>
        <time>2017-07-02T09:50:11Z</time>
      </trkpt>
      <trkpt lat="46.376229710876942" lon="11.797752007842064">
        <ele>1921.8099999999999</ele>
        <time>2017-07-02T09:50:24Z</time>
      </trkpt>
      <trkpt lat="46.376196015626192" lon="11.797857116907835">
        <ele>1922.77</ele>
        <time>2017-07-02T09:50:34Z</time>
      </trkpt>
      <trkpt lat="46.376199033111334" lon="11.797974463552237">
        <ele>1924.22</ele>
        <time>2017-07-02T09:50:46Z</time>
      </trkpt>
      <trkpt lat="46.376168187707663" lon="11.798065323382616">
        <ele>1926.6199999999999</ele>
        <time>2017-07-02T09:51:00Z</time>
      </trkpt>
      <trkpt lat="46.376172378659248" lon="11.79815199226141">
        <ele>1928.0599999999999</ele>
        <time>2017-07-02T09:51:11Z</time>
      </trkpt>
      <trkpt lat="46.376127284020185" lon="11.798296831548214">
        <ele>1929.5</ele>
        <time>2017-07-02T09:51:25Z</time>
      </trkpt>
      <trkpt lat="46.376091996207833" lon="11.798386937007308">
        <ele>1930.95</ele>
        <time>2017-07-02T09:51:36Z</time>
      </trkpt>
      <trkpt lat="46.37603416107595" lon="11.798418033868074">
        <ele>1932.3900000000001</ele>
        <time>2017-07-02T09:51:44Z</time>
      </trkpt>
      <trkpt lat="46.375971799716353" lon="11.798496739938855">
        <ele>1933.8299999999999</ele>
        <time>2017-07-02T09:51:56Z</time>
      </trkpt>
      <trkpt lat="46.375929554924369" lon="11.798477880656719">
        <ele>1934.3099999999999</ele>
        <time>2017-07-02T09:52:01Z</time>
      </trkpt>
      <trkpt lat="46.37585487216711" lon="11.798483496531844">
        <ele>1935.75</ele>
        <time>2017-07-02T09:52:10Z</time>
      </trkpt>
      <trkpt lat="46.375785721465945" lon="11.798538481816649">
        <ele>1934.79</ele>
        <time>2017-07-02T09:52:20Z</time>
      </trkpt>
      <trkpt lat="46.375703746452928" lon="11.798621630296111">
        <ele>1935.27</ele>
        <time>2017-07-02T09:52:34Z</time>
      </trkpt>
      <trkpt lat="46.375672146677971" lon="11.798630515113473">
        <ele>1935.75</ele>
        <time>2017-07-02T09:52:38Z</time>
      </trkpt>
      <trkpt lat="46.37565060518682" lon="11.798638142645359">
        <ele>1935.75</ele>
        <time>2017-07-02T09:52:40Z</time>
      </trkpt>
      <trkpt lat="46.375511549413204" lon="11.79869974963367">
        <ele>1935.75</ele>
        <time>2017-07-02T09:52:55Z</time>
      </trkpt>
      <trkpt lat="46.375463772565126" lon="11.798738222569227">
        <ele>1935.75</ele>
        <time>2017-07-02T09:53:03Z</time>
      </trkpt>
      <trkpt lat="46.375389760360122" lon="11.798818185925484">
        <ele>1936.23</ele>
        <time>2017-07-02T09:53:15Z</time>
      </trkpt>
      <trkpt lat="46.375316753983498" lon="11.798801673576236">
        <ele>1938.1600000000001</ele>
        <time>2017-07-02T09:53:26Z</time>
      </trkpt>
      <trkpt lat="46.375234108418226" lon="11.79884291253984">
        <ele>1939.1199999999999</ele>
        <time>2017-07-02T09:53:37Z</time>
      </trkpt>
      <trkpt lat="46.375164957717061" lon="11.798878954723477">
        <ele>1939.5999999999999</ele>
        <time>2017-07-02T09:53:46Z</time>
      </trkpt>
      <trkpt lat="46.375124640762806" lon="11.798901166766882">
        <ele>1940.5599999999999</ele>
        <time>2017-07-02T09:53:51Z</time>
      </trkpt>
      <trkpt lat="46.375040402635932" lon="11.79895288310945">
        <ele>1941.52</ele>
        <time>2017-07-02T09:54:03Z</time>
      </trkpt>
      <trkpt lat="46.374969994649291" lon="11.798988590016961">
        <ele>1943.4400000000001</ele>
        <time>2017-07-02T09:54:15Z</time>
      </trkpt>
      <trkpt lat="46.374914338812232" lon="11.799000827595592">
        <ele>1944.4000000000001</ele>
        <time>2017-07-02T09:54:24Z</time>
      </trkpt>
      <trkpt lat="46.374854324385524" lon="11.799016166478395">
        <ele>1945.3599999999999</ele>
        <time>2017-07-02T09:54:34Z</time>
      </trkpt>
      <trkpt lat="46.374789280816913" lon="11.799047430977225">
        <ele>1946.8099999999999</ele>
        <time>2017-07-02T09:54:44Z</time>
      </trkpt>
      <trkpt lat="46.374705042690039" lon="11.799057824537158">
        <ele>1948.25</ele>
        <time>2017-07-02T09:54:57Z</time>
      </trkpt>
      <trkpt lat="46.374650057405233" lon="11.79899881593883">
        <ele>1950.1700000000001</ele>
        <time>2017-07-02T09:55:09Z</time>
      </trkpt>
      <trkpt lat="46.374597754329443" lon="11.798940058797598">
        <ele>1951.6099999999999</ele>
        <time>2017-07-02T09:55:21Z</time>
      </trkpt>
      <trkpt lat="46.374526508152485" lon="11.798924719914794">
        <ele>1953.54</ele>
        <time>2017-07-02T09:55:33Z</time>
      </trkpt>
      <trkpt lat="46.37445249594748" lon="11.798943327739835">
        <ele>1954.98</ele>
        <time>2017-07-02T09:55:44Z</time>
      </trkpt>
      <trkpt lat="46.374400779604912" lon="11.798964869230986">
        <ele>1955.9400000000001</ele>
        <time>2017-07-02T09:55:55Z</time>
      </trkpt>
      <trkpt lat="46.374352667480707" lon="11.798991356045008">
        <ele>1957.3800000000001</ele>
        <time>2017-07-02T09:56:04Z</time>
      </trkpt>
      <trkpt lat="46.374271949753165" lon="11.799030918627977">
        <ele>1959.3</ele>
        <time>2017-07-02T09:56:19Z</time>
      </trkpt>
      <trkpt lat="46.374219814315438" lon="11.799076097086072">
        <ele>1960.75</ele>
        <time>2017-07-02T09:56:30Z</time>
      </trkpt>
      <trkpt lat="46.374161811545491" lon="11.799111552536488">
        <ele>1962.1900000000001</ele>
        <time>2017-07-02T09:56:41Z</time>
      </trkpt>
      <trkpt lat="46.37409676797688" lon="11.799135273322463">
        <ele>1964.1099999999999</ele>
        <time>2017-07-02T09:56:53Z</time>
      </trkpt>
      <trkpt lat="46.37404840439558" lon="11.799187576398253">
        <ele>1966.03</ele>
        <time>2017-07-02T09:57:05Z</time>
      </trkpt>
      <trkpt lat="46.374003477394581" lon="11.799238286912441">
        <ele>1967.48</ele>
        <time>2017-07-02T09:57:16Z</time>
      </trkpt>
      <trkpt lat="46.373956119641662" lon="11.799287237226963">
        <ele>1968.9200000000001</ele>
        <time>2017-07-02T09:57:27Z</time>
      </trkpt>
      <trkpt lat="46.373925358057022" lon="11.799352364614606">
        <ele>1970.8399999999999</ele>
        <time>2017-07-02T09:57:39Z</time>
      </trkpt>
      <trkpt lat="46.373895099386573" lon="11.799434004351497">
        <ele>1972.76</ele>
        <time>2017-07-02T09:57:51Z</time>
      </trkpt>
      <trkpt lat="46.373838186264038" lon="11.799487983807921">
        <ele>1974.2</ele>
        <time>2017-07-02T09:58:04Z</time>
      </trkpt>
      <trkpt lat="46.37379770167172" lon="11.799503322690725">
        <ele>1975.6500000000001</ele>
        <time>2017-07-02T09:58:15Z</time>
      </trkpt>
      <trkpt lat="46.373760150745511" lon="11.799577502533793">
        <ele>1976.6099999999999</ele>
        <time>2017-07-02T09:58:25Z</time>
      </trkpt>
      <trkpt lat="46.373693849891424" lon="11.799625782296062">
        <ele>1978.05</ele>
        <time>2017-07-02T09:58:36Z</time>
      </trkpt>
      <trkpt lat="46.373629895970225" lon="11.799637684598565">
        <ele>1978.53</ele>
        <time>2017-07-02T09:58:46Z</time>
      </trkpt>
      <trkpt lat="46.373573988676071" lon="11.799679510295391">
        <ele>1979.49</ele>
        <time>2017-07-02T09:58:55Z</time>
      </trkpt>
      <trkpt lat="46.373492265120149" lon="11.799708595499396">
        <ele>1979.97</ele>
        <time>2017-07-02T09:59:05Z</time>
      </trkpt>
      <trkpt lat="46.373399058356881" lon="11.799768358469009">
        <ele>1979.49</ele>
        <time>2017-07-02T09:59:15Z</time>
      </trkpt>
      <trkpt lat="46.373359663411975" lon="11.799782188609242">
        <ele>1979.49</ele>
        <time>2017-07-02T09:59:20Z</time>
      </trkpt>
      <trkpt lat="46.373260002583265" lon="11.799844047054648">
        <ele>1979.97</ele>
        <time>2017-07-02T09:59:33Z</time>
      </trkpt>
      <trkpt lat="46.37323284521699" lon="11.799883190542459">
        <ele>1980.9300000000001</ele>
        <time>2017-07-02T09:59:43Z</time>
      </trkpt>
      <trkpt lat="46.373169394209981" lon="11.799937756732106">
        <ele>1981.4100000000001</ele>
        <time>2017-07-02T09:59:53Z</time>
      </trkpt>
      <trkpt lat="46.373077947646379" lon="11.799948820844293">
        <ele>1981.9000000000001</ele>
        <time>2017-07-02T10:00:04Z</time>
      </trkpt>
      <trkpt lat="46.373013658449054" lon="11.799932392314076">
        <ele>1982.8599999999999</ele>
        <time>2017-07-02T10:00:14Z</time>
      </trkpt>
      <trkpt lat="46.372957834973931" lon="11.799888722598553">
        <ele>1983.8199999999999</ele>
        <time>2017-07-02T10:00:24Z</time>
      </trkpt>
      <trkpt lat="46.372928079217672" lon="11.799822757020593">
        <ele>1985.26</ele>
        <time>2017-07-02T10:00:35Z</time>
      </trkpt>
      <trkpt lat="46.372860101982951" lon="11.799811776727438">
        <ele>1986.22</ele>
        <time>2017-07-02T10:00:45Z</time>
      </trkpt>
      <trkpt lat="46.372826239094138" lon="11.799857290461659">
        <ele>1986.22</ele>
        <time>2017-07-02T10:00:51Z</time>
      </trkpt>
      <trkpt lat="46.372769745066762" lon="11.799904899671674">
        <ele>1986.7</ele>
        <time>2017-07-02T10:01:00Z</time>
      </trkpt>
      <trkpt lat="46.37273546308279" lon="11.799909677356482">
        <ele>1987.1800000000001</ele>
        <time>2017-07-02T10:01:04Z</time>
      </trkpt>
      <trkpt lat="46.372652985155582" lon="11.799947982653975">
        <ele>1987.6600000000001</ele>
        <time>2017-07-02T10:01:15Z</time>
      </trkpt>
      <trkpt lat="46.372597748413682" lon="11.799912778660655">
        <ele>1988.6199999999999</ele>
        <time>2017-07-02T10:01:24Z</time>
      </trkpt>
      <trkpt lat="46.372543685138226" lon="11.799939768388867">
        <ele>1990.0699999999999</ele>
        <time>2017-07-02T10:01:34Z</time>
      </trkpt>
      <trkpt lat="46.372465062886477" lon="11.799974385648966">
        <ele>1991.03</ele>
        <time>2017-07-02T10:01:44Z</time>
      </trkpt>
      <trkpt lat="46.372467493638396" lon="11.800041105598211">
        <ele>1991.99</ele>
        <time>2017-07-02T10:01:53Z</time>
      </trkpt>
      <trkpt lat="46.372413262724876" lon="11.800111681222916">
        <ele>1992.47</ele>
        <time>2017-07-02T10:02:03Z</time>
      </trkpt>
      <trkpt lat="46.372345704585314" lon="11.80021452717483">
        <ele>1993.9100000000001</ele>
        <time>2017-07-02T10:02:18Z</time>
      </trkpt>
      <trkpt lat="46.372256018221378" lon="11.800253754481673">
        <ele>1995.3499999999999</ele>
        <time>2017-07-02T10:02:32Z</time>
      </trkpt>
      <trkpt lat="46.372197428718209" lon="11.80028049275279">
        <ele>1996.8</ele>
        <time>2017-07-02T10:02:42Z</time>
      </trkpt>
      <trkpt lat="46.372177479788661" lon="11.800390547141433">
        <ele>1997.76</ele>
        <time>2017-07-02T10:02:53Z</time>
      </trkpt>
      <trkpt lat="46.372178653255105" lon="11.800473779439926">
        <ele>1998.72</ele>
        <time>2017-07-02T10:03:03Z</time>
      </trkpt>
      <trkpt lat="46.37213540263474" lon="11.800572350621223">
        <ele>2000.6400000000001</ele>
        <time>2017-07-02T10:03:16Z</time>
      </trkpt>
      <trkpt lat="46.372116962447762" lon="11.800638064742088">
        <ele>2001.5999999999999</ele>
        <time>2017-07-02T10:03:25Z</time>
      </trkpt>
      <trkpt lat="46.372070694342256" lon="11.800714926794171">
        <ele>2003.04</ele>
        <time>2017-07-02T10:03:37Z</time>
      </trkpt>
      <trkpt lat="46.372057953849435" lon="11.800797404721379">
        <ele>2004.01</ele>
        <time>2017-07-02T10:03:47Z</time>
      </trkpt>
      <trkpt lat="46.372030042111874" lon="11.800847696140409">
        <ele>2005.9300000000001</ele>
        <time>2017-07-02T10:04:00Z</time>
      </trkpt>
      <trkpt lat="46.372008081525564" lon="11.800957079976797">
        <ele>2007.8499999999999</ele>
        <time>2017-07-02T10:04:13Z</time>
      </trkpt>
      <trkpt lat="46.371974218636751" lon="11.801015669479966">
        <ele>2007.8499999999999</ele>
        <time>2017-07-02T10:04:25Z</time>
      </trkpt>
      <trkpt lat="46.371973212808371" lon="11.801020782440901">
        <ele>2009.77</ele>
        <time>2017-07-02T10:04:27Z</time>
      </trkpt>
      <trkpt lat="46.371932812035084" lon="11.801064033061266">
        <ele>2009.77</ele>
        <time>2017-07-02T10:04:37Z</time>
      </trkpt>
      <trkpt lat="46.371930129826069" lon="11.801070990040898">
        <ele>2011.7</ele>
        <time>2017-07-02T10:04:39Z</time>
      </trkpt>
      <trkpt lat="46.37190573848784" lon="11.801149109378457">
        <ele>2013.1400000000001</ele>
        <time>2017-07-02T10:04:49Z</time>
      </trkpt>
      <trkpt lat="46.371891237795353" lon="11.801212644204497">
        <ele>2014.5799999999999</ele>
        <time>2017-07-02T10:04:57Z</time>
      </trkpt>
      <trkpt lat="46.371860140934587" lon="11.80128020234406">
        <ele>2016.02</ele>
        <time>2017-07-02T10:05:07Z</time>
      </trkpt>
      <trkpt lat="46.371835665777326" lon="11.80136863142252">
        <ele>2017.46</ele>
        <time>2017-07-02T10:05:21Z</time>
      </trkpt>
      <trkpt lat="46.371788643300533" lon="11.801430489867926">
        <ele>2019.3900000000001</ele>
        <time>2017-07-02T10:05:32Z</time>
      </trkpt>
      <trkpt lat="46.371758971363306" lon="11.801456389948726">
        <ele>2020.3499999999999</ele>
        <time>2017-07-02T10:05:41Z</time>
      </trkpt>
      <trkpt lat="46.371733574196696" lon="11.801495952531695">
        <ele>2022.27</ele>
        <time>2017-07-02T10:05:52Z</time>
      </trkpt>
      <trkpt lat="46.371696693822742" lon="11.801548423245549">
        <ele>2023.71</ele>
        <time>2017-07-02T10:06:03Z</time>
      </trkpt>
      <trkpt lat="46.371741956099868" lon="11.801584297791123">
        <ele>2023.71</ele>
        <time>2017-07-02T10:06:13Z</time>
      </trkpt>
      <trkpt lat="46.371774477884173" lon="11.801628889515996">
        <ele>2024.1900000000001</ele>
        <time>2017-07-02T10:06:19Z</time>
      </trkpt>
      <trkpt lat="46.371766179800034" lon="11.801625033840537">
        <ele>2024.1900000000001</ele>
        <time>2017-07-02T10:06:29Z</time>
      </trkpt>
      <trkpt lat="46.371805323287845" lon="11.801666021347046">
        <ele>2024.6700000000001</ele>
        <time>2017-07-02T10:06:34Z</time>
      </trkpt>
      <trkpt lat="46.371805910021067" lon="11.801686892285943">
        <ele>2023.71</ele>
        <time>2017-07-02T10:06:43Z</time>
      </trkpt>
      <trkpt lat="46.37182367965579" lon="11.801663590595126">
        <ele>2024.1900000000001</ele>
        <time>2017-07-02T10:07:03Z</time>
      </trkpt>
      <trkpt lat="46.371826026588678" lon="11.801656968891621">
        <ele>2023.71</ele>
        <time>2017-07-02T10:07:12Z</time>
      </trkpt>
      <trkpt lat="46.371826026588678" lon="11.801686892285943">
        <ele>2025.1500000000001</ele>
        <time>2017-07-02T10:07:20Z</time>
      </trkpt>
      <trkpt lat="46.371795265004039" lon="11.801732908934355">
        <ele>2025.1500000000001</ele>
        <time>2017-07-02T10:07:31Z</time>
      </trkpt>
      <trkpt lat="46.371781015768647" lon="11.801733076572418">
        <ele>2025.1500000000001</ele>
        <time>2017-07-02T10:07:43Z</time>
      </trkpt>
      <trkpt lat="46.371761569753289" lon="11.801751013845205">
        <ele>2025.1500000000001</ele>
        <time>2017-07-02T10:07:59Z</time>
      </trkpt>
      <trkpt lat="46.371765173971653" lon="11.801745146512985">
        <ele>2025.1500000000001</ele>
        <time>2017-07-02T10:08:18Z</time>
      </trkpt>
      <trkpt lat="46.371751930564642" lon="11.801753360778093">
        <ele>2025.1500000000001</ele>
        <time>2017-07-02T10:08:34Z</time>
      </trkpt>
      <trkpt lat="46.371750673279166" lon="11.801752019673586">
        <ele>2024.6700000000001</ele>
        <time>2017-07-02T10:08:48Z</time>
      </trkpt>
      <trkpt lat="46.371755870059133" lon="11.801752857863903">
        <ele>2025.6400000000001</ele>
        <time>2017-07-02T10:09:01Z</time>
      </trkpt>
      <trkpt lat="46.371765090152621" lon="11.801753276959062">
        <ele>2025.6400000000001</ele>
        <time>2017-07-02T10:09:12Z</time>
      </trkpt>
      <trkpt lat="46.371755702421069" lon="11.801747158169746">
        <ele>2025.6400000000001</ele>
        <time>2017-07-02T10:09:21Z</time>
      </trkpt>
      <trkpt lat="46.371745560318232" lon="11.801723269745708">
        <ele>2025.6400000000001</ele>
        <time>2017-07-02T10:09:36Z</time>
      </trkpt>
      <trkpt lat="46.371757797896862" lon="11.801723688840866">
        <ele>2025.6400000000001</ele>
        <time>2017-07-02T10:09:55Z</time>
      </trkpt>
      <trkpt lat="46.371764419600368" lon="11.801738105714321">
        <ele>2025.6400000000001</ele>
        <time>2017-07-02T10:10:15Z</time>
      </trkpt>
      <trkpt lat="46.371775818988681" lon="11.801733076572418">
        <ele>2025.6400000000001</ele>
        <time>2017-07-02T10:10:28Z</time>
      </trkpt>
      <trkpt lat="46.371790235862136" lon="11.801796276122332">
        <ele>2026.1199999999999</ele>
        <time>2017-07-02T10:10:39Z</time>
      </trkpt>
      <trkpt lat="46.371767101809382" lon="11.801867689937353">
        <ele>2027.5599999999999</ele>
        <time>2017-07-02T10:10:49Z</time>
      </trkpt>
      <trkpt lat="46.371722677722573" lon="11.801834665238857">
        <ele>2029.48</ele>
        <time>2017-07-02T10:10:59Z</time>
      </trkpt>
      <trkpt lat="46.371733406558633" lon="11.801807004958391">
        <ele>2029.48</ele>
        <time>2017-07-02T10:11:13Z</time>
      </trkpt>
      <trkpt lat="46.371735418215394" lon="11.801831480115652">
        <ele>2029.48</ele>
        <time>2017-07-02T10:11:25Z</time>
      </trkpt>
      <trkpt lat="46.371716810390353" lon="11.801843633875251">
        <ele>2029.48</ele>
        <time>2017-07-02T10:11:34Z</time>
      </trkpt>
      <trkpt lat="46.371716391295195" lon="11.801829217001796">
        <ele>2029.48</ele>
        <time>2017-07-02T10:11:46Z</time>
      </trkpt>
      <trkpt lat="46.371710440143943" lon="11.80189878679812">
        <ele>2029.96</ele>
        <time>2017-07-02T10:11:55Z</time>
      </trkpt>
      <trkpt lat="46.371668530628085" lon="11.801985371857882">
        <ele>2032.3599999999999</ele>
        <time>2017-07-02T10:12:08Z</time>
      </trkpt>
      <trkpt lat="46.371630728244781" lon="11.802046559751034">
        <ele>2033.8099999999999</ele>
        <time>2017-07-02T10:12:18Z</time>
      </trkpt>
      <trkpt lat="46.371591836214066" lon="11.802106238901615">
        <ele>2036.6900000000001</ele>
        <time>2017-07-02T10:12:30Z</time>
      </trkpt>
      <trkpt lat="46.371537689119577" lon="11.802132055163383">
        <ele>2038.6099999999999</ele>
        <time>2017-07-02T10:12:41Z</time>
      </trkpt>
      <trkpt lat="46.371517572551966" lon="11.802178993821144">
        <ele>2040.54</ele>
        <time>2017-07-02T10:12:51Z</time>
      </trkpt>
      <trkpt lat="46.37146552093327" lon="11.80224135518074">
        <ele>2042.9400000000001</ele>
        <time>2017-07-02T10:13:06Z</time>
      </trkpt>
      <trkpt lat="46.371423779055476" lon="11.802298268303275">
        <ele>2045.3399999999999</ele>
        <time>2017-07-02T10:13:19Z</time>
      </trkpt>
      <trkpt lat="46.371389413252473" lon="11.80234394967556">
        <ele>2046.78</ele>
        <time>2017-07-02T10:13:31Z</time>
      </trkpt>
      <trkpt lat="46.371345575898886" lon="11.802399354055524">
        <ele>2048.71</ele>
        <time>2017-07-02T10:13:44Z</time>
      </trkpt>
      <trkpt lat="46.371326884254813" lon="11.802447801455855">
        <ele>2050.1500000000001</ele>
        <time>2017-07-02T10:13:54Z</time>
      </trkpt>
      <trkpt lat="46.37130081653595" lon="11.802495326846838">
        <ele>2051.5900000000001</ele>
        <time>2017-07-02T10:14:04Z</time>
      </trkpt>
      <trkpt lat="46.371325124055147" lon="11.8025110848248">
        <ele>2052.0700000000002</ele>
        <time>2017-07-02T10:14:15Z</time>
      </trkpt>
      <trkpt lat="46.371338786557317" lon="11.802546121180058">
        <ele>2052.0700000000002</ele>
        <time>2017-07-02T10:14:24Z</time>
      </trkpt>
      <trkpt lat="46.371323196217418" lon="11.802696157246828">
        <ele>2051.5900000000001</ele>
        <time>2017-07-02T10:14:36Z</time>
      </trkpt>
      <trkpt lat="46.371313137933612" lon="11.802786514163017">
        <ele>2051.1100000000001</ele>
        <time>2017-07-02T10:14:46Z</time>
      </trkpt>
      <trkpt lat="46.371344653889537" lon="11.80288634262979">
        <ele>2052.5500000000002</ele>
        <time>2017-07-02T10:14:58Z</time>
      </trkpt>
      <trkpt lat="46.371352281421423" lon="11.802944848313928">
        <ele>2052.5500000000002</ele>
        <time>2017-07-02T10:15:08Z</time>
      </trkpt>
      <trkpt lat="46.371369548141956" lon="11.803032187744975">
        <ele>2052.5500000000002</ele>
        <time>2017-07-02T10:15:19Z</time>
      </trkpt>
      <trkpt lat="46.371376002207398" lon="11.803118521347642">
        <ele>2053.0300000000002</ele>
        <time>2017-07-02T10:15:28Z</time>
      </trkpt>
      <trkpt lat="46.371376421302557" lon="11.803128747269511">
        <ele>2053.0300000000002</ele>
        <time>2017-07-02T10:15:29Z</time>
      </trkpt>
      <trkpt lat="46.371352868154645" lon="11.803214158862829">
        <ele>2053.5100000000002</ele>
        <time>2017-07-02T10:15:39Z</time>
      </trkpt>
      <trkpt lat="46.371355298906565" lon="11.803275011479855">
        <ele>2054.96</ele>
        <time>2017-07-02T10:15:48Z</time>
      </trkpt>
      <trkpt lat="46.371343396604061" lon="11.803325889632106">
        <ele>2055.4400000000001</ele>
        <time>2017-07-02T10:15:59Z</time>
      </trkpt>
      <trkpt lat="46.371336355805397" lon="11.803365536034107">
        <ele>2056.8800000000001</ele>
        <time>2017-07-02T10:16:03Z</time>
      </trkpt>
      <trkpt lat="46.371316742151976" lon="11.803433848544955">
        <ele>2058.3200000000002</ele>
        <time>2017-07-02T10:16:13Z</time>
      </trkpt>
      <trkpt lat="46.371261337772012" lon="11.803538622334599">
        <ele>2060.7199999999998</ele>
        <time>2017-07-02T10:16:24Z</time>
      </trkpt>
      <trkpt lat="46.371242562308908" lon="11.803613975644112">
        <ele>2059.7600000000002</ele>
        <time>2017-07-02T10:16:38Z</time>
      </trkpt>
      <trkpt lat="46.371246417984366" lon="11.803635600954294">
        <ele>2060.7199999999998</ele>
        <time>2017-07-02T10:16:51Z</time>
      </trkpt>
      <trkpt lat="46.371234264224768" lon="11.803629733622074">
        <ele>2061.1999999999998</ele>
        <time>2017-07-02T10:17:01Z</time>
      </trkpt>
      <trkpt lat="46.371249770745635" lon="11.803625207394361">
        <ele>2061.1999999999998</ele>
        <time>2017-07-02T10:17:14Z</time>
      </trkpt>
      <trkpt lat="46.371288243681192" lon="11.803688406944275">
        <ele>2059.2800000000002</ele>
        <time>2017-07-02T10:17:24Z</time>
      </trkpt>
      <trkpt lat="46.371332751587033" lon="11.803696118295193">
        <ele>2059.7600000000002</ele>
        <time>2017-07-02T10:17:34Z</time>
      </trkpt>
      <trkpt lat="46.371288495138288" lon="11.803705673664808">
        <ele>2059.7600000000002</ele>
        <time>2017-07-02T10:17:47Z</time>
      </trkpt>
      <trkpt lat="46.371239209547639" lon="11.803644234314561">
        <ele>2060.2399999999998</ele>
        <time>2017-07-02T10:17:57Z</time>
      </trkpt>
      <trkpt lat="46.371244993060827" lon="11.803658902645111">
        <ele>2060.2399999999998</ele>
        <time>2017-07-02T10:18:18Z</time>
      </trkpt>
      <trkpt lat="46.371245663613081" lon="11.803657980635762">
        <ele>2056.8800000000001</ele>
        <time>2017-07-02T10:18:20Z</time>
      </trkpt>
      <trkpt lat="46.371246334165335" lon="11.803663847967982">
        <ele>2056.8800000000001</ele>
        <time>2017-07-02T10:18:21Z</time>
      </trkpt>
      <trkpt lat="46.371229821816087" lon="11.803678851574659">
        <ele>2060.2399999999998</ele>
        <time>2017-07-02T10:18:26Z</time>
      </trkpt>
      <trkpt lat="46.371231246739626" lon="11.803676169365644">
        <ele>2060.2399999999998</ele>
        <time>2017-07-02T10:18:27Z</time>
      </trkpt>
      <trkpt lat="46.371250944212079" lon="11.803631158545613">
        <ele>2060.7199999999998</ele>
        <time>2017-07-02T10:18:43Z</time>
      </trkpt>
      <trkpt lat="46.371246166527271" lon="11.803522780537605">
        <ele>2061.1999999999998</ele>
        <time>2017-07-02T10:18:53Z</time>
      </trkpt>
      <trkpt lat="46.371253374963999" lon="11.803384311497211">
        <ele>2062.1700000000001</ele>
        <time>2017-07-02T10:19:04Z</time>
      </trkpt>
      <trkpt lat="46.371243400499225" lon="11.803312310948968">
        <ele>2061.6799999999998</ele>
        <time>2017-07-02T10:19:13Z</time>
      </trkpt>
      <trkpt lat="46.371201742440462" lon="11.803224384784698">
        <ele>2062.1700000000001</ele>
        <time>2017-07-02T10:19:25Z</time>
      </trkpt>
      <trkpt lat="46.371154887601733" lon="11.80311793461442">
        <ele>2064.0900000000001</ele>
        <time>2017-07-02T10:19:36Z</time>
      </trkpt>
      <trkpt lat="46.371135944500566" lon="11.803093040362">
        <ele>2064.5700000000002</ele>
        <time>2017-07-02T10:19:40Z</time>
      </trkpt>
      <trkpt lat="46.371094705536962" lon="11.803003270179033">
        <ele>2065.5300000000002</ele>
        <time>2017-07-02T10:19:51Z</time>
      </trkpt>
      <trkpt lat="46.371062435209751" lon="11.802946357056499">
        <ele>2066.4899999999998</ele>
        <time>2017-07-02T10:20:01Z</time>
      </trkpt>
      <trkpt lat="46.371064446866512" lon="11.802918696776032">
        <ele>2065.5300000000002</ele>
        <time>2017-07-02T10:20:09Z</time>
      </trkpt>
      <trkpt lat="46.371008288115263" lon="11.802854659035802">
        <ele>2066.9699999999998</ele>
        <time>2017-07-02T10:20:18Z</time>
      </trkpt>
      <trkpt lat="46.370967887341976" lon="11.802817946299911">
        <ele>2065.0500000000002</ele>
        <time>2017-07-02T10:20:23Z</time>
      </trkpt>
      <trkpt lat="46.370950285345316" lon="11.802769750356674">
        <ele>2067.4499999999998</ele>
        <time>2017-07-02T10:20:32Z</time>
      </trkpt>
      <trkpt lat="46.370943496003747" lon="11.802672939375043">
        <ele>2067.4499999999998</ele>
        <time>2017-07-02T10:20:42Z</time>
      </trkpt>
      <trkpt lat="46.37089773081243" lon="11.802681237459183">
        <ele>2067.9299999999998</ele>
        <time>2017-07-02T10:20:53Z</time>
      </trkpt>
      <trkpt lat="46.370871495455503" lon="11.802699342370033">
        <ele>2068.4099999999999</ele>
        <time>2017-07-02T10:21:08Z</time>
      </trkpt>
      <trkpt lat="46.370852133259177" lon="11.802715603262186">
        <ele>2069.3800000000001</ele>
        <time>2017-07-02T10:21:17Z</time>
      </trkpt>
      <trkpt lat="46.370862778276205" lon="11.802705461159348">
        <ele>2069.3800000000001</ele>
        <time>2017-07-02T10:21:30Z</time>
      </trkpt>
      <trkpt lat="46.370857078582048" lon="11.802706969901919">
        <ele>2069.3800000000001</ele>
        <time>2017-07-02T10:21:48Z</time>
      </trkpt>
      <trkpt lat="46.370842661708593" lon="11.802708311006427">
        <ele>2069.8600000000001</ele>
        <time>2017-07-02T10:21:55Z</time>
      </trkpt>
      <trkpt lat="46.370780635625124" lon="11.802749801427126">
        <ele>2071.3000000000002</ele>
        <time>2017-07-02T10:22:06Z</time>
      </trkpt>
      <trkpt lat="46.370735205709934" lon="11.802801350131631">
        <ele>2072.7399999999998</ele>
        <time>2017-07-02T10:22:15Z</time>
      </trkpt>
      <trkpt lat="46.370705114677548" lon="11.802783831954002">
        <ele>2074.1799999999998</ele>
        <time>2017-07-02T10:22:25Z</time>
      </trkpt>
      <trkpt lat="46.370640657842159" lon="11.802795818075538">
        <ele>2075.1399999999999</ele>
        <time>2017-07-02T10:22:34Z</time>
      </trkpt>
      <trkpt lat="46.370583409443498" lon="11.802807133644819">
        <ele>2077.0700000000002</ele>
        <time>2017-07-02T10:22:46Z</time>
      </trkpt>
      <trkpt lat="46.37053219601512" lon="11.802843846380711">
        <ele>2078.5100000000002</ele>
        <time>2017-07-02T10:22:55Z</time>
      </trkpt>
      <trkpt lat="46.37046430259943" lon="11.802883241325617">
        <ele>2079.9499999999998</ele>
        <time>2017-07-02T10:23:05Z</time>
      </trkpt>
      <trkpt lat="46.370421471074224" lon="11.802957253530622">
        <ele>2081.8699999999999</ele>
        <time>2017-07-02T10:23:16Z</time>
      </trkpt>
      <trkpt lat="46.370380902662873" lon="11.803007964044809">
        <ele>2083.79</ele>
        <time>2017-07-02T10:23:29Z</time>
      </trkpt>
      <trkpt lat="46.370381237939" lon="11.803008550778031">
        <ele>2084.7600000000002</ele>
        <time>2017-07-02T10:23:40Z</time>
      </trkpt>
      <trkpt lat="46.370393140241504" lon="11.803039480000734">
        <ele>2086.6799999999998</ele>
        <time>2017-07-02T10:23:50Z</time>
      </trkpt>
      <trkpt lat="46.370373358950019" lon="11.803121622651815">
        <ele>2088.5999999999999</ele>
        <time>2017-07-02T10:24:03Z</time>
      </trkpt>
      <trkpt lat="46.370369419455528" lon="11.803207704797387">
        <ele>2090.52</ele>
        <time>2017-07-02T10:24:16Z</time>
      </trkpt>
      <trkpt lat="46.370376041159034" lon="11.803219942376018">
        <ele>2091.9699999999998</ele>
        <time>2017-07-02T10:24:27Z</time>
      </trkpt>
      <trkpt lat="46.370400600135326" lon="11.803261851891875">
        <ele>2093.4099999999999</ele>
        <time>2017-07-02T10:24:35Z</time>
      </trkpt>
      <trkpt lat="46.370440917089581" lon="11.803257828578353">
        <ele>2093.8899999999999</ele>
        <time>2017-07-02T10:24:49Z</time>
      </trkpt>
      <trkpt lat="46.370496992021799" lon="11.803287584334612">
        <ele>2095.3299999999999</ele>
        <time>2017-07-02T10:25:00Z</time>
      </trkpt>
      <trkpt lat="46.370492214336991" lon="11.803343826904893">
        <ele>2097.73</ele>
        <time>2017-07-02T10:25:13Z</time>
      </trkpt>
      <trkpt lat="46.370480479672551" lon="11.803381377831101">
        <ele>2099.1799999999998</ele>
        <time>2017-07-02T10:25:24Z</time>
      </trkpt>
      <trkpt lat="46.370449718087912" lon="11.803406942635775">
        <ele>2100.6199999999999</ele>
        <time>2017-07-02T10:25:32Z</time>
      </trkpt>
      <trkpt lat="46.370441671460867" lon="11.80345362983644">
        <ele>2102.0599999999999</ele>
        <time>2017-07-02T10:25:42Z</time>
      </trkpt>
      <trkpt lat="46.370410490781069" lon="11.803466370329261">
        <ele>2103.5</ele>
        <time>2017-07-02T10:25:52Z</time>
      </trkpt>
      <trkpt lat="46.370402108877897" lon="11.803491683676839">
        <ele>2104.46</ele>
        <time>2017-07-02T10:26:04Z</time>
      </trkpt>
      <trkpt lat="46.370414514094591" lon="11.803527725860476">
        <ele>2105.9099999999999</ele>
        <time>2017-07-02T10:26:15Z</time>
      </trkpt>
      <trkpt lat="46.370407473295927" lon="11.803553039208055">
        <ele>2108.3099999999999</ele>
        <time>2017-07-02T10:26:23Z</time>
      </trkpt>
      <trkpt lat="46.370420716702938" lon="11.803611796349287">
        <ele>2109.75</ele>
        <time>2017-07-02T10:26:32Z</time>
      </trkpt>
      <trkpt lat="46.370410993695259" lon="11.803681952878833">
        <ele>2110.71</ele>
        <time>2017-07-02T10:26:42Z</time>
      </trkpt>
      <trkpt lat="46.370375622063875" lon="11.80375169031322">
        <ele>2111.6700000000001</ele>
        <time>2017-07-02T10:26:52Z</time>
      </trkpt>
      <trkpt lat="46.370334550738335" lon="11.803818410262465">
        <ele>2113.1199999999999</ele>
        <time>2017-07-02T10:27:03Z</time>
      </trkpt>
      <trkpt lat="46.370296664535999" lon="11.803887644782662">
        <ele>2114.5599999999999</ele>
        <time>2017-07-02T10:27:12Z</time>
      </trkpt>
      <trkpt lat="46.370275458320975" lon="11.803937517106533">
        <ele>2114.5599999999999</ele>
        <time>2017-07-02T10:27:17Z</time>
      </trkpt>
      <trkpt lat="46.370221227407455" lon="11.80400088429451">
        <ele>2113.1199999999999</ele>
        <time>2017-07-02T10:27:24Z</time>
      </trkpt>
      <trkpt lat="46.370183592662215" lon="11.804069364443421">
        <ele>2115.52</ele>
        <time>2017-07-02T10:27:30Z</time>
      </trkpt>
      <trkpt lat="46.370119722560048" lon="11.804123762995005">
        <ele>2116</ele>
        <time>2017-07-02T10:27:42Z</time>
      </trkpt>
      <trkpt lat="46.370080411434174" lon="11.804147902876139">
        <ele>2117.4400000000001</ele>
        <time>2017-07-02T10:27:50Z</time>
      </trkpt>
      <trkpt lat="46.370000280439854" lon="11.804168438538909">
        <ele>2117.9200000000001</ele>
        <time>2017-07-02T10:27:59Z</time>
      </trkpt>
      <trkpt lat="46.369936829432845" lon="11.804156871512532">
        <ele>2118.8800000000001</ele>
        <time>2017-07-02T10:28:08Z</time>
      </trkpt>
      <trkpt lat="46.369867846369743" lon="11.804183609783649">
        <ele>2120.3200000000002</ele>
        <time>2017-07-02T10:28:19Z</time>
      </trkpt>
      <trkpt lat="46.369800791144371" lon="11.804215963929892">
        <ele>2120.8099999999999</ele>
        <time>2017-07-02T10:28:30Z</time>
      </trkpt>
      <trkpt lat="46.369800288230181" lon="11.804231889545918">
        <ele>2120.8099999999999</ele>
        <time>2017-07-02T10:28:40Z</time>
      </trkpt>
      <trkpt lat="46.369766090065241" lon="11.804305147379637">
        <ele>2120.3200000000002</ele>
        <time>2017-07-02T10:28:50Z</time>
      </trkpt>
      <trkpt lat="46.369747398421168" lon="11.804354516789317">
        <ele>2120.8099999999999</ele>
        <time>2017-07-02T10:28:55Z</time>
      </trkpt>
      <trkpt lat="46.369717391207814" lon="11.804465157911181">
        <ele>2120.8099999999999</ele>
        <time>2017-07-02T10:29:04Z</time>
      </trkpt>
      <trkpt lat="46.369674392044544" lon="11.804491309449077">
        <ele>2120.8099999999999</ele>
        <time>2017-07-02T10:29:14Z</time>
      </trkpt>
      <trkpt lat="46.369574479758739" lon="11.804598430171609">
        <ele>2121.29</ele>
        <time>2017-07-02T10:29:28Z</time>
      </trkpt>
      <trkpt lat="46.369479261338711" lon="11.804602118209004">
        <ele>2122.25</ele>
        <time>2017-07-02T10:29:41Z</time>
      </trkpt>
      <trkpt lat="46.369457803666592" lon="11.804630532860756">
        <ele>2122.25</ele>
        <time>2017-07-02T10:29:53Z</time>
      </trkpt>
      <trkpt lat="46.369507173076272" lon="11.804545791819692">
        <ele>2122.25</ele>
        <time>2017-07-02T10:30:04Z</time>
      </trkpt>
      <trkpt lat="46.369523266330361" lon="11.804545372724533">
        <ele>2122.25</ele>
        <time>2017-07-02T10:30:15Z</time>
      </trkpt>
      <trkpt lat="46.369522428140044" lon="11.804566327482462">
        <ele>2122.25</ele>
        <time>2017-07-02T10:30:27Z</time>
      </trkpt>
      <trkpt lat="46.369503233581781" lon="11.804545121267438">
        <ele>2122.25</ele>
        <time>2017-07-02T10:30:38Z</time>
      </trkpt>
      <trkpt lat="46.369512118399143" lon="11.804566411301494">
        <ele>2122.25</ele>
        <time>2017-07-02T10:30:51Z</time>
      </trkpt>
      <trkpt lat="46.369499377906322" lon="11.804566914215684">
        <ele>2122.25</ele>
        <time>2017-07-02T10:31:02Z</time>
      </trkpt>
      <trkpt lat="46.369490493088961" lon="11.804575882852077">
        <ele>2122.73</ele>
        <time>2017-07-02T10:31:18Z</time>
      </trkpt>
      <trkpt lat="46.369478339329362" lon="11.804604548960924">
        <ele>2122.25</ele>
        <time>2017-07-02T10:31:28Z</time>
      </trkpt>
      <trkpt lat="46.36947724968195" lon="11.804616032168269">
        <ele>2122.25</ele>
        <time>2017-07-02T10:31:37Z</time>
      </trkpt>
      <trkpt lat="46.369479512795806" lon="11.804605890065432">
        <ele>2122.73</ele>
        <time>2017-07-02T10:31:51Z</time>
      </trkpt>
      <trkpt lat="46.369479345157743" lon="11.804619217291474">
        <ele>2122.73</ele>
        <time>2017-07-02T10:32:05Z</time>
      </trkpt>
      <trkpt lat="46.369474232196808" lon="11.804643021896482">
        <ele>2122.25</ele>
        <time>2017-07-02T10:32:14Z</time>
      </trkpt>
      <trkpt lat="46.369470711797476" lon="11.804621145129204">
        <ele>2122.73</ele>
        <time>2017-07-02T10:32:27Z</time>
      </trkpt>
      <trkpt lat="46.369474483653903" lon="11.804641094058752">
        <ele>2122.25</ele>
        <time>2017-07-02T10:32:32Z</time>
      </trkpt>
      <trkpt lat="46.369482195004821" lon="11.804668754339218">
        <ele>2122.25</ele>
        <time>2017-07-02T10:32:34Z</time>
      </trkpt>
      <trkpt lat="46.369529468938708" lon="11.804760368540883">
        <ele>2121.77</ele>
        <time>2017-07-02T10:32:42Z</time>
      </trkpt>
      <trkpt lat="46.369477836415172" lon="11.804825663566589">
        <ele>2122.25</ele>
        <time>2017-07-02T10:32:53Z</time>
      </trkpt>
      <trkpt lat="46.369445817545056" lon="11.804824573919177">
        <ele>2124.6500000000001</ele>
        <time>2017-07-02T10:33:02Z</time>
      </trkpt>
      <trkpt lat="46.369435926899314" lon="11.804836224764585">
        <ele>2126.5700000000002</ele>
        <time>2017-07-02T10:33:13Z</time>
      </trkpt>
      <trkpt lat="46.369407847523689" lon="11.804847707971931">
        <ele>2128.5</ele>
        <time>2017-07-02T10:33:24Z</time>
      </trkpt>
      <trkpt lat="46.369373481720686" lon="11.804859274998307">
        <ele>2129.46</ele>
        <time>2017-07-02T10:33:30Z</time>
      </trkpt>
      <trkpt lat="46.369320508092642" lon="11.804888863116503">
        <ele>2131.3800000000001</ele>
        <time>2017-07-02T10:33:40Z</time>
      </trkpt>
      <trkpt lat="46.369285052642226" lon="11.804895903915167">
        <ele>2133.3000000000002</ele>
        <time>2017-07-02T10:33:50Z</time>
      </trkpt>
      <trkpt lat="46.36925445869565" lon="11.804884504526854">
        <ele>2135.23</ele>
        <time>2017-07-02T10:33:59Z</time>
      </trkpt>
      <trkpt lat="46.369233839213848" lon="11.804863046854734">
        <ele>2136.6700000000001</ele>
        <time>2017-07-02T10:34:08Z</time>
      </trkpt>
      <trkpt lat="46.369186649098992" lon="11.804828681051731">
        <ele>2138.5900000000001</ele>
        <time>2017-07-02T10:34:20Z</time>
      </trkpt>
      <trkpt lat="46.369163347408175" lon="11.804785178974271">
        <ele>2140.5100000000002</ele>
        <time>2017-07-02T10:34:31Z</time>
      </trkpt>
      <trkpt lat="46.369144236668944" lon="11.804732205346227">
        <ele>2141.9499999999998</ele>
        <time>2017-07-02T10:34:40Z</time>
      </trkpt>
      <trkpt lat="46.369138034060597" lon="11.804759111255407">
        <ele>2142.4400000000001</ele>
        <time>2017-07-02T10:34:50Z</time>
      </trkpt>
      <trkpt lat="46.369159072637558" lon="11.804746873676777">
        <ele>2142.9200000000001</ele>
        <time>2017-07-02T10:35:02Z</time>
      </trkpt>
      <trkpt lat="46.369133507832885" lon="11.804817952215672">
        <ele>2143.8800000000001</ele>
        <time>2017-07-02T10:35:14Z</time>
      </trkpt>
      <trkpt lat="46.369083216413856" lon="11.80492783896625">
        <ele>2146.2800000000002</ele>
        <time>2017-07-02T10:35:28Z</time>
      </trkpt>
      <trkpt lat="46.369066284969449" lon="11.804999839514494">
        <ele>2147.7199999999998</ele>
        <time>2017-07-02T10:35:40Z</time>
      </trkpt>
      <trkpt lat="46.369057232514024" lon="11.805077875033021">
        <ele>2148.1999999999998</ele>
        <time>2017-07-02T10:35:50Z</time>
      </trkpt>
      <trkpt lat="46.369029739871621" lon="11.805123891681433">
        <ele>2149.1599999999999</ele>
        <time>2017-07-02T10:36:03Z</time>
      </trkpt>
      <trkpt lat="46.368968049064279" lon="11.805176278576255">
        <ele>2151.0900000000001</ele>
        <time>2017-07-02T10:36:15Z</time>
      </trkpt>
      <trkpt lat="46.36897592805326" lon="11.805189019069076">
        <ele>2151.0900000000001</ele>
        <time>2017-07-02T10:36:23Z</time>
      </trkpt>
      <trkpt lat="46.36897542513907" lon="11.805183487012982">
        <ele>2151.0900000000001</ele>
        <time>2017-07-02T10:36:36Z</time>
      </trkpt>
      <trkpt lat="46.368895713239908" lon="11.805303348228335">
        <ele>2152.0500000000002</ele>
        <time>2017-07-02T10:36:49Z</time>
      </trkpt>
      <trkpt lat="46.368872160091996" lon="11.80538515560329">
        <ele>2153.0100000000002</ele>
        <time>2017-07-02T10:36:57Z</time>
      </trkpt>
      <trkpt lat="46.368841314688325" lon="11.805453300476074">
        <ele>2152.5300000000002</ele>
        <time>2017-07-02T10:37:02Z</time>
      </trkpt>
      <trkpt lat="46.368796471506357" lon="11.805597972124815">
        <ele>2152.0500000000002</ele>
        <time>2017-07-02T10:37:13Z</time>
      </trkpt>
      <trkpt lat="46.368757160380483" lon="11.805695788934827">
        <ele>2153.4899999999998</ele>
        <time>2017-07-02T10:37:23Z</time>
      </trkpt>
      <trkpt lat="46.368741150945425" lon="11.805815231055021">
        <ele>2154.4499999999998</ele>
        <time>2017-07-02T10:37:34Z</time>
      </trkpt>
      <trkpt lat="46.368767721578479" lon="11.805889243260026">
        <ele>2154.9299999999998</ele>
        <time>2017-07-02T10:37:43Z</time>
      </trkpt>
      <trkpt lat="46.368788760155439" lon="11.805950179696083">
        <ele>2154.9299999999998</ele>
        <time>2017-07-02T10:37:54Z</time>
      </trkpt>
      <trkpt lat="46.368795549497008" lon="11.805961076170206">
        <ele>2154.4499999999998</ele>
        <time>2017-07-02T10:38:02Z</time>
      </trkpt>
      <trkpt lat="46.368771325796843" lon="11.805986724793911">
        <ele>2155.4099999999999</ele>
        <time>2017-07-02T10:38:15Z</time>
      </trkpt>
      <trkpt lat="46.368774427101016" lon="11.806026371195912">
        <ele>2155.4099999999999</ele>
        <time>2017-07-02T10:38:26Z</time>
      </trkpt>
      <trkpt lat="46.368770068511367" lon="11.806044476106763">
        <ele>2155.4099999999999</ele>
        <time>2017-07-02T10:38:28Z</time>
      </trkpt>
      <trkpt lat="46.368762273341417" lon="11.806064592674375">
        <ele>2154.9299999999998</ele>
        <time>2017-07-02T10:38:30Z</time>
      </trkpt>
      <trkpt lat="46.368694296106696" lon="11.806230638176203">
        <ele>2153.9699999999998</ele>
        <time>2017-07-02T10:38:42Z</time>
      </trkpt>
      <trkpt lat="46.368676526471972" lon="11.806362988427281">
        <ele>2152.0500000000002</ele>
        <time>2017-07-02T10:38:52Z</time>
      </trkpt>
      <trkpt lat="46.368699241429567" lon="11.806477149948478">
        <ele>2150.6100000000001</ele>
        <time>2017-07-02T10:39:01Z</time>
      </trkpt>
      <trkpt lat="46.368797728791833" lon="11.806604722514749">
        <ele>2147.2399999999998</ele>
        <time>2017-07-02T10:39:13Z</time>
      </trkpt>
      <trkpt lat="46.368834357708693" lon="11.806692313402891">
        <ele>2145.8000000000002</ele>
        <time>2017-07-02T10:39:20Z</time>
      </trkpt>
      <trkpt lat="46.36889579705894" lon="11.806815695017576">
        <ele>2143.4000000000001</ele>
        <time>2017-07-02T10:39:31Z</time>
      </trkpt>
      <trkpt lat="46.368871070444584" lon="11.806904291734099">
        <ele>2142.4400000000001</ele>
        <time>2017-07-02T10:39:41Z</time>
      </trkpt>
      <trkpt lat="46.36885036714375" lon="11.806909069418907">
        <ele>2141.9499999999998</ele>
        <time>2017-07-02T10:39:50Z</time>
      </trkpt>
      <trkpt lat="46.368875093758106" lon="11.806901777163148">
        <ele>2141.9499999999998</ele>
        <time>2017-07-02T10:40:05Z</time>
      </trkpt>
      <trkpt lat="46.368857156485319" lon="11.80690823122859">
        <ele>2142.9200000000001</ele>
        <time>2017-07-02T10:40:18Z</time>
      </trkpt>
      <trkpt lat="46.368844248354435" lon="11.806963635608554">
        <ele>2141.9499999999998</ele>
        <time>2017-07-02T10:40:28Z</time>
      </trkpt>
      <trkpt lat="46.36884986422956" lon="11.807018285617232">
        <ele>2141.4699999999998</ele>
        <time>2017-07-02T10:40:32Z</time>
      </trkpt>
      <trkpt lat="46.368874758481979" lon="11.807078551501036">
        <ele>2140.5100000000002</ele>
        <time>2017-07-02T10:40:39Z</time>
      </trkpt>
      <trkpt lat="46.368895629420877" lon="11.807091711089015">
        <ele>2140.5100000000002</ele>
        <time>2017-07-02T10:40:41Z</time>
      </trkpt>
      <trkpt lat="46.368897724896669" lon="11.807141583412886">
        <ele>2140.5100000000002</ele>
        <time>2017-07-02T10:40:44Z</time>
      </trkpt>
      <trkpt lat="46.368889342993498" lon="11.807165639474988">
        <ele>2140.0300000000002</ele>
        <time>2017-07-02T10:40:46Z</time>
      </trkpt>
      <trkpt lat="46.368873752653599" lon="11.807283656671643">
        <ele>2140.0300000000002</ele>
        <time>2017-07-02T10:40:54Z</time>
      </trkpt>
      <trkpt lat="46.368869058787823" lon="11.807336714118719">
        <ele>2140.5100000000002</ele>
        <time>2017-07-02T10:40:59Z</time>
      </trkpt>
      <trkpt lat="46.36891096830368" lon="11.807374348863959">
        <ele>2140.5100000000002</ele>
        <time>2017-07-02T10:41:09Z</time>
      </trkpt>
      <trkpt lat="46.368947429582477" lon="11.80741491727531">
        <ele>2140.0300000000002</ele>
        <time>2017-07-02T10:41:15Z</time>
      </trkpt>
      <trkpt lat="46.368982130661607" lon="11.807485241442919">
        <ele>2140.9899999999998</ele>
        <time>2017-07-02T10:41:23Z</time>
      </trkpt>
      <trkpt lat="46.368998056277633" lon="11.807535784319043">
        <ele>2141.9499999999998</ele>
        <time>2017-07-02T10:41:29Z</time>
      </trkpt>
      <trkpt lat="46.368999145925045" lon="11.807562690228224">
        <ele>2141.9499999999998</ele>
        <time>2017-07-02T10:41:31Z</time>
      </trkpt>
      <trkpt lat="46.369062680751085" lon="11.807625386863947">
        <ele>2142.9200000000001</ele>
        <time>2017-07-02T10:41:41Z</time>
      </trkpt>
      <trkpt lat="46.369135938584805" lon="11.807656986638904">
        <ele>2144.3600000000001</ele>
        <time>2017-07-02T10:41:52Z</time>
      </trkpt>
      <trkpt lat="46.369163850322366" lon="11.807705936953425">
        <ele>2145.8000000000002</ele>
        <time>2017-07-02T10:42:02Z</time>
      </trkpt>
      <trkpt lat="46.369205340743065" lon="11.807715073227882">
        <ele>2147.7199999999998</ele>
        <time>2017-07-02T10:42:12Z</time>
      </trkpt>
      <trkpt lat="46.369218332692981" lon="11.807746421545744">
        <ele>2149.1599999999999</ele>
        <time>2017-07-02T10:42:19Z</time>
      </trkpt>
      <trkpt lat="46.369229480624199" lon="11.807825127616525">
        <ele>2150.6100000000001</ele>
        <time>2017-07-02T10:42:29Z</time>
      </trkpt>
      <trkpt lat="46.369195869192481" lon="11.807897631078959">
        <ele>2152.0500000000002</ele>
        <time>2017-07-02T10:42:39Z</time>
      </trkpt>
      <trkpt lat="46.369184721261263" lon="11.807975247502327">
        <ele>2153.9699999999998</ele>
        <time>2017-07-02T10:42:49Z</time>
      </trkpt>
      <trkpt lat="46.369181368499994" lon="11.808003326877952">
        <ele>2154.4499999999998</ele>
        <time>2017-07-02T10:42:52Z</time>
      </trkpt>
      <trkpt lat="46.369142895564437" lon="11.808107430115342">
        <ele>2153.4899999999998</ele>
        <time>2017-07-02T10:43:03Z</time>
      </trkpt>
      <trkpt lat="46.369152702391148" lon="11.808190243318677">
        <ele>2155.4099999999999</ele>
        <time>2017-07-02T10:43:12Z</time>
      </trkpt>
      <trkpt lat="46.369164185598493" lon="11.808331646025181">
        <ele>2155.8899999999999</ele>
        <time>2017-07-02T10:43:25Z</time>
      </trkpt>
      <trkpt lat="46.369181200861931" lon="11.80839266628027">
        <ele>2155.4099999999999</ele>
        <time>2017-07-02T10:43:31Z</time>
      </trkpt>
      <trkpt lat="46.369188325479627" lon="11.808427283540368">
        <ele>2155.4099999999999</ele>
        <time>2017-07-02T10:43:33Z</time>
      </trkpt>
      <trkpt lat="46.369199389591813" lon="11.808506492525339">
        <ele>2155.8899999999999</ele>
        <time>2017-07-02T10:43:39Z</time>
      </trkpt>
      <trkpt lat="46.369193103164434" lon="11.808617133647203">
        <ele>2156.3699999999999</ele>
        <time>2017-07-02T10:43:48Z</time>
      </trkpt>
      <trkpt lat="46.369191259145737" lon="11.808626605197787">
        <ele>2156.8600000000001</ele>
        <time>2017-07-02T10:44:02Z</time>
      </trkpt>
      <trkpt lat="46.369185391813517" lon="11.808681506663561">
        <ele>2156.8600000000001</ele>
        <time>2017-07-02T10:44:09Z</time>
      </trkpt>
      <trkpt lat="46.369169633835554" lon="11.808850569650531">
        <ele>2157.3400000000001</ele>
        <time>2017-07-02T10:44:22Z</time>
      </trkpt>
      <trkpt lat="46.369160916656256" lon="11.808968670666218">
        <ele>2158.3000000000002</ele>
        <time>2017-07-02T10:44:35Z</time>
      </trkpt>
      <trkpt lat="46.369133675470948" lon="11.809017956256866">
        <ele>2160.6999999999998</ele>
        <time>2017-07-02T10:44:47Z</time>
      </trkpt>
      <trkpt lat="46.369144236668944" lon="11.809065984562039">
        <ele>2161.1799999999998</ele>
        <time>2017-07-02T10:44:58Z</time>
      </trkpt>
      <trkpt lat="46.369125377386808" lon="11.809177380055189">
        <ele>2162.1399999999999</ele>
        <time>2017-07-02T10:45:09Z</time>
      </trkpt>
      <trkpt lat="46.369091682136059" lon="11.809243848547339">
        <ele>2164.5500000000002</ele>
        <time>2017-07-02T10:45:24Z</time>
      </trkpt>
      <trkpt lat="46.369086150079966" lon="11.809320962056518">
        <ele>2166.4699999999998</ele>
        <time>2017-07-02T10:45:35Z</time>
      </trkpt>
      <trkpt lat="46.369068380445242" lon="11.809403356164694">
        <ele>2168.8699999999999</ele>
        <time>2017-07-02T10:45:49Z</time>
      </trkpt>
      <trkpt lat="46.369049940258265" lon="11.809468399733305">
        <ele>2170.79</ele>
        <time>2017-07-02T10:46:00Z</time>
      </trkpt>
      <trkpt lat="46.369057651609182" lon="11.809536712244153">
        <ele>2171.7600000000002</ele>
        <time>2017-07-02T10:46:11Z</time>
      </trkpt>
      <trkpt lat="46.369059663265944" lon="11.809637881815434">
        <ele>2174.1599999999999</ele>
        <time>2017-07-02T10:46:25Z</time>
      </trkpt>
      <trkpt lat="46.369043821468949" lon="11.80972320958972">
        <ele>2175.1199999999999</ele>
        <time>2017-07-02T10:46:36Z</time>
      </trkpt>
      <trkpt lat="46.369034685194492" lon="11.809830330312252">
        <ele>2176.5599999999999</ele>
        <time>2017-07-02T10:46:49Z</time>
      </trkpt>
      <trkpt lat="46.369008030742407" lon="11.809934265911579">
        <ele>2178</ele>
        <time>2017-07-02T10:47:02Z</time>
      </trkpt>
      <trkpt lat="46.368977520614862" lon="11.809985479339957">
        <ele>2178.48</ele>
        <time>2017-07-02T10:47:13Z</time>
      </trkpt>
      <trkpt lat="46.368980789557099" lon="11.810083379969001">
        <ele>2179.4499999999998</ele>
        <time>2017-07-02T10:47:24Z</time>
      </trkpt>
      <trkpt lat="46.368965618312359" lon="11.810189075767994">
        <ele>2180.4099999999999</ele>
        <time>2017-07-02T10:47:35Z</time>
      </trkpt>
      <trkpt lat="46.368944328278303" lon="11.810307763516903">
        <ele>2181.8499999999999</ele>
        <time>2017-07-02T10:47:47Z</time>
      </trkpt>
      <trkpt lat="46.368920104578137" lon="11.810411112383008">
        <ele>2183.29</ele>
        <time>2017-07-02T10:48:00Z</time>
      </trkpt>
      <trkpt lat="46.368909124284983" lon="11.810542372986674">
        <ele>2183.77</ele>
        <time>2017-07-02T10:48:13Z</time>
      </trkpt>
      <trkpt lat="46.368903340771794" lon="11.810608254745603">
        <ele>2184.25</ele>
        <time>2017-07-02T10:48:23Z</time>
      </trkpt>
      <trkpt lat="46.368901245296001" lon="11.810611691325903">
        <ele>2184.25</ele>
        <time>2017-07-02T10:48:38Z</time>
      </trkpt>
      <trkpt lat="46.368889342993498" lon="11.810636250302196">
        <ele>2183.77</ele>
        <time>2017-07-02T10:48:42Z</time>
      </trkpt>
      <trkpt lat="46.368859084323049" lon="11.810722248628736">
        <ele>2184.73</ele>
        <time>2017-07-02T10:48:52Z</time>
      </trkpt>
      <trkpt lat="46.368863023817539" lon="11.810713615268469">
        <ele>2185.21</ele>
        <time>2017-07-02T10:49:00Z</time>
      </trkpt>
      <trkpt lat="46.368870316073298" lon="11.810728870332241">
        <ele>2184.73</ele>
        <time>2017-07-02T10:49:18Z</time>
      </trkpt>
      <trkpt lat="46.368844248354435" lon="11.810741946101189">
        <ele>2184.73</ele>
        <time>2017-07-02T10:49:29Z</time>
      </trkpt>
      <trkpt lat="46.368838716298342" lon="11.810750244185328">
        <ele>2184.73</ele>
        <time>2017-07-02T10:49:30Z</time>
      </trkpt>
      <trkpt lat="46.368805440142751" lon="11.81077815592289">
        <ele>2185.21</ele>
        <time>2017-07-02T10:49:35Z</time>
      </trkpt>
      <trkpt lat="46.368778366595507" lon="11.810816125944257">
        <ele>2185.21</ele>
        <time>2017-07-02T10:49:39Z</time>
      </trkpt>
      <trkpt lat="46.36874140240252" lon="11.810827692970634">
        <ele>2185.21</ele>
        <time>2017-07-02T10:49:44Z</time>
      </trkpt>
      <trkpt lat="46.368675604462624" lon="11.810920564457774">
        <ele>2187.6199999999999</ele>
        <time>2017-07-02T10:49:56Z</time>
      </trkpt>
      <trkpt lat="46.368663785979152" lon="11.810933221131563">
        <ele>2187.6199999999999</ele>
        <time>2017-07-02T10:49:58Z</time>
      </trkpt>
      <trkpt lat="46.368643501773477" lon="11.810964485630393">
        <ele>2188.0999999999999</ele>
        <time>2017-07-02T10:50:01Z</time>
      </trkpt>
      <trkpt lat="46.368588600307703" lon="11.811040174216032">
        <ele>2187.6199999999999</ele>
        <time>2017-07-02T10:50:12Z</time>
      </trkpt>
      <trkpt lat="46.368543589487672" lon="11.811099601909518">
        <ele>2190.02</ele>
        <time>2017-07-02T10:50:22Z</time>
      </trkpt>
      <trkpt lat="46.36853227391839" lon="11.811159113422036">
        <ele>2189.54</ele>
        <time>2017-07-02T10:50:27Z</time>
      </trkpt>
      <trkpt lat="46.368499752134085" lon="11.81122868321836">
        <ele>2189.54</ele>
        <time>2017-07-02T10:50:32Z</time>
      </trkpt>
      <trkpt lat="46.368472678586841" lon="11.811295822262764">
        <ele>2189.54</ele>
        <time>2017-07-02T10:50:38Z</time>
      </trkpt>
      <trkpt lat="46.36842867359519" lon="11.811387185007334">
        <ele>2190.98</ele>
        <time>2017-07-02T10:50:48Z</time>
      </trkpt>
      <trkpt lat="46.368426578119397" lon="11.811399087309837">
        <ele>2190.5</ele>
        <time>2017-07-02T10:50:49Z</time>
      </trkpt>
      <trkpt lat="46.368375867605209" lon="11.811513584107161">
        <ele>2191.46</ele>
        <time>2017-07-02T10:51:00Z</time>
      </trkpt>
      <trkpt lat="46.368365474045277" lon="11.81152967736125">
        <ele>2191.46</ele>
        <time>2017-07-02T10:51:02Z</time>
      </trkpt>
      <trkpt lat="46.368275117129087" lon="11.811607209965587">
        <ele>2192.9000000000001</ele>
        <time>2017-07-02T10:51:15Z</time>
      </trkpt>
      <trkpt lat="46.36825860477984" lon="11.811637049540877">
        <ele>2192.9000000000001</ele>
        <time>2017-07-02T10:51:18Z</time>
      </trkpt>
      <trkpt lat="46.36819071136415" lon="11.811666805297136">
        <ele>2193.8699999999999</ele>
        <time>2017-07-02T10:51:28Z</time>
      </trkpt>
      <trkpt lat="46.368171432986856" lon="11.811679629608989">
        <ele>2194.3499999999999</ele>
        <time>2017-07-02T10:51:31Z</time>
      </trkpt>
      <trkpt lat="46.368106473237276" lon="11.811760012060404">
        <ele>2194.8299999999999</ele>
        <time>2017-07-02T10:51:41Z</time>
      </trkpt>
      <trkpt lat="46.368041429668665" lon="11.811827318742871">
        <ele>2194.3499999999999</ele>
        <time>2017-07-02T10:51:51Z</time>
      </trkpt>
      <trkpt lat="46.367992060258985" lon="11.811942737549543">
        <ele>2194.8299999999999</ele>
        <time>2017-07-02T10:52:01Z</time>
      </trkpt>
      <trkpt lat="46.367913018912077" lon="11.812056060880423">
        <ele>2195.3099999999999</ele>
        <time>2017-07-02T10:52:13Z</time>
      </trkpt>
      <trkpt lat="46.367842108011246" lon="11.812180280685425">
        <ele>2195.79</ele>
        <time>2017-07-02T10:52:25Z</time>
      </trkpt>
      <trkpt lat="46.367779411375523" lon="11.812273487448692">
        <ele>2195.79</ele>
        <time>2017-07-02T10:52:34Z</time>
      </trkpt>
      <trkpt lat="46.367726605385542" lon="11.812342554330826">
        <ele>2196.27</ele>
        <time>2017-07-02T10:52:41Z</time>
      </trkpt>
      <trkpt lat="46.367714703083038" lon="11.812363676726818">
        <ele>2196.27</ele>
        <time>2017-07-02T10:52:43Z</time>
      </trkpt>
      <trkpt lat="46.36764345690608" lon="11.812462080270052">
        <ele>2197.23</ele>
        <time>2017-07-02T10:52:54Z</time>
      </trkpt>
      <trkpt lat="46.36756768450141" lon="11.812504073604941">
        <ele>2198.1900000000001</ele>
        <time>2017-07-02T10:53:05Z</time>
      </trkpt>
      <trkpt lat="46.36747925542295" lon="11.81255679577589">
        <ele>2199.1500000000001</ele>
        <time>2017-07-02T10:53:16Z</time>
      </trkpt>
      <trkpt lat="46.367387138307095" lon="11.812624940648675">
        <ele>2200.1100000000001</ele>
        <time>2017-07-02T10:53:28Z</time>
      </trkpt>
      <trkpt lat="46.367299882695079" lon="11.812646565958858">
        <ele>2202.04</ele>
        <time>2017-07-02T10:53:40Z</time>
      </trkpt>
      <trkpt lat="46.367212291806936" lon="11.8126857932657">
        <ele>2203</ele>
        <time>2017-07-02T10:53:52Z</time>
      </trkpt>
      <trkpt lat="46.367158899083734" lon="11.812701970338821">
        <ele>2204.4400000000001</ele>
        <time>2017-07-02T10:54:04Z</time>
      </trkpt>
      <trkpt lat="46.367102069780231" lon="11.812631227076054">
        <ele>2204.9200000000001</ele>
        <time>2017-07-02T10:54:14Z</time>
      </trkpt>
      <trkpt lat="46.367061166092753" lon="11.812626114115119">
        <ele>2204.9200000000001</ele>
        <time>2017-07-02T10:54:31Z</time>
      </trkpt>
      <trkpt lat="46.36694859713316" lon="11.812649415805936">
        <ele>2204.4400000000001</ele>
        <time>2017-07-02T10:54:44Z</time>
      </trkpt>
      <trkpt lat="46.366836028173566" lon="11.81274295784533">
        <ele>2205.4000000000001</ele>
        <time>2017-07-02T10:54:57Z</time>
      </trkpt>
      <trkpt lat="46.366754304617643" lon="11.812762152403593">
        <ele>2207.3200000000002</ele>
        <time>2017-07-02T10:55:08Z</time>
      </trkpt>
      <trkpt lat="46.366678532212973" lon="11.812761314213276">
        <ele>2209.25</ele>
        <time>2017-07-02T10:55:18Z</time>
      </trkpt>
      <trkpt lat="46.366608208045363" lon="11.8127825204283">
        <ele>2210.21</ele>
        <time>2017-07-02T10:55:28Z</time>
      </trkpt>
      <trkpt lat="46.366546098142862" lon="11.812758380547166">
        <ele>2210.6900000000001</ele>
        <time>2017-07-02T10:55:38Z</time>
      </trkpt>
      <trkpt lat="46.366502931341529" lon="11.812708927318454">
        <ele>2210.6900000000001</ele>
        <time>2017-07-02T10:55:48Z</time>
      </trkpt>
      <trkpt lat="46.366416597738862" lon="11.81278838776052">
        <ele>2210.6900000000001</ele>
        <time>2017-07-02T10:55:58Z</time>
      </trkpt>
      <trkpt lat="46.366309812292457" lon="11.812809929251671">
        <ele>2210.21</ele>
        <time>2017-07-02T10:56:09Z</time>
      </trkpt>
      <trkpt lat="46.366287935525179" lon="11.812783274799585">
        <ele>2212.6100000000001</ele>
        <time>2017-07-02T10:56:13Z</time>
      </trkpt>
      <trkpt lat="46.366238063201308" lon="11.812706915661693">
        <ele>2213.5700000000002</ele>
        <time>2017-07-02T10:56:22Z</time>
      </trkpt>
      <trkpt lat="46.366170588880777" lon="11.812639944255352">
        <ele>2214.0500000000002</ele>
        <time>2017-07-02T10:56:33Z</time>
      </trkpt>
      <trkpt lat="46.36616438627243" lon="11.812604404985905">
        <ele>2214.5300000000002</ele>
        <time>2017-07-02T10:56:36Z</time>
      </trkpt>
      <trkpt lat="46.366136390715837" lon="11.812574984505773">
        <ele>2214.5300000000002</ele>
        <time>2017-07-02T10:56:47Z</time>
      </trkpt>
      <trkpt lat="46.36608618311584" lon="11.812548330053687">
        <ele>2215.5</ele>
        <time>2017-07-02T10:56:53Z</time>
      </trkpt>
      <trkpt lat="46.366067742928863" lon="11.812540115788579">
        <ele>2215.98</ele>
        <time>2017-07-02T10:56:57Z</time>
      </trkpt>
      <trkpt lat="46.366044776514173" lon="11.812537433579564">
        <ele>2215.5</ele>
        <time>2017-07-02T10:57:00Z</time>
      </trkpt>
      <trkpt lat="46.36603195220232" lon="11.812531985342503">
        <ele>2216.46</ele>
        <time>2017-07-02T10:57:10Z</time>
      </trkpt>
      <trkpt lat="46.366014014929533" lon="11.812536176294088">
        <ele>2215.5</ele>
        <time>2017-07-02T10:57:20Z</time>
      </trkpt>
      <trkpt lat="46.366006135940552" lon="11.812521256506443">
        <ele>2216.46</ele>
        <time>2017-07-02T10:57:31Z</time>
      </trkpt>
      <trkpt lat="46.365997167304158" lon="11.812508935108781">
        <ele>2216.46</ele>
        <time>2017-07-02T10:57:45Z</time>
      </trkpt>
      <trkpt lat="46.365953832864761" lon="11.812463169917464">
        <ele>2218.3800000000001</ele>
        <time>2017-07-02T10:57:56Z</time>
      </trkpt>
      <trkpt lat="46.365871606394649" lon="11.812483621761203">
        <ele>2218.3800000000001</ele>
        <time>2017-07-02T10:58:06Z</time>
      </trkpt>
      <trkpt lat="46.365788290277123" lon="11.812445567920804">
        <ele>2219.3400000000001</ele>
        <time>2017-07-02T10:58:17Z</time>
      </trkpt>
      <trkpt lat="46.365690641105175" lon="11.812414973974228">
        <ele>2219.3400000000001</ele>
        <time>2017-07-02T10:58:28Z</time>
      </trkpt>
      <trkpt lat="46.365622328594327" lon="11.812388570979238">
        <ele>2219.8200000000002</ele>
        <time>2017-07-02T10:58:38Z</time>
      </trkpt>
      <trkpt lat="46.365557033568621" lon="11.812371555715799">
        <ele>2218.8600000000001</ele>
        <time>2017-07-02T10:58:47Z</time>
      </trkpt>
      <trkpt lat="46.365539263933897" lon="11.81237013079226">
        <ele>2218.8600000000001</ele>
        <time>2017-07-02T10:58:49Z</time>
      </trkpt>
      <trkpt lat="46.365448487922549" lon="11.8122817017138">
        <ele>2217.9000000000001</ele>
        <time>2017-07-02T10:59:01Z</time>
      </trkpt>
      <trkpt lat="46.365396017208695" lon="11.812222022563219">
        <ele>2218.8600000000001</ele>
        <time>2017-07-02T10:59:11Z</time>
      </trkpt>
      <trkpt lat="46.365388305857778" lon="11.81223283521831">
        <ele>2219.3400000000001</ele>
        <time>2017-07-02T10:59:22Z</time>
      </trkpt>
      <trkpt lat="46.365361902862787" lon="11.81222889572382">
        <ele>2219.3400000000001</ele>
        <time>2017-07-02T10:59:28Z</time>
      </trkpt>
      <trkpt lat="46.365281017497182" lon="11.81219469755888">
        <ele>2221.2600000000002</ele>
        <time>2017-07-02T10:59:39Z</time>
      </trkpt>
      <trkpt lat="46.365189487114549" lon="11.812182627618313">
        <ele>2221.7399999999998</ele>
        <time>2017-07-02T10:59:49Z</time>
      </trkpt>
      <trkpt lat="46.365088820457458" lon="11.812187153846025">
        <ele>2222.2199999999998</ele>
        <time>2017-07-02T11:00:01Z</time>
      </trkpt>
      <trkpt lat="46.365039451047778" lon="11.81214289739728">
        <ele>2222.2199999999998</ele>
        <time>2017-07-02T11:00:07Z</time>
      </trkpt>
      <trkpt lat="46.364967450499535" lon="11.812095455825329">
        <ele>2222.71</ele>
        <time>2017-07-02T11:00:16Z</time>
      </trkpt>
      <trkpt lat="46.364875920116901" lon="11.812046086415648">
        <ele>2222.71</ele>
        <time>2017-07-02T11:00:28Z</time>
      </trkpt>
      <trkpt lat="46.364846583455801" lon="11.812049774453044">
        <ele>2224.1500000000001</ele>
        <time>2017-07-02T11:00:31Z</time>
      </trkpt>
      <trkpt lat="46.364829568192363" lon="11.812048852443695">
        <ele>2223.1900000000001</ele>
        <time>2017-07-02T11:00:33Z</time>
      </trkpt>
      <trkpt lat="46.364741642028093" lon="11.812004344537854">
        <ele>2223.6700000000001</ele>
        <time>2017-07-02T11:00:44Z</time>
      </trkpt>
      <trkpt lat="46.364683471620083" lon="11.812003925442696">
        <ele>2226.0700000000002</ele>
        <time>2017-07-02T11:00:54Z</time>
      </trkpt>
      <trkpt lat="46.364653380587697" lon="11.812023371458054">
        <ele>2224.6300000000001</ele>
        <time>2017-07-02T11:00:58Z</time>
      </trkpt>
      <trkpt lat="46.364555731415749" lon="11.812066873535514">
        <ele>2224.6300000000001</ele>
        <time>2017-07-02T11:01:09Z</time>
      </trkpt>
      <trkpt lat="46.364534692838788" lon="11.812051953747869">
        <ele>2224.1500000000001</ele>
        <time>2017-07-02T11:01:13Z</time>
      </trkpt>
      <trkpt lat="46.364455986768007" lon="11.81202370673418">
        <ele>2223.6700000000001</ele>
        <time>2017-07-02T11:01:22Z</time>
      </trkpt>
      <trkpt lat="46.364411730319262" lon="11.811988335102797">
        <ele>2224.1500000000001</ele>
        <time>2017-07-02T11:01:28Z</time>
      </trkpt>
      <trkpt lat="46.364347860217094" lon="11.811948018148541">
        <ele>2223.6700000000001</ele>
        <time>2017-07-02T11:01:35Z</time>
      </trkpt>
      <trkpt lat="46.36426655575633" lon="11.81179890409112">
        <ele>2223.6700000000001</ele>
        <time>2017-07-02T11:01:48Z</time>
      </trkpt>
      <trkpt lat="46.364220203831792" lon="11.811728244647384">
        <ele>2224.1500000000001</ele>
        <time>2017-07-02T11:01:57Z</time>
      </trkpt>
      <trkpt lat="46.364202685654163" lon="11.811730088666081">
        <ele>2224.1500000000001</ele>
        <time>2017-07-02T11:01:59Z</time>
      </trkpt>
      <trkpt lat="46.364150131121278" lon="11.811648532748222">
        <ele>2224.1500000000001</ele>
        <time>2017-07-02T11:02:09Z</time>
      </trkpt>
      <trkpt lat="46.364082405343652" lon="11.811580387875438">
        <ele>2224.1500000000001</ele>
        <time>2017-07-02T11:02:18Z</time>
      </trkpt>
      <trkpt lat="46.363974027335644" lon="11.811541998758912">
        <ele>2225.1100000000001</ele>
        <time>2017-07-02T11:02:30Z</time>
      </trkpt>
      <trkpt lat="46.363921388983727" lon="11.811474105343223">
        <ele>2225.5900000000001</ele>
        <time>2017-07-02T11:02:41Z</time>
      </trkpt>
      <trkpt lat="46.363869002088904" lon="11.811424652114511">
        <ele>2225.5900000000001</ele>
        <time>2017-07-02T11:02:50Z</time>
      </trkpt>
      <trkpt lat="46.363800438120961" lon="11.811319626867771">
        <ele>2225.5900000000001</ele>
        <time>2017-07-02T11:03:01Z</time>
      </trkpt>
      <trkpt lat="46.363749476149678" lon="11.811269419267774">
        <ele>2225.1100000000001</ele>
        <time>2017-07-02T11:03:07Z</time>
      </trkpt>
      <trkpt lat="46.363735059276223" lon="11.811263803392649">
        <ele>2225.1100000000001</ele>
        <time>2017-07-02T11:03:09Z</time>
      </trkpt>
      <trkpt lat="46.363721815869212" lon="11.811250476166606">
        <ele>2224.6300000000001</ele>
        <time>2017-07-02T11:03:11Z</time>
      </trkpt>
      <trkpt lat="46.363705806434155" lon="11.811239663511515">
        <ele>2224.6300000000001</ele>
        <time>2017-07-02T11:03:14Z</time>
      </trkpt>
      <trkpt lat="46.363656856119633" lon="11.811195323243737">
        <ele>2224.1500000000001</ele>
        <time>2017-07-02T11:03:20Z</time>
      </trkpt>
      <trkpt lat="46.36362936347723" lon="11.811153581365943">
        <ele>2224.1500000000001</ele>
        <time>2017-07-02T11:03:24Z</time>
      </trkpt>
      <trkpt lat="46.363605810329318" lon="11.811124831438065">
        <ele>2224.6300000000001</ele>
        <time>2017-07-02T11:03:27Z</time>
      </trkpt>
      <trkpt lat="46.363567421212792" lon="11.811100859194994">
        <ele>2224.1500000000001</ele>
        <time>2017-07-02T11:03:32Z</time>
      </trkpt>
      <trkpt lat="46.363469185307622" lon="11.810975214466453">
        <ele>2224.6300000000001</ele>
        <time>2017-07-02T11:03:44Z</time>
      </trkpt>
      <trkpt lat="46.363469604402781" lon="11.810938082635403">
        <ele>2224.6300000000001</ele>
        <time>2017-07-02T11:03:47Z</time>
      </trkpt>
      <trkpt lat="46.363453343510628" lon="11.810917714610696">
        <ele>2224.1500000000001</ele>
        <time>2017-07-02T11:03:50Z</time>
      </trkpt>
      <trkpt lat="46.363367764279246" lon="11.810854347422719">
        <ele>2224.1500000000001</ele>
        <time>2017-07-02T11:04:01Z</time>
      </trkpt>
      <trkpt lat="46.363355107605457" lon="11.810831045731902">
        <ele>2224.6300000000001</ele>
        <time>2017-07-02T11:04:05Z</time>
      </trkpt>
      <trkpt lat="46.363284699618816" lon="11.810723589733243">
        <ele>2226.0700000000002</ele>
        <time>2017-07-02T11:04:14Z</time>
      </trkpt>
      <trkpt lat="46.363252429291606" lon="11.810619402676821">
        <ele>2224.1500000000001</ele>
        <time>2017-07-02T11:04:24Z</time>
      </trkpt>
      <trkpt lat="46.363221667706966" lon="11.810499206185341">
        <ele>2224.6300000000001</ele>
        <time>2017-07-02T11:04:33Z</time>
      </trkpt>
      <trkpt lat="46.363183027133346" lon="11.810417398810387">
        <ele>2223.6700000000001</ele>
        <time>2017-07-02T11:04:40Z</time>
      </trkpt>
      <trkpt lat="46.36319107376039" lon="11.810345565900207">
        <ele>2222.71</ele>
        <time>2017-07-02T11:04:47Z</time>
      </trkpt>
      <trkpt lat="46.363159893080592" lon="11.81034573353827">
        <ele>2222.71</ele>
        <time>2017-07-02T11:04:50Z</time>
      </trkpt>
      <trkpt lat="46.363085629418492" lon="11.81031790561974">
        <ele>2223.1900000000001</ele>
        <time>2017-07-02T11:05:00Z</time>
      </trkpt>
      <trkpt lat="46.362963756546378" lon="11.810272810980678">
        <ele>2221.7399999999998</ele>
        <time>2017-07-02T11:05:11Z</time>
      </trkpt>
      <trkpt lat="46.362888822332025" lon="11.810259483754635">
        <ele>2220.3000000000002</ele>
        <time>2017-07-02T11:05:20Z</time>
      </trkpt>
      <trkpt lat="46.36287834495306" lon="11.810257723554969">
        <ele>2221.2600000000002</ele>
        <time>2017-07-02T11:05:21Z</time>
      </trkpt>
      <trkpt lat="46.362796621397138" lon="11.81020550429821">
        <ele>2221.2600000000002</ele>
        <time>2017-07-02T11:05:31Z</time>
      </trkpt>
      <trkpt lat="46.362769464030862" lon="11.810187064111233">
        <ele>2221.7399999999998</ele>
        <time>2017-07-02T11:05:35Z</time>
      </trkpt>
      <trkpt lat="46.362673407420516" lon="11.810140879824758">
        <ele>2220.7800000000002</ele>
        <time>2017-07-02T11:05:45Z</time>
      </trkpt>
      <trkpt lat="46.362607358023524" lon="11.810104753822088">
        <ele>2220.3000000000002</ele>
        <time>2017-07-02T11:05:52Z</time>
      </trkpt>
      <trkpt lat="46.36254851706326" lon="11.810109950602055">
        <ele>2220.7800000000002</ele>
        <time>2017-07-02T11:06:02Z</time>
      </trkpt>
      <trkpt lat="46.362522868439555" lon="11.810099305585027">
        <ele>2220.7800000000002</ele>
        <time>2017-07-02T11:06:09Z</time>
      </trkpt>
      <trkpt lat="46.362446425482631" lon="11.810099221765995">
        <ele>2220.3000000000002</ele>
        <time>2017-07-02T11:06:18Z</time>
      </trkpt>
      <trkpt lat="46.362384483218193" lon="11.810048595070839">
        <ele>2220.3000000000002</ele>
        <time>2017-07-02T11:06:25Z</time>
      </trkpt>
      <trkpt lat="46.362301586195827" lon="11.809934852644801">
        <ele>2220.7800000000002</ele>
        <time>2017-07-02T11:06:38Z</time>
      </trkpt>
      <trkpt lat="46.362222796306014" lon="11.809819769114256">
        <ele>2219.3400000000001</ele>
        <time>2017-07-02T11:06:48Z</time>
      </trkpt>
      <trkpt lat="46.362182144075632" lon="11.809732345864177">
        <ele>2219.3400000000001</ele>
        <time>2017-07-02T11:06:56Z</time>
      </trkpt>
      <trkpt lat="46.362054236233234" lon="11.809631008654833">
        <ele>2218.3800000000001</ele>
        <time>2017-07-02T11:07:10Z</time>
      </trkpt>
      <trkpt lat="46.36193823069334" lon="11.809556912630796">
        <ele>2218.3800000000001</ele>
        <time>2017-07-02T11:07:21Z</time>
      </trkpt>
      <trkpt lat="46.361820297315717" lon="11.809432273730636">
        <ele>2217.4200000000001</ele>
        <time>2017-07-02T11:07:34Z</time>
      </trkpt>
      <trkpt lat="46.361747626215219" lon="11.809399668127298">
        <ele>2217.9000000000001</ele>
        <time>2017-07-02T11:07:43Z</time>
      </trkpt>
      <trkpt lat="46.36172859929502" lon="11.809349544346333">
        <ele>2217.4200000000001</ele>
        <time>2017-07-02T11:07:47Z</time>
      </trkpt>
      <trkpt lat="46.36171342805028" lon="11.80917888879776">
        <ele>2215.98</ele>
        <time>2017-07-02T11:07:59Z</time>
      </trkpt>
      <trkpt lat="46.361666405573487" lon="11.809040503576398">
        <ele>2215.0100000000002</ele>
        <time>2017-07-02T11:08:10Z</time>
      </trkpt>
      <trkpt lat="46.361605552956462" lon="11.809003790840507">
        <ele>2215.0100000000002</ele>
        <time>2017-07-02T11:08:17Z</time>
      </trkpt>
      <trkpt lat="46.361503042280674" lon="11.808932209387422">
        <ele>2215.0100000000002</ele>
        <time>2017-07-02T11:08:28Z</time>
      </trkpt>
      <trkpt lat="46.361411595717072" lon="11.808881917968392">
        <ele>2214.5300000000002</ele>
        <time>2017-07-02T11:08:39Z</time>
      </trkpt>
      <trkpt lat="46.361383348703384" lon="11.808893149718642">
        <ele>2214.0500000000002</ele>
        <time>2017-07-02T11:08:42Z</time>
      </trkpt>
      <trkpt lat="46.361342947930098" lon="11.808865740895271">
        <ele>2214.5300000000002</ele>
        <time>2017-07-02T11:08:48Z</time>
      </trkpt>
      <trkpt lat="46.361327944323421" lon="11.808768175542355">
        <ele>2214.0500000000002</ele>
        <time>2017-07-02T11:08:56Z</time>
      </trkpt>
      <trkpt lat="46.361309923231602" lon="11.808745125308633">
        <ele>2214.5300000000002</ele>
        <time>2017-07-02T11:08:59Z</time>
      </trkpt>
      <trkpt lat="46.361258123070002" lon="11.808714782819152">
        <ele>2214.5300000000002</ele>
        <time>2017-07-02T11:09:05Z</time>
      </trkpt>
      <trkpt lat="46.361169442534447" lon="11.808693744242191">
        <ele>2215.0100000000002</ele>
        <time>2017-07-02T11:09:16Z</time>
      </trkpt>
      <trkpt lat="46.361144380643964" lon="11.808709669858217">
        <ele>2215.0100000000002</ele>
        <time>2017-07-02T11:09:19Z</time>
      </trkpt>
      <trkpt lat="46.361025273799896" lon="11.808696845546365">
        <ele>2215.0100000000002</ele>
        <time>2017-07-02T11:09:32Z</time>
      </trkpt>
      <trkpt lat="46.360919661819935" lon="11.808704137802124">
        <ele>2215.5</ele>
        <time>2017-07-02T11:09:42Z</time>
      </trkpt>
      <trkpt lat="46.360900802537799" lon="11.808692570775747">
        <ele>2215.5</ele>
        <time>2017-07-02T11:09:44Z</time>
      </trkpt>
      <trkpt lat="46.360773565247655" lon="11.808684691786766">
        <ele>2215.5</ele>
        <time>2017-07-02T11:09:58Z</time>
      </trkpt>
      <trkpt lat="46.360675496980548" lon="11.808684188872576">
        <ele>2215.5</ele>
        <time>2017-07-02T11:10:09Z</time>
      </trkpt>
      <trkpt lat="46.360637191683054" lon="11.808672873303294">
        <ele>2216.9400000000001</ele>
        <time>2017-07-02T11:10:13Z</time>
      </trkpt>
      <trkpt lat="46.360608441755176" lon="11.808681339025497">
        <ele>2216.9400000000001</ele>
        <time>2017-07-02T11:10:16Z</time>
      </trkpt>
      <trkpt lat="46.360515402629972" lon="11.808731630444527">
        <ele>2216.9400000000001</ele>
        <time>2017-07-02T11:10:26Z</time>
      </trkpt>
      <trkpt lat="46.360461004078388" lon="11.808670274913311">
        <ele>2217.9000000000001</ele>
        <time>2017-07-02T11:10:36Z</time>
      </trkpt>
      <trkpt lat="46.360432924702764" lon="11.808647895231843">
        <ele>2215.98</ele>
        <time>2017-07-02T11:10:40Z</time>
      </trkpt>
      <trkpt lat="46.36039026081562" lon="11.808539433404803">
        <ele>2216.9400000000001</ele>
        <time>2017-07-02T11:10:51Z</time>
      </trkpt>
      <trkpt lat="46.360285235568881" lon="11.808441197499633">
        <ele>2215.0100000000002</ele>
        <time>2017-07-02T11:11:04Z</time>
      </trkpt>
      <trkpt lat="46.360255228355527" lon="11.80841906927526">
        <ele>2215.0100000000002</ele>
        <time>2017-07-02T11:11:14Z</time>
      </trkpt>
      <trkpt lat="46.360253300517797" lon="11.808409178629518">
        <ele>2215.0100000000002</ele>
        <time>2017-07-02T11:11:26Z</time>
      </trkpt>
      <trkpt lat="46.360235027968884" lon="11.808390989899635">
        <ele>2215.0100000000002</ele>
        <time>2017-07-02T11:11:35Z</time>
      </trkpt>
      <trkpt lat="46.360232764855027" lon="11.808396773412824">
        <ele>2215.5</ele>
        <time>2017-07-02T11:11:48Z</time>
      </trkpt>
      <trkpt lat="46.360234189778566" lon="11.808395516127348">
        <ele>2215.0100000000002</ele>
        <time>2017-07-02T11:12:06Z</time>
      </trkpt>
      <trkpt lat="46.360226226970553" lon="11.808396019041538">
        <ele>2215.0100000000002</ele>
        <time>2017-07-02T11:12:23Z</time>
      </trkpt>
      <trkpt lat="46.360216923058033" lon="11.808402808383107">
        <ele>2215.0100000000002</ele>
        <time>2017-07-02T11:12:35Z</time>
      </trkpt>
      <trkpt lat="46.36021725833416" lon="11.808408005163074">
        <ele>2215.5</ele>
        <time>2017-07-02T11:12:49Z</time>
      </trkpt>
      <trkpt lat="46.360227400436997" lon="11.808398952707648">
        <ele>2215.5</ele>
        <time>2017-07-02T11:13:10Z</time>
      </trkpt>
      <trkpt lat="46.360220108181238" lon="11.80838487111032">
        <ele>2215.0100000000002</ele>
        <time>2017-07-02T11:13:23Z</time>
      </trkpt>
      <trkpt lat="46.360202673822641" lon="11.808400126174092">
        <ele>2215.0100000000002</ele>
        <time>2017-07-02T11:13:26Z</time>
      </trkpt>
      <trkpt lat="46.360132768750191" lon="11.808336926624179">
        <ele>2214.5300000000002</ele>
        <time>2017-07-02T11:13:35Z</time>
      </trkpt>
      <trkpt lat="46.360054900869727" lon="11.808270374312997">
        <ele>2215.0100000000002</ele>
        <time>2017-07-02T11:13:45Z</time>
      </trkpt>
      <trkpt lat="46.359961526468396" lon="11.80829887278378">
        <ele>2215.0100000000002</ele>
        <time>2017-07-02T11:13:56Z</time>
      </trkpt>
      <trkpt lat="46.359926154837012" lon="11.808311278000474">
        <ele>2215.5</ele>
        <time>2017-07-02T11:14:00Z</time>
      </trkpt>
      <trkpt lat="46.359812328591943" lon="11.808312200009823">
        <ele>2215.5</ele>
        <time>2017-07-02T11:14:12Z</time>
      </trkpt>
      <trkpt lat="46.359704285860062" lon="11.808295520022511">
        <ele>2215.5</ele>
        <time>2017-07-02T11:14:23Z</time>
      </trkpt>
      <trkpt lat="46.359696742147207" lon="11.808288646861911">
        <ele>2215.5</ele>
        <time>2017-07-02T11:14:24Z</time>
      </trkpt>
      <trkpt lat="46.35966707020998" lon="11.808271128684282">
        <ele>2215.0100000000002</ele>
        <time>2017-07-02T11:14:27Z</time>
      </trkpt>
      <trkpt lat="46.3595659006387" lon="11.808192506432533">
        <ele>2216.46</ele>
        <time>2017-07-02T11:14:39Z</time>
      </trkpt>
      <trkpt lat="46.359515525400639" lon="11.808141712099314">
        <ele>2215.5</ele>
        <time>2017-07-02T11:14:47Z</time>
      </trkpt>
      <trkpt lat="46.359495325013995" lon="11.808135593309999">
        <ele>2215.5</ele>
        <time>2017-07-02T11:14:49Z</time>
      </trkpt>
      <trkpt lat="46.359409242868423" lon="11.808023443445563">
        <ele>2215.5</ele>
        <time>2017-07-02T11:15:02Z</time>
      </trkpt>
      <trkpt lat="46.359356353059411" lon="11.807986898347735">
        <ele>2215.98</ele>
        <time>2017-07-02T11:15:09Z</time>
      </trkpt>
      <trkpt lat="46.359321484342217" lon="11.80794314481318">
        <ele>2216.46</ele>
        <time>2017-07-02T11:15:15Z</time>
      </trkpt>
      <trkpt lat="46.359233893454075" lon="11.807889584451914">
        <ele>2217.9000000000001</ele>
        <time>2017-07-02T11:15:27Z</time>
      </trkpt>
      <trkpt lat="46.359186200425029" lon="11.807895870879292">
        <ele>2218.3800000000001</ele>
        <time>2017-07-02T11:15:33Z</time>
      </trkpt>
      <trkpt lat="46.359103303402662" lon="11.807922357693315">
        <ele>2218.8600000000001</ele>
        <time>2017-07-02T11:15:43Z</time>
      </trkpt>
      <trkpt lat="46.359010264277458" lon="11.807875083759427">
        <ele>2220.3000000000002</ele>
        <time>2017-07-02T11:15:56Z</time>
      </trkpt>
      <trkpt lat="46.358928121626377" lon="11.807887572795153">
        <ele>2221.2600000000002</ele>
        <time>2017-07-02T11:16:07Z</time>
      </trkpt>
      <trkpt lat="46.358842207118869" lon="11.807871647179127">
        <ele>2222.71</ele>
        <time>2017-07-02T11:16:19Z</time>
      </trkpt>
      <trkpt lat="46.358730727806687" lon="11.807876927778125">
        <ele>2222.71</ele>
        <time>2017-07-02T11:16:31Z</time>
      </trkpt>
      <trkpt lat="46.358701391145587" lon="11.807863935828209">
        <ele>2223.1900000000001</ele>
        <time>2017-07-02T11:16:35Z</time>
      </trkpt>
      <trkpt lat="46.35862092487514" lon="11.807801742106676">
        <ele>2223.6700000000001</ele>
        <time>2017-07-02T11:16:46Z</time>
      </trkpt>
      <trkpt lat="46.358550516888499" lon="11.807751031592488">
        <ele>2225.5900000000001</ele>
        <time>2017-07-02T11:16:58Z</time>
      </trkpt>
      <trkpt lat="46.358490167185664" lon="11.807684898376465">
        <ele>2226.5500000000002</ele>
        <time>2017-07-02T11:17:09Z</time>
      </trkpt>
      <trkpt lat="46.358483796939254" lon="11.807677857577801">
        <ele>2226.5500000000002</ele>
        <time>2017-07-02T11:17:10Z</time>
      </trkpt>
      <trkpt lat="46.358391679823399" lon="11.807550536468625">
        <ele>2227.0300000000002</ele>
        <time>2017-07-02T11:17:24Z</time>
      </trkpt>
      <trkpt lat="46.358333174139261" lon="11.807411480695009">
        <ele>2227.0300000000002</ele>
        <time>2017-07-02T11:17:37Z</time>
      </trkpt>
      <trkpt lat="46.358328396454453" lon="11.807398237287998">
        <ele>2227.0300000000002</ele>
        <time>2017-07-02T11:17:38Z</time>
      </trkpt>
      <trkpt lat="46.358255054801702" lon="11.807318525388837">
        <ele>2227.0300000000002</ele>
        <time>2017-07-02T11:17:48Z</time>
      </trkpt>
      <trkpt lat="46.358143156394362" lon="11.807293295860291">
        <ele>2227.9899999999998</ele>
        <time>2017-07-02T11:18:00Z</time>
      </trkpt>
      <trkpt lat="46.358073083683848" lon="11.807239567860961">
        <ele>2229.4299999999998</ele>
        <time>2017-07-02T11:18:10Z</time>
      </trkpt>
      <trkpt lat="46.357985828071833" lon="11.807146864011884">
        <ele>2230.8800000000001</ele>
        <time>2017-07-02T11:18:23Z</time>
      </trkpt>
      <trkpt lat="46.35790703818202" lon="11.807008981704712">
        <ele>2230.4000000000001</ele>
        <time>2017-07-02T11:18:36Z</time>
      </trkpt>
      <trkpt lat="46.357902931049466" lon="11.806957181543112">
        <ele>2229.9200000000001</ele>
        <time>2017-07-02T11:18:39Z</time>
      </trkpt>
      <trkpt lat="46.357893794775009" lon="11.80688819848001">
        <ele>2228.9499999999998</ele>
        <time>2017-07-02T11:18:44Z</time>
      </trkpt>
      <trkpt lat="46.357838055118918" lon="11.806780826300383">
        <ele>2227.5100000000002</ele>
        <time>2017-07-02T11:18:53Z</time>
      </trkpt>
      <trkpt lat="46.35778390802443" lon="11.806673286482692">
        <ele>2228.4699999999998</ele>
        <time>2017-07-02T11:19:03Z</time>
      </trkpt>
      <trkpt lat="46.357712242752314" lon="11.806594580411911">
        <ele>2227.9899999999998</ele>
        <time>2017-07-02T11:19:12Z</time>
      </trkpt>
      <trkpt lat="46.357640912756324" lon="11.806542277336121">
        <ele>2227.9899999999998</ele>
        <time>2017-07-02T11:19:21Z</time>
      </trkpt>
      <trkpt lat="46.357544856145978" lon="11.80653540417552">
        <ele>2227.9899999999998</ele>
        <time>2017-07-02T11:19:31Z</time>
      </trkpt>
      <trkpt lat="46.357461623847485" lon="11.806573709473014">
        <ele>2229.4299999999998</ele>
        <time>2017-07-02T11:19:43Z</time>
      </trkpt>
      <trkpt lat="46.357417283579707" lon="11.806591060012579">
        <ele>2228.9499999999998</ele>
        <time>2017-07-02T11:19:55Z</time>
      </trkpt>
      <trkpt lat="46.357305971905589" lon="11.806547557935119">
        <ele>2227.5100000000002</ele>
        <time>2017-07-02T11:20:07Z</time>
      </trkpt>
      <trkpt lat="46.357196839526296" lon="11.806472204625607">
        <ele>2227.0300000000002</ele>
        <time>2017-07-02T11:20:19Z</time>
      </trkpt>
      <trkpt lat="46.357056023553014" lon="11.80636340752244">
        <ele>2226.5500000000002</ele>
        <time>2017-07-02T11:20:33Z</time>
      </trkpt>
      <trkpt lat="46.35698352009058" lon="11.806262573227286">
        <ele>2227.5100000000002</ele>
        <time>2017-07-02T11:20:42Z</time>
      </trkpt>
      <trkpt lat="46.356867179274559" lon="11.806168863549829">
        <ele>2224.6300000000001</ele>
        <time>2017-07-02T11:20:55Z</time>
      </trkpt>
      <trkpt lat="46.356753604486585" lon="11.80611471645534">
        <ele>2222.71</ele>
        <time>2017-07-02T11:21:08Z</time>
      </trkpt>
      <trkpt lat="46.356671126559377" lon="11.806128798052669">
        <ele>2223.1900000000001</ele>
        <time>2017-07-02T11:21:18Z</time>
      </trkpt>
      <trkpt lat="46.356542129069567" lon="11.806152267381549">
        <ele>2222.71</ele>
        <time>2017-07-02T11:21:31Z</time>
      </trkpt>
      <trkpt lat="46.356458477675915" lon="11.806061742827296">
        <ele>2221.2600000000002</ele>
        <time>2017-07-02T11:21:40Z</time>
      </trkpt>
      <trkpt lat="46.356347166001797" lon="11.80594808422029">
        <ele>2222.2199999999998</ele>
        <time>2017-07-02T11:21:53Z</time>
      </trkpt>
      <trkpt lat="46.35625253431499" lon="11.805789498612285">
        <ele>2220.7800000000002</ele>
        <time>2017-07-02T11:22:06Z</time>
      </trkpt>
      <trkpt lat="46.356154885143042" lon="11.805619513615966">
        <ele>2218.8600000000001</ele>
        <time>2017-07-02T11:22:19Z</time>
      </trkpt>
      <trkpt lat="46.356032760813832" lon="11.805597301572561">
        <ele>2219.3400000000001</ele>
        <time>2017-07-02T11:22:31Z</time>
      </trkpt>
      <trkpt lat="46.356023708358407" lon="11.805598977953196">
        <ele>2218.8600000000001</ele>
        <time>2017-07-02T11:22:32Z</time>
      </trkpt>
      <trkpt lat="46.355947935953736" lon="11.80542572401464">
        <ele>2218.8600000000001</ele>
        <time>2017-07-02T11:22:44Z</time>
      </trkpt>
      <trkpt lat="46.355869062244892" lon="11.805252470076084">
        <ele>2217.9000000000001</ele>
        <time>2017-07-02T11:22:56Z</time>
      </trkpt>
      <trkpt lat="46.355741238221526" lon="11.805204441770911">
        <ele>2218.8600000000001</ele>
        <time>2017-07-02T11:23:09Z</time>
      </trkpt>
      <trkpt lat="46.355701005086303" lon="11.805216260254383">
        <ele>2219.8200000000002</ele>
        <time>2017-07-02T11:23:14Z</time>
      </trkpt>
      <trkpt lat="46.355594638735056" lon="11.805315250530839">
        <ele>2220.7800000000002</ele>
        <time>2017-07-02T11:23:27Z</time>
      </trkpt>
      <trkpt lat="46.355500090867281" lon="11.805424215272069">
        <ele>2221.7399999999998</ele>
        <time>2017-07-02T11:23:40Z</time>
      </trkpt>
      <trkpt lat="46.355400513857603" lon="11.805519433692098">
        <ele>2223.1900000000001</ele>
        <time>2017-07-02T11:23:53Z</time>
      </trkpt>
      <trkpt lat="46.355297164991498" lon="11.805559415370226">
        <ele>2224.6300000000001</ele>
        <time>2017-07-02T11:24:05Z</time>
      </trkpt>
      <trkpt lat="46.355235893279314" lon="11.805584393441677">
        <ele>2225.1100000000001</ele>
        <time>2017-07-02T11:24:17Z</time>
      </trkpt>
      <trkpt lat="46.355201862752438" lon="11.805598391219974">
        <ele>2225.5900000000001</ele>
        <time>2017-07-02T11:24:29Z</time>
      </trkpt>
      <trkpt lat="46.355195241048932" lon="11.80559579282999">
        <ele>2225.5900000000001</ele>
        <time>2017-07-02T11:24:40Z</time>
      </trkpt>
      <trkpt lat="46.355187864974141" lon="11.805579867213964">
        <ele>2225.1100000000001</ele>
        <time>2017-07-02T11:25:02Z</time>
      </trkpt>
      <trkpt lat="46.355191133916378" lon="11.805584309622645">
        <ele>2225.5900000000001</ele>
        <time>2017-07-02T11:25:15Z</time>
      </trkpt>
      <trkpt lat="46.355205299332738" lon="11.805579029023647">
        <ele>2224.6300000000001</ele>
        <time>2017-07-02T11:25:26Z</time>
      </trkpt>
      <trkpt lat="46.35520588606596" lon="11.805582549422979">
        <ele>2225.1100000000001</ele>
        <time>2017-07-02T11:25:36Z</time>
      </trkpt>
      <trkpt lat="46.355199432000518" lon="11.80558011867106">
        <ele>2225.1100000000001</ele>
        <time>2017-07-02T11:25:51Z</time>
      </trkpt>
      <trkpt lat="46.35520052164793" lon="11.805568719282746">
        <ele>2224.6300000000001</ele>
        <time>2017-07-02T11:26:17Z</time>
      </trkpt>
      <trkpt lat="46.355187445878983" lon="11.805577017366886">
        <ele>2225.1100000000001</ele>
        <time>2017-07-02T11:26:43Z</time>
      </trkpt>
      <trkpt lat="46.355202030390501" lon="11.805584980174899">
        <ele>2224.6300000000001</ele>
        <time>2017-07-02T11:27:14Z</time>
      </trkpt>
      <trkpt lat="46.355204712599516" lon="11.805579196661711">
        <ele>2225.1100000000001</ele>
        <time>2017-07-02T11:27:20Z</time>
      </trkpt>
      <trkpt lat="46.355204964056611" lon="11.805591098964214">
        <ele>2225.1100000000001</ele>
        <time>2017-07-02T11:27:28Z</time>
      </trkpt>
      <trkpt lat="46.355214351788163" lon="11.805559080094099">
        <ele>2225.1100000000001</ele>
        <time>2017-07-02T11:27:52Z</time>
      </trkpt>
      <trkpt lat="46.355214435607195" lon="11.805581962689757">
        <ele>2225.1100000000001</ele>
        <time>2017-07-02T11:28:14Z</time>
      </trkpt>
      <trkpt lat="46.355213345959783" lon="11.805569473654032">
        <ele>2226.0700000000002</ele>
        <time>2017-07-02T11:28:22Z</time>
      </trkpt>
      <trkpt lat="46.355192558839917" lon="11.805636193603277">
        <ele>2225.5900000000001</ele>
        <time>2017-07-02T11:28:36Z</time>
      </trkpt>
      <trkpt lat="46.355201527476311" lon="11.805765107274055">
        <ele>2225.5900000000001</ele>
        <time>2017-07-02T11:28:48Z</time>
      </trkpt>
      <trkpt lat="46.355195408686996" lon="11.8058180809021">
        <ele>2225.1100000000001</ele>
        <time>2017-07-02T11:28:57Z</time>
      </trkpt>
      <trkpt lat="46.355179650709033" lon="11.805854793637991">
        <ele>2225.1100000000001</ele>
        <time>2017-07-02T11:29:12Z</time>
      </trkpt>
      <trkpt lat="46.355167077854276" lon="11.805938193574548">
        <ele>2225.1100000000001</ele>
        <time>2017-07-02T11:29:25Z</time>
      </trkpt>
      <trkpt lat="46.355165485292673" lon="11.805948251858354">
        <ele>2225.1100000000001</ele>
        <time>2017-07-02T11:29:26Z</time>
      </trkpt>
      <trkpt lat="46.355144279077649" lon="11.805991334840655">
        <ele>2225.1100000000001</ele>
        <time>2017-07-02T11:29:37Z</time>
      </trkpt>
      <trkpt lat="46.355159701779485" lon="11.805971888825297">
        <ele>2225.1100000000001</ele>
        <time>2017-07-02T11:29:51Z</time>
      </trkpt>
      <trkpt lat="46.355151906609535" lon="11.805977923795581">
        <ele>2224.6300000000001</ele>
        <time>2017-07-02T11:30:12Z</time>
      </trkpt>
      <trkpt lat="46.355146793648601" lon="11.806041961535811">
        <ele>2225.1100000000001</ele>
        <time>2017-07-02T11:30:26Z</time>
      </trkpt>
      <trkpt lat="46.355069680139422" lon="11.806074986234307">
        <ele>2223.1900000000001</ele>
        <time>2017-07-02T11:30:36Z</time>
      </trkpt>
      <trkpt lat="46.354985609650612" lon="11.805959148332477">
        <ele>2223.1900000000001</ele>
        <time>2017-07-02T11:30:50Z</time>
      </trkpt>
      <trkpt lat="46.354966834187508" lon="11.80592805147171">
        <ele>2221.2600000000002</ele>
        <time>2017-07-02T11:30:53Z</time>
      </trkpt>
      <trkpt lat="46.354868346825242" lon="11.805839035660028">
        <ele>2220.7800000000002</ele>
        <time>2017-07-02T11:31:05Z</time>
      </trkpt>
      <trkpt lat="46.354701714590192" lon="11.80575211532414">
        <ele>2219.3400000000001</ele>
        <time>2017-07-02T11:31:21Z</time>
      </trkpt>
      <trkpt lat="46.354548325762153" lon="11.805722778663039">
        <ele>2218.3800000000001</ele>
        <time>2017-07-02T11:31:35Z</time>
      </trkpt>
      <trkpt lat="46.354437936097383" lon="11.805762173607945">
        <ele>2217.4200000000001</ele>
        <time>2017-07-02T11:31:46Z</time>
      </trkpt>
      <trkpt lat="46.35432050563395" lon="11.805858397856355">
        <ele>2216.46</ele>
        <time>2017-07-02T11:32:00Z</time>
      </trkpt>
      <trkpt lat="46.354241212829947" lon="11.805922603234649">
        <ele>2215.5</ele>
        <time>2017-07-02T11:32:10Z</time>
      </trkpt>
      <trkpt lat="46.354168290272355" lon="11.805957807227969">
        <ele>2215.0100000000002</ele>
        <time>2017-07-02T11:32:21Z</time>
      </trkpt>
      <trkpt lat="46.354125291109085" lon="11.805914975702763">
        <ele>2214.5300000000002</ele>
        <time>2017-07-02T11:32:34Z</time>
      </trkpt>
      <trkpt lat="46.354095619171858" lon="11.805850099772215">
        <ele>2213.5700000000002</ele>
        <time>2017-07-02T11:32:44Z</time>
      </trkpt>
      <trkpt lat="46.35408790782094" lon="11.805828474462032">
        <ele>2213.5700000000002</ele>
        <time>2017-07-02T11:32:46Z</time>
      </trkpt>
      <trkpt lat="46.354036694392562" lon="11.805792097002268">
        <ele>2212.1300000000001</ele>
        <time>2017-07-02T11:32:52Z</time>
      </trkpt>
      <trkpt lat="46.353945666924119" lon="11.80585278198123">
        <ele>2210.21</ele>
        <time>2017-07-02T11:33:05Z</time>
      </trkpt>
      <trkpt lat="46.353847431018949" lon="11.805807016789913">
        <ele>2208.77</ele>
        <time>2017-07-02T11:33:16Z</time>
      </trkpt>
      <trkpt lat="46.353821279481053" lon="11.805789163336158">
        <ele>2208.77</ele>
        <time>2017-07-02T11:33:19Z</time>
      </trkpt>
      <trkpt lat="46.353798229247332" lon="11.805749936029315">
        <ele>2208.29</ele>
        <time>2017-07-02T11:33:31Z</time>
      </trkpt>
      <trkpt lat="46.35374684818089" lon="11.80573602207005">
        <ele>2207.8099999999999</ele>
        <time>2017-07-02T11:33:40Z</time>
      </trkpt>
      <trkpt lat="46.353733269497752" lon="11.805700315162539">
        <ele>2206.8400000000001</ele>
        <time>2017-07-02T11:33:51Z</time>
      </trkpt>
      <trkpt lat="46.353715751320124" lon="11.805701656267047">
        <ele>2207.8099999999999</ele>
        <time>2017-07-02T11:34:02Z</time>
      </trkpt>
      <trkpt lat="46.353661520406604" lon="11.805694531649351">
        <ele>2207.3200000000002</ele>
        <time>2017-07-02T11:34:10Z</time>
      </trkpt>
      <trkpt lat="46.353585999459028" lon="11.805636947974563">
        <ele>2206.3600000000001</ele>
        <time>2017-07-02T11:34:22Z</time>
      </trkpt>
      <trkpt lat="46.353497821837664" lon="11.805526642128825">
        <ele>2204.4400000000001</ele>
        <time>2017-07-02T11:34:34Z</time>
      </trkpt>
      <trkpt lat="46.35344828478992" lon="11.805490851402283">
        <ele>2203.96</ele>
        <time>2017-07-02T11:34:43Z</time>
      </trkpt>
      <trkpt lat="46.353439567610621" lon="11.805475512519479">
        <ele>2203.96</ele>
        <time>2017-07-02T11:34:50Z</time>
      </trkpt>
      <trkpt lat="46.353339739143848" lon="11.805380880832672">
        <ele>2202.52</ele>
        <time>2017-07-02T11:35:02Z</time>
      </trkpt>
      <trkpt lat="46.353266229853034" lon="11.805308209732175">
        <ele>2202.04</ele>
        <time>2017-07-02T11:35:14Z</time>
      </trkpt>
      <trkpt lat="46.353216608986259" lon="11.805252050980926">
        <ele>2201.0799999999999</ele>
        <time>2017-07-02T11:35:23Z</time>
      </trkpt>
      <trkpt lat="46.353185176849365" lon="11.805204693228006">
        <ele>2200.5900000000001</ele>
        <time>2017-07-02T11:35:33Z</time>
      </trkpt>
      <trkpt lat="46.353175034746528" lon="11.805176194757223">
        <ele>2200.1100000000001</ele>
        <time>2017-07-02T11:35:43Z</time>
      </trkpt>
      <trkpt lat="46.353091802448034" lon="11.805143086239696">
        <ele>2198.1900000000001</ele>
        <time>2017-07-02T11:35:54Z</time>
      </trkpt>
      <trkpt lat="46.353033548220992" lon="11.805106122046709">
        <ele>2197.23</ele>
        <time>2017-07-02T11:36:03Z</time>
      </trkpt>
      <trkpt lat="46.35297822766006" lon="11.805078880861402">
        <ele>2197.23</ele>
        <time>2017-07-02T11:36:11Z</time>
      </trkpt>
      <trkpt lat="46.352959703654051" lon="11.805049041286111">
        <ele>2196.27</ele>
        <time>2017-07-02T11:36:21Z</time>
      </trkpt>
      <trkpt lat="46.352937072515488" lon="11.804994726553559">
        <ele>2194.3499999999999</ele>
        <time>2017-07-02T11:36:30Z</time>
      </trkpt>
      <trkpt lat="46.352923829108477" lon="11.804975448176265">
        <ele>2193.8699999999999</ele>
        <time>2017-07-02T11:36:33Z</time>
      </trkpt>
      <trkpt lat="46.352866748347878" lon="11.804893724620342">
        <ele>2192.4200000000001</ele>
        <time>2017-07-02T11:36:43Z</time>
      </trkpt>
      <trkpt lat="46.352792736142874" lon="11.804815521463752">
        <ele>2190.98</ele>
        <time>2017-07-02T11:36:55Z</time>
      </trkpt>
      <trkpt lat="46.352731380611658" lon="11.804744275286794">
        <ele>2190.02</ele>
        <time>2017-07-02T11:37:06Z</time>
      </trkpt>
      <trkpt lat="46.352637922391295" lon="11.804656935855746">
        <ele>2189.0599999999999</ele>
        <time>2017-07-02T11:37:18Z</time>
      </trkpt>
      <trkpt lat="46.352608921006322" lon="11.80461460724473">
        <ele>2188.5799999999999</ele>
        <time>2017-07-02T11:37:23Z</time>
      </trkpt>
      <trkpt lat="46.352572375908494" lon="11.804595245048404">
        <ele>2189.0599999999999</ele>
        <time>2017-07-02T11:37:31Z</time>
      </trkpt>
      <trkpt lat="46.352546140551567" lon="11.804576804861426">
        <ele>2189.0599999999999</ele>
        <time>2017-07-02T11:37:35Z</time>
      </trkpt>
      <trkpt lat="46.352513618767262" lon="11.804544618353248">
        <ele>2189.54</ele>
        <time>2017-07-02T11:37:39Z</time>
      </trkpt>
      <trkpt lat="46.352406581863761" lon="11.804438335821033">
        <ele>2188.5799999999999</ele>
        <time>2017-07-02T11:37:51Z</time>
      </trkpt>
      <trkpt lat="46.35238696821034" lon="11.804426936432719">
        <ele>2188.5799999999999</ele>
        <time>2017-07-02T11:37:53Z</time>
      </trkpt>
      <trkpt lat="46.352362241595984" lon="11.804415285587311">
        <ele>2188.0999999999999</ele>
        <time>2017-07-02T11:37:57Z</time>
      </trkpt>
      <trkpt lat="46.352285463362932" lon="11.804387625306845">
        <ele>2185.6900000000001</ele>
        <time>2017-07-02T11:38:08Z</time>
      </trkpt>
      <trkpt lat="46.352225616574287" lon="11.804334484040737">
        <ele>2182.3299999999999</ele>
        <time>2017-07-02T11:38:19Z</time>
      </trkpt>
      <trkpt lat="46.35221203789115" lon="11.804326605051756">
        <ele>2181.8499999999999</ele>
        <time>2017-07-02T11:38:21Z</time>
      </trkpt>
      <trkpt lat="46.352164261043072" lon="11.804239936172962">
        <ele>2178.9699999999998</ele>
        <time>2017-07-02T11:38:31Z</time>
      </trkpt>
      <trkpt lat="46.352138444781303" lon="11.804212778806686">
        <ele>2177.52</ele>
        <time>2017-07-02T11:38:36Z</time>
      </trkpt>
      <trkpt lat="46.35209284722805" lon="11.804195428267121">
        <ele>2176.5599999999999</ele>
        <time>2017-07-02T11:38:41Z</time>
      </trkpt>
      <trkpt lat="46.352057727053761" lon="11.804205067455769">
        <ele>2175.5999999999999</ele>
        <time>2017-07-02T11:38:46Z</time>
      </trkpt>
      <trkpt lat="46.3519555516541" lon="11.804220490157604">
        <ele>2174.1599999999999</ele>
        <time>2017-07-02T11:38:58Z</time>
      </trkpt>
      <trkpt lat="46.351913306862116" lon="11.804209677502513">
        <ele>2173.1999999999998</ele>
        <time>2017-07-02T11:39:03Z</time>
      </trkpt>
      <trkpt lat="46.351895621046424" lon="11.804197523742914">
        <ele>2172.7199999999998</ele>
        <time>2017-07-02T11:39:05Z</time>
      </trkpt>
      <trkpt lat="46.351870056241751" lon="11.804150836542249">
        <ele>2172.2399999999998</ele>
        <time>2017-07-02T11:39:10Z</time>
      </trkpt>
      <trkpt lat="46.351841976866126" lon="11.804160559549928">
        <ele>2171.27</ele>
        <time>2017-07-02T11:39:13Z</time>
      </trkpt>
      <trkpt lat="46.351804677397013" lon="11.804148154333234">
        <ele>2170.3099999999999</ele>
        <time>2017-07-02T11:39:17Z</time>
      </trkpt>
      <trkpt lat="46.351791769266129" lon="11.804057126864791">
        <ele>2169.3499999999999</ele>
        <time>2017-07-02T11:39:23Z</time>
      </trkpt>
      <trkpt lat="46.351716499775648" lon="11.804009266197681">
        <ele>2167.9099999999999</ele>
        <time>2017-07-02T11:39:33Z</time>
      </trkpt>
      <trkpt lat="46.351701831445098" lon="11.804014630615711">
        <ele>2167.4299999999998</ele>
        <time>2017-07-02T11:39:35Z</time>
      </trkpt>
      <trkpt lat="46.351648606359959" lon="11.803985461592674">
        <ele>2166.4699999999998</ele>
        <time>2017-07-02T11:39:46Z</time>
      </trkpt>
      <trkpt lat="46.351602086797357" lon="11.803938271477818">
        <ele>2166.4699999999998</ele>
        <time>2017-07-02T11:39:56Z</time>
      </trkpt>
      <trkpt lat="46.35158808901906" lon="11.803914215415716">
        <ele>2166.4699999999998</ele>
        <time>2017-07-02T11:39:59Z</time>
      </trkpt>
      <trkpt lat="46.351508796215057" lon="11.803883034735918">
        <ele>2165.0300000000002</ele>
        <time>2017-07-02T11:40:11Z</time>
      </trkpt>
      <trkpt lat="46.351502342149615" lon="11.803879262879491">
        <ele>2165.0300000000002</ele>
        <time>2017-07-02T11:40:12Z</time>
      </trkpt>
      <trkpt lat="46.351416260004044" lon="11.803832994773984">
        <ele>2163.5799999999999</ele>
        <time>2017-07-02T11:40:23Z</time>
      </trkpt>
      <trkpt lat="46.351401256397367" lon="11.803813381120563">
        <ele>2163.5799999999999</ele>
        <time>2017-07-02T11:40:25Z</time>
      </trkpt>
      <trkpt lat="46.351326322183013" lon="11.803757641464472">
        <ele>2162.1399999999999</ele>
        <time>2017-07-02T11:40:35Z</time>
      </trkpt>
      <trkpt lat="46.351236971095204" lon="11.803704919293523">
        <ele>2159.7399999999998</ele>
        <time>2017-07-02T11:40:46Z</time>
      </trkpt>
      <trkpt lat="46.351152816787362" lon="11.803560582920909">
        <ele>2157.3400000000001</ele>
        <time>2017-07-02T11:40:59Z</time>
      </trkpt>
      <trkpt lat="46.351128509268165" lon="11.803545914590359">
        <ele>2157.8200000000002</ele>
        <time>2017-07-02T11:41:06Z</time>
      </trkpt>
      <trkpt lat="46.351128173992038" lon="11.803512135520577">
        <ele>2157.3400000000001</ele>
        <time>2017-07-02T11:41:08Z</time>
      </trkpt>
      <trkpt lat="46.351131359115243" lon="11.803405098617077">
        <ele>2157.3400000000001</ele>
        <time>2017-07-02T11:41:15Z</time>
      </trkpt>
      <trkpt lat="46.351122977212071" lon="11.803337037563324">
        <ele>2156.8600000000001</ele>
        <time>2017-07-02T11:41:19Z</time>
      </trkpt>
      <trkpt lat="46.351064387708902" lon="11.803117683157325">
        <ele>2156.8600000000001</ele>
        <time>2017-07-02T11:41:34Z</time>
      </trkpt>
      <trkpt lat="46.350989621132612" lon="11.802971167489886">
        <ele>2156.3699999999999</ele>
        <time>2017-07-02T11:41:46Z</time>
      </trkpt>
      <trkpt lat="46.350980652496219" lon="11.80295960046351">
        <ele>2155.8899999999999</ele>
        <time>2017-07-02T11:41:47Z</time>
      </trkpt>
      <trkpt lat="46.350890379399061" lon="11.80277930572629">
        <ele>2153.9699999999998</ele>
        <time>2017-07-02T11:42:01Z</time>
      </trkpt>
      <trkpt lat="46.3508141040802" lon="11.802672604098916">
        <ele>2153.4899999999998</ele>
        <time>2017-07-02T11:42:11Z</time>
      </trkpt>
      <trkpt lat="46.350696673616767" lon="11.802542768418789">
        <ele>2152.5300000000002</ele>
        <time>2017-07-02T11:42:25Z</time>
      </trkpt>
      <trkpt lat="46.350648561492562" lon="11.802491974085569">
        <ele>2152.5300000000002</ele>
        <time>2017-07-02T11:42:31Z</time>
      </trkpt>
      <trkpt lat="46.350609669461846" lon="11.802433049306273">
        <ele>2152.5300000000002</ele>
        <time>2017-07-02T11:42:36Z</time>
      </trkpt>
      <trkpt lat="46.350571950897574" lon="11.80237035267055">
        <ele>2152.5300000000002</ele>
        <time>2017-07-02T11:42:42Z</time>
      </trkpt>
      <trkpt lat="46.350467847660184" lon="11.802238924428821">
        <ele>2151.5700000000002</ele>
        <time>2017-07-02T11:42:54Z</time>
      </trkpt>
      <trkpt lat="46.350330300629139" lon="11.802099365741014">
        <ele>2149.1599999999999</ele>
        <time>2017-07-02T11:43:08Z</time>
      </trkpt>
      <trkpt lat="46.350180096924305" lon="11.801996603608131">
        <ele>2147.2399999999998</ele>
        <time>2017-07-02T11:43:22Z</time>
      </trkpt>
      <trkpt lat="46.350038191303611" lon="11.801889482885599">
        <ele>2144.3600000000001</ele>
        <time>2017-07-02T11:43:36Z</time>
      </trkpt>
      <trkpt lat="46.349913636222482" lon="11.801776494830847">
        <ele>2142.4400000000001</ele>
        <time>2017-07-02T11:43:48Z</time>
      </trkpt>
      <trkpt lat="46.349788997322321" lon="11.801610281690955">
        <ele>2140.5100000000002</ele>
        <time>2017-07-02T11:44:03Z</time>
      </trkpt>
      <trkpt lat="46.349705597385764" lon="11.801387742161751">
        <ele>2137.6300000000001</ele>
        <time>2017-07-02T11:44:18Z</time>
      </trkpt>
      <trkpt lat="46.349671147763729" lon="11.801379611715674">
        <ele>2136.6700000000001</ele>
        <time>2017-07-02T11:44:26Z</time>
      </trkpt>
      <trkpt lat="46.349608702585101" lon="11.801340887323022">
        <ele>2134.7399999999998</ele>
        <time>2017-07-02T11:44:35Z</time>
      </trkpt>
      <trkpt lat="46.349544748663902" lon="11.801255224272609">
        <ele>2132.3400000000001</ele>
        <time>2017-07-02T11:44:46Z</time>
      </trkpt>
      <trkpt lat="46.349432850256562" lon="11.801158748567104">
        <ele>2130.4200000000001</ele>
        <time>2017-07-02T11:45:00Z</time>
      </trkpt>
      <trkpt lat="46.349417259916663" lon="11.801150785759091">
        <ele>2129.9400000000001</ele>
        <time>2017-07-02T11:45:02Z</time>
      </trkpt>
      <trkpt lat="46.349372668191791" lon="11.801136704161763">
        <ele>2128.98</ele>
        <time>2017-07-02T11:45:08Z</time>
      </trkpt>
      <trkpt lat="46.349275019019842" lon="11.801048861816525">
        <ele>2126.5700000000002</ele>
        <time>2017-07-02T11:45:20Z</time>
      </trkpt>
      <trkpt lat="46.349171502515674" lon="11.801023464649916">
        <ele>2124.6500000000001</ele>
        <time>2017-07-02T11:45:31Z</time>
      </trkpt>
      <trkpt lat="46.349154990166426" lon="11.801009215414524">
        <ele>2124.1700000000001</ele>
        <time>2017-07-02T11:45:33Z</time>
      </trkpt>
      <trkpt lat="46.349128251895308" lon="11.800977196544409">
        <ele>2123.6900000000001</ele>
        <time>2017-07-02T11:45:36Z</time>
      </trkpt>
      <trkpt lat="46.348994392901659" lon="11.80090494453907">
        <ele>2121.77</ele>
        <time>2017-07-02T11:45:49Z</time>
      </trkpt>
      <trkpt lat="46.348943347111344" lon="11.800874685868621">
        <ele>2121.29</ele>
        <time>2017-07-02T11:45:54Z</time>
      </trkpt>
      <trkpt lat="46.348901018500328" lon="11.800857670605183">
        <ele>2120.8099999999999</ele>
        <time>2017-07-02T11:45:58Z</time>
      </trkpt>
      <trkpt lat="46.348805800080299" lon="11.80079254321754">
        <ele>2118.8800000000001</ele>
        <time>2017-07-02T11:46:10Z</time>
      </trkpt>
      <trkpt lat="46.34869733825326" lon="11.800770414993167">
        <ele>2116.96</ele>
        <time>2017-07-02T11:46:21Z</time>
      </trkpt>
      <trkpt lat="46.348550571128726" lon="11.800662288442254">
        <ele>2115.52</ele>
        <time>2017-07-02T11:46:35Z</time>
      </trkpt>
      <trkpt lat="46.348402379080653" lon="11.80055508390069">
        <ele>2113.5999999999999</ele>
        <time>2017-07-02T11:46:49Z</time>
      </trkpt>
      <trkpt lat="46.348286708816886" lon="11.800464391708374">
        <ele>2112.1500000000001</ele>
        <time>2017-07-02T11:47:01Z</time>
      </trkpt>
      <trkpt lat="46.348183695226908" lon="11.80042952299118">
        <ele>2112.1500000000001</ele>
        <time>2017-07-02T11:47:13Z</time>
      </trkpt>
      <trkpt lat="46.348176822066307" lon="11.800424661487341">
        <ele>2112.1500000000001</ele>
        <time>2017-07-02T11:47:14Z</time>
      </trkpt>
      <trkpt lat="46.348143294453621" lon="11.800364730879664">
        <ele>2111.6700000000001</ele>
        <time>2017-07-02T11:47:19Z</time>
      </trkpt>
      <trkpt lat="46.348119406029582" lon="11.800352660939097">
        <ele>2110.71</ele>
        <time>2017-07-02T11:47:30Z</time>
      </trkpt>
      <trkpt lat="46.348089650273323" lon="11.800340842455626">
        <ele>2110.71</ele>
        <time>2017-07-02T11:47:43Z</time>
      </trkpt>
      <trkpt lat="46.348051261156797" lon="11.800371520221233">
        <ele>2111.6700000000001</ele>
        <time>2017-07-02T11:47:54Z</time>
      </trkpt>
      <trkpt lat="46.347988313063979" lon="11.800385769456625">
        <ele>2112.6300000000001</ele>
        <time>2017-07-02T11:48:03Z</time>
      </trkpt>
      <trkpt lat="46.347908014431596" lon="11.800400940701365">
        <ele>2113.1199999999999</ele>
        <time>2017-07-02T11:48:12Z</time>
      </trkpt>
      <trkpt lat="46.347864847630262" lon="11.800413178279996">
        <ele>2112.1500000000001</ele>
        <time>2017-07-02T11:48:16Z</time>
      </trkpt>
      <trkpt lat="46.347763678058982" lon="11.800443101674318">
        <ele>2110.23</ele>
        <time>2017-07-02T11:48:25Z</time>
      </trkpt>
      <trkpt lat="46.347581371665001" lon="11.800450058653951">
        <ele>2107.8299999999999</ele>
        <time>2017-07-02T11:48:39Z</time>
      </trkpt>
      <trkpt lat="46.347557902336121" lon="11.800448466092348">
        <ele>2107.8299999999999</ele>
        <time>2017-07-02T11:48:41Z</time>
      </trkpt>
      <trkpt lat="46.347501408308744" lon="11.800436479970813">
        <ele>2107.8299999999999</ele>
        <time>2017-07-02T11:48:46Z</time>
      </trkpt>
      <trkpt lat="46.347378697246313" lon="11.800371184945107">
        <ele>2106.8699999999999</ele>
        <time>2017-07-02T11:48:58Z</time>
      </trkpt>
      <trkpt lat="46.347333686426282" lon="11.800353834405541">
        <ele>2106.3899999999999</ele>
        <time>2017-07-02T11:49:02Z</time>
      </trkpt>
      <trkpt lat="46.347226146608591" lon="11.800288958474994">
        <ele>2104.9400000000001</ele>
        <time>2017-07-02T11:49:12Z</time>
      </trkpt>
      <trkpt lat="46.347115924581885" lon="11.800184855237603">
        <ele>2104.9400000000001</ele>
        <time>2017-07-02T11:49:24Z</time>
      </trkpt>
      <trkpt lat="46.347036464139819" lon="11.800154009833932">
        <ele>2103.02</ele>
        <time>2017-07-02T11:49:34Z</time>
      </trkpt>
      <trkpt lat="46.346987681463361" lon="11.800131211057305">
        <ele>2101.5799999999999</ele>
        <time>2017-07-02T11:49:40Z</time>
      </trkpt>
      <trkpt lat="46.346904197707772" lon="11.800050158053637">
        <ele>2101.0999999999999</ele>
        <time>2017-07-02T11:49:51Z</time>
      </trkpt>
      <trkpt lat="46.346894055604935" lon="11.800013361498713">
        <ele>2101.0999999999999</ele>
        <time>2017-07-02T11:49:53Z</time>
      </trkpt>
      <trkpt lat="46.346856169402599" lon="11.79997555911541">
        <ele>2099.1799999999998</ele>
        <time>2017-07-02T11:49:57Z</time>
      </trkpt>
      <trkpt lat="46.346807722002268" lon="11.800002548843622">
        <ele>2098.6999999999998</ele>
        <time>2017-07-02T11:50:02Z</time>
      </trkpt>
      <trkpt lat="46.346666654571891" lon="11.800089217722416">
        <ele>2097.25</ele>
        <time>2017-07-02T11:50:16Z</time>
      </trkpt>
      <trkpt lat="46.34656447917223" lon="11.8001470528543">
        <ele>2097.25</ele>
        <time>2017-07-02T11:50:27Z</time>
      </trkpt>
      <trkpt lat="46.3464848510921" lon="11.800197847187519">
        <ele>2096.77</ele>
        <time>2017-07-02T11:50:35Z</time>
      </trkpt>
      <trkpt lat="46.346386196091771" lon="11.800233302637935">
        <ele>2095.8099999999999</ele>
        <time>2017-07-02T11:50:44Z</time>
      </trkpt>
      <trkpt lat="46.346237668767571" lon="11.800249731168151">
        <ele>2094.3699999999999</ele>
        <time>2017-07-02T11:50:57Z</time>
      </trkpt>
      <trkpt lat="46.346088638529181" lon="11.800250401720405">
        <ele>2093.8899999999999</ele>
        <time>2017-07-02T11:51:10Z</time>
      </trkpt>
      <trkpt lat="46.345993503928185" lon="11.800229866057634">
        <ele>2093.8899999999999</ele>
        <time>2017-07-02T11:51:18Z</time>
      </trkpt>
      <trkpt lat="46.345846485346556" lon="11.800172198563814">
        <ele>2094.3699999999999</ele>
        <time>2017-07-02T11:51:31Z</time>
      </trkpt>
      <trkpt lat="46.345736598595977" lon="11.80017052218318">
        <ele>2092.4499999999998</ele>
        <time>2017-07-02T11:51:44Z</time>
      </trkpt>
      <trkpt lat="46.345740873366594" lon="11.800170941278338">
        <ele>2091.9699999999998</ele>
        <time>2017-07-02T11:51:58Z</time>
      </trkpt>
      <trkpt lat="46.345697790384293" lon="11.800177898257971">
        <ele>2091.4899999999998</ele>
        <time>2017-07-02T11:52:09Z</time>
      </trkpt>
      <trkpt lat="46.345676835626364" lon="11.800204385071993">
        <ele>2091.4899999999998</ele>
        <time>2017-07-02T11:52:12Z</time>
      </trkpt>
      <trkpt lat="46.345618916675448" lon="11.800300860777497">
        <ele>2090.52</ele>
        <time>2017-07-02T11:52:20Z</time>
      </trkpt>
      <trkpt lat="46.34546360000968" lon="11.800397168844938">
        <ele>2087.6399999999999</ele>
        <time>2017-07-02T11:52:35Z</time>
      </trkpt>
      <trkpt lat="46.345307193696499" lon="11.80042072199285">
        <ele>2084.7600000000002</ele>
        <time>2017-07-02T11:52:48Z</time>
      </trkpt>
      <trkpt lat="46.345159839838743" lon="11.800455171614885">
        <ele>2084.7600000000002</ele>
        <time>2017-07-02T11:53:01Z</time>
      </trkpt>
      <trkpt lat="46.345040313899517" lon="11.800296334549785">
        <ele>2081.8699999999999</ele>
        <time>2017-07-02T11:53:14Z</time>
      </trkpt>
      <trkpt lat="46.344949370250106" lon="11.800156524404883">
        <ele>2081.3899999999999</ele>
        <time>2017-07-02T11:53:26Z</time>
      </trkpt>
      <trkpt lat="46.344814505428076" lon="11.800120398402214">
        <ele>2080.4299999999998</ele>
        <time>2017-07-02T11:53:39Z</time>
      </trkpt>
      <trkpt lat="46.344682406634092" lon="11.800235398113728">
        <ele>2077.5500000000002</ele>
        <time>2017-07-02T11:53:52Z</time>
      </trkpt>
      <trkpt lat="46.344525245949626" lon="11.800339249894023">
        <ele>2076.0999999999999</ele>
        <time>2017-07-02T11:54:05Z</time>
      </trkpt>
      <trkpt lat="46.344344364479184" lon="11.800364395603538">
        <ele>2075.1399999999999</ele>
        <time>2017-07-02T11:54:20Z</time>
      </trkpt>
      <trkpt lat="46.344189886003733" lon="11.800336819142103">
        <ele>2075.1399999999999</ele>
        <time>2017-07-02T11:54:34Z</time>
      </trkpt>
      <trkpt lat="46.344033563509583" lon="11.800334639847279">
        <ele>2074.6599999999999</ele>
        <time>2017-07-02T11:54:47Z</time>
      </trkpt>
      <trkpt lat="46.343859387561679" lon="11.80034788325429">
        <ele>2073.2199999999998</ele>
        <time>2017-07-02T11:55:01Z</time>
      </trkpt>
      <trkpt lat="46.343704573810101" lon="11.800323408097029">
        <ele>2071.7800000000002</ele>
        <time>2017-07-02T11:55:14Z</time>
      </trkpt>
      <trkpt lat="46.343568367883563" lon="11.800233470275998">
        <ele>2071.3000000000002</ele>
        <time>2017-07-02T11:55:27Z</time>
      </trkpt>
      <trkpt lat="46.343432413414121" lon="11.800146969035268">
        <ele>2070.3400000000001</ele>
        <time>2017-07-02T11:55:40Z</time>
      </trkpt>
      <trkpt lat="46.343287071213126" lon="11.800107825547457">
        <ele>2070.3400000000001</ele>
        <time>2017-07-02T11:55:52Z</time>
      </trkpt>
      <trkpt lat="46.343121780082583" lon="11.80018569342792">
        <ele>2069.8600000000001</ele>
        <time>2017-07-02T11:56:07Z</time>
      </trkpt>
      <trkpt lat="46.343074506148696" lon="11.80026582442224">
        <ele>2070.3400000000001</ele>
        <time>2017-07-02T11:56:14Z</time>
      </trkpt>
      <trkpt lat="46.343019185587764" lon="11.800473779439926">
        <ele>2070.3400000000001</ele>
        <time>2017-07-02T11:56:28Z</time>
      </trkpt>
      <trkpt lat="46.342923548072577" lon="11.800649464130402">
        <ele>2069.3800000000001</ele>
        <time>2017-07-02T11:56:41Z</time>
      </trkpt>
      <trkpt lat="46.342818606644869" lon="11.8007842451334">
        <ele>2069.8600000000001</ele>
        <time>2017-07-02T11:56:53Z</time>
      </trkpt>
      <trkpt lat="46.342730345204473" lon="11.80092397145927">
        <ele>2070.8200000000002</ele>
        <time>2017-07-02T11:57:04Z</time>
      </trkpt>
      <trkpt lat="46.342627750709653" lon="11.801155814900994">
        <ele>2069.3800000000001</ele>
        <time>2017-07-02T11:57:20Z</time>
      </trkpt>
      <trkpt lat="46.342574190348387" lon="11.801335187628865">
        <ele>2069.3800000000001</ele>
        <time>2017-07-02T11:57:32Z</time>
      </trkpt>
      <trkpt lat="46.342507218942046" lon="11.801556134596467">
        <ele>2068.8899999999999</ele>
        <time>2017-07-02T11:57:46Z</time>
      </trkpt>
      <trkpt lat="46.342430021613836" lon="11.801803400740027">
        <ele>2067.4499999999998</ele>
        <time>2017-07-02T11:58:01Z</time>
      </trkpt>
      <trkpt lat="46.342367408797145" lon="11.802018899470568">
        <ele>2066.4899999999998</ele>
        <time>2017-07-02T11:58:15Z</time>
      </trkpt>
      <trkpt lat="46.342338575050235" lon="11.802096264436841">
        <ele>2066.0100000000002</ele>
        <time>2017-07-02T11:58:20Z</time>
      </trkpt>
      <trkpt lat="46.34230999276042" lon="11.802187543362379">
        <ele>2066.0100000000002</ele>
        <time>2017-07-02T11:58:26Z</time>
      </trkpt>
      <trkpt lat="46.342239081859589" lon="11.802385356277227">
        <ele>2065.0500000000002</ele>
        <time>2017-07-02T11:58:39Z</time>
      </trkpt>
      <trkpt lat="46.34219759143889" lon="11.802567830309272">
        <ele>2064.0900000000001</ele>
        <time>2017-07-02T11:58:51Z</time>
      </trkpt>
      <trkpt lat="46.342128105461597" lon="11.802777210250497">
        <ele>2063.1300000000001</ele>
        <time>2017-07-02T11:59:05Z</time>
      </trkpt>
      <trkpt lat="46.342110252007842" lon="11.802817527204752">
        <ele>2061.1999999999998</ele>
        <time>2017-07-02T11:59:08Z</time>
      </trkpt>
      <trkpt lat="46.342041185125709" lon="11.803047861903906">
        <ele>2059.2800000000002</ele>
        <time>2017-07-02T11:59:23Z</time>
      </trkpt>
      <trkpt lat="46.342025510966778" lon="11.803099829703569">
        <ele>2058.8000000000002</ele>
        <time>2017-07-02T11:59:26Z</time>
      </trkpt>
      <trkpt lat="46.341897854581475" lon="11.803174093365669">
        <ele>2057.3600000000001</ele>
        <time>2017-07-02T11:59:38Z</time>
      </trkpt>
      <trkpt lat="46.341869942843914" lon="11.80310619994998">
        <ele>2056.8800000000001</ele>
        <time>2017-07-02T11:59:42Z</time>
      </trkpt>
      <trkpt lat="46.341879582032561" lon="11.802860694006085">
        <ele>2056.4000000000001</ele>
        <time>2017-07-02T11:59:56Z</time>
      </trkpt>
      <trkpt lat="46.341901961714029" lon="11.802661120891571">
        <ele>2055.9200000000001</ele>
        <time>2017-07-02T12:00:08Z</time>
      </trkpt>
      <trkpt lat="46.341890897601843" lon="11.802498092874885">
        <ele>2054.96</ele>
        <time>2017-07-02T12:00:20Z</time>
      </trkpt>
      <trkpt lat="46.341795763000846" lon="11.802397845312953">
        <ele>2054.4699999999998</ele>
        <time>2017-07-02T12:00:33Z</time>
      </trkpt>
      <trkpt lat="46.341741615906358" lon="11.802394911646843">
        <ele>2054.4699999999998</ele>
        <time>2017-07-02T12:00:39Z</time>
      </trkpt>
      <trkpt lat="46.341676572337747" lon="11.802395414561033">
        <ele>2053.9899999999998</ele>
        <time>2017-07-02T12:00:45Z</time>
      </trkpt>
      <trkpt lat="46.341530224308372" lon="11.80239767767489">
        <ele>2051.5900000000001</ele>
        <time>2017-07-02T12:00:58Z</time>
      </trkpt>
      <trkpt lat="46.341409189626575" lon="11.802234817296267">
        <ele>2050.6300000000001</ele>
        <time>2017-07-02T12:01:12Z</time>
      </trkpt>
      <trkpt lat="46.341352611780167" lon="11.802013367414474">
        <ele>2051.1100000000001</ele>
        <time>2017-07-02T12:01:26Z</time>
      </trkpt>
      <trkpt lat="46.34128631092608" lon="11.801905576139688">
        <ele>2051.5900000000001</ele>
        <time>2017-07-02T12:01:36Z</time>
      </trkpt>
      <trkpt lat="46.341199222952127" lon="11.801792420446873">
        <ele>2052.5500000000002</ele>
        <time>2017-07-02T12:01:48Z</time>
      </trkpt>
      <trkpt lat="46.341142309829593" lon="11.80173609405756">
        <ele>2053.0300000000002</ele>
        <time>2017-07-02T12:01:55Z</time>
      </trkpt>
      <trkpt lat="46.341079194098711" lon="11.801677420735359">
        <ele>2053.5100000000002</ele>
        <time>2017-07-02T12:02:06Z</time>
      </trkpt>
      <trkpt lat="46.340985903516412" lon="11.801590332761407">
        <ele>2053.9899999999998</ele>
        <time>2017-07-02T12:02:17Z</time>
      </trkpt>
      <trkpt lat="46.340935779735446" lon="11.801542472094297">
        <ele>2054.4699999999998</ele>
        <time>2017-07-02T12:02:23Z</time>
      </trkpt>
      <trkpt lat="46.340892026200891" lon="11.801491929218173">
        <ele>2054.4699999999998</ele>
        <time>2017-07-02T12:02:29Z</time>
      </trkpt>
      <trkpt lat="46.340831173583865" lon="11.801334600895643">
        <ele>2054.96</ele>
        <time>2017-07-02T12:02:41Z</time>
      </trkpt>
      <trkpt lat="46.340789599344134" lon="11.8012401368469">
        <ele>2054.4699999999998</ele>
        <time>2017-07-02T12:02:51Z</time>
      </trkpt>
      <trkpt lat="46.340757748112082" lon="11.801210381090641">
        <ele>2053.0300000000002</ele>
        <time>2017-07-02T12:02:56Z</time>
      </trkpt>
      <trkpt lat="46.340659679844975" lon="11.80111893452704">
        <ele>2052.5500000000002</ele>
        <time>2017-07-02T12:03:07Z</time>
      </trkpt>
      <trkpt lat="46.340632354840636" lon="11.801092782989144">
        <ele>2051.1100000000001</ele>
        <time>2017-07-02T12:03:10Z</time>
      </trkpt>
      <trkpt lat="46.340614249929786" lon="11.801089849323034">
        <ele>2051.1100000000001</ele>
        <time>2017-07-02T12:03:12Z</time>
      </trkpt>
      <trkpt lat="46.340564377605915" lon="11.801132261753082">
        <ele>2051.5900000000001</ele>
        <time>2017-07-02T12:03:19Z</time>
      </trkpt>
      <trkpt lat="46.340510817244649" lon="11.801224797964096">
        <ele>2052.5500000000002</ele>
        <time>2017-07-02T12:03:27Z</time>
      </trkpt>
      <trkpt lat="46.340486342087388" lon="11.801273413002491">
        <ele>2052.5500000000002</ele>
        <time>2017-07-02T12:03:31Z</time>
      </trkpt>
      <trkpt lat="46.340440325438976" lon="11.801321441307664">
        <ele>2052.5500000000002</ele>
        <time>2017-07-02T12:03:36Z</time>
      </trkpt>
      <trkpt lat="46.340372432023287" lon="11.801395369693637">
        <ele>2053.0300000000002</ele>
        <time>2017-07-02T12:03:45Z</time>
      </trkpt>
      <trkpt lat="46.340286517515779" lon="11.801563426852226">
        <ele>2053.5100000000002</ele>
        <time>2017-07-02T12:03:58Z</time>
      </trkpt>
      <trkpt lat="46.340245194733143" lon="11.801660908386111">
        <ele>2053.9899999999998</ele>
        <time>2017-07-02T12:04:05Z</time>
      </trkpt>
      <trkpt lat="46.340210158377886" lon="11.801747241988778">
        <ele>2053.9899999999998</ele>
        <time>2017-07-02T12:04:12Z</time>
      </trkpt>
      <trkpt lat="46.340187527239323" lon="11.801877077668905">
        <ele>2054.4699999999998</ele>
        <time>2017-07-02T12:04:21Z</time>
      </trkpt>
      <trkpt lat="46.340124411508441" lon="11.802041782066226">
        <ele>2054.96</ele>
        <time>2017-07-02T12:04:34Z</time>
      </trkpt>
      <trkpt lat="46.340117370709777" lon="11.802050918340683">
        <ele>2055.4400000000001</ele>
        <time>2017-07-02T12:04:35Z</time>
      </trkpt>
      <trkpt lat="46.339988205581903" lon="11.802111603319645">
        <ele>2053.9899999999998</ele>
        <time>2017-07-02T12:04:48Z</time>
      </trkpt>
      <trkpt lat="46.339953923597932" lon="11.802112022414804">
        <ele>2053.9899999999998</ele>
        <time>2017-07-02T12:04:51Z</time>
      </trkpt>
      <trkpt lat="46.339878151193261" lon="11.802121493965387">
        <ele>2053.0300000000002</ele>
        <time>2017-07-02T12:04:58Z</time>
      </trkpt>
      <trkpt lat="46.339723505079746" lon="11.802169857546687">
        <ele>2052.0700000000002</ele>
        <time>2017-07-02T12:05:11Z</time>
      </trkpt>
      <trkpt lat="46.339614624157548" lon="11.802107244729996">
        <ele>2051.1100000000001</ele>
        <time>2017-07-02T12:05:22Z</time>
      </trkpt>
      <trkpt lat="46.339520327746868" lon="11.801956286653876">
        <ele>2050.1500000000001</ele>
        <time>2017-07-02T12:05:34Z</time>
      </trkpt>
      <trkpt lat="46.33947498165071" lon="11.801752774044871">
        <ele>2049.6700000000001</ele>
        <time>2017-07-02T12:05:46Z</time>
      </trkpt>
      <trkpt lat="46.339447237551212" lon="11.801532162353396">
        <ele>2049.1900000000001</ele>
        <time>2017-07-02T12:05:59Z</time>
      </trkpt>
      <trkpt lat="46.339343469589949" lon="11.801383132115006">
        <ele>2048.71</ele>
        <time>2017-07-02T12:06:12Z</time>
      </trkpt>
      <trkpt lat="46.3391974568367" lon="11.801347928121686">
        <ele>2048.23</ele>
        <time>2017-07-02T12:06:26Z</time>
      </trkpt>
      <trkpt lat="46.339064687490463" lon="11.801336780190468">
        <ele>2046.3</ele>
        <time>2017-07-02T12:06:38Z</time>
      </trkpt>
      <trkpt lat="46.338923955336213" lon="11.801276933401823">
        <ele>2044.3800000000001</ele>
        <time>2017-07-02T12:06:52Z</time>
      </trkpt>
      <trkpt lat="46.338849440217018" lon="11.801240304484963">
        <ele>2042.9400000000001</ele>
        <time>2017-07-02T12:07:01Z</time>
      </trkpt>
      <trkpt lat="46.338707283139229" lon="11.801184061914682">
        <ele>2041.98</ele>
        <time>2017-07-02T12:07:15Z</time>
      </trkpt>
      <trkpt lat="46.338657829910517" lon="11.801046850159764">
        <ele>2041.98</ele>
        <time>2017-07-02T12:07:27Z</time>
      </trkpt>
      <trkpt lat="46.338652381673455" lon="11.800958840176463">
        <ele>2042.46</ele>
        <time>2017-07-02T12:07:36Z</time>
      </trkpt>
      <trkpt lat="46.338622625917196" lon="11.800939729437232">
        <ele>2042.46</ele>
        <time>2017-07-02T12:07:39Z</time>
      </trkpt>
      <trkpt lat="46.338578788563609" lon="11.800809055566788">
        <ele>2042.46</ele>
        <time>2017-07-02T12:07:47Z</time>
      </trkpt>
      <trkpt lat="46.338534951210022" lon="11.800773097202182">
        <ele>2042.9400000000001</ele>
        <time>2017-07-02T12:07:52Z</time>
      </trkpt>
      <trkpt lat="46.338470075279474" lon="11.800638819113374">
        <ele>2042.46</ele>
        <time>2017-07-02T12:08:02Z</time>
      </trkpt>
      <trkpt lat="46.338443672284484" lon="11.800488950684667">
        <ele>2042.46</ele>
        <time>2017-07-02T12:08:13Z</time>
      </trkpt>
      <trkpt lat="46.338412407785654" lon="11.800509989261627">
        <ele>2042.46</ele>
        <time>2017-07-02T12:08:22Z</time>
      </trkpt>
      <trkpt lat="46.338417772203684" lon="11.800499176606536">
        <ele>2043.4200000000001</ele>
        <time>2017-07-02T12:08:32Z</time>
      </trkpt>
      <trkpt lat="46.338437050580978" lon="11.800463302060962">
        <ele>2042.46</ele>
        <time>2017-07-02T12:08:41Z</time>
      </trkpt>
      <trkpt lat="46.338458089157939" lon="11.800474198535085">
        <ele>2042.46</ele>
        <time>2017-07-02T12:08:49Z</time>
      </trkpt>
      <trkpt lat="46.338571328669786" lon="11.800449807196856">
        <ele>2041.98</ele>
        <time>2017-07-02T12:08:59Z</time>
      </trkpt>
      <trkpt lat="46.338586332276464" lon="11.800526836887002">
        <ele>2042.46</ele>
        <time>2017-07-02T12:09:10Z</time>
      </trkpt>
      <trkpt lat="46.33858859539032" lon="11.800533039495349">
        <ele>2041.98</ele>
        <time>2017-07-02T12:09:25Z</time>
      </trkpt>
      <trkpt lat="46.338581219315529" lon="11.800494818016887">
        <ele>2041.98</ele>
        <time>2017-07-02T12:09:38Z</time>
      </trkpt>
      <trkpt lat="46.338623967021704" lon="11.800427930429578">
        <ele>2041.98</ele>
        <time>2017-07-02T12:09:43Z</time>
      </trkpt>
      <trkpt lat="46.338655315339565" lon="11.800316954031587">
        <ele>2043.4200000000001</ele>
        <time>2017-07-02T12:09:55Z</time>
      </trkpt>
      <trkpt lat="46.338648106902838" lon="11.800263058394194">
        <ele>2043.9000000000001</ele>
        <time>2017-07-02T12:10:07Z</time>
      </trkpt>
      <trkpt lat="46.338630337268114" lon="11.800245121121407">
        <ele>2043.4200000000001</ele>
        <time>2017-07-02T12:10:17Z</time>
      </trkpt>
      <trkpt lat="46.338635198771954" lon="11.800226597115397">
        <ele>2043.4200000000001</ele>
        <time>2017-07-02T12:10:29Z</time>
      </trkpt>
      <trkpt lat="46.338642993941903" lon="11.80023405700922">
        <ele>2043.4200000000001</ele>
        <time>2017-07-02T12:10:39Z</time>
      </trkpt>
      <trkpt lat="46.33864089846611" lon="11.800225842744112">
        <ele>2043.9000000000001</ele>
        <time>2017-07-02T12:10:53Z</time>
      </trkpt>
      <trkpt lat="46.338636456057429" lon="11.80021746084094">
        <ele>2043.4200000000001</ele>
        <time>2017-07-02T12:11:06Z</time>
      </trkpt>
      <trkpt lat="46.338645089417696" lon="11.800210168585181">
        <ele>2043.4200000000001</ele>
        <time>2017-07-02T12:11:18Z</time>
      </trkpt>
      <trkpt lat="46.338625978678465" lon="11.800202876329422">
        <ele>2043.4200000000001</ele>
        <time>2017-07-02T12:11:38Z</time>
      </trkpt>
      <trkpt lat="46.338647268712521" lon="11.80020765401423">
        <ele>2043.4200000000001</ele>
        <time>2017-07-02T12:11:55Z</time>
      </trkpt>
      <trkpt lat="46.338634695857763" lon="11.800215030089021">
        <ele>2042.9400000000001</ele>
        <time>2017-07-02T12:12:06Z</time>
      </trkpt>
      <trkpt lat="46.338647520169616" lon="11.800206229090691">
        <ele>2042.9400000000001</ele>
        <time>2017-07-02T12:12:14Z</time>
      </trkpt>
      <trkpt lat="46.338642407208681" lon="11.800198350101709">
        <ele>2043.4200000000001</ele>
        <time>2017-07-02T12:12:29Z</time>
      </trkpt>
      <trkpt lat="46.338636288419366" lon="11.800197008997202">
        <ele>2043.4200000000001</ele>
        <time>2017-07-02T12:12:49Z</time>
      </trkpt>
      <trkpt lat="46.338631426915526" lon="11.800203379243612">
        <ele>2042.9400000000001</ele>
        <time>2017-07-02T12:12:58Z</time>
      </trkpt>
      <trkpt lat="46.338660009205341" lon="11.800219137221575">
        <ele>2044.3800000000001</ele>
        <time>2017-07-02T12:13:13Z</time>
      </trkpt>
      <trkpt lat="46.338644921779633" lon="11.800213688984513">
        <ele>2042.46</ele>
        <time>2017-07-02T12:13:25Z</time>
      </trkpt>
      <trkpt lat="46.338625475764275" lon="11.800187705084682">
        <ele>2041.98</ele>
        <time>2017-07-02T12:13:43Z</time>
      </trkpt>
      <trkpt lat="46.338612399995327" lon="11.800209917128086">
        <ele>2041.98</ele>
        <time>2017-07-02T12:13:58Z</time>
      </trkpt>
      <trkpt lat="46.338593540713191" lon="11.800208073109388">
        <ele>2041.98</ele>
        <time>2017-07-02T12:14:24Z</time>
      </trkpt>
      <trkpt lat="46.338607035577297" lon="11.800184017047286">
        <ele>2041.5</ele>
        <time>2017-07-02T12:14:35Z</time>
      </trkpt>
      <trkpt lat="46.338653555139899" lon="11.800203630700707">
        <ele>2041.02</ele>
        <time>2017-07-02T12:14:50Z</time>
      </trkpt>
      <trkpt lat="46.338653806596994" lon="11.800210671499372">
        <ele>2041.02</ele>
        <time>2017-07-02T12:15:08Z</time>
      </trkpt>
      <trkpt lat="46.338643915951252" lon="11.800234308466315">
        <ele>2041.02</ele>
        <time>2017-07-02T12:15:22Z</time>
      </trkpt>
      <trkpt lat="46.338634360581636" lon="11.800243277102709">
        <ele>2041.02</ele>
        <time>2017-07-02T12:15:37Z</time>
      </trkpt>
      <trkpt lat="46.338615166023374" lon="11.800232548266649">
        <ele>2041.02</ele>
        <time>2017-07-02T12:15:51Z</time>
      </trkpt>
      <trkpt lat="46.338627990335226" lon="11.800224669277668">
        <ele>2041.02</ele>
        <time>2017-07-02T12:16:11Z</time>
      </trkpt>
      <trkpt lat="46.338635869324207" lon="11.800223914906383">
        <ele>2041.02</ele>
        <time>2017-07-02T12:16:27Z</time>
      </trkpt>
      <trkpt lat="46.33864969946444" lon="11.800219556316733">
        <ele>2040.54</ele>
        <time>2017-07-02T12:16:46Z</time>
      </trkpt>
      <trkpt lat="46.338653136044741" lon="11.800235565751791">
        <ele>2040.54</ele>
        <time>2017-07-02T12:17:01Z</time>
      </trkpt>
      <trkpt lat="46.338635114952922" lon="11.800244366750121">
        <ele>2040.54</ele>
        <time>2017-07-02T12:17:23Z</time>
      </trkpt>
      <trkpt lat="46.338651711121202" lon="11.800241768360138">
        <ele>2040.54</ele>
        <time>2017-07-02T12:17:43Z</time>
      </trkpt>
      <trkpt lat="46.338646095246077" lon="11.800234811380506">
        <ele>2040.54</ele>
        <time>2017-07-02T12:18:07Z</time>
      </trkpt>
      <trkpt lat="46.338632768020034" lon="11.800239756703377">
        <ele>2040.54</ele>
        <time>2017-07-02T12:18:26Z</time>
      </trkpt>
      <trkpt lat="46.338623128831387" lon="11.800235481932759">
        <ele>2040.54</ele>
        <time>2017-07-02T12:18:46Z</time>
      </trkpt>
      <trkpt lat="46.338619608432055" lon="11.800251491367817">
        <ele>2040.54</ele>
        <time>2017-07-02T12:19:08Z</time>
      </trkpt>
      <trkpt lat="46.338634612038732" lon="11.800252581015229">
        <ele>2040.54</ele>
        <time>2017-07-02T12:19:29Z</time>
      </trkpt>
      <trkpt lat="46.338636372238398" lon="11.800250234082341">
        <ele>2040.54</ele>
        <time>2017-07-02T12:19:52Z</time>
      </trkpt>
      <trkpt lat="46.338636623695493" lon="11.800244450569153">
        <ele>2040.54</ele>
        <time>2017-07-02T12:20:12Z</time>
      </trkpt>
      <trkpt lat="46.338615249842405" lon="11.800243360921741">
        <ele>2040.54</ele>
        <time>2017-07-02T12:20:32Z</time>
      </trkpt>
      <trkpt lat="46.338605275377631" lon="11.800248892977834">
        <ele>2040.54</ele>
        <time>2017-07-02T12:20:54Z</time>
      </trkpt>
      <trkpt lat="46.338642155751586" lon="11.800232296809554">
        <ele>2040.54</ele>
        <time>2017-07-02T12:21:15Z</time>
      </trkpt>
      <trkpt lat="46.33864332921803" lon="11.80024771951139">
        <ele>2040.54</ele>
        <time>2017-07-02T12:21:37Z</time>
      </trkpt>
      <trkpt lat="46.338640311732888" lon="11.80022232234478">
        <ele>2040.54</ele>
        <time>2017-07-02T12:21:54Z</time>
      </trkpt>
      <trkpt lat="46.338629582896829" lon="11.800234811380506">
        <ele>2040.54</ele>
        <time>2017-07-02T12:22:15Z</time>
      </trkpt>
      <trkpt lat="46.338618686422706" lon="11.800230201333761">
        <ele>2040.05</ele>
        <time>2017-07-02T12:22:38Z</time>
      </trkpt>
      <trkpt lat="46.338613824918866" lon="11.800225088372827">
        <ele>2040.54</ele>
        <time>2017-07-02T12:23:00Z</time>
      </trkpt>
      <trkpt lat="46.338629079982638" lon="11.800206145271659">
        <ele>2040.05</ele>
        <time>2017-07-02T12:23:27Z</time>
      </trkpt>
      <trkpt lat="46.338637042790651" lon="11.800212347880006">
        <ele>2040.05</ele>
        <time>2017-07-02T12:23:52Z</time>
      </trkpt>
      <trkpt lat="46.33866679854691" lon="11.800218215212226">
        <ele>2040.05</ele>
        <time>2017-07-02T12:24:20Z</time>
      </trkpt>
      <trkpt lat="46.338668391108513" lon="11.800211258232594">
        <ele>2040.05</ele>
        <time>2017-07-02T12:24:44Z</time>
      </trkpt>
      <trkpt lat="46.338672330603004" lon="11.800201032310724">
        <ele>2040.05</ele>
        <time>2017-07-02T12:25:05Z</time>
      </trkpt>
      <trkpt lat="46.338651711121202" lon="11.800198517739773">
        <ele>2040.05</ele>
        <time>2017-07-02T12:25:30Z</time>
      </trkpt>
      <trkpt lat="46.338643748313189" lon="11.800208240747452">
        <ele>2040.05</ele>
        <time>2017-07-02T12:25:50Z</time>
      </trkpt>
      <trkpt lat="46.338636204600334" lon="11.800216371193528">
        <ele>2040.05</ele>
        <time>2017-07-02T12:26:15Z</time>
      </trkpt>
      <trkpt lat="46.338628912344575" lon="11.800230117514729">
        <ele>2040.05</ele>
        <time>2017-07-02T12:26:33Z</time>
      </trkpt>
      <trkpt lat="46.338620781898499" lon="11.800228860229254">
        <ele>2040.05</ele>
        <time>2017-07-02T12:26:56Z</time>
      </trkpt>
      <trkpt lat="46.33861985988915" lon="11.800234727561474">
        <ele>2040.05</ele>
        <time>2017-07-02T12:27:10Z</time>
      </trkpt>
      <trkpt lat="46.338604521006346" lon="11.800239253789186">
        <ele>2040.05</ele>
        <time>2017-07-02T12:27:32Z</time>
      </trkpt>
      <trkpt lat="46.338613573461771" lon="11.800262304022908">
        <ele>2040.05</ele>
        <time>2017-07-02T12:27:51Z</time>
      </trkpt>
      <trkpt lat="46.338607538491488" lon="11.800224417820573">
        <ele>2040.05</ele>
        <time>2017-07-02T12:28:14Z</time>
      </trkpt>
      <trkpt lat="46.33862329646945" lon="11.800219304859638">
        <ele>2040.05</ele>
        <time>2017-07-02T12:28:35Z</time>
      </trkpt>
      <trkpt lat="46.338622290641069" lon="11.800229614600539">
        <ele>2040.05</ele>
        <time>2017-07-02T12:28:47Z</time>
      </trkpt>
      <trkpt lat="46.338617596775293" lon="11.800227938219905">
        <ele>2039.5699999999999</ele>
        <time>2017-07-02T12:29:05Z</time>
      </trkpt>
      <trkpt lat="46.338610723614693" lon="11.80023455992341">
        <ele>2040.05</ele>
        <time>2017-07-02T12:29:21Z</time>
      </trkpt>
      <trkpt lat="46.33860619738698" lon="11.800245121121407">
        <ele>2040.05</ele>
        <time>2017-07-02T12:29:39Z</time>
      </trkpt>
      <trkpt lat="46.338620111346245" lon="11.800260124728084">
        <ele>2040.05</ele>
        <time>2017-07-02T12:30:01Z</time>
      </trkpt>
      <trkpt lat="46.338609717786312" lon="11.800254173576832">
        <ele>2040.05</ele>
        <time>2017-07-02T12:30:10Z</time>
      </trkpt>
      <trkpt lat="46.33859689347446" lon="11.800246797502041">
        <ele>2040.05</ele>
        <time>2017-07-02T12:30:28Z</time>
      </trkpt>
      <trkpt lat="46.338586080819368" lon="11.800256352871656">
        <ele>2040.05</ele>
        <time>2017-07-02T12:30:37Z</time>
      </trkpt>
      <trkpt lat="46.338549954816699" lon="11.800252161920071">
        <ele>2040.05</ele>
        <time>2017-07-02T12:30:58Z</time>
      </trkpt>
      <trkpt lat="46.338560516014695" lon="11.800259370356798">
        <ele>2040.05</ele>
        <time>2017-07-02T12:31:15Z</time>
      </trkpt>
      <trkpt lat="46.338604185730219" lon="11.800260376185179">
        <ele>2040.54</ele>
        <time>2017-07-02T12:31:35Z</time>
      </trkpt>
      <trkpt lat="46.338631259277463" lon="11.800273032858968">
        <ele>2040.05</ele>
        <time>2017-07-02T12:31:56Z</time>
      </trkpt>
      <trkpt lat="46.338634109124541" lon="11.800265070050955">
        <ele>2040.05</ele>
        <time>2017-07-02T12:32:13Z</time>
      </trkpt>
      <trkpt lat="46.338631259277463" lon="11.800258532166481">
        <ele>2040.54</ele>
        <time>2017-07-02T12:32:29Z</time>
      </trkpt>
      <trkpt lat="46.338607203215361" lon="11.800263896584511">
        <ele>2040.05</ele>
        <time>2017-07-02T12:32:51Z</time>
      </trkpt>
      <trkpt lat="46.338621787726879" lon="11.800206564366817">
        <ele>2040.54</ele>
        <time>2017-07-02T12:33:09Z</time>
      </trkpt>
      <trkpt lat="46.338639557361603" lon="11.80020472034812">
        <ele>2040.05</ele>
        <time>2017-07-02T12:33:11Z</time>
      </trkpt>
      <trkpt lat="46.338631762191653" lon="11.800253167748451">
        <ele>2040.54</ele>
        <time>2017-07-02T12:33:49Z</time>
      </trkpt>
      <trkpt lat="46.338694039732218" lon="11.800235146656632">
        <ele>2040.54</ele>
        <time>2017-07-02T12:34:00Z</time>
      </trkpt>
      <trkpt lat="46.338719185441732" lon="11.800198517739773">
        <ele>2040.54</ele>
        <time>2017-07-02T12:34:09Z</time>
      </trkpt>
      <trkpt lat="46.338722789660096" lon="11.800273368135095">
        <ele>2040.54</ele>
        <time>2017-07-02T12:36:53Z</time>
      </trkpt>
      <trkpt lat="46.338650621473789" lon="11.800256185233593">
        <ele>2040.54</ele>
        <time>2017-07-02T12:37:08Z</time>
      </trkpt>
      <trkpt lat="46.338642071932554" lon="11.800255933776498">
        <ele>2040.54</ele>
        <time>2017-07-02T12:37:23Z</time>
      </trkpt>
      <trkpt lat="46.338643413037062" lon="11.800226764753461">
        <ele>2040.54</ele>
        <time>2017-07-02T12:37:37Z</time>
      </trkpt>
      <trkpt lat="46.338626984506845" lon="11.800225675106049">
        <ele>2040.54</ele>
        <time>2017-07-02T12:37:51Z</time>
      </trkpt>
      <trkpt lat="46.338617010042071" lon="11.800241935998201">
        <ele>2040.54</ele>
        <time>2017-07-02T12:38:09Z</time>
      </trkpt>
      <trkpt lat="46.338659338653088" lon="11.800229195505381">
        <ele>2040.05</ele>
        <time>2017-07-02T12:38:29Z</time>
      </trkpt>
      <trkpt lat="46.338651543483138" lon="11.800238247960806">
        <ele>2040.05</ele>
        <time>2017-07-02T12:38:37Z</time>
      </trkpt>
      <trkpt lat="46.338631343096495" lon="11.800225675106049">
        <ele>2040.54</ele>
        <time>2017-07-02T12:38:53Z</time>
      </trkpt>
      <trkpt lat="46.338645843788981" lon="11.800242103636265">
        <ele>2040.05</ele>
        <time>2017-07-02T12:39:06Z</time>
      </trkpt>
      <trkpt lat="46.33864919655025" lon="11.800245540216565">
        <ele>2040.05</ele>
        <time>2017-07-02T12:39:30Z</time>
      </trkpt>
      <trkpt lat="46.338630337268114" lon="11.800266914069653">
        <ele>2040.05</ele>
        <time>2017-07-02T12:39:56Z</time>
      </trkpt>
      <trkpt lat="46.338646430522203" lon="11.80026238784194">
        <ele>2040.05</ele>
        <time>2017-07-02T12:40:18Z</time>
      </trkpt>
      <trkpt lat="46.338656656444073" lon="11.800243528559804">
        <ele>2040.05</ele>
        <time>2017-07-02T12:40:41Z</time>
      </trkpt>
      <trkpt lat="46.33864869363606" lon="11.800270099192858">
        <ele>2040.05</ele>
        <time>2017-07-02T12:41:09Z</time>
      </trkpt>
      <trkpt lat="46.33862329646945" lon="11.800263728946447">
        <ele>2040.05</ele>
        <time>2017-07-02T12:41:39Z</time>
      </trkpt>
      <trkpt lat="46.338620446622372" lon="11.800259118899703">
        <ele>2040.05</ele>
        <time>2017-07-02T12:42:01Z</time>
      </trkpt>
      <trkpt lat="46.338628493249416" lon="11.800263142213225">
        <ele>2040.05</ele>
        <time>2017-07-02T12:42:20Z</time>
      </trkpt>
      <trkpt lat="46.338630085811019" lon="11.800289209932089">
        <ele>2040.05</ele>
        <time>2017-07-02T12:42:39Z</time>
      </trkpt>
      <trkpt lat="46.338629750534892" lon="11.800270183011889">
        <ele>2040.05</ele>
        <time>2017-07-02T12:43:00Z</time>
      </trkpt>
      <trkpt lat="46.338628157973289" lon="11.800260543823242">
        <ele>2040.05</ele>
        <time>2017-07-02T12:43:20Z</time>
      </trkpt>
      <trkpt lat="46.338645089417696" lon="11.800259789451957">
        <ele>2040.05</ele>
        <time>2017-07-02T12:43:41Z</time>
      </trkpt>
      <trkpt lat="46.338650537654757" lon="11.80024478584528">
        <ele>2040.05</ele>
        <time>2017-07-02T12:44:06Z</time>
      </trkpt>
      <trkpt lat="46.338634192943573" lon="11.800242522731423">
        <ele>2040.05</ele>
        <time>2017-07-02T12:44:28Z</time>
      </trkpt>
      <trkpt lat="46.338620781898499" lon="11.800275128334761">
        <ele>2040.54</ele>
        <time>2017-07-02T12:44:48Z</time>
      </trkpt>
      <trkpt lat="46.338679539039731" lon="11.800222657620907">
        <ele>2040.05</ele>
        <time>2017-07-02T12:45:15Z</time>
      </trkpt>
      <trkpt lat="46.338657829910517" lon="11.800239169970155">
        <ele>2040.05</ele>
        <time>2017-07-02T12:45:37Z</time>
      </trkpt>
      <trkpt lat="46.338647771626711" lon="11.800248641520739">
        <ele>2040.05</ele>
        <time>2017-07-02T12:45:51Z</time>
      </trkpt>
      <trkpt lat="46.338628493249416" lon="11.800270015373826">
        <ele>2040.05</ele>
        <time>2017-07-02T12:46:12Z</time>
      </trkpt>
      <trkpt lat="46.338634863495827" lon="11.8002540897578">
        <ele>2040.05</ele>
        <time>2017-07-02T12:46:26Z</time>
      </trkpt>
      <trkpt lat="46.338644586503506" lon="11.800241684541106">
        <ele>2040.05</ele>
        <time>2017-07-02T12:46:40Z</time>
      </trkpt>
      <trkpt lat="46.338625811040401" lon="11.800257777795196">
        <ele>2040.05</ele>
        <time>2017-07-02T12:46:53Z</time>
      </trkpt>
      <trkpt lat="46.338633019477129" lon="11.800289964303374">
        <ele>2041.98</ele>
        <time>2017-07-02T12:47:02Z</time>
      </trkpt>
      <trkpt lat="46.33863159455359" lon="11.800292562693357">
        <ele>2041.02</ele>
        <time>2017-07-02T12:47:12Z</time>
      </trkpt>
      <trkpt lat="46.338634276762605" lon="11.800296334549785">
        <ele>2041.02</ele>
        <time>2017-07-02T12:47:25Z</time>
      </trkpt>
      <trkpt lat="46.338617848232388" lon="11.800270853564143">
        <ele>2040.54</ele>
        <time>2017-07-02T12:47:36Z</time>
      </trkpt>
      <trkpt lat="46.33860619738698" lon="11.800265405327082">
        <ele>2041.02</ele>
        <time>2017-07-02T12:47:51Z</time>
      </trkpt>
      <trkpt lat="46.338615333661437" lon="11.800254005938768">
        <ele>2040.54</ele>
        <time>2017-07-02T12:48:06Z</time>
      </trkpt>
      <trkpt lat="46.338609382510185" lon="11.800272949039936">
        <ele>2040.54</ele>
        <time>2017-07-02T12:48:19Z</time>
      </trkpt>
      <trkpt lat="46.338613405823708" lon="11.800287030637264">
        <ele>2040.54</ele>
        <time>2017-07-02T12:48:32Z</time>
      </trkpt>
      <trkpt lat="46.338619189336896" lon="11.800266997888684">
        <ele>2040.54</ele>
        <time>2017-07-02T12:48:44Z</time>
      </trkpt>
      <trkpt lat="46.338610136881471" lon="11.800241516903043">
        <ele>2041.98</ele>
        <time>2017-07-02T12:49:03Z</time>
      </trkpt>
      <trkpt lat="46.338606951758265" lon="11.800245540216565">
        <ele>2040.54</ele>
        <time>2017-07-02T12:49:18Z</time>
      </trkpt>
      <trkpt lat="46.338660512119532" lon="11.800323575735092">
        <ele>2040.54</ele>
        <time>2017-07-02T12:49:31Z</time>
      </trkpt>
      <trkpt lat="46.338645257055759" lon="11.800329862162471">
        <ele>2040.05</ele>
        <time>2017-07-02T12:49:43Z</time>
      </trkpt>
      <trkpt lat="46.33862673304975" lon="11.800387278199196">
        <ele>2038.1300000000001</ele>
        <time>2017-07-02T12:49:52Z</time>
      </trkpt>
      <trkpt lat="46.338615836575627" lon="11.800391301512718">
        <ele>2038.1300000000001</ele>
        <time>2017-07-02T12:49:53Z</time>
      </trkpt>
      <trkpt lat="46.338493963703513" lon="11.800487609580159">
        <ele>2038.1300000000001</ele>
        <time>2017-07-02T12:50:06Z</time>
      </trkpt>
      <trkpt lat="46.338422549888492" lon="11.80047545582056">
        <ele>2038.6099999999999</ele>
        <time>2017-07-02T12:50:15Z</time>
      </trkpt>
      <trkpt lat="46.338404947891831" lon="11.800496578216553">
        <ele>2039.5699999999999</ele>
        <time>2017-07-02T12:50:26Z</time>
      </trkpt>
      <trkpt lat="46.338390782475471" lon="11.800442347303033">
        <ele>2039.0899999999999</ele>
        <time>2017-07-02T12:50:37Z</time>
      </trkpt>
      <trkpt lat="46.338364966213703" lon="11.800352996215224">
        <ele>2040.54</ele>
        <time>2017-07-02T12:50:53Z</time>
      </trkpt>
      <trkpt lat="46.338357590138912" lon="11.800272110849619">
        <ele>2041.98</ele>
        <time>2017-07-02T12:51:02Z</time>
      </trkpt>
      <trkpt lat="46.338349040597677" lon="11.800183765590191">
        <ele>2042.9400000000001</ele>
        <time>2017-07-02T12:51:14Z</time>
      </trkpt>
      <trkpt lat="46.338305119425058" lon="11.800161972641945">
        <ele>2044.8599999999999</ele>
        <time>2017-07-02T12:51:28Z</time>
      </trkpt>
      <trkpt lat="46.338287182152271" lon="11.80017446167767">
        <ele>2044.8599999999999</ele>
        <time>2017-07-02T12:51:44Z</time>
      </trkpt>
      <trkpt lat="46.338279554620385" lon="11.800200697034597">
        <ele>2044.8599999999999</ele>
        <time>2017-07-02T12:51:53Z</time>
      </trkpt>
      <trkpt lat="46.338283075019717" lon="11.800218550488353">
        <ele>2044.3800000000001</ele>
        <time>2017-07-02T12:52:09Z</time>
      </trkpt>
      <trkpt lat="46.338289109990001" lon="11.800217628479004">
        <ele>2044.8599999999999</ele>
        <time>2017-07-02T12:52:12Z</time>
      </trkpt>
      <trkpt lat="46.338295564055443" lon="11.80031661875546">
        <ele>2044.8599999999999</ele>
        <time>2017-07-02T12:52:23Z</time>
      </trkpt>
      <trkpt lat="46.338278632611036" lon="11.800328269600868">
        <ele>2044.8599999999999</ele>
        <time>2017-07-02T12:52:41Z</time>
      </trkpt>
      <trkpt lat="46.338282907381654" lon="11.800349894911051">
        <ele>2045.3399999999999</ele>
        <time>2017-07-02T12:52:49Z</time>
      </trkpt>
      <trkpt lat="46.33828810416162" lon="11.800379399210215">
        <ele>2045.3399999999999</ele>
        <time>2017-07-02T12:52:58Z</time>
      </trkpt>
      <trkpt lat="46.338304784148932" lon="11.800409574061632">
        <ele>2045.3399999999999</ele>
        <time>2017-07-02T12:53:09Z</time>
      </trkpt>
      <trkpt lat="46.338280057534575" lon="11.800418542698026">
        <ele>2045.3399999999999</ele>
        <time>2017-07-02T12:53:22Z</time>
      </trkpt>
      <trkpt lat="46.338297072798014" lon="11.80042558349669">
        <ele>2045.3399999999999</ele>
        <time>2017-07-02T12:53:37Z</time>
      </trkpt>
      <trkpt lat="46.338279973715544" lon="11.800449974834919">
        <ele>2045.3399999999999</ele>
        <time>2017-07-02T12:53:50Z</time>
      </trkpt>
      <trkpt lat="46.338263377547264" lon="11.800447879359126">
        <ele>2045.3399999999999</ele>
        <time>2017-07-02T12:53:58Z</time>
      </trkpt>
      <trkpt lat="46.338254660367966" lon="11.800527172163129">
        <ele>2044.8599999999999</ele>
        <time>2017-07-02T12:54:11Z</time>
      </trkpt>
      <trkpt lat="46.338190454989672" lon="11.800654325634241">
        <ele>2044.8599999999999</ele>
        <time>2017-07-02T12:54:22Z</time>
      </trkpt>
      <trkpt lat="46.338141839951277" lon="11.800710316747427">
        <ele>2044.8599999999999</ele>
        <time>2017-07-02T12:54:33Z</time>
      </trkpt>
      <trkpt lat="46.338118622079492" lon="11.800736719742417">
        <ele>2045.3399999999999</ele>
        <time>2017-07-02T12:54:46Z</time>
      </trkpt>
      <trkpt lat="46.33807654492557" lon="11.800732528790832">
        <ele>2045.3399999999999</ele>
        <time>2017-07-02T12:54:55Z</time>
      </trkpt>
      <trkpt lat="46.338035557419062" lon="11.800740156322718">
        <ele>2046.3</ele>
        <time>2017-07-02T12:55:03Z</time>
      </trkpt>
      <trkpt lat="46.337917456403375" lon="11.800803188234568">
        <ele>2047.26</ele>
        <time>2017-07-02T12:55:19Z</time>
      </trkpt>
      <trkpt lat="46.337866829708219" lon="11.800837805494666">
        <ele>2047.26</ele>
        <time>2017-07-02T12:55:33Z</time>
      </trkpt>
      <trkpt lat="46.337752332910895" lon="11.800916092470288">
        <ele>2047.75</ele>
        <time>2017-07-02T12:55:46Z</time>
      </trkpt>
      <trkpt lat="46.337735233828425" lon="11.800943333655596">
        <ele>2047.75</ele>
        <time>2017-07-02T12:55:49Z</time>
      </trkpt>
      <trkpt lat="46.337616462260485" lon="11.800987673923373">
        <ele>2048.23</ele>
        <time>2017-07-02T12:56:02Z</time>
      </trkpt>
      <trkpt lat="46.337509341537952" lon="11.801047855988145">
        <ele>2049.6700000000001</ele>
        <time>2017-07-02T12:56:15Z</time>
      </trkpt>
      <trkpt lat="46.337463157251477" lon="11.801096722483635">
        <ele>2050.1500000000001</ele>
        <time>2017-07-02T12:56:20Z</time>
      </trkpt>
      <trkpt lat="46.337354360148311" lon="11.8011883366853">
        <ele>2051.1100000000001</ele>
        <time>2017-07-02T12:56:33Z</time>
      </trkpt>
      <trkpt lat="46.337272468954325" lon="11.801284309476614">
        <ele>2051.5900000000001</ele>
        <time>2017-07-02T12:56:45Z</time>
      </trkpt>
      <trkpt lat="46.337193008512259" lon="11.80138673633337">
        <ele>2052.5500000000002</ele>
        <time>2017-07-02T12:56:57Z</time>
      </trkpt>
      <trkpt lat="46.337102986872196" lon="11.801442559808493">
        <ele>2054.4699999999998</ele>
        <time>2017-07-02T12:57:09Z</time>
      </trkpt>
      <trkpt lat="46.337011875584722" lon="11.801456389948726">
        <ele>2054.96</ele>
        <time>2017-07-02T12:57:22Z</time>
      </trkpt>
      <trkpt lat="46.336935181170702" lon="11.801462341099977">
        <ele>2056.4000000000001</ele>
        <time>2017-07-02T12:57:31Z</time>
      </trkpt>
      <trkpt lat="46.336864437907934" lon="11.801447086036205">
        <ele>2058.3200000000002</ele>
        <time>2017-07-02T12:57:42Z</time>
      </trkpt>
      <trkpt lat="46.336792018264532" lon="11.801396710798144">
        <ele>2060.7199999999998</ele>
        <time>2017-07-02T12:57:55Z</time>
      </trkpt>
      <trkpt lat="46.336707780137658" lon="11.801366787403822">
        <ele>2062.1700000000001</ele>
        <time>2017-07-02T12:58:08Z</time>
      </trkpt>
      <trkpt lat="46.336660590022802" lon="11.801340552046895">
        <ele>2064.5700000000002</ele>
        <time>2017-07-02T12:58:18Z</time>
      </trkpt>
      <trkpt lat="46.336615327745676" lon="11.801309119910002">
        <ele>2066.0100000000002</ele>
        <time>2017-07-02T12:58:29Z</time>
      </trkpt>
      <trkpt lat="46.336563192307949" lon="11.801289925351739">
        <ele>2069.3800000000001</ele>
        <time>2017-07-02T12:58:42Z</time>
      </trkpt>
      <trkpt lat="46.336522959172726" lon="11.8012626003474">
        <ele>2070.3400000000001</ele>
        <time>2017-07-02T12:58:57Z</time>
      </trkpt>
      <trkpt lat="46.336499573662877" lon="11.801285818219185">
        <ele>2074.1799999999998</ele>
        <time>2017-07-02T12:59:09Z</time>
      </trkpt>
      <trkpt lat="46.336487168446183" lon="11.801392771303654">
        <ele>2073.6999999999998</ele>
        <time>2017-07-02T12:59:22Z</time>
      </trkpt>
      <trkpt lat="46.336463866755366" lon="11.801421940326691">
        <ele>2077.0700000000002</ele>
        <time>2017-07-02T12:59:32Z</time>
      </trkpt>
      <trkpt lat="46.336377616971731" lon="11.801379611715674">
        <ele>2078.5100000000002</ele>
        <time>2017-07-02T12:59:47Z</time>
      </trkpt>
      <trkpt lat="46.336353393271565" lon="11.801451779901981">
        <ele>2080.4299999999998</ele>
        <time>2017-07-02T13:00:00Z</time>
      </trkpt>
      <trkpt lat="46.336321625858545" lon="11.801525959745049">
        <ele>2081.3899999999999</ele>
        <time>2017-07-02T13:00:13Z</time>
      </trkpt>
      <trkpt lat="46.336342412978411" lon="11.801581364125013">
        <ele>2083.3099999999999</ele>
        <time>2017-07-02T13:00:25Z</time>
      </trkpt>
      <trkpt lat="46.336376024410129" lon="11.80170533247292">
        <ele>2085.2399999999998</ele>
        <time>2017-07-02T13:00:39Z</time>
      </trkpt>
      <trkpt lat="46.336362613365054" lon="11.801706338301301">
        <ele>2086.1999999999998</ele>
        <time>2017-07-02T13:00:51Z</time>
      </trkpt>
      <trkpt lat="46.33635263890028" lon="11.80173123255372">
        <ele>2086.1999999999998</ele>
        <time>2017-07-02T13:01:02Z</time>
      </trkpt>
      <trkpt lat="46.336311902850866" lon="11.801731651648879">
        <ele>2086.6799999999998</ele>
        <time>2017-07-02T13:01:14Z</time>
      </trkpt>
      <trkpt lat="46.336250212043524" lon="11.801723437383771">
        <ele>2089.0799999999999</ele>
        <time>2017-07-02T13:01:26Z</time>
      </trkpt>
      <trkpt lat="46.336241913959384" lon="11.801763251423836">
        <ele>2090.04</ele>
        <time>2017-07-02T13:01:39Z</time>
      </trkpt>
      <trkpt lat="46.336240405216813" lon="11.801821505650878">
        <ele>2091.9699999999998</ele>
        <time>2017-07-02T13:01:51Z</time>
      </trkpt>
      <trkpt lat="46.336203441023827" lon="11.801844220608473">
        <ele>2094.8499999999999</ele>
        <time>2017-07-02T13:02:01Z</time>
      </trkpt>
      <trkpt lat="46.336132865399122" lon="11.80183676071465">
        <ele>2096.29</ele>
        <time>2017-07-02T13:02:17Z</time>
      </trkpt>
      <trkpt lat="46.336063630878925" lon="11.801802981644869">
        <ele>2098.21</ele>
        <time>2017-07-02T13:02:33Z</time>
      </trkpt>
      <trkpt lat="46.33602331392467" lon="11.801774399355054">
        <ele>2099.1799999999998</ele>
        <time>2017-07-02T13:02:47Z</time>
      </trkpt>
      <trkpt lat="46.335952151566744" lon="11.801764508709311">
        <ele>2100.6199999999999</ele>
        <time>2017-07-02T13:03:00Z</time>
      </trkpt>
      <trkpt lat="46.335896076634526" lon="11.801795605570078">
        <ele>2104.46</ele>
        <time>2017-07-02T13:03:12Z</time>
      </trkpt>
      <trkpt lat="46.335820388048887" lon="11.801796359941363">
        <ele>2104.46</ele>
        <time>2017-07-02T13:03:27Z</time>
      </trkpt>
      <trkpt lat="46.335766157135367" lon="11.801820164546371">
        <ele>2107.8299999999999</ele>
        <time>2017-07-02T13:03:40Z</time>
      </trkpt>
      <trkpt lat="46.335796499624848" lon="11.801902642473578">
        <ele>2109.75</ele>
        <time>2017-07-02T13:03:51Z</time>
      </trkpt>
      <trkpt lat="46.335782082751393" lon="11.801971709355712">
        <ele>2111.1900000000001</ele>
        <time>2017-07-02T13:04:02Z</time>
      </trkpt>
      <trkpt lat="46.335761295631528" lon="11.802065586671233">
        <ele>2112.6300000000001</ele>
        <time>2017-07-02T13:04:14Z</time>
      </trkpt>
      <trkpt lat="46.335735227912664" lon="11.802157871425152">
        <ele>2113.5999999999999</ele>
        <time>2017-07-02T13:04:24Z</time>
      </trkpt>
      <trkpt lat="46.335739670321345" lon="11.802206821739674">
        <ele>2114.0799999999999</ele>
        <time>2017-07-02T13:04:32Z</time>
      </trkpt>
      <trkpt lat="46.335735311731696" lon="11.802236493676901">
        <ele>2114.0799999999999</ele>
        <time>2017-07-02T13:04:35Z</time>
      </trkpt>
      <trkpt lat="46.335719972848892" lon="11.802296256646514">
        <ele>2114.5599999999999</ele>
        <time>2017-07-02T13:04:40Z</time>
      </trkpt>
      <trkpt lat="46.335713183507323" lon="11.802402874454856">
        <ele>2114.0799999999999</ele>
        <time>2017-07-02T13:04:46Z</time>
      </trkpt>
      <trkpt lat="46.335690803825855" lon="11.802486442029476">
        <ele>2113.1199999999999</ele>
        <time>2017-07-02T13:04:52Z</time>
      </trkpt>
      <trkpt lat="46.335685523226857" lon="11.802671095356345">
        <ele>2112.1500000000001</ele>
        <time>2017-07-02T13:05:04Z</time>
      </trkpt>
      <trkpt lat="46.335658449679613" lon="11.8028374761343">
        <ele>2110.71</ele>
        <time>2017-07-02T13:05:16Z</time>
      </trkpt>
      <trkpt lat="46.335657527670264" lon="11.802935041487217">
        <ele>2109.75</ele>
        <time>2017-07-02T13:05:27Z</time>
      </trkpt>
      <trkpt lat="46.335674207657576" lon="11.802940238267183">
        <ele>2109.75</ele>
        <time>2017-07-02T13:05:46Z</time>
      </trkpt>
      <trkpt lat="46.335678985342383" lon="11.802958846092224">
        <ele>2109.75</ele>
        <time>2017-07-02T13:06:01Z</time>
      </trkpt>
      <trkpt lat="46.335651827976108" lon="11.803016345947981">
        <ele>2109.27</ele>
        <time>2017-07-02T13:06:11Z</time>
      </trkpt>
      <trkpt lat="46.335643781349063" lon="11.803091699257493">
        <ele>2108.79</ele>
        <time>2017-07-02T13:06:20Z</time>
      </trkpt>
      <trkpt lat="46.335637411102653" lon="11.803105194121599">
        <ele>2108.79</ele>
        <time>2017-07-02T13:06:23Z</time>
      </trkpt>
      <trkpt lat="46.335573038086295" lon="11.803218517452478">
        <ele>2109.27</ele>
        <time>2017-07-02T13:06:34Z</time>
      </trkpt>
      <trkpt lat="46.335569517686963" lon="11.803244166076183">
        <ele>2109.27</ele>
        <time>2017-07-02T13:06:36Z</time>
      </trkpt>
      <trkpt lat="46.335570691153407" lon="11.803279621526599">
        <ele>2109.27</ele>
        <time>2017-07-02T13:06:39Z</time>
      </trkpt>
      <trkpt lat="46.335575133562088" lon="11.803283728659153">
        <ele>2108.3099999999999</ele>
        <time>2017-07-02T13:06:50Z</time>
      </trkpt>
      <trkpt lat="46.335567338392138" lon="11.80328113026917">
        <ele>2109.27</ele>
        <time>2017-07-02T13:06:59Z</time>
      </trkpt>
      <trkpt lat="46.335512520745397" lon="11.803379785269499">
        <ele>2109.75</ele>
        <time>2017-07-02T13:07:07Z</time>
      </trkpt>
      <trkpt lat="46.33552048355341" lon="11.803433513268828">
        <ele>2110.23</ele>
        <time>2017-07-02T13:07:11Z</time>
      </trkpt>
      <trkpt lat="46.335475388914347" lon="11.803543567657471">
        <ele>2110.23</ele>
        <time>2017-07-02T13:07:20Z</time>
      </trkpt>
      <trkpt lat="46.33543741889298" lon="11.803661501035094">
        <ele>2110.23</ele>
        <time>2017-07-02T13:07:29Z</time>
      </trkpt>
      <trkpt lat="46.335365418344736" lon="11.803739285096526">
        <ele>2112.1500000000001</ele>
        <time>2017-07-02T13:07:40Z</time>
      </trkpt>
      <trkpt lat="46.335309175774455" lon="11.803832156583667">
        <ele>2113.5999999999999</ele>
        <time>2017-07-02T13:07:51Z</time>
      </trkpt>
      <trkpt lat="46.33522879332304" lon="11.803968278691173">
        <ele>2114.0799999999999</ele>
        <time>2017-07-02T13:08:04Z</time>
      </trkpt>
      <trkpt lat="46.335151428356767" lon="11.804087720811367">
        <ele>2114.5599999999999</ele>
        <time>2017-07-02T13:08:15Z</time>
      </trkpt>
      <trkpt lat="46.335098538547754" lon="11.80419685319066">
        <ele>2114.5599999999999</ele>
        <time>2017-07-02T13:08:25Z</time>
      </trkpt>
      <trkpt lat="46.335056209936738" lon="11.804312858730555">
        <ele>2114.0799999999999</ele>
        <time>2017-07-02T13:08:36Z</time>
      </trkpt>
      <trkpt lat="46.335055707022548" lon="11.804320402443409">
        <ele>2114.0799999999999</ele>
        <time>2017-07-02T13:08:37Z</time>
      </trkpt>
      <trkpt lat="46.335015976801515" lon="11.804420901462436">
        <ele>2112.6300000000001</ele>
        <time>2017-07-02T13:08:45Z</time>
      </trkpt>
      <trkpt lat="46.334972810000181" lon="11.804587030783296">
        <ele>2110.71</ele>
        <time>2017-07-02T13:08:57Z</time>
      </trkpt>
      <trkpt lat="46.33493852801621" lon="11.804724913090467">
        <ele>2109.27</ele>
        <time>2017-07-02T13:09:07Z</time>
      </trkpt>
      <trkpt lat="46.33487842977047" lon="11.804772773757577">
        <ele>2111.6700000000001</ele>
        <time>2017-07-02T13:09:15Z</time>
      </trkpt>
      <trkpt lat="46.334838280454278" lon="11.804810576140881">
        <ele>2111.6700000000001</ele>
        <time>2017-07-02T13:09:20Z</time>
      </trkpt>
      <trkpt lat="46.334759658202529" lon="11.804876876994967">
        <ele>2113.1199999999999</ele>
        <time>2017-07-02T13:09:30Z</time>
      </trkpt>
      <trkpt lat="46.334683885797858" lon="11.804970586672425">
        <ele>2114.5599999999999</ele>
        <time>2017-07-02T13:09:42Z</time>
      </trkpt>
      <trkpt lat="46.334629403427243" lon="11.805027080699801">
        <ele>2115.52</ele>
        <time>2017-07-02T13:09:50Z</time>
      </trkpt>
      <trkpt lat="46.33455497212708" lon="11.805138392373919">
        <ele>2116</ele>
        <time>2017-07-02T13:10:02Z</time>
      </trkpt>
      <trkpt lat="46.334473080933094" lon="11.80524492636323">
        <ele>2117.4400000000001</ele>
        <time>2017-07-02T13:10:15Z</time>
      </trkpt>
      <trkpt lat="46.334404097869992" lon="11.805333942174911">
        <ele>2118.4000000000001</ele>
        <time>2017-07-02T13:10:26Z</time>
      </trkpt>
      <trkpt lat="46.334351291880012" lon="11.805412312969565">
        <ele>2118.8800000000001</ele>
        <time>2017-07-02T13:10:36Z</time>
      </trkpt>
      <trkpt lat="46.334312399849296" lon="11.805448438972235">
        <ele>2119.8400000000001</ele>
        <time>2017-07-02T13:10:42Z</time>
      </trkpt>
      <trkpt lat="46.334294881671667" lon="11.8054692260921">
        <ele>2121.29</ele>
        <time>2017-07-02T13:10:46Z</time>
      </trkpt>
      <trkpt lat="46.334258588030934" lon="11.805543741211295">
        <ele>2122.25</ele>
        <time>2017-07-02T13:10:55Z</time>
      </trkpt>
      <trkpt lat="46.334255905821919" lon="11.805557822808623">
        <ele>2122.25</ele>
        <time>2017-07-02T13:10:56Z</time>
      </trkpt>
      <trkpt lat="46.334219696000218" lon="11.805665111169219">
        <ele>2123.21</ele>
        <time>2017-07-02T13:11:06Z</time>
      </trkpt>
      <trkpt lat="46.334180552512407" lon="11.805774411186576">
        <ele>2125.6100000000001</ele>
        <time>2017-07-02T13:11:16Z</time>
      </trkpt>
      <trkpt lat="46.334139816462994" lon="11.805848339572549">
        <ele>2124.1700000000001</ele>
        <time>2017-07-02T13:11:22Z</time>
      </trkpt>
      <trkpt lat="46.3341274112463" lon="11.805869210511446">
        <ele>2124.1700000000001</ele>
        <time>2017-07-02T13:11:24Z</time>
      </trkpt>
      <trkpt lat="46.334051303565502" lon="11.805962836369872">
        <ele>2125.6100000000001</ele>
        <time>2017-07-02T13:11:36Z</time>
      </trkpt>
      <trkpt lat="46.333967400714755" lon="11.806018408387899">
        <ele>2127.5300000000002</ele>
        <time>2017-07-02T13:11:48Z</time>
      </trkpt>
      <trkpt lat="46.333917276933789" lon="11.806062078103423">
        <ele>2128.98</ele>
        <time>2017-07-02T13:12:00Z</time>
      </trkpt>
      <trkpt lat="46.333865812048316" lon="11.806184621527791">
        <ele>2130.9000000000001</ele>
        <time>2017-07-02T13:12:14Z</time>
      </trkpt>
      <trkpt lat="46.333805210888386" lon="11.806270452216268">
        <ele>2132.3400000000001</ele>
        <time>2017-07-02T13:12:27Z</time>
      </trkpt>
      <trkpt lat="46.333774952217937" lon="11.806306662037969">
        <ele>2134.2600000000002</ele>
        <time>2017-07-02T13:12:38Z</time>
      </trkpt>
      <trkpt lat="46.33375165052712" lon="11.806360138580203">
        <ele>2135.23</ele>
        <time>2017-07-02T13:12:48Z</time>
      </trkpt>
      <trkpt lat="46.333761541172862" lon="11.806370867416263">
        <ele>2134.7399999999998</ele>
        <time>2017-07-02T13:12:57Z</time>
      </trkpt>
      <trkpt lat="46.333733377978206" lon="11.806356282904744">
        <ele>2134.7399999999998</ele>
        <time>2017-07-02T13:13:21Z</time>
      </trkpt>
      <trkpt lat="46.33372432552278" lon="11.806366173550487">
        <ele>2135.23</ele>
        <time>2017-07-02T13:13:29Z</time>
      </trkpt>
      <trkpt lat="46.333727007731795" lon="11.806374052539468">
        <ele>2135.71</ele>
        <time>2017-07-02T13:13:39Z</time>
      </trkpt>
      <trkpt lat="46.333743436262012" lon="11.806395761668682">
        <ele>2135.71</ele>
        <time>2017-07-02T13:13:48Z</time>
      </trkpt>
      <trkpt lat="46.333699095994234" lon="11.806474300101399">
        <ele>2136.6700000000001</ele>
        <time>2017-07-02T13:13:56Z</time>
      </trkpt>
      <trkpt lat="46.333693396300077" lon="11.80649483576417">
        <ele>2136.6700000000001</ele>
        <time>2017-07-02T13:13:58Z</time>
      </trkpt>
      <trkpt lat="46.333695407956839" lon="11.806507492437959">
        <ele>2136.6700000000001</ele>
        <time>2017-07-02T13:13:59Z</time>
      </trkpt>
      <trkpt lat="46.333644362166524" lon="11.806615786626935">
        <ele>2137.6300000000001</ele>
        <time>2017-07-02T13:14:11Z</time>
      </trkpt>
      <trkpt lat="46.333620306104422" lon="11.806666664779186">
        <ele>2139.5500000000002</ele>
        <time>2017-07-02T13:14:17Z</time>
      </trkpt>
      <trkpt lat="46.333561046048999" lon="11.806750735267997">
        <ele>2140.0300000000002</ele>
        <time>2017-07-02T13:14:26Z</time>
      </trkpt>
      <trkpt lat="46.333505557850003" lon="11.806825837120414">
        <ele>2140.9899999999998</ele>
        <time>2017-07-02T13:14:36Z</time>
      </trkpt>
      <trkpt lat="46.333492314442992" lon="11.80687939748168">
        <ele>2141.9499999999998</ele>
        <time>2017-07-02T13:14:41Z</time>
      </trkpt>
      <trkpt lat="46.333424253389239" lon="11.807018537074327">
        <ele>2142.4400000000001</ele>
        <time>2017-07-02T13:14:53Z</time>
      </trkpt>
      <trkpt lat="46.333355940878391" lon="11.807088945060968">
        <ele>2144.3600000000001</ele>
        <time>2017-07-02T13:15:04Z</time>
      </trkpt>
      <trkpt lat="46.33331143297255" lon="11.807180559262633">
        <ele>2146.2800000000002</ele>
        <time>2017-07-02T13:15:17Z</time>
      </trkpt>
      <trkpt lat="46.333287796005607" lon="11.807269407436252">
        <ele>2147.7199999999998</ele>
        <time>2017-07-02T13:15:27Z</time>
      </trkpt>
      <trkpt lat="46.333219148218632" lon="11.807356327772141">
        <ele>2149.6500000000001</ele>
        <time>2017-07-02T13:15:42Z</time>
      </trkpt>
      <trkpt lat="46.333167431876063" lon="11.807441990822554">
        <ele>2152.0500000000002</ele>
        <time>2017-07-02T13:15:58Z</time>
      </trkpt>
      <trkpt lat="46.333111105486751" lon="11.807524552568793">
        <ele>2154.4499999999998</ele>
        <time>2017-07-02T13:16:13Z</time>
      </trkpt>
      <trkpt lat="46.333033740520477" lon="11.807622034102678">
        <ele>2156.8600000000001</ele>
        <time>2017-07-02T13:16:29Z</time>
      </trkpt>
      <trkpt lat="46.332954782992601" lon="11.807652963325381">
        <ele>2159.7399999999998</ele>
        <time>2017-07-02T13:16:45Z</time>
      </trkpt>
      <trkpt lat="46.332976240664721" lon="11.807543411850929">
        <ele>2162.1399999999999</ele>
        <time>2017-07-02T13:17:01Z</time>
      </trkpt>
      <trkpt lat="46.332980683073401" lon="11.807361440733075">
        <ele>2164.0599999999999</ele>
        <time>2017-07-02T13:17:21Z</time>
      </trkpt>
      <trkpt lat="46.333004822954535" lon="11.807237723842263">
        <ele>2166.9499999999998</ele>
        <time>2017-07-02T13:17:38Z</time>
      </trkpt>
      <trkpt lat="46.333042709156871" lon="11.807088693603873">
        <ele>2170.3099999999999</ele>
        <time>2017-07-02T13:17:57Z</time>
      </trkpt>
      <trkpt lat="46.333009684458375" lon="11.806921558454633">
        <ele>2172.7199999999998</ele>
        <time>2017-07-02T13:18:18Z</time>
      </trkpt>
      <trkpt lat="46.332976240664721" lon="11.806846624240279">
        <ele>2175.5999999999999</ele>
        <time>2017-07-02T13:18:32Z</time>
      </trkpt>
      <trkpt lat="46.332963332533836" lon="11.806959863752127">
        <ele>2177.52</ele>
        <time>2017-07-02T13:18:50Z</time>
      </trkpt>
      <trkpt lat="46.332880351692438" lon="11.807054243981838">
        <ele>2180.8899999999999</ele>
        <time>2017-07-02T13:19:08Z</time>
      </trkpt>
      <trkpt lat="46.332831904292107" lon="11.807138230651617">
        <ele>2183.29</ele>
        <time>2017-07-02T13:19:26Z</time>
      </trkpt>
      <trkpt lat="46.332729645073414" lon="11.80717553012073">
        <ele>2186.1799999999998</ele>
        <time>2017-07-02T13:19:44Z</time>
      </trkpt>
      <trkpt lat="46.332626128569245" lon="11.807204112410545">
        <ele>2189.0599999999999</ele>
        <time>2017-07-02T13:20:02Z</time>
      </trkpt>
      <trkpt lat="46.332629900425673" lon="11.807118449360132">
        <ele>2190.5</ele>
        <time>2017-07-02T13:20:15Z</time>
      </trkpt>
      <trkpt lat="46.33261950686574" lon="11.807132866233587">
        <ele>2192.9000000000001</ele>
        <time>2017-07-02T13:20:33Z</time>
      </trkpt>
      <trkpt lat="46.332536609843373" lon="11.807254487648606">
        <ele>2195.79</ele>
        <time>2017-07-02T13:20:54Z</time>
      </trkpt>
      <trkpt lat="46.332520097494125" lon="11.807262618094683">
        <ele>2197.71</ele>
        <time>2017-07-02T13:21:12Z</time>
      </trkpt>
      <trkpt lat="46.332484893500805" lon="11.807181145995855">
        <ele>2200.1100000000001</ele>
        <time>2017-07-02T13:21:29Z</time>
      </trkpt>
      <trkpt lat="46.332485899329185" lon="11.807136554270983">
        <ele>2202.04</ele>
        <time>2017-07-02T13:21:43Z</time>
      </trkpt>
      <trkpt lat="46.332534849643707" lon="11.807278376072645">
        <ele>2202.04</ele>
        <time>2017-07-02T13:21:57Z</time>
      </trkpt>
      <trkpt lat="46.332575753331184" lon="11.807389771565795">
        <ele>2203.48</ele>
        <time>2017-07-02T13:22:08Z</time>
      </trkpt>
      <trkpt lat="46.332568628713489" lon="11.807446768507361">
        <ele>2204.9200000000001</ele>
        <time>2017-07-02T13:22:15Z</time>
      </trkpt>
      <trkpt lat="46.332564940676093" lon="11.807507872581482">
        <ele>2206.3600000000001</ele>
        <time>2017-07-02T13:22:25Z</time>
      </trkpt>
      <trkpt lat="46.332546751946211" lon="11.807499071583152">
        <ele>2206.8400000000001</ele>
        <time>2017-07-02T13:22:36Z</time>
      </trkpt>
      <trkpt lat="46.332530826330185" lon="11.80738759227097">
        <ele>2209.25</ele>
        <time>2017-07-02T13:22:48Z</time>
      </trkpt>
      <trkpt lat="46.3325110450387" lon="11.807354567572474">
        <ele>2210.6900000000001</ele>
        <time>2017-07-02T13:22:54Z</time>
      </trkpt>
      <trkpt lat="46.332473577931523" lon="11.8073377199471">
        <ele>2212.6100000000001</ele>
        <time>2017-07-02T13:23:03Z</time>
      </trkpt>
      <trkpt lat="46.332449773326516" lon="11.807394130155444">
        <ele>2214.5300000000002</ele>
        <time>2017-07-02T13:23:13Z</time>
      </trkpt>
      <trkpt lat="46.332440134137869" lon="11.80739589035511">
        <ele>2214.5300000000002</ele>
        <time>2017-07-02T13:23:26Z</time>
      </trkpt>
      <trkpt lat="46.332414401695132" lon="11.807428915053606">
        <ele>2215.0100000000002</ele>
        <time>2017-07-02T13:23:38Z</time>
      </trkpt>
      <trkpt lat="46.332304682582617" lon="11.807454312220216">
        <ele>2216.46</ele>
        <time>2017-07-02T13:23:49Z</time>
      </trkpt>
      <trkpt lat="46.332284063100815" lon="11.80745548568666">
        <ele>2216.46</ele>
        <time>2017-07-02T13:23:51Z</time>
      </trkpt>
      <trkpt lat="46.332180295139551" lon="11.807449366897345">
        <ele>2216.9400000000001</ele>
        <time>2017-07-02T13:24:03Z</time>
      </trkpt>
      <trkpt lat="46.33210158906877" lon="11.8074413202703">
        <ele>2217.9000000000001</ele>
        <time>2017-07-02T13:24:13Z</time>
      </trkpt>
      <trkpt lat="46.332111228257418" lon="11.807464035227895">
        <ele>2218.3800000000001</ele>
        <time>2017-07-02T13:24:28Z</time>
      </trkpt>
      <trkpt lat="46.332113323733211" lon="11.807475183159113">
        <ele>2218.3800000000001</ele>
        <time>2017-07-02T13:24:37Z</time>
      </trkpt>
      <trkpt lat="46.332133021205664" lon="11.807481134310365">
        <ele>2218.3800000000001</ele>
        <time>2017-07-02T13:24:50Z</time>
      </trkpt>
      <trkpt lat="46.33210301399231" lon="11.80747308768332">
        <ele>2218.8600000000001</ele>
        <time>2017-07-02T13:25:05Z</time>
      </trkpt>
      <trkpt lat="46.332135116681457" lon="11.807487504556775">
        <ele>2218.8600000000001</ele>
        <time>2017-07-02T13:25:15Z</time>
      </trkpt>
      <trkpt lat="46.332121370360255" lon="11.807486079633236">
        <ele>2217.9000000000001</ele>
        <time>2017-07-02T13:25:27Z</time>
      </trkpt>
      <trkpt lat="46.332104774191976" lon="11.807494964450598">
        <ele>2217.9000000000001</ele>
        <time>2017-07-02T13:25:38Z</time>
      </trkpt>
      <trkpt lat="46.332119526341558" lon="11.807515332475305">
        <ele>2217.9000000000001</ele>
        <time>2017-07-02T13:25:58Z</time>
      </trkpt>
      <trkpt lat="46.332105025649071" lon="11.807504687458277">
        <ele>2217.9000000000001</ele>
        <time>2017-07-02T13:26:24Z</time>
      </trkpt>
      <trkpt lat="46.332101002335548" lon="11.807505274191499">
        <ele>2217.9000000000001</ele>
        <time>2017-07-02T13:26:46Z</time>
      </trkpt>
      <trkpt lat="46.332111982628703" lon="11.807492952793837">
        <ele>2217.9000000000001</ele>
        <time>2017-07-02T13:27:17Z</time>
      </trkpt>
      <trkpt lat="46.332101002335548" lon="11.807486079633236">
        <ele>2217.9000000000001</ele>
        <time>2017-07-02T13:27:51Z</time>
      </trkpt>
      <trkpt lat="46.332107791677117" lon="11.807484906166792">
        <ele>2217.9000000000001</ele>
        <time>2017-07-02T13:28:15Z</time>
      </trkpt>
      <trkpt lat="46.332103349268436" lon="11.807498065754771">
        <ele>2217.9000000000001</ele>
        <time>2017-07-02T13:28:46Z</time>
      </trkpt>
      <trkpt lat="46.332099493592978" lon="11.807495132088661">
        <ele>2217.9000000000001</ele>
        <time>2017-07-02T13:29:22Z</time>
      </trkpt>
      <trkpt lat="46.332100750878453" lon="11.807499909773469">
        <ele>2217.9000000000001</ele>
        <time>2017-07-02T13:29:54Z</time>
      </trkpt>
      <trkpt lat="46.332115083932877" lon="11.807486163452268">
        <ele>2218.8600000000001</ele>
        <time>2017-07-02T13:30:15Z</time>
      </trkpt>
      <trkpt lat="46.332124136388302" lon="11.807493958622217">
        <ele>2219.3400000000001</ele>
        <time>2017-07-02T13:30:24Z</time>
      </trkpt>
      <trkpt lat="46.332126399502158" lon="11.807494210079312">
        <ele>2219.3400000000001</ele>
        <time>2017-07-02T13:30:37Z</time>
      </trkpt>
      <trkpt lat="46.332129668444395" lon="11.80748431943357">
        <ele>2219.3400000000001</ele>
        <time>2017-07-02T13:30:50Z</time>
      </trkpt>
      <trkpt lat="46.332135954871774" lon="11.807483900338411">
        <ele>2219.3400000000001</ele>
        <time>2017-07-02T13:31:12Z</time>
      </trkpt>
      <trkpt lat="46.332128997892141" lon="11.807492030784488">
        <ele>2219.3400000000001</ele>
        <time>2017-07-02T13:31:21Z</time>
      </trkpt>
      <trkpt lat="46.332108629867435" lon="11.807462107390165">
        <ele>2219.3400000000001</ele>
        <time>2017-07-02T13:31:30Z</time>
      </trkpt>
      <trkpt lat="46.332166129723191" lon="11.807426903396845">
        <ele>2218.3800000000001</ele>
        <time>2017-07-02T13:31:39Z</time>
      </trkpt>
      <trkpt lat="46.33213872089982" lon="11.807459760457277">
        <ele>2218.3800000000001</ele>
        <time>2017-07-02T13:31:50Z</time>
      </trkpt>
      <trkpt lat="46.332088429480791" lon="11.807499323040247">
        <ele>2218.3800000000001</ele>
        <time>2017-07-02T13:32:01Z</time>
      </trkpt>
      <trkpt lat="46.332083651795983" lon="11.807500161230564">
        <ele>2219.3400000000001</ele>
        <time>2017-07-02T13:32:33Z</time>
      </trkpt>
      <trkpt lat="46.332069570198655" lon="11.807528072968125">
        <ele>2220.3000000000002</ele>
        <time>2017-07-02T13:32:42Z</time>
      </trkpt>
      <trkpt lat="46.332087256014347" lon="11.807484989985824">
        <ele>2219.3400000000001</ele>
        <time>2017-07-02T13:32:54Z</time>
      </trkpt>
      <trkpt lat="46.332081388682127" lon="11.807540226727724">
        <ele>2219.3400000000001</ele>
        <time>2017-07-02T13:33:04Z</time>
      </trkpt>
      <trkpt lat="46.332082897424698" lon="11.807545088231564">
        <ele>2219.8200000000002</ele>
        <time>2017-07-02T13:33:11Z</time>
      </trkpt>
      <trkpt lat="46.33207862265408" lon="11.807530168443918">
        <ele>2220.3000000000002</ele>
        <time>2017-07-02T13:33:24Z</time>
      </trkpt>
      <trkpt lat="46.33207225240767" lon="11.807545758783817">
        <ele>2220.3000000000002</ele>
        <time>2017-07-02T13:33:48Z</time>
      </trkpt>
      <trkpt lat="46.332072420045733" lon="11.807542573660612">
        <ele>2220.3000000000002</ele>
        <time>2017-07-02T13:34:10Z</time>
      </trkpt>
      <trkpt lat="46.332065295428038" lon="11.807567803189158">
        <ele>2220.7800000000002</ele>
        <time>2017-07-02T13:34:22Z</time>
      </trkpt>
      <trkpt lat="46.332061607390642" lon="11.807571072131395">
        <ele>2220.7800000000002</ele>
        <time>2017-07-02T13:34:38Z</time>
      </trkpt>
      <trkpt lat="46.332067558541894" lon="11.80757911875844">
        <ele>2220.7800000000002</ele>
        <time>2017-07-02T13:34:49Z</time>
      </trkpt>
      <trkpt lat="46.332054901868105" lon="11.807675929740071">
        <ele>2222.2199999999998</ele>
        <time>2017-07-02T13:35:02Z</time>
      </trkpt>
      <trkpt lat="46.332075521349907" lon="11.807796964421868">
        <ele>2224.6300000000001</ele>
        <time>2017-07-02T13:35:16Z</time>
      </trkpt>
      <trkpt lat="46.332090022042394" lon="11.807844154536724">
        <ele>2225.5900000000001</ele>
        <time>2017-07-02T13:35:23Z</time>
      </trkpt>
      <trkpt lat="46.332082478329539" lon="11.80796317756176">
        <ele>2227.5100000000002</ele>
        <time>2017-07-02T13:35:36Z</time>
      </trkpt>
      <trkpt lat="46.332084825262427" lon="11.808060659095645">
        <ele>2227.9899999999998</ele>
        <time>2017-07-02T13:35:46Z</time>
      </trkpt>
      <trkpt lat="46.332091363146901" lon="11.808188650757074">
        <ele>2229.4299999999998</ele>
        <time>2017-07-02T13:36:00Z</time>
      </trkpt>
      <trkpt lat="46.33210988715291" lon="11.808362239971757">
        <ele>2230.8800000000001</ele>
        <time>2017-07-02T13:36:16Z</time>
      </trkpt>
      <trkpt lat="46.332122376188636" lon="11.808481933549047">
        <ele>2231.8400000000001</ele>
        <time>2017-07-02T13:36:26Z</time>
      </trkpt>
      <trkpt lat="46.332111479714513" lon="11.808606823906302">
        <ele>2232.8000000000002</ele>
        <time>2017-07-02T13:36:37Z</time>
      </trkpt>
      <trkpt lat="46.332102511078119" lon="11.808652421459556">
        <ele>2233.2800000000002</ele>
        <time>2017-07-02T13:36:41Z</time>
      </trkpt>
      <trkpt lat="46.332081723958254" lon="11.808760464191437">
        <ele>2233.7600000000002</ele>
        <time>2017-07-02T13:36:52Z</time>
      </trkpt>
      <trkpt lat="46.332094129174948" lon="11.808796087279916">
        <ele>2234.2399999999998</ele>
        <time>2017-07-02T13:37:01Z</time>
      </trkpt>
      <trkpt lat="46.332087088376284" lon="11.808788292109966">
        <ele>2234.2399999999998</ele>
        <time>2017-07-02T13:37:18Z</time>
      </trkpt>
      <trkpt lat="46.332065965980291" lon="11.808884683996439">
        <ele>2235.6799999999998</ele>
        <time>2017-07-02T13:37:32Z</time>
      </trkpt>
      <trkpt lat="46.33202682249248" lon="11.80899909697473">
        <ele>2238.0900000000001</ele>
        <time>2017-07-02T13:37:47Z</time>
      </trkpt>
      <trkpt lat="46.332004023715854" lon="11.809096913784742">
        <ele>2240.0100000000002</ele>
        <time>2017-07-02T13:38:01Z</time>
      </trkpt>
      <trkpt lat="46.331959934905171" lon="11.809177463874221">
        <ele>2242.4099999999999</ele>
        <time>2017-07-02T13:38:16Z</time>
      </trkpt>
      <trkpt lat="46.331943422555923" lon="11.809258265420794">
        <ele>2244.8200000000002</ele>
        <time>2017-07-02T13:38:30Z</time>
      </trkpt>
      <trkpt lat="46.331898663192987" lon="11.80931568145752">
        <ele>2246.7399999999998</ele>
        <time>2017-07-02T13:38:43Z</time>
      </trkpt>
      <trkpt lat="46.331877373158932" lon="11.809397824108601">
        <ele>2248.6599999999999</ele>
        <time>2017-07-02T13:38:57Z</time>
      </trkpt>
      <trkpt lat="46.331858513876796" lon="11.809487761929631">
        <ele>2251.54</ele>
        <time>2017-07-02T13:39:13Z</time>
      </trkpt>
      <trkpt lat="46.331824902445078" lon="11.809581639245152">
        <ele>2253.9499999999998</ele>
        <time>2017-07-02T13:39:27Z</time>
      </trkpt>
      <trkpt lat="46.33181082084775" lon="11.809650454670191">
        <ele>2255.8699999999999</ele>
        <time>2017-07-02T13:39:38Z</time>
      </trkpt>
      <trkpt lat="46.331798667088151" lon="11.809732178226113">
        <ele>2257.79</ele>
        <time>2017-07-02T13:39:52Z</time>
      </trkpt>
      <trkpt lat="46.331774108111858" lon="11.809814404696226">
        <ele>2259.7199999999998</ele>
        <time>2017-07-02T13:40:06Z</time>
      </trkpt>
      <trkpt lat="46.331777460873127" lon="11.8098761793226">
        <ele>2262.1199999999999</ele>
        <time>2017-07-02T13:40:17Z</time>
      </trkpt>
      <trkpt lat="46.331822890788317" lon="11.809881459921598">
        <ele>2264.52</ele>
        <time>2017-07-02T13:40:30Z</time>
      </trkpt>
      <trkpt lat="46.331847785040736" lon="11.809925716370344">
        <ele>2266.4499999999998</ele>
        <time>2017-07-02T13:40:41Z</time>
      </trkpt>
      <trkpt lat="46.33187142200768" lon="11.80998707190156">
        <ele>2268.8499999999999</ele>
        <time>2017-07-02T13:40:53Z</time>
      </trkpt>
      <trkpt lat="46.331825321540236" lon="11.810022778809071">
        <ele>2269.8099999999999</ele>
        <time>2017-07-02T13:41:03Z</time>
      </trkpt>
      <trkpt lat="46.331818280741572" lon="11.810026047751307">
        <ele>2270.77</ele>
        <time>2017-07-02T13:41:17Z</time>
      </trkpt>
      <trkpt lat="46.331796320155263" lon="11.810088325291872">
        <ele>2269.8099999999999</ele>
        <time>2017-07-02T13:41:27Z</time>
      </trkpt>
      <trkpt lat="46.331784501671791" lon="11.810103747993708">
        <ele>2269.8099999999999</ele>
        <time>2017-07-02T13:41:29Z</time>
      </trkpt>
      <trkpt lat="46.331710405647755" lon="11.810205588117242">
        <ele>2269.3299999999999</ele>
        <time>2017-07-02T13:41:40Z</time>
      </trkpt>
      <trkpt lat="46.331649217754602" lon="11.810255711898208">
        <ele>2268.8499999999999</ele>
        <time>2017-07-02T13:41:52Z</time>
      </trkpt>
      <trkpt lat="46.33163002319634" lon="11.810298291966319">
        <ele>2267.8899999999999</ele>
        <time>2017-07-02T13:42:03Z</time>
      </trkpt>
      <trkpt lat="46.331582916900516" lon="11.810393594205379">
        <ele>2267.8899999999999</ele>
        <time>2017-07-02T13:42:14Z</time>
      </trkpt>
      <trkpt lat="46.33157386444509" lon="11.810456961393356">
        <ele>2268.8499999999999</ele>
        <time>2017-07-02T13:42:20Z</time>
      </trkpt>
      <trkpt lat="46.33154452778399" lon="11.810604482889175">
        <ele>2268.8499999999999</ele>
        <time>2017-07-02T13:42:32Z</time>
      </trkpt>
      <trkpt lat="46.331510161980987" lon="11.810753010213375">
        <ele>2270.77</ele>
        <time>2017-07-02T13:42:45Z</time>
      </trkpt>
      <trkpt lat="46.331504043191671" lon="11.810783352702856">
        <ele>2271.25</ele>
        <time>2017-07-02T13:42:48Z</time>
      </trkpt>
      <trkpt lat="46.331463810056448" lon="11.810909584164619">
        <ele>2272.21</ele>
        <time>2017-07-02T13:43:00Z</time>
      </trkpt>
      <trkpt lat="46.331442771479487" lon="11.810937495902181">
        <ele>2271.73</ele>
        <time>2017-07-02T13:43:10Z</time>
      </trkpt>
      <trkpt lat="46.331438077613711" lon="11.810960546135902">
        <ele>2271.73</ele>
        <time>2017-07-02T13:43:12Z</time>
      </trkpt>
      <trkpt lat="46.331385942175984" lon="11.811129190027714">
        <ele>2273.1700000000001</ele>
        <time>2017-07-02T13:43:26Z</time>
      </trkpt>
      <trkpt lat="46.331341098994017" lon="11.811258438974619">
        <ele>2274.6199999999999</ele>
        <time>2017-07-02T13:43:40Z</time>
      </trkpt>
      <trkpt lat="46.331369932740927" lon="11.81137234903872">
        <ele>2276.54</ele>
        <time>2017-07-02T13:43:51Z</time>
      </trkpt>
      <trkpt lat="46.331367334350944" lon="11.811443762853742">
        <ele>2277.02</ele>
        <time>2017-07-02T13:43:57Z</time>
      </trkpt>
      <trkpt lat="46.331374542787671" lon="11.811599247157574">
        <ele>2277.98</ele>
        <time>2017-07-02T13:44:09Z</time>
      </trkpt>
      <trkpt lat="46.331341518089175" lon="11.811722796410322">
        <ele>2278.9400000000001</ele>
        <time>2017-07-02T13:44:20Z</time>
      </trkpt>
      <trkpt lat="46.331319557502866" lon="11.811840729787946">
        <ele>2280.8699999999999</ele>
        <time>2017-07-02T13:44:32Z</time>
      </trkpt>
      <trkpt lat="46.331334477290511" lon="11.811932260170579">
        <ele>2280.8699999999999</ele>
        <time>2017-07-02T13:44:43Z</time>
      </trkpt>
      <trkpt lat="46.331313941627741" lon="11.811939049512148">
        <ele>2280.3800000000001</ele>
        <time>2017-07-02T13:44:58Z</time>
      </trkpt>
      <trkpt lat="46.331294495612383" lon="11.811958327889442">
        <ele>2279.9000000000001</ele>
        <time>2017-07-02T13:45:02Z</time>
      </trkpt>
      <trkpt lat="46.331225596368313" lon="11.812093444168568">
        <ele>2280.8699999999999</ele>
        <time>2017-07-02T13:45:14Z</time>
      </trkpt>
      <trkpt lat="46.331173377111554" lon="11.812171814963222">
        <ele>2281.3499999999999</ele>
        <time>2017-07-02T13:45:22Z</time>
      </trkpt>
      <trkpt lat="46.331140855327249" lon="11.812343979254365">
        <ele>2281.8299999999999</ele>
        <time>2017-07-02T13:45:36Z</time>
      </trkpt>
      <trkpt lat="46.331110512837768" lon="11.812469456344843">
        <ele>2281.8299999999999</ele>
        <time>2017-07-02T13:45:46Z</time>
      </trkpt>
      <trkpt lat="46.331079499796033" lon="11.812569033354521">
        <ele>2282.3099999999999</ele>
        <time>2017-07-02T13:45:58Z</time>
      </trkpt>
      <trkpt lat="46.33105100132525" lon="11.812655534595251">
        <ele>2282.79</ele>
        <time>2017-07-02T13:46:05Z</time>
      </trkpt>
      <trkpt lat="46.331004397943616" lon="11.812723763287067">
        <ele>2282.3099999999999</ele>
        <time>2017-07-02T13:46:12Z</time>
      </trkpt>
      <trkpt lat="46.330953352153301" lon="11.812858376652002">
        <ele>2280.3800000000001</ele>
        <time>2017-07-02T13:46:24Z</time>
      </trkpt>
      <trkpt lat="46.330915717408061" lon="11.813021069392562">
        <ele>2278.9400000000001</ele>
        <time>2017-07-02T13:46:35Z</time>
      </trkpt>
      <trkpt lat="46.330894511193037" lon="11.813194826245308">
        <ele>2279.9000000000001</ele>
        <time>2017-07-02T13:46:48Z</time>
      </trkpt>
      <trkpt lat="46.330891912803054" lon="11.813197592273355">
        <ele>2280.3800000000001</ele>
        <time>2017-07-02T13:46:59Z</time>
      </trkpt>
      <trkpt lat="46.330887218937278" lon="11.813196251168847">
        <ele>2280.3800000000001</ele>
        <time>2017-07-02T13:47:07Z</time>
      </trkpt>
      <trkpt lat="46.330881183966994" lon="11.813192395493388">
        <ele>2280.3800000000001</ele>
        <time>2017-07-02T13:47:19Z</time>
      </trkpt>
      <trkpt lat="46.330862492322922" lon="11.81335911154747">
        <ele>2280.3800000000001</ele>
        <time>2017-07-02T13:47:30Z</time>
      </trkpt>
      <trkpt lat="46.330789905041456" lon="11.813464136794209">
        <ele>2280.8699999999999</ele>
        <time>2017-07-02T13:47:41Z</time>
      </trkpt>
      <trkpt lat="46.33078521117568" lon="11.813470842316747">
        <ele>2280.8699999999999</ele>
        <time>2017-07-02T13:47:42Z</time>
      </trkpt>
      <trkpt lat="46.330703739076853" lon="11.81348467245698">
        <ele>2281.3499999999999</ele>
        <time>2017-07-02T13:47:51Z</time>
      </trkpt>
      <trkpt lat="46.330603240057826" lon="11.813470339402556">
        <ele>2281.3499999999999</ele>
        <time>2017-07-02T13:48:02Z</time>
      </trkpt>
      <trkpt lat="46.330559486523271" lon="11.81352524086833">
        <ele>2280.8699999999999</ele>
        <time>2017-07-02T13:48:08Z</time>
      </trkpt>
      <trkpt lat="46.330462843179703" lon="11.813604114577174">
        <ele>2280.3800000000001</ele>
        <time>2017-07-02T13:48:21Z</time>
      </trkpt>
      <trkpt lat="46.330394530668855" lon="11.813663458451629">
        <ele>2279.9000000000001</ele>
        <time>2017-07-02T13:48:30Z</time>
      </trkpt>
      <trkpt lat="46.330387657508254" lon="11.813670583069324">
        <ele>2280.3800000000001</ele>
        <time>2017-07-02T13:48:31Z</time>
      </trkpt>
      <trkpt lat="46.330321608111262" lon="11.813751133158803">
        <ele>2280.8699999999999</ele>
        <time>2017-07-02T13:48:43Z</time>
      </trkpt>
      <trkpt lat="46.330259162932634" lon="11.813823133707047">
        <ele>2280.8699999999999</ele>
        <time>2017-07-02T13:48:53Z</time>
      </trkpt>
      <trkpt lat="46.330242650583386" lon="11.813858337700367">
        <ele>2281.3499999999999</ele>
        <time>2017-07-02T13:48:57Z</time>
      </trkpt>
      <trkpt lat="46.330176098272204" lon="11.813971661031246">
        <ele>2281.8299999999999</ele>
        <time>2017-07-02T13:49:09Z</time>
      </trkpt>
      <trkpt lat="46.330087082460523" lon="11.814062772318721">
        <ele>2281.8299999999999</ele>
        <time>2017-07-02T13:49:22Z</time>
      </trkpt>
      <trkpt lat="46.330018267035484" lon="11.814170982688665">
        <ele>2281.3499999999999</ele>
        <time>2017-07-02T13:49:34Z</time>
      </trkpt>
      <trkpt lat="46.329966718330979" lon="11.814307188615203">
        <ele>2281.8299999999999</ele>
        <time>2017-07-02T13:49:46Z</time>
      </trkpt>
      <trkpt lat="46.329869823530316" lon="11.814441466704011">
        <ele>2281.3499999999999</ele>
        <time>2017-07-02T13:49:59Z</time>
      </trkpt>
      <trkpt lat="46.329797990620136" lon="11.81456845253706">
        <ele>2282.3099999999999</ele>
        <time>2017-07-02T13:50:11Z</time>
      </trkpt>
      <trkpt lat="46.329712076112628" lon="11.814674232155085">
        <ele>2281.8299999999999</ele>
        <time>2017-07-02T13:50:22Z</time>
      </trkpt>
      <trkpt lat="46.329653402790427" lon="11.814695103093982">
        <ele>2281.8299999999999</ele>
        <time>2017-07-02T13:50:28Z</time>
      </trkpt>
      <trkpt lat="46.32956949993968" lon="11.814824938774109">
        <ele>2282.3099999999999</ele>
        <time>2017-07-02T13:50:41Z</time>
      </trkpt>
      <trkpt lat="46.329524237662554" lon="11.814970029518008">
        <ele>2283.27</ele>
        <time>2017-07-02T13:50:54Z</time>
      </trkpt>
      <trkpt lat="46.329478891566396" lon="11.815069355070591">
        <ele>2285.1900000000001</ele>
        <time>2017-07-02T13:51:06Z</time>
      </trkpt>
      <trkpt lat="46.329471347853541" lon="11.815066086128354">
        <ele>2285.1900000000001</ele>
        <time>2017-07-02T13:51:16Z</time>
      </trkpt>
      <trkpt lat="46.329456930980086" lon="11.81505368091166">
        <ele>2286.1500000000001</ele>
        <time>2017-07-02T13:51:38Z</time>
      </trkpt>
      <trkpt lat="46.329446453601122" lon="11.815047645941377">
        <ele>2286.1500000000001</ele>
        <time>2017-07-02T13:51:54Z</time>
      </trkpt>
      <trkpt lat="46.32946640253067" lon="11.815059967339039">
        <ele>2286.6300000000001</ele>
        <time>2017-07-02T13:52:16Z</time>
      </trkpt>
      <trkpt lat="46.329468078911304" lon="11.815075557678938">
        <ele>2285.1900000000001</ele>
        <time>2017-07-02T13:52:40Z</time>
      </trkpt>
      <trkpt lat="46.329452907666564" lon="11.815103888511658">
        <ele>2286.1500000000001</ele>
        <time>2017-07-02T13:52:56Z</time>
      </trkpt>
      <trkpt lat="46.329408064484596" lon="11.815224252641201">
        <ele>2288.0799999999999</ele>
        <time>2017-07-02T13:53:09Z</time>
      </trkpt>
      <trkpt lat="46.329352827742696" lon="11.815340174362063">
        <ele>2290</ele>
        <time>2017-07-02T13:53:23Z</time>
      </trkpt>
      <trkpt lat="46.329332292079926" lon="11.815452240407467">
        <ele>2292.8800000000001</ele>
        <time>2017-07-02T13:53:36Z</time>
      </trkpt>
      <trkpt lat="46.329307062551379" lon="11.815530275925994">
        <ele>2295.77</ele>
        <time>2017-07-02T13:53:47Z</time>
      </trkpt>
      <trkpt lat="46.329269260168076" lon="11.81562976911664">
        <ele>2297.21</ele>
        <time>2017-07-02T13:54:01Z</time>
      </trkpt>
      <trkpt lat="46.3292714394629" lon="11.815707720816135">
        <ele>2299.6100000000001</ele>
        <time>2017-07-02T13:54:16Z</time>
      </trkpt>
      <trkpt lat="46.329274959862232" lon="11.815815679728985">
        <ele>2300.5700000000002</ele>
        <time>2017-07-02T13:54:29Z</time>
      </trkpt>
      <trkpt lat="46.329232631251216" lon="11.815922800451517">
        <ele>2301.5300000000002</ele>
        <time>2017-07-02T13:54:43Z</time>
      </trkpt>
      <trkpt lat="46.329197008162737" lon="11.816007122397423">
        <ele>2304.4200000000001</ele>
        <time>2017-07-02T13:54:55Z</time>
      </trkpt>
      <trkpt lat="46.329189883545041" lon="11.816108711063862">
        <ele>2304.9000000000001</ele>
        <time>2017-07-02T13:55:06Z</time>
      </trkpt>
      <trkpt lat="46.329175885766745" lon="11.816245252266526">
        <ele>2303.9400000000001</ele>
        <time>2017-07-02T13:55:17Z</time>
      </trkpt>
      <trkpt lat="46.329162558540702" lon="11.816310379654169">
        <ele>2303.46</ele>
        <time>2017-07-02T13:55:22Z</time>
      </trkpt>
      <trkpt lat="46.329129952937365" lon="11.816486399620771">
        <ele>2302.98</ele>
        <time>2017-07-02T13:55:34Z</time>
      </trkpt>
      <trkpt lat="46.329087959602475" lon="11.816670969128609">
        <ele>2302.4899999999998</ele>
        <time>2017-07-02T13:55:47Z</time>
      </trkpt>
      <trkpt lat="46.329059964045882" lon="11.816791165620089">
        <ele>2302.0100000000002</ele>
        <time>2017-07-02T13:55:59Z</time>
      </trkpt>
      <trkpt lat="46.329042864963412" lon="11.816823519766331">
        <ele>2301.0500000000002</ele>
        <time>2017-07-02T13:56:07Z</time>
      </trkpt>
      <trkpt lat="46.329001458361745" lon="11.81692804209888">
        <ele>2301.0500000000002</ele>
        <time>2017-07-02T13:56:18Z</time>
      </trkpt>
      <trkpt lat="46.328947059810162" lon="11.817035498097539">
        <ele>2301.5300000000002</ele>
        <time>2017-07-02T13:56:30Z</time>
      </trkpt>
      <trkpt lat="46.328932223841548" lon="11.817046226933599">
        <ele>2302.98</ele>
        <time>2017-07-02T13:56:32Z</time>
      </trkpt>
      <trkpt lat="46.328896014019847" lon="11.817056955769658">
        <ele>2302.4899999999998</ele>
        <time>2017-07-02T13:56:35Z</time>
      </trkpt>
      <trkpt lat="46.32883750833571" lon="11.817105151712894">
        <ele>2301.0500000000002</ele>
        <time>2017-07-02T13:56:41Z</time>
      </trkpt>
      <trkpt lat="46.328786881640553" lon="11.817146055400372">
        <ele>2300.5700000000002</ele>
        <time>2017-07-02T13:56:46Z</time>
      </trkpt>
      <trkpt lat="46.32872418500483" lon="11.817195927724242">
        <ele>2301.0500000000002</ele>
        <time>2017-07-02T13:56:52Z</time>
      </trkpt>
      <trkpt lat="46.328604491427541" lon="11.817314531654119">
        <ele>2301.0500000000002</ele>
        <time>2017-07-02T13:57:05Z</time>
      </trkpt>
      <trkpt lat="46.328567946329713" lon="11.817376725375652">
        <ele>2300.0900000000001</ele>
        <time>2017-07-02T13:57:11Z</time>
      </trkpt>
      <trkpt lat="46.32852528244257" lon="11.817427100613713">
        <ele>2300.5700000000002</ele>
        <time>2017-07-02T13:57:24Z</time>
      </trkpt>
      <trkpt lat="46.328537184745073" lon="11.817426010966301">
        <ele>2300.5700000000002</ele>
        <time>2017-07-02T13:57:36Z</time>
      </trkpt>
      <trkpt lat="46.328538609668612" lon="11.817445708438754">
        <ele>2300.5700000000002</ele>
        <time>2017-07-02T13:57:55Z</time>
      </trkpt>
      <trkpt lat="46.328542046248913" lon="11.817399440333247">
        <ele>2300.5700000000002</ele>
        <time>2017-07-02T13:58:14Z</time>
      </trkpt>
      <trkpt lat="46.328549170866609" lon="11.817420059815049">
        <ele>2301.0500000000002</ele>
        <time>2017-07-02T13:58:24Z</time>
      </trkpt>
      <trkpt lat="46.328540956601501" lon="11.817413605749607">
        <ele>2300.5700000000002</ele>
        <time>2017-07-02T13:58:38Z</time>
      </trkpt>
      <trkpt lat="46.328559899702668" lon="11.817409163340926">
        <ele>2301.0500000000002</ele>
        <time>2017-07-02T13:58:50Z</time>
      </trkpt>
      <trkpt lat="46.328535256907344" lon="11.81740346364677">
        <ele>2300.5700000000002</ele>
        <time>2017-07-02T13:59:03Z</time>
      </trkpt>
      <trkpt lat="46.328542716801167" lon="11.817400446161628">
        <ele>2302.0100000000002</ele>
        <time>2017-07-02T13:59:18Z</time>
      </trkpt>
      <trkpt lat="46.32849209010601" lon="11.817463394254446">
        <ele>2301.0500000000002</ele>
        <time>2017-07-02T13:59:35Z</time>
      </trkpt>
      <trkpt lat="46.328471638262272" lon="11.817498095333576">
        <ele>2302.4899999999998</ele>
        <time>2017-07-02T13:59:43Z</time>
      </trkpt>
      <trkpt lat="46.328433332964778" lon="11.81752173230052">
        <ele>2302.98</ele>
        <time>2017-07-02T13:59:49Z</time>
      </trkpt>
      <trkpt lat="46.328371725976467" lon="11.817640168592334">
        <ele>2302.98</ele>
        <time>2017-07-02T14:00:02Z</time>
      </trkpt>
      <trkpt lat="46.328356470912695" lon="11.817754916846752">
        <ele>2302.0100000000002</ele>
        <time>2017-07-02T14:00:15Z</time>
      </trkpt>
      <trkpt lat="46.328361080959439" lon="11.81777779944241">
        <ele>2302.4899999999998</ele>
        <time>2017-07-02T14:00:24Z</time>
      </trkpt>
      <trkpt lat="46.328366445377469" lon="11.817817781120539">
        <ele>2302.98</ele>
        <time>2017-07-02T14:00:29Z</time>
      </trkpt>
      <trkpt lat="46.32835328578949" lon="11.817866899073124">
        <ele>2301.5300000000002</ele>
        <time>2017-07-02T14:00:34Z</time>
      </trkpt>
      <trkpt lat="46.328342137858272" lon="11.818046187981963">
        <ele>2301.0500000000002</ele>
        <time>2017-07-02T14:00:48Z</time>
      </trkpt>
      <trkpt lat="46.328323865309358" lon="11.818173928186297">
        <ele>2301.0500000000002</ele>
        <time>2017-07-02T14:00:58Z</time>
      </trkpt>
      <trkpt lat="46.328304586932063" lon="11.818297980353236">
        <ele>2299.1300000000001</ele>
        <time>2017-07-02T14:01:08Z</time>
      </trkpt>
      <trkpt lat="46.328302407637239" lon="11.818309966474771">
        <ele>2298.6500000000001</ele>
        <time>2017-07-02T14:01:09Z</time>
      </trkpt>
      <trkpt lat="46.328238369897008" lon="11.818447010591626">
        <ele>2298.1700000000001</ele>
        <time>2017-07-02T14:01:20Z</time>
      </trkpt>
      <trkpt lat="46.328149689361453" lon="11.818582378327847">
        <ele>2296.73</ele>
        <time>2017-07-02T14:01:33Z</time>
      </trkpt>
      <trkpt lat="46.32808749563992" lon="11.818707939237356">
        <ele>2296.73</ele>
        <time>2017-07-02T14:01:47Z</time>
      </trkpt>
      <trkpt lat="46.328012393787503" lon="11.818825956434011">
        <ele>2296.25</ele>
        <time>2017-07-02T14:01:59Z</time>
      </trkpt>
      <trkpt lat="46.327966377139091" lon="11.818938525393605">
        <ele>2297.21</ele>
        <time>2017-07-02T14:02:09Z</time>
      </trkpt>
      <trkpt lat="46.327871158719063" lon="11.819037767127156">
        <ele>2296.25</ele>
        <time>2017-07-02T14:02:21Z</time>
      </trkpt>
      <trkpt lat="46.327885324135423" lon="11.81910490617156">
        <ele>2294.8000000000002</ele>
        <time>2017-07-02T14:02:27Z</time>
      </trkpt>
      <trkpt lat="46.327859843149781" lon="11.819187551736832">
        <ele>2294.8000000000002</ele>
        <time>2017-07-02T14:02:37Z</time>
      </trkpt>
      <trkpt lat="46.327809887006879" lon="11.819243878126144">
        <ele>2292.8800000000001</ele>
        <time>2017-07-02T14:02:46Z</time>
      </trkpt>
      <trkpt lat="46.32773813791573" lon="11.819334318861365">
        <ele>2290.48</ele>
        <time>2017-07-02T14:02:58Z</time>
      </trkpt>
      <trkpt lat="46.327730091288686" lon="11.819341694936156">
        <ele>2290.48</ele>
        <time>2017-07-02T14:02:59Z</time>
      </trkpt>
      <trkpt lat="46.327676363289356" lon="11.819381760433316">
        <ele>2289.04</ele>
        <time>2017-07-02T14:03:05Z</time>
      </trkpt>
      <trkpt lat="46.327606793493032" lon="11.819399781525135">
        <ele>2286.6300000000001</ele>
        <time>2017-07-02T14:03:16Z</time>
      </trkpt>
      <trkpt lat="46.327657420188189" lon="11.819430124014616">
        <ele>2286.1500000000001</ele>
        <time>2017-07-02T14:03:32Z</time>
      </trkpt>
      <trkpt lat="46.327636884525418" lon="11.819496005773544">
        <ele>2284.71</ele>
        <time>2017-07-02T14:03:44Z</time>
      </trkpt>
      <trkpt lat="46.327506881207228" lon="11.819458622485399">
        <ele>2282.79</ele>
        <time>2017-07-02T14:03:55Z</time>
      </trkpt>
      <trkpt lat="46.327448962256312" lon="11.819423083215952">
        <ele>2282.3099999999999</ele>
        <time>2017-07-02T14:03:59Z</time>
      </trkpt>
      <trkpt lat="46.327310828492045" lon="11.81939609348774">
        <ele>2280.8699999999999</ele>
        <time>2017-07-02T14:04:11Z</time>
      </trkpt>
      <trkpt lat="46.327206892892718" lon="11.81940296664834">
        <ele>2278.46</ele>
        <time>2017-07-02T14:04:23Z</time>
      </trkpt>
      <trkpt lat="46.327218040823936" lon="11.819371953606606">
        <ele>2277.98</ele>
        <time>2017-07-02T14:04:33Z</time>
      </trkpt>
      <trkpt lat="46.327233631163836" lon="11.819350495934486">
        <ele>2277.5</ele>
        <time>2017-07-02T14:04:53Z</time>
      </trkpt>
      <trkpt lat="46.327217034995556" lon="11.819339515641332">
        <ele>2277.02</ele>
        <time>2017-07-02T14:05:00Z</time>
      </trkpt>
      <trkpt lat="46.327198930084705" lon="11.819337084889412">
        <ele>2276.0599999999999</ele>
        <time>2017-07-02T14:05:02Z</time>
      </trkpt>
      <trkpt lat="46.327145537361503" lon="11.819346304982901">
        <ele>2275.5799999999999</ele>
        <time>2017-07-02T14:05:13Z</time>
      </trkpt>
      <trkpt lat="46.32708921097219" lon="11.819334821775556">
        <ele>2271.73</ele>
        <time>2017-07-02T14:05:22Z</time>
      </trkpt>
      <trkpt lat="46.327033555135131" lon="11.819324092939496">
        <ele>2269.8099999999999</ele>
        <time>2017-07-02T14:05:29Z</time>
      </trkpt>
      <trkpt lat="46.326929032802582" lon="11.819320153445005">
        <ele>2269.8099999999999</ele>
        <time>2017-07-02T14:05:40Z</time>
      </trkpt>
      <trkpt lat="46.326907072216272" lon="11.819312358275056">
        <ele>2267.8899999999999</ele>
        <time>2017-07-02T14:05:43Z</time>
      </trkpt>
      <trkpt lat="46.326830293983221" lon="11.819329038262367">
        <ele>2266.4499999999998</ele>
        <time>2017-07-02T14:05:53Z</time>
      </trkpt>
      <trkpt lat="46.32672225125134" lon="11.819357788190246">
        <ele>2265.48</ele>
        <time>2017-07-02T14:06:08Z</time>
      </trkpt>
      <trkpt lat="46.326669864356518" lon="11.819348065182567">
        <ele>2265.48</ele>
        <time>2017-07-02T14:06:13Z</time>
      </trkpt>
      <trkpt lat="46.326643126085401" lon="11.819295426830649">
        <ele>2265</ele>
        <time>2017-07-02T14:06:19Z</time>
      </trkpt>
      <trkpt lat="46.326541034504771" lon="11.819228455424309">
        <ele>2263.5599999999999</ele>
        <time>2017-07-02T14:06:33Z</time>
      </trkpt>
      <trkpt lat="46.326485462486744" lon="11.819200962781906">
        <ele>2262.5999999999999</ele>
        <time>2017-07-02T14:06:50Z</time>
      </trkpt>
      <trkpt lat="46.326418071985245" lon="11.819149162620306">
        <ele>2259.7199999999998</ele>
        <time>2017-07-02T14:07:00Z</time>
      </trkpt>
      <trkpt lat="46.326360404491425" lon="11.819098284468055">
        <ele>2257.79</ele>
        <time>2017-07-02T14:07:09Z</time>
      </trkpt>
      <trkpt lat="46.326302401721478" lon="11.819081520661712">
        <ele>2255.8699999999999</ele>
        <time>2017-07-02T14:07:18Z</time>
      </trkpt>
      <trkpt lat="46.326219085603952" lon="11.819076323881745">
        <ele>2255.8699999999999</ele>
        <time>2017-07-02T14:07:30Z</time>
      </trkpt>
      <trkpt lat="46.32614666596055" lon="11.819066349416971">
        <ele>2256.3499999999999</ele>
        <time>2017-07-02T14:07:41Z</time>
      </trkpt>
      <trkpt lat="46.326088830828667" lon="11.819077748805285">
        <ele>2258.27</ele>
        <time>2017-07-02T14:07:54Z</time>
      </trkpt>
      <trkpt lat="46.326057063415647" lon="11.819047993049026">
        <ele>2259.2399999999998</ele>
        <time>2017-07-02T14:08:05Z</time>
      </trkpt>
      <trkpt lat="46.325994366779923" lon="11.819031899794936">
        <ele>2259.2399999999998</ele>
        <time>2017-07-02T14:08:17Z</time>
      </trkpt>
      <trkpt lat="46.325931921601295" lon="11.81901597417891">
        <ele>2259.7199999999998</ele>
        <time>2017-07-02T14:08:29Z</time>
      </trkpt>
      <trkpt lat="46.32589403539896" lon="11.818957887589931">
        <ele>2259.2399999999998</ele>
        <time>2017-07-02T14:08:42Z</time>
      </trkpt>
      <trkpt lat="46.325857071205974" lon="11.818934334442019">
        <ele>2258.75</ele>
        <time>2017-07-02T14:08:54Z</time>
      </trkpt>
      <trkpt lat="46.325844833627343" lon="11.818882450461388">
        <ele>2259.2399999999998</ele>
        <time>2017-07-02T14:09:11Z</time>
      </trkpt>
      <trkpt lat="46.325844582170248" lon="11.81883417069912">
        <ele>2261.6399999999999</ele>
        <time>2017-07-02T14:09:28Z</time>
      </trkpt>
      <trkpt lat="46.325822537764907" lon="11.818808941170573">
        <ele>2262.1199999999999</ele>
        <time>2017-07-02T14:09:35Z</time>
      </trkpt>
      <trkpt lat="46.325797308236361" lon="11.818792428821325">
        <ele>2261.1599999999999</ele>
        <time>2017-07-02T14:09:41Z</time>
      </trkpt>
      <trkpt lat="46.325831841677427" lon="11.818967862054706">
        <ele>2260.6799999999998</ele>
        <time>2017-07-02T14:09:47Z</time>
      </trkpt>
      <trkpt lat="46.325831674039364" lon="11.819038270041347">
        <ele>2259.7199999999998</ele>
        <time>2017-07-02T14:09:50Z</time>
      </trkpt>
      <trkpt lat="46.32582563906908" lon="11.81905847042799">
        <ele>2261.6399999999999</ele>
        <time>2017-07-02T14:09:52Z</time>
      </trkpt>
      <trkpt lat="46.325777024030685" lon="11.819151174277067">
        <ele>2262.1199999999999</ele>
        <time>2017-07-02T14:10:04Z</time>
      </trkpt>
      <trkpt lat="46.325762271881104" lon="11.819177409633994">
        <ele>2263.5599999999999</ele>
        <time>2017-07-02T14:10:07Z</time>
      </trkpt>
      <trkpt lat="46.32570980116725" lon="11.819266090169549">
        <ele>2263.5599999999999</ele>
        <time>2017-07-02T14:10:19Z</time>
      </trkpt>
      <trkpt lat="46.325649283826351" lon="11.819331301376224">
        <ele>2264.04</ele>
        <time>2017-07-02T14:10:28Z</time>
      </trkpt>
      <trkpt lat="46.325607374310493" lon="11.819371785968542">
        <ele>2263.5599999999999</ele>
        <time>2017-07-02T14:10:34Z</time>
      </trkpt>
      <trkpt lat="46.325524225831032" lon="11.819427441805601">
        <ele>2265.96</ele>
        <time>2017-07-02T14:10:46Z</time>
      </trkpt>
      <trkpt lat="46.325491033494473" lon="11.819459041580558">
        <ele>2266.4499999999998</ele>
        <time>2017-07-02T14:10:51Z</time>
      </trkpt>
      <trkpt lat="46.32545524276793" lon="11.819499107077718">
        <ele>2265.96</ele>
        <time>2017-07-02T14:10:56Z</time>
      </trkpt>
      <trkpt lat="46.32543177343905" lon="11.819527940824628">
        <ele>2265</ele>
        <time>2017-07-02T14:10:59Z</time>
      </trkpt>
      <trkpt lat="46.325426492840052" lon="11.819534646347165">
        <ele>2265</ele>
        <time>2017-07-02T14:11:00Z</time>
      </trkpt>
      <trkpt lat="46.325403861701488" lon="11.819586027413607">
        <ele>2267.8899999999999</ele>
        <time>2017-07-02T14:11:06Z</time>
      </trkpt>
      <trkpt lat="46.325423726812005" lon="11.819681245833635">
        <ele>2267.4099999999999</ele>
        <time>2017-07-02T14:11:20Z</time>
      </trkpt>
      <trkpt lat="46.325469492003322" lon="11.819755677133799">
        <ele>2269.8099999999999</ele>
        <time>2017-07-02T14:11:33Z</time>
      </trkpt>
      <trkpt lat="46.325504360720515" lon="11.819821475073695">
        <ele>2273.1700000000001</ele>
        <time>2017-07-02T14:11:42Z</time>
      </trkpt>
      <trkpt lat="46.325494889169931" lon="11.819848548620939">
        <ele>2270.29</ele>
        <time>2017-07-02T14:11:49Z</time>
      </trkpt>
      <trkpt lat="46.325524309650064" lon="11.819898672401905">
        <ele>2271.73</ele>
        <time>2017-07-02T14:11:56Z</time>
      </trkpt>
      <trkpt lat="46.325546773150563" lon="11.819997997954488">
        <ele>2272.6900000000001</ele>
        <time>2017-07-02T14:12:06Z</time>
      </trkpt>
      <trkpt lat="46.325558675453067" lon="11.820122050121427">
        <ele>2275.5799999999999</ele>
        <time>2017-07-02T14:12:22Z</time>
      </trkpt>
      <trkpt lat="46.32553000934422" lon="11.820209221914411">
        <ele>2277.02</ele>
        <time>2017-07-02T14:12:35Z</time>
      </trkpt>
      <trkpt lat="46.325523471459746" lon="11.820312654599547">
        <ele>2278.9400000000001</ele>
        <time>2017-07-02T14:12:48Z</time>
      </trkpt>
      <trkpt lat="46.325531769543886" lon="11.82039781473577">
        <ele>2281.8299999999999</ele>
        <time>2017-07-02T14:13:02Z</time>
      </trkpt>
      <trkpt lat="46.325566051527858" lon="11.820529997348785">
        <ele>2281.8299999999999</ele>
        <time>2017-07-02T14:13:17Z</time>
      </trkpt>
      <trkpt lat="46.325586503371596" lon="11.820636363700032">
        <ele>2283.75</ele>
        <time>2017-07-02T14:13:30Z</time>
      </trkpt>
      <trkpt lat="46.32558767683804" lon="11.820740299299359">
        <ele>2285.6700000000001</ele>
        <time>2017-07-02T14:13:43Z</time>
      </trkpt>
      <trkpt lat="46.325587509199977" lon="11.820776173844934">
        <ele>2288.5599999999999</ele>
        <time>2017-07-02T14:13:48Z</time>
      </trkpt>
      <trkpt lat="46.325556244701147" lon="11.820871643722057">
        <ele>2290</ele>
        <time>2017-07-02T14:14:02Z</time>
      </trkpt>
      <trkpt lat="46.325554149225354" lon="11.820923276245594">
        <ele>2292.8800000000001</ele>
        <time>2017-07-02T14:14:10Z</time>
      </trkpt>
      <trkpt lat="46.325553897768259" lon="11.820961749181151">
        <ele>2290.96</ele>
        <time>2017-07-02T14:14:22Z</time>
      </trkpt>
      <trkpt lat="46.325558675453067" lon="11.820946661755443">
        <ele>2290.48</ele>
        <time>2017-07-02T14:14:33Z</time>
      </trkpt>
      <trkpt lat="46.325589353218675" lon="11.821032660081983">
        <ele>2290.48</ele>
        <time>2017-07-02T14:14:48Z</time>
      </trkpt>
      <trkpt lat="46.325638806447387" lon="11.821129387244582">
        <ele>2292.8800000000001</ele>
        <time>2017-07-02T14:15:00Z</time>
      </trkpt>
      <trkpt lat="46.325666382908821" lon="11.82116936892271">
        <ele>2292.4000000000001</ele>
        <time>2017-07-02T14:15:11Z</time>
      </trkpt>
      <trkpt lat="46.325709382072091" lon="11.821229970082641">
        <ele>2293.8400000000001</ele>
        <time>2017-07-02T14:15:22Z</time>
      </trkpt>
      <trkpt lat="46.325777946040034" lon="11.82133549824357">
        <ele>2296.25</ele>
        <time>2017-07-02T14:15:35Z</time>
      </trkpt>
      <trkpt lat="46.325782053172588" lon="11.821345807984471">
        <ele>2296.25</ele>
        <time>2017-07-02T14:15:36Z</time>
      </trkpt>
      <trkpt lat="46.325835613533854" lon="11.821473632007837">
        <ele>2297.6900000000001</ele>
        <time>2017-07-02T14:15:48Z</time>
      </trkpt>
      <trkpt lat="46.325866039842367" lon="11.821582764387131">
        <ele>2300.0900000000001</ele>
        <time>2017-07-02T14:16:00Z</time>
      </trkpt>
      <trkpt lat="46.325901998206973" lon="11.82170731946826">
        <ele>2300.5700000000002</ele>
        <time>2017-07-02T14:16:13Z</time>
      </trkpt>
      <trkpt lat="46.325905853882432" lon="11.821728274226189">
        <ele>2300.5700000000002</ele>
        <time>2017-07-02T14:16:18Z</time>
      </trkpt>
      <trkpt lat="46.325972154736519" lon="11.82185735553503">
        <ele>2300.0900000000001</ele>
        <time>2017-07-02T14:16:30Z</time>
      </trkpt>
      <trkpt lat="46.325953463092446" lon="11.82194234803319">
        <ele>2300.0900000000001</ele>
        <time>2017-07-02T14:16:39Z</time>
      </trkpt>
      <trkpt lat="46.325920270755887" lon="11.821992136538029">
        <ele>2299.6100000000001</ele>
        <time>2017-07-02T14:16:48Z</time>
      </trkpt>
      <trkpt lat="46.325932424515486" lon="11.82201661169529">
        <ele>2299.6100000000001</ele>
        <time>2017-07-02T14:16:56Z</time>
      </trkpt>
      <trkpt lat="46.325929993763566" lon="11.822066316381097">
        <ele>2299.6100000000001</ele>
        <time>2017-07-02T14:17:06Z</time>
      </trkpt>
      <trkpt lat="46.325934771448374" lon="11.822118367999792">
        <ele>2300.0900000000001</ele>
        <time>2017-07-02T14:17:17Z</time>
      </trkpt>
      <trkpt lat="46.325933765619993" lon="11.822108142077923">
        <ele>2300.5700000000002</ele>
        <time>2017-07-02T14:17:32Z</time>
      </trkpt>
      <trkpt lat="46.325941560789943" lon="11.822189446538687">
        <ele>2301.5300000000002</ele>
        <time>2017-07-02T14:17:42Z</time>
      </trkpt>
      <trkpt lat="46.325962599366903" lon="11.822264716029167">
        <ele>2302.4899999999998</ele>
        <time>2017-07-02T14:17:53Z</time>
      </trkpt>
      <trkpt lat="46.32597760297358" lon="11.822296483442187">
        <ele>2302.98</ele>
        <time>2017-07-02T14:18:09Z</time>
      </trkpt>
      <trkpt lat="46.325941644608974" lon="11.822318024933338">
        <ele>2303.46</ele>
        <time>2017-07-02T14:18:22Z</time>
      </trkpt>
      <trkpt lat="46.325963269919157" lon="11.822391618043184">
        <ele>2303.46</ele>
        <time>2017-07-02T14:18:32Z</time>
      </trkpt>
      <trkpt lat="46.326006604358554" lon="11.822433276101947">
        <ele>2304.4200000000001</ele>
        <time>2017-07-02T14:18:41Z</time>
      </trkpt>
      <trkpt lat="46.32603376172483" lon="11.822515586391091">
        <ele>2303.9400000000001</ele>
        <time>2017-07-02T14:18:51Z</time>
      </trkpt>
      <trkpt lat="46.326025379821658" lon="11.822578031569719">
        <ele>2303.46</ele>
        <time>2017-07-02T14:19:03Z</time>
      </trkpt>
      <trkpt lat="46.32606016471982" lon="11.822678362950683">
        <ele>2304.4200000000001</ele>
        <time>2017-07-02T14:19:15Z</time>
      </trkpt>
      <trkpt lat="46.326062679290771" lon="11.822713147848845">
        <ele>2303.9400000000001</ele>
        <time>2017-07-02T14:19:19Z</time>
      </trkpt>
      <trkpt lat="46.326084639877081" lon="11.822878690436482">
        <ele>2303.9400000000001</ele>
        <time>2017-07-02T14:19:33Z</time>
      </trkpt>
      <trkpt lat="46.32607433013618" lon="11.822974998503923">
        <ele>2304.4200000000001</ele>
        <time>2017-07-02T14:19:41Z</time>
      </trkpt>
      <trkpt lat="46.326044825837016" lon="11.823083879426122">
        <ele>2303.9400000000001</ele>
        <time>2017-07-02T14:19:50Z</time>
      </trkpt>
      <trkpt lat="46.326042814180255" lon="11.823171721771359">
        <ele>2303.9400000000001</ele>
        <time>2017-07-02T14:20:00Z</time>
      </trkpt>
      <trkpt lat="46.326093189418316" lon="11.823226623237133">
        <ele>2303.9400000000001</ele>
        <time>2017-07-02T14:20:10Z</time>
      </trkpt>
      <trkpt lat="46.326109953224659" lon="11.823261575773358">
        <ele>2304.4200000000001</ele>
        <time>2017-07-02T14:20:13Z</time>
      </trkpt>
      <trkpt lat="46.326165357604623" lon="11.823457293212414">
        <ele>2302.98</ele>
        <time>2017-07-02T14:20:27Z</time>
      </trkpt>
      <trkpt lat="46.32612026296556" lon="11.823590733110905">
        <ele>2302.98</ele>
        <time>2017-07-02T14:20:37Z</time>
      </trkpt>
      <trkpt lat="46.326162088662386" lon="11.823723837733269">
        <ele>2303.9400000000001</ele>
        <time>2017-07-02T14:20:49Z</time>
      </trkpt>
      <trkpt lat="46.32618622854352" lon="11.823812937363982">
        <ele>2305.3800000000001</ele>
        <time>2017-07-02T14:21:02Z</time>
      </trkpt>
      <trkpt lat="46.326187737286091" lon="11.823941264301538">
        <ele>2308.2600000000002</ele>
        <time>2017-07-02T14:21:15Z</time>
      </trkpt>
      <trkpt lat="46.326172230765224" lon="11.824078559875488">
        <ele>2307.7800000000002</ele>
        <time>2017-07-02T14:21:28Z</time>
      </trkpt>
      <trkpt lat="46.326166614890099" lon="11.824127761647105">
        <ele>2307.7800000000002</ele>
        <time>2017-07-02T14:21:35Z</time>
      </trkpt>
      <trkpt lat="46.326108444482088" lon="11.824217950925231">
        <ele>2308.7399999999998</ele>
        <time>2017-07-02T14:21:46Z</time>
      </trkpt>
      <trkpt lat="46.326087741181254" lon="11.824283916503191">
        <ele>2310.1900000000001</ele>
        <time>2017-07-02T14:21:56Z</time>
      </trkpt>
      <trkpt lat="46.326075084507465" lon="11.824411069974303">
        <ele>2309.2199999999998</ele>
        <time>2017-07-02T14:22:08Z</time>
      </trkpt>
      <trkpt lat="46.326064271852374" lon="11.824467564001679">
        <ele>2309.2199999999998</ele>
        <time>2017-07-02T14:22:12Z</time>
      </trkpt>
      <trkpt lat="46.326040551066399" lon="11.824609385803342">
        <ele>2309.6999999999998</ele>
        <time>2017-07-02T14:22:23Z</time>
      </trkpt>
      <trkpt lat="46.32601372897625" lon="11.824735449627042">
        <ele>2310.6700000000001</ele>
        <time>2017-07-02T14:22:34Z</time>
      </trkpt>
      <trkpt lat="46.325995372608304" lon="11.824875175952911">
        <ele>2312.1100000000001</ele>
        <time>2017-07-02T14:22:47Z</time>
      </trkpt>
      <trkpt lat="46.325959833338857" lon="11.825039628893137">
        <ele>2313.0700000000002</ele>
        <time>2017-07-02T14:23:01Z</time>
      </trkpt>
      <trkpt lat="46.325909206643701" lon="11.825155550613999">
        <ele>2313.0700000000002</ele>
        <time>2017-07-02T14:23:12Z</time>
      </trkpt>
      <trkpt lat="46.325856316834688" lon="11.825292762368917">
        <ele>2312.1100000000001</ele>
        <time>2017-07-02T14:23:24Z</time>
      </trkpt>
      <trkpt lat="46.325834188610315" lon="11.825319668278098">
        <ele>2311.1500000000001</ele>
        <time>2017-07-02T14:23:34Z</time>
      </trkpt>
      <trkpt lat="46.325840391218662" lon="11.825322350487113">
        <ele>2311.6300000000001</ele>
        <time>2017-07-02T14:23:36Z</time>
      </trkpt>
      <trkpt lat="46.325849192216992" lon="11.825497783720493">
        <ele>2312.1100000000001</ele>
        <time>2017-07-02T14:23:47Z</time>
      </trkpt>
      <trkpt lat="46.325868722051382" lon="11.825588895007968">
        <ele>2312.1100000000001</ele>
        <time>2017-07-02T14:23:56Z</time>
      </trkpt>
      <trkpt lat="46.325900489464402" lon="11.825694171711802">
        <ele>2313.5500000000002</ele>
        <time>2017-07-02T14:24:08Z</time>
      </trkpt>
      <trkpt lat="46.325911218300462" lon="11.825751839205623">
        <ele>2314.5100000000002</ele>
        <time>2017-07-02T14:24:16Z</time>
      </trkpt>
      <trkpt lat="46.325947009027004" lon="11.825772542506456">
        <ele>2316.4299999999998</ele>
        <time>2017-07-02T14:24:26Z</time>
      </trkpt>
      <trkpt lat="46.325968047603965" lon="11.825778493657708">
        <ele>2316.4299999999998</ele>
        <time>2017-07-02T14:24:38Z</time>
      </trkpt>
      <trkpt lat="46.32598782889545" lon="11.825791904702783">
        <ele>2315.9499999999998</ele>
        <time>2017-07-02T14:24:44Z</time>
      </trkpt>
      <trkpt lat="46.326019763946533" lon="11.825857702642679">
        <ele>2314.5100000000002</ele>
        <time>2017-07-02T14:24:49Z</time>
      </trkpt>
      <trkpt lat="46.326101990416646" lon="11.826039338484406">
        <ele>2314.5100000000002</ele>
        <time>2017-07-02T14:25:03Z</time>
      </trkpt>
      <trkpt lat="46.326192514970899" lon="11.826109159737825">
        <ele>2314.5100000000002</ele>
        <time>2017-07-02T14:25:15Z</time>
      </trkpt>
      <trkpt lat="46.326210619881749" lon="11.826140340417624">
        <ele>2314.9899999999998</ele>
        <time>2017-07-02T14:25:18Z</time>
      </trkpt>
      <trkpt lat="46.326274070888758" lon="11.826276630163193">
        <ele>2315.9499999999998</ele>
        <time>2017-07-02T14:25:30Z</time>
      </trkpt>
      <trkpt lat="46.326352441683412" lon="11.826440161094069">
        <ele>2315.9499999999998</ele>
        <time>2017-07-02T14:25:45Z</time>
      </trkpt>
      <trkpt lat="46.326402733102441" lon="11.826606122776866">
        <ele>2316.4299999999998</ele>
        <time>2017-07-02T14:25:59Z</time>
      </trkpt>
      <trkpt lat="46.326433410868049" lon="11.826692707836628">
        <ele>2316.4299999999998</ele>
        <time>2017-07-02T14:26:13Z</time>
      </trkpt>
      <trkpt lat="46.326438942924142" lon="11.826671417802572">
        <ele>2317.4000000000001</ele>
        <time>2017-07-02T14:26:29Z</time>
      </trkpt>
      <trkpt lat="46.326444642618299" lon="11.826685415580869">
        <ele>2316.9099999999999</ele>
        <time>2017-07-02T14:26:43Z</time>
      </trkpt>
      <trkpt lat="46.326447576284409" lon="11.826690277084708">
        <ele>2317.8800000000001</ele>
        <time>2017-07-02T14:26:58Z</time>
      </trkpt>
      <trkpt lat="46.326445899903774" lon="11.826696060597897">
        <ele>2317.4000000000001</ele>
        <time>2017-07-02T14:27:12Z</time>
      </trkpt>
      <trkpt lat="46.326467441394925" lon="11.826715422794223">
        <ele>2317.4000000000001</ele>
        <time>2017-07-02T14:27:23Z</time>
      </trkpt>
      <trkpt lat="46.326490323990583" lon="11.826868979260325">
        <ele>2317.8800000000001</ele>
        <time>2017-07-02T14:27:35Z</time>
      </trkpt>
      <trkpt lat="46.326512955129147" lon="11.826910050585866">
        <ele>2318.8400000000001</ele>
        <time>2017-07-02T14:27:44Z</time>
      </trkpt>
      <trkpt lat="46.326556205749512" lon="11.826988672837615">
        <ele>2320.2800000000002</ele>
        <time>2017-07-02T14:27:56Z</time>
      </trkpt>
      <trkpt lat="46.326605072245002" lon="11.827125549316406">
        <ele>2320.7600000000002</ele>
        <time>2017-07-02T14:28:06Z</time>
      </trkpt>
      <trkpt lat="46.326647400856018" lon="11.827266868203878">
        <ele>2318.3600000000001</ele>
        <time>2017-07-02T14:28:18Z</time>
      </trkpt>
      <trkpt lat="46.326703224331141" lon="11.827367702499032">
        <ele>2315.9499999999998</ele>
        <time>2017-07-02T14:28:29Z</time>
      </trkpt>
      <trkpt lat="46.326720071956515" lon="11.827448923140764">
        <ele>2312.5900000000001</ele>
        <time>2017-07-02T14:28:37Z</time>
      </trkpt>
      <trkpt lat="46.32671345025301" lon="11.827547578141093">
        <ele>2310.1900000000001</ele>
        <time>2017-07-02T14:28:47Z</time>
      </trkpt>
      <trkpt lat="46.326729878783226" lon="11.827570712193847">
        <ele>2310.6700000000001</ele>
        <time>2017-07-02T14:28:51Z</time>
      </trkpt>
      <trkpt lat="46.326745972037315" lon="11.827621003612876">
        <ele>2308.7399999999998</ele>
        <time>2017-07-02T14:28:55Z</time>
      </trkpt>
      <trkpt lat="46.326783020049334" lon="11.827760562300682">
        <ele>2306.8200000000002</ele>
        <time>2017-07-02T14:29:06Z</time>
      </trkpt>
      <trkpt lat="46.326801460236311" lon="11.827783193439245">
        <ele>2307.3000000000002</ele>
        <time>2017-07-02T14:29:10Z</time>
      </trkpt>
      <trkpt lat="46.326809423044324" lon="11.827805070206523">
        <ele>2305.8600000000001</ele>
        <time>2017-07-02T14:29:13Z</time>
      </trkpt>
      <trkpt lat="46.326821744441986" lon="11.827921746298671">
        <ele>2308.2600000000002</ele>
        <time>2017-07-02T14:29:22Z</time>
      </trkpt>
      <trkpt lat="46.32680581882596" lon="11.827991232275963">
        <ele>2309.2199999999998</ele>
        <time>2017-07-02T14:29:28Z</time>
      </trkpt>
      <trkpt lat="46.326686376705766" lon="11.828071195632219">
        <ele>2309.6999999999998</ele>
        <time>2017-07-02T14:29:40Z</time>
      </trkpt>
      <trkpt lat="46.326605742797256" lon="11.828139005228877">
        <ele>2310.6700000000001</ele>
        <time>2017-07-02T14:29:51Z</time>
      </trkpt>
      <trkpt lat="46.326577663421631" lon="11.828172113746405">
        <ele>2310.6700000000001</ele>
        <time>2017-07-02T14:29:55Z</time>
      </trkpt>
      <trkpt lat="46.326524605974555" lon="11.828235145658255">
        <ele>2311.1500000000001</ele>
        <time>2017-07-02T14:30:04Z</time>
      </trkpt>
      <trkpt lat="46.326466351747513" lon="11.828331453725696">
        <ele>2311.6300000000001</ele>
        <time>2017-07-02T14:30:19Z</time>
      </trkpt>
      <trkpt lat="46.326452102512121" lon="11.828359365463257">
        <ele>2314.0300000000002</ele>
        <time>2017-07-02T14:30:26Z</time>
      </trkpt>
      <trkpt lat="46.326443972066045" lon="11.828362550586462">
        <ele>2314.0300000000002</ele>
        <time>2017-07-02T14:30:42Z</time>
      </trkpt>
      <trkpt lat="46.326420083642006" lon="11.828486770391464">
        <ele>2314.9899999999998</ele>
        <time>2017-07-02T14:30:55Z</time>
      </trkpt>
      <trkpt lat="46.326386220753193" lon="11.828537816181779">
        <ele>2314.9899999999998</ele>
        <time>2017-07-02T14:31:00Z</time>
      </trkpt>
      <trkpt lat="46.326345065608621" lon="11.828619623556733">
        <ele>2315.4699999999998</ele>
        <time>2017-07-02T14:31:12Z</time>
      </trkpt>
      <trkpt lat="46.326325451955199" lon="11.828725654631853">
        <ele>2317.4000000000001</ele>
        <time>2017-07-02T14:31:24Z</time>
      </trkpt>
      <trkpt lat="46.326326625421643" lon="11.828822046518326">
        <ele>2318.8400000000001</ele>
        <time>2017-07-02T14:31:36Z</time>
      </trkpt>
      <trkpt lat="46.326343724504113" lon="11.828819280490279">
        <ele>2318.3600000000001</ele>
        <time>2017-07-02T14:31:54Z</time>
      </trkpt>
      <trkpt lat="46.326354201883078" lon="11.828807042911649">
        <ele>2319.3200000000002</ele>
        <time>2017-07-02T14:32:17Z</time>
      </trkpt>
      <trkpt lat="46.326395189389586" lon="11.828781813383102">
        <ele>2321.2399999999998</ele>
        <time>2017-07-02T14:32:28Z</time>
      </trkpt>
      <trkpt lat="46.32643005810678" lon="11.828761948272586">
        <ele>2322.6799999999998</ele>
        <time>2017-07-02T14:32:36Z</time>
      </trkpt>
      <trkpt lat="46.326505579054356" lon="11.828731941059232">
        <ele>2323.6399999999999</ele>
        <time>2017-07-02T14:32:46Z</time>
      </trkpt>
      <trkpt lat="46.326546985656023" lon="11.828638315200806">
        <ele>2326.5300000000002</ele>
        <time>2017-07-02T14:32:58Z</time>
      </trkpt>
      <trkpt lat="46.326587805524468" lon="11.828553909435868">
        <ele>2327.0100000000002</ele>
        <time>2017-07-02T14:33:07Z</time>
      </trkpt>
      <trkpt lat="46.326634492725134" lon="11.82846849784255">
        <ele>2329.8899999999999</ele>
        <time>2017-07-02T14:33:18Z</time>
      </trkpt>
      <trkpt lat="46.326658464968204" lon="11.828585928305984">
        <ele>2331.3299999999999</ele>
        <time>2017-07-02T14:33:29Z</time>
      </trkpt>
      <trkpt lat="46.326672043651342" lon="11.828702185302973">
        <ele>2332.3000000000002</ele>
        <time>2017-07-02T14:33:43Z</time>
      </trkpt>
      <trkpt lat="46.326699620112777" lon="11.828778963536024">
        <ele>2334.2199999999998</ele>
        <time>2017-07-02T14:33:56Z</time>
      </trkpt>
      <trkpt lat="46.326699703931808" lon="11.82886722497642">
        <ele>2337.0999999999999</ele>
        <time>2017-07-02T14:34:10Z</time>
      </trkpt>
      <trkpt lat="46.326722083613276" lon="11.828898321837187">
        <ele>2338.54</ele>
        <time>2017-07-02T14:34:20Z</time>
      </trkpt>
      <trkpt lat="46.326721245422959" lon="11.829001922160387">
        <ele>2339.9899999999998</ele>
        <time>2017-07-02T14:34:33Z</time>
      </trkpt>
      <trkpt lat="46.326739015057683" lon="11.829036707058549">
        <ele>2342.3899999999999</ele>
        <time>2017-07-02T14:34:45Z</time>
      </trkpt>
      <trkpt lat="46.326766507700086" lon="11.829054225236177">
        <ele>2342.8699999999999</ele>
        <time>2017-07-02T14:34:56Z</time>
      </trkpt>
      <trkpt lat="46.32678184658289" lon="11.829062774777412">
        <ele>2343.3499999999999</ele>
        <time>2017-07-02T14:35:12Z</time>
      </trkpt>
      <trkpt lat="46.326778242364526" lon="11.829045675694942">
        <ele>2343.8299999999999</ele>
        <time>2017-07-02T14:35:28Z</time>
      </trkpt>
      <trkpt lat="46.326771955937147" lon="11.829054309055209">
        <ele>2343.3499999999999</ele>
        <time>2017-07-02T14:35:42Z</time>
      </trkpt>
      <trkpt lat="46.326776230707765" lon="11.829054476693273">
        <ele>2343.8299999999999</ele>
        <time>2017-07-02T14:35:54Z</time>
      </trkpt>
      <trkpt lat="46.326763238757849" lon="11.829077359288931">
        <ele>2343.3499999999999</ele>
        <time>2017-07-02T14:36:11Z</time>
      </trkpt>
      <trkpt lat="46.326755359768867" lon="11.829063277691603">
        <ele>2342.3899999999999</ele>
        <time>2017-07-02T14:36:19Z</time>
      </trkpt>
      <trkpt lat="46.326748486608267" lon="11.82906168513">
        <ele>2342.8699999999999</ele>
        <time>2017-07-02T14:36:35Z</time>
      </trkpt>
      <trkpt lat="46.326733734458685" lon="11.829074006527662">
        <ele>2342.3899999999999</ele>
        <time>2017-07-02T14:36:56Z</time>
      </trkpt>
      <trkpt lat="46.326751839369535" lon="11.829074257984757">
        <ele>2342.8699999999999</ele>
        <time>2017-07-02T14:37:04Z</time>
      </trkpt>
      <trkpt lat="46.326775476336479" lon="11.829092111438513">
        <ele>2343.3499999999999</ele>
        <time>2017-07-02T14:37:15Z</time>
      </trkpt>
      <trkpt lat="46.326763657853007" lon="11.82906704954803">
        <ele>2343.3499999999999</ele>
        <time>2017-07-02T14:37:30Z</time>
      </trkpt>
      <trkpt lat="46.326764160767198" lon="11.829065624624491">
        <ele>2343.3499999999999</ele>
        <time>2017-07-02T14:37:48Z</time>
      </trkpt>
      <trkpt lat="46.326755024492741" lon="11.829070653766394">
        <ele>2343.3499999999999</ele>
        <time>2017-07-02T14:38:07Z</time>
      </trkpt>
      <trkpt lat="46.326759215444326" lon="11.82906948029995">
        <ele>2342.8699999999999</ele>
        <time>2017-07-02T14:38:23Z</time>
      </trkpt>
      <trkpt lat="46.326739685609937" lon="11.829066965728998">
        <ele>2342.3899999999999</ele>
        <time>2017-07-02T14:38:42Z</time>
      </trkpt>
      <trkpt lat="46.326737087219954" lon="11.82907241396606">
        <ele>2342.8699999999999</ele>
        <time>2017-07-02T14:38:52Z</time>
      </trkpt>
      <trkpt lat="46.326744630932808" lon="11.829072246327996">
        <ele>2341.9099999999999</ele>
        <time>2017-07-02T14:39:08Z</time>
      </trkpt>
      <trkpt lat="46.326733902096748" lon="11.829079454764724">
        <ele>2342.3899999999999</ele>
        <time>2017-07-02T14:39:33Z</time>
      </trkpt>
      <trkpt lat="46.326732812449336" lon="11.829073755070567">
        <ele>2342.3899999999999</ele>
        <time>2017-07-02T14:39:35Z</time>
      </trkpt>
      <trkpt lat="46.326750414445996" lon="11.829060595482588">
        <ele>2343.8299999999999</ele>
        <time>2017-07-02T14:39:45Z</time>
      </trkpt>
      <trkpt lat="46.326762735843658" lon="11.829069564118981">
        <ele>2343.3499999999999</ele>
        <time>2017-07-02T14:40:02Z</time>
      </trkpt>
      <trkpt lat="46.326795509085059" lon="11.829065289348364">
        <ele>2343.3499999999999</ele>
        <time>2017-07-02T14:40:13Z</time>
      </trkpt>
      <trkpt lat="46.326795844361186" lon="11.829083058983088">
        <ele>2342.8699999999999</ele>
        <time>2017-07-02T14:40:27Z</time>
      </trkpt>
      <trkpt lat="46.326788300648332" lon="11.829092362895608">
        <ele>2342.8699999999999</ele>
        <time>2017-07-02T14:40:38Z</time>
      </trkpt>
      <trkpt lat="46.326787881553173" lon="11.829099906608462">
        <ele>2342.8699999999999</ele>
        <time>2017-07-02T14:40:51Z</time>
      </trkpt>
      <trkpt lat="46.326812272891402" lon="11.829114491119981">
        <ele>2339.9899999999998</ele>
        <time>2017-07-02T14:41:00Z</time>
      </trkpt>
      <trkpt lat="46.326803723350167" lon="11.8291584122926">
        <ele>2339.9899999999998</ele>
        <time>2017-07-02T14:41:09Z</time>
      </trkpt>
      <trkpt lat="46.32681654766202" lon="11.829245081171393">
        <ele>2339.02</ele>
        <time>2017-07-02T14:41:19Z</time>
      </trkpt>
      <trkpt lat="46.326792407780886" lon="11.829286655411124">
        <ele>2337.5799999999999</ele>
        <time>2017-07-02T14:41:28Z</time>
      </trkpt>
      <trkpt lat="46.326773297041655" lon="11.829316494986415">
        <ele>2336.1399999999999</ele>
        <time>2017-07-02T14:41:35Z</time>
      </trkpt>
      <trkpt lat="46.326754353940487" lon="11.829391680657864">
        <ele>2333.7399999999998</ele>
        <time>2017-07-02T14:41:42Z</time>
      </trkpt>
      <trkpt lat="46.32673398591578" lon="11.829480780288577">
        <ele>2330.8499999999999</ele>
        <time>2017-07-02T14:41:50Z</time>
      </trkpt>
      <trkpt lat="46.326649161055684" lon="11.829632325097919">
        <ele>2329.4099999999999</ele>
        <time>2017-07-02T14:42:02Z</time>
      </trkpt>
      <trkpt lat="46.326612196862698" lon="11.829702900722623">
        <ele>2329.4099999999999</ele>
        <time>2017-07-02T14:42:16Z</time>
      </trkpt>
      <trkpt lat="46.326569449156523" lon="11.829753024503589">
        <ele>2327.9699999999998</ele>
        <time>2017-07-02T14:42:26Z</time>
      </trkpt>
      <trkpt lat="46.326564503833652" lon="11.829803315922618">
        <ele>2326.0500000000002</ele>
        <time>2017-07-02T14:42:34Z</time>
      </trkpt>
      <trkpt lat="46.326546063646674" lon="11.829901551827788">
        <ele>2324.1199999999999</ele>
        <time>2017-07-02T14:42:41Z</time>
      </trkpt>
      <trkpt lat="46.32656785659492" lon="11.829955950379372">
        <ele>2324.6100000000001</ele>
        <time>2017-07-02T14:42:46Z</time>
      </trkpt>
      <trkpt lat="46.326569365337491" lon="11.829971373081207">
        <ele>2325.5700000000002</ele>
        <time>2017-07-02T14:42:53Z</time>
      </trkpt>
      <trkpt lat="46.326591242104769" lon="11.830131970345974">
        <ele>2325.0900000000001</ele>
        <time>2017-07-02T14:43:04Z</time>
      </trkpt>
      <trkpt lat="46.326585877686739" lon="11.830163737758994">
        <ele>2324.6100000000001</ele>
        <time>2017-07-02T14:43:07Z</time>
      </trkpt>
      <trkpt lat="46.326559642329812" lon="11.830229954794049">
        <ele>2324.1199999999999</ele>
        <time>2017-07-02T14:43:12Z</time>
      </trkpt>
      <trkpt lat="46.326575903221965" lon="11.830306984484196">
        <ele>2324.1199999999999</ele>
        <time>2017-07-02T14:43:18Z</time>
      </trkpt>
      <trkpt lat="46.326592415571213" lon="11.830426845699549">
        <ele>2324.6100000000001</ele>
        <time>2017-07-02T14:43:27Z</time>
      </trkpt>
      <trkpt lat="46.326650083065033" lon="11.830533379688859">
        <ele>2326.5300000000002</ele>
        <time>2017-07-02T14:43:40Z</time>
      </trkpt>
      <trkpt lat="46.326657710596919" lon="11.83054318651557">
        <ele>2327.0100000000002</ele>
        <time>2017-07-02T14:43:41Z</time>
      </trkpt>
      <trkpt lat="46.326652346178889" lon="11.830670591443777">
        <ele>2326.0500000000002</ele>
        <time>2017-07-02T14:43:52Z</time>
      </trkpt>
      <trkpt lat="46.326629044488072" lon="11.830705041065812">
        <ele>2324.1199999999999</ele>
        <time>2017-07-02T14:43:55Z</time>
      </trkpt>
      <trkpt lat="46.326618148013949" lon="11.83087301440537">
        <ele>2325.5700000000002</ele>
        <time>2017-07-02T14:44:09Z</time>
      </trkpt>
      <trkpt lat="46.326609766110778" lon="11.8309819791466">
        <ele>2326.0500000000002</ele>
        <time>2017-07-02T14:44:19Z</time>
      </trkpt>
      <trkpt lat="46.326600713655353" lon="11.831011986359954">
        <ele>2325.5700000000002</ele>
        <time>2017-07-02T14:44:21Z</time>
      </trkpt>
      <trkpt lat="46.326577495783567" lon="11.831113239750266">
        <ele>2325.5700000000002</ele>
        <time>2017-07-02T14:44:33Z</time>
      </trkpt>
      <trkpt lat="46.326595349237323" lon="11.831139223650098">
        <ele>2326.5300000000002</ele>
        <time>2017-07-02T14:44:37Z</time>
      </trkpt>
      <trkpt lat="46.326655698940158" lon="11.831191275268793">
        <ele>2325.0900000000001</ele>
        <time>2017-07-02T14:44:48Z</time>
      </trkpt>
      <trkpt lat="46.326688975095749" lon="11.831232011318207">
        <ele>2324.1199999999999</ele>
        <time>2017-07-02T14:44:57Z</time>
      </trkpt>
      <trkpt lat="46.326756533235312" lon="11.831305185332894">
        <ele>2324.1199999999999</ele>
        <time>2017-07-02T14:45:09Z</time>
      </trkpt>
      <trkpt lat="46.326771536841989" lon="11.831320188939571">
        <ele>2325.5700000000002</ele>
        <time>2017-07-02T14:45:21Z</time>
      </trkpt>
      <trkpt lat="46.326768603175879" lon="11.831294959411025">
        <ele>2325.5700000000002</ele>
        <time>2017-07-02T14:45:39Z</time>
      </trkpt>
      <trkpt lat="46.326804896816611" lon="11.831299066543579">
        <ele>2325.5700000000002</ele>
        <time>2017-07-02T14:45:57Z</time>
      </trkpt>
      <trkpt lat="46.326855858787894" lon="11.831301329657435">
        <ele>2325.5700000000002</ele>
        <time>2017-07-02T14:46:02Z</time>
      </trkpt>
      <trkpt lat="46.326901707798243" lon="11.831297557801008">
        <ele>2325.5700000000002</ele>
        <time>2017-07-02T14:46:07Z</time>
      </trkpt>
      <trkpt lat="46.326977396383882" lon="11.831338629126549">
        <ele>2327.0100000000002</ele>
        <time>2017-07-02T14:46:17Z</time>
      </trkpt>
      <trkpt lat="46.327016958966851" lon="11.83139830827713">
        <ele>2327.9699999999998</ele>
        <time>2017-07-02T14:46:26Z</time>
      </trkpt>
      <trkpt lat="46.327085522934794" lon="11.831445330753922">
        <ele>2328.9299999999998</ele>
        <time>2017-07-02T14:46:37Z</time>
      </trkpt>
      <trkpt lat="46.327093904837966" lon="11.831472991034389">
        <ele>2330.3699999999999</ele>
        <time>2017-07-02T14:46:49Z</time>
      </trkpt>
      <trkpt lat="46.327130366116762" lon="11.831489503383636">
        <ele>2330.8499999999999</ele>
        <time>2017-07-02T14:47:07Z</time>
      </trkpt>
      <trkpt lat="46.327168922871351" lon="11.831528814509511">
        <ele>2332.7800000000002</ele>
        <time>2017-07-02T14:47:17Z</time>
      </trkpt>
      <trkpt lat="46.327202450484037" lon="11.831551780924201">
        <ele>2334.2199999999998</ele>
        <time>2017-07-02T14:47:24Z</time>
      </trkpt>
      <trkpt lat="46.327256932854652" lon="11.83163920417428">
        <ele>2333.7399999999998</ele>
        <time>2017-07-02T14:47:34Z</time>
      </trkpt>
      <trkpt lat="46.327262716367841" lon="11.831650519743562">
        <ele>2333.2600000000002</ele>
        <time>2017-07-02T14:47:35Z</time>
      </trkpt>
      <trkpt lat="46.32728517986834" lon="11.831712378188968">
        <ele>2332.3000000000002</ele>
        <time>2017-07-02T14:47:41Z</time>
      </trkpt>
      <trkpt lat="46.327337566763163" lon="11.831767028197646">
        <ele>2331.3299999999999</ele>
        <time>2017-07-02T14:47:50Z</time>
      </trkpt>
      <trkpt lat="46.327347708866" lon="11.831770464777946">
        <ele>2330.8499999999999</ele>
        <time>2017-07-02T14:47:52Z</time>
      </trkpt>
      <trkpt lat="46.327364724129438" lon="11.83177700266242">
        <ele>2329.8899999999999</ele>
        <time>2017-07-02T14:47:54Z</time>
      </trkpt>
      <trkpt lat="46.327428594231606" lon="11.831929385662079">
        <ele>2329.8899999999999</ele>
        <time>2017-07-02T14:48:06Z</time>
      </trkpt>
      <trkpt lat="46.327471928671002" lon="11.832026280462742">
        <ele>2330.3699999999999</ele>
        <time>2017-07-02T14:48:15Z</time>
      </trkpt>
      <trkpt lat="46.327469246461987" lon="11.832140274345875">
        <ele>2329.8899999999999</ele>
        <time>2017-07-02T14:48:24Z</time>
      </trkpt>
      <trkpt lat="46.327459691092372" lon="11.832211017608643">
        <ele>2328.9299999999998</ele>
        <time>2017-07-02T14:48:30Z</time>
      </trkpt>
      <trkpt lat="46.327494056895375" lon="11.832372704520822">
        <ele>2327.4899999999998</ele>
        <time>2017-07-02T14:48:42Z</time>
      </trkpt>
      <trkpt lat="46.327471761032939" lon="11.832480914890766">
        <ele>2326.0500000000002</ele>
        <time>2017-07-02T14:48:54Z</time>
      </trkpt>
      <trkpt lat="46.32747326977551" lon="11.832554088905454">
        <ele>2325.0900000000001</ele>
        <time>2017-07-02T14:49:02Z</time>
      </trkpt>
      <trkpt lat="46.327424654737115" lon="11.83264285326004">
        <ele>2324.6100000000001</ele>
        <time>2017-07-02T14:49:09Z</time>
      </trkpt>
      <trkpt lat="46.327427085489035" lon="11.832771515473723">
        <ele>2321.2399999999998</ele>
        <time>2017-07-02T14:49:21Z</time>
      </trkpt>
      <trkpt lat="46.327429516240954" lon="11.832781489938498">
        <ele>2320.7600000000002</ele>
        <time>2017-07-02T14:49:22Z</time>
      </trkpt>
      <trkpt lat="46.327431192621589" lon="11.832818537950516">
        <ele>2320.2800000000002</ele>
        <time>2017-07-02T14:49:27Z</time>
      </trkpt>
      <trkpt lat="46.327426163479686" lon="11.83288374915719">
        <ele>2318.8400000000001</ele>
        <time>2017-07-02T14:49:33Z</time>
      </trkpt>
      <trkpt lat="46.327354665845633" lon="11.833028085529804">
        <ele>2316.9099999999999</ele>
        <time>2017-07-02T14:49:45Z</time>
      </trkpt>
      <trkpt lat="46.327260956168175" lon="11.833154316991568">
        <ele>2315.4699999999998</ele>
        <time>2017-07-02T14:49:58Z</time>
      </trkpt>
      <trkpt lat="46.327219968661666" lon="11.833209469914436">
        <ele>2315.4699999999998</ele>
        <time>2017-07-02T14:50:09Z</time>
      </trkpt>
      <trkpt lat="46.327186357229948" lon="11.833289433270693">
        <ele>2314.5100000000002</ele>
        <time>2017-07-02T14:50:18Z</time>
      </trkpt>
      <trkpt lat="46.327161965891719" lon="11.833375683054328">
        <ele>2313.5500000000002</ele>
        <time>2017-07-02T14:50:26Z</time>
      </trkpt>
      <trkpt lat="46.32711024954915" lon="11.833510715514421">
        <ele>2312.1100000000001</ele>
        <time>2017-07-02T14:50:36Z</time>
      </trkpt>
      <trkpt lat="46.327026095241308" lon="11.833660332486033">
        <ele>2310.6700000000001</ele>
        <time>2017-07-02T14:50:49Z</time>
      </trkpt>
      <trkpt lat="46.326952753588557" lon="11.833717497065663">
        <ele>2310.1900000000001</ele>
        <time>2017-07-02T14:50:59Z</time>
      </trkpt>
      <trkpt lat="46.326877065002918" lon="11.833827886730433">
        <ele>2309.2199999999998</ele>
        <time>2017-07-02T14:51:10Z</time>
      </trkpt>
      <trkpt lat="46.326796179637313" lon="11.833927799016237">
        <ele>2308.2600000000002</ele>
        <time>2017-07-02T14:51:21Z</time>
      </trkpt>
      <trkpt lat="46.326701883226633" lon="11.833973061293364">
        <ele>2308.2600000000002</ele>
        <time>2017-07-02T14:51:32Z</time>
      </trkpt>
      <trkpt lat="46.326619070023298" lon="11.834046402946115">
        <ele>2306.8200000000002</ele>
        <time>2017-07-02T14:51:44Z</time>
      </trkpt>
      <trkpt lat="46.326501052826643" lon="11.834066519513726">
        <ele>2307.3000000000002</ele>
        <time>2017-07-02T14:51:57Z</time>
      </trkpt>
      <trkpt lat="46.326431147754192" lon="11.834071297198534">
        <ele>2308.7399999999998</ele>
        <time>2017-07-02T14:52:09Z</time>
      </trkpt>
      <trkpt lat="46.326362164691091" lon="11.834150170907378">
        <ele>2307.3000000000002</ele>
        <time>2017-07-02T14:52:22Z</time>
      </trkpt>
      <trkpt lat="46.326330816373229" lon="11.834210185334086">
        <ele>2305.8600000000001</ele>
        <time>2017-07-02T14:52:34Z</time>
      </trkpt>
      <trkpt lat="46.326314471662045" lon="11.834227116778493">
        <ele>2305.3800000000001</ele>
        <time>2017-07-02T14:52:43Z</time>
      </trkpt>
      <trkpt lat="46.326236352324486" lon="11.834306409582496">
        <ele>2303.9400000000001</ele>
        <time>2017-07-02T14:52:53Z</time>
      </trkpt>
      <trkpt lat="46.326198717579246" lon="11.83438821695745">
        <ele>2304.4200000000001</ele>
        <time>2017-07-02T14:53:00Z</time>
      </trkpt>
      <trkpt lat="46.326154628768563" lon="11.834449740126729">
        <ele>2304.9000000000001</ele>
        <time>2017-07-02T14:53:10Z</time>
      </trkpt>
      <trkpt lat="46.326113641262054" lon="11.834463654085994">
        <ele>2303.9400000000001</ele>
        <time>2017-07-02T14:53:18Z</time>
      </trkpt>
      <trkpt lat="46.326094530522823" lon="11.834450662136078">
        <ele>2302.98</ele>
        <time>2017-07-02T14:53:27Z</time>
      </trkpt>
      <trkpt lat="46.32606603205204" lon="11.834484860301018">
        <ele>2302.0100000000002</ele>
        <time>2017-07-02T14:53:32Z</time>
      </trkpt>
      <trkpt lat="46.325968466699123" lon="11.834496175870299">
        <ele>2300.5700000000002</ele>
        <time>2017-07-02T14:53:43Z</time>
      </trkpt>
      <trkpt lat="46.325884647667408" lon="11.834538755938411">
        <ele>2298.1700000000001</ele>
        <time>2017-07-02T14:53:54Z</time>
      </trkpt>
      <trkpt lat="46.325799319893122" lon="11.834528362378478">
        <ele>2298.1700000000001</ele>
        <time>2017-07-02T14:54:04Z</time>
      </trkpt>
      <trkpt lat="46.325733354315162" lon="11.83453137986362">
        <ele>2297.6900000000001</ele>
        <time>2017-07-02T14:54:14Z</time>
      </trkpt>
      <trkpt lat="46.325682224705815" lon="11.834557531401515">
        <ele>2296.73</ele>
        <time>2017-07-02T14:54:24Z</time>
      </trkpt>
      <trkpt lat="46.325636710971594" lon="11.83462961576879">
        <ele>2294.3200000000002</ele>
        <time>2017-07-02T14:54:38Z</time>
      </trkpt>
      <trkpt lat="46.325563285499811" lon="11.834640512242913">
        <ele>2291.9200000000001</ele>
        <time>2017-07-02T14:54:50Z</time>
      </trkpt>
      <trkpt lat="46.325506707653403" lon="11.834694072604179">
        <ele>2289.52</ele>
        <time>2017-07-02T14:55:01Z</time>
      </trkpt>
      <trkpt lat="46.325462367385626" lon="11.834755511954427">
        <ele>2288.0799999999999</ele>
        <time>2017-07-02T14:55:14Z</time>
      </trkpt>
      <trkpt lat="46.325375782325864" lon="11.834842683747411">
        <ele>2286.1500000000001</ele>
        <time>2017-07-02T14:55:29Z</time>
      </trkpt>
      <trkpt lat="46.325325910001993" lon="11.834902362897992">
        <ele>2284.23</ele>
        <time>2017-07-02T14:55:38Z</time>
      </trkpt>
      <trkpt lat="46.325227590277791" lon="11.83494720607996">
        <ele>2283.27</ele>
        <time>2017-07-02T14:55:49Z</time>
      </trkpt>
      <trkpt lat="46.325163803994656" lon="11.834998335689306">
        <ele>2281.8299999999999</ele>
        <time>2017-07-02T14:55:59Z</time>
      </trkpt>
      <trkpt lat="46.325132036581635" lon="11.835050638765097">
        <ele>2280.3800000000001</ele>
        <time>2017-07-02T14:56:08Z</time>
      </trkpt>
      <trkpt lat="46.325106890872121" lon="11.835109731182456">
        <ele>2279.4200000000001</ele>
        <time>2017-07-02T14:56:16Z</time>
      </trkpt>
      <trkpt lat="46.32505995221436" lon="11.835162537172437">
        <ele>2277.5</ele>
        <time>2017-07-02T14:56:25Z</time>
      </trkpt>
      <trkpt lat="46.325041260570288" lon="11.835157759487629">
        <ele>2277.02</ele>
        <time>2017-07-02T14:56:32Z</time>
      </trkpt>
      <trkpt lat="46.325012175366282" lon="11.835198495537043">
        <ele>2276.0599999999999</ele>
        <time>2017-07-02T14:56:43Z</time>
      </trkpt>
      <trkpt lat="46.32495878264308" lon="11.835252391174436">
        <ele>2274.6199999999999</ele>
        <time>2017-07-02T14:56:53Z</time>
      </trkpt>
      <trkpt lat="46.324896002188325" lon="11.835308382287621">
        <ele>2272.6900000000001</ele>
        <time>2017-07-02T14:57:01Z</time>
      </trkpt>
      <trkpt lat="46.324865492060781" lon="11.835362361744046">
        <ele>2271.25</ele>
        <time>2017-07-02T14:57:10Z</time>
      </trkpt>
      <trkpt lat="46.324807405471802" lon="11.835413910448551">
        <ele>2270.29</ele>
        <time>2017-07-02T14:57:20Z</time>
      </trkpt>
      <trkpt lat="46.324755772948265" lon="11.835473002865911">
        <ele>2269.3299999999999</ele>
        <time>2017-07-02T14:57:28Z</time>
      </trkpt>
      <trkpt lat="46.324694752693176" lon="11.835496891289949">
        <ele>2267.8899999999999</ele>
        <time>2017-07-02T14:57:38Z</time>
      </trkpt>
      <trkpt lat="46.324672708287835" lon="11.835533017292619">
        <ele>2266.9299999999998</ele>
        <time>2017-07-02T14:57:42Z</time>
      </trkpt>
      <trkpt lat="46.324618645012379" lon="11.835614154115319">
        <ele>2265.48</ele>
        <time>2017-07-02T14:57:51Z</time>
      </trkpt>
      <trkpt lat="46.324590733274817" lon="11.835628403350711">
        <ele>2265</ele>
        <time>2017-07-02T14:57:54Z</time>
      </trkpt>
      <trkpt lat="46.324520828202367" lon="11.835714485496283">
        <ele>2263.5599999999999</ele>
        <time>2017-07-02T14:58:07Z</time>
      </trkpt>
      <trkpt lat="46.324498532339931" lon="11.835752287879586">
        <ele>2262.5999999999999</ele>
        <time>2017-07-02T14:58:17Z</time>
      </trkpt>
      <trkpt lat="46.32448679767549" lon="11.835754802450538">
        <ele>2262.5999999999999</ele>
        <time>2017-07-02T14:58:19Z</time>
      </trkpt>
      <trkpt lat="46.324424855411053" lon="11.835747761651874">
        <ele>2262.5999999999999</ele>
        <time>2017-07-02T14:58:28Z</time>
      </trkpt>
      <trkpt lat="46.324390405789018" lon="11.83575295843184">
        <ele>2262.1199999999999</ele>
        <time>2017-07-02T14:58:40Z</time>
      </trkpt>
      <trkpt lat="46.324357967823744" lon="11.835788749158382">
        <ele>2261.6399999999999</ele>
        <time>2017-07-02T14:58:50Z</time>
      </trkpt>
      <trkpt lat="46.324371043592691" lon="11.835808865725994">
        <ele>2261.6399999999999</ele>
        <time>2017-07-02T14:58:52Z</time>
      </trkpt>
      <trkpt lat="46.324374480172992" lon="11.835845243185759">
        <ele>2261.1599999999999</ele>
        <time>2017-07-02T14:58:54Z</time>
      </trkpt>
      <trkpt lat="46.32434313185513" lon="11.835919506847858">
        <ele>2260.1999999999998</ele>
        <time>2017-07-02T14:59:05Z</time>
      </trkpt>
      <trkpt lat="46.324311532080173" lon="11.83597675524652">
        <ele>2257.79</ele>
        <time>2017-07-02T14:59:15Z</time>
      </trkpt>
      <trkpt lat="46.32425612770021" lon="11.83600558899343">
        <ele>2257.79</ele>
        <time>2017-07-02T14:59:26Z</time>
      </trkpt>
      <trkpt lat="46.324225198477507" lon="11.836070045828819">
        <ele>2255.3899999999999</ele>
        <time>2017-07-02T14:59:36Z</time>
      </trkpt>
      <trkpt lat="46.324185132980347" lon="11.836125114932656">
        <ele>2255.3899999999999</ele>
        <time>2017-07-02T14:59:46Z</time>
      </trkpt>
      <trkpt lat="46.324161579832435" lon="11.836191415786743">
        <ele>2253.9499999999998</ele>
        <time>2017-07-02T14:59:56Z</time>
      </trkpt>
      <trkpt lat="46.324112294241786" lon="11.836284706369042">
        <ele>2252.0300000000002</ele>
        <time>2017-07-02T15:00:07Z</time>
      </trkpt>
      <trkpt lat="46.324084717780352" lon="11.836313372477889">
        <ele>2251.0599999999999</ele>
        <time>2017-07-02T15:00:17Z</time>
      </trkpt>
      <trkpt lat="46.324070636183023" lon="11.836374057456851">
        <ele>2249.6199999999999</ele>
        <time>2017-07-02T15:00:29Z</time>
      </trkpt>
      <trkpt lat="46.324100894853473" lon="11.836346564814448">
        <ele>2249.1399999999999</ele>
        <time>2017-07-02T15:00:39Z</time>
      </trkpt>
      <trkpt lat="46.324068205431104" lon="11.836378751322627">
        <ele>2248.1799999999998</ele>
        <time>2017-07-02T15:00:48Z</time>
      </trkpt>
      <trkpt lat="46.32407826371491" lon="11.83639450930059">
        <ele>2247.2199999999998</ele>
        <time>2017-07-02T15:00:56Z</time>
      </trkpt>
      <trkpt lat="46.324103074148297" lon="11.83643608354032">
        <ele>2245.3000000000002</ele>
        <time>2017-07-02T15:01:06Z</time>
      </trkpt>
      <trkpt lat="46.324091088026762" lon="11.836482938379049">
        <ele>2243.3699999999999</ele>
        <time>2017-07-02T15:01:15Z</time>
      </trkpt>
      <trkpt lat="46.32407826371491" lon="11.836518896743655">
        <ele>2241.9299999999998</ele>
        <time>2017-07-02T15:01:24Z</time>
      </trkpt>
      <trkpt lat="46.324089579284191" lon="11.836558626964688">
        <ele>2240.4899999999998</ele>
        <time>2017-07-02T15:01:33Z</time>
      </trkpt>
      <trkpt lat="46.324089495465159" lon="11.836565919220448">
        <ele>2240.0100000000002</ele>
        <time>2017-07-02T15:01:34Z</time>
      </trkpt>
      <trkpt lat="46.32410273887217" lon="11.836624089628458">
        <ele>2238.5700000000002</ele>
        <time>2017-07-02T15:01:44Z</time>
      </trkpt>
      <trkpt lat="46.324085555970669" lon="11.836669687181711">
        <ele>2237.1300000000001</ele>
        <time>2017-07-02T15:01:56Z</time>
      </trkpt>
      <trkpt lat="46.324092429131269" lon="11.836664155125618">
        <ele>2237.1300000000001</ele>
        <time>2017-07-02T15:01:59Z</time>
      </trkpt>
      <trkpt lat="46.324102990329266" lon="11.83671310544014">
        <ele>2235.6799999999998</ele>
        <time>2017-07-02T15:02:07Z</time>
      </trkpt>
      <trkpt lat="46.324102822691202" lon="11.836744453758001">
        <ele>2234.7199999999998</ele>
        <time>2017-07-02T15:02:14Z</time>
      </trkpt>
      <trkpt lat="46.324099469929934" lon="11.836804803460836">
        <ele>2232.8000000000002</ele>
        <time>2017-07-02T15:02:23Z</time>
      </trkpt>
      <trkpt lat="46.324108019471169" lon="11.836804049089551">
        <ele>2232.3200000000002</ele>
        <time>2017-07-02T15:02:30Z</time>
      </trkpt>
      <trkpt lat="46.324106929823756" lon="11.836872696876526">
        <ele>2230.8800000000001</ele>
        <time>2017-07-02T15:02:39Z</time>
      </trkpt>
      <trkpt lat="46.324096033349633" lon="11.836895579472184">
        <ele>2229.4299999999998</ele>
        <time>2017-07-02T15:02:50Z</time>
      </trkpt>
      <trkpt lat="46.3241046667099" lon="11.836932962760329">
        <ele>2227.9899999999998</ele>
        <time>2017-07-02T15:02:59Z</time>
      </trkpt>
      <trkpt lat="46.324100559577346" lon="11.83696816675365">
        <ele>2226.5500000000002</ele>
        <time>2017-07-02T15:03:03Z</time>
      </trkpt>
      <trkpt lat="46.3240787666291" lon="11.837017284706235">
        <ele>2226.0700000000002</ele>
        <time>2017-07-02T15:03:08Z</time>
      </trkpt>
      <trkpt lat="46.324062338098884" lon="11.837090877816081">
        <ele>2225.1100000000001</ele>
        <time>2017-07-02T15:03:16Z</time>
      </trkpt>
      <trkpt lat="46.324026295915246" lon="11.837145779281855">
        <ele>2224.1500000000001</ele>
        <time>2017-07-02T15:03:22Z</time>
      </trkpt>
      <trkpt lat="46.324028307572007" lon="11.837203279137611">
        <ele>2223.1900000000001</ele>
        <time>2017-07-02T15:03:27Z</time>
      </trkpt>
      <trkpt lat="46.323983045294881" lon="11.837347028777003">
        <ele>2222.71</ele>
        <time>2017-07-02T15:03:39Z</time>
      </trkpt>
      <trkpt lat="46.323965862393379" lon="11.837480636313558">
        <ele>2221.7399999999998</ele>
        <time>2017-07-02T15:03:50Z</time>
      </trkpt>
      <trkpt lat="46.323965778574347" lon="11.837576609104872">
        <ele>2219.3400000000001</ele>
        <time>2017-07-02T15:04:01Z</time>
      </trkpt>
      <trkpt lat="46.323975753039122" lon="11.837644586339593">
        <ele>2217.4200000000001</ele>
        <time>2017-07-02T15:04:10Z</time>
      </trkpt>
      <trkpt lat="46.323982877656817" lon="11.837739469483495">
        <ele>2215.0100000000002</ele>
        <time>2017-07-02T15:04:21Z</time>
      </trkpt>
      <trkpt lat="46.324003832414746" lon="11.837809542194009">
        <ele>2213.0900000000001</ele>
        <time>2017-07-02T15:04:31Z</time>
      </trkpt>
      <trkpt lat="46.324009783565998" lon="11.837910879403353">
        <ele>2210.6900000000001</ele>
        <time>2017-07-02T15:04:41Z</time>
      </trkpt>
      <trkpt lat="46.32401573471725" lon="11.83796938508749">
        <ele>2209.25</ele>
        <time>2017-07-02T15:04:48Z</time>
      </trkpt>
      <trkpt lat="46.324009951204062" lon="11.838031746447086">
        <ele>2209.25</ele>
        <time>2017-07-02T15:04:58Z</time>
      </trkpt>
      <trkpt lat="46.324030822142959" lon="11.83803241699934">
        <ele>2209.25</ele>
        <time>2017-07-02T15:05:05Z</time>
      </trkpt>
      <trkpt lat="46.32404456846416" lon="11.838096203282475">
        <ele>2208.77</ele>
        <time>2017-07-02T15:05:09Z</time>
      </trkpt>
      <trkpt lat="46.32404456846416" lon="11.838217992335558">
        <ele>2206.8400000000001</ele>
        <time>2017-07-02T15:05:17Z</time>
      </trkpt>
      <trkpt lat="46.324060829356313" lon="11.838298542425036">
        <ele>2205.8800000000001</ele>
        <time>2017-07-02T15:05:23Z</time>
      </trkpt>
      <trkpt lat="46.324060996994376" lon="11.838347408920527">
        <ele>2204.9200000000001</ele>
        <time>2017-07-02T15:05:27Z</time>
      </trkpt>
      <trkpt lat="46.324044233188033" lon="11.838414715602994">
        <ele>2205.4000000000001</ele>
        <time>2017-07-02T15:05:36Z</time>
      </trkpt>
      <trkpt lat="46.324023948982358" lon="11.838486632332206">
        <ele>2205.8800000000001</ele>
        <time>2017-07-02T15:05:48Z</time>
      </trkpt>
      <trkpt lat="46.324012381955981" lon="11.838540779426694">
        <ele>2207.3200000000002</ele>
        <time>2017-07-02T15:05:57Z</time>
      </trkpt>
      <trkpt lat="46.324008526280522" lon="11.838585287332535">
        <ele>2208.77</ele>
        <time>2017-07-02T15:06:03Z</time>
      </trkpt>
      <trkpt lat="46.32399913854897" lon="11.838653516024351">
        <ele>2211.1700000000001</ele>
        <time>2017-07-02T15:06:13Z</time>
      </trkpt>
      <trkpt lat="46.323971142992377" lon="11.838708333671093">
        <ele>2211.6500000000001</ele>
        <time>2017-07-02T15:06:22Z</time>
      </trkpt>
      <trkpt lat="46.323927557095885" lon="11.838736748322845">
        <ele>2213.0900000000001</ele>
        <time>2017-07-02T15:06:33Z</time>
      </trkpt>
      <trkpt lat="46.323891766369343" lon="11.838770527392626">
        <ele>2214.5300000000002</ele>
        <time>2017-07-02T15:06:43Z</time>
      </trkpt>
      <trkpt lat="46.323856897652149" lon="11.838796176016331">
        <ele>2215.98</ele>
        <time>2017-07-02T15:06:53Z</time>
      </trkpt>
      <trkpt lat="46.323846084997058" lon="11.838849317282438">
        <ele>2218.8600000000001</ele>
        <time>2017-07-02T15:07:03Z</time>
      </trkpt>
      <trkpt lat="46.323865950107574" lon="11.83884646743536">
        <ele>2217.9000000000001</ele>
        <time>2017-07-02T15:07:14Z</time>
      </trkpt>
      <trkpt lat="46.323904925957322" lon="11.838920479640365">
        <ele>2217.9000000000001</ele>
        <time>2017-07-02T15:07:21Z</time>
      </trkpt>
      <trkpt lat="46.323903165757656" lon="11.838978817686439">
        <ele>2217.9000000000001</ele>
        <time>2017-07-02T15:07:25Z</time>
      </trkpt>
      <trkpt lat="46.323919845744967" lon="11.839085267856717">
        <ele>2219.3400000000001</ele>
        <time>2017-07-02T15:07:35Z</time>
      </trkpt>
      <trkpt lat="46.323943734169006" lon="11.839188365265727">
        <ele>2218.8600000000001</ele>
        <time>2017-07-02T15:07:46Z</time>
      </trkpt>
      <trkpt lat="46.323942393064499" lon="11.83920512907207">
        <ele>2218.3800000000001</ele>
        <time>2017-07-02T15:07:57Z</time>
      </trkpt>
      <trkpt lat="46.323930826038122" lon="11.83920412324369">
        <ele>2218.8600000000001</ele>
        <time>2017-07-02T15:08:09Z</time>
      </trkpt>
      <trkpt lat="46.323890592902899" lon="11.839191047474742">
        <ele>2218.3800000000001</ele>
        <time>2017-07-02T15:08:19Z</time>
      </trkpt>
      <trkpt lat="46.323860920965672" lon="11.839175121858716">
        <ele>2217.9000000000001</ele>
        <time>2017-07-02T15:08:22Z</time>
      </trkpt>
      <trkpt lat="46.323774252086878" lon="11.839151317253709">
        <ele>2216.46</ele>
        <time>2017-07-02T15:08:33Z</time>
      </trkpt>
      <trkpt lat="46.323781292885542" lon="11.83913379907608">
        <ele>2216.46</ele>
        <time>2017-07-02T15:08:45Z</time>
      </trkpt>
      <trkpt lat="46.323799313977361" lon="11.839131368324161">
        <ele>2215.5</ele>
        <time>2017-07-02T15:08:56Z</time>
      </trkpt>
      <trkpt lat="46.323805432766676" lon="11.839127596467733">
        <ele>2215.5</ele>
        <time>2017-07-02T15:09:14Z</time>
      </trkpt>
      <trkpt lat="46.323810461908579" lon="11.839123740792274">
        <ele>2215.5</ele>
        <time>2017-07-02T15:09:24Z</time>
      </trkpt>
      <trkpt lat="46.323795458301902" lon="11.839101109653711">
        <ele>2215.98</ele>
        <time>2017-07-02T15:09:45Z</time>
      </trkpt>
      <trkpt lat="46.323794284835458" lon="11.839111587032676">
        <ele>2215.5</ele>
        <time>2017-07-02T15:10:07Z</time>
      </trkpt>
      <trkpt lat="46.32379881106317" lon="11.839122483506799">
        <ele>2215.5</ele>
        <time>2017-07-02T15:10:30Z</time>
      </trkpt>
      <trkpt lat="46.323797721415758" lon="11.839133631438017">
        <ele>2215.98</ele>
        <time>2017-07-02T15:10:56Z</time>
      </trkpt>
      <trkpt lat="46.323793362826109" lon="11.839138409122825">
        <ele>2215.5</ele>
        <time>2017-07-02T15:11:25Z</time>
      </trkpt>
      <trkpt lat="46.323811048641801" lon="11.839128518477082">
        <ele>2215.5</ele>
        <time>2017-07-02T15:11:53Z</time>
      </trkpt>
      <trkpt lat="46.323801325634122" lon="11.839138409122825">
        <ele>2215.5</ele>
        <time>2017-07-02T15:12:16Z</time>
      </trkpt>
      <trkpt lat="46.32379487156868" lon="11.8390878662467">
        <ele>2215.98</ele>
        <time>2017-07-02T15:12:34Z</time>
      </trkpt>
      <trkpt lat="46.323785651475191" lon="11.839116448536515">
        <ele>2215.98</ele>
        <time>2017-07-02T15:12:48Z</time>
      </trkpt>
      <trkpt lat="46.323808869346976" lon="11.839116113260388">
        <ele>2215.5</ele>
        <time>2017-07-02T15:13:00Z</time>
      </trkpt>
      <trkpt lat="46.323811300098896" lon="11.839102869853377">
        <ele>2215.5</ele>
        <time>2017-07-02T15:13:13Z</time>
      </trkpt>
      <trkpt lat="46.323809372261167" lon="11.839123573154211">
        <ele>2215.5</ele>
        <time>2017-07-02T15:13:31Z</time>
      </trkpt>
      <trkpt lat="46.323803253471851" lon="11.839114520698786">
        <ele>2215.5</ele>
        <time>2017-07-02T15:13:56Z</time>
      </trkpt>
      <trkpt lat="46.323798894882202" lon="11.839118544012308">
        <ele>2215.5</ele>
        <time>2017-07-02T15:14:17Z</time>
      </trkpt>
      <trkpt lat="46.323812641203403" lon="11.83912156149745">
        <ele>2215.5</ele>
        <time>2017-07-02T15:14:45Z</time>
      </trkpt>
      <trkpt lat="46.323810294270515" lon="11.839133044704795">
        <ele>2215.5</ele>
        <time>2017-07-02T15:15:09Z</time>
      </trkpt>
      <trkpt lat="46.32381540723145" lon="11.839128099381924">
        <ele>2215.98</ele>
        <time>2017-07-02T15:15:42Z</time>
      </trkpt>
      <trkpt lat="46.323826555162668" lon="11.839110665023327">
        <ele>2215.5</ele>
        <time>2017-07-02T15:16:13Z</time>
      </trkpt>
      <trkpt lat="46.32382613606751" lon="11.83909272775054">
        <ele>2215.5</ele>
        <time>2017-07-02T15:16:38Z</time>
      </trkpt>
      <trkpt lat="46.323816161602736" lon="11.839114185422659">
        <ele>2216.46</ele>
        <time>2017-07-02T15:16:57Z</time>
      </trkpt>
      <trkpt lat="46.323804929852486" lon="11.839120220392942">
        <ele>2216.9400000000001</ele>
        <time>2017-07-02T15:17:04Z</time>
      </trkpt>
      <trkpt lat="46.323792776092887" lon="11.839126506820321">
        <ele>2216.9400000000001</ele>
        <time>2017-07-02T15:17:15Z</time>
      </trkpt>
      <trkpt lat="46.323793195188046" lon="11.839100774377584">
        <ele>2216.9400000000001</ele>
        <time>2017-07-02T15:17:27Z</time>
      </trkpt>
      <trkpt lat="46.323785902932286" lon="11.839111503213644">
        <ele>2216.9400000000001</ele>
        <time>2017-07-02T15:17:40Z</time>
      </trkpt>
      <trkpt lat="46.323821106925607" lon="11.839136397466063">
        <ele>2216.9400000000001</ele>
        <time>2017-07-02T15:17:53Z</time>
      </trkpt>
      <trkpt lat="46.323814485222101" lon="11.839138492941856">
        <ele>2216.9400000000001</ele>
        <time>2017-07-02T15:18:08Z</time>
      </trkpt>
      <trkpt lat="46.323786405846477" lon="11.839165315032005">
        <ele>2216.46</ele>
        <time>2017-07-02T15:18:22Z</time>
      </trkpt>
      <trkpt lat="46.323723457753658" lon="11.839220635592937">
        <ele>2216.46</ele>
        <time>2017-07-02T15:18:33Z</time>
      </trkpt>
      <trkpt lat="46.323696048930287" lon="11.839215690270066">
        <ele>2215.98</ele>
        <time>2017-07-02T15:18:36Z</time>
      </trkpt>
      <trkpt lat="46.323621785268188" lon="11.839272519573569">
        <ele>2215.0100000000002</ele>
        <time>2017-07-02T15:18:45Z</time>
      </trkpt>
      <trkpt lat="46.323592448607087" lon="11.83928769081831">
        <ele>2215.0100000000002</ele>
        <time>2017-07-02T15:18:49Z</time>
      </trkpt>
      <trkpt lat="46.323576355352998" lon="11.839309902861714">
        <ele>2215.0100000000002</ele>
        <time>2017-07-02T15:18:53Z</time>
      </trkpt>
      <trkpt lat="46.323564704507589" lon="11.839321637526155">
        <ele>2215.0100000000002</ele>
        <time>2017-07-02T15:18:55Z</time>
      </trkpt>
      <trkpt lat="46.323505444452167" lon="11.839378802105784">
        <ele>2214.5300000000002</ele>
        <time>2017-07-02T15:19:05Z</time>
      </trkpt>
      <trkpt lat="46.323447609320283" lon="11.839490532875061">
        <ele>2215.98</ele>
        <time>2017-07-02T15:19:16Z</time>
      </trkpt>
      <trkpt lat="46.323407962918282" lon="11.839591870084405">
        <ele>2216.46</ele>
        <time>2017-07-02T15:19:26Z</time>
      </trkpt>
      <trkpt lat="46.323368735611439" lon="11.839654063805938">
        <ele>2216.9400000000001</ele>
        <time>2017-07-02T15:19:37Z</time>
      </trkpt>
      <trkpt lat="46.323280055075884" lon="11.839789096266031">
        <ele>2215.98</ele>
        <time>2017-07-02T15:19:50Z</time>
      </trkpt>
      <trkpt lat="46.323270248249173" lon="11.839810302481055">
        <ele>2215.98</ele>
        <time>2017-07-02T15:19:52Z</time>
      </trkpt>
      <trkpt lat="46.323222974315286" lon="11.839883727952838">
        <ele>2215.5</ele>
        <time>2017-07-02T15:19:58Z</time>
      </trkpt>
      <trkpt lat="46.323104202747345" lon="11.839977856725454">
        <ele>2214.5300000000002</ele>
        <time>2017-07-02T15:20:11Z</time>
      </trkpt>
      <trkpt lat="46.323018120601773" lon="11.840003086254001">
        <ele>2213.5700000000002</ele>
        <time>2017-07-02T15:20:21Z</time>
      </trkpt>
      <trkpt lat="46.32297889329493" lon="11.840023202821612">
        <ele>2212.6100000000001</ele>
        <time>2017-07-02T15:20:25Z</time>
      </trkpt>
      <trkpt lat="46.32287722080946" lon="11.840114062651992">
        <ele>2211.6500000000001</ele>
        <time>2017-07-02T15:20:38Z</time>
      </trkpt>
      <trkpt lat="46.322870682924986" lon="11.840112302452326">
        <ele>2211.6500000000001</ele>
        <time>2017-07-02T15:20:39Z</time>
      </trkpt>
      <trkpt lat="46.322830030694604" lon="11.840135185047984">
        <ele>2210.21</ele>
        <time>2017-07-02T15:20:44Z</time>
      </trkpt>
      <trkpt lat="46.322781667113304" lon="11.840276001021266">
        <ele>2210.21</ele>
        <time>2017-07-02T15:20:54Z</time>
      </trkpt>
      <trkpt lat="46.322747049853206" lon="11.840333500877023">
        <ele>2209.73</ele>
        <time>2017-07-02T15:20:59Z</time>
      </trkpt>
      <trkpt lat="46.322711342945695" lon="11.840451015159488">
        <ele>2207.8099999999999</ele>
        <time>2017-07-02T15:21:11Z</time>
      </trkpt>
      <trkpt lat="46.322675803676248" lon="11.840561740100384">
        <ele>2206.3600000000001</ele>
        <time>2017-07-02T15:21:22Z</time>
      </trkpt>
      <trkpt lat="46.322662811726332" lon="11.840582946315408">
        <ele>2205.4000000000001</ele>
        <time>2017-07-02T15:21:25Z</time>
      </trkpt>
      <trkpt lat="46.322584608569741" lon="11.840704819187522">
        <ele>2206.3600000000001</ele>
        <time>2017-07-02T15:21:36Z</time>
      </trkpt>
      <trkpt lat="46.322529455646873" lon="11.840777909383178">
        <ele>2207.8099999999999</ele>
        <time>2017-07-02T15:21:45Z</time>
      </trkpt>
      <trkpt lat="46.32249659858644" lon="11.840846724808216">
        <ele>2206.8400000000001</ele>
        <time>2017-07-02T15:21:52Z</time>
      </trkpt>
      <trkpt lat="46.3224365003407" lon="11.840937919914722">
        <ele>2205.4000000000001</ele>
        <time>2017-07-02T15:22:01Z</time>
      </trkpt>
      <trkpt lat="46.322393249720335" lon="11.841041939333081">
        <ele>2204.9200000000001</ele>
        <time>2017-07-02T15:22:09Z</time>
      </trkpt>
      <trkpt lat="46.322304485365748" lon="11.841119220480323">
        <ele>2206.8400000000001</ele>
        <time>2017-07-02T15:22:21Z</time>
      </trkpt>
      <trkpt lat="46.322232317179441" lon="11.841135397553444">
        <ele>2208.29</ele>
        <time>2017-07-02T15:22:31Z</time>
      </trkpt>
      <trkpt lat="46.322183534502983" lon="11.841169092804193">
        <ele>2209.73</ele>
        <time>2017-07-02T15:22:41Z</time>
      </trkpt>
      <trkpt lat="46.322129387408495" lon="11.841183425858617">
        <ele>2210.6900000000001</ele>
        <time>2017-07-02T15:22:51Z</time>
      </trkpt>
      <trkpt lat="46.322101475670934" lon="11.841217456385493">
        <ele>2212.1300000000001</ele>
        <time>2017-07-02T15:23:01Z</time>
      </trkpt>
      <trkpt lat="46.322087477892637" lon="11.841244278475642">
        <ele>2211.6500000000001</ele>
        <time>2017-07-02T15:23:03Z</time>
      </trkpt>
      <trkpt lat="46.32207146845758" lon="11.84125978499651">
        <ele>2211.6500000000001</ele>
        <time>2017-07-02T15:23:05Z</time>
      </trkpt>
      <trkpt lat="46.322030900046229" lon="11.841310495510697">
        <ele>2211.1700000000001</ele>
        <time>2017-07-02T15:23:11Z</time>
      </trkpt>
      <trkpt lat="46.321950852870941" lon="11.841368582099676">
        <ele>2212.1300000000001</ele>
        <time>2017-07-02T15:23:23Z</time>
      </trkpt>
      <trkpt lat="46.321944314986467" lon="11.841373527422547">
        <ele>2212.1300000000001</ele>
        <time>2017-07-02T15:23:24Z</time>
      </trkpt>
      <trkpt lat="46.321834260597825" lon="11.841427674517035">
        <ele>2213.0900000000001</ele>
        <time>2017-07-02T15:23:37Z</time>
      </trkpt>
      <trkpt lat="46.321744071319699" lon="11.841465812176466">
        <ele>2213.5700000000002</ele>
        <time>2017-07-02T15:23:48Z</time>
      </trkpt>
      <trkpt lat="46.321666790172458" lon="11.841482408344746">
        <ele>2213.0900000000001</ele>
        <time>2017-07-02T15:24:00Z</time>
      </trkpt>
      <trkpt lat="46.321604428812861" lon="11.841477882117033">
        <ele>2212.1300000000001</ele>
        <time>2017-07-02T15:24:12Z</time>
      </trkpt>
      <trkpt lat="46.321586742997169" lon="11.841478301212192">
        <ele>2212.6100000000001</ele>
        <time>2017-07-02T15:24:21Z</time>
      </trkpt>
      <trkpt lat="46.321560004726052" lon="11.8414899520576">
        <ele>2212.6100000000001</ele>
        <time>2017-07-02T15:24:30Z</time>
      </trkpt>
      <trkpt lat="46.321496553719044" lon="11.841468829661608">
        <ele>2213.5700000000002</ele>
        <time>2017-07-02T15:24:42Z</time>
      </trkpt>
      <trkpt lat="46.321526812389493" lon="11.841496238484979">
        <ele>2212.1300000000001</ele>
        <time>2017-07-02T15:24:52Z</time>
      </trkpt>
      <trkpt lat="46.321516837924719" lon="11.841507721692324">
        <ele>2211.6500000000001</ele>
        <time>2017-07-02T15:25:01Z</time>
      </trkpt>
      <trkpt lat="46.321513820439577" lon="11.841487269848585">
        <ele>2211.6500000000001</ele>
        <time>2017-07-02T15:25:13Z</time>
      </trkpt>
      <trkpt lat="46.321491859853268" lon="11.841511242091656">
        <ele>2211.6500000000001</ele>
        <time>2017-07-02T15:25:23Z</time>
      </trkpt>
      <trkpt lat="46.321471072733402" lon="11.841522976756096">
        <ele>2212.1300000000001</ele>
        <time>2017-07-02T15:25:38Z</time>
      </trkpt>
      <trkpt lat="46.321456404402852" lon="11.841513002291322">
        <ele>2211.6500000000001</ele>
        <time>2017-07-02T15:25:48Z</time>
      </trkpt>
      <trkpt lat="46.321438970044255" lon="11.841498836874962">
        <ele>2212.1300000000001</ele>
        <time>2017-07-02T15:25:59Z</time>
      </trkpt>
      <trkpt lat="46.321429498493671" lon="11.841495065018535">
        <ele>2212.1300000000001</ele>
        <time>2017-07-02T15:26:08Z</time>
      </trkpt>
      <trkpt lat="46.321420110762119" lon="11.841501016169786">
        <ele>2211.6500000000001</ele>
        <time>2017-07-02T15:26:18Z</time>
      </trkpt>
      <trkpt lat="46.321414411067963" lon="11.841488275676966">
        <ele>2212.1300000000001</ele>
        <time>2017-07-02T15:26:32Z</time>
      </trkpt>
      <trkpt lat="46.321388846263289" lon="11.841473858803511">
        <ele>2212.1300000000001</ele>
        <time>2017-07-02T15:26:45Z</time>
      </trkpt>
      <trkpt lat="46.321378452703357" lon="11.841456424444914">
        <ele>2212.6100000000001</ele>
        <time>2017-07-02T15:27:03Z</time>
      </trkpt>
      <trkpt lat="46.321363532915711" lon="11.841463297605515">
        <ele>2213.0900000000001</ele>
        <time>2017-07-02T15:27:19Z</time>
      </trkpt>
      <trkpt lat="46.321399072185159" lon="11.841495651751757">
        <ele>2212.1300000000001</ele>
        <time>2017-07-02T15:27:32Z</time>
      </trkpt>
      <trkpt lat="46.321390019729733" lon="11.841486347839236">
        <ele>2211.6500000000001</ele>
        <time>2017-07-02T15:27:42Z</time>
      </trkpt>
      <trkpt lat="46.321410303935409" lon="11.841456759721041">
        <ele>2211.1700000000001</ele>
        <time>2017-07-02T15:27:54Z</time>
      </trkpt>
      <trkpt lat="46.321366215124726" lon="11.841428177431226">
        <ele>2210.6900000000001</ele>
        <time>2017-07-02T15:28:06Z</time>
      </trkpt>
      <trkpt lat="46.321379039436579" lon="11.841419376432896">
        <ele>2210.6900000000001</ele>
        <time>2017-07-02T15:28:15Z</time>
      </trkpt>
      <trkpt lat="46.321344925090671" lon="11.841416442766786">
        <ele>2211.1700000000001</ele>
        <time>2017-07-02T15:28:28Z</time>
      </trkpt>
      <trkpt lat="46.32130678743124" lon="11.841442510485649">
        <ele>2210.6900000000001</ele>
        <time>2017-07-02T15:28:39Z</time>
      </trkpt>
      <trkpt lat="46.321276025846601" lon="11.841422393918037">
        <ele>2211.1700000000001</ele>
        <time>2017-07-02T15:28:50Z</time>
      </trkpt>
      <trkpt lat="46.321251466870308" lon="11.841418202966452">
        <ele>2211.1700000000001</ele>
        <time>2017-07-02T15:29:02Z</time>
      </trkpt>
      <trkpt lat="46.321253729984164" lon="11.841411832720041">
        <ele>2211.1700000000001</ele>
        <time>2017-07-02T15:29:22Z</time>
      </trkpt>
      <trkpt lat="46.321245348080993" lon="11.841384926810861">
        <ele>2211.6500000000001</ele>
        <time>2017-07-02T15:29:32Z</time>
      </trkpt>
      <trkpt lat="46.32123545743525" lon="11.841363301500678">
        <ele>2211.1700000000001</ele>
        <time>2017-07-02T15:29:44Z</time>
      </trkpt>
      <trkpt lat="46.321216849610209" lon="11.841383250430226">
        <ele>2211.1700000000001</ele>
        <time>2017-07-02T15:29:55Z</time>
      </trkpt>
      <trkpt lat="46.321186171844602" lon="11.841353997588158">
        <ele>2211.6500000000001</ele>
        <time>2017-07-02T15:30:06Z</time>
      </trkpt>
      <trkpt lat="46.321119200438261" lon="11.841322313994169">
        <ele>2213.5700000000002</ele>
        <time>2017-07-02T15:30:16Z</time>
      </trkpt>
      <trkpt lat="46.321065807715058" lon="11.841319128870964">
        <ele>2213.5700000000002</ele>
        <time>2017-07-02T15:30:27Z</time>
      </trkpt>
      <trkpt lat="46.321054408326745" lon="11.841297084465623">
        <ele>2216.9400000000001</ele>
        <time>2017-07-02T15:30:35Z</time>
      </trkpt>
      <trkpt lat="46.321055749431252" lon="11.841296497732401">
        <ele>2216.9400000000001</ele>
        <time>2017-07-02T15:30:36Z</time>
      </trkpt>
      <trkpt lat="46.321024233475327" lon="11.841298760846257">
        <ele>2218.3800000000001</ele>
        <time>2017-07-02T15:30:49Z</time>
      </trkpt>
      <trkpt lat="46.320998333394527" lon="11.841316362842917">
        <ele>2219.8200000000002</ele>
        <time>2017-07-02T15:31:00Z</time>
      </trkpt>
      <trkpt lat="46.320981150493026" lon="11.841301107779145">
        <ele>2221.2600000000002</ele>
        <time>2017-07-02T15:31:11Z</time>
      </trkpt>
      <trkpt lat="46.320940498262644" lon="11.841319715604186">
        <ele>2222.2199999999998</ele>
        <time>2017-07-02T15:31:21Z</time>
      </trkpt>
      <trkpt lat="46.320881322026253" lon="11.841298760846257">
        <ele>2223.6700000000001</ele>
        <time>2017-07-02T15:31:33Z</time>
      </trkpt>
      <trkpt lat="46.32084159180522" lon="11.841267747804523">
        <ele>2224.1500000000001</ele>
        <time>2017-07-02T15:31:41Z</time>
      </trkpt>
      <trkpt lat="46.320792222395539" lon="11.841290462762117">
        <ele>2225.1100000000001</ele>
        <time>2017-07-02T15:31:54Z</time>
      </trkpt>
      <trkpt lat="46.320743355900049" lon="11.841259282082319">
        <ele>2227.0300000000002</ele>
        <time>2017-07-02T15:32:06Z</time>
      </trkpt>
      <trkpt lat="46.320685772225261" lon="11.841230867430568">
        <ele>2228.4699999999998</ele>
        <time>2017-07-02T15:32:21Z</time>
      </trkpt>
      <trkpt lat="46.320652915164828" lon="11.841236734762788">
        <ele>2229.9200000000001</ele>
        <time>2017-07-02T15:32:32Z</time>
      </trkpt>
      <trkpt lat="46.320645119994879" lon="11.841230113059282">
        <ele>2230.8800000000001</ele>
        <time>2017-07-02T15:32:43Z</time>
      </trkpt>
      <trkpt lat="46.32060656324029" lon="11.841217456385493">
        <ele>2232.3200000000002</ele>
        <time>2017-07-02T15:32:55Z</time>
      </trkpt>
      <trkpt lat="46.320592733100057" lon="11.841207230463624">
        <ele>2232.8000000000002</ele>
        <time>2017-07-02T15:33:06Z</time>
      </trkpt>
      <trkpt lat="46.320549147203565" lon="11.841224832460284">
        <ele>2234.2399999999998</ele>
        <time>2017-07-02T15:33:17Z</time>
      </trkpt>
      <trkpt lat="46.320536071434617" lon="11.841218462213874">
        <ele>2235.1999999999998</ele>
        <time>2017-07-02T15:33:28Z</time>
      </trkpt>
      <trkpt lat="46.3205058965832" lon="11.841271603479981">
        <ele>2237.6100000000001</ele>
        <time>2017-07-02T15:33:41Z</time>
      </trkpt>
      <trkpt lat="46.320452336221933" lon="11.841224581003189">
        <ele>2239.0500000000002</ele>
        <time>2017-07-02T15:33:54Z</time>
      </trkpt>
      <trkpt lat="46.320408331230283" lon="11.841230951249599">
        <ele>2240.0100000000002</ele>
        <time>2017-07-02T15:34:07Z</time>
      </trkpt>
      <trkpt lat="46.32040087133646" lon="11.841239416971803">
        <ele>2240.4899999999998</ele>
        <time>2017-07-02T15:34:16Z</time>
      </trkpt>
      <trkpt lat="46.320414030924439" lon="11.841202955693007">
        <ele>2239.5300000000002</ele>
        <time>2017-07-02T15:34:25Z</time>
      </trkpt>
      <trkpt lat="46.320428363978863" lon="11.841198848560452">
        <ele>2240.0100000000002</ele>
        <time>2017-07-02T15:34:45Z</time>
      </trkpt>
      <trkpt lat="46.320432303473353" lon="11.84122659265995">
        <ele>2240.0100000000002</ele>
        <time>2017-07-02T15:34:54Z</time>
      </trkpt>
      <trkpt lat="46.320410259068012" lon="11.841236399486661">
        <ele>2240.4899999999998</ele>
        <time>2017-07-02T15:35:04Z</time>
      </trkpt>
      <trkpt lat="46.320390142500401" lon="11.841273028403521">
        <ele>2240.9699999999998</ele>
        <time>2017-07-02T15:35:11Z</time>
      </trkpt>
      <trkpt lat="46.320361895486712" lon="11.841273698955774">
        <ele>2242.4099999999999</ele>
        <time>2017-07-02T15:35:20Z</time>
      </trkpt>
      <trkpt lat="46.320316717028618" lon="11.841333210468292">
        <ele>2243.8499999999999</ele>
        <time>2017-07-02T15:35:31Z</time>
      </trkpt>
      <trkpt lat="46.320240441709757" lon="11.841345950961113">
        <ele>2245.3000000000002</ele>
        <time>2017-07-02T15:35:42Z</time>
      </trkpt>
      <trkpt lat="46.320181768387556" lon="11.841324660927057">
        <ele>2248.1799999999998</ele>
        <time>2017-07-02T15:35:52Z</time>
      </trkpt>
      <trkpt lat="46.320120161399245" lon="11.841352405026555">
        <ele>2249.6199999999999</ele>
        <time>2017-07-02T15:36:05Z</time>
      </trkpt>
      <trkpt lat="46.320055201649666" lon="11.841394063085318">
        <ele>2251.0599999999999</ele>
        <time>2017-07-02T15:36:17Z</time>
      </trkpt>
      <trkpt lat="46.320029888302088" lon="11.841357098892331">
        <ele>2253.4699999999998</ele>
        <time>2017-07-02T15:36:28Z</time>
      </trkpt>
      <trkpt lat="46.320007257163525" lon="11.841407893225551">
        <ele>2254.9099999999999</ele>
        <time>2017-07-02T15:36:38Z</time>
      </trkpt>
      <trkpt lat="46.319966856390238" lon="11.841472936794162">
        <ele>2255.8699999999999</ele>
        <time>2017-07-02T15:36:49Z</time>
      </trkpt>
      <trkpt lat="46.319935424253345" lon="11.841529179364443">
        <ele>2257.79</ele>
        <time>2017-07-02T15:37:02Z</time>
      </trkpt>
      <trkpt lat="46.319907428696752" lon="11.841536136344075">
        <ele>2258.75</ele>
        <time>2017-07-02T15:37:11Z</time>
      </trkpt>
      <trkpt lat="46.31988144479692" lon="11.841557761654258">
        <ele>2260.1999999999998</ele>
        <time>2017-07-02T15:37:20Z</time>
      </trkpt>
      <trkpt lat="46.319870129227638" lon="11.841589361429214">
        <ele>2261.1599999999999</ele>
        <time>2017-07-02T15:37:32Z</time>
      </trkpt>
      <trkpt lat="46.319853784516454" lon="11.841607047244906">
        <ele>2262.5999999999999</ele>
        <time>2017-07-02T15:37:43Z</time>
      </trkpt>
      <trkpt lat="46.319829728454351" lon="11.841647531837225">
        <ele>2264.04</ele>
        <time>2017-07-02T15:37:52Z</time>
      </trkpt>
      <trkpt lat="46.319784549996257" lon="11.841683238744736">
        <ele>2265.48</ele>
        <time>2017-07-02T15:38:02Z</time>
      </trkpt>
      <trkpt lat="46.319751860573888" lon="11.84168977662921">
        <ele>2266.9299999999998</ele>
        <time>2017-07-02T15:38:11Z</time>
      </trkpt>
      <trkpt lat="46.31973291747272" lon="11.841697739437222">
        <ele>2267.4099999999999</ele>
        <time>2017-07-02T15:38:25Z</time>
      </trkpt>
      <trkpt lat="46.319699808955193" lon="11.841709222644567">
        <ele>2269.3299999999999</ele>
        <time>2017-07-02T15:38:36Z</time>
      </trkpt>
      <trkpt lat="46.319704838097095" lon="11.841711485758424">
        <ele>2269.8099999999999</ele>
        <time>2017-07-02T15:38:49Z</time>
      </trkpt>
      <trkpt lat="46.319658234715462" lon="11.84173570945859">
        <ele>2271.25</ele>
        <time>2017-07-02T15:38:58Z</time>
      </trkpt>
      <trkpt lat="46.319640381261706" lon="11.841787258163095">
        <ele>2271.73</ele>
        <time>2017-07-02T15:39:07Z</time>
      </trkpt>
      <trkpt lat="46.319598890841007" lon="11.841796226799488">
        <ele>2272.21</ele>
        <time>2017-07-02T15:39:15Z</time>
      </trkpt>
      <trkpt lat="46.319578187540174" lon="11.841812487691641">
        <ele>2273.1700000000001</ele>
        <time>2017-07-02T15:39:23Z</time>
      </trkpt>
      <trkpt lat="46.319519598037004" lon="11.841841489076614">
        <ele>2275.0999999999999</ele>
        <time>2017-07-02T15:39:33Z</time>
      </trkpt>
      <trkpt lat="46.319518005475402" lon="11.841836627572775">
        <ele>2275.0999999999999</ele>
        <time>2017-07-02T15:39:43Z</time>
      </trkpt>
      <trkpt lat="46.319476598873734" lon="11.841799160465598">
        <ele>2275.0999999999999</ele>
        <time>2017-07-02T15:39:55Z</time>
      </trkpt>
      <trkpt lat="46.319443071261048" lon="11.841836459934711">
        <ele>2277.5</ele>
        <time>2017-07-02T15:40:04Z</time>
      </trkpt>
      <trkpt lat="46.319421110674739" lon="11.841885158792138">
        <ele>2277.98</ele>
        <time>2017-07-02T15:40:13Z</time>
      </trkpt>
      <trkpt lat="46.319454470649362" lon="11.841923296451569">
        <ele>2278.46</ele>
        <time>2017-07-02T15:40:23Z</time>
      </trkpt>
      <trkpt lat="46.319485232234001" lon="11.841995799914002">
        <ele>2279.4200000000001</ele>
        <time>2017-07-02T15:40:36Z</time>
      </trkpt>
      <trkpt lat="46.31949688307941" lon="11.842004014179111">
        <ele>2280.3800000000001</ele>
        <time>2017-07-02T15:40:38Z</time>
      </trkpt>
      <trkpt lat="46.319501493126154" lon="11.842115242034197">
        <ele>2282.3099999999999</ele>
        <time>2017-07-02T15:40:52Z</time>
      </trkpt>
      <trkpt lat="46.319524878636003" lon="11.842150446027517">
        <ele>2283.75</ele>
        <time>2017-07-02T15:41:05Z</time>
      </trkpt>
      <trkpt lat="46.319550108164549" lon="11.842201324179769">
        <ele>2285.1900000000001</ele>
        <time>2017-07-02T15:41:19Z</time>
      </trkpt>
      <trkpt lat="46.319535188376904" lon="11.842283215373755">
        <ele>2287.1100000000001</ele>
        <time>2017-07-02T15:41:32Z</time>
      </trkpt>
      <trkpt lat="46.319477017968893" lon="11.842315904796124">
        <ele>2288.5599999999999</ele>
        <time>2017-07-02T15:41:44Z</time>
      </trkpt>
      <trkpt lat="46.31944265216589" lon="11.842316659167409">
        <ele>2290</ele>
        <time>2017-07-02T15:41:53Z</time>
      </trkpt>
      <trkpt lat="46.319380542263389" lon="11.842318419367075">
        <ele>2290.96</ele>
        <time>2017-07-02T15:42:08Z</time>
      </trkpt>
      <trkpt lat="46.319356486201286" lon="11.842325208708644">
        <ele>2291.9200000000001</ele>
        <time>2017-07-02T15:42:18Z</time>
      </trkpt>
      <trkpt lat="46.319313067942858" lon="11.84232646599412">
        <ele>2293.3600000000001</ele>
        <time>2017-07-02T15:42:29Z</time>
      </trkpt>
      <trkpt lat="46.319305691868067" lon="11.842325963079929">
        <ele>2294.8000000000002</ele>
        <time>2017-07-02T15:42:41Z</time>
      </trkpt>
      <trkpt lat="46.31928188726306" lon="11.842323448508978">
        <ele>2295.77</ele>
        <time>2017-07-02T15:42:52Z</time>
      </trkpt>
      <trkpt lat="46.319258417934179" lon="11.842300398275256">
        <ele>2296.73</ele>
        <time>2017-07-02T15:43:03Z</time>
      </trkpt>
      <trkpt lat="46.319273002445698" lon="11.842334428802133">
        <ele>2298.1700000000001</ele>
        <time>2017-07-02T15:43:13Z</time>
      </trkpt>
      <trkpt lat="46.31923696026206" lon="11.842309953644872">
        <ele>2299.1300000000001</ele>
        <time>2017-07-02T15:43:22Z</time>
      </trkpt>
      <trkpt lat="46.319195553660393" lon="11.842313054949045">
        <ele>2300.5700000000002</ele>
        <time>2017-07-02T15:43:33Z</time>
      </trkpt>
      <trkpt lat="46.319160182029009" lon="11.842298302799463">
        <ele>2302.0100000000002</ele>
        <time>2017-07-02T15:43:46Z</time>
      </trkpt>
      <trkpt lat="46.319149117916822" lon="11.842315318062901">
        <ele>2302.4899999999998</ele>
        <time>2017-07-02T15:43:56Z</time>
      </trkpt>
      <trkpt lat="46.31912162527442" lon="11.842294279485941">
        <ele>2303.9400000000001</ele>
        <time>2017-07-02T15:44:08Z</time>
      </trkpt>
      <trkpt lat="46.319100502878428" lon="11.842297464609146">
        <ele>2304.9000000000001</ele>
        <time>2017-07-02T15:44:17Z</time>
      </trkpt>
      <trkpt lat="46.319087008014321" lon="11.84225220233202">
        <ele>2305.8600000000001</ele>
        <time>2017-07-02T15:44:28Z</time>
      </trkpt>
      <trkpt lat="46.319067813456059" lon="11.842259494587779">
        <ele>2307.3000000000002</ele>
        <time>2017-07-02T15:44:40Z</time>
      </trkpt>
      <trkpt lat="46.319024311378598" lon="11.842306181788445">
        <ele>2307.3000000000002</ele>
        <time>2017-07-02T15:44:51Z</time>
      </trkpt>
      <trkpt lat="46.31901073269546" lon="11.842281119897962">
        <ele>2307.3000000000002</ele>
        <time>2017-07-02T15:45:08Z</time>
      </trkpt>
      <trkpt lat="46.319001344963908" lon="11.842282461002469">
        <ele>2307.3000000000002</ele>
        <time>2017-07-02T15:45:18Z</time>
      </trkpt>
      <trkpt lat="46.318994052708149" lon="11.842292603105307">
        <ele>2307.3000000000002</ele>
        <time>2017-07-02T15:45:29Z</time>
      </trkpt>
      <trkpt lat="46.31897795945406" lon="11.84229763224721">
        <ele>2306.8200000000002</ele>
        <time>2017-07-02T15:45:40Z</time>
      </trkpt>
      <trkpt lat="46.31897552870214" lon="11.842294782400131">
        <ele>2306.8200000000002</ele>
        <time>2017-07-02T15:45:42Z</time>
      </trkpt>
      <trkpt lat="46.318929428234696" lon="11.842236779630184">
        <ele>2307.3000000000002</ele>
        <time>2017-07-02T15:45:50Z</time>
      </trkpt>
      <trkpt lat="46.31894669495523" lon="11.842207694426179">
        <ele>2307.3000000000002</ele>
        <time>2017-07-02T15:45:59Z</time>
      </trkpt>
      <trkpt lat="46.31890470162034" lon="11.842204844579101">
        <ele>2307.3000000000002</ele>
        <time>2017-07-02T15:46:09Z</time>
      </trkpt>
      <trkpt lat="46.318876454606652" lon="11.842162013053894">
        <ele>2308.2600000000002</ele>
        <time>2017-07-02T15:46:18Z</time>
      </trkpt>
      <trkpt lat="46.318849716335535" lon="11.842129658907652">
        <ele>2308.2600000000002</ele>
        <time>2017-07-02T15:46:28Z</time>
      </trkpt>
      <trkpt lat="46.31883286871016" lon="11.842186572030187">
        <ele>2309.6999999999998</ele>
        <time>2017-07-02T15:46:39Z</time>
      </trkpt>
      <trkpt lat="46.318810153752565" lon="11.842198893427849">
        <ele>2310.6700000000001</ele>
        <time>2017-07-02T15:46:47Z</time>
      </trkpt>
      <trkpt lat="46.318777464330196" lon="11.842221524566412">
        <ele>2312.1100000000001</ele>
        <time>2017-07-02T15:46:58Z</time>
      </trkpt>
      <trkpt lat="46.318764053285122" lon="11.842245245352387">
        <ele>2312.5900000000001</ele>
        <time>2017-07-02T15:47:09Z</time>
      </trkpt>
      <trkpt lat="46.318748630583286" lon="11.842285897582769">
        <ele>2313.0700000000002</ele>
        <time>2017-07-02T15:47:20Z</time>
      </trkpt>
      <trkpt lat="46.318733626976609" lon="11.842296542599797">
        <ele>2313.5500000000002</ele>
        <time>2017-07-02T15:47:33Z</time>
      </trkpt>
      <trkpt lat="46.318713342770934" lon="11.842293776571751">
        <ele>2314.9899999999998</ele>
        <time>2017-07-02T15:47:44Z</time>
      </trkpt>
      <trkpt lat="46.318698171526194" lon="11.842300649732351">
        <ele>2315.9499999999998</ele>
        <time>2017-07-02T15:47:55Z</time>
      </trkpt>
      <trkpt lat="46.318669589236379" lon="11.842319676652551">
        <ele>2316.9099999999999</ele>
        <time>2017-07-02T15:48:08Z</time>
      </trkpt>
      <trkpt lat="46.318655842915177" lon="11.842319592833519">
        <ele>2317.4000000000001</ele>
        <time>2017-07-02T15:48:19Z</time>
      </trkpt>
      <trkpt lat="46.318648047745228" lon="11.842321017757058">
        <ele>2318.3600000000001</ele>
        <time>2017-07-02T15:48:35Z</time>
      </trkpt>
      <trkpt lat="46.318631954491138" lon="11.842326130717993">
        <ele>2319.3200000000002</ele>
        <time>2017-07-02T15:48:48Z</time>
      </trkpt>
      <trkpt lat="46.318617453798652" lon="11.842330070212483">
        <ele>2320.2800000000002</ele>
        <time>2017-07-02T15:48:59Z</time>
      </trkpt>
      <trkpt lat="46.318587614223361" lon="11.842331914231181">
        <ele>2322.1999999999998</ele>
        <time>2017-07-02T15:49:12Z</time>
      </trkpt>
      <trkpt lat="46.318584848195314" lon="11.842349767684937">
        <ele>2323.6399999999999</ele>
        <time>2017-07-02T15:49:24Z</time>
      </trkpt>
      <trkpt lat="46.318580992519855" lon="11.842345241457224">
        <ele>2324.1199999999999</ele>
        <time>2017-07-02T15:49:36Z</time>
      </trkpt>
      <trkpt lat="46.318609407171607" lon="11.842316659167409">
        <ele>2324.6100000000001</ele>
        <time>2017-07-02T15:49:53Z</time>
      </trkpt>
      <trkpt lat="46.318584596738219" lon="11.842336021363735">
        <ele>2324.6100000000001</ele>
        <time>2017-07-02T15:50:02Z</time>
      </trkpt>
      <trkpt lat="46.318564396351576" lon="11.842342978343368">
        <ele>2325.5700000000002</ele>
        <time>2017-07-02T15:50:12Z</time>
      </trkpt>
      <trkpt lat="46.318565318360925" lon="11.842354713007808">
        <ele>2325.5700000000002</ele>
        <time>2017-07-02T15:50:28Z</time>
      </trkpt>
      <trkpt lat="46.318552074953914" lon="11.842377847060561">
        <ele>2327.0100000000002</ele>
        <time>2017-07-02T15:50:39Z</time>
      </trkpt>
      <trkpt lat="46.318552661687136" lon="11.842394862323999">
        <ele>2328.9299999999998</ele>
        <time>2017-07-02T15:50:49Z</time>
      </trkpt>
      <trkpt lat="46.318556601181626" lon="11.842346079647541">
        <ele>2328.9299999999998</ele>
        <time>2017-07-02T15:51:00Z</time>
      </trkpt>
      <trkpt lat="46.31859784014523" lon="11.842335686087608">
        <ele>2329.4099999999999</ele>
        <time>2017-07-02T15:51:12Z</time>
      </trkpt>
      <trkpt lat="46.318601444363594" lon="11.842364352196455">
        <ele>2329.4099999999999</ele>
        <time>2017-07-02T15:51:27Z</time>
      </trkpt>
      <trkpt lat="46.318535730242729" lon="11.842413134872913">
        <ele>2332.3000000000002</ele>
        <time>2017-07-02T15:51:37Z</time>
      </trkpt>
      <trkpt lat="46.318520223721862" lon="11.842465605586767">
        <ele>2334.2199999999998</ele>
        <time>2017-07-02T15:51:47Z</time>
      </trkpt>
      <trkpt lat="46.318464735522866" lon="11.842487063258886">
        <ele>2336.6199999999999</ele>
        <time>2017-07-02T15:51:59Z</time>
      </trkpt>
      <trkpt lat="46.318434225395322" lon="11.842526206746697">
        <ele>2338.54</ele>
        <time>2017-07-02T15:52:09Z</time>
      </trkpt>
      <trkpt lat="46.318399524316192" lon="11.842541377991438">
        <ele>2339.5100000000002</ele>
        <time>2017-07-02T15:52:19Z</time>
      </trkpt>
      <trkpt lat="46.318382509052753" lon="11.842559482902288">
        <ele>2340.9499999999998</ele>
        <time>2017-07-02T15:52:30Z</time>
      </trkpt>
      <trkpt lat="46.318385945633054" lon="11.842585382983088">
        <ele>2341.9099999999999</ele>
        <time>2017-07-02T15:52:38Z</time>
      </trkpt>
      <trkpt lat="46.318352669477463" lon="11.842609103769064">
        <ele>2342.8699999999999</ele>
        <time>2017-07-02T15:52:49Z</time>
      </trkpt>
      <trkpt lat="46.318336492404342" lon="11.842635087668896">
        <ele>2344.3099999999999</ele>
        <time>2017-07-02T15:52:58Z</time>
      </trkpt>
      <trkpt lat="46.318318722769618" lon="11.842623269185424">
        <ele>2343.3499999999999</ele>
        <time>2017-07-02T15:53:07Z</time>
      </trkpt>
      <trkpt lat="46.318310424685478" lon="11.842535929754376">
        <ele>2343.8299999999999</ele>
        <time>2017-07-02T15:53:19Z</time>
      </trkpt>
      <trkpt lat="46.318347724154592" lon="11.842478513717651">
        <ele>2345.27</ele>
        <time>2017-07-02T15:53:34Z</time>
      </trkpt>
      <trkpt lat="46.318345293402672" lon="11.842410871759057">
        <ele>2345.27</ele>
        <time>2017-07-02T15:53:46Z</time>
      </trkpt>
      <trkpt lat="46.31833590567112" lon="11.842385726049542">
        <ele>2346.7199999999998</ele>
        <time>2017-07-02T15:54:02Z</time>
      </trkpt>
      <trkpt lat="46.318331966176629" lon="11.842380193993449">
        <ele>2345.75</ele>
        <time>2017-07-02T15:54:25Z</time>
      </trkpt>
      <trkpt lat="46.318339593708515" lon="11.842386480420828">
        <ele>2346.7199999999998</ele>
        <time>2017-07-02T15:54:39Z</time>
      </trkpt>
      <trkpt lat="46.318353591486812" lon="11.842392012476921">
        <ele>2346.7199999999998</ele>
        <time>2017-07-02T15:54:50Z</time>
      </trkpt>
      <trkpt lat="46.318389130756259" lon="11.842395197600126">
        <ele>2347.1999999999998</ele>
        <time>2017-07-02T15:55:00Z</time>
      </trkpt>
      <trkpt lat="46.318354932591319" lon="11.842422774061561">
        <ele>2347.1999999999998</ele>
        <time>2017-07-02T15:55:12Z</time>
      </trkpt>
      <trkpt lat="46.318352418020368" lon="11.842380529269576">
        <ele>2346.7199999999998</ele>
        <time>2017-07-02T15:55:26Z</time>
      </trkpt>
      <trkpt lat="46.318355686962605" lon="11.84234507381916">
        <ele>2347.1999999999998</ele>
        <time>2017-07-02T15:55:39Z</time>
      </trkpt>
      <trkpt lat="46.318352669477463" lon="11.842341469600797">
        <ele>2346.7199999999998</ele>
        <time>2017-07-02T15:55:57Z</time>
      </trkpt>
      <trkpt lat="46.318338420242071" lon="11.842389917001128">
        <ele>2347.1999999999998</ele>
        <time>2017-07-02T15:56:17Z</time>
      </trkpt>
      <trkpt lat="46.318333223462105" lon="11.842381367459893">
        <ele>2346.7199999999998</ele>
        <time>2017-07-02T15:56:30Z</time>
      </trkpt>
      <trkpt lat="46.318336660042405" lon="11.842309199273586">
        <ele>2345.75</ele>
        <time>2017-07-02T15:56:43Z</time>
      </trkpt>
      <trkpt lat="46.318345461040735" lon="11.842276593670249">
        <ele>2345.75</ele>
        <time>2017-07-02T15:56:45Z</time>
      </trkpt>
      <trkpt lat="46.318367086350918" lon="11.842150948941708">
        <ele>2345.27</ele>
        <time>2017-07-02T15:56:55Z</time>
      </trkpt>
      <trkpt lat="46.318357028067112" lon="11.84203670360148">
        <ele>2346.23</ele>
        <time>2017-07-02T15:57:06Z</time>
      </trkpt>
      <trkpt lat="46.318340348079801" lon="11.841897228732705">
        <ele>2347.6799999999998</ele>
        <time>2017-07-02T15:57:18Z</time>
      </trkpt>
      <trkpt lat="46.3183075748384" lon="11.841796981170774">
        <ele>2349.1199999999999</ele>
        <time>2017-07-02T15:57:29Z</time>
      </trkpt>
      <trkpt lat="46.318245967850089" lon="11.841747527942061">
        <ele>2351.04</ele>
        <time>2017-07-02T15:57:41Z</time>
      </trkpt>
      <trkpt lat="46.318226186558604" lon="11.841801172122359">
        <ele>2352.48</ele>
        <time>2017-07-02T15:57:50Z</time>
      </trkpt>
      <trkpt lat="46.31821671500802" lon="11.841849787160754">
        <ele>2354.4099999999999</ele>
        <time>2017-07-02T15:58:01Z</time>
      </trkpt>
      <trkpt lat="46.31819567643106" lon="11.84189697727561">
        <ele>2355.8499999999999</ele>
        <time>2017-07-02T15:58:12Z</time>
      </trkpt>
      <trkpt lat="46.318179750815034" lon="11.841917680576444">
        <ele>2357.77</ele>
        <time>2017-07-02T15:58:22Z</time>
      </trkpt>
      <trkpt lat="46.318161394447088" lon="11.841927655041218">
        <ele>2358.73</ele>
        <time>2017-07-02T15:58:32Z</time>
      </trkpt>
      <trkpt lat="46.318134991452098" lon="11.84194341301918">
        <ele>2359.6900000000001</ele>
        <time>2017-07-02T15:58:43Z</time>
      </trkpt>
      <trkpt lat="46.318127615377307" lon="11.841960176825523">
        <ele>2360.6500000000001</ele>
        <time>2017-07-02T15:58:52Z</time>
      </trkpt>
      <trkpt lat="46.318103894591331" lon="11.84194534085691">
        <ele>2362.0999999999999</ele>
        <time>2017-07-02T15:59:01Z</time>
      </trkpt>
      <trkpt lat="46.318067349493504" lon="11.841939892619848">
        <ele>2364.02</ele>
        <time>2017-07-02T15:59:11Z</time>
      </trkpt>
      <trkpt lat="46.318081095814705" lon="11.84191944077611">
        <ele>2365.46</ele>
        <time>2017-07-02T15:59:19Z</time>
      </trkpt>
      <trkpt lat="46.318058548495173" lon="11.841912064701319">
        <ele>2365.46</ele>
        <time>2017-07-02T15:59:34Z</time>
      </trkpt>
      <trkpt lat="46.318054106086493" lon="11.841873256489635">
        <ele>2365.9400000000001</ele>
        <time>2017-07-02T15:59:42Z</time>
      </trkpt>
      <trkpt lat="46.318030720576644" lon="11.84185741469264">
        <ele>2367.8600000000001</ele>
        <time>2017-07-02T15:59:52Z</time>
      </trkpt>
      <trkpt lat="46.318023009225726" lon="11.841842494904995">
        <ele>2368.8299999999999</ele>
        <time>2017-07-02T16:00:00Z</time>
      </trkpt>
      <trkpt lat="46.318031391128898" lon="11.841831933706999">
        <ele>2369.79</ele>
        <time>2017-07-02T16:00:10Z</time>
      </trkpt>
      <trkpt lat="46.318019907921553" lon="11.841786587610841">
        <ele>2370.75</ele>
        <time>2017-07-02T16:00:20Z</time>
      </trkpt>
      <trkpt lat="46.31801831535995" lon="11.841716766357422">
        <ele>2372.1900000000001</ele>
        <time>2017-07-02T16:00:29Z</time>
      </trkpt>
      <trkpt lat="46.318010687828064" lon="11.84171324595809">
        <ele>2372.1900000000001</ele>
        <time>2017-07-02T16:00:30Z</time>
      </trkpt>
      <trkpt lat="46.31798604503274" lon="11.841710396111012">
        <ele>2373.6300000000001</ele>
        <time>2017-07-02T16:00:39Z</time>
      </trkpt>
      <trkpt lat="46.317963246256113" lon="11.84170838445425">
        <ele>2374.5900000000001</ele>
        <time>2017-07-02T16:00:48Z</time>
      </trkpt>
      <trkpt lat="46.317962910979986" lon="11.841694386675954">
        <ele>2376.04</ele>
        <time>2017-07-02T16:01:01Z</time>
      </trkpt>
      <trkpt lat="46.317964754998684" lon="11.841705031692982">
        <ele>2376.04</ele>
        <time>2017-07-02T16:01:15Z</time>
      </trkpt>
      <trkpt lat="46.317938938736916" lon="11.84167611412704">
        <ele>2377.96</ele>
        <time>2017-07-02T16:01:27Z</time>
      </trkpt>
      <trkpt lat="46.317945560440421" lon="11.841678880155087">
        <ele>2378.9200000000001</ele>
        <time>2017-07-02T16:01:35Z</time>
      </trkpt>
      <trkpt lat="46.317968526855111" lon="11.841655075550079">
        <ele>2378.9200000000001</ele>
        <time>2017-07-02T16:01:49Z</time>
      </trkpt>
      <trkpt lat="46.317952601239085" lon="11.841658428311348">
        <ele>2378.9200000000001</ele>
        <time>2017-07-02T16:01:59Z</time>
      </trkpt>
      <trkpt lat="46.317963330075145" lon="11.841651638969779">
        <ele>2378.9200000000001</ele>
        <time>2017-07-02T16:02:11Z</time>
      </trkpt>
      <trkpt lat="46.31792301312089" lon="11.841670498251915">
        <ele>2379.8800000000001</ele>
        <time>2017-07-02T16:02:23Z</time>
      </trkpt>
      <trkpt lat="46.317892419174314" lon="11.841717939823866">
        <ele>2382.7600000000002</ele>
        <time>2017-07-02T16:02:34Z</time>
      </trkpt>
      <trkpt lat="46.317870458588004" lon="11.841737972572446">
        <ele>2384.21</ele>
        <time>2017-07-02T16:02:45Z</time>
      </trkpt>
      <trkpt lat="46.317891664803028" lon="11.841713665053248">
        <ele>2383.25</ele>
        <time>2017-07-02T16:02:54Z</time>
      </trkpt>
      <trkpt lat="46.317909518256783" lon="11.841719364747405">
        <ele>2382.7600000000002</ele>
        <time>2017-07-02T16:02:57Z</time>
      </trkpt>
      <trkpt lat="46.317962575703859" lon="11.84165415354073">
        <ele>2379.8800000000001</ele>
        <time>2017-07-02T16:03:07Z</time>
      </trkpt>
      <trkpt lat="46.317940866574645" lon="11.841635964810848">
        <ele>2379.4000000000001</ele>
        <time>2017-07-02T16:03:17Z</time>
      </trkpt>
      <trkpt lat="46.317933574318886" lon="11.841644514352083">
        <ele>2379.8800000000001</ele>
        <time>2017-07-02T16:03:29Z</time>
      </trkpt>
      <trkpt lat="46.317925779148936" lon="11.841645436361432">
        <ele>2381.3200000000002</ele>
        <time>2017-07-02T16:03:44Z</time>
      </trkpt>
      <trkpt lat="46.317922258749604" lon="11.841624146327376">
        <ele>2382.2800000000002</ele>
        <time>2017-07-02T16:03:55Z</time>
      </trkpt>
      <trkpt lat="46.317928712815046" lon="11.841624397784472">
        <ele>2382.2800000000002</ele>
        <time>2017-07-02T16:04:08Z</time>
      </trkpt>
      <trkpt lat="46.317922761663795" lon="11.841591959819198">
        <ele>2383.25</ele>
        <time>2017-07-02T16:04:25Z</time>
      </trkpt>
      <trkpt lat="46.317948326468468" lon="11.841591289266944">
        <ele>2384.21</ele>
        <time>2017-07-02T16:04:36Z</time>
      </trkpt>
      <trkpt lat="46.317932149395347" lon="11.84159891679883">
        <ele>2384.6900000000001</ele>
        <time>2017-07-02T16:04:48Z</time>
      </trkpt>
      <trkpt lat="46.317927958443761" lon="11.84155541472137">
        <ele>2386.1300000000001</ele>
        <time>2017-07-02T16:04:56Z</time>
      </trkpt>
      <trkpt lat="46.317924521863461" lon="11.841525323688984">
        <ele>2387.0900000000001</ele>
        <time>2017-07-02T16:05:06Z</time>
      </trkpt>
      <trkpt lat="46.317933490499854" lon="11.841506296768785">
        <ele>2388.5300000000002</ele>
        <time>2017-07-02T16:05:16Z</time>
      </trkpt>
      <trkpt lat="46.317942207679152" lon="11.841506632044911">
        <ele>2389.4899999999998</ele>
        <time>2017-07-02T16:05:26Z</time>
      </trkpt>
      <trkpt lat="46.317931562662125" lon="11.841481821611524">
        <ele>2389.4899999999998</ele>
        <time>2017-07-02T16:05:37Z</time>
      </trkpt>
      <trkpt lat="46.317919576540589" lon="11.841459944844246">
        <ele>2389.4899999999998</ele>
        <time>2017-07-02T16:05:49Z</time>
      </trkpt>
      <trkpt lat="46.317898789420724" lon="11.841470673680305">
        <ele>2390.46</ele>
        <time>2017-07-02T16:05:58Z</time>
      </trkpt>
      <trkpt lat="46.317937262356281" lon="11.841426584869623">
        <ele>2392.3800000000001</ele>
        <time>2017-07-02T16:06:08Z</time>
      </trkpt>
      <trkpt lat="46.31792695261538" lon="11.841381574049592">
        <ele>2392.8600000000001</ele>
        <time>2017-07-02T16:06:17Z</time>
      </trkpt>
      <trkpt lat="46.317881187424064" lon="11.841307645663619">
        <ele>2393.8200000000002</ele>
        <time>2017-07-02T16:06:27Z</time>
      </trkpt>
      <trkpt lat="46.317910272628069" lon="11.841294402256608">
        <ele>2394.3000000000002</ele>
        <time>2017-07-02T16:06:37Z</time>
      </trkpt>
      <trkpt lat="46.317889150232077" lon="11.841277722269297">
        <ele>2394.3000000000002</ele>
        <time>2017-07-02T16:06:49Z</time>
      </trkpt>
      <trkpt lat="46.3179034832865" lon="11.841206643730402">
        <ele>2394.7800000000002</ele>
        <time>2017-07-02T16:07:01Z</time>
      </trkpt>
      <trkpt lat="46.31791228428483" lon="11.841166829690337">
        <ele>2396.2199999999998</ele>
        <time>2017-07-02T16:07:12Z</time>
      </trkpt>
      <trkpt lat="46.317903567105532" lon="11.841139001771808">
        <ele>2397.6700000000001</ele>
        <time>2017-07-02T16:07:22Z</time>
      </trkpt>
      <trkpt lat="46.317895269021392" lon="11.841112514957786">
        <ele>2399.1100000000001</ele>
        <time>2017-07-02T16:07:32Z</time>
      </trkpt>
      <trkpt lat="46.317860400304198" lon="11.841133804991841">
        <ele>2400.0700000000002</ele>
        <time>2017-07-02T16:07:41Z</time>
      </trkpt>
      <trkpt lat="46.317835422232747" lon="11.841145204380155">
        <ele>2401.5100000000002</ele>
        <time>2017-07-02T16:07:50Z</time>
      </trkpt>
      <trkpt lat="46.317806169390678" lon="11.841165656223893">
        <ele>2402.4699999999998</ele>
        <time>2017-07-02T16:07:59Z</time>
      </trkpt>
      <trkpt lat="46.317755961790681" lon="11.841189377009869">
        <ele>2403.9099999999999</ele>
        <time>2017-07-02T16:08:11Z</time>
      </trkpt>
      <trkpt lat="46.317710028961301" lon="11.841227263212204">
        <ele>2405.3600000000001</ele>
        <time>2017-07-02T16:08:22Z</time>
      </trkpt>
      <trkpt lat="46.317672897130251" lon="11.841282164677978">
        <ele>2406.8000000000002</ele>
        <time>2017-07-02T16:08:35Z</time>
      </trkpt>
      <trkpt lat="46.317649595439434" lon="11.841336563229561">
        <ele>2408.2399999999998</ele>
        <time>2017-07-02T16:08:47Z</time>
      </trkpt>
      <trkpt lat="46.317621851339936" lon="11.84140931814909">
        <ele>2409.1999999999998</ele>
        <time>2017-07-02T16:08:58Z</time>
      </trkpt>
      <trkpt lat="46.317596370354295" lon="11.841381909325719">
        <ele>2410.6399999999999</ele>
        <time>2017-07-02T16:09:05Z</time>
      </trkpt>
      <trkpt lat="46.317571895197034" lon="11.841326672583818">
        <ele>2412.0900000000001</ele>
        <time>2017-07-02T16:09:16Z</time>
      </trkpt>
      <trkpt lat="46.317554628476501" lon="11.841263305395842">
        <ele>2413.5300000000002</ele>
        <time>2017-07-02T16:09:28Z</time>
      </trkpt>
      <trkpt lat="46.317545492202044" lon="11.841250397264957">
        <ele>2414.9699999999998</ele>
        <time>2017-07-02T16:09:38Z</time>
      </trkpt>
      <trkpt lat="46.317535685375333" lon="11.841185940429568">
        <ele>2417.3699999999999</ele>
        <time>2017-07-02T16:09:51Z</time>
      </trkpt>
      <trkpt lat="46.317523280158639" lon="11.841096756979823">
        <ele>2418.8099999999999</ele>
        <time>2017-07-02T16:10:04Z</time>
      </trkpt>
      <trkpt lat="46.317493943497539" lon="11.841038167476654">
        <ele>2420.7399999999998</ele>
        <time>2017-07-02T16:10:16Z</time>
      </trkpt>
      <trkpt lat="46.317492937669158" lon="11.840938422828913">
        <ele>2421.6999999999998</ele>
        <time>2017-07-02T16:10:27Z</time>
      </trkpt>
      <trkpt lat="46.317466534674168" lon="11.840902883559465">
        <ele>2422.6599999999999</ele>
        <time>2017-07-02T16:10:39Z</time>
      </trkpt>
      <trkpt lat="46.317457314580679" lon="11.840905733406544">
        <ele>2423.6199999999999</ele>
        <time>2017-07-02T16:10:49Z</time>
      </trkpt>
      <trkpt lat="46.317425714805722" lon="11.840889723971486">
        <ele>2425.54</ele>
        <time>2017-07-02T16:10:56Z</time>
      </trkpt>
      <trkpt lat="46.317358575761318" lon="11.840905314311385">
        <ele>2428.4299999999998</ele>
        <time>2017-07-02T16:11:10Z</time>
      </trkpt>
      <trkpt lat="46.317273499444127" lon="11.840940350666642">
        <ele>2430.8299999999999</ele>
        <time>2017-07-02T16:11:24Z</time>
      </trkpt>
      <trkpt lat="46.317248269915581" lon="11.840936997905374">
        <ele>2431.3099999999999</ele>
        <time>2017-07-02T16:11:37Z</time>
      </trkpt>
      <trkpt lat="46.317190937697887" lon="11.840926185250282">
        <ele>2433.23</ele>
        <time>2017-07-02T16:11:48Z</time>
      </trkpt>
      <trkpt lat="46.317138718441129" lon="11.841012099757791">
        <ele>2434.6799999999998</ele>
        <time>2017-07-02T16:12:01Z</time>
      </trkpt>
      <trkpt lat="46.317134778946638" lon="11.84103112667799">
        <ele>2435.6399999999999</ele>
        <time>2017-07-02T16:12:13Z</time>
      </trkpt>
      <trkpt lat="46.317164869979024" lon="11.841001957654953">
        <ele>2434.6799999999998</ele>
        <time>2017-07-02T16:12:26Z</time>
      </trkpt>
      <trkpt lat="46.317175682634115" lon="11.841036826372147">
        <ele>2434.6799999999998</ele>
        <time>2017-07-02T16:12:42Z</time>
      </trkpt>
      <trkpt lat="46.317151375114918" lon="11.841025594621897">
        <ele>2434.6799999999998</ele>
        <time>2017-07-02T16:13:06Z</time>
      </trkpt>
      <trkpt lat="46.317185824736953" lon="11.841014111414552">
        <ele>2435.6399999999999</ele>
        <time>2017-07-02T16:13:30Z</time>
      </trkpt>
      <trkpt lat="46.31711876951158" lon="11.841089716181159">
        <ele>2435.6399999999999</ele>
        <time>2017-07-02T16:13:39Z</time>
      </trkpt>
      <trkpt lat="46.317119272425771" lon="11.8410565238446">
        <ele>2436.1199999999999</ele>
        <time>2017-07-02T16:13:50Z</time>
      </trkpt>
      <trkpt lat="46.317092198878527" lon="11.84100036509335">
        <ele>2436.5999999999999</ele>
        <time>2017-07-02T16:14:00Z</time>
      </trkpt>
      <trkpt lat="46.317110387608409" lon="11.840999443084002">
        <ele>2436.5999999999999</ele>
        <time>2017-07-02T16:14:10Z</time>
      </trkpt>
      <trkpt lat="46.317113237455487" lon="11.840952085331082">
        <ele>2436.5999999999999</ele>
        <time>2017-07-02T16:14:26Z</time>
      </trkpt>
      <trkpt lat="46.317095132544637" lon="11.840945463627577">
        <ele>2436.5999999999999</ele>
        <time>2017-07-02T16:14:35Z</time>
      </trkpt>
      <trkpt lat="46.317033693194389" lon="11.841053757816553">
        <ele>2438.04</ele>
        <time>2017-07-02T16:14:47Z</time>
      </trkpt>
      <trkpt lat="46.316972002387047" lon="11.841110168024898">
        <ele>2440.4400000000001</ele>
        <time>2017-07-02T16:14:59Z</time>
      </trkpt>
      <trkpt lat="46.316918106749654" lon="11.841171020641923">
        <ele>2442.3699999999999</ele>
        <time>2017-07-02T16:15:11Z</time>
      </trkpt>
      <trkpt lat="46.316859936341643" lon="11.84128325432539">
        <ele>2444.29</ele>
        <time>2017-07-02T16:15:25Z</time>
      </trkpt>
      <trkpt lat="46.316811069846153" lon="11.841391967609525">
        <ele>2445.73</ele>
        <time>2017-07-02T16:15:40Z</time>
      </trkpt>
      <trkpt lat="46.31678600795567" lon="11.84144058264792">
        <ele>2447.1700000000001</ele>
        <time>2017-07-02T16:15:48Z</time>
      </trkpt>
      <trkpt lat="46.316711660474539" lon="11.841490035876632">
        <ele>2448.1300000000001</ele>
        <time>2017-07-02T16:15:58Z</time>
      </trkpt>
      <trkpt lat="46.316711744293571" lon="11.841511661186814">
        <ele>2449.0999999999999</ele>
        <time>2017-07-02T16:16:07Z</time>
      </trkpt>
      <trkpt lat="46.316692549735308" lon="11.841572429984808">
        <ele>2451.02</ele>
        <time>2017-07-02T16:16:16Z</time>
      </trkpt>
      <trkpt lat="46.316675785928965" lon="11.841562958434224">
        <ele>2451.5</ele>
        <time>2017-07-02T16:16:25Z</time>
      </trkpt>
      <trkpt lat="46.316645611077547" lon="11.841576704755425">
        <ele>2450.54</ele>
        <time>2017-07-02T16:16:36Z</time>
      </trkpt>
      <trkpt lat="46.316610742360353" lon="11.841574106365442">
        <ele>2450.0599999999999</ele>
        <time>2017-07-02T16:16:44Z</time>
      </trkpt>
      <trkpt lat="46.316580902785063" lon="11.841580225154757">
        <ele>2450.54</ele>
        <time>2017-07-02T16:16:57Z</time>
      </trkpt>
      <trkpt lat="46.316516026854515" lon="11.841617021709681">
        <ele>2451.98</ele>
        <time>2017-07-02T16:17:06Z</time>
      </trkpt>
      <trkpt lat="46.316474871709943" lon="11.841661529615521">
        <ele>2453.9000000000001</ele>
        <time>2017-07-02T16:17:17Z</time>
      </trkpt>
      <trkpt lat="46.316445451229811" lon="11.841688603162766">
        <ele>2455.3400000000001</ele>
        <time>2017-07-02T16:17:27Z</time>
      </trkpt>
      <trkpt lat="46.316438913345337" lon="11.841684076935053">
        <ele>2455.8200000000002</ele>
        <time>2017-07-02T16:17:42Z</time>
      </trkpt>
      <trkpt lat="46.316415527835488" lon="11.841686591506004">
        <ele>2455.3400000000001</ele>
        <time>2017-07-02T16:17:48Z</time>
      </trkpt>
      <trkpt lat="46.316277980804443" lon="11.841666391119361">
        <ele>2453.9000000000001</ele>
        <time>2017-07-02T16:18:00Z</time>
      </trkpt>
      <trkpt lat="46.316160969436169" lon="11.841628421097994">
        <ele>2453.4200000000001</ele>
        <time>2017-07-02T16:18:11Z</time>
      </trkpt>
      <trkpt lat="46.31608528085053" lon="11.841595899313688">
        <ele>2455.3400000000001</ele>
        <time>2017-07-02T16:18:23Z</time>
      </trkpt>
      <trkpt lat="46.316011603921652" lon="11.841595228761435">
        <ele>2456.3099999999999</ele>
        <time>2017-07-02T16:18:33Z</time>
      </trkpt>
      <trkpt lat="46.315957205370069" lon="11.841562874615192">
        <ele>2458.23</ele>
        <time>2017-07-02T16:18:43Z</time>
      </trkpt>
      <trkpt lat="46.315895346924663" lon="11.84157838113606">
        <ele>2459.1900000000001</ele>
        <time>2017-07-02T16:18:53Z</time>
      </trkpt>
      <trkpt lat="46.315857879817486" lon="11.841564383357763">
        <ele>2460.6300000000001</ele>
        <time>2017-07-02T16:19:05Z</time>
      </trkpt>
      <trkpt lat="46.31583315320313" lon="11.84154711663723">
        <ele>2462.5500000000002</ele>
        <time>2017-07-02T16:19:18Z</time>
      </trkpt>
      <trkpt lat="46.315801553428173" lon="11.841559270396829">
        <ele>2463.52</ele>
        <time>2017-07-02T16:19:27Z</time>
      </trkpt>
      <trkpt lat="46.315760482102633" lon="11.841568322852254">
        <ele>2464</ele>
        <time>2017-07-02T16:19:37Z</time>
      </trkpt>
      <trkpt lat="46.315698958933353" lon="11.84152071364224">
        <ele>2465.9200000000001</ele>
        <time>2017-07-02T16:19:49Z</time>
      </trkpt>
      <trkpt lat="46.315687391906977" lon="11.84152465313673">
        <ele>2465.9200000000001</ele>
        <time>2017-07-02T16:19:51Z</time>
      </trkpt>
      <trkpt lat="46.315636932849884" lon="11.841515433043242">
        <ele>2466.4000000000001</ele>
        <time>2017-07-02T16:20:01Z</time>
      </trkpt>
      <trkpt lat="46.315600974485278" lon="11.841490874066949">
        <ele>2466.4000000000001</ele>
        <time>2017-07-02T16:20:13Z</time>
      </trkpt>
      <trkpt lat="46.315570631995797" lon="11.841473020613194">
        <ele>2466.4000000000001</ele>
        <time>2017-07-02T16:20:23Z</time>
      </trkpt>
      <trkpt lat="46.315550180152059" lon="11.84144988656044">
        <ele>2466.8800000000001</ele>
        <time>2017-07-02T16:20:35Z</time>
      </trkpt>
      <trkpt lat="46.315509779378772" lon="11.841418789699674">
        <ele>2467.3600000000001</ele>
        <time>2017-07-02T16:20:41Z</time>
      </trkpt>
      <trkpt lat="46.315429983660579" lon="11.841426249593496">
        <ele>2467.3600000000001</ele>
        <time>2017-07-02T16:20:52Z</time>
      </trkpt>
      <trkpt lat="46.315378518775105" lon="11.841422226279974">
        <ele>2468.8000000000002</ele>
        <time>2017-07-02T16:21:01Z</time>
      </trkpt>
      <trkpt lat="46.315342057496309" lon="11.841436978429556">
        <ele>2468.3200000000002</ele>
        <time>2017-07-02T16:21:10Z</time>
      </trkpt>
      <trkpt lat="46.315330825746059" lon="11.841424740850925">
        <ele>2468.8000000000002</ele>
        <time>2017-07-02T16:21:15Z</time>
      </trkpt>
      <trkpt lat="46.315271649509668" lon="11.841401942074299">
        <ele>2469.7600000000002</ele>
        <time>2017-07-02T16:21:26Z</time>
      </trkpt>
      <trkpt lat="46.315235607326031" lon="11.841399176046252">
        <ele>2471.21</ele>
        <time>2017-07-02T16:21:37Z</time>
      </trkpt>
      <trkpt lat="46.315187076106668" lon="11.841394482180476">
        <ele>2471.6900000000001</ele>
        <time>2017-07-02T16:21:46Z</time>
      </trkpt>
      <trkpt lat="46.315190261229873" lon="11.841346453875303">
        <ele>2471.21</ele>
        <time>2017-07-02T16:21:56Z</time>
      </trkpt>
      <trkpt lat="46.315129660069942" lon="11.841336060315371">
        <ele>2470.73</ele>
        <time>2017-07-02T16:22:05Z</time>
      </trkpt>
      <trkpt lat="46.315059000626206" lon="11.841315357014537">
        <ele>2471.21</ele>
        <time>2017-07-02T16:22:16Z</time>
      </trkpt>
      <trkpt lat="46.315012481063604" lon="11.841329019516706">
        <ele>2472.6500000000001</ele>
        <time>2017-07-02T16:22:27Z</time>
      </trkpt>
      <trkpt lat="46.314957411959767" lon="11.841321308165789">
        <ele>2474.0900000000001</ele>
        <time>2017-07-02T16:22:36Z</time>
      </trkpt>
      <trkpt lat="46.314919525757432" lon="11.841260539367795">
        <ele>2476.0100000000002</ele>
        <time>2017-07-02T16:22:47Z</time>
      </trkpt>
      <trkpt lat="46.314907455816865" lon="11.841172445565462">
        <ele>2477.9400000000001</ele>
        <time>2017-07-02T16:22:58Z</time>
      </trkpt>
      <trkpt lat="46.314913909882307" lon="11.841152245178819">
        <ele>2479.3800000000001</ele>
        <time>2017-07-02T16:23:11Z</time>
      </trkpt>
      <trkpt lat="46.314897732809186" lon="11.841129278764129">
        <ele>2480.8200000000002</ele>
        <time>2017-07-02T16:23:22Z</time>
      </trkpt>
      <trkpt lat="46.31488767452538" lon="11.841145539656281">
        <ele>2482.2600000000002</ele>
        <time>2017-07-02T16:23:32Z</time>
      </trkpt>
      <trkpt lat="46.314856996759772" lon="11.841121735051274">
        <ele>2484.1799999999998</ele>
        <time>2017-07-02T16:23:42Z</time>
      </trkpt>
      <trkpt lat="46.314848028123379" lon="11.841098181903362">
        <ele>2485.1500000000001</ele>
        <time>2017-07-02T16:23:51Z</time>
      </trkpt>
      <trkpt lat="46.314844759181142" lon="11.841118969023228">
        <ele>2485.6300000000001</ele>
        <time>2017-07-02T16:24:03Z</time>
      </trkpt>
      <trkpt lat="46.314819362014532" lon="11.841113436967134">
        <ele>2486.5900000000001</ele>
        <time>2017-07-02T16:24:17Z</time>
      </trkpt>
      <trkpt lat="46.314840316772461" lon="11.841053422540426">
        <ele>2487.5500000000002</ele>
        <time>2017-07-02T16:24:27Z</time>
      </trkpt>
      <trkpt lat="46.314830845221877" lon="11.841036910191178">
        <ele>2488.9899999999998</ele>
        <time>2017-07-02T16:24:37Z</time>
      </trkpt>
      <trkpt lat="46.31482464261353" lon="11.841017631813884">
        <ele>2490.4299999999998</ele>
        <time>2017-07-02T16:24:46Z</time>
      </trkpt>
      <trkpt lat="46.314788097515702" lon="11.84105409309268">
        <ele>2491.3899999999999</ele>
        <time>2017-07-02T16:24:55Z</time>
      </trkpt>
      <trkpt lat="46.314755911007524" lon="11.841021655127406">
        <ele>2493.3200000000002</ele>
        <time>2017-07-02T16:25:04Z</time>
      </trkpt>
      <trkpt lat="46.314766556024551" lon="11.840997850522399">
        <ele>2492.8400000000001</ele>
        <time>2017-07-02T16:25:17Z</time>
      </trkpt>
      <trkpt lat="46.314741326496005" lon="11.840975470840931">
        <ele>2494.7600000000002</ele>
        <time>2017-07-02T16:25:28Z</time>
      </trkpt>
      <trkpt lat="46.314763622358441" lon="11.840923922136426">
        <ele>2496.1999999999998</ele>
        <time>2017-07-02T16:25:37Z</time>
      </trkpt>
      <trkpt lat="46.314703859388828" lon="11.840938590466976">
        <ele>2498.5999999999999</ele>
        <time>2017-07-02T16:25:49Z</time>
      </trkpt>
      <trkpt lat="46.314718862995505" lon="11.840897854417562">
        <ele>2499.5700000000002</ele>
        <time>2017-07-02T16:26:01Z</time>
      </trkpt>
      <trkpt lat="46.314722215756774" lon="11.840879246592522">
        <ele>2499.5700000000002</ele>
        <time>2017-07-02T16:26:13Z</time>
      </trkpt>
      <trkpt lat="46.314708469435573" lon="11.840870697051287">
        <ele>2500.0500000000002</ele>
        <time>2017-07-02T16:26:26Z</time>
      </trkpt>
      <trkpt lat="46.314694220200181" lon="11.840841779485345">
        <ele>2501.9699999999998</ele>
        <time>2017-07-02T16:26:34Z</time>
      </trkpt>
      <trkpt lat="46.314696986228228" lon="11.840809844434261">
        <ele>2503.8899999999999</ele>
        <time>2017-07-02T16:26:42Z</time>
      </trkpt>
      <trkpt lat="46.314667733386159" lon="11.840789560228586">
        <ele>2504.8499999999999</ele>
        <time>2017-07-02T16:26:52Z</time>
      </trkpt>
      <trkpt lat="46.314634121954441" lon="11.840755781158805">
        <ele>2506.29</ele>
        <time>2017-07-02T16:27:02Z</time>
      </trkpt>
      <trkpt lat="46.314603611826897" lon="11.840736921876669">
        <ele>2507.7399999999998</ele>
        <time>2017-07-02T16:27:11Z</time>
      </trkpt>
      <trkpt lat="46.314599588513374" lon="11.84070959687233">
        <ele>2508.6999999999998</ele>
        <time>2017-07-02T16:27:20Z</time>
      </trkpt>
      <trkpt lat="46.314596822485328" lon="11.840718816965818">
        <ele>2509.6599999999999</ele>
        <time>2017-07-02T16:27:30Z</time>
      </trkpt>
      <trkpt lat="46.31455248221755" lon="11.840718984603882">
        <ele>2511.5799999999999</ele>
        <time>2017-07-02T16:27:44Z</time>
      </trkpt>
      <trkpt lat="46.314534209668636" lon="11.840649414807558">
        <ele>2513.02</ele>
        <time>2017-07-02T16:27:54Z</time>
      </trkpt>
      <trkpt lat="46.314509734511375" lon="11.840628879144788">
        <ele>2514.4699999999998</ele>
        <time>2017-07-02T16:28:06Z</time>
      </trkpt>
      <trkpt lat="46.314526749774814" lon="11.840648660436273">
        <ele>2514.4699999999998</ele>
        <time>2017-07-02T16:28:16Z</time>
      </trkpt>
      <trkpt lat="46.314493892714381" lon="11.840646900236607">
        <ele>2515.4299999999998</ele>
        <time>2017-07-02T16:28:27Z</time>
      </trkpt>
      <trkpt lat="46.314447289332747" lon="11.840641619637609">
        <ele>2516.8699999999999</ele>
        <time>2017-07-02T16:28:37Z</time>
      </trkpt>
      <trkpt lat="46.314413929358125" lon="11.840611528605223">
        <ele>2519.75</ele>
        <time>2017-07-02T16:28:47Z</time>
      </trkpt>
      <trkpt lat="46.314396830275655" lon="11.840636925771832">
        <ele>2520.23</ele>
        <time>2017-07-02T16:28:58Z</time>
      </trkpt>
      <trkpt lat="46.31439951248467" lon="11.840562075376511">
        <ele>2521.1900000000001</ele>
        <time>2017-07-02T16:29:11Z</time>
      </trkpt>
      <trkpt lat="46.314383167773485" lon="11.840574145317078">
        <ele>2522.1599999999999</ele>
        <time>2017-07-02T16:29:14Z</time>
      </trkpt>
      <trkpt lat="46.314304964616895" lon="11.840594094246626">
        <ele>2524.0799999999999</ele>
        <time>2017-07-02T16:29:24Z</time>
      </trkpt>
      <trkpt lat="46.314236149191856" lon="11.84059333987534">
        <ele>2526.48</ele>
        <time>2017-07-02T16:29:36Z</time>
      </trkpt>
      <trkpt lat="46.314194491133094" lon="11.840607589110732">
        <ele>2527.4400000000001</ele>
        <time>2017-07-02T16:29:44Z</time>
      </trkpt>
      <trkpt lat="46.314164903014898" lon="11.8406040687114">
        <ele>2528.4000000000001</ele>
        <time>2017-07-02T16:29:54Z</time>
      </trkpt>
      <trkpt lat="46.314137242734432" lon="11.840612450614572">
        <ele>2529.3699999999999</ele>
        <time>2017-07-02T16:30:07Z</time>
      </trkpt>
      <trkpt lat="46.314090387895703" lon="11.84060943312943">
        <ele>2531.29</ele>
        <time>2017-07-02T16:30:18Z</time>
      </trkpt>
      <trkpt lat="46.314077479764819" lon="11.840575402602553">
        <ele>2531.29</ele>
        <time>2017-07-02T16:30:34Z</time>
      </trkpt>
      <trkpt lat="46.314024506136775" lon="11.84059820137918">
        <ele>2532.25</ele>
        <time>2017-07-02T16:30:46Z</time>
      </trkpt>
      <trkpt lat="46.313982764258981" lon="11.840622760355473">
        <ele>2533.6900000000001</ele>
        <time>2017-07-02T16:30:56Z</time>
      </trkpt>
      <trkpt lat="46.313915206119418" lon="11.840597195550799">
        <ele>2536.0999999999999</ele>
        <time>2017-07-02T16:31:08Z</time>
      </trkpt>
      <trkpt lat="46.313871704041958" lon="11.840628040954471">
        <ele>2537.54</ele>
        <time>2017-07-02T16:31:18Z</time>
      </trkpt>
      <trkpt lat="46.313836416229606" lon="11.840598955750465">
        <ele>2539.46</ele>
        <time>2017-07-02T16:31:30Z</time>
      </trkpt>
      <trkpt lat="46.313780592754483" lon="11.840599793940783">
        <ele>2541.3800000000001</ele>
        <time>2017-07-02T16:31:41Z</time>
      </trkpt>
      <trkpt lat="46.313742455095053" lon="11.840560063719749">
        <ele>2542.8200000000002</ele>
        <time>2017-07-02T16:31:51Z</time>
      </trkpt>
      <trkpt lat="46.31373256444931" lon="11.840596608817577">
        <ele>2544.75</ele>
        <time>2017-07-02T16:32:02Z</time>
      </trkpt>
      <trkpt lat="46.313750250265002" lon="11.840550173074007">
        <ele>2544.27</ele>
        <time>2017-07-02T16:32:14Z</time>
      </trkpt>
      <trkpt lat="46.313743628561497" lon="11.840547742322087">
        <ele>2545.23</ele>
        <time>2017-07-02T16:32:28Z</time>
      </trkpt>
      <trkpt lat="46.313684871420264" lon="11.840564757585526">
        <ele>2547.6300000000001</ele>
        <time>2017-07-02T16:32:41Z</time>
      </trkpt>
      <trkpt lat="46.313662994652987" lon="11.840564087033272">
        <ele>2550.0300000000002</ele>
        <time>2017-07-02T16:32:52Z</time>
      </trkpt>
      <trkpt lat="46.31360599771142" lon="11.840496528893709">
        <ele>2551.96</ele>
        <time>2017-07-02T16:33:03Z</time>
      </trkpt>
      <trkpt lat="46.313618570566177" lon="11.840488649904728">
        <ele>2551.96</ele>
        <time>2017-07-02T16:33:16Z</time>
      </trkpt>
      <trkpt lat="46.313563333824277" lon="11.840492924675345">
        <ele>2552.9200000000001</ele>
        <time>2017-07-02T16:33:28Z</time>
      </trkpt>
      <trkpt lat="46.313537014648318" lon="11.840519411489367">
        <ele>2555.8000000000002</ele>
        <time>2017-07-02T16:33:39Z</time>
      </trkpt>
      <trkpt lat="46.313514886423945" lon="11.840523267164826">
        <ele>2556.7600000000002</ele>
        <time>2017-07-02T16:33:43Z</time>
      </trkpt>
      <trkpt lat="46.313474485650659" lon="11.840510442852974">
        <ele>2558.21</ele>
        <time>2017-07-02T16:33:51Z</time>
      </trkpt>
      <trkpt lat="46.313449675217271" lon="11.840530894696712">
        <ele>2559.1700000000001</ele>
        <time>2017-07-02T16:34:00Z</time>
      </trkpt>
      <trkpt lat="46.31346283480525" lon="11.840556040406227">
        <ele>2559.6500000000001</ele>
        <time>2017-07-02T16:34:10Z</time>
      </trkpt>
      <trkpt lat="46.313429055735469" lon="11.840568529441953">
        <ele>2561.0900000000001</ele>
        <time>2017-07-02T16:34:20Z</time>
      </trkpt>
      <trkpt lat="46.313349846750498" lon="11.840543886646628">
        <ele>2563.9699999999998</ele>
        <time>2017-07-02T16:34:33Z</time>
      </trkpt>
      <trkpt lat="46.313326712697744" lon="11.84058990329504">
        <ele>2565.9000000000001</ele>
        <time>2017-07-02T16:34:44Z</time>
      </trkpt>
      <trkpt lat="46.313269631937146" lon="11.840574229136109">
        <ele>2567.8200000000002</ele>
        <time>2017-07-02T16:34:55Z</time>
      </trkpt>
      <trkpt lat="46.313248760998249" lon="11.840540450066328">
        <ele>2568.3000000000002</ele>
        <time>2017-07-02T16:35:07Z</time>
      </trkpt>
      <trkpt lat="46.313279438763857" lon="11.840519160032272">
        <ele>2567.8200000000002</ele>
        <time>2017-07-02T16:35:21Z</time>
      </trkpt>
      <trkpt lat="46.313279857859015" lon="11.840517232194543">
        <ele>2568.3000000000002</ele>
        <time>2017-07-02T16:35:39Z</time>
      </trkpt>
      <trkpt lat="46.313243145123124" lon="11.840517818927765">
        <ele>2568.7800000000002</ele>
        <time>2017-07-02T16:35:52Z</time>
      </trkpt>
      <trkpt lat="46.313230488449335" lon="11.840502396225929">
        <ele>2568.7800000000002</ele>
        <time>2017-07-02T16:35:58Z</time>
      </trkpt>
      <trkpt lat="46.313157314434648" lon="11.840401729568839">
        <ele>2569.7399999999998</ele>
        <time>2017-07-02T16:36:11Z</time>
      </trkpt>
      <trkpt lat="46.313147088512778" lon="11.840409189462662">
        <ele>2569.7399999999998</ele>
        <time>2017-07-02T16:36:19Z</time>
      </trkpt>
      <trkpt lat="46.313101407140493" lon="11.840303493663669">
        <ele>2570.2199999999998</ele>
        <time>2017-07-02T16:36:30Z</time>
      </trkpt>
      <trkpt lat="46.313047679141164" lon="11.84020827524364">
        <ele>2569.2600000000002</ele>
        <time>2017-07-02T16:36:41Z</time>
      </trkpt>
      <trkpt lat="46.312989173457026" lon="11.840091263875365">
        <ele>2568.7800000000002</ele>
        <time>2017-07-02T16:36:54Z</time>
      </trkpt>
      <trkpt lat="46.312920022755861" lon="11.8400221131742">
        <ele>2568.7800000000002</ele>
        <time>2017-07-02T16:37:07Z</time>
      </trkpt>
      <trkpt lat="46.312877861782908" lon="11.839949190616608">
        <ele>2569.2600000000002</ele>
        <time>2017-07-02T16:37:18Z</time>
      </trkpt>
      <trkpt lat="46.312869898974895" lon="11.839884985238314">
        <ele>2568.7800000000002</ele>
        <time>2017-07-02T16:37:24Z</time>
      </trkpt>
      <trkpt lat="46.31284274160862" lon="11.839776942506433">
        <ele>2568.3000000000002</ele>
        <time>2017-07-02T16:37:34Z</time>
      </trkpt>
      <trkpt lat="46.312834611162543" lon="11.839668313041329">
        <ele>2568.3000000000002</ele>
        <time>2017-07-02T16:37:45Z</time>
      </trkpt>
      <trkpt lat="46.312847519293427" lon="11.839597318321466">
        <ele>2569.2600000000002</ele>
        <time>2017-07-02T16:37:52Z</time>
      </trkpt>
      <trkpt lat="46.312849195674062" lon="11.839514756575227">
        <ele>2568.3000000000002</ele>
        <time>2017-07-02T16:38:01Z</time>
      </trkpt>
      <trkpt lat="46.312803933396935" lon="11.839515175670385">
        <ele>2566.3800000000001</ele>
        <time>2017-07-02T16:38:11Z</time>
      </trkpt>
      <trkpt lat="46.312780966982245" lon="11.839506207033992">
        <ele>2565.4200000000001</ele>
        <time>2017-07-02T16:38:21Z</time>
      </trkpt>
      <trkpt lat="46.312710391357541" lon="11.839498495683074">
        <ele>2562.0500000000002</ele>
        <time>2017-07-02T16:38:33Z</time>
      </trkpt>
      <trkpt lat="46.312669990584254" lon="11.839438397437334">
        <ele>2560.1300000000001</ele>
        <time>2017-07-02T16:38:44Z</time>
      </trkpt>
      <trkpt lat="46.312642330303788" lon="11.839457424357533">
        <ele>2558.21</ele>
        <time>2017-07-02T16:38:54Z</time>
      </trkpt>
      <trkpt lat="46.312629422172904" lon="11.839428171515465">
        <ele>2557.73</ele>
        <time>2017-07-02T16:39:02Z</time>
      </trkpt>
      <trkpt lat="46.312623135745525" lon="11.839442001655698">
        <ele>2556.7600000000002</ele>
        <time>2017-07-02T16:39:11Z</time>
      </trkpt>
      <trkpt lat="46.312617184594274" lon="11.839403696358204">
        <ele>2556.2800000000002</ele>
        <time>2017-07-02T16:39:22Z</time>
      </trkpt>
      <trkpt lat="46.312575191259384" lon="11.839394392445683">
        <ele>2554.8400000000001</ele>
        <time>2017-07-02T16:39:34Z</time>
      </trkpt>
      <trkpt lat="46.312563205137849" lon="11.83940009213984">
        <ele>2554.3600000000001</ele>
        <time>2017-07-02T16:39:36Z</time>
      </trkpt>
      <trkpt lat="46.312532695010304" lon="11.839389279484749">
        <ele>2552.9200000000001</ele>
        <time>2017-07-02T16:39:46Z</time>
      </trkpt>
      <trkpt lat="46.312489025294781" lon="11.839462956413627">
        <ele>2551</ele>
        <time>2017-07-02T16:39:57Z</time>
      </trkpt>
      <trkpt lat="46.312430016696453" lon="11.839458933100104">
        <ele>2548.5900000000001</ele>
        <time>2017-07-02T16:40:06Z</time>
      </trkpt>
      <trkpt lat="46.312394728884101" lon="11.839467147365212">
        <ele>2548.1100000000001</ele>
        <time>2017-07-02T16:40:15Z</time>
      </trkpt>
      <trkpt lat="46.312352400273085" lon="11.839455747976899">
        <ele>2546.6700000000001</ele>
        <time>2017-07-02T16:40:24Z</time>
      </trkpt>
      <trkpt lat="46.312348125502467" lon="11.839370923116803">
        <ele>2546.6700000000001</ele>
        <time>2017-07-02T16:40:29Z</time>
      </trkpt>
      <trkpt lat="46.31230378523469" lon="11.83929012157023">
        <ele>2546.1900000000001</ele>
        <time>2017-07-02T16:40:42Z</time>
      </trkpt>
      <trkpt lat="46.31229649297893" lon="11.839300012215972">
        <ele>2546.1900000000001</ele>
        <time>2017-07-02T16:41:03Z</time>
      </trkpt>
      <trkpt lat="46.312225833535194" lon="11.839193059131503">
        <ele>2547.6300000000001</ele>
        <time>2017-07-02T16:41:14Z</time>
      </trkpt>
      <trkpt lat="46.312158443033695" lon="11.83909566141665">
        <ele>2548.5900000000001</ele>
        <time>2017-07-02T16:41:25Z</time>
      </trkpt>
      <trkpt lat="46.31212642416358" lon="11.839024750515819">
        <ele>2549.5500000000002</ele>
        <time>2017-07-02T16:41:33Z</time>
      </trkpt>
      <trkpt lat="46.312090465798974" lon="11.838903883472085">
        <ele>2550.0300000000002</ele>
        <time>2017-07-02T16:41:44Z</time>
      </trkpt>
      <trkpt lat="46.312023494392633" lon="11.838807156309485">
        <ele>2550.5100000000002</ele>
        <time>2017-07-02T16:41:54Z</time>
      </trkpt>
      <trkpt lat="46.311992816627026" lon="11.838701125234365">
        <ele>2551.48</ele>
        <time>2017-07-02T16:42:05Z</time>
      </trkpt>
      <trkpt lat="46.311926515772939" lon="11.838595597073436">
        <ele>2551.96</ele>
        <time>2017-07-02T16:42:16Z</time>
      </trkpt>
      <trkpt lat="46.31185476668179" lon="11.838571624830365">
        <ele>2552.9200000000001</ele>
        <time>2017-07-02T16:42:26Z</time>
      </trkpt>
      <trkpt lat="46.311828028410673" lon="11.838565086945891">
        <ele>2552.9200000000001</ele>
        <time>2017-07-02T16:42:38Z</time>
      </trkpt>
      <trkpt lat="46.311803050339222" lon="11.838531140238047">
        <ele>2554.3600000000001</ele>
        <time>2017-07-02T16:42:41Z</time>
      </trkpt>
      <trkpt lat="46.311760134994984" lon="11.838454278185964">
        <ele>2555.3200000000002</ele>
        <time>2017-07-02T16:42:49Z</time>
      </trkpt>
      <trkpt lat="46.311694253236055" lon="11.838343553245068">
        <ele>2556.2800000000002</ele>
        <time>2017-07-02T16:43:00Z</time>
      </trkpt>
      <trkpt lat="46.311645219102502" lon="11.838329555466771">
        <ele>2557.2399999999998</ele>
        <time>2017-07-02T16:43:07Z</time>
      </trkpt>
      <trkpt lat="46.311551341786981" lon="11.838275324553251">
        <ele>2558.21</ele>
        <time>2017-07-02T16:43:19Z</time>
      </trkpt>
      <trkpt lat="46.311504738405347" lon="11.83834564872086">
        <ele>2559.1700000000001</ele>
        <time>2017-07-02T16:43:28Z</time>
      </trkpt>
      <trkpt lat="46.311472048982978" lon="11.838344810530543">
        <ele>2558.6900000000001</ele>
        <time>2017-07-02T16:43:31Z</time>
      </trkpt>
      <trkpt lat="46.311422009021044" lon="11.838330058380961">
        <ele>2559.1700000000001</ele>
        <time>2017-07-02T16:43:37Z</time>
      </trkpt>
      <trkpt lat="46.311396444216371" lon="11.838272977620363">
        <ele>2560.1300000000001</ele>
        <time>2017-07-02T16:43:48Z</time>
      </trkpt>
      <trkpt lat="46.311395103111863" lon="11.83827230706811">
        <ele>2559.6500000000001</ele>
        <time>2017-07-02T16:44:00Z</time>
      </trkpt>
      <trkpt lat="46.311378004029393" lon="11.838234253227711">
        <ele>2560.1300000000001</ele>
        <time>2017-07-02T16:44:15Z</time>
      </trkpt>
      <trkpt lat="46.311387894675136" lon="11.838249675929546">
        <ele>2560.1300000000001</ele>
        <time>2017-07-02T16:44:30Z</time>
      </trkpt>
    </trkseg>
  </trk>

  <trk>
    <name>2-rif-volpi-rif-pedrotti-2017-07-03</name>
    <extensions>
      <gpxx:TrackExtension>
        <gpxx:DisplayColor>Yellow</gpxx:DisplayColor>
      </gpxx:TrackExtension>
    </extensions>
    <trkseg>
      <trkpt lat="46.311269039288163" lon="11.838245401158929">
        <ele>2571.6599999999999</ele>
        <time>2017-07-03T06:13:23Z</time>
      </trkpt>
      <trkpt lat="46.311275660991669" lon="11.838245568796992">
        <ele>2571.6599999999999</ele>
        <time>2017-07-03T06:13:24Z</time>
      </trkpt>
      <trkpt lat="46.31127130240202" lon="11.838239533826709">
        <ele>2573.1100000000001</ele>
        <time>2017-07-03T06:13:28Z</time>
      </trkpt>
      <trkpt lat="46.311253784224391" lon="11.838222267106175">
        <ele>2573.5900000000001</ele>
        <time>2017-07-03T06:13:38Z</time>
      </trkpt>
      <trkpt lat="46.311269542202353" lon="11.838152194395661">
        <ele>2573.5900000000001</ele>
        <time>2017-07-03T06:13:46Z</time>
      </trkpt>
      <trkpt lat="46.311305332928896" lon="11.83806954883039">
        <ele>2574.0700000000002</ele>
        <time>2017-07-03T06:13:56Z</time>
      </trkpt>
      <trkpt lat="46.311330813914537" lon="11.837964188307524">
        <ele>2575.5100000000002</ele>
        <time>2017-07-03T06:14:06Z</time>
      </trkpt>
      <trkpt lat="46.311339698731899" lon="11.837920937687159">
        <ele>2575.5100000000002</ele>
        <time>2017-07-03T06:14:14Z</time>
      </trkpt>
      <trkpt lat="46.31132947281003" lon="11.83788682334125">
        <ele>2576.4699999999998</ele>
        <time>2017-07-03T06:14:26Z</time>
      </trkpt>
      <trkpt lat="46.311306338757277" lon="11.837823456153274">
        <ele>2576.9499999999998</ele>
        <time>2017-07-03T06:14:37Z</time>
      </trkpt>
      <trkpt lat="46.311278762295842" lon="11.837740307673812">
        <ele>2579.3499999999999</ele>
        <time>2017-07-03T06:14:48Z</time>
      </trkpt>
      <trkpt lat="46.311271218582988" lon="11.837693117558956">
        <ele>2579.8400000000001</ele>
        <time>2017-07-03T06:14:58Z</time>
      </trkpt>
      <trkpt lat="46.311236433684826" lon="11.837592534720898">
        <ele>2581.2800000000002</ele>
        <time>2017-07-03T06:15:10Z</time>
      </trkpt>
      <trkpt lat="46.311221932992339" lon="11.837504021823406">
        <ele>2583.6799999999998</ele>
        <time>2017-07-03T06:15:23Z</time>
      </trkpt>
      <trkpt lat="46.311211455613375" lon="11.837449036538601">
        <ele>2584.6399999999999</ele>
        <time>2017-07-03T06:15:33Z</time>
      </trkpt>
      <trkpt lat="46.311204079538584" lon="11.837394135072827">
        <ele>2586.0799999999999</ele>
        <time>2017-07-03T06:15:43Z</time>
      </trkpt>
      <trkpt lat="46.311160996556282" lon="11.837341915816069">
        <ele>2587.04</ele>
        <time>2017-07-03T06:15:55Z</time>
      </trkpt>
      <trkpt lat="46.311108022928238" lon="11.837280225008726">
        <ele>2588.4899999999998</ele>
        <time>2017-07-03T06:16:07Z</time>
      </trkpt>
      <trkpt lat="46.311127804219723" lon="11.837205793708563">
        <ele>2589.4499999999998</ele>
        <time>2017-07-03T06:16:16Z</time>
      </trkpt>
      <trkpt lat="46.311119338497519" lon="11.837210906669497">
        <ele>2589.4499999999998</ele>
        <time>2017-07-03T06:16:29Z</time>
      </trkpt>
      <trkpt lat="46.311088996008039" lon="11.83719590306282">
        <ele>2589.9299999999998</ele>
        <time>2017-07-03T06:16:40Z</time>
      </trkpt>
      <trkpt lat="46.311069549992681" lon="11.837185258045793">
        <ele>2588.9699999999998</ele>
        <time>2017-07-03T06:16:42Z</time>
      </trkpt>
      <trkpt lat="46.310930661857128" lon="11.837163046002388">
        <ele>2587.5300000000002</ele>
        <time>2017-07-03T06:16:55Z</time>
      </trkpt>
      <trkpt lat="46.310917334631085" lon="11.837162123993039">
        <ele>2587.04</ele>
        <time>2017-07-03T06:16:56Z</time>
      </trkpt>
      <trkpt lat="46.31088187918067" lon="11.83720126748085">
        <ele>2587.5300000000002</ele>
        <time>2017-07-03T06:17:02Z</time>
      </trkpt>
      <trkpt lat="46.310809878632426" lon="11.837192298844457">
        <ele>2588.9699999999998</ele>
        <time>2017-07-03T06:17:13Z</time>
      </trkpt>
      <trkpt lat="46.31072455085814" lon="11.837155753746629">
        <ele>2591.3699999999999</ele>
        <time>2017-07-03T06:17:26Z</time>
      </trkpt>
      <trkpt lat="46.310649868100882" lon="11.837133290246129">
        <ele>2593.29</ele>
        <time>2017-07-03T06:17:40Z</time>
      </trkpt>
      <trkpt lat="46.310581974685192" lon="11.837069420143962">
        <ele>2594.25</ele>
        <time>2017-07-03T06:17:52Z</time>
      </trkpt>
      <trkpt lat="46.310526570305228" lon="11.837063804268837">
        <ele>2593.77</ele>
        <time>2017-07-03T06:18:01Z</time>
      </trkpt>
      <trkpt lat="46.310502849519253" lon="11.837067659944296">
        <ele>2593.77</ele>
        <time>2017-07-03T06:18:10Z</time>
      </trkpt>
      <trkpt lat="46.310423724353313" lon="11.837082160636783">
        <ele>2593.29</ele>
        <time>2017-07-03T06:18:20Z</time>
      </trkpt>
      <trkpt lat="46.310369744896889" lon="11.837102863937616">
        <ele>2591.8499999999999</ele>
        <time>2017-07-03T06:18:30Z</time>
      </trkpt>
      <trkpt lat="46.310337474569678" lon="11.837098756805062">
        <ele>2592.3299999999999</ele>
        <time>2017-07-03T06:18:40Z</time>
      </trkpt>
      <trkpt lat="46.310268910601735" lon="11.837077550590038">
        <ele>2592.3299999999999</ele>
        <time>2017-07-03T06:18:49Z</time>
      </trkpt>
      <trkpt lat="46.310193976387382" lon="11.837081992998719">
        <ele>2590.8899999999999</ele>
        <time>2017-07-03T06:18:57Z</time>
      </trkpt>
      <trkpt lat="46.310140332207084" lon="11.837020050734282">
        <ele>2589.4499999999998</ele>
        <time>2017-07-03T06:19:07Z</time>
      </trkpt>
      <trkpt lat="46.310096494853497" lon="11.836988450959325">
        <ele>2587.5300000000002</ele>
        <time>2017-07-03T06:19:17Z</time>
      </trkpt>
      <trkpt lat="46.310067074373364" lon="11.836962047964334">
        <ele>2586.0799999999999</ele>
        <time>2017-07-03T06:19:28Z</time>
      </trkpt>
      <trkpt lat="46.3100341334939" lon="11.836916031315923">
        <ele>2584.6399999999999</ele>
        <time>2017-07-03T06:19:38Z</time>
      </trkpt>
      <trkpt lat="46.309983171522617" lon="11.836883258074522">
        <ele>2582.7199999999998</ele>
        <time>2017-07-03T06:19:48Z</time>
      </trkpt>
      <trkpt lat="46.309975292533636" lon="11.836878228932619">
        <ele>2582.2399999999998</ele>
        <time>2017-07-03T06:19:49Z</time>
      </trkpt>
      <trkpt lat="46.309911925345659" lon="11.836798014119267">
        <ele>2582.2399999999998</ele>
        <time>2017-07-03T06:20:01Z</time>
      </trkpt>
      <trkpt lat="46.309894323348999" lon="11.836801366880536">
        <ele>2582.2399999999998</ele>
        <time>2017-07-03T06:20:10Z</time>
      </trkpt>
      <trkpt lat="46.309834811836481" lon="11.836728360503912">
        <ele>2582.2399999999998</ele>
        <time>2017-07-03T06:20:21Z</time>
      </trkpt>
      <trkpt lat="46.309746466577053" lon="11.836650324985385">
        <ele>2583.1999999999998</ele>
        <time>2017-07-03T06:20:33Z</time>
      </trkpt>
      <trkpt lat="46.309720315039158" lon="11.836642948910594">
        <ele>2584.1599999999999</ele>
        <time>2017-07-03T06:20:43Z</time>
      </trkpt>
      <trkpt lat="46.309693409129977" lon="11.836692318320274">
        <ele>2586.0799999999999</ele>
        <time>2017-07-03T06:20:54Z</time>
      </trkpt>
      <trkpt lat="46.309639764949679" lon="11.836719224229455">
        <ele>2588.0100000000002</ele>
        <time>2017-07-03T06:21:05Z</time>
      </trkpt>
      <trkpt lat="46.309594083577394" lon="11.836751913651824">
        <ele>2589.9299999999998</ele>
        <time>2017-07-03T06:21:16Z</time>
      </trkpt>
      <trkpt lat="46.309557454660535" lon="11.836786447092891">
        <ele>2590.8899999999999</ele>
        <time>2017-07-03T06:21:26Z</time>
      </trkpt>
      <trkpt lat="46.309501631185412" lon="11.836848137900233">
        <ele>2592.8099999999999</ele>
        <time>2017-07-03T06:21:37Z</time>
      </trkpt>
      <trkpt lat="46.309477742761374" lon="11.836885269731283">
        <ele>2593.77</ele>
        <time>2017-07-03T06:21:47Z</time>
      </trkpt>
      <trkpt lat="46.309440275654197" lon="11.836916953325272">
        <ele>2594.7399999999998</ele>
        <time>2017-07-03T06:21:59Z</time>
      </trkpt>
      <trkpt lat="46.309415549039841" lon="11.836968837305903">
        <ele>2596.1799999999998</ele>
        <time>2017-07-03T06:22:08Z</time>
      </trkpt>
      <trkpt lat="46.309355869889259" lon="11.837034886702895">
        <ele>2597.6199999999999</ele>
        <time>2017-07-03T06:22:20Z</time>
      </trkpt>
      <trkpt lat="46.309358216822147" lon="11.836926005780697">
        <ele>2599.0599999999999</ele>
        <time>2017-07-03T06:22:30Z</time>
      </trkpt>
      <trkpt lat="46.309364251792431" lon="11.83692223392427">
        <ele>2600.98</ele>
        <time>2017-07-03T06:22:48Z</time>
      </trkpt>
      <trkpt lat="46.309337764978409" lon="11.83692030608654">
        <ele>2600.02</ele>
        <time>2017-07-03T06:22:58Z</time>
      </trkpt>
      <trkpt lat="46.309317899867892" lon="11.836949558928609">
        <ele>2602.4299999999998</ele>
        <time>2017-07-03T06:23:09Z</time>
      </trkpt>
      <trkpt lat="46.309272302314639" lon="11.837002281099558">
        <ele>2604.3499999999999</ele>
        <time>2017-07-03T06:23:22Z</time>
      </trkpt>
      <trkpt lat="46.309224022552371" lon="11.837002113461494">
        <ele>2607.23</ele>
        <time>2017-07-03T06:23:39Z</time>
      </trkpt>
      <trkpt lat="46.309246988967061" lon="11.836870517581701">
        <ele>2609.1599999999999</ele>
        <time>2017-07-03T06:23:54Z</time>
      </trkpt>
      <trkpt lat="46.309219161048532" lon="11.836920641362667">
        <ele>2610.5999999999999</ele>
        <time>2017-07-03T06:24:07Z</time>
      </trkpt>
      <trkpt lat="46.309153027832508" lon="11.836923323571682">
        <ele>2613.48</ele>
        <time>2017-07-03T06:24:26Z</time>
      </trkpt>
      <trkpt lat="46.309173395857215" lon="11.836809245869517">
        <ele>2615.8800000000001</ele>
        <time>2017-07-03T06:24:44Z</time>
      </trkpt>
      <trkpt lat="46.309120925143361" lon="11.836849730461836">
        <ele>2617.8099999999999</ele>
        <time>2017-07-03T06:24:58Z</time>
      </trkpt>
      <trkpt lat="46.309043727815151" lon="11.836893316358328">
        <ele>2620.21</ele>
        <time>2017-07-03T06:25:16Z</time>
      </trkpt>
      <trkpt lat="46.309068370610476" lon="11.83680203743279">
        <ele>2621.6500000000001</ele>
        <time>2017-07-03T06:25:26Z</time>
      </trkpt>
      <trkpt lat="46.309077674522996" lon="11.836765073239803">
        <ele>2622.1300000000001</ele>
        <time>2017-07-03T06:25:36Z</time>
      </trkpt>
      <trkpt lat="46.30908815190196" lon="11.836709836497903">
        <ele>2624.0599999999999</ele>
        <time>2017-07-03T06:25:49Z</time>
      </trkpt>
      <trkpt lat="46.309050098061562" lon="11.836772197857499">
        <ele>2625.5</ele>
        <time>2017-07-03T06:26:01Z</time>
      </trkpt>
      <trkpt lat="46.309006009250879" lon="11.836789799854159">
        <ele>2626.9400000000001</ele>
        <time>2017-07-03T06:26:15Z</time>
      </trkpt>
      <trkpt lat="46.308966698125005" lon="11.836820309981704">
        <ele>2628.8600000000001</ele>
        <time>2017-07-03T06:26:25Z</time>
      </trkpt>
      <trkpt lat="46.30898748524487" lon="11.836732719093561">
        <ele>2630.79</ele>
        <time>2017-07-03T06:26:34Z</time>
      </trkpt>
      <trkpt lat="46.309011792764068" lon="11.836671698838472">
        <ele>2630.79</ele>
        <time>2017-07-03T06:26:43Z</time>
      </trkpt>
      <trkpt lat="46.308987736701965" lon="11.836639177054167">
        <ele>2631.75</ele>
        <time>2017-07-03T06:26:54Z</time>
      </trkpt>
      <trkpt lat="46.308965692296624" lon="11.836672788485885">
        <ele>2632.71</ele>
        <time>2017-07-03T06:27:05Z</time>
      </trkpt>
      <trkpt lat="46.308952700346708" lon="11.836638255044818">
        <ele>2633.6700000000001</ele>
        <time>2017-07-03T06:27:16Z</time>
      </trkpt>
      <trkpt lat="46.308918502181768" lon="11.836657868698239">
        <ele>2636.0700000000002</ele>
        <time>2017-07-03T06:27:28Z</time>
      </trkpt>
      <trkpt lat="46.308908611536026" lon="11.83671603910625">
        <ele>2637.0300000000002</ele>
        <time>2017-07-03T06:27:39Z</time>
      </trkpt>
      <trkpt lat="46.308878688141704" lon="11.836674967780709">
        <ele>2638.48</ele>
        <time>2017-07-03T06:27:50Z</time>
      </trkpt>
      <trkpt lat="46.308865277096629" lon="11.836673878133297">
        <ele>2639.9200000000001</ele>
        <time>2017-07-03T06:28:00Z</time>
      </trkpt>
      <trkpt lat="46.308819679543376" lon="11.836668848991394">
        <ele>2641.3600000000001</ele>
        <time>2017-07-03T06:28:11Z</time>
      </trkpt>
      <trkpt lat="46.308777015656233" lon="11.836689552292228">
        <ele>2643.2800000000002</ele>
        <time>2017-07-03T06:28:25Z</time>
      </trkpt>
      <trkpt lat="46.308776931837201" lon="11.836695335805416">
        <ele>2643.7600000000002</ele>
        <time>2017-07-03T06:28:36Z</time>
      </trkpt>
      <trkpt lat="46.308735189959407" lon="11.836708495393395">
        <ele>2643.7600000000002</ele>
        <time>2017-07-03T06:28:47Z</time>
      </trkpt>
      <trkpt lat="46.308708284050226" lon="11.836749901995063">
        <ele>2647.1300000000001</ele>
        <time>2017-07-03T06:28:59Z</time>
      </trkpt>
      <trkpt lat="46.30867131985724" lon="11.836795499548316">
        <ele>2648.5700000000002</ele>
        <time>2017-07-03T06:29:09Z</time>
      </trkpt>
      <trkpt lat="46.308632846921682" lon="11.836831793189049">
        <ele>2650.0100000000002</ele>
        <time>2017-07-03T06:29:21Z</time>
      </trkpt>
      <trkpt lat="46.308614239096642" lon="11.83685140684247">
        <ele>2651.4499999999998</ele>
        <time>2017-07-03T06:29:31Z</time>
      </trkpt>
      <trkpt lat="46.308600911870599" lon="11.836838079616427">
        <ele>2651.9299999999998</ele>
        <time>2017-07-03T06:29:41Z</time>
      </trkpt>
      <trkpt lat="46.308562941849232" lon="11.836861884221435">
        <ele>2653.3800000000001</ele>
        <time>2017-07-03T06:29:52Z</time>
      </trkpt>
      <trkpt lat="46.308528073132038" lon="11.836877223104239">
        <ele>2654.8200000000002</ele>
        <time>2017-07-03T06:30:01Z</time>
      </trkpt>
      <trkpt lat="46.308495802804828" lon="11.836887784302235">
        <ele>2656.2600000000002</ele>
        <time>2017-07-03T06:30:14Z</time>
      </trkpt>
      <trkpt lat="46.308476524427533" lon="11.836901279166341">
        <ele>2657.6999999999998</ele>
        <time>2017-07-03T06:30:25Z</time>
      </trkpt>
      <trkpt lat="46.308473590761423" lon="11.836892813444138">
        <ele>2658.6599999999999</ele>
        <time>2017-07-03T06:30:35Z</time>
      </trkpt>
      <trkpt lat="46.308443499729037" lon="11.836908152326941">
        <ele>2660.1100000000001</ele>
        <time>2017-07-03T06:30:45Z</time>
      </trkpt>
      <trkpt lat="46.308430675417185" lon="11.836931454017758">
        <ele>2662.5100000000002</ele>
        <time>2017-07-03T06:30:53Z</time>
      </trkpt>
      <trkpt lat="46.308397566899657" lon="11.836948301643133">
        <ele>2662.0300000000002</ele>
        <time>2017-07-03T06:31:04Z</time>
      </trkpt>
      <trkpt lat="46.308377617970109" lon="11.836959030479193">
        <ele>2663.4699999999998</ele>
        <time>2017-07-03T06:31:14Z</time>
      </trkpt>
      <trkpt lat="46.308379713445902" lon="11.836943859234452">
        <ele>2664.4299999999998</ele>
        <time>2017-07-03T06:31:26Z</time>
      </trkpt>
      <trkpt lat="46.308391280472279" lon="11.836962215602398">
        <ele>2664.4299999999998</ele>
        <time>2017-07-03T06:31:44Z</time>
      </trkpt>
      <trkpt lat="46.30838449113071" lon="11.836977554485202">
        <ele>2665.3899999999999</ele>
        <time>2017-07-03T06:31:54Z</time>
      </trkpt>
      <trkpt lat="46.308373594656587" lon="11.836993480101228">
        <ele>2667.3099999999999</ele>
        <time>2017-07-03T06:32:06Z</time>
      </trkpt>
      <trkpt lat="46.30834836512804" lon="11.836985349655151">
        <ele>2668.2800000000002</ele>
        <time>2017-07-03T06:32:16Z</time>
      </trkpt>
      <trkpt lat="46.308316932991147" lon="11.836955677717924">
        <ele>2669.2399999999998</ele>
        <time>2017-07-03T06:32:27Z</time>
      </trkpt>
      <trkpt lat="46.30828726105392" lon="11.836998928338289">
        <ele>2671.1599999999999</ele>
        <time>2017-07-03T06:32:38Z</time>
      </trkpt>
      <trkpt lat="46.308283321559429" lon="11.837021056562662">
        <ele>2671.6399999999999</ele>
        <time>2017-07-03T06:32:48Z</time>
      </trkpt>
      <trkpt lat="46.308265635743737" lon="11.837028684094548">
        <ele>2671.6399999999999</ele>
        <time>2017-07-03T06:33:06Z</time>
      </trkpt>
      <trkpt lat="46.308249374851584" lon="11.83702633716166">
        <ele>2671.6399999999999</ele>
        <time>2017-07-03T06:33:27Z</time>
      </trkpt>
      <trkpt lat="46.308269742876291" lon="11.83701409958303">
        <ele>2671.6399999999999</ele>
        <time>2017-07-03T06:33:44Z</time>
      </trkpt>
      <trkpt lat="46.308273430913687" lon="11.837027594447136">
        <ele>2671.6399999999999</ele>
        <time>2017-07-03T06:33:56Z</time>
      </trkpt>
      <trkpt lat="46.308270329609513" lon="11.837008567526937">
        <ele>2674.04</ele>
        <time>2017-07-03T06:34:06Z</time>
      </trkpt>
      <trkpt lat="46.308254571631551" lon="11.837022146210074">
        <ele>2675.0100000000002</ele>
        <time>2017-07-03T06:34:18Z</time>
      </trkpt>
      <trkpt lat="46.308249793946743" lon="11.837018122896552">
        <ele>2675.4899999999998</ele>
        <time>2017-07-03T06:34:24Z</time>
      </trkpt>
      <trkpt lat="46.308250967413187" lon="11.837011501193047">
        <ele>2676.4499999999998</ele>
        <time>2017-07-03T06:34:32Z</time>
      </trkpt>
      <trkpt lat="46.308234957978129" lon="11.837047878652811">
        <ele>2676.4499999999998</ele>
        <time>2017-07-03T06:34:45Z</time>
      </trkpt>
      <trkpt lat="46.308188857510686" lon="11.837066067382693">
        <ele>2678.3699999999999</ele>
        <time>2017-07-03T06:34:56Z</time>
      </trkpt>
      <trkpt lat="46.308194724842906" lon="11.837115017697215">
        <ele>2680.29</ele>
        <time>2017-07-03T06:35:03Z</time>
      </trkpt>
      <trkpt lat="46.308167232200503" lon="11.837144438177347">
        <ele>2683.1799999999998</ele>
        <time>2017-07-03T06:35:11Z</time>
      </trkpt>
      <trkpt lat="46.308157844468951" lon="11.837129602208734">
        <ele>2684.1399999999999</ele>
        <time>2017-07-03T06:35:21Z</time>
      </trkpt>
      <trkpt lat="46.308148624375463" lon="11.837122729048133">
        <ele>2683.6599999999999</ele>
        <time>2017-07-03T06:35:32Z</time>
      </trkpt>
      <trkpt lat="46.308137141168118" lon="11.837127087637782">
        <ele>2683.6599999999999</ele>
        <time>2017-07-03T06:35:49Z</time>
      </trkpt>
      <trkpt lat="46.308140913024545" lon="11.837119795382023">
        <ele>2683.6599999999999</ele>
        <time>2017-07-03T06:36:08Z</time>
      </trkpt>
      <trkpt lat="46.308110738173127" lon="11.837167823687196">
        <ele>2682.6999999999998</ele>
        <time>2017-07-03T06:36:17Z</time>
      </trkpt>
      <trkpt lat="46.30809229798615" lon="11.837180647999048">
        <ele>2682.2199999999998</ele>
        <time>2017-07-03T06:36:26Z</time>
      </trkpt>
      <trkpt lat="46.308070505037904" lon="11.837193220853806">
        <ele>2681.73</ele>
        <time>2017-07-03T06:36:31Z</time>
      </trkpt>
      <trkpt lat="46.308052400127053" lon="11.837239656597376">
        <ele>2681.73</ele>
        <time>2017-07-03T06:36:40Z</time>
      </trkpt>
      <trkpt lat="46.308029098436236" lon="11.837271004915237">
        <ele>2682.6999999999998</ele>
        <time>2017-07-03T06:36:51Z</time>
      </trkpt>
      <trkpt lat="46.308025242760777" lon="11.837318446487188">
        <ele>2683.6599999999999</ele>
        <time>2017-07-03T06:37:04Z</time>
      </trkpt>
      <trkpt lat="46.3080102391541" lon="11.837398745119572">
        <ele>2684.6199999999999</ele>
        <time>2017-07-03T06:37:17Z</time>
      </trkpt>
      <trkpt lat="46.307981573045254" lon="11.837455658242106">
        <ele>2685.0999999999999</ele>
        <time>2017-07-03T06:37:27Z</time>
      </trkpt>
      <trkpt lat="46.307940669357777" lon="11.837509302422404">
        <ele>2685.0999999999999</ele>
        <time>2017-07-03T06:37:39Z</time>
      </trkpt>
      <trkpt lat="46.30789733491838" lon="11.837546685710549">
        <ele>2685.0999999999999</ele>
        <time>2017-07-03T06:37:49Z</time>
      </trkpt>
      <trkpt lat="46.307862214744091" lon="11.837585577741265">
        <ele>2684.6199999999999</ele>
        <time>2017-07-03T06:38:00Z</time>
      </trkpt>
      <trkpt lat="46.307855257764459" lon="11.837571663782001">
        <ele>2684.6199999999999</ele>
        <time>2017-07-03T06:38:10Z</time>
      </trkpt>
      <trkpt lat="46.307849306613207" lon="11.837598821148276">
        <ele>2684.6199999999999</ele>
        <time>2017-07-03T06:38:20Z</time>
      </trkpt>
      <trkpt lat="46.307811588048935" lon="11.837636204436421">
        <ele>2684.6199999999999</ele>
        <time>2017-07-03T06:38:31Z</time>
      </trkpt>
      <trkpt lat="46.307775964960456" lon="11.837726645171642">
        <ele>2684.6199999999999</ele>
        <time>2017-07-03T06:38:42Z</time>
      </trkpt>
      <trkpt lat="46.30776540376246" lon="11.837820187211037">
        <ele>2685.5799999999999</ele>
        <time>2017-07-03T06:38:52Z</time>
      </trkpt>
      <trkpt lat="46.307746795937419" lon="11.837871400639415">
        <ele>2684.6199999999999</ele>
        <time>2017-07-03T06:39:01Z</time>
      </trkpt>
      <trkpt lat="46.307742856442928" lon="11.837895372882485">
        <ele>2683.1799999999998</ele>
        <time>2017-07-03T06:39:10Z</time>
      </trkpt>
      <trkpt lat="46.307733803987503" lon="11.837930325418711">
        <ele>2682.6999999999998</ele>
        <time>2017-07-03T06:39:22Z</time>
      </trkpt>
      <trkpt lat="46.307719219475985" lon="11.837962931022048">
        <ele>2681.25</ele>
        <time>2017-07-03T06:39:34Z</time>
      </trkpt>
      <trkpt lat="46.307671358808875" lon="11.837981035932899">
        <ele>2680.29</ele>
        <time>2017-07-03T06:39:45Z</time>
      </trkpt>
      <trkpt lat="46.307621318846941" lon="11.838025711476803">
        <ele>2679.8099999999999</ele>
        <time>2017-07-03T06:39:58Z</time>
      </trkpt>
      <trkpt lat="46.307585863396525" lon="11.838169042021036">
        <ele>2678.8499999999999</ele>
        <time>2017-07-03T06:40:10Z</time>
      </trkpt>
      <trkpt lat="46.307533727958798" lon="11.83824397623539">
        <ele>2678.3699999999999</ele>
        <time>2017-07-03T06:40:19Z</time>
      </trkpt>
      <trkpt lat="46.307516628876328" lon="11.838252609595656">
        <ele>2678.3699999999999</ele>
        <time>2017-07-03T06:40:21Z</time>
      </trkpt>
      <trkpt lat="46.307434821501374" lon="11.838315976783633">
        <ele>2676.9299999999998</ele>
        <time>2017-07-03T06:40:33Z</time>
      </trkpt>
      <trkpt lat="46.30735888145864" lon="11.838417649269104">
        <ele>2676.4499999999998</ele>
        <time>2017-07-03T06:40:43Z</time>
      </trkpt>
      <trkpt lat="46.307290066033602" lon="11.838477328419685">
        <ele>2676.9299999999998</ele>
        <time>2017-07-03T06:40:52Z</time>
      </trkpt>
      <trkpt lat="46.307278834283352" lon="11.838486380875111">
        <ele>2676.9299999999998</ele>
        <time>2017-07-03T06:40:53Z</time>
      </trkpt>
      <trkpt lat="46.307199876755476" lon="11.838529128581285">
        <ele>2676.4499999999998</ele>
        <time>2017-07-03T06:41:04Z</time>
      </trkpt>
      <trkpt lat="46.307160062715411" lon="11.83853373862803">
        <ele>2676.9299999999998</ele>
        <time>2017-07-03T06:41:12Z</time>
      </trkpt>
      <trkpt lat="46.307145478203893" lon="11.838553184643388">
        <ele>2676.9299999999998</ele>
        <time>2017-07-03T06:41:22Z</time>
      </trkpt>
      <trkpt lat="46.30705445073545" lon="11.838593250140548">
        <ele>2676.9299999999998</ele>
        <time>2017-07-03T06:41:32Z</time>
      </trkpt>
      <trkpt lat="46.307001058012247" lon="11.838630717247725">
        <ele>2677.8899999999999</ele>
        <time>2017-07-03T06:41:42Z</time>
      </trkpt>
      <trkpt lat="46.30695428699255" lon="11.838631136342883">
        <ele>2677.8899999999999</ele>
        <time>2017-07-03T06:41:50Z</time>
      </trkpt>
      <trkpt lat="46.306900307536125" lon="11.83862803503871">
        <ele>2676.9299999999998</ele>
        <time>2017-07-03T06:42:00Z</time>
      </trkpt>
      <trkpt lat="46.306852530688047" lon="11.838656114414334">
        <ele>2677.4099999999999</ele>
        <time>2017-07-03T06:42:10Z</time>
      </trkpt>
      <trkpt lat="46.306779691949487" lon="11.838620072230697">
        <ele>2678.8499999999999</ele>
        <time>2017-07-03T06:42:21Z</time>
      </trkpt>
      <trkpt lat="46.306721437722445" lon="11.838648319244385">
        <ele>2680.29</ele>
        <time>2017-07-03T06:42:31Z</time>
      </trkpt>
      <trkpt lat="46.306682210415602" lon="11.838658209890127">
        <ele>2681.25</ele>
        <time>2017-07-03T06:42:42Z</time>
      </trkpt>
      <trkpt lat="46.306675923988223" lon="11.838674219325185">
        <ele>2681.73</ele>
        <time>2017-07-03T06:42:51Z</time>
      </trkpt>
      <trkpt lat="46.306673241779208" lon="11.83866030536592">
        <ele>2682.6999999999998</ele>
        <time>2017-07-03T06:42:54Z</time>
      </trkpt>
      <trkpt lat="46.306650945916772" lon="11.838633147999644">
        <ele>2684.1399999999999</ele>
        <time>2017-07-03T06:42:59Z</time>
      </trkpt>
      <trkpt lat="46.306615490466356" lon="11.838648151606321">
        <ele>2685.0999999999999</ele>
        <time>2017-07-03T06:43:12Z</time>
      </trkpt>
      <trkpt lat="46.306635774672031" lon="11.838708752766252">
        <ele>2686.0599999999999</ele>
        <time>2017-07-03T06:43:23Z</time>
      </trkpt>
      <trkpt lat="46.306607108563185" lon="11.838715123012662">
        <ele>2687.98</ele>
        <time>2017-07-03T06:43:32Z</time>
      </trkpt>
      <trkpt lat="46.30660149268806" lon="11.838765917345881">
        <ele>2689.4299999999998</ele>
        <time>2017-07-03T06:43:43Z</time>
      </trkpt>
      <trkpt lat="46.306547177955508" lon="11.838743621483445">
        <ele>2690.8699999999999</ele>
        <time>2017-07-03T06:43:55Z</time>
      </trkpt>
      <trkpt lat="46.306547932326794" lon="11.838770695030689">
        <ele>2691.3499999999999</ele>
        <time>2017-07-03T06:44:07Z</time>
      </trkpt>
      <trkpt lat="46.3064906001091" lon="11.838779076933861">
        <ele>2693.27</ele>
        <time>2017-07-03T06:44:19Z</time>
      </trkpt>
      <trkpt lat="46.306447768583894" lon="11.838825009763241">
        <ele>2693.75</ele>
        <time>2017-07-03T06:44:25Z</time>
      </trkpt>
      <trkpt lat="46.3064060267061" lon="11.838816963136196">
        <ele>2692.79</ele>
        <time>2017-07-03T06:44:38Z</time>
      </trkpt>
      <trkpt lat="46.306344084441662" lon="11.838787291198969">
        <ele>2690.8699999999999</ele>
        <time>2017-07-03T06:44:49Z</time>
      </trkpt>
      <trkpt lat="46.306253308430314" lon="11.838768851011992">
        <ele>2688.46</ele>
        <time>2017-07-03T06:45:02Z</time>
      </trkpt>
      <trkpt lat="46.306198742240667" lon="11.838782094419003">
        <ele>2687.5</ele>
        <time>2017-07-03T06:45:12Z</time>
      </trkpt>
      <trkpt lat="46.306177452206612" lon="11.838796678930521">
        <ele>2687.5</ele>
        <time>2017-07-03T06:45:16Z</time>
      </trkpt>
      <trkpt lat="46.306143924593925" lon="11.838803635910153">
        <ele>2687.5</ele>
        <time>2017-07-03T06:45:23Z</time>
      </trkpt>
      <trkpt lat="46.306098997592926" lon="11.838777316734195">
        <ele>2687.5</ele>
        <time>2017-07-03T06:45:29Z</time>
      </trkpt>
      <trkpt lat="46.306064631789923" lon="11.838740017265081">
        <ele>2686.54</ele>
        <time>2017-07-03T06:45:37Z</time>
      </trkpt>
      <trkpt lat="46.306028254330158" lon="11.838739346712828">
        <ele>2686.54</ele>
        <time>2017-07-03T06:45:45Z</time>
      </trkpt>
      <trkpt lat="46.306004114449024" lon="11.83876683935523">
        <ele>2687.02</ele>
        <time>2017-07-03T06:45:54Z</time>
      </trkpt>
      <trkpt lat="46.305959522724152" lon="11.838770611211658">
        <ele>2687.02</ele>
        <time>2017-07-03T06:46:11Z</time>
      </trkpt>
      <trkpt lat="46.305884085595608" lon="11.838795840740204">
        <ele>2687.02</ele>
        <time>2017-07-03T06:46:23Z</time>
      </trkpt>
      <trkpt lat="46.305847205221653" lon="11.838806653395295">
        <ele>2689.4299999999998</ele>
        <time>2017-07-03T06:46:29Z</time>
      </trkpt>
      <trkpt lat="46.305791968479753" lon="11.838878821581602">
        <ele>2689.4299999999998</ele>
        <time>2017-07-03T06:46:37Z</time>
      </trkpt>
      <trkpt lat="46.30573371425271" lon="11.838869601488113">
        <ele>2689.9099999999999</ele>
        <time>2017-07-03T06:46:47Z</time>
      </trkpt>
      <trkpt lat="46.305677723139524" lon="11.83883179910481">
        <ele>2690.3899999999999</ele>
        <time>2017-07-03T06:46:56Z</time>
      </trkpt>
      <trkpt lat="46.30564914084971" lon="11.838816460222006">
        <ele>2691.8299999999999</ele>
        <time>2017-07-03T06:47:01Z</time>
      </trkpt>
      <trkpt lat="46.30558610893786" lon="11.83881176635623">
        <ele>2690.3899999999999</ele>
        <time>2017-07-03T06:47:14Z</time>
      </trkpt>
      <trkpt lat="46.305505391210318" lon="11.838790811598301">
        <ele>2690.3899999999999</ele>
        <time>2017-07-03T06:47:26Z</time>
      </trkpt>
      <trkpt lat="46.305445795878768" lon="11.838734736666083">
        <ele>2689.4299999999998</ele>
        <time>2017-07-03T06:47:39Z</time>
      </trkpt>
      <trkpt lat="46.305404640734196" lon="11.838701460510492">
        <ele>2689.4299999999998</ele>
        <time>2017-07-03T06:47:48Z</time>
      </trkpt>
      <trkpt lat="46.305342111736536" lon="11.838701125234365">
        <ele>2689.9099999999999</ele>
        <time>2017-07-03T06:47:59Z</time>
      </trkpt>
      <trkpt lat="46.305296095088124" lon="11.838702633976936">
        <ele>2690.3899999999999</ele>
        <time>2017-07-03T06:48:08Z</time>
      </trkpt>
      <trkpt lat="46.305228034034371" lon="11.838686121627688">
        <ele>2691.3499999999999</ele>
        <time>2017-07-03T06:48:21Z</time>
      </trkpt>
      <trkpt lat="46.30518788471818" lon="11.838657455518842">
        <ele>2692.3099999999999</ele>
        <time>2017-07-03T06:48:31Z</time>
      </trkpt>
      <trkpt lat="46.305150836706161" lon="11.838607499375939">
        <ele>2693.27</ele>
        <time>2017-07-03T06:48:41Z</time>
      </trkpt>
      <trkpt lat="46.305140946060419" lon="11.838598949834704">
        <ele>2693.75</ele>
        <time>2017-07-03T06:48:52Z</time>
      </trkpt>
      <trkpt lat="46.305114375427365" lon="11.838570451363921">
        <ele>2693.75</ele>
        <time>2017-07-03T06:49:01Z</time>
      </trkpt>
      <trkpt lat="46.305111022666097" lon="11.838528458029032">
        <ele>2694.71</ele>
        <time>2017-07-03T06:49:11Z</time>
      </trkpt>
      <trkpt lat="46.305108172819018" lon="11.838524015620351">
        <ele>2695.1900000000001</ele>
        <time>2017-07-03T06:49:20Z</time>
      </trkpt>
      <trkpt lat="46.305100377649069" lon="11.838483614847064">
        <ele>2696.6399999999999</ele>
        <time>2017-07-03T06:49:30Z</time>
      </trkpt>
      <trkpt lat="46.305089732632041" lon="11.838450422510505">
        <ele>2697.5999999999999</ele>
        <time>2017-07-03T06:49:40Z</time>
      </trkpt>
      <trkpt lat="46.305107669904828" lon="11.838435502722859">
        <ele>2697.5999999999999</ele>
        <time>2017-07-03T06:49:51Z</time>
      </trkpt>
      <trkpt lat="46.305084032937884" lon="11.838386468589306">
        <ele>2698.0799999999999</ele>
        <time>2017-07-03T06:50:02Z</time>
      </trkpt>
      <trkpt lat="46.305049499496818" lon="11.838319078087807">
        <ele>2700</ele>
        <time>2017-07-03T06:50:14Z</time>
      </trkpt>
      <trkpt lat="46.305016977712512" lon="11.838337602093816">
        <ele>2700.96</ele>
        <time>2017-07-03T06:50:24Z</time>
      </trkpt>
      <trkpt lat="46.304994011297822" lon="11.838326118886471">
        <ele>2702.4000000000001</ele>
        <time>2017-07-03T06:50:36Z</time>
      </trkpt>
      <trkpt lat="46.304955454543233" lon="11.838345397263765">
        <ele>2703.8499999999999</ele>
        <time>2017-07-03T06:50:49Z</time>
      </trkpt>
      <trkpt lat="46.30497925914824" lon="11.8384472373873">
        <ele>2705.77</ele>
        <time>2017-07-03T06:51:02Z</time>
      </trkpt>
      <trkpt lat="46.304903654381633" lon="11.838439274579287">
        <ele>2706.25</ele>
        <time>2017-07-03T06:51:16Z</time>
      </trkpt>
      <trkpt lat="46.304870713502169" lon="11.838423181325197">
        <ele>2707.6900000000001</ele>
        <time>2017-07-03T06:51:28Z</time>
      </trkpt>
      <trkpt lat="46.304852608591318" lon="11.838430222123861">
        <ele>2708.6500000000001</ele>
        <time>2017-07-03T06:51:42Z</time>
      </trkpt>
      <trkpt lat="46.304852943867445" lon="11.838501300662756">
        <ele>2710.0900000000001</ele>
        <time>2017-07-03T06:51:54Z</time>
      </trkpt>
      <trkpt lat="46.304808687418699" lon="11.83841404505074">
        <ele>2711.0599999999999</ele>
        <time>2017-07-03T06:52:06Z</time>
      </trkpt>
      <trkpt lat="46.304796449840069" lon="11.838418655097485">
        <ele>2712.02</ele>
        <time>2017-07-03T06:52:18Z</time>
      </trkpt>
      <trkpt lat="46.304823104292154" lon="11.838451093062758">
        <ele>2712.02</ele>
        <time>2017-07-03T06:52:31Z</time>
      </trkpt>
      <trkpt lat="46.304823607206345" lon="11.838457295671105">
        <ele>2713.46</ele>
        <time>2017-07-03T06:52:34Z</time>
      </trkpt>
      <trkpt lat="46.304831989109516" lon="11.838501635938883">
        <ele>2713.9400000000001</ele>
        <time>2017-07-03T06:52:48Z</time>
      </trkpt>
      <trkpt lat="46.304782787337899" lon="11.838516723364592">
        <ele>2715.3800000000001</ele>
        <time>2017-07-03T06:53:04Z</time>
      </trkpt>
      <trkpt lat="46.304763341322541" lon="11.838480764999986">
        <ele>2715.3800000000001</ele>
        <time>2017-07-03T06:53:17Z</time>
      </trkpt>
      <trkpt lat="46.304771387949586" lon="11.838483111932874">
        <ele>2716.3400000000001</ele>
        <time>2017-07-03T06:53:30Z</time>
      </trkpt>
      <trkpt lat="46.304805669933558" lon="11.838488224893808">
        <ele>2717.3000000000002</ele>
        <time>2017-07-03T06:53:44Z</time>
      </trkpt>
      <trkpt lat="46.304823355749249" lon="11.838526111096144">
        <ele>2719.71</ele>
        <time>2017-07-03T06:53:56Z</time>
      </trkpt>
      <trkpt lat="46.304806005209684" lon="11.838540360331535">
        <ele>2719.71</ele>
        <time>2017-07-03T06:54:09Z</time>
      </trkpt>
      <trkpt lat="46.304736435413361" lon="11.838517393916845">
        <ele>2721.1500000000001</ele>
        <time>2017-07-03T06:54:20Z</time>
      </trkpt>
      <trkpt lat="46.304677175357938" lon="11.83844774030149">
        <ele>2722.1100000000001</ele>
        <time>2017-07-03T06:54:32Z</time>
      </trkpt>
      <trkpt lat="46.304671475663781" lon="11.83851613663137">
        <ele>2724.5100000000002</ele>
        <time>2017-07-03T06:54:47Z</time>
      </trkpt>
      <trkpt lat="46.304694022983313" lon="11.838550586253405">
        <ele>2724.9899999999998</ele>
        <time>2017-07-03T06:54:58Z</time>
      </trkpt>
      <trkpt lat="46.304716151207685" lon="11.838569194078445">
        <ele>2725.96</ele>
        <time>2017-07-03T06:55:09Z</time>
      </trkpt>
      <trkpt lat="46.304691424593329" lon="11.83854890987277">
        <ele>2725.96</ele>
        <time>2017-07-03T06:55:20Z</time>
      </trkpt>
      <trkpt lat="46.304694777354598" lon="11.838568774983287">
        <ele>2725.48</ele>
        <time>2017-07-03T06:55:29Z</time>
      </trkpt>
      <trkpt lat="46.304650269448757" lon="11.838531726971269">
        <ele>2726.9200000000001</ele>
        <time>2017-07-03T06:55:38Z</time>
      </trkpt>
      <trkpt lat="46.304627973586321" lon="11.838558884337544">
        <ele>2727.8800000000001</ele>
        <time>2017-07-03T06:55:50Z</time>
      </trkpt>
      <trkpt lat="46.304616071283817" lon="11.838545221835375">
        <ele>2728.3600000000001</ele>
        <time>2017-07-03T06:56:01Z</time>
      </trkpt>
      <trkpt lat="46.304598385468125" lon="11.838549915701151">
        <ele>2729.8000000000002</ele>
        <time>2017-07-03T06:56:13Z</time>
      </trkpt>
      <trkpt lat="46.30458639934659" lon="11.838528122752905">
        <ele>2730.7600000000002</ele>
        <time>2017-07-03T06:56:25Z</time>
      </trkpt>
      <trkpt lat="46.304600983858109" lon="11.83853080496192">
        <ele>2731.7199999999998</ele>
        <time>2017-07-03T06:56:35Z</time>
      </trkpt>
      <trkpt lat="46.304633421823382" lon="11.838546730577946">
        <ele>2732.6799999999998</ele>
        <time>2017-07-03T06:56:44Z</time>
      </trkpt>
      <trkpt lat="46.304672146216035" lon="11.838563159108162">
        <ele>2733.1700000000001</ele>
        <time>2017-07-03T06:56:56Z</time>
      </trkpt>
      <trkpt lat="46.304679606109858" lon="11.838595597073436">
        <ele>2734.6100000000001</ele>
        <time>2017-07-03T06:57:05Z</time>
      </trkpt>
      <trkpt lat="46.304673403501511" lon="11.838592160493135">
        <ele>2735.0900000000001</ele>
        <time>2017-07-03T06:57:16Z</time>
      </trkpt>
      <trkpt lat="46.304663931950927" lon="11.838588304817677">
        <ele>2736.0500000000002</ele>
        <time>2017-07-03T06:57:26Z</time>
      </trkpt>
      <trkpt lat="46.304616993293166" lon="11.83850004337728">
        <ele>2737.0100000000002</ele>
        <time>2017-07-03T06:57:37Z</time>
      </trkpt>
      <trkpt lat="46.304620010778308" lon="11.838486213237047">
        <ele>2737.0100000000002</ele>
        <time>2017-07-03T06:57:49Z</time>
      </trkpt>
      <trkpt lat="46.304631996899843" lon="11.8385542742908">
        <ele>2737.4899999999998</ele>
        <time>2017-07-03T06:58:05Z</time>
      </trkpt>
      <trkpt lat="46.304572569206357" lon="11.838582353666425">
        <ele>2737.4899999999998</ele>
        <time>2017-07-03T06:58:24Z</time>
      </trkpt>
      <trkpt lat="46.304570222273469" lon="11.838626023381948">
        <ele>2737.9699999999998</ele>
        <time>2017-07-03T06:58:36Z</time>
      </trkpt>
      <trkpt lat="46.304529821500182" lon="11.838568355888128">
        <ele>2739.8899999999999</ele>
        <time>2017-07-03T06:58:48Z</time>
      </trkpt>
      <trkpt lat="46.304525043815374" lon="11.83858310803771">
        <ele>2740.8600000000001</ele>
        <time>2017-07-03T06:58:59Z</time>
      </trkpt>
      <trkpt lat="46.304525714367628" lon="11.838574474677444">
        <ele>2741.8200000000002</ele>
        <time>2017-07-03T06:59:12Z</time>
      </trkpt>
      <trkpt lat="46.304514231160283" lon="11.838565757498145">
        <ele>2742.7800000000002</ele>
        <time>2017-07-03T06:59:23Z</time>
      </trkpt>
      <trkpt lat="46.304504843428731" lon="11.838548574596643">
        <ele>2743.2600000000002</ele>
        <time>2017-07-03T06:59:37Z</time>
      </trkpt>
      <trkpt lat="46.304495120421052" lon="11.83851764537394">
        <ele>2744.2199999999998</ele>
        <time>2017-07-03T06:59:47Z</time>
      </trkpt>
      <trkpt lat="46.304475506767631" lon="11.838566847145557">
        <ele>2745.1799999999998</ele>
        <time>2017-07-03T06:59:56Z</time>
      </trkpt>
      <trkpt lat="46.30446276627481" lon="11.838654689490795">
        <ele>2746.1399999999999</ele>
        <time>2017-07-03T07:00:07Z</time>
      </trkpt>
      <trkpt lat="46.304473578929901" lon="11.838728534057736">
        <ele>2747.5900000000001</ele>
        <time>2017-07-03T07:00:19Z</time>
      </trkpt>
      <trkpt lat="46.304478105157614" lon="11.838769856840372">
        <ele>2748.5500000000002</ele>
        <time>2017-07-03T07:00:30Z</time>
      </trkpt>
      <trkpt lat="46.304490426555276" lon="11.838815957307816">
        <ele>2749.0300000000002</ele>
        <time>2017-07-03T07:00:41Z</time>
      </trkpt>
      <trkpt lat="46.304508531466126" lon="11.838767593726516">
        <ele>2749.5100000000002</ele>
        <time>2017-07-03T07:01:02Z</time>
      </trkpt>
      <trkpt lat="46.304518170654774" lon="11.838832637295127">
        <ele>2750.9499999999998</ele>
        <time>2017-07-03T07:01:15Z</time>
      </trkpt>
      <trkpt lat="46.304505430161953" lon="11.838830625638366">
        <ele>2751.9099999999999</ele>
        <time>2017-07-03T07:01:23Z</time>
      </trkpt>
      <trkpt lat="46.304516242817044" lon="11.838831966742873">
        <ele>2752.8699999999999</ele>
        <time>2017-07-03T07:01:33Z</time>
      </trkpt>
      <trkpt lat="46.304512219503522" lon="11.838817298412323">
        <ele>2753.3499999999999</ele>
        <time>2017-07-03T07:01:49Z</time>
      </trkpt>
      <trkpt lat="46.304533760994673" lon="11.838722415268421">
        <ele>2753.8299999999999</ele>
        <time>2017-07-03T07:02:09Z</time>
      </trkpt>
      <trkpt lat="46.304611125960946" lon="11.838736832141876">
        <ele>2753.8299999999999</ele>
        <time>2017-07-03T07:02:29Z</time>
      </trkpt>
      <trkpt lat="46.304563349112868" lon="11.838748902082443">
        <ele>2754.3099999999999</ele>
        <time>2017-07-03T07:02:39Z</time>
      </trkpt>
      <trkpt lat="46.304534180089831" lon="11.838739011436701">
        <ele>2754.3099999999999</ele>
        <time>2017-07-03T07:02:54Z</time>
      </trkpt>
      <trkpt lat="46.30452973768115" lon="11.838747477158904">
        <ele>2754.8000000000002</ele>
        <time>2017-07-03T07:03:10Z</time>
      </trkpt>
      <trkpt lat="46.304526384919882" lon="11.838750243186951">
        <ele>2755.7600000000002</ele>
        <time>2017-07-03T07:03:25Z</time>
      </trkpt>
      <trkpt lat="46.304523115977645" lon="11.838720068335533">
        <ele>2756.2399999999998</ele>
        <time>2017-07-03T07:03:35Z</time>
      </trkpt>
      <trkpt lat="46.304556140676141" lon="11.838701376691461">
        <ele>2756.7199999999998</ele>
        <time>2017-07-03T07:03:49Z</time>
      </trkpt>
      <trkpt lat="46.304550860077143" lon="11.838703136891127">
        <ele>2757.1999999999998</ele>
        <time>2017-07-03T07:04:05Z</time>
      </trkpt>
      <trkpt lat="46.304547423496842" lon="11.838685451075435">
        <ele>2758.1599999999999</ele>
        <time>2017-07-03T07:04:20Z</time>
      </trkpt>
      <trkpt lat="46.304513979703188" lon="11.838675308972597">
        <ele>2759.1199999999999</ele>
        <time>2017-07-03T07:04:36Z</time>
      </trkpt>
      <trkpt lat="46.304488750174642" lon="11.838719816878438">
        <ele>2761.52</ele>
        <time>2017-07-03T07:04:46Z</time>
      </trkpt>
      <trkpt lat="46.304553039371967" lon="11.838721744716167">
        <ele>2761.52</ele>
        <time>2017-07-03T07:04:58Z</time>
      </trkpt>
      <trkpt lat="46.30458639934659" lon="11.838710093870759">
        <ele>2762</ele>
        <time>2017-07-03T07:05:12Z</time>
      </trkpt>
      <trkpt lat="46.30458103492856" lon="11.838728953152895">
        <ele>2762.9699999999998</ele>
        <time>2017-07-03T07:05:22Z</time>
      </trkpt>
      <trkpt lat="46.304545914754272" lon="11.838747393339872">
        <ele>2763.4499999999998</ele>
        <time>2017-07-03T07:05:33Z</time>
      </trkpt>
      <trkpt lat="46.304511548951268" lon="11.838788213208318">
        <ele>2763.9299999999998</ele>
        <time>2017-07-03T07:05:48Z</time>
      </trkpt>
      <trkpt lat="46.304533844813704" lon="11.83879123069346">
        <ele>2764.4099999999999</ele>
        <time>2017-07-03T07:05:59Z</time>
      </trkpt>
      <trkpt lat="46.304551865905523" lon="11.83879517018795">
        <ele>2765.3699999999999</ele>
        <time>2017-07-03T07:06:11Z</time>
      </trkpt>
      <trkpt lat="46.304574832320213" lon="11.838685786351562">
        <ele>2766.8099999999999</ele>
        <time>2017-07-03T07:06:26Z</time>
      </trkpt>
      <trkpt lat="46.304590925574303" lon="11.838725013658404">
        <ele>2767.29</ele>
        <time>2017-07-03T07:06:37Z</time>
      </trkpt>
      <trkpt lat="46.304570306092501" lon="11.83874043636024">
        <ele>2768.25</ele>
        <time>2017-07-03T07:06:50Z</time>
      </trkpt>
      <trkpt lat="46.304568629711866" lon="11.838761139661074">
        <ele>2768.73</ele>
        <time>2017-07-03T07:07:06Z</time>
      </trkpt>
      <trkpt lat="46.304595787078142" lon="11.838797181844711">
        <ele>2768.73</ele>
        <time>2017-07-03T07:07:19Z</time>
      </trkpt>
      <trkpt lat="46.304591679945588" lon="11.838807323947549">
        <ele>2770.1799999999998</ele>
        <time>2017-07-03T07:07:31Z</time>
      </trkpt>
      <trkpt lat="46.304598553106189" lon="11.838835906237364">
        <ele>2770.6599999999999</ele>
        <time>2017-07-03T07:07:36Z</time>
      </trkpt>
      <trkpt lat="46.304546920582652" lon="11.838833810761571">
        <ele>2771.6199999999999</ele>
        <time>2017-07-03T07:07:46Z</time>
      </trkpt>
      <trkpt lat="46.304532755166292" lon="11.838848395273089">
        <ele>2771.6199999999999</ele>
        <time>2017-07-03T07:08:02Z</time>
      </trkpt>
      <trkpt lat="46.304541891440749" lon="11.838852167129517">
        <ele>2772.5799999999999</ele>
        <time>2017-07-03T07:08:19Z</time>
      </trkpt>
      <trkpt lat="46.304541891440749" lon="11.838925173506141">
        <ele>2774.02</ele>
        <time>2017-07-03T07:08:31Z</time>
      </trkpt>
      <trkpt lat="46.304545328021049" lon="11.838903296738863">
        <ele>2775.9400000000001</ele>
        <time>2017-07-03T07:08:42Z</time>
      </trkpt>
      <trkpt lat="46.304542981088161" lon="11.838890304788947">
        <ele>2777.3899999999999</ele>
        <time>2017-07-03T07:08:53Z</time>
      </trkpt>
      <trkpt lat="46.304553123190999" lon="11.838853592053056">
        <ele>2776.9099999999999</ele>
        <time>2017-07-03T07:09:05Z</time>
      </trkpt>
      <trkpt lat="46.304550189524889" lon="11.838847054168582">
        <ele>2776.9099999999999</ele>
        <time>2017-07-03T07:09:16Z</time>
      </trkpt>
      <trkpt lat="46.304561337456107" lon="11.838866332545877">
        <ele>2777.3899999999999</ele>
        <time>2017-07-03T07:09:27Z</time>
      </trkpt>
      <trkpt lat="46.304547507315874" lon="11.838897513225675">
        <ele>2777.8699999999999</ele>
        <time>2017-07-03T07:09:37Z</time>
      </trkpt>
      <trkpt lat="46.304541891440749" lon="11.838924251496792">
        <ele>2778.3499999999999</ele>
        <time>2017-07-03T07:09:47Z</time>
      </trkpt>
      <trkpt lat="46.304546250030398" lon="11.838903967291117">
        <ele>2779.3099999999999</ele>
        <time>2017-07-03T07:10:01Z</time>
      </trkpt>
      <trkpt lat="46.304541472345591" lon="11.838896255940199">
        <ele>2779.79</ele>
        <time>2017-07-03T07:10:13Z</time>
      </trkpt>
      <trkpt lat="46.304515404626727" lon="11.838952666148543">
        <ele>2779.79</ele>
        <time>2017-07-03T07:10:28Z</time>
      </trkpt>
      <trkpt lat="46.30452579818666" lon="11.838939003646374">
        <ele>2780.27</ele>
        <time>2017-07-03T07:10:41Z</time>
      </trkpt>
      <trkpt lat="46.304531497880816" lon="11.838941350579262">
        <ele>2780.27</ele>
        <time>2017-07-03T07:10:53Z</time>
      </trkpt>
      <trkpt lat="46.30448380485177" lon="11.838943446055055">
        <ele>2780.27</ele>
        <time>2017-07-03T07:11:10Z</time>
      </trkpt>
      <trkpt lat="46.304448181763291" lon="11.838977728039026">
        <ele>2779.79</ele>
        <time>2017-07-03T07:11:27Z</time>
      </trkpt>
      <trkpt lat="46.304424544796348" lon="11.839022319763899">
        <ele>2780.27</ele>
        <time>2017-07-03T07:11:44Z</time>
      </trkpt>
      <trkpt lat="46.304445499554276" lon="11.839006980881095">
        <ele>2780.27</ele>
        <time>2017-07-03T07:12:04Z</time>
      </trkpt>
      <trkpt lat="46.304461760446429" lon="11.839067749679089">
        <ele>2780.27</ele>
        <time>2017-07-03T07:12:19Z</time>
      </trkpt>
      <trkpt lat="46.304443320259452" lon="11.83904780074954">
        <ele>2779.79</ele>
        <time>2017-07-03T07:12:32Z</time>
      </trkpt>
      <trkpt lat="46.304429322481155" lon="11.839046124368906">
        <ele>2779.79</ele>
        <time>2017-07-03T07:12:44Z</time>
      </trkpt>
      <trkpt lat="46.304439129307866" lon="11.83902382850647">
        <ele>2779.79</ele>
        <time>2017-07-03T07:13:02Z</time>
      </trkpt>
      <trkpt lat="46.304436698555946" lon="11.839019972831011">
        <ele>2781.23</ele>
        <time>2017-07-03T07:13:12Z</time>
      </trkpt>
      <trkpt lat="46.304438374936581" lon="11.839004382491112">
        <ele>2779.79</ele>
        <time>2017-07-03T07:13:26Z</time>
      </trkpt>
      <trkpt lat="46.304445331916213" lon="11.839011590927839">
        <ele>2779.79</ele>
        <time>2017-07-03T07:13:42Z</time>
      </trkpt>
      <trkpt lat="46.304438961669803" lon="11.838954342529178">
        <ele>2780.27</ele>
        <time>2017-07-03T07:13:57Z</time>
      </trkpt>
      <trkpt lat="46.30441389977932" lon="11.839014776051044">
        <ele>2779.79</ele>
        <time>2017-07-03T07:14:11Z</time>
      </trkpt>
      <trkpt lat="46.304431753233075" lon="11.839022571220994">
        <ele>2779.3099999999999</ele>
        <time>2017-07-03T07:14:27Z</time>
      </trkpt>
      <trkpt lat="46.304475925862789" lon="11.838959036394954">
        <ele>2777.8699999999999</ele>
        <time>2017-07-03T07:14:37Z</time>
      </trkpt>
      <trkpt lat="46.304458323866129" lon="11.83892760425806">
        <ele>2775.9400000000001</ele>
        <time>2017-07-03T07:14:45Z</time>
      </trkpt>
      <trkpt lat="46.304453797638416" lon="11.838890556246042">
        <ele>2774.02</ele>
        <time>2017-07-03T07:14:53Z</time>
      </trkpt>
      <trkpt lat="46.304473914206028" lon="11.838843952864408">
        <ele>2771.6199999999999</ele>
        <time>2017-07-03T07:15:04Z</time>
      </trkpt>
      <trkpt lat="46.304460000246763" lon="11.838859291747212">
        <ele>2770.6599999999999</ele>
        <time>2017-07-03T07:15:15Z</time>
      </trkpt>
      <trkpt lat="46.30440610460937" lon="11.83889877051115">
        <ele>2770.6599999999999</ele>
        <time>2017-07-03T07:15:33Z</time>
      </trkpt>
      <trkpt lat="46.304465616121888" lon="11.838890723884106">
        <ele>2771.6199999999999</ele>
        <time>2017-07-03T07:15:47Z</time>
      </trkpt>
      <trkpt lat="46.304546585306525" lon="11.838814783841372">
        <ele>2771.6199999999999</ele>
        <time>2017-07-03T07:16:03Z</time>
      </trkpt>
      <trkpt lat="46.304532587528229" lon="11.838793577626348">
        <ele>2771.1399999999999</ele>
        <time>2017-07-03T07:16:12Z</time>
      </trkpt>
      <trkpt lat="46.304516829550266" lon="11.838842025026679">
        <ele>2770.6599999999999</ele>
        <time>2017-07-03T07:16:22Z</time>
      </trkpt>
      <trkpt lat="46.304502077400684" lon="11.838834900408983">
        <ele>2770.6599999999999</ele>
        <time>2017-07-03T07:16:41Z</time>
      </trkpt>
      <trkpt lat="46.30450626835227" lon="11.838830709457397">
        <ele>2771.1399999999999</ele>
        <time>2017-07-03T07:16:59Z</time>
      </trkpt>
      <trkpt lat="46.304500484839082" lon="11.838790560141206">
        <ele>2772.0999999999999</ele>
        <time>2017-07-03T07:17:11Z</time>
      </trkpt>
      <trkpt lat="46.304518505930901" lon="11.838765330612659">
        <ele>2770.1799999999998</ele>
        <time>2017-07-03T07:17:21Z</time>
      </trkpt>
      <trkpt lat="46.304541220888495" lon="11.838730629533529">
        <ele>2767.29</ele>
        <time>2017-07-03T07:17:32Z</time>
      </trkpt>
      <trkpt lat="46.304556056857109" lon="11.838720487430692">
        <ele>2764.8899999999999</ele>
        <time>2017-07-03T07:17:42Z</time>
      </trkpt>
      <trkpt lat="46.304535269737244" lon="11.838724007830024">
        <ele>2763.4499999999998</ele>
        <time>2017-07-03T07:17:52Z</time>
      </trkpt>
      <trkpt lat="46.304525630548596" lon="11.838779328390956">
        <ele>2762</ele>
        <time>2017-07-03T07:18:03Z</time>
      </trkpt>
      <trkpt lat="46.30450869910419" lon="11.838786117732525">
        <ele>2760.5599999999999</ele>
        <time>2017-07-03T07:18:14Z</time>
      </trkpt>
      <trkpt lat="46.304481625556946" lon="11.838779412209988">
        <ele>2762.4899999999998</ele>
        <time>2017-07-03T07:18:23Z</time>
      </trkpt>
      <trkpt lat="46.304486151784658" lon="11.838756194338202">
        <ele>2765.3699999999999</ele>
        <time>2017-07-03T07:18:35Z</time>
      </trkpt>
      <trkpt lat="46.304471399635077" lon="11.838806066662073">
        <ele>2767.29</ele>
        <time>2017-07-03T07:18:50Z</time>
      </trkpt>
      <trkpt lat="46.304490510374308" lon="11.838841438293457">
        <ele>2767.77</ele>
        <time>2017-07-03T07:19:04Z</time>
      </trkpt>
      <trkpt lat="46.304510040208697" lon="11.838843366131186">
        <ele>2767.77</ele>
        <time>2017-07-03T07:19:14Z</time>
      </trkpt>
      <trkpt lat="46.304502077400684" lon="11.838817382231355">
        <ele>2767.29</ele>
        <time>2017-07-03T07:19:19Z</time>
      </trkpt>
      <trkpt lat="46.30452630110085" lon="11.838842947036028">
        <ele>2767.29</ele>
        <time>2017-07-03T07:19:21Z</time>
      </trkpt>
      <trkpt lat="46.304566701874137" lon="11.838828697800636">
        <ele>2768.73</ele>
        <time>2017-07-03T07:19:34Z</time>
      </trkpt>
      <trkpt lat="46.304545411840081" lon="11.838740184903145">
        <ele>2767.77</ele>
        <time>2017-07-03T07:19:59Z</time>
      </trkpt>
      <trkpt lat="46.304556643590331" lon="11.838698778301477">
        <ele>2768.25</ele>
        <time>2017-07-03T07:20:19Z</time>
      </trkpt>
      <trkpt lat="46.304385820403695" lon="11.838775724172592">
        <ele>2768.73</ele>
        <time>2017-07-03T07:20:52Z</time>
      </trkpt>
      <trkpt lat="46.30443443544209" lon="11.838795756921172">
        <ele>2768.25</ele>
        <time>2017-07-03T07:21:15Z</time>
      </trkpt>
      <trkpt lat="46.304436782374978" lon="11.838789638131857">
        <ele>2768.25</ele>
        <time>2017-07-03T07:21:41Z</time>
      </trkpt>
      <trkpt lat="46.304407361894846" lon="11.83876927010715">
        <ele>2768.25</ele>
        <time>2017-07-03T07:22:07Z</time>
      </trkpt>
      <trkpt lat="46.304370816797018" lon="11.838795421645045">
        <ele>2768.25</ele>
        <time>2017-07-03T07:22:39Z</time>
      </trkpt>
      <trkpt lat="46.304388754069805" lon="11.838771365582943">
        <ele>2768.25</ele>
        <time>2017-07-03T07:23:01Z</time>
      </trkpt>
      <trkpt lat="46.304466454312205" lon="11.83883816935122">
        <ele>2768.25</ele>
        <time>2017-07-03T07:23:27Z</time>
      </trkpt>
      <trkpt lat="46.304456647485495" lon="11.838866919279099">
        <ele>2768.25</ele>
        <time>2017-07-03T07:23:35Z</time>
      </trkpt>
      <trkpt lat="46.30441096611321" lon="11.838883263990283">
        <ele>2768.25</ele>
        <time>2017-07-03T07:23:44Z</time>
      </trkpt>
      <trkpt lat="46.304375929757953" lon="11.838905643671751">
        <ele>2768.25</ele>
        <time>2017-07-03T07:24:00Z</time>
      </trkpt>
      <trkpt lat="46.304370146244764" lon="11.838937913998961">
        <ele>2768.25</ele>
        <time>2017-07-03T07:24:14Z</time>
      </trkpt>
      <trkpt lat="46.304348018020391" lon="11.838923832401633">
        <ele>2768.25</ele>
        <time>2017-07-03T07:24:30Z</time>
      </trkpt>
      <trkpt lat="46.304358160123229" lon="11.838847054168582">
        <ele>2767.77</ele>
        <time>2017-07-03T07:24:50Z</time>
      </trkpt>
      <trkpt lat="46.304352879524231" lon="11.838867841288447">
        <ele>2768.25</ele>
        <time>2017-07-03T07:25:10Z</time>
      </trkpt>
      <trkpt lat="46.30442563444376" lon="11.838927017524838">
        <ele>2768.25</ele>
        <time>2017-07-03T07:25:30Z</time>
      </trkpt>
      <trkpt lat="46.304541137069464" lon="11.838940093293786">
        <ele>2768.25</ele>
        <time>2017-07-03T07:25:46Z</time>
      </trkpt>
      <trkpt lat="46.304410714656115" lon="11.838809922337532">
        <ele>2768.73</ele>
        <time>2017-07-03T07:26:05Z</time>
      </trkpt>
      <trkpt lat="46.304403841495514" lon="11.838793409988284">
        <ele>2768.25</ele>
        <time>2017-07-03T07:26:21Z</time>
      </trkpt>
      <trkpt lat="46.304414067417383" lon="11.838789973407984">
        <ele>2768.73</ele>
        <time>2017-07-03T07:26:37Z</time>
      </trkpt>
      <trkpt lat="46.304406858980656" lon="11.838831631466746">
        <ele>2768.73</ele>
        <time>2017-07-03T07:26:51Z</time>
      </trkpt>
      <trkpt lat="46.304419599473476" lon="11.838846132159233">
        <ele>2768.73</ele>
        <time>2017-07-03T07:27:11Z</time>
      </trkpt>
      <trkpt lat="46.304425047710538" lon="11.838894160464406">
        <ele>2768.73</ele>
        <time>2017-07-03T07:27:29Z</time>
      </trkpt>
      <trkpt lat="46.304438961669803" lon="11.838923748582602">
        <ele>2768.73</ele>
        <time>2017-07-03T07:27:47Z</time>
      </trkpt>
      <trkpt lat="46.304456396028399" lon="11.838938584551215">
        <ele>2768.73</ele>
        <time>2017-07-03T07:28:07Z</time>
      </trkpt>
      <trkpt lat="46.304319435730577" lon="11.838836409151554">
        <ele>2768.73</ele>
        <time>2017-07-03T07:28:24Z</time>
      </trkpt>
      <trkpt lat="46.304360926151276" lon="11.838859710842371">
        <ele>2768.73</ele>
        <time>2017-07-03T07:28:40Z</time>
      </trkpt>
      <trkpt lat="46.30437333136797" lon="11.838842947036028">
        <ele>2768.73</ele>
        <time>2017-07-03T07:28:56Z</time>
      </trkpt>
      <trkpt lat="46.304399147629738" lon="11.838886449113488">
        <ele>2768.73</ele>
        <time>2017-07-03T07:29:11Z</time>
      </trkpt>
      <trkpt lat="46.30440509878099" lon="11.838895250111818">
        <ele>2768.73</ele>
        <time>2017-07-03T07:29:28Z</time>
      </trkpt>
      <trkpt lat="46.304415157064795" lon="11.83891586959362">
        <ele>2768.25</ele>
        <time>2017-07-03T07:29:46Z</time>
      </trkpt>
      <trkpt lat="46.304378528147936" lon="11.838899524882436">
        <ele>2768.73</ele>
        <time>2017-07-03T07:30:01Z</time>
      </trkpt>
      <trkpt lat="46.304371152073145" lon="11.838899608701468">
        <ele>2768.25</ele>
        <time>2017-07-03T07:30:20Z</time>
      </trkpt>
      <trkpt lat="46.304350029677153" lon="11.838860716670752">
        <ele>2769.21</ele>
        <time>2017-07-03T07:30:33Z</time>
      </trkpt>
      <trkpt lat="46.304356819018722" lon="11.838836828246713">
        <ele>2769.6999999999998</ele>
        <time>2017-07-03T07:30:43Z</time>
      </trkpt>
      <trkpt lat="46.304366793483496" lon="11.838870607316494">
        <ele>2770.6599999999999</ele>
        <time>2017-07-03T07:30:56Z</time>
      </trkpt>
      <trkpt lat="46.304373247548938" lon="11.838882761076093">
        <ele>2771.1399999999999</ele>
        <time>2017-07-03T07:31:06Z</time>
      </trkpt>
      <trkpt lat="46.304412977769971" lon="11.838915282860398">
        <ele>2771.1399999999999</ele>
        <time>2017-07-03T07:31:22Z</time>
      </trkpt>
      <trkpt lat="46.304421611130238" lon="11.838939925655723">
        <ele>2771.6199999999999</ele>
        <time>2017-07-03T07:31:32Z</time>
      </trkpt>
      <trkpt lat="46.304411636665463" lon="11.838952330872416">
        <ele>2772.5799999999999</ele>
        <time>2017-07-03T07:31:44Z</time>
      </trkpt>
      <trkpt lat="46.304396968334913" lon="11.838962556794286">
        <ele>2773.0599999999999</ele>
        <time>2017-07-03T07:31:55Z</time>
      </trkpt>
      <trkpt lat="46.304371487349272" lon="11.838951660320163">
        <ele>2774.02</ele>
        <time>2017-07-03T07:32:05Z</time>
      </trkpt>
      <trkpt lat="46.304374421015382" lon="11.83894956484437">
        <ele>2774.02</ele>
        <time>2017-07-03T07:32:17Z</time>
      </trkpt>
      <trkpt lat="46.304366877302527" lon="11.838961131870747">
        <ele>2773.54</ele>
        <time>2017-07-03T07:32:30Z</time>
      </trkpt>
      <trkpt lat="46.304371487349272" lon="11.838960126042366">
        <ele>2773.54</ele>
        <time>2017-07-03T07:32:44Z</time>
      </trkpt>
      <trkpt lat="46.304372996091843" lon="11.838987031951547">
        <ele>2774.98</ele>
        <time>2017-07-03T07:32:55Z</time>
      </trkpt>
      <trkpt lat="46.304371990263462" lon="11.839012177661061">
        <ele>2775.46</ele>
        <time>2017-07-03T07:33:05Z</time>
      </trkpt>
      <trkpt lat="46.304379366338253" lon="11.839007148519158">
        <ele>2775.9400000000001</ele>
        <time>2017-07-03T07:33:17Z</time>
      </trkpt>
      <trkpt lat="46.304390598088503" lon="11.839001951739192">
        <ele>2775.9400000000001</ele>
        <time>2017-07-03T07:33:25Z</time>
      </trkpt>
      <trkpt lat="46.304397890344262" lon="11.838998347520828">
        <ele>2776.9099999999999</ele>
        <time>2017-07-03T07:33:35Z</time>
      </trkpt>
      <trkpt lat="46.304373163729906" lon="11.839029444381595">
        <ele>2776.4200000000001</ele>
        <time>2017-07-03T07:33:49Z</time>
      </trkpt>
      <trkpt lat="46.304379031062126" lon="11.839019805192947">
        <ele>2776.9099999999999</ele>
        <time>2017-07-03T07:34:06Z</time>
      </trkpt>
      <trkpt lat="46.304443823173642" lon="11.839044615626335">
        <ele>2776.9099999999999</ele>
        <time>2017-07-03T07:34:18Z</time>
      </trkpt>
      <trkpt lat="46.304437201470137" lon="11.839027181267738">
        <ele>2778.3499999999999</ele>
        <time>2017-07-03T07:34:27Z</time>
      </trkpt>
      <trkpt lat="46.304460754618049" lon="11.839011255651712">
        <ele>2777.8699999999999</ele>
        <time>2017-07-03T07:34:35Z</time>
      </trkpt>
      <trkpt lat="46.304434519261122" lon="11.83904386125505">
        <ele>2776.4200000000001</ele>
        <time>2017-07-03T07:35:05Z</time>
      </trkpt>
      <trkpt lat="46.304459497332573" lon="11.838979236781597">
        <ele>2775.9400000000001</ele>
        <time>2017-07-03T07:35:40Z</time>
      </trkpt>
      <trkpt lat="46.304440554231405" lon="11.838945876806974">
        <ele>2775.46</ele>
        <time>2017-07-03T07:36:13Z</time>
      </trkpt>
      <trkpt lat="46.304441140964627" lon="11.839028690010309">
        <ele>2775.46</ele>
        <time>2017-07-03T07:36:45Z</time>
      </trkpt>
      <trkpt lat="46.304428400471807" lon="11.839101361110806">
        <ele>2774.98</ele>
        <time>2017-07-03T07:37:20Z</time>
      </trkpt>
      <trkpt lat="46.304422365501523" lon="11.839126087725163">
        <ele>2774.98</ele>
        <time>2017-07-03T07:37:58Z</time>
      </trkpt>
      <trkpt lat="46.304436447098851" lon="11.839074790477753">
        <ele>2774.02</ele>
        <time>2017-07-03T07:38:36Z</time>
      </trkpt>
      <trkpt lat="46.304441895335913" lon="11.839120807126164">
        <ele>2774.5</ele>
        <time>2017-07-03T07:39:08Z</time>
      </trkpt>
      <trkpt lat="46.30443493835628" lon="11.839132960885763">
        <ele>2774.98</ele>
        <time>2017-07-03T07:39:15Z</time>
      </trkpt>
      <trkpt lat="46.304447762668133" lon="11.839119885116816">
        <ele>2775.46</ele>
        <time>2017-07-03T07:39:26Z</time>
      </trkpt>
      <trkpt lat="46.30444223061204" lon="11.839176043868065">
        <ele>2776.9099999999999</ele>
        <time>2017-07-03T07:39:37Z</time>
      </trkpt>
      <trkpt lat="46.304398477077484" lon="11.839105552062392">
        <ele>2777.8699999999999</ele>
        <time>2017-07-03T07:39:48Z</time>
      </trkpt>
      <trkpt lat="46.304383976384997" lon="11.839103372767568">
        <ele>2777.8699999999999</ele>
        <time>2017-07-03T07:39:59Z</time>
      </trkpt>
      <trkpt lat="46.30436603911221" lon="11.83914260007441">
        <ele>2778.3499999999999</ele>
        <time>2017-07-03T07:40:10Z</time>
      </trkpt>
      <trkpt lat="46.304355142638087" lon="11.839122232049704">
        <ele>2778.3499999999999</ele>
        <time>2017-07-03T07:40:23Z</time>
      </trkpt>
      <trkpt lat="46.304401410743594" lon="11.839196076616645">
        <ele>2777.8699999999999</ele>
        <time>2017-07-03T07:40:40Z</time>
      </trkpt>
      <trkpt lat="46.304417671635747" lon="11.839198926463723">
        <ele>2777.8699999999999</ele>
        <time>2017-07-03T07:41:01Z</time>
      </trkpt>
      <trkpt lat="46.304414067417383" lon="11.83919289149344">
        <ele>2777.3899999999999</ele>
        <time>2017-07-03T07:41:18Z</time>
      </trkpt>
      <trkpt lat="46.304414989426732" lon="11.839127093553543">
        <ele>2776.9099999999999</ele>
        <time>2017-07-03T07:41:30Z</time>
      </trkpt>
      <trkpt lat="46.304420353844762" lon="11.839099936187267">
        <ele>2776.9099999999999</ele>
        <time>2017-07-03T07:41:41Z</time>
      </trkpt>
      <trkpt lat="46.304403506219387" lon="11.83914746157825">
        <ele>2776.9099999999999</ele>
        <time>2017-07-03T07:41:54Z</time>
      </trkpt>
      <trkpt lat="46.304394453763962" lon="11.839118795469403">
        <ele>2776.9099999999999</ele>
        <time>2017-07-03T07:42:05Z</time>
      </trkpt>
      <trkpt lat="46.304356483742595" lon="11.839110665023327">
        <ele>2776.9099999999999</ele>
        <time>2017-07-03T07:42:18Z</time>
      </trkpt>
      <trkpt lat="46.304418426007032" lon="11.839084345847368">
        <ele>2776.4200000000001</ele>
        <time>2017-07-03T07:42:31Z</time>
      </trkpt>
      <trkpt lat="46.304426388815045" lon="11.839128853753209">
        <ele>2776.4200000000001</ele>
        <time>2017-07-03T07:42:44Z</time>
      </trkpt>
      <trkpt lat="46.304411301389337" lon="11.839149473235011">
        <ele>2776.9099999999999</ele>
        <time>2017-07-03T07:43:00Z</time>
      </trkpt>
      <trkpt lat="46.30442270077765" lon="11.839151903986931">
        <ele>2776.9099999999999</ele>
        <time>2017-07-03T07:43:13Z</time>
      </trkpt>
      <trkpt lat="46.304423036053777" lon="11.839152323082089">
        <ele>2777.3899999999999</ele>
        <time>2017-07-03T07:43:29Z</time>
      </trkpt>
      <trkpt lat="46.304421443492174" lon="11.839168751612306">
        <ele>2777.8699999999999</ele>
        <time>2017-07-03T07:43:43Z</time>
      </trkpt>
      <trkpt lat="46.30440074019134" lon="11.839170763269067">
        <ele>2778.8299999999999</ele>
        <time>2017-07-03T07:44:04Z</time>
      </trkpt>
      <trkpt lat="46.304416665807366" lon="11.839195573702455">
        <ele>2779.3099999999999</ele>
        <time>2017-07-03T07:44:15Z</time>
      </trkpt>
      <trkpt lat="46.304410211741924" lon="11.83920999057591">
        <ele>2780.75</ele>
        <time>2017-07-03T07:44:22Z</time>
      </trkpt>
      <trkpt lat="46.304413229227066" lon="11.83921149931848">
        <ele>2780.75</ele>
        <time>2017-07-03T07:44:33Z</time>
      </trkpt>
      <trkpt lat="46.304408200085163" lon="11.839182414114475">
        <ele>2780.27</ele>
        <time>2017-07-03T07:44:51Z</time>
      </trkpt>
      <trkpt lat="46.304424544796348" lon="11.83918995782733">
        <ele>2780.27</ele>
        <time>2017-07-03T07:45:07Z</time>
      </trkpt>
      <trkpt lat="46.304424544796348" lon="11.839186018332839">
        <ele>2780.75</ele>
        <time>2017-07-03T07:45:19Z</time>
      </trkpt>
      <trkpt lat="46.304436111822724" lon="11.839156849309802">
        <ele>2780.75</ele>
        <time>2017-07-03T07:45:31Z</time>
      </trkpt>
      <trkpt lat="46.304421778768301" lon="11.839180486276746">
        <ele>2780.27</ele>
        <time>2017-07-03T07:45:45Z</time>
      </trkpt>
      <trkpt lat="46.304418593645096" lon="11.839171266183257">
        <ele>2780.27</ele>
        <time>2017-07-03T07:45:56Z</time>
      </trkpt>
      <trkpt lat="46.304410882294178" lon="11.839180570095778">
        <ele>2780.75</ele>
        <time>2017-07-03T07:46:10Z</time>
      </trkpt>
      <trkpt lat="46.304425299167633" lon="11.839160369709134">
        <ele>2780.27</ele>
        <time>2017-07-03T07:46:27Z</time>
      </trkpt>
      <trkpt lat="46.304431920871139" lon="11.839161543175578">
        <ele>2780.75</ele>
        <time>2017-07-03T07:46:41Z</time>
      </trkpt>
      <trkpt lat="46.304446589201689" lon="11.839127345010638">
        <ele>2780.75</ele>
        <time>2017-07-03T07:46:56Z</time>
      </trkpt>
      <trkpt lat="46.30442219786346" lon="11.839172188192606">
        <ele>2781.23</ele>
        <time>2017-07-03T07:47:08Z</time>
      </trkpt>
      <trkpt lat="46.304399818181992" lon="11.839223736897111">
        <ele>2784.1199999999999</ele>
        <time>2017-07-03T07:47:18Z</time>
      </trkpt>
      <trkpt lat="46.304409373551607" lon="11.839249469339848">
        <ele>2785.5599999999999</ele>
        <time>2017-07-03T07:47:30Z</time>
      </trkpt>
      <trkpt lat="46.30439436994493" lon="11.839266149327159">
        <ele>2786.52</ele>
        <time>2017-07-03T07:47:40Z</time>
      </trkpt>
      <trkpt lat="46.304357321932912" lon="11.839296324178576">
        <ele>2788.4400000000001</ele>
        <time>2017-07-03T07:47:48Z</time>
      </trkpt>
      <trkpt lat="46.304352544248104" lon="11.839343514293432">
        <ele>2790.3600000000001</ele>
        <time>2017-07-03T07:47:59Z</time>
      </trkpt>
      <trkpt lat="46.304364698007703" lon="11.839390620589256">
        <ele>2790.8400000000001</ele>
        <time>2017-07-03T07:48:11Z</time>
      </trkpt>
      <trkpt lat="46.304339300841093" lon="11.839430266991258">
        <ele>2792.29</ele>
        <time>2017-07-03T07:48:23Z</time>
      </trkpt>
      <trkpt lat="46.304335277527571" lon="11.839451976120472">
        <ele>2794.21</ele>
        <time>2017-07-03T07:48:33Z</time>
      </trkpt>
      <trkpt lat="46.304330080747604" lon="11.839459603652358">
        <ele>2796.1300000000001</ele>
        <time>2017-07-03T07:48:43Z</time>
      </trkpt>
      <trkpt lat="46.304370816797018" lon="11.83943722397089">
        <ele>2797.0900000000001</ele>
        <time>2017-07-03T07:48:57Z</time>
      </trkpt>
      <trkpt lat="46.304384563118219" lon="11.839360781013966">
        <ele>2797.0900000000001</ele>
        <time>2017-07-03T07:49:19Z</time>
      </trkpt>
      <trkpt lat="46.304362434893847" lon="11.839368743821979">
        <ele>2798.54</ele>
        <time>2017-07-03T07:49:35Z</time>
      </trkpt>
      <trkpt lat="46.304357824847102" lon="11.839319206774235">
        <ele>2799.02</ele>
        <time>2017-07-03T07:49:48Z</time>
      </trkpt>
      <trkpt lat="46.30434206686914" lon="11.839346867054701">
        <ele>2801.4200000000001</ele>
        <time>2017-07-03T07:50:00Z</time>
      </trkpt>
      <trkpt lat="46.304304599761963" lon="11.839448790997267">
        <ele>2803.3400000000001</ele>
        <time>2017-07-03T07:50:14Z</time>
      </trkpt>
      <trkpt lat="46.304332343861461" lon="11.839498328045011">
        <ele>2803.3400000000001</ele>
        <time>2017-07-03T07:50:27Z</time>
      </trkpt>
      <trkpt lat="46.304316837340593" lon="11.839598910883069">
        <ele>2805.2600000000002</ele>
        <time>2017-07-03T07:50:39Z</time>
      </trkpt>
      <trkpt lat="46.304364195093513" lon="11.839636126533151">
        <ele>2804.7800000000002</ele>
        <time>2017-07-03T07:50:49Z</time>
      </trkpt>
      <trkpt lat="46.304365200921893" lon="11.839634450152516">
        <ele>2806.71</ele>
        <time>2017-07-03T07:51:05Z</time>
      </trkpt>
      <trkpt lat="46.304322704672813" lon="11.839622044935822">
        <ele>2809.1100000000001</ele>
        <time>2017-07-03T07:51:18Z</time>
      </trkpt>
      <trkpt lat="46.304274089634418" lon="11.839583739638329">
        <ele>2810.5500000000002</ele>
        <time>2017-07-03T07:51:27Z</time>
      </trkpt>
      <trkpt lat="46.304241986945271" lon="11.839663200080395">
        <ele>2812.4699999999998</ele>
        <time>2017-07-03T07:51:40Z</time>
      </trkpt>
      <trkpt lat="46.304262103512883" lon="11.8397958856076">
        <ele>2814.8800000000001</ele>
        <time>2017-07-03T07:51:52Z</time>
      </trkpt>
      <trkpt lat="46.304240897297859" lon="11.839843662455678">
        <ele>2815.8400000000001</ele>
        <time>2017-07-03T07:52:04Z</time>
      </trkpt>
      <trkpt lat="46.30425414070487" lon="11.839851289987564">
        <ele>2816.3200000000002</ele>
        <time>2017-07-03T07:52:21Z</time>
      </trkpt>
      <trkpt lat="46.304260091856122" lon="11.839905185624957">
        <ele>2815.8400000000001</ele>
        <time>2017-07-03T07:52:34Z</time>
      </trkpt>
      <trkpt lat="46.304263863712549" lon="11.839909292757511">
        <ele>2815.8400000000001</ele>
        <time>2017-07-03T07:52:35Z</time>
      </trkpt>
      <trkpt lat="46.304307952523232" lon="11.839946508407593">
        <ele>2814.8800000000001</ele>
        <time>2017-07-03T07:52:41Z</time>
      </trkpt>
      <trkpt lat="46.304355058819056" lon="11.839968720450997">
        <ele>2815.3600000000001</ele>
        <time>2017-07-03T07:53:07Z</time>
      </trkpt>
      <trkpt lat="46.304365787655115" lon="11.839976431801915">
        <ele>2816.8000000000002</ele>
        <time>2017-07-03T07:53:35Z</time>
      </trkpt>
      <trkpt lat="46.304187085479498" lon="11.839603018015623">
        <ele>2815.3600000000001</ele>
        <time>2017-07-03T07:53:54Z</time>
      </trkpt>
      <trkpt lat="46.304079545661807" lon="11.83947435580194">
        <ele>2815.3600000000001</ele>
        <time>2017-07-03T07:54:22Z</time>
      </trkpt>
      <trkpt lat="46.304016429930925" lon="11.839432362467051">
        <ele>2815.3600000000001</ele>
        <time>2017-07-03T07:54:44Z</time>
      </trkpt>
      <trkpt lat="46.303982902318239" lon="11.839389363303781">
        <ele>2815.8400000000001</ele>
        <time>2017-07-03T07:55:09Z</time>
      </trkpt>
      <trkpt lat="46.303986422717571" lon="11.839377544820309">
        <ele>2815.8400000000001</ele>
        <time>2017-07-03T07:55:31Z</time>
      </trkpt>
      <trkpt lat="46.303923726081848" lon="11.839357679709792">
        <ele>2815.8400000000001</ele>
        <time>2017-07-03T07:55:54Z</time>
      </trkpt>
      <trkpt lat="46.303942836821079" lon="11.839353069663048">
        <ele>2815.8400000000001</ele>
        <time>2017-07-03T07:56:16Z</time>
      </trkpt>
      <trkpt lat="46.303966138511896" lon="11.83938349597156">
        <ele>2815.8400000000001</ele>
        <time>2017-07-03T07:56:32Z</time>
      </trkpt>
      <trkpt lat="46.303976280614734" lon="11.839368743821979">
        <ele>2815.8400000000001</ele>
        <time>2017-07-03T07:57:02Z</time>
      </trkpt>
      <trkpt lat="46.303938562050462" lon="11.839345190674067">
        <ele>2815.8400000000001</ele>
        <time>2017-07-03T07:57:30Z</time>
      </trkpt>
      <trkpt lat="46.30393797531724" lon="11.839351058006287">
        <ele>2815.8400000000001</ele>
        <time>2017-07-03T07:57:51Z</time>
      </trkpt>
      <trkpt lat="46.303961612284184" lon="11.839371006935835">
        <ele>2815.8400000000001</ele>
        <time>2017-07-03T07:58:12Z</time>
      </trkpt>
      <trkpt lat="46.303942501544952" lon="11.839366480708122">
        <ele>2815.8400000000001</ele>
        <time>2017-07-03T07:58:38Z</time>
      </trkpt>
      <trkpt lat="46.303950799629092" lon="11.839353488758206">
        <ele>2815.8400000000001</ele>
        <time>2017-07-03T07:58:56Z</time>
      </trkpt>
      <trkpt lat="46.303925570100546" lon="11.839395062997937">
        <ele>2816.3200000000002</ele>
        <time>2017-07-03T07:59:14Z</time>
      </trkpt>
      <trkpt lat="46.303932778537273" lon="11.839401349425316">
        <ele>2815.8400000000001</ele>
        <time>2017-07-03T07:59:33Z</time>
      </trkpt>
      <trkpt lat="46.303933868184686" lon="11.839360361918807">
        <ele>2815.8400000000001</ele>
        <time>2017-07-03T08:00:02Z</time>
      </trkpt>
      <trkpt lat="46.303911237046123" lon="11.839308897033334">
        <ele>2815.8400000000001</ele>
        <time>2017-07-03T08:00:27Z</time>
      </trkpt>
      <trkpt lat="46.303868489339948" lon="11.839289451017976">
        <ele>2815.8400000000001</ele>
        <time>2017-07-03T08:00:52Z</time>
      </trkpt>
      <trkpt lat="46.303889695554972" lon="11.839298252016306">
        <ele>2815.3600000000001</ele>
        <time>2017-07-03T08:01:13Z</time>
      </trkpt>
      <trkpt lat="46.303890701383352" lon="11.839354326948524">
        <ele>2815.3600000000001</ele>
        <time>2017-07-03T08:01:32Z</time>
      </trkpt>
      <trkpt lat="46.303918361663818" lon="11.839365139603615">
        <ele>2815.3600000000001</ele>
        <time>2017-07-03T08:01:53Z</time>
      </trkpt>
      <trkpt lat="46.303919954225421" lon="11.839362289756536">
        <ele>2815.3600000000001</ele>
        <time>2017-07-03T08:02:16Z</time>
      </trkpt>
      <trkpt lat="46.3039521407336" lon="11.839337144047022">
        <ele>2815.3600000000001</ele>
        <time>2017-07-03T08:02:35Z</time>
      </trkpt>
      <trkpt lat="46.303936801850796" lon="11.83930529281497">
        <ele>2815.3600000000001</ele>
        <time>2017-07-03T08:03:01Z</time>
      </trkpt>
      <trkpt lat="46.303956583142281" lon="11.839380981400609">
        <ele>2815.3600000000001</ele>
        <time>2017-07-03T08:03:27Z</time>
      </trkpt>
      <trkpt lat="46.303928922861814" lon="11.839408809319139">
        <ele>2815.3600000000001</ele>
        <time>2017-07-03T08:03:50Z</time>
      </trkpt>
      <trkpt lat="46.303948117420077" lon="11.83941668830812">
        <ele>2815.3600000000001</ele>
        <time>2017-07-03T08:04:12Z</time>
      </trkpt>
      <trkpt lat="46.303905285894871" lon="11.839446779340506">
        <ele>2815.3600000000001</ele>
        <time>2017-07-03T08:04:19Z</time>
      </trkpt>
      <trkpt lat="46.3038813136518" lon="11.839454993605614">
        <ele>2815.3600000000001</ele>
        <time>2017-07-03T08:04:46Z</time>
      </trkpt>
      <trkpt lat="46.303896065801382" lon="11.839463207870722">
        <ele>2815.8400000000001</ele>
        <time>2017-07-03T08:05:04Z</time>
      </trkpt>
      <trkpt lat="46.303888438269496" lon="11.83944895863533">
        <ele>2815.8400000000001</ele>
        <time>2017-07-03T08:05:05Z</time>
      </trkpt>
      <trkpt lat="46.303909812122583" lon="11.839483072981238">
        <ele>2816.3200000000002</ele>
        <time>2017-07-03T08:05:11Z</time>
      </trkpt>
      <trkpt lat="46.30391601473093" lon="11.839473769068718">
        <ele>2816.8000000000002</ele>
        <time>2017-07-03T08:05:15Z</time>
      </trkpt>
      <trkpt lat="46.303944680839777" lon="11.839527161791921">
        <ele>2816.8000000000002</ele>
        <time>2017-07-03T08:05:24Z</time>
      </trkpt>
      <trkpt lat="46.303962953388691" lon="11.839607711881399">
        <ele>2815.3600000000001</ele>
        <time>2017-07-03T08:05:34Z</time>
      </trkpt>
      <trkpt lat="46.303967647254467" lon="11.839629337191582">
        <ele>2814.8800000000001</ele>
        <time>2017-07-03T08:05:39Z</time>
      </trkpt>
      <trkpt lat="46.303951637819409" lon="11.839649369940162">
        <ele>2814.4000000000001</ele>
        <time>2017-07-03T08:05:47Z</time>
      </trkpt>
      <trkpt lat="46.303952476009727" lon="11.839685747399926">
        <ele>2813.9200000000001</ele>
        <time>2017-07-03T08:05:59Z</time>
      </trkpt>
      <trkpt lat="46.304023470729589" lon="11.839839052408934">
        <ele>2812.96</ele>
        <time>2017-07-03T08:06:07Z</time>
      </trkpt>
      <trkpt lat="46.304035456851125" lon="11.839896887540817">
        <ele>2812.4699999999998</ele>
        <time>2017-07-03T08:06:18Z</time>
      </trkpt>
      <trkpt lat="46.304039228707552" lon="11.839937707409263">
        <ele>2811.9899999999998</ele>
        <time>2017-07-03T08:06:27Z</time>
      </trkpt>
      <trkpt lat="46.304059009999037" lon="11.840019766241312">
        <ele>2811.0300000000002</ele>
        <time>2017-07-03T08:06:41Z</time>
      </trkpt>
      <trkpt lat="46.30407627671957" lon="11.840057484805584">
        <ele>2810.0700000000002</ele>
        <time>2017-07-03T08:06:52Z</time>
      </trkpt>
      <trkpt lat="46.304057417437434" lon="11.840068465098739">
        <ele>2808.6300000000001</ele>
        <time>2017-07-03T08:07:02Z</time>
      </trkpt>
      <trkpt lat="46.304073091596365" lon="11.840110206976533">
        <ele>2807.6700000000001</ele>
        <time>2017-07-03T08:07:16Z</time>
      </trkpt>
      <trkpt lat="46.303943926468492" lon="11.839911723509431">
        <ele>2806.71</ele>
        <time>2017-07-03T08:07:33Z</time>
      </trkpt>
      <trkpt lat="46.303897826001048" lon="11.839765375480056">
        <ele>2805.75</ele>
        <time>2017-07-03T08:07:47Z</time>
      </trkpt>
      <trkpt lat="46.303762206807733" lon="11.839586589485407">
        <ele>2805.2600000000002</ele>
        <time>2017-07-03T08:08:02Z</time>
      </trkpt>
      <trkpt lat="46.303730690851808" lon="11.839574938639998">
        <ele>2804.7800000000002</ele>
        <time>2017-07-03T08:08:18Z</time>
      </trkpt>
      <trkpt lat="46.303584510460496" lon="11.839307975023985">
        <ele>2803.8200000000002</ele>
        <time>2017-07-03T08:08:35Z</time>
      </trkpt>
      <trkpt lat="46.303557436913252" lon="11.839296072721481">
        <ele>2802.8600000000001</ele>
        <time>2017-07-03T08:08:51Z</time>
      </trkpt>
      <trkpt lat="46.30363161675632" lon="11.839365726336837">
        <ele>2802.3800000000001</ele>
        <time>2017-07-03T08:09:06Z</time>
      </trkpt>
      <trkpt lat="46.30374351516366" lon="11.839533532038331">
        <ele>2801.9000000000001</ele>
        <time>2017-07-03T08:09:24Z</time>
      </trkpt>
      <trkpt lat="46.303798332810402" lon="11.840070225298405">
        <ele>2800.9400000000001</ele>
        <time>2017-07-03T08:09:45Z</time>
      </trkpt>
      <trkpt lat="46.303736809641123" lon="11.83998791500926">
        <ele>2800.46</ele>
        <time>2017-07-03T08:10:06Z</time>
      </trkpt>
      <trkpt lat="46.303632203489542" lon="11.839859839528799">
        <ele>2799.02</ele>
        <time>2017-07-03T08:10:26Z</time>
      </trkpt>
      <trkpt lat="46.303648296743631" lon="11.839901078492403">
        <ele>2799.02</ele>
        <time>2017-07-03T08:10:47Z</time>
      </trkpt>
      <trkpt lat="46.303700432181358" lon="11.839975006878376">
        <ele>2799.02</ele>
        <time>2017-07-03T08:11:06Z</time>
      </trkpt>
      <trkpt lat="46.303740413859487" lon="11.840011132881045">
        <ele>2798.54</ele>
        <time>2017-07-03T08:11:23Z</time>
      </trkpt>
      <trkpt lat="46.303808474913239" lon="11.8400998134166">
        <ele>2798.54</ele>
        <time>2017-07-03T08:11:40Z</time>
      </trkpt>
      <trkpt lat="46.303814090788364" lon="11.840123115107417">
        <ele>2798.0500000000002</ele>
        <time>2017-07-03T08:11:53Z</time>
      </trkpt>
      <trkpt lat="46.303779138252139" lon="11.840078942477703">
        <ele>2798.0500000000002</ele>
        <time>2017-07-03T08:12:07Z</time>
      </trkpt>
      <trkpt lat="46.303784167394042" lon="11.840118924155831">
        <ele>2798.0500000000002</ele>
        <time>2017-07-03T08:12:27Z</time>
      </trkpt>
      <trkpt lat="46.303936801850796" lon="11.840572049841285">
        <ele>2797.5700000000002</ele>
        <time>2017-07-03T08:12:44Z</time>
      </trkpt>
      <trkpt lat="46.303917607292533" lon="11.840501893311739">
        <ele>2796.6100000000001</ele>
        <time>2017-07-03T08:13:04Z</time>
      </trkpt>
      <trkpt lat="46.303937640041113" lon="11.840571211650968">
        <ele>2796.6100000000001</ele>
        <time>2017-07-03T08:13:21Z</time>
      </trkpt>
      <trkpt lat="46.3039296772331" lon="11.840563667938113">
        <ele>2795.6500000000001</ele>
        <time>2017-07-03T08:13:36Z</time>
      </trkpt>
      <trkpt lat="46.303926156833768" lon="11.84055469930172">
        <ele>2795.6500000000001</ele>
        <time>2017-07-03T08:13:49Z</time>
      </trkpt>
      <trkpt lat="46.303876200690866" lon="11.840441040694714">
        <ele>2794.6900000000001</ele>
        <time>2017-07-03T08:14:07Z</time>
      </trkpt>
      <trkpt lat="46.303815431892872" lon="11.840285304933786">
        <ele>2794.21</ele>
        <time>2017-07-03T08:14:22Z</time>
      </trkpt>
      <trkpt lat="46.303764218464494" lon="11.840156223624945">
        <ele>2793.73</ele>
        <time>2017-07-03T08:14:33Z</time>
      </trkpt>
      <trkpt lat="46.303771091625094" lon="11.840199809521437">
        <ele>2793.73</ele>
        <time>2017-07-03T08:14:46Z</time>
      </trkpt>
      <trkpt lat="46.303764972835779" lon="11.840216992422938">
        <ele>2792.77</ele>
        <time>2017-07-03T08:15:05Z</time>
      </trkpt>
      <trkpt lat="46.303788106888533" lon="11.840306846424937">
        <ele>2791.8099999999999</ele>
        <time>2017-07-03T08:15:18Z</time>
      </trkpt>
      <trkpt lat="46.303835632279515" lon="11.840400556102395">
        <ele>2790.8400000000001</ele>
        <time>2017-07-03T08:15:32Z</time>
      </trkpt>
      <trkpt lat="46.303765559569001" lon="11.84028647840023">
        <ele>2789.8800000000001</ele>
        <time>2017-07-03T08:15:46Z</time>
      </trkpt>
      <trkpt lat="46.303529106080532" lon="11.840328052639961">
        <ele>2789.4000000000001</ele>
        <time>2017-07-03T08:16:04Z</time>
      </trkpt>
      <trkpt lat="46.303448304533958" lon="11.840643966570497">
        <ele>2788.4400000000001</ele>
        <time>2017-07-03T08:16:19Z</time>
      </trkpt>
      <trkpt lat="46.303268596529961" lon="11.840709848329425">
        <ele>2787.96</ele>
        <time>2017-07-03T08:16:32Z</time>
      </trkpt>
      <trkpt lat="46.302972128614783" lon="11.840788805857301">
        <ele>2787</ele>
        <time>2017-07-03T08:16:44Z</time>
      </trkpt>
      <trkpt lat="46.302864337339997" lon="11.840920485556126">
        <ele>2786.04</ele>
        <time>2017-07-03T08:16:54Z</time>
      </trkpt>
      <trkpt lat="46.302819410338998" lon="11.84128912165761">
        <ele>2785.0799999999999</ele>
        <time>2017-07-03T08:17:04Z</time>
      </trkpt>
      <trkpt lat="46.302954191341996" lon="11.841657841578126">
        <ele>2784.5999999999999</ele>
        <time>2017-07-03T08:17:12Z</time>
      </trkpt>
      <trkpt lat="46.303079919889569" lon="11.842000158503652">
        <ele>2784.1199999999999</ele>
        <time>2017-07-03T08:17:22Z</time>
      </trkpt>
      <trkpt lat="46.303115878254175" lon="11.842158157378435">
        <ele>2784.1199999999999</ele>
        <time>2017-07-03T08:17:30Z</time>
      </trkpt>
      <trkpt lat="46.303142867982388" lon="11.842302996665239">
        <ele>2784.1199999999999</ele>
        <time>2017-07-03T08:17:40Z</time>
      </trkpt>
      <trkpt lat="46.303133815526962" lon="11.842447752133012">
        <ele>2784.1199999999999</ele>
        <time>2017-07-03T08:17:54Z</time>
      </trkpt>
      <trkpt lat="46.303241522982717" lon="11.842658556997776">
        <ele>2696.1500000000001</ele>
        <time>2017-07-03T08:40:53Z</time>
      </trkpt>
      <trkpt lat="46.303191902115941" lon="11.842664005234838">
        <ele>2695.1900000000001</ele>
        <time>2017-07-03T08:41:03Z</time>
      </trkpt>
      <trkpt lat="46.303177317604423" lon="11.842673309147358">
        <ele>2694.71</ele>
        <time>2017-07-03T08:41:05Z</time>
      </trkpt>
      <trkpt lat="46.303145550191402" lon="11.842644894495606">
        <ele>2692.79</ele>
        <time>2017-07-03T08:41:09Z</time>
      </trkpt>
      <trkpt lat="46.303110849112272" lon="11.842598542571068">
        <ele>2690.3899999999999</ele>
        <time>2017-07-03T08:41:16Z</time>
      </trkpt>
      <trkpt lat="46.303081512451172" lon="11.842598794028163">
        <ele>2688.9400000000001</ele>
        <time>2017-07-03T08:41:20Z</time>
      </trkpt>
      <trkpt lat="46.303037256002426" lon="11.842668950557709">
        <ele>2686.0599999999999</ele>
        <time>2017-07-03T08:41:30Z</time>
      </trkpt>
      <trkpt lat="46.302988221868873" lon="11.842604828998446">
        <ele>2683.6599999999999</ele>
        <time>2017-07-03T08:41:39Z</time>
      </trkpt>
      <trkpt lat="46.30298126488924" lon="11.842632405459881">
        <ele>2682.6999999999998</ele>
        <time>2017-07-03T08:41:42Z</time>
      </trkpt>
      <trkpt lat="46.302961735054851" lon="11.842669285833836">
        <ele>2681.25</ele>
        <time>2017-07-03T08:41:46Z</time>
      </trkpt>
      <trkpt lat="46.302889985963702" lon="11.842648331075907">
        <ele>2678.8499999999999</ele>
        <time>2017-07-03T08:41:56Z</time>
      </trkpt>
      <trkpt lat="46.302824439480901" lon="11.842686552554369">
        <ele>2675.4899999999998</ele>
        <time>2017-07-03T08:42:07Z</time>
      </trkpt>
      <trkpt lat="46.302829720079899" lon="11.842715637758374">
        <ele>2674.52</ele>
        <time>2017-07-03T08:42:18Z</time>
      </trkpt>
      <trkpt lat="46.302818404510617" lon="11.842733407393098">
        <ele>2674.04</ele>
        <time>2017-07-03T08:42:20Z</time>
      </trkpt>
      <trkpt lat="46.302750343456864" lon="11.842855783179402">
        <ele>2671.6399999999999</ele>
        <time>2017-07-03T08:42:33Z</time>
      </trkpt>
      <trkpt lat="46.302699465304613" lon="11.842880509793758">
        <ele>2669.7199999999998</ele>
        <time>2017-07-03T08:42:41Z</time>
      </trkpt>
      <trkpt lat="46.302661327645183" lon="11.842971872538328">
        <ele>2667.3099999999999</ele>
        <time>2017-07-03T08:42:51Z</time>
      </trkpt>
      <trkpt lat="46.302643725648522" lon="11.842973716557026">
        <ele>2667.3099999999999</ele>
        <time>2017-07-03T08:42:53Z</time>
      </trkpt>
      <trkpt lat="46.302586141973734" lon="11.842983942478895">
        <ele>2666.8299999999999</ele>
        <time>2017-07-03T08:43:06Z</time>
      </trkpt>
      <trkpt lat="46.302588572725654" lon="11.842984110116959">
        <ele>2666.3499999999999</ele>
        <time>2017-07-03T08:43:22Z</time>
      </trkpt>
      <trkpt lat="46.302589075639844" lon="11.843019900843501">
        <ele>2666.3499999999999</ele>
        <time>2017-07-03T08:43:37Z</time>
      </trkpt>
      <trkpt lat="46.302593350410461" lon="11.843024594709277">
        <ele>2665.8699999999999</ele>
        <time>2017-07-03T08:43:49Z</time>
      </trkpt>
      <trkpt lat="46.302600977942348" lon="11.843058289960027">
        <ele>2665.8699999999999</ele>
        <time>2017-07-03T08:44:02Z</time>
      </trkpt>
      <trkpt lat="46.302577927708626" lon="11.843076981604099">
        <ele>2665.8699999999999</ele>
        <time>2017-07-03T08:44:18Z</time>
      </trkpt>
      <trkpt lat="46.302576838061213" lon="11.843064995482564">
        <ele>2663.4699999999998</ele>
        <time>2017-07-03T08:44:36Z</time>
      </trkpt>
      <trkpt lat="46.302598379552364" lon="11.843070108443499">
        <ele>2665.3899999999999</ele>
        <time>2017-07-03T08:44:41Z</time>
      </trkpt>
      <trkpt lat="46.302559152245522" lon="11.843005316331983">
        <ele>2665.3899999999999</ele>
        <time>2017-07-03T08:44:56Z</time>
      </trkpt>
      <trkpt lat="46.302559319883585" lon="11.842985954135656">
        <ele>2657.2199999999998</ele>
        <time>2017-07-03T08:45:04Z</time>
      </trkpt>
      <trkpt lat="46.302566109225154" lon="11.843029540032148">
        <ele>2664.4299999999998</ele>
        <time>2017-07-03T08:45:05Z</time>
      </trkpt>
      <trkpt lat="46.302585639059544" lon="11.843215702101588">
        <ele>2663.9499999999998</ele>
        <time>2017-07-03T08:45:28Z</time>
      </trkpt>
      <trkpt lat="46.302565103396773" lon="11.843173122033477">
        <ele>2665.3899999999999</ele>
        <time>2017-07-03T08:45:30Z</time>
      </trkpt>
      <trkpt lat="46.302551440894604" lon="11.843106569722295">
        <ele>2664.4299999999998</ele>
        <time>2017-07-03T08:45:39Z</time>
      </trkpt>
      <trkpt lat="46.302517661824822" lon="11.84309458360076">
        <ele>2663.9499999999998</ele>
        <time>2017-07-03T08:45:57Z</time>
      </trkpt>
      <trkpt lat="46.302490253001451" lon="11.843073964118958">
        <ele>2663.9499999999998</ele>
        <time>2017-07-03T08:46:17Z</time>
      </trkpt>
      <trkpt lat="46.302524451166391" lon="11.843081004917622">
        <ele>2664.9099999999999</ele>
        <time>2017-07-03T08:46:23Z</time>
      </trkpt>
      <trkpt lat="46.30255663767457" lon="11.843090979382396">
        <ele>2664.9099999999999</ele>
        <time>2017-07-03T08:46:31Z</time>
      </trkpt>
      <trkpt lat="46.302577927708626" lon="11.843098942190409">
        <ele>2664.9099999999999</ele>
        <time>2017-07-03T08:46:44Z</time>
      </trkpt>
      <trkpt lat="46.302584800869226" lon="11.843066168949008">
        <ele>2664.9099999999999</ele>
        <time>2017-07-03T08:46:59Z</time>
      </trkpt>
      <trkpt lat="46.302550435066223" lon="11.843057535588741">
        <ele>2664.4299999999998</ele>
        <time>2017-07-03T08:47:11Z</time>
      </trkpt>
      <trkpt lat="46.302550435066223" lon="11.843056110665202">
        <ele>2664.4299999999998</ele>
        <time>2017-07-03T08:47:20Z</time>
      </trkpt>
      <trkpt lat="46.302566695958376" lon="11.843080669641495">
        <ele>2664.9099999999999</ele>
        <time>2017-07-03T08:47:35Z</time>
      </trkpt>
      <trkpt lat="46.302553536370397" lon="11.843082429841161">
        <ele>2664.9099999999999</ele>
        <time>2017-07-03T08:47:52Z</time>
      </trkpt>
      <trkpt lat="46.302582286298275" lon="11.84303599409759">
        <ele>2664.9099999999999</ele>
        <time>2017-07-03T08:48:10Z</time>
      </trkpt>
      <trkpt lat="46.302567785605788" lon="11.843006405979395">
        <ele>2664.4299999999998</ele>
        <time>2017-07-03T08:48:28Z</time>
      </trkpt>
      <trkpt lat="46.302583878859878" lon="11.843034317716956">
        <ele>2664.4299999999998</ele>
        <time>2017-07-03T08:48:43Z</time>
      </trkpt>
      <trkpt lat="46.302561247721314" lon="11.843017134815454">
        <ele>2663.4699999999998</ele>
        <time>2017-07-03T08:48:55Z</time>
      </trkpt>
      <trkpt lat="46.302570551633835" lon="11.843044376000762">
        <ele>2663.9499999999998</ele>
        <time>2017-07-03T08:49:09Z</time>
      </trkpt>
      <trkpt lat="46.302584800869226" lon="11.843066420406103">
        <ele>2663.9499999999998</ele>
        <time>2017-07-03T08:49:28Z</time>
      </trkpt>
      <trkpt lat="46.302566863596439" lon="11.842983020469546">
        <ele>2663.9499999999998</ele>
        <time>2017-07-03T08:49:43Z</time>
      </trkpt>
      <trkpt lat="46.302568120881915" lon="11.84304085560143">
        <ele>2663.4699999999998</ele>
        <time>2017-07-03T08:49:54Z</time>
      </trkpt>
      <trkpt lat="46.302607264369726" lon="11.84314051643014">
        <ele>2662.9899999999998</ele>
        <time>2017-07-03T08:50:03Z</time>
      </trkpt>
      <trkpt lat="46.302574155852199" lon="11.843251409009099">
        <ele>2662.5100000000002</ele>
        <time>2017-07-03T08:50:11Z</time>
      </trkpt>
      <trkpt lat="46.302519422024488" lon="11.843357188627124">
        <ele>2661.5500000000002</ele>
        <time>2017-07-03T08:50:21Z</time>
      </trkpt>
      <trkpt lat="46.302407439798117" lon="11.843458358198404">
        <ele>2659.1399999999999</ele>
        <time>2017-07-03T08:50:33Z</time>
      </trkpt>
      <trkpt lat="46.302335858345032" lon="11.843579392880201">
        <ele>2658.1799999999998</ele>
        <time>2017-07-03T08:50:44Z</time>
      </trkpt>
      <trkpt lat="46.302195712924004" lon="11.843691794201732">
        <ele>2656.2600000000002</ele>
        <time>2017-07-03T08:50:57Z</time>
      </trkpt>
      <trkpt lat="46.302148271352053" lon="11.843760274350643">
        <ele>2656.7399999999998</ele>
        <time>2017-07-03T08:51:04Z</time>
      </trkpt>
      <trkpt lat="46.30208901129663" lon="11.843791790306568">
        <ele>2655.7800000000002</ele>
        <time>2017-07-03T08:51:10Z</time>
      </trkpt>
      <trkpt lat="46.302006365731359" lon="11.84377427212894">
        <ele>2655.3000000000002</ele>
        <time>2017-07-03T08:51:21Z</time>
      </trkpt>
      <trkpt lat="46.301985243335366" lon="11.843784162774682">
        <ele>2655.7800000000002</ele>
        <time>2017-07-03T08:51:30Z</time>
      </trkpt>
      <trkpt lat="46.301960935816169" lon="11.843771422281861">
        <ele>2656.2600000000002</ele>
        <time>2017-07-03T08:51:40Z</time>
      </trkpt>
      <trkpt lat="46.301941238343716" lon="11.843711659312248">
        <ele>2658.1799999999998</ele>
        <time>2017-07-03T08:51:50Z</time>
      </trkpt>
      <trkpt lat="46.301896562799811" lon="11.843770500272512">
        <ele>2659.6199999999999</ele>
        <time>2017-07-03T08:52:01Z</time>
      </trkpt>
      <trkpt lat="46.301870243623853" lon="11.843821462243795">
        <ele>2660.5900000000001</ele>
        <time>2017-07-03T08:52:10Z</time>
      </trkpt>
      <trkpt lat="46.301848199218512" lon="11.843872675672174">
        <ele>2661.0700000000002</ele>
        <time>2017-07-03T08:52:20Z</time>
      </trkpt>
      <trkpt lat="46.301819365471601" lon="11.843887595459819">
        <ele>2660.5900000000001</ele>
        <time>2017-07-03T08:52:29Z</time>
      </trkpt>
      <trkpt lat="46.301719201728702" lon="11.843923470005393">
        <ele>2658.6599999999999</ele>
        <time>2017-07-03T08:52:41Z</time>
      </trkpt>
      <trkpt lat="46.301687266677618" lon="11.84391207061708">
        <ele>2657.2199999999998</ele>
        <time>2017-07-03T08:52:44Z</time>
      </trkpt>
      <trkpt lat="46.301650973036885" lon="11.843886421993375">
        <ele>2658.6599999999999</ele>
        <time>2017-07-03T08:52:49Z</time>
      </trkpt>
      <trkpt lat="46.301573943346739" lon="11.843945514410734">
        <ele>2658.1799999999998</ele>
        <time>2017-07-03T08:52:58Z</time>
      </trkpt>
      <trkpt lat="46.301538571715355" lon="11.843986166641116">
        <ele>2658.1799999999998</ele>
        <time>2017-07-03T08:53:03Z</time>
      </trkpt>
      <trkpt lat="46.301434636116028" lon="11.843960769474506">
        <ele>2656.7399999999998</ele>
        <time>2017-07-03T08:53:15Z</time>
      </trkpt>
      <trkpt lat="46.301455171778798" lon="11.843948699533939">
        <ele>2656.2600000000002</ele>
        <time>2017-07-03T08:53:29Z</time>
      </trkpt>
      <trkpt lat="46.301442096009851" lon="11.843957668170333">
        <ele>2656.2600000000002</ele>
        <time>2017-07-03T08:53:31Z</time>
      </trkpt>
      <trkpt lat="46.301364479586482" lon="11.84398926794529">
        <ele>2655.7800000000002</ele>
        <time>2017-07-03T08:53:37Z</time>
      </trkpt>
      <trkpt lat="46.301355008035898" lon="11.843971833586693">
        <ele>2655.7800000000002</ele>
        <time>2017-07-03T08:53:40Z</time>
      </trkpt>
      <trkpt lat="46.301313433796167" lon="11.843986501917243">
        <ele>2654.8200000000002</ele>
        <time>2017-07-03T08:53:45Z</time>
      </trkpt>
      <trkpt lat="46.30119969137013" lon="11.843953058123589">
        <ele>2652.9000000000001</ele>
        <time>2017-07-03T08:53:57Z</time>
      </trkpt>
      <trkpt lat="46.30116012878716" lon="11.843951465561986">
        <ele>2652.4200000000001</ele>
        <time>2017-07-03T08:54:01Z</time>
      </trkpt>
      <trkpt lat="46.301099359989166" lon="11.843970408663154">
        <ele>2649.5300000000002</ele>
        <time>2017-07-03T08:54:11Z</time>
      </trkpt>
      <trkpt lat="46.301068095490336" lon="11.843964289873838">
        <ele>2648.0900000000001</ele>
        <time>2017-07-03T08:54:15Z</time>
      </trkpt>
      <trkpt lat="46.301003135740757" lon="11.843956746160984">
        <ele>2646.1700000000001</ele>
        <time>2017-07-03T08:54:26Z</time>
      </trkpt>
      <trkpt lat="46.300939600914717" lon="11.843942832201719">
        <ele>2643.2800000000002</ele>
        <time>2017-07-03T08:54:37Z</time>
      </trkpt>
      <trkpt lat="46.300854105502367" lon="11.843928415328264">
        <ele>2640.8800000000001</ele>
        <time>2017-07-03T08:54:48Z</time>
      </trkpt>
      <trkpt lat="46.300738686695695" lon="11.84388323687017">
        <ele>2638.96</ele>
        <time>2017-07-03T08:54:59Z</time>
      </trkpt>
      <trkpt lat="46.300640618428588" lon="11.843874100595713">
        <ele>2635.5900000000001</ele>
        <time>2017-07-03T08:55:12Z</time>
      </trkpt>
      <trkpt lat="46.300558727234602" lon="11.8439248111099">
        <ele>2633.6700000000001</ele>
        <time>2017-07-03T08:55:23Z</time>
      </trkpt>
      <trkpt lat="46.300461748614907" lon="11.843959093093872">
        <ele>2631.27</ele>
        <time>2017-07-03T08:55:36Z</time>
      </trkpt>
      <trkpt lat="46.300430400297046" lon="11.843968061730266">
        <ele>2629.8200000000002</ele>
        <time>2017-07-03T08:55:47Z</time>
      </trkpt>
      <trkpt lat="46.300432244315743" lon="11.843958422541618">
        <ele>2628.8600000000001</ele>
        <time>2017-07-03T08:55:57Z</time>
      </trkpt>
      <trkpt lat="46.30036611109972" lon="11.844031931832433">
        <ele>2626.46</ele>
        <time>2017-07-03T08:56:06Z</time>
      </trkpt>
      <trkpt lat="46.30035974085331" lon="11.844014916568995">
        <ele>2625.5</ele>
        <time>2017-07-03T08:56:15Z</time>
      </trkpt>
      <trkpt lat="46.300331577658653" lon="11.844003600999713">
        <ele>2624.54</ele>
        <time>2017-07-03T08:56:23Z</time>
      </trkpt>
      <trkpt lat="46.300288746133447" lon="11.843998739495873">
        <ele>2623.5799999999999</ele>
        <time>2017-07-03T08:56:31Z</time>
      </trkpt>
      <trkpt lat="46.300195958465338" lon="11.843990357592702">
        <ele>2620.6900000000001</ele>
        <time>2017-07-03T08:56:43Z</time>
      </trkpt>
      <trkpt lat="46.300134100019932" lon="11.84400443919003">
        <ele>2618.29</ele>
        <time>2017-07-03T08:56:52Z</time>
      </trkpt>
      <trkpt lat="46.300136111676693" lon="11.844045259058475">
        <ele>2615.8800000000001</ele>
        <time>2017-07-03T08:57:01Z</time>
      </trkpt>
      <trkpt lat="46.300138374790549" lon="11.844099909067154">
        <ele>2613.48</ele>
        <time>2017-07-03T08:57:12Z</time>
      </trkpt>
      <trkpt lat="46.300148265436292" lon="11.844136202707887">
        <ele>2612.04</ele>
        <time>2017-07-03T08:57:18Z</time>
      </trkpt>
      <trkpt lat="46.300140805542469" lon="11.844187751412392">
        <ele>2610.5999999999999</ele>
        <time>2017-07-03T08:57:26Z</time>
      </trkpt>
      <trkpt lat="46.300092777237296" lon="11.844209795817733">
        <ele>2608.6700000000001</ele>
        <time>2017-07-03T08:57:37Z</time>
      </trkpt>
      <trkpt lat="46.300057237967849" lon="11.844245167449117">
        <ele>2606.75</ele>
        <time>2017-07-03T08:57:46Z</time>
      </trkpt>
      <trkpt lat="46.300022285431623" lon="11.844230331480503">
        <ele>2605.3099999999999</ele>
        <time>2017-07-03T08:57:54Z</time>
      </trkpt>
      <trkpt lat="46.299981633201241" lon="11.844244245439768">
        <ele>2603.3899999999999</ele>
        <time>2017-07-03T08:58:04Z</time>
      </trkpt>
      <trkpt lat="46.299929413944483" lon="11.84423946775496">
        <ele>2600.98</ele>
        <time>2017-07-03T08:58:13Z</time>
      </trkpt>
      <trkpt lat="46.29986671730876" lon="11.844260925427079">
        <ele>2599.0599999999999</ele>
        <time>2017-07-03T08:58:23Z</time>
      </trkpt>
      <trkpt lat="46.299805445596576" lon="11.844293279573321">
        <ele>2597.1399999999999</ele>
        <time>2017-07-03T08:58:33Z</time>
      </trkpt>
      <trkpt lat="46.299808882176876" lon="11.84431666508317">
        <ele>2595.6999999999998</ele>
        <time>2017-07-03T08:58:40Z</time>
      </trkpt>
      <trkpt lat="46.299813576042652" lon="11.844329824671149">
        <ele>2595.2199999999998</ele>
        <time>2017-07-03T08:58:42Z</time>
      </trkpt>
      <trkpt lat="46.299757501110435" lon="11.844355976209044">
        <ele>2593.29</ele>
        <time>2017-07-03T08:58:52Z</time>
      </trkpt>
      <trkpt lat="46.29972749389708" lon="11.844352288171649">
        <ele>2592.3299999999999</ele>
        <time>2017-07-03T08:58:58Z</time>
      </trkpt>
      <trkpt lat="46.29968642257154" lon="11.844394281506538">
        <ele>2590.8899999999999</ele>
        <time>2017-07-03T08:59:08Z</time>
      </trkpt>
      <trkpt lat="46.299651972949505" lon="11.844397634267807">
        <ele>2588.9699999999998</ele>
        <time>2017-07-03T08:59:18Z</time>
      </trkpt>
      <trkpt lat="46.299644596874714" lon="11.844425881281495">
        <ele>2588.0100000000002</ele>
        <time>2017-07-03T08:59:29Z</time>
      </trkpt>
      <trkpt lat="46.299609644338489" lon="11.844442142173648">
        <ele>2586.5599999999999</ele>
        <time>2017-07-03T08:59:36Z</time>
      </trkpt>
      <trkpt lat="46.299574440345168" lon="11.844423534348607">
        <ele>2585.5999999999999</ele>
        <time>2017-07-03T08:59:40Z</time>
      </trkpt>
      <trkpt lat="46.299527753144503" lon="11.844462594017386">
        <ele>2585.5999999999999</ele>
        <time>2017-07-03T08:59:48Z</time>
      </trkpt>
      <trkpt lat="46.299472264945507" lon="11.844524201005697">
        <ele>2585.1199999999999</ele>
        <time>2017-07-03T08:59:57Z</time>
      </trkpt>
      <trkpt lat="46.299417028203607" lon="11.844585053622723">
        <ele>2584.1599999999999</ele>
        <time>2017-07-03T09:00:06Z</time>
      </trkpt>
      <trkpt lat="46.299332706257701" lon="11.844642218202353">
        <ele>2584.1599999999999</ele>
        <time>2017-07-03T09:00:16Z</time>
      </trkpt>
      <trkpt lat="46.299241511151195" lon="11.844696449115872">
        <ele>2583.1999999999998</ele>
        <time>2017-07-03T09:00:27Z</time>
      </trkpt>
      <trkpt lat="46.299147550016642" lon="11.844728803262115">
        <ele>2581.2800000000002</ele>
        <time>2017-07-03T09:00:38Z</time>
      </trkpt>
      <trkpt lat="46.299141347408295" lon="11.844737436622381">
        <ele>2581.2800000000002</ele>
        <time>2017-07-03T09:00:39Z</time>
      </trkpt>
      <trkpt lat="46.299088038504124" lon="11.844780100509524">
        <ele>2579.3499999999999</ele>
        <time>2017-07-03T09:00:46Z</time>
      </trkpt>
      <trkpt lat="46.298998771235347" lon="11.844864673912525">
        <ele>2577.9099999999999</ele>
        <time>2017-07-03T09:00:57Z</time>
      </trkpt>
      <trkpt lat="46.299009080976248" lon="11.844842880964279">
        <ele>2577.4299999999998</ele>
        <time>2017-07-03T09:01:04Z</time>
      </trkpt>
      <trkpt lat="46.298988461494446" lon="11.844831816852093">
        <ele>2578.3899999999999</ele>
        <time>2017-07-03T09:01:14Z</time>
      </trkpt>
      <trkpt lat="46.298980498686433" lon="11.844772975891829">
        <ele>2577.9099999999999</ele>
        <time>2017-07-03T09:01:27Z</time>
      </trkpt>
      <trkpt lat="46.29896717146039" lon="11.844769371673465">
        <ele>2577.9099999999999</ele>
        <time>2017-07-03T09:01:38Z</time>
      </trkpt>
      <trkpt lat="46.298929117619991" lon="11.844834582880139">
        <ele>2576.9499999999998</ele>
        <time>2017-07-03T09:01:48Z</time>
      </trkpt>
      <trkpt lat="46.298922328278422" lon="11.84491521678865">
        <ele>2575.0300000000002</ele>
        <time>2017-07-03T09:01:58Z</time>
      </trkpt>
      <trkpt lat="46.298862146213651" lon="11.844952264800668">
        <ele>2573.1100000000001</ele>
        <time>2017-07-03T09:02:07Z</time>
      </trkpt>
      <trkpt lat="46.298827948048711" lon="11.844989228993654">
        <ele>2572.6300000000001</ele>
        <time>2017-07-03T09:02:12Z</time>
      </trkpt>
      <trkpt lat="46.298788888379931" lon="11.845094170421362">
        <ele>2569.7399999999998</ele>
        <time>2017-07-03T09:02:25Z</time>
      </trkpt>
      <trkpt lat="46.298760641366243" lon="11.845108335837722">
        <ele>2569.2600000000002</ele>
        <time>2017-07-03T09:02:35Z</time>
      </trkpt>
      <trkpt lat="46.298703392967582" lon="11.845143036916852">
        <ele>2567.3400000000001</ele>
        <time>2017-07-03T09:02:42Z</time>
      </trkpt>
      <trkpt lat="46.298646228387952" lon="11.845152759924531">
        <ele>2566.3800000000001</ele>
        <time>2017-07-03T09:02:49Z</time>
      </trkpt>
      <trkpt lat="46.298632565885782" lon="11.845199279487133">
        <ele>2564.9299999999998</ele>
        <time>2017-07-03T09:02:58Z</time>
      </trkpt>
      <trkpt lat="46.298633990809321" lon="11.845218976959586">
        <ele>2563.4899999999998</ele>
        <time>2017-07-03T09:03:08Z</time>
      </trkpt>
      <trkpt lat="46.298589147627354" lon="11.845233310014009">
        <ele>2562.0500000000002</ele>
        <time>2017-07-03T09:03:19Z</time>
      </trkpt>
      <trkpt lat="46.29851714707911" lon="11.845282092690468">
        <ele>2560.1300000000001</ele>
        <time>2017-07-03T09:03:30Z</time>
      </trkpt>
      <trkpt lat="46.298510273918509" lon="11.845286032184958">
        <ele>2560.1300000000001</ele>
        <time>2017-07-03T09:03:31Z</time>
      </trkpt>
      <trkpt lat="46.298494767397642" lon="11.845306232571602">
        <ele>2559.1700000000001</ele>
        <time>2017-07-03T09:03:34Z</time>
      </trkpt>
      <trkpt lat="46.298416564241052" lon="11.845308663323522">
        <ele>2558.21</ele>
        <time>2017-07-03T09:03:45Z</time>
      </trkpt>
      <trkpt lat="46.298365015536547" lon="11.845352835953236">
        <ele>2557.73</ele>
        <time>2017-07-03T09:03:55Z</time>
      </trkpt>
      <trkpt lat="46.298358729109168" lon="11.8453633133322">
        <ele>2556.2800000000002</ele>
        <time>2017-07-03T09:03:57Z</time>
      </trkpt>
      <trkpt lat="46.298301480710506" lon="11.84540681540966">
        <ele>2554.8400000000001</ele>
        <time>2017-07-03T09:04:09Z</time>
      </trkpt>
      <trkpt lat="46.298248171806335" lon="11.845405641943216">
        <ele>2552.4400000000001</ele>
        <time>2017-07-03T09:04:20Z</time>
      </trkpt>
      <trkpt lat="46.298200730234385" lon="11.845445791259408">
        <ele>2552.4400000000001</ele>
        <time>2017-07-03T09:04:30Z</time>
      </trkpt>
      <trkpt lat="46.298184720799327" lon="11.845443611964583">
        <ele>2550.5100000000002</ele>
        <time>2017-07-03T09:04:33Z</time>
      </trkpt>
      <trkpt lat="46.298165023326874" lon="11.845449563115835">
        <ele>2550.0300000000002</ele>
        <time>2017-07-03T09:04:35Z</time>
      </trkpt>
      <trkpt lat="46.298041809350252" lon="11.845484431833029">
        <ele>2546.6700000000001</ele>
        <time>2017-07-03T09:04:48Z</time>
      </trkpt>
      <trkpt lat="46.297959750518203" lon="11.845567747950554">
        <ele>2544.75</ele>
        <time>2017-07-03T09:04:58Z</time>
      </trkpt>
      <trkpt lat="46.297854976728559" lon="11.845666570588946">
        <ele>2542.8200000000002</ele>
        <time>2017-07-03T09:05:11Z</time>
      </trkpt>
      <trkpt lat="46.297835111618042" lon="11.845707055181265">
        <ele>2542.3400000000001</ele>
        <time>2017-07-03T09:05:20Z</time>
      </trkpt>
      <trkpt lat="46.297818180173635" lon="11.845751143991947">
        <ele>2541.3800000000001</ele>
        <time>2017-07-03T09:05:24Z</time>
      </trkpt>
      <trkpt lat="46.297807786613703" lon="11.845776038244367">
        <ele>2540.9000000000001</ele>
        <time>2017-07-03T09:05:26Z</time>
      </trkpt>
      <trkpt lat="46.297722458839417" lon="11.845869831740856">
        <ele>2539.9400000000001</ele>
        <time>2017-07-03T09:05:38Z</time>
      </trkpt>
      <trkpt lat="46.297731762751937" lon="11.845861282199621">
        <ele>2539.46</ele>
        <time>2017-07-03T09:05:52Z</time>
      </trkpt>
      <trkpt lat="46.297693541273475" lon="11.845873016864061">
        <ele>2539.46</ele>
        <time>2017-07-03T09:06:07Z</time>
      </trkpt>
      <trkpt lat="46.297688009217381" lon="11.845887349918485">
        <ele>2539.9400000000001</ele>
        <time>2017-07-03T09:06:19Z</time>
      </trkpt>
      <trkpt lat="46.297709047794342" lon="11.84589053504169">
        <ele>2539.46</ele>
        <time>2017-07-03T09:06:35Z</time>
      </trkpt>
      <trkpt lat="46.297701923176646" lon="11.845890618860722">
        <ele>2539.46</ele>
        <time>2017-07-03T09:06:49Z</time>
      </trkpt>
      <trkpt lat="46.297677867114544" lon="11.84589103795588">
        <ele>2539.46</ele>
        <time>2017-07-03T09:07:09Z</time>
      </trkpt>
      <trkpt lat="46.297658840194345" lon="11.845900258049369">
        <ele>2539.9400000000001</ele>
        <time>2017-07-03T09:07:26Z</time>
      </trkpt>
      <trkpt lat="46.297652386128902" lon="11.845876788720489">
        <ele>2540.9000000000001</ele>
        <time>2017-07-03T09:07:46Z</time>
      </trkpt>
      <trkpt lat="46.297651464119554" lon="11.845848457887769">
        <ele>2539.9400000000001</ele>
        <time>2017-07-03T09:08:03Z</time>
      </trkpt>
      <trkpt lat="46.297630174085498" lon="11.845835633575916">
        <ele>2539.9400000000001</ele>
        <time>2017-07-03T09:08:24Z</time>
      </trkpt>
      <trkpt lat="46.297629419714212" lon="11.845830352976918">
        <ele>2537.54</ele>
        <time>2017-07-03T09:08:29Z</time>
      </trkpt>
      <trkpt lat="46.297628665342927" lon="11.845828173682094">
        <ele>2541.8600000000001</ele>
        <time>2017-07-03T09:08:30Z</time>
      </trkpt>
      <trkpt lat="46.297626905143261" lon="11.84582406654954">
        <ele>2540.4200000000001</ele>
        <time>2017-07-03T09:08:31Z</time>
      </trkpt>
      <trkpt lat="46.297582061961293" lon="11.845742845907807">
        <ele>2539.9400000000001</ele>
        <time>2017-07-03T09:08:43Z</time>
      </trkpt>
      <trkpt lat="46.297582481056452" lon="11.845765979960561">
        <ele>2539.9400000000001</ele>
        <time>2017-07-03T09:08:57Z</time>
      </trkpt>
      <trkpt lat="46.297636711969972" lon="11.845943843945861">
        <ele>2539.9400000000001</ele>
        <time>2017-07-03T09:09:15Z</time>
      </trkpt>
      <trkpt lat="46.297621373087168" lon="11.845919620245695">
        <ele>2540.4200000000001</ele>
        <time>2017-07-03T09:09:25Z</time>
      </trkpt>
      <trkpt lat="46.297642830759287" lon="11.845891708508134">
        <ele>2540.9000000000001</ele>
        <time>2017-07-03T09:09:49Z</time>
      </trkpt>
      <trkpt lat="46.297640567645431" lon="11.845840997993946">
        <ele>2540.4200000000001</ele>
        <time>2017-07-03T09:10:00Z</time>
      </trkpt>
      <trkpt lat="46.297604693099856" lon="11.845845440402627">
        <ele>2540.9000000000001</ele>
        <time>2017-07-03T09:10:18Z</time>
      </trkpt>
      <trkpt lat="46.297580637037754" lon="11.845960104838014">
        <ele>2540.4200000000001</ele>
        <time>2017-07-03T09:10:29Z</time>
      </trkpt>
      <trkpt lat="46.297527076676488" lon="11.84601710177958">
        <ele>2539.46</ele>
        <time>2017-07-03T09:10:38Z</time>
      </trkpt>
      <trkpt lat="46.297444934025407" lon="11.846077954396605">
        <ele>2538.02</ele>
        <time>2017-07-03T09:10:48Z</time>
      </trkpt>
      <trkpt lat="46.297396067529917" lon="11.846117600798607">
        <ele>2537.0599999999999</ele>
        <time>2017-07-03T09:10:57Z</time>
      </trkpt>
      <trkpt lat="46.297329682856798" lon="11.846164455637336">
        <ele>2535.1300000000001</ele>
        <time>2017-07-03T09:11:07Z</time>
      </trkpt>
      <trkpt lat="46.297261286526918" lon="11.846202258020639">
        <ele>2532.73</ele>
        <time>2017-07-03T09:11:18Z</time>
      </trkpt>
      <trkpt lat="46.297193979844451" lon="11.846241485327482">
        <ele>2530.8099999999999</ele>
        <time>2017-07-03T09:11:28Z</time>
      </trkpt>
      <trkpt lat="46.297115692868829" lon="11.846296722069383">
        <ele>2528.8899999999999</ele>
        <time>2017-07-03T09:11:38Z</time>
      </trkpt>
      <trkpt lat="46.29700873978436" lon="11.846380038186908">
        <ele>2526.48</ele>
        <time>2017-07-03T09:11:50Z</time>
      </trkpt>
      <trkpt lat="46.296974457800388" lon="11.846414403989911">
        <ele>2525.52</ele>
        <time>2017-07-03T09:12:01Z</time>
      </trkpt>
      <trkpt lat="46.296961046755314" lon="11.846439968794584">
        <ele>2523.5999999999999</ele>
        <time>2017-07-03T09:12:08Z</time>
      </trkpt>
      <trkpt lat="46.296911593526602" lon="11.846500402316451">
        <ele>2521.6799999999998</ele>
        <time>2017-07-03T09:12:18Z</time>
      </trkpt>
      <trkpt lat="46.296865073964" lon="11.846586233004928">
        <ele>2518.79</ele>
        <time>2017-07-03T09:12:29Z</time>
      </trkpt>
      <trkpt lat="46.296844873577356" lon="11.846626717597246">
        <ele>2518.3099999999999</ele>
        <time>2017-07-03T09:12:32Z</time>
      </trkpt>
      <trkpt lat="46.296778991818428" lon="11.846734508872032">
        <ele>2515.4299999999998</ele>
        <time>2017-07-03T09:12:46Z</time>
      </trkpt>
      <trkpt lat="46.296745296567678" lon="11.846804833039641">
        <ele>2513.5</ele>
        <time>2017-07-03T09:12:57Z</time>
      </trkpt>
      <trkpt lat="46.296732304617763" lon="11.84686778113246">
        <ele>2511.5799999999999</ele>
        <time>2017-07-03T09:13:07Z</time>
      </trkpt>
      <trkpt lat="46.296751499176025" lon="11.846922095865011">
        <ele>2509.1799999999998</ele>
        <time>2017-07-03T09:13:17Z</time>
      </trkpt>
      <trkpt lat="46.296760132536292" lon="11.84698018245399">
        <ele>2507.7399999999998</ele>
        <time>2017-07-03T09:13:26Z</time>
      </trkpt>
      <trkpt lat="46.296759210526943" lon="11.846998874098063">
        <ele>2507.2600000000002</ele>
        <time>2017-07-03T09:13:40Z</time>
      </trkpt>
      <trkpt lat="46.29675367847085" lon="11.847022846341133">
        <ele>2507.2600000000002</ele>
        <time>2017-07-03T09:13:52Z</time>
      </trkpt>
      <trkpt lat="46.296759126707911" lon="11.847034245729446">
        <ele>2506.29</ele>
        <time>2017-07-03T09:14:06Z</time>
      </trkpt>
      <trkpt lat="46.296787960454822" lon="11.847019996494055">
        <ele>2504.8499999999999</ele>
        <time>2017-07-03T09:14:14Z</time>
      </trkpt>
      <trkpt lat="46.296819560229778" lon="11.847062157467008">
        <ele>2504.3699999999999</ele>
        <time>2017-07-03T09:14:20Z</time>
      </trkpt>
      <trkpt lat="46.29687437787652" lon="11.847122674807906">
        <ele>2501.9699999999998</ele>
        <time>2017-07-03T09:14:31Z</time>
      </trkpt>
      <trkpt lat="46.29689977504313" lon="11.847117058932781">
        <ele>2501.4899999999998</ele>
        <time>2017-07-03T09:14:35Z</time>
      </trkpt>
      <trkpt lat="46.297009577974677" lon="11.847119405865669">
        <ele>2499.0799999999999</ele>
        <time>2017-07-03T09:14:46Z</time>
      </trkpt>
      <trkpt lat="46.297067329287529" lon="11.847218479961157">
        <ele>2497.6399999999999</ele>
        <time>2017-07-03T09:14:57Z</time>
      </trkpt>
      <trkpt lat="46.297083338722587" lon="11.847285786643624">
        <ele>2496.6799999999998</ele>
        <time>2017-07-03T09:15:08Z</time>
      </trkpt>
      <trkpt lat="46.297110747545958" lon="11.847319900989532">
        <ele>2494.7600000000002</ele>
        <time>2017-07-03T09:15:17Z</time>
      </trkpt>
      <trkpt lat="46.297096498310566" lon="11.847396679222584">
        <ele>2493.3200000000002</ele>
        <time>2017-07-03T09:15:26Z</time>
      </trkpt>
      <trkpt lat="46.297087613493204" lon="11.847426183521748">
        <ele>2492.8400000000001</ele>
        <time>2017-07-03T09:15:33Z</time>
      </trkpt>
      <trkpt lat="46.297123823314905" lon="11.847426267340779">
        <ele>2490.9099999999999</ele>
        <time>2017-07-03T09:15:43Z</time>
      </trkpt>
      <trkpt lat="46.29715190269053" lon="11.847403887659311">
        <ele>2489.4699999999998</ele>
        <time>2017-07-03T09:15:52Z</time>
      </trkpt>
      <trkpt lat="46.297446275129914" lon="11.847278075292706">
        <ele>2488.0300000000002</ele>
        <time>2017-07-03T09:16:01Z</time>
      </trkpt>
      <trkpt lat="46.297420375049114" lon="11.847346974536777">
        <ele>2487.0700000000002</ele>
        <time>2017-07-03T09:16:09Z</time>
      </trkpt>
      <trkpt lat="46.297358013689518" lon="11.847390308976173">
        <ele>2484.1799999999998</ele>
        <time>2017-07-03T09:16:21Z</time>
      </trkpt>
      <trkpt lat="46.297324737533927" lon="11.847427356988192">
        <ele>2482.7399999999998</ele>
        <time>2017-07-03T09:16:30Z</time>
      </trkpt>
      <trkpt lat="46.297299927100539" lon="11.847485946491361">
        <ele>2480.8200000000002</ele>
        <time>2017-07-03T09:16:40Z</time>
      </trkpt>
      <trkpt lat="46.297274110838771" lon="11.847499860450625">
        <ele>2479.8600000000001</ele>
        <time>2017-07-03T09:16:44Z</time>
      </trkpt>
      <trkpt lat="46.297223400324583" lon="11.84755333699286">
        <ele>2477.9400000000001</ele>
        <time>2017-07-03T09:16:54Z</time>
      </trkpt>
      <trkpt lat="46.29721837118268" lon="11.847563730552793">
        <ele>2477.4499999999998</ele>
        <time>2017-07-03T09:16:57Z</time>
      </trkpt>
      <trkpt lat="46.297168415039778" lon="11.84758803807199">
        <ele>2476.4899999999998</ele>
        <time>2017-07-03T09:17:05Z</time>
      </trkpt>
      <trkpt lat="46.297118877992034" lon="11.847614943981171">
        <ele>2475.0500000000002</ele>
        <time>2017-07-03T09:17:13Z</time>
      </trkpt>
      <trkpt lat="46.297109071165323" lon="11.847654171288013">
        <ele>2473.6100000000001</ele>
        <time>2017-07-03T09:17:18Z</time>
      </trkpt>
      <trkpt lat="46.297082584351301" lon="11.847718292847276">
        <ele>2472.1700000000001</ele>
        <time>2017-07-03T09:17:27Z</time>
      </trkpt>
      <trkpt lat="46.297043776139617" lon="11.847686860710382">
        <ele>2470.73</ele>
        <time>2017-07-03T09:17:35Z</time>
      </trkpt>
      <trkpt lat="46.297008655965328" lon="11.847706558182836">
        <ele>2469.2800000000002</ele>
        <time>2017-07-03T09:17:44Z</time>
      </trkpt>
      <trkpt lat="46.296949479728937" lon="11.847786856815219">
        <ele>2467.3600000000001</ele>
        <time>2017-07-03T09:17:56Z</time>
      </trkpt>
      <trkpt lat="46.296915365383029" lon="11.847849972546101">
        <ele>2465.4400000000001</ele>
        <time>2017-07-03T09:18:05Z</time>
      </trkpt>
      <trkpt lat="46.296870606020093" lon="11.847867323085666">
        <ele>2464</ele>
        <time>2017-07-03T09:18:12Z</time>
      </trkpt>
      <trkpt lat="46.296807238832116" lon="11.847879895940423">
        <ele>2462.5500000000002</ele>
        <time>2017-07-03T09:18:21Z</time>
      </trkpt>
      <trkpt lat="46.296743704006076" lon="11.847882745787501">
        <ele>2462.0700000000002</ele>
        <time>2017-07-03T09:18:28Z</time>
      </trkpt>
      <trkpt lat="46.29665988497436" lon="11.847910406067967">
        <ele>2460.1500000000001</ele>
        <time>2017-07-03T09:18:40Z</time>
      </trkpt>
      <trkpt lat="46.29660808481276" lon="11.84796329587698">
        <ele>2458.23</ele>
        <time>2017-07-03T09:18:49Z</time>
      </trkpt>
      <trkpt lat="46.296554524451494" lon="11.847982909530401">
        <ele>2456.79</ele>
        <time>2017-07-03T09:18:59Z</time>
      </trkpt>
      <trkpt lat="46.296513453125954" lon="11.848017023876309">
        <ele>2455.3400000000001</ele>
        <time>2017-07-03T09:19:09Z</time>
      </trkpt>
      <trkpt lat="46.296492917463183" lon="11.848056754097342">
        <ele>2454.3800000000001</ele>
        <time>2017-07-03T09:19:18Z</time>
      </trkpt>
      <trkpt lat="46.296479674056172" lon="11.848064633086324">
        <ele>2453.9000000000001</ele>
        <time>2017-07-03T09:19:27Z</time>
      </trkpt>
      <trkpt lat="46.296474058181047" lon="11.848085168749094">
        <ele>2453.4200000000001</ele>
        <time>2017-07-03T09:19:41Z</time>
      </trkpt>
      <trkpt lat="46.29645218141377" lon="11.84809916652739">
        <ele>2451.98</ele>
        <time>2017-07-03T09:19:50Z</time>
      </trkpt>
      <trkpt lat="46.296409768983722" lon="11.848091958090663">
        <ele>2450.54</ele>
        <time>2017-07-03T09:20:00Z</time>
      </trkpt>
      <trkpt lat="46.296372888609767" lon="11.848101178184152">
        <ele>2449.5799999999999</ele>
        <time>2017-07-03T09:20:07Z</time>
      </trkpt>
      <trkpt lat="46.296318238601089" lon="11.848114253953099">
        <ele>2448.1300000000001</ele>
        <time>2017-07-03T09:20:18Z</time>
      </trkpt>
      <trkpt lat="46.296289404854178" lon="11.848120205104351">
        <ele>2446.21</ele>
        <time>2017-07-03T09:20:26Z</time>
      </trkpt>
      <trkpt lat="46.29628068767488" lon="11.84814065694809">
        <ele>2445.73</ele>
        <time>2017-07-03T09:20:29Z</time>
      </trkpt>
      <trkpt lat="46.296211201697588" lon="11.848152475431561">
        <ele>2443.3299999999999</ele>
        <time>2017-07-03T09:20:41Z</time>
      </trkpt>
      <trkpt lat="46.296158144250512" lon="11.848151218146086">
        <ele>2441.8899999999999</ele>
        <time>2017-07-03T09:20:52Z</time>
      </trkpt>
      <trkpt lat="46.296126795932651" lon="11.848148535937071">
        <ele>2439.96</ele>
        <time>2017-07-03T09:21:03Z</time>
      </trkpt>
      <trkpt lat="46.296066613867879" lon="11.848160605877638">
        <ele>2437.5599999999999</ele>
        <time>2017-07-03T09:21:16Z</time>
      </trkpt>
      <trkpt lat="46.296017579734325" lon="11.848156750202179">
        <ele>2436.1199999999999</ele>
        <time>2017-07-03T09:21:26Z</time>
      </trkpt>
      <trkpt lat="46.295973407104611" lon="11.848177537322044">
        <ele>2433.71</ele>
        <time>2017-07-03T09:21:37Z</time>
      </trkpt>
      <trkpt lat="46.295923450961709" lon="11.848186673596501">
        <ele>2432.27</ele>
        <time>2017-07-03T09:21:46Z</time>
      </trkpt>
      <trkpt lat="46.295862765982747" lon="11.848223134875298">
        <ele>2429.3899999999999</ele>
        <time>2017-07-03T09:21:58Z</time>
      </trkpt>
      <trkpt lat="46.295861508697271" lon="11.848231432959437">
        <ele>2429.3899999999999</ele>
        <time>2017-07-03T09:21:59Z</time>
      </trkpt>
      <trkpt lat="46.295800236985087" lon="11.848242413252592">
        <ele>2427.4699999999998</ele>
        <time>2017-07-03T09:22:07Z</time>
      </trkpt>
      <trkpt lat="46.295808367431164" lon="11.848246352747083">
        <ele>2426.02</ele>
        <time>2017-07-03T09:22:19Z</time>
      </trkpt>
      <trkpt lat="46.295814989134669" lon="11.848331345245242">
        <ele>2424.5799999999999</ele>
        <time>2017-07-03T09:22:30Z</time>
      </trkpt>
      <trkpt lat="46.295790933072567" lon="11.848447937518358">
        <ele>2422.1799999999998</ele>
        <time>2017-07-03T09:22:41Z</time>
      </trkpt>
      <trkpt lat="46.295727901160717" lon="11.848456235602498">
        <ele>2420.7399999999998</ele>
        <time>2017-07-03T09:22:54Z</time>
      </trkpt>
      <trkpt lat="46.2956752628088" lon="11.848490433767438">
        <ele>2417.8499999999999</ele>
        <time>2017-07-03T09:23:05Z</time>
      </trkpt>
      <trkpt lat="46.295560011640191" lon="11.848573833703995">
        <ele>2414.9699999999998</ele>
        <time>2017-07-03T09:23:17Z</time>
      </trkpt>
      <trkpt lat="46.295441910624504" lon="11.848598644137383">
        <ele>2412.5700000000002</ele>
        <time>2017-07-03T09:23:28Z</time>
      </trkpt>
      <trkpt lat="46.29538357257843" lon="11.848590765148401">
        <ele>2411.5999999999999</ele>
        <time>2017-07-03T09:23:32Z</time>
      </trkpt>
      <trkpt lat="46.295259017497301" lon="11.84859998524189">
        <ele>2409.1999999999998</ele>
        <time>2017-07-03T09:23:44Z</time>
      </trkpt>
      <trkpt lat="46.295184334740043" lon="11.848612977191806">
        <ele>2407.2800000000002</ele>
        <time>2017-07-03T09:23:55Z</time>
      </trkpt>
      <trkpt lat="46.295122895389795" lon="11.848653880879283">
        <ele>2405.3600000000001</ele>
        <time>2017-07-03T09:24:06Z</time>
      </trkpt>
      <trkpt lat="46.295060450211167" lon="11.848682882264256">
        <ele>2402.9499999999998</ele>
        <time>2017-07-03T09:24:17Z</time>
      </trkpt>
      <trkpt lat="46.295020887628198" lon="11.848697802051902">
        <ele>2401.9899999999998</ele>
        <time>2017-07-03T09:24:22Z</time>
      </trkpt>
      <trkpt lat="46.294958190992475" lon="11.848672907799482">
        <ele>2400.5500000000002</ele>
        <time>2017-07-03T09:24:30Z</time>
      </trkpt>
      <trkpt lat="46.294904882088304" lon="11.848714733496308">
        <ele>2398.6300000000001</ele>
        <time>2017-07-03T09:24:41Z</time>
      </trkpt>
      <trkpt lat="46.294878646731377" lon="11.848745662719011">
        <ele>2396.6999999999998</ele>
        <time>2017-07-03T09:24:49Z</time>
      </trkpt>
      <trkpt lat="46.294854171574116" lon="11.848747171461582">
        <ele>2395.7399999999998</ele>
        <time>2017-07-03T09:24:53Z</time>
      </trkpt>
      <trkpt lat="46.29479574970901" lon="11.848791260272264">
        <ele>2393.8200000000002</ele>
        <time>2017-07-03T09:25:03Z</time>
      </trkpt>
      <trkpt lat="46.29475174471736" lon="11.84881741181016">
        <ele>2392.3800000000001</ele>
        <time>2017-07-03T09:25:13Z</time>
      </trkpt>
      <trkpt lat="46.29472098313272" lon="11.848828895017505">
        <ele>2390.9400000000001</ele>
        <time>2017-07-03T09:25:18Z</time>
      </trkpt>
      <trkpt lat="46.294638672843575" lon="11.848861752077937">
        <ele>2388.5300000000002</ele>
        <time>2017-07-03T09:25:29Z</time>
      </trkpt>
      <trkpt lat="46.294617718085647" lon="11.848885305225849">
        <ele>2387.5700000000002</ele>
        <time>2017-07-03T09:25:35Z</time>
      </trkpt>
      <trkpt lat="46.294559547677636" lon="11.848914893344045">
        <ele>2386.6100000000001</ele>
        <time>2017-07-03T09:25:44Z</time>
      </trkpt>
      <trkpt lat="46.294493833556771" lon="11.848917827010155">
        <ele>2385.6500000000001</ele>
        <time>2017-07-03T09:25:54Z</time>
      </trkpt>
      <trkpt lat="46.294460473582149" lon="11.848945738747716">
        <ele>2385.6500000000001</ele>
        <time>2017-07-03T09:26:05Z</time>
      </trkpt>
      <trkpt lat="46.294377744197845" lon="11.848972477018833">
        <ele>2384.6900000000001</ele>
        <time>2017-07-03T09:26:18Z</time>
      </trkpt>
      <trkpt lat="46.294320495799184" lon="11.848944062367082">
        <ele>2384.21</ele>
        <time>2017-07-03T09:26:28Z</time>
      </trkpt>
      <trkpt lat="46.294269785284996" lon="11.848959401249886">
        <ele>2383.73</ele>
        <time>2017-07-03T09:26:36Z</time>
      </trkpt>
      <trkpt lat="46.29417423158884" lon="11.848966022953391">
        <ele>2383.25</ele>
        <time>2017-07-03T09:26:44Z</time>
      </trkpt>
      <trkpt lat="46.294041043147445" lon="11.8490104470402">
        <ele>2382.2800000000002</ele>
        <time>2017-07-03T09:26:56Z</time>
      </trkpt>
      <trkpt lat="46.293946746736765" lon="11.84898940846324">
        <ele>2381.3200000000002</ele>
        <time>2017-07-03T09:27:06Z</time>
      </trkpt>
      <trkpt lat="46.293885055929422" lon="11.848982032388449">
        <ele>2380.3600000000001</ele>
        <time>2017-07-03T09:27:13Z</time>
      </trkpt>
      <trkpt lat="46.293759914115071" lon="11.848987145349383">
        <ele>2378.9200000000001</ele>
        <time>2017-07-03T09:27:25Z</time>
      </trkpt>
      <trkpt lat="46.293727727606893" lon="11.848974153399467">
        <ele>2377.48</ele>
        <time>2017-07-03T09:27:30Z</time>
      </trkpt>
      <trkpt lat="46.293650278821588" lon="11.848937189206481">
        <ele>2377</ele>
        <time>2017-07-03T09:27:42Z</time>
      </trkpt>
      <trkpt lat="46.293627228587866" lon="11.848897626623511">
        <ele>2377</ele>
        <time>2017-07-03T09:27:54Z</time>
      </trkpt>
      <trkpt lat="46.293672155588865" lon="11.848699226975441">
        <ele>2377.96</ele>
        <time>2017-07-03T09:28:05Z</time>
      </trkpt>
      <trkpt lat="46.293768547475338" lon="11.848553800955415">
        <ele>2378.4400000000001</ele>
        <time>2017-07-03T09:28:17Z</time>
      </trkpt>
      <trkpt lat="46.293821856379509" lon="11.848433772101998">
        <ele>2379.4000000000001</ele>
        <time>2017-07-03T09:28:28Z</time>
      </trkpt>
      <trkpt lat="46.293845241889358" lon="11.848352383822203">
        <ele>2378.9200000000001</ele>
        <time>2017-07-03T09:28:36Z</time>
      </trkpt>
      <trkpt lat="46.29384876228869" lon="11.848303936421871">
        <ele>2378.9200000000001</ele>
        <time>2017-07-03T09:28:46Z</time>
      </trkpt>
      <trkpt lat="46.293877093121409" lon="11.848235623911023">
        <ele>2378.4400000000001</ele>
        <time>2017-07-03T09:28:57Z</time>
      </trkpt>
      <trkpt lat="46.293873237445951" lon="11.848217016085982">
        <ele>2377.96</ele>
        <time>2017-07-03T09:29:09Z</time>
      </trkpt>
      <trkpt lat="46.29386636428535" lon="11.848207963630557">
        <ele>2377.48</ele>
        <time>2017-07-03T09:29:14Z</time>
      </trkpt>
      <trkpt lat="46.293844990432262" lon="11.848193714395165">
        <ele>2377</ele>
        <time>2017-07-03T09:29:16Z</time>
      </trkpt>
      <trkpt lat="46.2939328327775" lon="11.848008222877979">
        <ele>2376.52</ele>
        <time>2017-07-03T09:29:27Z</time>
      </trkpt>
      <trkpt lat="46.293968707323074" lon="11.847917279228568">
        <ele>2376.04</ele>
        <time>2017-07-03T09:29:38Z</time>
      </trkpt>
      <trkpt lat="46.293956888839602" lon="11.847900431603193">
        <ele>2375.0700000000002</ele>
        <time>2017-07-03T09:29:40Z</time>
      </trkpt>
      <trkpt lat="46.293917493894696" lon="11.847793981432915">
        <ele>2373.6300000000001</ele>
        <time>2017-07-03T09:29:51Z</time>
      </trkpt>
      <trkpt lat="46.293907938525081" lon="11.847786186262965">
        <ele>2373.6300000000001</ele>
        <time>2017-07-03T09:29:55Z</time>
      </trkpt>
      <trkpt lat="46.29386099986732" lon="11.847751988098025">
        <ele>2372.6700000000001</ele>
        <time>2017-07-03T09:30:02Z</time>
      </trkpt>
      <trkpt lat="46.293843481689692" lon="11.847754586488008">
        <ele>2371.71</ele>
        <time>2017-07-03T09:30:04Z</time>
      </trkpt>
      <trkpt lat="46.29375547170639" lon="11.847707396373153">
        <ele>2371.23</ele>
        <time>2017-07-03T09:30:14Z</time>
      </trkpt>
      <trkpt lat="46.293670646846294" lon="11.847637910395861">
        <ele>2370.75</ele>
        <time>2017-07-03T09:30:24Z</time>
      </trkpt>
      <trkpt lat="46.293667796999216" lon="11.84763397090137">
        <ele>2369.79</ele>
        <time>2017-07-03T09:30:25Z</time>
      </trkpt>
      <trkpt lat="46.29359764046967" lon="11.847612429410219">
        <ele>2369.3099999999999</ele>
        <time>2017-07-03T09:30:33Z</time>
      </trkpt>
      <trkpt lat="46.29351700656116" lon="11.847607232630253">
        <ele>2369.3099999999999</ele>
        <time>2017-07-03T09:30:41Z</time>
      </trkpt>
      <trkpt lat="46.293461015447974" lon="11.847563311457634">
        <ele>2368.8299999999999</ele>
        <time>2017-07-03T09:30:46Z</time>
      </trkpt>
      <trkpt lat="46.293315254151821" lon="11.847535399720073">
        <ele>2367.3800000000001</ele>
        <time>2017-07-03T09:31:00Z</time>
      </trkpt>
      <trkpt lat="46.293294299393892" lon="11.847538249567151">
        <ele>2367.3800000000001</ele>
        <time>2017-07-03T09:31:02Z</time>
      </trkpt>
      <trkpt lat="46.293265800923109" lon="11.847549481317401">
        <ele>2365.9400000000001</ele>
        <time>2017-07-03T09:31:05Z</time>
      </trkpt>
      <trkpt lat="46.293171253055334" lon="11.847557611763477">
        <ele>2366.9000000000001</ele>
        <time>2017-07-03T09:31:16Z</time>
      </trkpt>
      <trkpt lat="46.293153148144484" lon="11.847572950646281">
        <ele>2365.46</ele>
        <time>2017-07-03T09:31:31Z</time>
      </trkpt>
      <trkpt lat="46.293139988556504" lon="11.847594911232591">
        <ele>2365.9400000000001</ele>
        <time>2017-07-03T09:31:40Z</time>
      </trkpt>
      <trkpt lat="46.293139988556504" lon="11.847562389448285">
        <ele>2365.46</ele>
        <time>2017-07-03T09:31:52Z</time>
      </trkpt>
      <trkpt lat="46.293085170909762" lon="11.84757730923593">
        <ele>2365.46</ele>
        <time>2017-07-03T09:32:03Z</time>
      </trkpt>
      <trkpt lat="46.293048039078712" lon="11.847518887370825">
        <ele>2365.9400000000001</ele>
        <time>2017-07-03T09:32:14Z</time>
      </trkpt>
      <trkpt lat="46.293043345212936" lon="11.847526933997869">
        <ele>2364.5</ele>
        <time>2017-07-03T09:32:24Z</time>
      </trkpt>
      <trkpt lat="46.293049631640315" lon="11.847546715289354">
        <ele>2364.98</ele>
        <time>2017-07-03T09:32:36Z</time>
      </trkpt>
      <trkpt lat="46.293053906410933" lon="11.847576051950455">
        <ele>2364.5</ele>
        <time>2017-07-03T09:33:07Z</time>
      </trkpt>
      <trkpt lat="46.293032951653004" lon="11.847570352256298">
        <ele>2364.5</ele>
        <time>2017-07-03T09:33:31Z</time>
      </trkpt>
      <trkpt lat="46.293026749044657" lon="11.84757680632174">
        <ele>2365.9400000000001</ele>
        <time>2017-07-03T09:33:39Z</time>
      </trkpt>
      <trkpt lat="46.293016187846661" lon="11.847576554864645">
        <ele>2364.5</ele>
        <time>2017-07-03T09:34:06Z</time>
      </trkpt>
      <trkpt lat="46.293014595285058" lon="11.8475391715765">
        <ele>2364.5</ele>
        <time>2017-07-03T09:34:32Z</time>
      </trkpt>
      <trkpt lat="46.293031191453338" lon="11.847571190446615">
        <ele>2364.5</ele>
        <time>2017-07-03T09:34:44Z</time>
      </trkpt>
      <trkpt lat="46.292895404621959" lon="11.847704714164138">
        <ele>2364.5</ele>
        <time>2017-07-03T09:35:12Z</time>
      </trkpt>
      <trkpt lat="46.292864978313446" lon="11.847732374444604">
        <ele>2364.5</ele>
        <time>2017-07-03T09:35:42Z</time>
      </trkpt>
      <trkpt lat="46.292691556736827" lon="11.847927421331406">
        <ele>2364.5</ele>
        <time>2017-07-03T09:36:15Z</time>
      </trkpt>
      <trkpt lat="46.292548812925816" lon="11.848082905635238">
        <ele>2364.5</ele>
        <time>2017-07-03T09:36:41Z</time>
      </trkpt>
      <trkpt lat="46.292498521506786" lon="11.848171753808856">
        <ele>2364.5</ele>
        <time>2017-07-03T09:36:54Z</time>
      </trkpt>
      <trkpt lat="46.292451415210962" lon="11.848173011094332">
        <ele>2364.5</ele>
        <time>2017-07-03T09:37:03Z</time>
      </trkpt>
      <trkpt lat="46.292394082993269" lon="11.848325058817863">
        <ele>2364.5</ele>
        <time>2017-07-03T09:37:24Z</time>
      </trkpt>
      <trkpt lat="46.292396513745189" lon="11.848312318325043">
        <ele>2364.02</ele>
        <time>2017-07-03T09:37:28Z</time>
      </trkpt>
      <trkpt lat="46.292383270338178" lon="11.848314246162772">
        <ele>2365.46</ele>
        <time>2017-07-03T09:37:35Z</time>
      </trkpt>
      <trkpt lat="46.29238142631948" lon="11.848273426294327">
        <ele>2366.4200000000001</ele>
        <time>2017-07-03T09:37:41Z</time>
      </trkpt>
      <trkpt lat="46.292396178469062" lon="11.848244005814195">
        <ele>2365.46</ele>
        <time>2017-07-03T09:37:51Z</time>
      </trkpt>
      <trkpt lat="46.29238679073751" lon="11.848254650831223">
        <ele>2365.46</ele>
        <time>2017-07-03T09:38:02Z</time>
      </trkpt>
      <trkpt lat="46.292367847636342" lon="11.848283903673291">
        <ele>2364.98</ele>
        <time>2017-07-03T09:38:13Z</time>
      </trkpt>
      <trkpt lat="46.292364913970232" lon="11.848284406587481">
        <ele>2365.46</ele>
        <time>2017-07-03T09:38:28Z</time>
      </trkpt>
      <trkpt lat="46.292369524016976" lon="11.848304606974125">
        <ele>2364.5</ele>
        <time>2017-07-03T09:38:40Z</time>
      </trkpt>
      <trkpt lat="46.292332140728831" lon="11.848326902836561">
        <ele>2364.5</ele>
        <time>2017-07-03T09:38:51Z</time>
      </trkpt>
      <trkpt lat="46.292307330295444" lon="11.848343834280968">
        <ele>2364.98</ele>
        <time>2017-07-03T09:38:55Z</time>
      </trkpt>
      <trkpt lat="46.292245974764228" lon="11.848371578380466">
        <ele>2363.0599999999999</ele>
        <time>2017-07-03T09:39:04Z</time>
      </trkpt>
      <trkpt lat="46.292230132967234" lon="11.848342996090651">
        <ele>2363.0599999999999</ele>
        <time>2017-07-03T09:39:16Z</time>
      </trkpt>
      <trkpt lat="46.29218403249979" lon="11.848357915878296">
        <ele>2363.0599999999999</ele>
        <time>2017-07-03T09:39:25Z</time>
      </trkpt>
      <trkpt lat="46.292156036943197" lon="11.848418768495321">
        <ele>2362.0999999999999</ele>
        <time>2017-07-03T09:39:31Z</time>
      </trkpt>
      <trkpt lat="46.292118318378925" lon="11.848470317199826">
        <ele>2361.6199999999999</ele>
        <time>2017-07-03T09:39:37Z</time>
      </trkpt>
      <trkpt lat="46.292092418298125" lon="11.848495882004499">
        <ele>2361.6199999999999</ele>
        <time>2017-07-03T09:39:40Z</time>
      </trkpt>
      <trkpt lat="46.292067943140864" lon="11.848513567820191">
        <ele>2363.54</ele>
        <time>2017-07-03T09:39:43Z</time>
      </trkpt>
      <trkpt lat="46.292018322274089" lon="11.848547933623195">
        <ele>2362.5799999999999</ele>
        <time>2017-07-03T09:39:52Z</time>
      </trkpt>
      <trkpt lat="46.291979933157563" lon="11.848603589460254">
        <ele>2362.5799999999999</ele>
        <time>2017-07-03T09:39:59Z</time>
      </trkpt>
      <trkpt lat="46.291935928165913" lon="11.848671734333038">
        <ele>2362.0999999999999</ele>
        <time>2017-07-03T09:40:09Z</time>
      </trkpt>
      <trkpt lat="46.291890917345881" lon="11.848721606656909">
        <ele>2361.1399999999999</ele>
        <time>2017-07-03T09:40:18Z</time>
      </trkpt>
      <trkpt lat="46.291892761364579" lon="11.848724875599146">
        <ele>2360.6500000000001</ele>
        <time>2017-07-03T09:40:19Z</time>
      </trkpt>
      <trkpt lat="46.291875410825014" lon="11.848751027137041">
        <ele>2360.1700000000001</ele>
        <time>2017-07-03T09:40:22Z</time>
      </trkpt>
      <trkpt lat="46.291853534057736" lon="11.848770808428526">
        <ele>2359.6900000000001</ele>
        <time>2017-07-03T09:40:26Z</time>
      </trkpt>
      <trkpt lat="46.291809277608991" lon="11.848842306062579">
        <ele>2359.21</ele>
        <time>2017-07-03T09:40:36Z</time>
      </trkpt>
      <trkpt lat="46.291788490489125" lon="11.848914055153728">
        <ele>2357.77</ele>
        <time>2017-07-03T09:40:44Z</time>
      </trkpt>
      <trkpt lat="46.291738031432033" lon="11.848956886678934">
        <ele>2357.77</ele>
        <time>2017-07-03T09:40:50Z</time>
      </trkpt>
      <trkpt lat="46.291629234328866" lon="11.849031569436193">
        <ele>2358.25</ele>
        <time>2017-07-03T09:41:03Z</time>
      </trkpt>
      <trkpt lat="46.291574416682124" lon="11.849121423438191">
        <ele>2357.29</ele>
        <time>2017-07-03T09:41:12Z</time>
      </trkpt>
      <trkpt lat="46.291511133313179" lon="11.849225107580423">
        <ele>2357.29</ele>
        <time>2017-07-03T09:41:24Z</time>
      </trkpt>
      <trkpt lat="46.29146964289248" lon="11.8493075016886">
        <ele>2355.8499999999999</ele>
        <time>2017-07-03T09:41:34Z</time>
      </trkpt>
      <trkpt lat="46.291394708678126" lon="11.849402887746692">
        <ele>2356.8099999999999</ele>
        <time>2017-07-03T09:41:44Z</time>
      </trkpt>
      <trkpt lat="46.291998038068414" lon="11.848388928920031">
        <ele>2354.4099999999999</ele>
        <time>2017-07-03T09:41:55Z</time>
      </trkpt>
      <trkpt lat="46.292053693905473" lon="11.848444920033216">
        <ele>2351.04</ele>
        <time>2017-07-03T09:42:07Z</time>
      </trkpt>
      <trkpt lat="46.292049838230014" lon="11.848458414897323">
        <ele>2350.5599999999999</ele>
        <time>2017-07-03T09:42:08Z</time>
      </trkpt>
      <trkpt lat="46.291985549032688" lon="11.848522452637553">
        <ele>2347.6799999999998</ele>
        <time>2017-07-03T09:42:20Z</time>
      </trkpt>
      <trkpt lat="46.291914135217667" lon="11.848576264455914">
        <ele>2346.23</ele>
        <time>2017-07-03T09:42:30Z</time>
      </trkpt>
      <trkpt lat="46.291843308135867" lon="11.848621191456914">
        <ele>2344.79</ele>
        <time>2017-07-03T09:42:39Z</time>
      </trkpt>
      <trkpt lat="46.29180584102869" lon="11.848504766821861">
        <ele>2343.3499999999999</ele>
        <time>2017-07-03T09:42:50Z</time>
      </trkpt>
      <trkpt lat="46.291741719469428" lon="11.848484398797154">
        <ele>2341.9099999999999</ele>
        <time>2017-07-03T09:43:00Z</time>
      </trkpt>
      <trkpt lat="46.291677681729198" lon="11.848441315814853">
        <ele>2340.9499999999998</ele>
        <time>2017-07-03T09:43:11Z</time>
      </trkpt>
      <trkpt lat="46.291649518534541" lon="11.848446931689978">
        <ele>2339.5100000000002</ele>
        <time>2017-07-03T09:43:13Z</time>
      </trkpt>
      <trkpt lat="46.291574500501156" lon="11.84843435883522">
        <ele>2337.5799999999999</ele>
        <time>2017-07-03T09:43:22Z</time>
      </trkpt>
      <trkpt lat="46.291568046435714" lon="11.848434275016189">
        <ele>2337.5799999999999</ele>
        <time>2017-07-03T09:43:23Z</time>
      </trkpt>
      <trkpt lat="46.291546337306499" lon="11.848427150398493">
        <ele>2336.6199999999999</ele>
        <time>2017-07-03T09:43:27Z</time>
      </trkpt>
      <trkpt lat="46.291537368670106" lon="11.848435783758759">
        <ele>2336.1399999999999</ele>
        <time>2017-07-03T09:43:28Z</time>
      </trkpt>
      <trkpt lat="46.291478276252747" lon="11.848442237824202">
        <ele>2334.6999999999998</ele>
        <time>2017-07-03T09:43:38Z</time>
      </trkpt>
      <trkpt lat="46.291448017582297" lon="11.84847442433238">
        <ele>2333.7399999999998</ele>
        <time>2017-07-03T09:43:46Z</time>
      </trkpt>
      <trkpt lat="46.291428823024035" lon="11.848472580313683">
        <ele>2333.2600000000002</ele>
        <time>2017-07-03T09:43:59Z</time>
      </trkpt>
      <trkpt lat="46.291401078924537" lon="11.848466964438558">
        <ele>2332.3000000000002</ele>
        <time>2017-07-03T09:44:08Z</time>
      </trkpt>
      <trkpt lat="46.291392697021365" lon="11.848494373261929">
        <ele>2331.8099999999999</ele>
        <time>2017-07-03T09:44:20Z</time>
      </trkpt>
      <trkpt lat="46.291232937946916" lon="11.848583724349737">
        <ele>2331.3299999999999</ele>
        <time>2017-07-03T09:44:32Z</time>
      </trkpt>
      <trkpt lat="46.291215922683477" lon="11.8485804554075">
        <ele>2331.3299999999999</ele>
        <time>2017-07-03T09:44:40Z</time>
      </trkpt>
      <trkpt lat="46.291193962097168" lon="11.848598811775446">
        <ele>2330.8499999999999</ele>
        <time>2017-07-03T09:44:45Z</time>
      </trkpt>
      <trkpt lat="46.291106455028057" lon="11.848652707412839">
        <ele>2328.9299999999998</ele>
        <time>2017-07-03T09:44:56Z</time>
      </trkpt>
      <trkpt lat="46.290995059534907" lon="11.848747758194804">
        <ele>2327.0100000000002</ele>
        <time>2017-07-03T09:45:06Z</time>
      </trkpt>
      <trkpt lat="46.290867403149605" lon="11.848834343254566">
        <ele>2325.5700000000002</ele>
        <time>2017-07-03T09:45:18Z</time>
      </trkpt>
      <trkpt lat="46.290730023756623" lon="11.848910031840205">
        <ele>2323.6399999999999</ele>
        <time>2017-07-03T09:45:33Z</time>
      </trkpt>
      <trkpt lat="46.290618712082505" lon="11.848943224176764">
        <ele>2322.1999999999998</ele>
        <time>2017-07-03T09:45:44Z</time>
      </trkpt>
      <trkpt lat="46.290592392906547" lon="11.848959904164076">
        <ele>2321.7199999999998</ele>
        <time>2017-07-03T09:45:47Z</time>
      </trkpt>
      <trkpt lat="46.290573198348284" lon="11.848963927477598">
        <ele>2320.7600000000002</ele>
        <time>2017-07-03T09:45:50Z</time>
      </trkpt>
      <trkpt lat="46.290481919422746" lon="11.848994940519333">
        <ele>2318.8400000000001</ele>
        <time>2017-07-03T09:46:03Z</time>
      </trkpt>
      <trkpt lat="46.290446128696203" lon="11.849013045430183">
        <ele>2317.8800000000001</ele>
        <time>2017-07-03T09:46:14Z</time>
      </trkpt>
      <trkpt lat="46.290347725152969" lon="11.849030563607812">
        <ele>2314.5100000000002</ele>
        <time>2017-07-03T09:46:26Z</time>
      </trkpt>
      <trkpt lat="46.290281424298882" lon="11.849055960774422">
        <ele>2312.1100000000001</ele>
        <time>2017-07-03T09:46:39Z</time>
      </trkpt>
      <trkpt lat="46.290200874209404" lon="11.849071467295289">
        <ele>2309.6999999999998</ele>
        <time>2017-07-03T09:46:54Z</time>
      </trkpt>
      <trkpt lat="46.290165251120925" lon="11.84910524636507">
        <ele>2307.7800000000002</ele>
        <time>2017-07-03T09:47:06Z</time>
      </trkpt>
      <trkpt lat="46.290112361311913" lon="11.849148664623499">
        <ele>2305.3800000000001</ele>
        <time>2017-07-03T09:47:17Z</time>
      </trkpt>
      <trkpt lat="46.290040109306574" lon="11.849185293540359">
        <ele>2302.98</ele>
        <time>2017-07-03T09:47:30Z</time>
      </trkpt>
      <trkpt lat="46.289965342730284" lon="11.849214797839522">
        <ele>2300.5700000000002</ele>
        <time>2017-07-03T09:47:43Z</time>
      </trkpt>
      <trkpt lat="46.289930222555995" lon="11.849224772304296">
        <ele>2299.6100000000001</ele>
        <time>2017-07-03T09:47:48Z</time>
      </trkpt>
      <trkpt lat="46.290223505347967" lon="11.848842557519674">
        <ele>2297.21</ele>
        <time>2017-07-03T09:47:59Z</time>
      </trkpt>
      <trkpt lat="46.290192073211074" lon="11.848840294405818">
        <ele>2296.25</ele>
        <time>2017-07-03T09:48:03Z</time>
      </trkpt>
      <trkpt lat="46.290100626647472" lon="11.848852280527353">
        <ele>2293.8400000000001</ele>
        <time>2017-07-03T09:48:14Z</time>
      </trkpt>
      <trkpt lat="46.290017310529947" lon="11.848908942192793">
        <ele>2291.9200000000001</ele>
        <time>2017-07-03T09:48:27Z</time>
      </trkpt>
      <trkpt lat="46.289928210899234" lon="11.848982032388449">
        <ele>2289.52</ele>
        <time>2017-07-03T09:48:40Z</time>
      </trkpt>
      <trkpt lat="46.289881272241473" lon="11.848991420120001">
        <ele>2288.0799999999999</ele>
        <time>2017-07-03T09:48:52Z</time>
      </trkpt>
      <trkpt lat="46.289858976379037" lon="11.849001059308648">
        <ele>2287.5900000000001</ele>
        <time>2017-07-03T09:49:00Z</time>
      </trkpt>
      <trkpt lat="46.289854701608419" lon="11.849014386534691">
        <ele>2286.6300000000001</ele>
        <time>2017-07-03T09:49:10Z</time>
      </trkpt>
      <trkpt lat="46.289845481514931" lon="11.849030731245875">
        <ele>2286.1500000000001</ele>
        <time>2017-07-03T09:49:21Z</time>
      </trkpt>
      <trkpt lat="46.289823353290558" lon="11.849041460081935">
        <ele>2285.6700000000001</ele>
        <time>2017-07-03T09:49:31Z</time>
      </trkpt>
      <trkpt lat="46.289782030507922" lon="11.849094433709979">
        <ele>2286.1500000000001</ele>
        <time>2017-07-03T09:49:41Z</time>
      </trkpt>
      <trkpt lat="46.289745066314936" lon="11.849125195294619">
        <ele>2285.6700000000001</ele>
        <time>2017-07-03T09:49:50Z</time>
      </trkpt>
      <trkpt lat="46.289701983332634" lon="11.84916433878243">
        <ele>2284.23</ele>
        <time>2017-07-03T09:49:59Z</time>
      </trkpt>
      <trkpt lat="46.28964607603848" lon="11.849171128123999">
        <ele>2283.75</ele>
        <time>2017-07-03T09:50:10Z</time>
      </trkpt>
      <trkpt lat="46.289608357474208" lon="11.849177917465568">
        <ele>2283.27</ele>
        <time>2017-07-03T09:50:21Z</time>
      </trkpt>
      <trkpt lat="46.289575751870871" lon="11.849190657958388">
        <ele>2282.3099999999999</ele>
        <time>2017-07-03T09:50:27Z</time>
      </trkpt>
      <trkpt lat="46.289550689980388" lon="11.849202308803797">
        <ele>2282.3099999999999</ele>
        <time>2017-07-03T09:50:33Z</time>
      </trkpt>
      <trkpt lat="46.28948044963181" lon="11.849266430363059">
        <ele>2281.3499999999999</ele>
        <time>2017-07-03T09:50:45Z</time>
      </trkpt>
      <trkpt lat="46.289431247860193" lon="11.849290151149035">
        <ele>2280.8699999999999</ele>
        <time>2017-07-03T09:50:51Z</time>
      </trkpt>
      <trkpt lat="46.289386656135321" lon="11.8493334017694">
        <ele>2280.3800000000001</ele>
        <time>2017-07-03T09:51:00Z</time>
      </trkpt>
      <trkpt lat="46.289343992248178" lon="11.8493627384305">
        <ele>2278.46</ele>
        <time>2017-07-03T09:51:11Z</time>
      </trkpt>
      <trkpt lat="46.289304429665208" lon="11.849403642117977">
        <ele>2276.0599999999999</ele>
        <time>2017-07-03T09:51:21Z</time>
      </trkpt>
      <trkpt lat="46.289272913709283" lon="11.849394086748362">
        <ele>2275.0999999999999</ele>
        <time>2017-07-03T09:51:31Z</time>
      </trkpt>
      <trkpt lat="46.28926595672965" lon="11.849394589662552">
        <ele>2274.6199999999999</ele>
        <time>2017-07-03T09:51:32Z</time>
      </trkpt>
      <trkpt lat="46.289248606190085" lon="11.849392494186759">
        <ele>2273.6599999999999</ele>
        <time>2017-07-03T09:51:34Z</time>
      </trkpt>
      <trkpt lat="46.289184568449855" lon="11.849389225244522">
        <ele>2275.5799999999999</ele>
        <time>2017-07-03T09:51:44Z</time>
      </trkpt>
      <trkpt lat="46.289152717217803" lon="11.849381932988763">
        <ele>2276.54</ele>
        <time>2017-07-03T09:51:52Z</time>
      </trkpt>
      <trkpt lat="46.289136372506618" lon="11.849389979615808">
        <ele>2276.0599999999999</ele>
        <time>2017-07-03T09:51:54Z</time>
      </trkpt>
      <trkpt lat="46.289078956469893" lon="11.849390147253871">
        <ele>2276.54</ele>
        <time>2017-07-03T09:52:03Z</time>
      </trkpt>
      <trkpt lat="46.288996478542686" lon="11.849371874704957">
        <ele>2277.5</ele>
        <time>2017-07-03T09:52:15Z</time>
      </trkpt>
      <trkpt lat="46.288955239579082" lon="11.849371623247862">
        <ele>2277.5</ele>
        <time>2017-07-03T09:52:26Z</time>
      </trkpt>
      <trkpt lat="46.288936212658882" lon="11.849391655996442">
        <ele>2277.02</ele>
        <time>2017-07-03T09:52:39Z</time>
      </trkpt>
      <trkpt lat="46.2889214605093" lon="11.849377239122987">
        <ele>2276.54</ele>
        <time>2017-07-03T09:52:58Z</time>
      </trkpt>
      <trkpt lat="46.288890363648534" lon="11.849375981837511">
        <ele>2277.5</ele>
        <time>2017-07-03T09:53:14Z</time>
      </trkpt>
      <trkpt lat="46.288869325071573" lon="11.849369863048196">
        <ele>2277.98</ele>
        <time>2017-07-03T09:53:23Z</time>
      </trkpt>
      <trkpt lat="46.28885549493134" lon="11.849361313506961">
        <ele>2277.98</ele>
        <time>2017-07-03T09:53:32Z</time>
      </trkpt>
      <trkpt lat="46.288835378363729" lon="11.849360810592771">
        <ele>2277.5</ele>
        <time>2017-07-03T09:53:42Z</time>
      </trkpt>
      <trkpt lat="46.288827667012811" lon="11.849375478923321">
        <ele>2277.5</ele>
        <time>2017-07-03T09:53:51Z</time>
      </trkpt>
      <trkpt lat="46.288813669234514" lon="11.849392242729664">
        <ele>2277.5</ele>
        <time>2017-07-03T09:54:02Z</time>
      </trkpt>
      <trkpt lat="46.288781901821494" lon="11.849379418417811">
        <ele>2278.9400000000001</ele>
        <time>2017-07-03T09:54:11Z</time>
      </trkpt>
      <trkpt lat="46.288744602352381" lon="11.849387213587761">
        <ele>2280.3800000000001</ele>
        <time>2017-07-03T09:54:21Z</time>
      </trkpt>
      <trkpt lat="46.288739824667573" lon="11.849357457831502">
        <ele>2280.3800000000001</ele>
        <time>2017-07-03T09:54:30Z</time>
      </trkpt>
      <trkpt lat="46.288693891838193" lon="11.849371874704957">
        <ele>2278.9400000000001</ele>
        <time>2017-07-03T09:54:40Z</time>
      </trkpt>
      <trkpt lat="46.28864049911499" lon="11.849360894411802">
        <ele>2278.46</ele>
        <time>2017-07-03T09:54:50Z</time>
      </trkpt>
      <trkpt lat="46.288623148575425" lon="11.849367683753371">
        <ele>2277.02</ele>
        <time>2017-07-03T09:54:58Z</time>
      </trkpt>
      <trkpt lat="46.2885950691998" lon="11.849357960745692">
        <ele>2276.0599999999999</ele>
        <time>2017-07-03T09:55:09Z</time>
      </trkpt>
      <trkpt lat="46.288555758073926" lon="11.849326193332672">
        <ele>2277.5</ele>
        <time>2017-07-03T09:55:19Z</time>
      </trkpt>
      <trkpt lat="46.288480069488287" lon="11.849293168634176">
        <ele>2277.98</ele>
        <time>2017-07-03T09:55:30Z</time>
      </trkpt>
      <trkpt lat="46.288407733663917" lon="11.849286630749702">
        <ele>2278.46</ele>
        <time>2017-07-03T09:55:40Z</time>
      </trkpt>
      <trkpt lat="46.288348138332367" lon="11.849286295473576">
        <ele>2278.46</ele>
        <time>2017-07-03T09:55:49Z</time>
      </trkpt>
      <trkpt lat="46.288318550214171" lon="11.849277075380087">
        <ele>2278.46</ele>
        <time>2017-07-03T09:55:59Z</time>
      </trkpt>
      <trkpt lat="46.288306564092636" lon="11.849258551374078">
        <ele>2279.9000000000001</ele>
        <time>2017-07-03T09:56:11Z</time>
      </trkpt>
      <trkpt lat="46.288297595456243" lon="11.84926844201982">
        <ele>2278.9400000000001</ele>
        <time>2017-07-03T09:56:23Z</time>
      </trkpt>
      <trkpt lat="46.288299355655909" lon="11.849253354594111">
        <ele>2279.4200000000001</ele>
        <time>2017-07-03T09:56:26Z</time>
      </trkpt>
      <trkpt lat="46.28828376531601" lon="11.849261987954378">
        <ele>2278.9400000000001</ele>
        <time>2017-07-03T09:56:30Z</time>
      </trkpt>
      <trkpt lat="46.288246382027864" lon="11.849261652678251">
        <ele>2278.9400000000001</ele>
        <time>2017-07-03T09:56:38Z</time>
      </trkpt>
      <trkpt lat="46.288226852193475" lon="11.849279757589102">
        <ele>2278.9400000000001</ele>
        <time>2017-07-03T09:56:45Z</time>
      </trkpt>
      <trkpt lat="46.288178153336048" lon="11.849272297695279">
        <ele>2277.98</ele>
        <time>2017-07-03T09:56:56Z</time>
      </trkpt>
      <trkpt lat="46.288165496662259" lon="11.849269699305296">
        <ele>2277.5</ele>
        <time>2017-07-03T09:56:58Z</time>
      </trkpt>
      <trkpt lat="46.288112690672278" lon="11.849221419543028">
        <ele>2277.98</ele>
        <time>2017-07-03T09:57:09Z</time>
      </trkpt>
      <trkpt lat="46.28808100707829" lon="11.849205661565065">
        <ele>2279.4200000000001</ele>
        <time>2017-07-03T09:57:18Z</time>
      </trkpt>
      <trkpt lat="46.288013448938727" lon="11.849201638251543">
        <ele>2280.3800000000001</ele>
        <time>2017-07-03T09:57:28Z</time>
      </trkpt>
      <trkpt lat="46.287923343479633" lon="11.84917313978076">
        <ele>2279.9000000000001</ele>
        <time>2017-07-03T09:57:39Z</time>
      </trkpt>
      <trkpt lat="46.287854360416532" lon="11.849160399287939">
        <ele>2279.4200000000001</ele>
        <time>2017-07-03T09:57:49Z</time>
      </trkpt>
      <trkpt lat="46.287814378738403" lon="11.84915654361248">
        <ele>2281.3499999999999</ele>
        <time>2017-07-03T09:58:01Z</time>
      </trkpt>
      <trkpt lat="46.287763919681311" lon="11.849094182252884">
        <ele>2283.27</ele>
        <time>2017-07-03T09:58:15Z</time>
      </trkpt>
      <trkpt lat="46.287701474502683" lon="11.849062079563737">
        <ele>2285.1900000000001</ele>
        <time>2017-07-03T09:58:27Z</time>
      </trkpt>
      <trkpt lat="46.287639029324055" lon="11.849045231938362">
        <ele>2286.1500000000001</ele>
        <time>2017-07-03T09:58:40Z</time>
      </trkpt>
      <trkpt lat="46.287606758996844" lon="11.849006004631519">
        <ele>2287.1100000000001</ele>
        <time>2017-07-03T09:58:48Z</time>
      </trkpt>
      <trkpt lat="46.287563424557447" lon="11.849014637991786">
        <ele>2288.0799999999999</ele>
        <time>2017-07-03T09:58:57Z</time>
      </trkpt>
      <trkpt lat="46.287494860589504" lon="11.849023858085275">
        <ele>2289.04</ele>
        <time>2017-07-03T09:59:08Z</time>
      </trkpt>
      <trkpt lat="46.287396624684334" lon="11.848989659920335">
        <ele>2290.48</ele>
        <time>2017-07-03T09:59:23Z</time>
      </trkpt>
      <trkpt lat="46.287324875593185" lon="11.848958898335695">
        <ele>2292.4000000000001</ele>
        <time>2017-07-03T09:59:36Z</time>
      </trkpt>
      <trkpt lat="46.287252455949783" lon="11.848917240276933">
        <ele>2293.8400000000001</ele>
        <time>2017-07-03T09:59:49Z</time>
      </trkpt>
      <trkpt lat="46.287176432088017" lon="11.848833253607154">
        <ele>2295.2800000000002</ele>
        <time>2017-07-03T10:00:03Z</time>
      </trkpt>
      <trkpt lat="46.287152962759137" lon="11.848830822855234">
        <ele>2295.2800000000002</ele>
        <time>2017-07-03T10:00:06Z</time>
      </trkpt>
      <trkpt lat="46.28707786090672" lon="11.848848843947053">
        <ele>2295.2800000000002</ele>
        <time>2017-07-03T10:00:18Z</time>
      </trkpt>
      <trkpt lat="46.286989767104387" lon="11.848875749856234">
        <ele>2295.77</ele>
        <time>2017-07-03T10:00:29Z</time>
      </trkpt>
      <trkpt lat="46.286897817626595" lon="11.848841803148389">
        <ele>2296.25</ele>
        <time>2017-07-03T10:00:39Z</time>
      </trkpt>
      <trkpt lat="46.286820704117417" lon="11.848818752914667">
        <ele>2297.6900000000001</ele>
        <time>2017-07-03T10:00:49Z</time>
      </trkpt>
      <trkpt lat="46.286734119057655" lon="11.848820932209492">
        <ele>2297.6900000000001</ele>
        <time>2017-07-03T10:01:01Z</time>
      </trkpt>
      <trkpt lat="46.286675781011581" lon="11.848811209201813">
        <ele>2298.1700000000001</ele>
        <time>2017-07-03T10:01:12Z</time>
      </trkpt>
      <trkpt lat="46.286638313904405" lon="11.848827721551061">
        <ele>2300.0900000000001</ele>
        <time>2017-07-03T10:01:23Z</time>
      </trkpt>
      <trkpt lat="46.286567319184542" lon="11.848808275535703">
        <ele>2300.5700000000002</ele>
        <time>2017-07-03T10:01:35Z</time>
      </trkpt>
      <trkpt lat="46.286492049694061" lon="11.848793774843216">
        <ele>2302.98</ele>
        <time>2017-07-03T10:01:47Z</time>
      </trkpt>
      <trkpt lat="46.286437399685383" lon="11.848776508122683">
        <ele>2303.46</ele>
        <time>2017-07-03T10:01:59Z</time>
      </trkpt>
      <trkpt lat="46.286359783262014" lon="11.848728898912668">
        <ele>2304.4200000000001</ele>
        <time>2017-07-03T10:02:12Z</time>
      </trkpt>
      <trkpt lat="46.286301361396909" lon="11.848676344379783">
        <ele>2303.9400000000001</ele>
        <time>2017-07-03T10:02:26Z</time>
      </trkpt>
      <trkpt lat="46.286293733865023" lon="11.848662346601486">
        <ele>2306.3400000000001</ele>
        <time>2017-07-03T10:02:28Z</time>
      </trkpt>
      <trkpt lat="46.286240508779883" lon="11.848620939999819">
        <ele>2306.8200000000002</ele>
        <time>2017-07-03T10:02:40Z</time>
      </trkpt>
      <trkpt lat="46.286195330321789" lon="11.848569475114346">
        <ele>2309.6999999999998</ele>
        <time>2017-07-03T10:02:52Z</time>
      </trkpt>
      <trkpt lat="46.2861343100667" lon="11.84852471575141">
        <ele>2310.6700000000001</ele>
        <time>2017-07-03T10:03:05Z</time>
      </trkpt>
      <trkpt lat="46.286114864051342" lon="11.848489679396152">
        <ele>2311.6300000000001</ele>
        <time>2017-07-03T10:03:15Z</time>
      </trkpt>
      <trkpt lat="46.286053173243999" lon="11.848417595028877">
        <ele>2312.5900000000001</ele>
        <time>2017-07-03T10:03:27Z</time>
      </trkpt>
      <trkpt lat="46.286008162423968" lon="11.848369315266609">
        <ele>2313.0700000000002</ele>
        <time>2017-07-03T10:03:38Z</time>
      </trkpt>
      <trkpt lat="46.285948986187577" lon="11.848315671086311">
        <ele>2314.0300000000002</ele>
        <time>2017-07-03T10:03:51Z</time>
      </trkpt>
      <trkpt lat="46.285928031429648" lon="11.848283316940069">
        <ele>2314.9899999999998</ele>
        <time>2017-07-03T10:04:00Z</time>
      </trkpt>
      <trkpt lat="46.285888887941837" lon="11.848237551748753">
        <ele>2315.9499999999998</ele>
        <time>2017-07-03T10:04:10Z</time>
      </trkpt>
      <trkpt lat="46.285866759717464" lon="11.848198072984815">
        <ele>2317.4000000000001</ele>
        <time>2017-07-03T10:04:20Z</time>
      </trkpt>
      <trkpt lat="46.285875895991921" lon="11.848171167075634">
        <ele>2317.4000000000001</ele>
        <time>2017-07-03T10:04:30Z</time>
      </trkpt>
      <trkpt lat="46.2858597189188" lon="11.848124563694">
        <ele>2318.3600000000001</ele>
        <time>2017-07-03T10:04:40Z</time>
      </trkpt>
      <trkpt lat="46.285855527967215" lon="11.848105536773801">
        <ele>2318.3600000000001</ele>
        <time>2017-07-03T10:04:52Z</time>
      </trkpt>
      <trkpt lat="46.285848570987582" lon="11.848077708855271">
        <ele>2318.8400000000001</ele>
        <time>2017-07-03T10:05:05Z</time>
      </trkpt>
      <trkpt lat="46.285863993689418" lon="11.848065471276641">
        <ele>2318.3600000000001</ele>
        <time>2017-07-03T10:05:26Z</time>
      </trkpt>
      <trkpt lat="46.285848570987582" lon="11.84805859811604">
        <ele>2318.3600000000001</ele>
        <time>2017-07-03T10:05:38Z</time>
      </trkpt>
      <trkpt lat="46.285837925970554" lon="11.84800679795444">
        <ele>2318.8400000000001</ele>
        <time>2017-07-03T10:05:49Z</time>
      </trkpt>
      <trkpt lat="46.285808673128486" lon="11.847964553162456">
        <ele>2317.4000000000001</ele>
        <time>2017-07-03T10:05:59Z</time>
      </trkpt>
      <trkpt lat="46.28580741584301" lon="11.847965894266963">
        <ele>2317.4000000000001</ele>
        <time>2017-07-03T10:06:00Z</time>
      </trkpt>
      <trkpt lat="46.285789478570223" lon="11.847961032763124">
        <ele>2316.9099999999999</ele>
        <time>2017-07-03T10:06:02Z</time>
      </trkpt>
      <trkpt lat="46.285760309547186" lon="11.847909986972809">
        <ele>2316.4299999999998</ele>
        <time>2017-07-03T10:06:12Z</time>
      </trkpt>
      <trkpt lat="46.285783275961876" lon="11.847801189869642">
        <ele>2314.9899999999998</ele>
        <time>2017-07-03T10:06:24Z</time>
      </trkpt>
      <trkpt lat="46.285749915987253" lon="11.847773278132081">
        <ele>2314.5100000000002</ele>
        <time>2017-07-03T10:06:34Z</time>
      </trkpt>
      <trkpt lat="46.285701803863049" lon="11.847764728590846">
        <ele>2314.5100000000002</ele>
        <time>2017-07-03T10:06:44Z</time>
      </trkpt>
      <trkpt lat="46.285644639283419" lon="11.847727848216891">
        <ele>2315.9499999999998</ele>
        <time>2017-07-03T10:06:57Z</time>
      </trkpt>
      <trkpt lat="46.28558361902833" lon="11.847736062481999">
        <ele>2316.4299999999998</ele>
        <time>2017-07-03T10:07:08Z</time>
      </trkpt>
      <trkpt lat="46.28555528819561" lon="11.847732961177826">
        <ele>2315.9499999999998</ele>
        <time>2017-07-03T10:07:18Z</time>
      </trkpt>
      <trkpt lat="46.285562580451369" lon="11.847744192928076">
        <ele>2315.9499999999998</ele>
        <time>2017-07-03T10:07:32Z</time>
      </trkpt>
      <trkpt lat="46.285579595714808" lon="11.847771853208542">
        <ele>2315.9499999999998</ele>
        <time>2017-07-03T10:07:50Z</time>
      </trkpt>
      <trkpt lat="46.285635670647025" lon="11.847725501284003">
        <ele>2315.9499999999998</ele>
        <time>2017-07-03T10:08:03Z</time>
      </trkpt>
      <trkpt lat="46.285642376169562" lon="11.847723908722401">
        <ele>2316.4299999999998</ele>
        <time>2017-07-03T10:08:11Z</time>
      </trkpt>
      <trkpt lat="46.285630306228995" lon="11.84773069806397">
        <ele>2316.4299999999998</ele>
        <time>2017-07-03T10:08:23Z</time>
      </trkpt>
      <trkpt lat="46.285632904618979" lon="11.847745534032583">
        <ele>2316.4299999999998</ele>
        <time>2017-07-03T10:08:30Z</time>
      </trkpt>
      <trkpt lat="46.285629468038678" lon="11.847748719155788">
        <ele>2315.9499999999998</ele>
        <time>2017-07-03T10:08:48Z</time>
      </trkpt>
      <trkpt lat="46.285696858540177" lon="11.847827006131411">
        <ele>2313.5500000000002</ele>
        <time>2017-07-03T10:08:58Z</time>
      </trkpt>
      <trkpt lat="46.285723680630326" lon="11.847907891497016">
        <ele>2314.5100000000002</ele>
        <time>2017-07-03T10:09:06Z</time>
      </trkpt>
      <trkpt lat="46.285733738914132" lon="11.848026411607862">
        <ele>2315.9499999999998</ele>
        <time>2017-07-03T10:09:17Z</time>
      </trkpt>
      <trkpt lat="46.285745389759541" lon="11.848041834309697">
        <ele>2315.9499999999998</ele>
        <time>2017-07-03T10:09:22Z</time>
      </trkpt>
      <trkpt lat="46.285759974271059" lon="11.848065555095673">
        <ele>2315.9499999999998</ele>
        <time>2017-07-03T10:09:24Z</time>
      </trkpt>
      <trkpt lat="46.285800123587251" lon="11.848090533167124">
        <ele>2316.9099999999999</ele>
        <time>2017-07-03T10:09:29Z</time>
      </trkpt>
      <trkpt lat="46.285929540172219" lon="11.848089108243585">
        <ele>2317.4000000000001</ele>
        <time>2017-07-03T10:09:41Z</time>
      </trkpt>
      <trkpt lat="46.285911686718464" lon="11.848033368587494">
        <ele>2317.4000000000001</ele>
        <time>2017-07-03T10:09:53Z</time>
      </trkpt>
      <trkpt lat="46.285913027822971" lon="11.848029932007194">
        <ele>2316.9099999999999</ele>
        <time>2017-07-03T10:10:12Z</time>
      </trkpt>
      <trkpt lat="46.285897772759199" lon="11.848037727177143">
        <ele>2316.4299999999998</ele>
        <time>2017-07-03T10:10:26Z</time>
      </trkpt>
      <trkpt lat="46.285933898761868" lon="11.848081983625889">
        <ele>2316.4299999999998</ele>
        <time>2017-07-03T10:10:36Z</time>
      </trkpt>
      <trkpt lat="46.285911351442337" lon="11.84806739911437">
        <ele>2316.4299999999998</ele>
        <time>2017-07-03T10:10:48Z</time>
      </trkpt>
      <trkpt lat="46.285862736403942" lon="11.847995817661285">
        <ele>2315.4699999999998</ele>
        <time>2017-07-03T10:11:04Z</time>
      </trkpt>
      <trkpt lat="46.285842200741172" lon="11.847961703315377">
        <ele>2315.4699999999998</ele>
        <time>2017-07-03T10:11:09Z</time>
      </trkpt>
      <trkpt lat="46.285793166607618" lon="11.847908394411206">
        <ele>2314.5100000000002</ele>
        <time>2017-07-03T10:11:21Z</time>
      </trkpt>
      <trkpt lat="46.28578495234251" lon="11.847838321700692">
        <ele>2313.5500000000002</ele>
        <time>2017-07-03T10:11:34Z</time>
      </trkpt>
      <trkpt lat="46.285773972049356" lon="11.847777469083667">
        <ele>2312.5900000000001</ele>
        <time>2017-07-03T10:11:45Z</time>
      </trkpt>
      <trkpt lat="46.285723010078073" lon="11.847744612023234">
        <ele>2312.5900000000001</ele>
        <time>2017-07-03T10:11:54Z</time>
      </trkpt>
      <trkpt lat="46.285690823569894" lon="11.847705217078328">
        <ele>2314.5100000000002</ele>
        <time>2017-07-03T10:12:06Z</time>
      </trkpt>
      <trkpt lat="46.285685291513801" lon="11.847686190158129">
        <ele>2314.0300000000002</ele>
        <time>2017-07-03T10:12:14Z</time>
      </trkpt>
      <trkpt lat="46.285666767507792" lon="11.847623409703374">
        <ele>2313.5500000000002</ele>
        <time>2017-07-03T10:12:23Z</time>
      </trkpt>
      <trkpt lat="46.285635335370898" lon="11.847546547651291">
        <ele>2313.0700000000002</ele>
        <time>2017-07-03T10:12:35Z</time>
      </trkpt>
      <trkpt lat="46.285619912669063" lon="11.847540847957134">
        <ele>2313.0700000000002</ele>
        <time>2017-07-03T10:12:50Z</time>
      </trkpt>
      <trkpt lat="46.285609602928162" lon="11.847542272880673">
        <ele>2313.0700000000002</ele>
        <time>2017-07-03T10:13:01Z</time>
      </trkpt>
      <trkpt lat="46.285630976781249" lon="11.847509499639273">
        <ele>2314.5100000000002</ele>
        <time>2017-07-03T10:13:11Z</time>
      </trkpt>
      <trkpt lat="46.28563541918993" lon="11.847513103857636">
        <ele>2314.0300000000002</ele>
        <time>2017-07-03T10:13:25Z</time>
      </trkpt>
      <trkpt lat="46.285633239895105" lon="11.847567670047283">
        <ele>2312.5900000000001</ele>
        <time>2017-07-03T10:13:34Z</time>
      </trkpt>
      <trkpt lat="46.285620834678411" lon="11.847568256780505">
        <ele>2312.1100000000001</ele>
        <time>2017-07-03T10:13:44Z</time>
      </trkpt>
      <trkpt lat="46.285605495795608" lon="11.847556522116065">
        <ele>2312.1100000000001</ele>
        <time>2017-07-03T10:13:54Z</time>
      </trkpt>
      <trkpt lat="46.285572303459048" lon="11.847540177404881">
        <ele>2314.0300000000002</ele>
        <time>2017-07-03T10:14:03Z</time>
      </trkpt>
      <trkpt lat="46.285542966797948" lon="11.847512433305383">
        <ele>2315.4699999999998</ele>
        <time>2017-07-03T10:14:12Z</time>
      </trkpt>
      <trkpt lat="46.285527963191271" lon="11.847455017268658">
        <ele>2317.4000000000001</ele>
        <time>2017-07-03T10:14:20Z</time>
      </trkpt>
      <trkpt lat="46.285522095859051" lon="11.847423920407891">
        <ele>2318.3600000000001</ele>
        <time>2017-07-03T10:14:31Z</time>
      </trkpt>
      <trkpt lat="46.285544475540519" lon="11.847374634817243">
        <ele>2319.8000000000002</ele>
        <time>2017-07-03T10:14:41Z</time>
      </trkpt>
      <trkpt lat="46.285571297630668" lon="11.84735594317317">
        <ele>2319.3200000000002</ele>
        <time>2017-07-03T10:14:54Z</time>
      </trkpt>
      <trkpt lat="46.28550885245204" lon="11.847296766936779">
        <ele>2318.3600000000001</ele>
        <time>2017-07-03T10:15:04Z</time>
      </trkpt>
      <trkpt lat="46.285482449457049" lon="11.847266843542457">
        <ele>2318.8400000000001</ele>
        <time>2017-07-03T10:15:11Z</time>
      </trkpt>
      <trkpt lat="46.285454202443361" lon="11.84724991209805">
        <ele>2319.3200000000002</ele>
        <time>2017-07-03T10:15:20Z</time>
      </trkpt>
      <trkpt lat="46.285454956814647" lon="11.847262149676681">
        <ele>2319.8000000000002</ele>
        <time>2017-07-03T10:15:28Z</time>
      </trkpt>
      <trkpt lat="46.285428637638688" lon="11.847261479124427">
        <ele>2319.3200000000002</ele>
        <time>2017-07-03T10:15:45Z</time>
      </trkpt>
      <trkpt lat="46.285432409495115" lon="11.847223676741123">
        <ele>2319.3200000000002</ele>
        <time>2017-07-03T10:16:00Z</time>
      </trkpt>
      <trkpt lat="46.285419669002295" lon="11.847214037552476">
        <ele>2319.3200000000002</ele>
        <time>2017-07-03T10:16:11Z</time>
      </trkpt>
      <trkpt lat="46.285385303199291" lon="11.847204566001892">
        <ele>2317.8800000000001</ele>
        <time>2017-07-03T10:16:21Z</time>
      </trkpt>
      <trkpt lat="46.28534666262567" lon="11.847196184098721">
        <ele>2315.9499999999998</ele>
        <time>2017-07-03T10:16:32Z</time>
      </trkpt>
      <trkpt lat="46.285353703424335" lon="11.84720691293478">
        <ele>2315.9499999999998</ele>
        <time>2017-07-03T10:16:36Z</time>
      </trkpt>
      <trkpt lat="46.28536325879395" lon="11.847180258482695">
        <ele>2316.4299999999998</ele>
        <time>2017-07-03T10:16:44Z</time>
      </trkpt>
      <trkpt lat="46.285362839698792" lon="11.847163075581193">
        <ele>2316.4299999999998</ele>
        <time>2017-07-03T10:17:00Z</time>
      </trkpt>
      <trkpt lat="46.285335347056389" lon="11.847125357016921">
        <ele>2316.9099999999999</ele>
        <time>2017-07-03T10:17:09Z</time>
      </trkpt>
      <trkpt lat="46.285316655412316" lon="11.847132733091712">
        <ele>2315.9499999999998</ele>
        <time>2017-07-03T10:17:12Z</time>
      </trkpt>
      <trkpt lat="46.285273740068078" lon="11.847094260156155">
        <ele>2315.4699999999998</ele>
        <time>2017-07-03T10:17:21Z</time>
      </trkpt>
      <trkpt lat="46.285238703712821" lon="11.847080932930112">
        <ele>2315.9499999999998</ele>
        <time>2017-07-03T10:17:25Z</time>
      </trkpt>
      <trkpt lat="46.285216743126512" lon="11.847042879089713">
        <ele>2317.8800000000001</ele>
        <time>2017-07-03T10:17:34Z</time>
      </trkpt>
      <trkpt lat="46.285202326253057" lon="11.846985798329115">
        <ele>2317.8800000000001</ele>
        <time>2017-07-03T10:17:41Z</time>
      </trkpt>
      <trkpt lat="46.285217916592956" lon="11.847004657611251">
        <ele>2318.3600000000001</ele>
        <time>2017-07-03T10:17:48Z</time>
      </trkpt>
      <trkpt lat="46.285219006240368" lon="11.846969621255994">
        <ele>2318.3600000000001</ele>
        <time>2017-07-03T10:18:04Z</time>
      </trkpt>
      <trkpt lat="46.285158824175596" lon="11.846876414492726">
        <ele>2319.8000000000002</ele>
        <time>2017-07-03T10:18:15Z</time>
      </trkpt>
      <trkpt lat="46.285122195258737" lon="11.846827799454331">
        <ele>2321.2399999999998</ele>
        <time>2017-07-03T10:18:24Z</time>
      </trkpt>
      <trkpt lat="46.285108868032694" lon="11.846783375367522">
        <ele>2322.1999999999998</ele>
        <time>2017-07-03T10:18:30Z</time>
      </trkpt>
      <trkpt lat="46.285043992102146" lon="11.846729815006256">
        <ele>2324.6100000000001</ele>
        <time>2017-07-03T10:18:41Z</time>
      </trkpt>
      <trkpt lat="46.285019936040044" lon="11.846685893833637">
        <ele>2325.5700000000002</ele>
        <time>2017-07-03T10:18:49Z</time>
      </trkpt>
      <trkpt lat="46.285001747310162" lon="11.84666795656085">
        <ele>2326.5300000000002</ele>
        <time>2017-07-03T10:18:59Z</time>
      </trkpt>
      <trkpt lat="46.285003758966923" lon="11.846627974882722">
        <ele>2327.4899999999998</ele>
        <time>2017-07-03T10:19:05Z</time>
      </trkpt>
      <trkpt lat="46.284999987110496" lon="11.846581706777215">
        <ele>2328.9299999999998</ele>
        <time>2017-07-03T10:19:14Z</time>
      </trkpt>
      <trkpt lat="46.28500166349113" lon="11.846575504168868">
        <ele>2327.4899999999998</ele>
        <time>2017-07-03T10:19:20Z</time>
      </trkpt>
      <trkpt lat="46.28500510007143" lon="11.846573324874043">
        <ele>2330.3699999999999</ele>
        <time>2017-07-03T10:19:21Z</time>
      </trkpt>
      <trkpt lat="46.285009039565921" lon="11.846567038446665">
        <ele>2328.9299999999998</ele>
        <time>2017-07-03T10:19:23Z</time>
      </trkpt>
      <trkpt lat="46.28499529324472" lon="11.846567122265697">
        <ele>2330.3699999999999</ele>
        <time>2017-07-03T10:19:26Z</time>
      </trkpt>
      <trkpt lat="46.284968722611666" lon="11.846572989597917">
        <ele>2329.4099999999999</ele>
        <time>2017-07-03T10:19:41Z</time>
      </trkpt>
      <trkpt lat="46.28500702790916" lon="11.846561003476381">
        <ele>2330.3699999999999</ele>
        <time>2017-07-03T10:19:49Z</time>
      </trkpt>
      <trkpt lat="46.284994287416339" lon="11.846580700948834">
        <ele>2330.3699999999999</ele>
        <time>2017-07-03T10:20:01Z</time>
      </trkpt>
      <trkpt lat="46.28497869707644" lon="11.846605008468032">
        <ele>2330.3699999999999</ele>
        <time>2017-07-03T10:20:19Z</time>
      </trkpt>
      <trkpt lat="46.285004261881113" lon="11.846584137529135">
        <ele>2331.3299999999999</ele>
        <time>2017-07-03T10:20:34Z</time>
      </trkpt>
      <trkpt lat="46.285009207203984" lon="11.846567457541823">
        <ele>2332.3000000000002</ele>
        <time>2017-07-03T10:20:44Z</time>
      </trkpt>
      <trkpt lat="46.285008117556572" lon="11.846532672643661">
        <ele>2333.7399999999998</ele>
        <time>2017-07-03T10:20:53Z</time>
      </trkpt>
      <trkpt lat="46.284992946311831" lon="11.846571732312441">
        <ele>2333.7399999999998</ele>
        <time>2017-07-03T10:21:10Z</time>
      </trkpt>
      <trkpt lat="46.284997472539544" lon="11.846560332924128">
        <ele>2333.7399999999998</ele>
        <time>2017-07-03T10:21:26Z</time>
      </trkpt>
      <trkpt lat="46.285010213032365" lon="11.846547005698085">
        <ele>2333.7399999999998</ele>
        <time>2017-07-03T10:21:46Z</time>
      </trkpt>
      <trkpt lat="46.284997891634703" lon="11.846593022346497">
        <ele>2333.2600000000002</ele>
        <time>2017-07-03T10:22:09Z</time>
      </trkpt>
      <trkpt lat="46.285000992938876" lon="11.846619425341487">
        <ele>2333.7399999999998</ele>
        <time>2017-07-03T10:22:26Z</time>
      </trkpt>
      <trkpt lat="46.284988587722182" lon="11.846631662920117">
        <ele>2333.7399999999998</ele>
        <time>2017-07-03T10:22:42Z</time>
      </trkpt>
      <trkpt lat="46.284960508346558" lon="11.84655605815351">
        <ele>2334.6999999999998</ele>
        <time>2017-07-03T10:22:53Z</time>
      </trkpt>
      <trkpt lat="46.284952461719513" lon="11.846428737044334">
        <ele>2337.0999999999999</ele>
        <time>2017-07-03T10:23:03Z</time>
      </trkpt>
      <trkpt lat="46.284932931885123" lon="11.846396466717124">
        <ele>2338.54</ele>
        <time>2017-07-03T10:23:11Z</time>
      </trkpt>
      <trkpt lat="46.284891609102488" lon="11.846379786729813">
        <ele>2339.9899999999998</ele>
        <time>2017-07-03T10:23:21Z</time>
      </trkpt>
      <trkpt lat="46.284880796447396" lon="11.846354054287076">
        <ele>2341.4299999999998</ele>
        <time>2017-07-03T10:23:29Z</time>
      </trkpt>
      <trkpt lat="46.284882053732872" lon="11.846334272995591">
        <ele>2342.3899999999999</ele>
        <time>2017-07-03T10:23:38Z</time>
      </trkpt>
      <trkpt lat="46.284868642687798" lon="11.84632153250277">
        <ele>2343.3499999999999</ele>
        <time>2017-07-03T10:23:46Z</time>
      </trkpt>
      <trkpt lat="46.284861350432038" lon="11.84627459384501">
        <ele>2345.27</ele>
        <time>2017-07-03T10:23:54Z</time>
      </trkpt>
      <trkpt lat="46.284856824204326" lon="11.846268307417631">
        <ele>2344.79</ele>
        <time>2017-07-03T10:23:55Z</time>
      </trkpt>
      <trkpt lat="46.284813657402992" lon="11.846200497820973">
        <ele>2345.75</ele>
        <time>2017-07-03T10:24:06Z</time>
      </trkpt>
      <trkpt lat="46.284759761765599" lon="11.846173088997602">
        <ele>2346.23</ele>
        <time>2017-07-03T10:24:15Z</time>
      </trkpt>
      <trkpt lat="46.284753810614347" lon="11.846125228330493">
        <ele>2346.7199999999998</ele>
        <time>2017-07-03T10:24:23Z</time>
      </trkpt>
      <trkpt lat="46.284790271893144" lon="11.846069656312466">
        <ele>2347.6799999999998</ele>
        <time>2017-07-03T10:24:34Z</time>
      </trkpt>
      <trkpt lat="46.284776777029037" lon="11.846048701554537">
        <ele>2349.1199999999999</ele>
        <time>2017-07-03T10:24:44Z</time>
      </trkpt>
      <trkpt lat="46.284765377640724" lon="11.846065632998943">
        <ele>2349.1199999999999</ele>
        <time>2017-07-03T10:24:57Z</time>
      </trkpt>
      <trkpt lat="46.284752720966935" lon="11.846044091507792">
        <ele>2351.04</ele>
        <time>2017-07-03T10:25:06Z</time>
      </trkpt>
      <trkpt lat="46.284721121191978" lon="11.84601173736155">
        <ele>2352</ele>
        <time>2017-07-03T10:25:16Z</time>
      </trkpt>
      <trkpt lat="46.284714583307505" lon="11.845940575003624">
        <ele>2353.4400000000001</ele>
        <time>2017-07-03T10:25:26Z</time>
      </trkpt>
      <trkpt lat="46.284716008231044" lon="11.845934623852372">
        <ele>2354.8899999999999</ele>
        <time>2017-07-03T10:25:29Z</time>
      </trkpt>
      <trkpt lat="46.28470703959465" lon="11.845933869481087">
        <ele>2355.3699999999999</ele>
        <time>2017-07-03T10:25:37Z</time>
      </trkpt>
      <trkpt lat="46.284675188362598" lon="11.845928588882089">
        <ele>2356.8099999999999</ele>
        <time>2017-07-03T10:25:47Z</time>
      </trkpt>
      <trkpt lat="46.284667896106839" lon="11.845927583053708">
        <ele>2357.77</ele>
        <time>2017-07-03T10:25:57Z</time>
      </trkpt>
      <trkpt lat="46.284623220562935" lon="11.845891624689102">
        <ele>2357.29</ele>
        <time>2017-07-03T10:26:04Z</time>
      </trkpt>
      <trkpt lat="46.284619364887476" lon="11.845877375453711">
        <ele>2357.29</ele>
        <time>2017-07-03T10:26:05Z</time>
      </trkpt>
      <trkpt lat="46.284572593867779" lon="11.845814678817987">
        <ele>2357.29</ele>
        <time>2017-07-03T10:26:13Z</time>
      </trkpt>
      <trkpt lat="46.284522553905845" lon="11.845765141770244">
        <ele>2358.73</ele>
        <time>2017-07-03T10:26:24Z</time>
      </trkpt>
      <trkpt lat="46.284521799534559" lon="11.845757598057389">
        <ele>2358.73</ele>
        <time>2017-07-03T10:26:28Z</time>
      </trkpt>
      <trkpt lat="46.284508388489485" lon="11.84573270380497">
        <ele>2360.1700000000001</ele>
        <time>2017-07-03T10:26:36Z</time>
      </trkpt>
      <trkpt lat="46.284501180052757" lon="11.845730440691113">
        <ele>2359.6900000000001</ele>
        <time>2017-07-03T10:26:37Z</time>
      </trkpt>
      <trkpt lat="46.284422306343913" lon="11.845692219212651">
        <ele>2361.6199999999999</ele>
        <time>2017-07-03T10:26:47Z</time>
      </trkpt>
      <trkpt lat="46.284393724054098" lon="11.845662714913487">
        <ele>2362.5799999999999</ele>
        <time>2017-07-03T10:26:55Z</time>
      </trkpt>
      <trkpt lat="46.284385845065117" lon="11.845633294433355">
        <ele>2364.5</ele>
        <time>2017-07-03T10:27:05Z</time>
      </trkpt>
      <trkpt lat="46.284378301352262" lon="11.845636060461402">
        <ele>2364.98</ele>
        <time>2017-07-03T10:27:07Z</time>
      </trkpt>
      <trkpt lat="46.28435667604208" lon="11.845593648031354">
        <ele>2365.9400000000001</ele>
        <time>2017-07-03T10:27:11Z</time>
      </trkpt>
      <trkpt lat="46.284329853951931" lon="11.845588535070419">
        <ele>2365.9400000000001</ele>
        <time>2017-07-03T10:27:20Z</time>
      </trkpt>
      <trkpt lat="46.28425944596529" lon="11.845520976930857">
        <ele>2366.9000000000001</ele>
        <time>2017-07-03T10:27:40Z</time>
      </trkpt>
      <trkpt lat="46.284229187294841" lon="11.845516618341208">
        <ele>2367.8600000000001</ele>
        <time>2017-07-03T10:27:50Z</time>
      </trkpt>
      <trkpt lat="46.284268917515874" lon="11.845495663583279">
        <ele>2370.27</ele>
        <time>2017-07-03T10:27:59Z</time>
      </trkpt>
      <trkpt lat="46.284333122894168" lon="11.845431374385953">
        <ele>2372.1900000000001</ele>
        <time>2017-07-03T10:28:10Z</time>
      </trkpt>
      <trkpt lat="46.284336391836405" lon="11.845392482355237">
        <ele>2373.6300000000001</ele>
        <time>2017-07-03T10:28:21Z</time>
      </trkpt>
      <trkpt lat="46.284331949427724" lon="11.845381753519177">
        <ele>2373.6300000000001</ele>
        <time>2017-07-03T10:28:32Z</time>
      </trkpt>
      <trkpt lat="46.284349383786321" lon="11.845387620851398">
        <ele>2374.5900000000001</ele>
        <time>2017-07-03T10:28:44Z</time>
      </trkpt>
      <trkpt lat="46.284392466768622" lon="11.845377730205655">
        <ele>2376.52</ele>
        <time>2017-07-03T10:28:54Z</time>
      </trkpt>
      <trkpt lat="46.284407386556268" lon="11.845358116552234">
        <ele>2377.96</ele>
        <time>2017-07-03T10:29:04Z</time>
      </trkpt>
      <trkpt lat="46.284424569457769" lon="11.845338754355907">
        <ele>2378.9200000000001</ele>
        <time>2017-07-03T10:29:12Z</time>
      </trkpt>
      <trkpt lat="46.284462539479136" lon="11.84534571133554">
        <ele>2379.8800000000001</ele>
        <time>2017-07-03T10:29:21Z</time>
      </trkpt>
      <trkpt lat="46.284488607198" lon="11.845326265320182">
        <ele>2380.8400000000001</ele>
        <time>2017-07-03T10:29:30Z</time>
      </trkpt>
      <trkpt lat="46.284476704895496" lon="11.845313524827361">
        <ele>2381.8000000000002</ele>
        <time>2017-07-03T10:29:40Z</time>
      </trkpt>
      <trkpt lat="46.284494390711188" lon="11.845293575897813">
        <ele>2382.7600000000002</ele>
        <time>2017-07-03T10:29:49Z</time>
      </trkpt>
      <trkpt lat="46.284507550299168" lon="11.845286451280117">
        <ele>2383.25</ele>
        <time>2017-07-03T10:29:59Z</time>
      </trkpt>
      <trkpt lat="46.284532276913524" lon="11.845282260328531">
        <ele>2385.1700000000001</ele>
        <time>2017-07-03T10:30:11Z</time>
      </trkpt>
      <trkpt lat="46.284558260813355" lon="11.845286199823022">
        <ele>2386.6100000000001</ele>
        <time>2017-07-03T10:30:21Z</time>
      </trkpt>
      <trkpt lat="46.284591872245073" lon="11.845271531492472">
        <ele>2387.0900000000001</ele>
        <time>2017-07-03T10:30:30Z</time>
      </trkpt>
      <trkpt lat="46.284605786204338" lon="11.845256360247731">
        <ele>2388.0500000000002</ele>
        <time>2017-07-03T10:30:41Z</time>
      </trkpt>
      <trkpt lat="46.284598745405674" lon="11.845259293913841">
        <ele>2388.5300000000002</ele>
        <time>2017-07-03T10:30:49Z</time>
      </trkpt>
      <trkpt lat="46.284590447321534" lon="11.845241272822022">
        <ele>2388.5300000000002</ele>
        <time>2017-07-03T10:31:00Z</time>
      </trkpt>
      <trkpt lat="46.284576365724206" lon="11.845242194831371">
        <ele>2389.9699999999998</ele>
        <time>2017-07-03T10:31:09Z</time>
      </trkpt>
      <trkpt lat="46.284575527533889" lon="11.845261557027698">
        <ele>2389.4899999999998</ele>
        <time>2017-07-03T10:31:21Z</time>
      </trkpt>
      <trkpt lat="46.284557254984975" lon="11.845233980566263">
        <ele>2390.46</ele>
        <time>2017-07-03T10:31:30Z</time>
      </trkpt>
      <trkpt lat="46.284533701837063" lon="11.84519961476326">
        <ele>2391.4200000000001</ele>
        <time>2017-07-03T10:31:42Z</time>
      </trkpt>
      <trkpt lat="46.28452523611486" lon="11.845207074657083">
        <ele>2391.4200000000001</ele>
        <time>2017-07-03T10:31:43Z</time>
      </trkpt>
      <trkpt lat="46.28450520336628" lon="11.845196345821023">
        <ele>2391.9000000000001</ele>
        <time>2017-07-03T10:31:46Z</time>
      </trkpt>
      <trkpt lat="46.284456253051758" lon="11.845208248123527">
        <ele>2391.9000000000001</ele>
        <time>2017-07-03T10:31:56Z</time>
      </trkpt>
      <trkpt lat="46.284427838400006" lon="11.84521914459765">
        <ele>2392.3800000000001</ele>
        <time>2017-07-03T10:32:06Z</time>
      </trkpt>
      <trkpt lat="46.284392550587654" lon="11.845184192061424">
        <ele>2391.9000000000001</ele>
        <time>2017-07-03T10:32:16Z</time>
      </trkpt>
      <trkpt lat="46.284362291917205" lon="11.845198357477784">
        <ele>2392.3800000000001</ele>
        <time>2017-07-03T10:32:26Z</time>
      </trkpt>
      <trkpt lat="46.284328093752265" lon="11.845196262001991">
        <ele>2392.3800000000001</ele>
        <time>2017-07-03T10:32:32Z</time>
      </trkpt>
      <trkpt lat="46.284279813989997" lon="11.845215959474444">
        <ele>2391.4200000000001</ele>
        <time>2017-07-03T10:32:43Z</time>
      </trkpt>
      <trkpt lat="46.284237150102854" lon="11.845244625583291">
        <ele>2390.46</ele>
        <time>2017-07-03T10:32:53Z</time>
      </trkpt>
      <trkpt lat="46.284208651632071" lon="11.845200704410672">
        <ele>2390.46</ele>
        <time>2017-07-03T10:33:02Z</time>
      </trkpt>
      <trkpt lat="46.284184930846095" lon="11.845164494588971">
        <ele>2391.4200000000001</ele>
        <time>2017-07-03T10:33:09Z</time>
      </trkpt>
      <trkpt lat="46.284149475395679" lon="11.84515368193388">
        <ele>2391.4200000000001</ele>
        <time>2017-07-03T10:33:16Z</time>
      </trkpt>
      <trkpt lat="46.284139500930905" lon="11.845143372192979">
        <ele>2391.4200000000001</ele>
        <time>2017-07-03T10:33:24Z</time>
      </trkpt>
      <trkpt lat="46.284105135127902" lon="11.845082519575953">
        <ele>2391.9000000000001</ele>
        <time>2017-07-03T10:33:34Z</time>
      </trkpt>
      <trkpt lat="46.284089209511876" lon="11.845100456848741">
        <ele>2390.9400000000001</ele>
        <time>2017-07-03T10:33:43Z</time>
      </trkpt>
      <trkpt lat="46.284063393250108" lon="11.845064917579293">
        <ele>2389.9699999999998</ele>
        <time>2017-07-03T10:33:51Z</time>
      </trkpt>
      <trkpt lat="46.28404394723475" lon="11.845076149329543">
        <ele>2389.4899999999998</ele>
        <time>2017-07-03T10:34:00Z</time>
      </trkpt>
      <trkpt lat="46.284039588645101" lon="11.84503298252821">
        <ele>2389.9699999999998</ele>
        <time>2017-07-03T10:34:16Z</time>
      </trkpt>
      <trkpt lat="46.284017125144601" lon="11.845040107145905">
        <ele>2389.9699999999998</ele>
        <time>2017-07-03T10:34:25Z</time>
      </trkpt>
      <trkpt lat="46.284036654978991" lon="11.845053769648075">
        <ele>2390.46</ele>
        <time>2017-07-03T10:34:41Z</time>
      </trkpt>
      <trkpt lat="46.284028105437756" lon="11.845034239813685">
        <ele>2389.9699999999998</ele>
        <time>2017-07-03T10:34:51Z</time>
      </trkpt>
      <trkpt lat="46.284023746848106" lon="11.845013620331883">
        <ele>2389.9699999999998</ele>
        <time>2017-07-03T10:35:06Z</time>
      </trkpt>
      <trkpt lat="46.284034727141261" lon="11.844982942566276">
        <ele>2389.9699999999998</ele>
        <time>2017-07-03T10:35:19Z</time>
      </trkpt>
      <trkpt lat="46.28405375406146" lon="11.845017308369279">
        <ele>2389.4899999999998</ele>
        <time>2017-07-03T10:35:32Z</time>
      </trkpt>
      <trkpt lat="46.284047970548272" lon="11.845014123246074">
        <ele>2390.9400000000001</ele>
        <time>2017-07-03T10:35:35Z</time>
      </trkpt>
      <trkpt lat="46.284033134579659" lon="11.845063995569944">
        <ele>2389.9699999999998</ele>
        <time>2017-07-03T10:35:51Z</time>
      </trkpt>
      <trkpt lat="46.283989297226071" lon="11.845110347494483">
        <ele>2389.4899999999998</ele>
        <time>2017-07-03T10:36:05Z</time>
      </trkpt>
      <trkpt lat="46.283982424065471" lon="11.845101043581963">
        <ele>2389.4899999999998</ele>
        <time>2017-07-03T10:36:09Z</time>
      </trkpt>
      <trkpt lat="46.283973539248109" lon="11.845093667507172">
        <ele>2389.4899999999998</ele>
        <time>2017-07-03T10:36:10Z</time>
      </trkpt>
      <trkpt lat="46.283996170386672" lon="11.845042034983635">
        <ele>2389.0100000000002</ele>
        <time>2017-07-03T10:36:22Z</time>
      </trkpt>
      <trkpt lat="46.284002289175987" lon="11.845025438815355">
        <ele>2388.0500000000002</ele>
        <time>2017-07-03T10:36:36Z</time>
      </trkpt>
      <trkpt lat="46.283967755734921" lon="11.845045052468777">
        <ele>2388.0500000000002</ele>
        <time>2017-07-03T10:36:51Z</time>
      </trkpt>
      <trkpt lat="46.284023998305202" lon="11.845022169873118">
        <ele>2388.0500000000002</ele>
        <time>2017-07-03T10:37:10Z</time>
      </trkpt>
      <trkpt lat="46.284033972769976" lon="11.845003478229046">
        <ele>2387.0900000000001</ele>
        <time>2017-07-03T10:37:25Z</time>
      </trkpt>
      <trkpt lat="46.284059705212712" lon="11.84496458619833">
        <ele>2386.6100000000001</ele>
        <time>2017-07-03T10:37:44Z</time>
      </trkpt>
      <trkpt lat="46.284056352451444" lon="11.844953438267112">
        <ele>2386.6100000000001</ele>
        <time>2017-07-03T10:37:56Z</time>
      </trkpt>
      <trkpt lat="46.284056939184666" lon="11.844960143789649">
        <ele>2386.6100000000001</ele>
        <time>2017-07-03T10:38:15Z</time>
      </trkpt>
      <trkpt lat="46.284130783751607" lon="11.8449851218611">
        <ele>2385.6500000000001</ele>
        <time>2017-07-03T10:38:28Z</time>
      </trkpt>
      <trkpt lat="46.284115528687835" lon="11.844977745786309">
        <ele>2385.6500000000001</ele>
        <time>2017-07-03T10:38:42Z</time>
      </trkpt>
      <trkpt lat="46.284112008288503" lon="11.844976739957929">
        <ele>2385.1700000000001</ele>
        <time>2017-07-03T10:38:57Z</time>
      </trkpt>
      <trkpt lat="46.284110751003027" lon="11.844950588420033">
        <ele>2385.6500000000001</ele>
        <time>2017-07-03T10:39:12Z</time>
      </trkpt>
      <trkpt lat="46.284093651920557" lon="11.844935920089483">
        <ele>2385.6500000000001</ele>
        <time>2017-07-03T10:39:20Z</time>
      </trkpt>
      <trkpt lat="46.284105135127902" lon="11.844919072464108">
        <ele>2385.6500000000001</ele>
        <time>2017-07-03T10:39:27Z</time>
      </trkpt>
      <trkpt lat="46.284061213955283" lon="11.844982104375958">
        <ele>2386.1300000000001</ele>
        <time>2017-07-03T10:39:34Z</time>
      </trkpt>
      <trkpt lat="46.284001870080829" lon="11.845006411895156">
        <ele>2385.6500000000001</ele>
        <time>2017-07-03T10:39:48Z</time>
      </trkpt>
      <trkpt lat="46.283959960564971" lon="11.845002304762602">
        <ele>2385.1700000000001</ele>
        <time>2017-07-03T10:39:57Z</time>
      </trkpt>
      <trkpt lat="46.283962223678827" lon="11.844985205680132">
        <ele>2385.1700000000001</ele>
        <time>2017-07-03T10:40:05Z</time>
      </trkpt>
      <trkpt lat="46.283943699672818" lon="11.844968525692821">
        <ele>2386.1300000000001</ele>
        <time>2017-07-03T10:40:16Z</time>
      </trkpt>
      <trkpt lat="46.283927438780665" lon="11.844978500157595">
        <ele>2387.0900000000001</ele>
        <time>2017-07-03T10:40:25Z</time>
      </trkpt>
      <trkpt lat="46.283893324434757" lon="11.844988474622369">
        <ele>2387.5700000000002</ele>
        <time>2017-07-03T10:40:37Z</time>
      </trkpt>
      <trkpt lat="46.283911177888513" lon="11.84494991786778">
        <ele>2388.0500000000002</ele>
        <time>2017-07-03T10:40:47Z</time>
      </trkpt>
      <trkpt lat="46.283882595598698" lon="11.84495335444808">
        <ele>2388.0500000000002</ele>
        <time>2017-07-03T10:41:04Z</time>
      </trkpt>
      <trkpt lat="46.283883349969983" lon="11.844966011121869">
        <ele>2388.5300000000002</ele>
        <time>2017-07-03T10:41:12Z</time>
      </trkpt>
      <trkpt lat="46.283888714388013" lon="11.844958048313856">
        <ele>2389.4899999999998</ele>
        <time>2017-07-03T10:41:24Z</time>
      </trkpt>
      <trkpt lat="46.283877734094858" lon="11.844926532357931">
        <ele>2389.4899999999998</ele>
        <time>2017-07-03T10:41:34Z</time>
      </trkpt>
      <trkpt lat="46.283864658325911" lon="11.844967100769281">
        <ele>2389.9699999999998</ele>
        <time>2017-07-03T10:41:45Z</time>
      </trkpt>
      <trkpt lat="46.283855605870485" lon="11.844969782978296">
        <ele>2389.9699999999998</ele>
        <time>2017-07-03T10:41:47Z</time>
      </trkpt>
      <trkpt lat="46.28382065333426" lon="11.844943296164274">
        <ele>2390.46</ele>
        <time>2017-07-03T10:41:52Z</time>
      </trkpt>
      <trkpt lat="46.28380891866982" lon="11.844917228445411">
        <ele>2389.4899999999998</ele>
        <time>2017-07-03T10:42:03Z</time>
      </trkpt>
      <trkpt lat="46.283820066601038" lon="11.844905074685812">
        <ele>2389.4899999999998</ele>
        <time>2017-07-03T10:42:17Z</time>
      </trkpt>
      <trkpt lat="46.283878153190017" lon="11.844900799915195">
        <ele>2388.5300000000002</ele>
        <time>2017-07-03T10:42:26Z</time>
      </trkpt>
      <trkpt lat="46.283865831792355" lon="11.844899710267782">
        <ele>2387.5700000000002</ele>
        <time>2017-07-03T10:42:37Z</time>
      </trkpt>
      <trkpt lat="46.283836411312222" lon="11.844930974766612">
        <ele>2387.5700000000002</ele>
        <time>2017-07-03T10:42:49Z</time>
      </trkpt>
      <trkpt lat="46.283850660547614" lon="11.844905996695161">
        <ele>2387.5700000000002</ele>
        <time>2017-07-03T10:43:01Z</time>
      </trkpt>
      <trkpt lat="46.283867591992021" lon="11.84489375911653">
        <ele>2387.0900000000001</ele>
        <time>2017-07-03T10:43:11Z</time>
      </trkpt>
      <trkpt lat="46.28385879099369" lon="11.8448815215379">
        <ele>2387.0900000000001</ele>
        <time>2017-07-03T10:43:22Z</time>
      </trkpt>
      <trkpt lat="46.283840937539935" lon="11.844914462417364">
        <ele>2386.6100000000001</ele>
        <time>2017-07-03T10:43:34Z</time>
      </trkpt>
      <trkpt lat="46.283824928104877" lon="11.84492208994925">
        <ele>2385.6500000000001</ele>
        <time>2017-07-03T10:43:43Z</time>
      </trkpt>
      <trkpt lat="46.283809002488852" lon="11.844932902604342">
        <ele>2384.6900000000001</ele>
        <time>2017-07-03T10:43:54Z</time>
      </trkpt>
      <trkpt lat="46.283804727718234" lon="11.844972129911184">
        <ele>2383.73</ele>
        <time>2017-07-03T10:44:03Z</time>
      </trkpt>
      <trkpt lat="46.283782096579671" lon="11.844972465187311">
        <ele>2383.25</ele>
        <time>2017-07-03T10:44:12Z</time>
      </trkpt>
      <trkpt lat="46.283780923113227" lon="11.844964418560266">
        <ele>2382.7600000000002</ele>
        <time>2017-07-03T10:44:22Z</time>
      </trkpt>
      <trkpt lat="46.28378938883543" lon="11.84498461894691">
        <ele>2382.7600000000002</ele>
        <time>2017-07-03T10:44:37Z</time>
      </trkpt>
      <trkpt lat="46.283776145428419" lon="11.844992078840733">
        <ele>2384.21</ele>
        <time>2017-07-03T10:44:50Z</time>
      </trkpt>
      <trkpt lat="46.283775977790356" lon="11.845005992799997">
        <ele>2382.7600000000002</ele>
        <time>2017-07-03T10:45:00Z</time>
      </trkpt>
      <trkpt lat="46.283773547038436" lon="11.845006747171283">
        <ele>2386.6100000000001</ele>
        <time>2017-07-03T10:45:01Z</time>
      </trkpt>
      <trkpt lat="46.283777402713895" lon="11.845006747171283">
        <ele>2385.1700000000001</ele>
        <time>2017-07-03T10:45:02Z</time>
      </trkpt>
      <trkpt lat="46.283799698576331" lon="11.844990234822035">
        <ele>2384.21</ele>
        <time>2017-07-03T10:45:19Z</time>
      </trkpt>
      <trkpt lat="46.283801794052124" lon="11.845000712200999">
        <ele>2384.6900000000001</ele>
        <time>2017-07-03T10:45:33Z</time>
      </trkpt>
      <trkpt lat="46.283845296129584" lon="11.844998952001333">
        <ele>2383.73</ele>
        <time>2017-07-03T10:45:44Z</time>
      </trkpt>
      <trkpt lat="46.283808834850788" lon="11.845038682222366">
        <ele>2384.6900000000001</ele>
        <time>2017-07-03T10:45:58Z</time>
      </trkpt>
      <trkpt lat="46.283808331936598" lon="11.845057373866439">
        <ele>2385.6500000000001</ele>
        <time>2017-07-03T10:46:08Z</time>
      </trkpt>
      <trkpt lat="46.283797267824411" lon="11.845072628930211">
        <ele>2386.1300000000001</ele>
        <time>2017-07-03T10:46:18Z</time>
      </trkpt>
      <trkpt lat="46.28378838300705" lon="11.845050416886806">
        <ele>2387.0900000000001</ele>
        <time>2017-07-03T10:46:31Z</time>
      </trkpt>
      <trkpt lat="46.283754352480173" lon="11.845066007226706">
        <ele>2388.0500000000002</ele>
        <time>2017-07-03T10:46:45Z</time>
      </trkpt>
      <trkpt lat="46.283732559531927" lon="11.845098780468106">
        <ele>2388.5300000000002</ele>
        <time>2017-07-03T10:46:57Z</time>
      </trkpt>
      <trkpt lat="46.283746641129255" lon="11.845055446028709">
        <ele>2388.0500000000002</ele>
        <time>2017-07-03T10:47:07Z</time>
      </trkpt>
      <trkpt lat="46.283723507076502" lon="11.84510238468647">
        <ele>2388.0500000000002</ele>
        <time>2017-07-03T10:47:17Z</time>
      </trkpt>
      <trkpt lat="46.283735074102879" lon="11.845114789903164">
        <ele>2387.5700000000002</ele>
        <time>2017-07-03T10:47:34Z</time>
      </trkpt>
      <trkpt lat="46.283739265054464" lon="11.845128620043397">
        <ele>2387.0900000000001</ele>
        <time>2017-07-03T10:47:53Z</time>
      </trkpt>
      <trkpt lat="46.28374001942575" lon="11.845138845965266">
        <ele>2387.0900000000001</ele>
        <time>2017-07-03T10:48:00Z</time>
      </trkpt>
      <trkpt lat="46.283675814047456" lon="11.845174469053745">
        <ele>2385.1700000000001</ele>
        <time>2017-07-03T10:48:10Z</time>
      </trkpt>
      <trkpt lat="46.28363398835063" lon="11.845219396054745">
        <ele>2383.73</ele>
        <time>2017-07-03T10:48:18Z</time>
      </trkpt>
      <trkpt lat="46.283615380525589" lon="11.845227526500821">
        <ele>2383.25</ele>
        <time>2017-07-03T10:48:29Z</time>
      </trkpt>
      <trkpt lat="46.283615967258811" lon="11.845264406874776">
        <ele>2382.7600000000002</ele>
        <time>2017-07-03T10:48:47Z</time>
      </trkpt>
      <trkpt lat="46.28361445851624" lon="11.845270525664091">
        <ele>2382.7600000000002</ele>
        <time>2017-07-03T10:49:00Z</time>
      </trkpt>
      <trkpt lat="46.283539943397045" lon="11.845335904508829">
        <ele>2382.2800000000002</ele>
        <time>2017-07-03T10:49:11Z</time>
      </trkpt>
      <trkpt lat="46.283499207347631" lon="11.845345124602318">
        <ele>2383.73</ele>
        <time>2017-07-03T10:49:20Z</time>
      </trkpt>
      <trkpt lat="46.283448496833444" lon="11.845383262261748">
        <ele>2384.21</ele>
        <time>2017-07-03T10:49:30Z</time>
      </trkpt>
      <trkpt lat="46.283415723592043" lon="11.845373455435038">
        <ele>2384.21</ele>
        <time>2017-07-03T10:49:37Z</time>
      </trkpt>
      <trkpt lat="46.283395020291209" lon="11.845386447384953">
        <ele>2385.6500000000001</ele>
        <time>2017-07-03T10:49:43Z</time>
      </trkpt>
      <trkpt lat="46.28335939720273" lon="11.845392733812332">
        <ele>2385.6500000000001</ele>
        <time>2017-07-03T10:49:52Z</time>
      </trkpt>
      <trkpt lat="46.283328216522932" lon="11.84540924616158">
        <ele>2385.6500000000001</ele>
        <time>2017-07-03T10:50:00Z</time>
      </trkpt>
      <trkpt lat="46.283326204866171" lon="11.845424165949225">
        <ele>2386.6100000000001</ele>
        <time>2017-07-03T10:50:09Z</time>
      </trkpt>
      <trkpt lat="46.2832987960428" lon="11.845447802916169">
        <ele>2387.0900000000001</ele>
        <time>2017-07-03T10:50:19Z</time>
      </trkpt>
      <trkpt lat="46.28326753154397" lon="11.845448473468423">
        <ele>2388.0500000000002</ele>
        <time>2017-07-03T10:50:28Z</time>
      </trkpt>
      <trkpt lat="46.283226627856493" lon="11.845479905605316">
        <ele>2388.0500000000002</ele>
        <time>2017-07-03T10:50:41Z</time>
      </trkpt>
      <trkpt lat="46.283171894028783" lon="11.845518881455064">
        <ele>2388.5300000000002</ele>
        <time>2017-07-03T10:50:50Z</time>
      </trkpt>
      <trkpt lat="46.283131325617433" lon="11.845541261136532">
        <ele>2389.9699999999998</ele>
        <time>2017-07-03T10:50:59Z</time>
      </trkpt>
      <trkpt lat="46.28310726955533" lon="11.845551738515496">
        <ele>2389.4899999999998</ele>
        <time>2017-07-03T10:51:07Z</time>
      </trkpt>
      <trkpt lat="46.283070808276534" lon="11.845561796799302">
        <ele>2390.46</ele>
        <time>2017-07-03T10:51:16Z</time>
      </trkpt>
      <trkpt lat="46.283006519079208" lon="11.845607310533524">
        <ele>2390.46</ele>
        <time>2017-07-03T10:51:26Z</time>
      </trkpt>
      <trkpt lat="46.282976595684886" lon="11.845641089603305">
        <ele>2389.9699999999998</ele>
        <time>2017-07-03T10:51:37Z</time>
      </trkpt>
      <trkpt lat="46.282929908484221" lon="11.845673527568579">
        <ele>2390.46</ele>
        <time>2017-07-03T10:51:46Z</time>
      </trkpt>
      <trkpt lat="46.282896045595407" lon="11.845701523125172">
        <ele>2389.4899999999998</ele>
        <time>2017-07-03T10:51:57Z</time>
      </trkpt>
      <trkpt lat="46.282892525196075" lon="11.845704792067409">
        <ele>2389.9699999999998</ele>
        <time>2017-07-03T10:51:58Z</time>
      </trkpt>
      <trkpt lat="46.282834438607097" lon="11.845733793452382">
        <ele>2389.4899999999998</ele>
        <time>2017-07-03T10:52:10Z</time>
      </trkpt>
      <trkpt lat="46.282813902944326" lon="11.845728093758225">
        <ele>2389.4899999999998</ele>
        <time>2017-07-03T10:52:13Z</time>
      </trkpt>
      <trkpt lat="46.282717427238822" lon="11.845758771523833">
        <ele>2388.5300000000002</ele>
        <time>2017-07-03T10:52:25Z</time>
      </trkpt>
      <trkpt lat="46.282636290416121" lon="11.845777546986938">
        <ele>2389.0100000000002</ele>
        <time>2017-07-03T10:52:35Z</time>
      </trkpt>
      <trkpt lat="46.282575437799096" lon="11.845772601664066">
        <ele>2389.0100000000002</ele>
        <time>2017-07-03T10:52:46Z</time>
      </trkpt>
      <trkpt lat="46.2825424131006" lon="11.845809398218989">
        <ele>2389.0100000000002</ele>
        <time>2017-07-03T10:52:56Z</time>
      </trkpt>
      <trkpt lat="46.282498491927981" lon="11.845844183117151">
        <ele>2389.0100000000002</ele>
        <time>2017-07-03T10:53:04Z</time>
      </trkpt>
      <trkpt lat="46.282461611554027" lon="11.845892714336514">
        <ele>2388.5300000000002</ele>
        <time>2017-07-03T10:53:13Z</time>
      </trkpt>
      <trkpt lat="46.282425820827484" lon="11.845963876694441">
        <ele>2388.0500000000002</ele>
        <time>2017-07-03T10:53:23Z</time>
      </trkpt>
      <trkpt lat="46.282402100041509" lon="11.845999415963888">
        <ele>2389.0100000000002</ele>
        <time>2017-07-03T10:53:33Z</time>
      </trkpt>
      <trkpt lat="46.282372260466218" lon="11.845995560288429">
        <ele>2390.9400000000001</ele>
        <time>2017-07-03T10:53:44Z</time>
      </trkpt>
      <trkpt lat="46.282361783087254" lon="11.846044426783919">
        <ele>2390.9400000000001</ele>
        <time>2017-07-03T10:53:55Z</time>
      </trkpt>
      <trkpt lat="46.282330267131329" lon="11.846079882234335">
        <ele>2391.9000000000001</ele>
        <time>2017-07-03T10:54:02Z</time>
      </trkpt>
      <trkpt lat="46.282273102551699" lon="11.846093880012631">
        <ele>2393.3400000000001</ele>
        <time>2017-07-03T10:54:13Z</time>
      </trkpt>
      <trkpt lat="46.2822609487921" lon="11.846091700717807">
        <ele>2393.3400000000001</ele>
        <time>2017-07-03T10:54:24Z</time>
      </trkpt>
      <trkpt lat="46.282270671799779" lon="11.846109554171562">
        <ele>2393.3400000000001</ele>
        <time>2017-07-03T10:54:38Z</time>
      </trkpt>
      <trkpt lat="46.282267654314637" lon="11.846086336299777">
        <ele>2392.3800000000001</ele>
        <time>2017-07-03T10:54:41Z</time>
      </trkpt>
      <trkpt lat="46.282263211905956" lon="11.846041660755873">
        <ele>2393.3400000000001</ele>
        <time>2017-07-03T10:54:56Z</time>
      </trkpt>
      <trkpt lat="46.282244436442852" lon="11.846044845879078">
        <ele>2393.8200000000002</ele>
        <time>2017-07-03T10:55:06Z</time>
      </trkpt>
      <trkpt lat="46.282231947407126" lon="11.846050713211298">
        <ele>2394.7800000000002</ele>
        <time>2017-07-03T10:55:14Z</time>
      </trkpt>
      <trkpt lat="46.28224728628993" lon="11.846014419570565">
        <ele>2393.8200000000002</ele>
        <time>2017-07-03T10:55:26Z</time>
      </trkpt>
      <trkpt lat="46.282243682071567" lon="11.846015341579914">
        <ele>2393.8200000000002</ele>
        <time>2017-07-03T10:55:40Z</time>
      </trkpt>
      <trkpt lat="46.282227840274572" lon="11.846016682684422">
        <ele>2393.8200000000002</ele>
        <time>2017-07-03T10:56:03Z</time>
      </trkpt>
      <trkpt lat="46.28222138620913" lon="11.846018275246024">
        <ele>2393.8200000000002</ele>
        <time>2017-07-03T10:56:18Z</time>
      </trkpt>
      <trkpt lat="46.282221470028162" lon="11.846046689897776">
        <ele>2393.8200000000002</ele>
        <time>2017-07-03T10:56:43Z</time>
      </trkpt>
      <trkpt lat="46.282245693728328" lon="11.846028920263052">
        <ele>2393.3400000000001</ele>
        <time>2017-07-03T10:56:55Z</time>
      </trkpt>
      <trkpt lat="46.282214764505625" lon="11.846031351014972">
        <ele>2393.8200000000002</ele>
        <time>2017-07-03T10:57:18Z</time>
      </trkpt>
      <trkpt lat="46.282225828617811" lon="11.846040235832334">
        <ele>2393.3400000000001</ele>
        <time>2017-07-03T10:57:31Z</time>
      </trkpt>
      <trkpt lat="46.282216692343354" lon="11.846061693504453">
        <ele>2392.8600000000001</ele>
        <time>2017-07-03T10:57:50Z</time>
      </trkpt>
      <trkpt lat="46.282228007912636" lon="11.846047108992934">
        <ele>2392.8600000000001</ele>
        <time>2017-07-03T10:58:08Z</time>
      </trkpt>
      <trkpt lat="46.282205963507295" lon="11.846038727089763">
        <ele>2392.8600000000001</ele>
        <time>2017-07-03T10:58:36Z</time>
      </trkpt>
      <trkpt lat="46.282231360673904" lon="11.846045013517141">
        <ele>2392.8600000000001</ele>
        <time>2017-07-03T10:58:50Z</time>
      </trkpt>
      <trkpt lat="46.282240077853203" lon="11.846021292731166">
        <ele>2392.8600000000001</ele>
        <time>2017-07-03T10:59:03Z</time>
      </trkpt>
      <trkpt lat="46.28227855078876" lon="11.846055071800947">
        <ele>2392.8600000000001</ele>
        <time>2017-07-03T10:59:15Z</time>
      </trkpt>
      <trkpt lat="46.282243682071567" lon="11.846044342964888">
        <ele>2392.8600000000001</ele>
        <time>2017-07-03T10:59:31Z</time>
      </trkpt>
      <trkpt lat="46.282227337360382" lon="11.846023052930832">
        <ele>2392.8600000000001</ele>
        <time>2017-07-03T10:59:58Z</time>
      </trkpt>
      <trkpt lat="46.282222224399447" lon="11.846036463975906">
        <ele>2392.3800000000001</ele>
        <time>2017-07-03T11:00:18Z</time>
      </trkpt>
      <trkpt lat="46.282238904386759" lon="11.846020203083754">
        <ele>2392.8600000000001</ele>
        <time>2017-07-03T11:00:38Z</time>
      </trkpt>
      <trkpt lat="46.282239910215139" lon="11.846024226397276">
        <ele>2392.8600000000001</ele>
        <time>2017-07-03T11:00:57Z</time>
      </trkpt>
      <trkpt lat="46.282235635444522" lon="11.846022633835673">
        <ele>2392.8600000000001</ele>
        <time>2017-07-03T11:01:21Z</time>
      </trkpt>
      <trkpt lat="46.282216608524323" lon="11.846023388206959">
        <ele>2392.8600000000001</ele>
        <time>2017-07-03T11:01:49Z</time>
      </trkpt>
      <trkpt lat="46.282217362895608" lon="11.846014922484756">
        <ele>2392.8600000000001</ele>
        <time>2017-07-03T11:02:10Z</time>
      </trkpt>
      <trkpt lat="46.282230103388429" lon="11.8460160959512">
        <ele>2392.8600000000001</ele>
        <time>2017-07-03T11:02:38Z</time>
      </trkpt>
      <trkpt lat="46.282255668193102" lon="11.846050880849361">
        <ele>2392.8600000000001</ele>
        <time>2017-07-03T11:02:56Z</time>
      </trkpt>
      <trkpt lat="46.282259691506624" lon="11.846020789816976">
        <ele>2393.3400000000001</ele>
        <time>2017-07-03T11:03:16Z</time>
      </trkpt>
      <trkpt lat="46.282234713435173" lon="11.846023555845022">
        <ele>2392.8600000000001</ele>
        <time>2017-07-03T11:03:42Z</time>
      </trkpt>
      <trkpt lat="46.282196156680584" lon="11.846013832837343">
        <ele>2392.8600000000001</ele>
        <time>2017-07-03T11:04:05Z</time>
      </trkpt>
      <trkpt lat="46.282205879688263" lon="11.846030345186591">
        <ele>2392.8600000000001</ele>
        <time>2017-07-03T11:04:22Z</time>
      </trkpt>
      <trkpt lat="46.282213171944022" lon="11.846009306609631">
        <ele>2392.8600000000001</ele>
        <time>2017-07-03T11:04:37Z</time>
      </trkpt>
      <trkpt lat="46.282206885516644" lon="11.845993464812636">
        <ele>2392.8600000000001</ele>
        <time>2017-07-03T11:04:54Z</time>
      </trkpt>
      <trkpt lat="46.282218955457211" lon="11.845999415963888">
        <ele>2393.3400000000001</ele>
        <time>2017-07-03T11:05:06Z</time>
      </trkpt>
      <trkpt lat="46.282236557453871" lon="11.846017185598612">
        <ele>2392.3800000000001</ele>
        <time>2017-07-03T11:05:19Z</time>
      </trkpt>
      <trkpt lat="46.282223146408796" lon="11.846029171720147">
        <ele>2392.3800000000001</ele>
        <time>2017-07-03T11:05:36Z</time>
      </trkpt>
      <trkpt lat="46.282224990427494" lon="11.846019951626658">
        <ele>2392.3800000000001</ele>
        <time>2017-07-03T11:05:56Z</time>
      </trkpt>
      <trkpt lat="46.28223312087357" lon="11.846034284681082">
        <ele>2392.3800000000001</ele>
        <time>2017-07-03T11:06:07Z</time>
      </trkpt>
      <trkpt lat="46.282212333753705" lon="11.846010647714138">
        <ele>2392.3800000000001</ele>
        <time>2017-07-03T11:06:20Z</time>
      </trkpt>
      <trkpt lat="46.28218718804419" lon="11.845997152850032">
        <ele>2391.9000000000001</ele>
        <time>2017-07-03T11:06:40Z</time>
      </trkpt>
      <trkpt lat="46.282206382602453" lon="11.84602246619761">
        <ele>2391.9000000000001</ele>
        <time>2017-07-03T11:07:04Z</time>
      </trkpt>
      <trkpt lat="46.282222727313638" lon="11.846032021567225">
        <ele>2391.9000000000001</ele>
        <time>2017-07-03T11:07:16Z</time>
      </trkpt>
      <trkpt lat="46.282218955457211" lon="11.846005534753203">
        <ele>2391.9000000000001</ele>
        <time>2017-07-03T11:07:34Z</time>
      </trkpt>
      <trkpt lat="46.282223565503955" lon="11.846028417348862">
        <ele>2391.9000000000001</ele>
        <time>2017-07-03T11:07:49Z</time>
      </trkpt>
      <trkpt lat="46.282225241884589" lon="11.846027076244354">
        <ele>2391.9000000000001</ele>
        <time>2017-07-03T11:08:00Z</time>
      </trkpt>
      <trkpt lat="46.282237898558378" lon="11.846033278852701">
        <ele>2391.4200000000001</ele>
        <time>2017-07-03T11:08:15Z</time>
      </trkpt>
      <trkpt lat="46.2822384852916" lon="11.846034117043018">
        <ele>2391.4200000000001</ele>
        <time>2017-07-03T11:08:35Z</time>
      </trkpt>
      <trkpt lat="46.28222138620913" lon="11.846053143963218">
        <ele>2391.4200000000001</ele>
        <time>2017-07-03T11:08:55Z</time>
      </trkpt>
      <trkpt lat="46.282217530533671" lon="11.84601760469377">
        <ele>2391.4200000000001</ele>
        <time>2017-07-03T11:09:13Z</time>
      </trkpt>
      <trkpt lat="46.28222038038075" lon="11.846063956618309">
        <ele>2390.9400000000001</ele>
        <time>2017-07-03T11:09:30Z</time>
      </trkpt>
      <trkpt lat="46.282227756455541" lon="11.846065800637007">
        <ele>2391.4200000000001</ele>
        <time>2017-07-03T11:09:41Z</time>
      </trkpt>
      <trkpt lat="46.282227002084255" lon="11.846047108992934">
        <ele>2392.3800000000001</ele>
        <time>2017-07-03T11:09:55Z</time>
      </trkpt>
      <trkpt lat="46.282225744798779" lon="11.846048785373569">
        <ele>2390.46</ele>
        <time>2017-07-03T11:10:16Z</time>
      </trkpt>
      <trkpt lat="46.28223211504519" lon="11.846052557229996">
        <ele>2390.46</ele>
        <time>2017-07-03T11:10:39Z</time>
      </trkpt>
      <trkpt lat="46.282245526090264" lon="11.846038224175572">
        <ele>2390.46</ele>
        <time>2017-07-03T11:11:15Z</time>
      </trkpt>
      <trkpt lat="46.282226666808128" lon="11.846040152013302">
        <ele>2390.9400000000001</ele>
        <time>2017-07-03T11:11:43Z</time>
      </trkpt>
      <trkpt lat="46.282227840274572" lon="11.846032105386257">
        <ele>2390.46</ele>
        <time>2017-07-03T11:11:56Z</time>
      </trkpt>
      <trkpt lat="46.282229935750365" lon="11.846056832000613">
        <ele>2390.9400000000001</ele>
        <time>2017-07-03T11:12:26Z</time>
      </trkpt>
      <trkpt lat="46.282227085903287" lon="11.846069069579244">
        <ele>2390.9400000000001</ele>
        <time>2017-07-03T11:12:49Z</time>
      </trkpt>
      <trkpt lat="46.282226163893938" lon="11.846080720424652">
        <ele>2390.9400000000001</ele>
        <time>2017-07-03T11:13:23Z</time>
      </trkpt>
      <trkpt lat="46.282219626009464" lon="11.84606060385704">
        <ele>2392.3800000000001</ele>
        <time>2017-07-03T11:13:58Z</time>
      </trkpt>
      <trkpt lat="46.282224990427494" lon="11.846057754009962">
        <ele>2390.9400000000001</ele>
        <time>2017-07-03T11:14:28Z</time>
      </trkpt>
      <trkpt lat="46.282222475856543" lon="11.846063788980246">
        <ele>2391.4200000000001</ele>
        <time>2017-07-03T11:14:47Z</time>
      </trkpt>
      <trkpt lat="46.28221451304853" lon="11.846062196418643">
        <ele>2390.9400000000001</ele>
        <time>2017-07-03T11:15:06Z</time>
      </trkpt>
      <trkpt lat="46.282212249934673" lon="11.84605423361063">
        <ele>2390.46</ele>
        <time>2017-07-03T11:15:24Z</time>
      </trkpt>
      <trkpt lat="46.282213842496276" lon="11.846047695726156">
        <ele>2390.46</ele>
        <time>2017-07-03T11:15:46Z</time>
      </trkpt>
      <trkpt lat="46.282223649322987" lon="11.846054485067725">
        <ele>2390.46</ele>
        <time>2017-07-03T11:16:13Z</time>
      </trkpt>
      <trkpt lat="46.282196659594774" lon="11.846052976325154">
        <ele>2390.46</ele>
        <time>2017-07-03T11:16:40Z</time>
      </trkpt>
      <trkpt lat="46.282220212742686" lon="11.846044594421983">
        <ele>2390.46</ele>
        <time>2017-07-03T11:17:02Z</time>
      </trkpt>
      <trkpt lat="46.282228259369731" lon="11.846042834222317">
        <ele>2390.46</ele>
        <time>2017-07-03T11:17:21Z</time>
      </trkpt>
      <trkpt lat="46.282209064811468" lon="11.846042079851031">
        <ele>2389.9699999999998</ele>
        <time>2017-07-03T11:17:42Z</time>
      </trkpt>
      <trkpt lat="46.282206634059548" lon="11.846031015738845">
        <ele>2389.9699999999998</ele>
        <time>2017-07-03T11:18:13Z</time>
      </trkpt>
      <trkpt lat="46.282198084518313" lon="11.846059933304787">
        <ele>2389.9699999999998</ele>
        <time>2017-07-03T11:18:34Z</time>
      </trkpt>
      <trkpt lat="46.282220045104623" lon="11.846064710989594">
        <ele>2389.9699999999998</ele>
        <time>2017-07-03T11:19:03Z</time>
      </trkpt>
      <trkpt lat="46.282216943800449" lon="11.846046270802617">
        <ele>2390.46</ele>
        <time>2017-07-03T11:19:23Z</time>
      </trkpt>
      <trkpt lat="46.282219039276242" lon="11.846039649099112">
        <ele>2390.46</ele>
        <time>2017-07-03T11:19:42Z</time>
      </trkpt>
      <trkpt lat="46.282227588817477" lon="11.84605716727674">
        <ele>2391.9000000000001</ele>
        <time>2017-07-03T11:20:01Z</time>
      </trkpt>
      <trkpt lat="46.282234797254205" lon="11.846061022952199">
        <ele>2390.46</ele>
        <time>2017-07-03T11:20:20Z</time>
      </trkpt>
      <trkpt lat="46.282231947407126" lon="11.846067560836673">
        <ele>2389.9699999999998</ele>
        <time>2017-07-03T11:20:44Z</time>
      </trkpt>
      <trkpt lat="46.282231612131" lon="11.846066219732165">
        <ele>2389.9699999999998</ele>
        <time>2017-07-03T11:21:11Z</time>
      </trkpt>
      <trkpt lat="46.282223733142018" lon="11.846064375713468">
        <ele>2389.9699999999998</ele>
        <time>2017-07-03T11:21:28Z</time>
      </trkpt>
      <trkpt lat="46.282227337360382" lon="11.846034787595272">
        <ele>2390.46</ele>
        <time>2017-07-03T11:21:41Z</time>
      </trkpt>
      <trkpt lat="46.282220464199781" lon="11.846031937748194">
        <ele>2389.9699999999998</ele>
        <time>2017-07-03T11:22:02Z</time>
      </trkpt>
      <trkpt lat="46.282227756455541" lon="11.846053563058376">
        <ele>2389.9699999999998</ele>
        <time>2017-07-03T11:22:28Z</time>
      </trkpt>
      <trkpt lat="46.282234210520983" lon="11.846053479239345">
        <ele>2389.9699999999998</ele>
        <time>2017-07-03T11:22:48Z</time>
      </trkpt>
      <trkpt lat="46.282220128923655" lon="11.846050629392266">
        <ele>2389.9699999999998</ele>
        <time>2017-07-03T11:23:03Z</time>
      </trkpt>
      <trkpt lat="46.28220965154469" lon="11.846054820343852">
        <ele>2389.9699999999998</ele>
        <time>2017-07-03T11:23:16Z</time>
      </trkpt>
      <trkpt lat="46.28222038038075" lon="11.846044594421983">
        <ele>2389.9699999999998</ele>
        <time>2017-07-03T11:23:31Z</time>
      </trkpt>
      <trkpt lat="46.28224141895771" lon="11.84604593552649">
        <ele>2389.4899999999998</ele>
        <time>2017-07-03T11:23:48Z</time>
      </trkpt>
      <trkpt lat="46.282242676243186" lon="11.846009474247694">
        <ele>2390.46</ele>
        <time>2017-07-03T11:24:05Z</time>
      </trkpt>
      <trkpt lat="46.282242424786091" lon="11.845991620793939">
        <ele>2389.4899999999998</ele>
        <time>2017-07-03T11:24:22Z</time>
      </trkpt>
      <trkpt lat="46.282252315431833" lon="11.845985418185592">
        <ele>2389.4899999999998</ele>
        <time>2017-07-03T11:24:43Z</time>
      </trkpt>
      <trkpt lat="46.282232869416475" lon="11.845987597480416">
        <ele>2389.9699999999998</ele>
        <time>2017-07-03T11:25:07Z</time>
      </trkpt>
      <trkpt lat="46.282239742577076" lon="11.845980891957879">
        <ele>2382.7600000000002</ele>
        <time>2017-07-03T11:25:14Z</time>
      </trkpt>
      <trkpt lat="46.282233037054539" lon="11.84598776511848">
        <ele>2393.8200000000002</ele>
        <time>2017-07-03T11:25:15Z</time>
      </trkpt>
      <trkpt lat="46.282230019569397" lon="11.845989525318146">
        <ele>2389.9699999999998</ele>
        <time>2017-07-03T11:25:16Z</time>
      </trkpt>
      <trkpt lat="46.282219290733337" lon="11.84600193053484">
        <ele>2389.9699999999998</ele>
        <time>2017-07-03T11:25:27Z</time>
      </trkpt>
      <trkpt lat="46.282207639887929" lon="11.845981646329165">
        <ele>2389.9699999999998</ele>
        <time>2017-07-03T11:25:41Z</time>
      </trkpt>
      <trkpt lat="46.282225493341684" lon="11.846030680462718">
        <ele>2389.9699999999998</ele>
        <time>2017-07-03T11:25:57Z</time>
      </trkpt>
      <trkpt lat="46.282225409522653" lon="11.846036044880748">
        <ele>2390.46</ele>
        <time>2017-07-03T11:26:08Z</time>
      </trkpt>
      <trkpt lat="46.282228343188763" lon="11.846027327701449">
        <ele>2389.9699999999998</ele>
        <time>2017-07-03T11:26:22Z</time>
      </trkpt>
      <trkpt lat="46.282225996255875" lon="11.846014084294438">
        <ele>2389.0100000000002</ele>
        <time>2017-07-03T11:26:30Z</time>
      </trkpt>
      <trkpt lat="46.282222727313638" lon="11.846012407913804">
        <ele>2389.4899999999998</ele>
        <time>2017-07-03T11:26:51Z</time>
      </trkpt>
      <trkpt lat="46.282226499170065" lon="11.846024561673403">
        <ele>2389.4899999999998</ele>
        <time>2017-07-03T11:27:05Z</time>
      </trkpt>
      <trkpt lat="46.282234378159046" lon="11.846017185598612">
        <ele>2389.9699999999998</ele>
        <time>2017-07-03T11:27:30Z</time>
      </trkpt>
      <trkpt lat="46.282237814739347" lon="11.846032440662384">
        <ele>2389.4899999999998</ele>
        <time>2017-07-03T11:27:32Z</time>
      </trkpt>
      <trkpt lat="46.282225912436843" lon="11.846010228618979">
        <ele>2390.46</ele>
        <time>2017-07-03T11:27:40Z</time>
      </trkpt>
      <trkpt lat="46.28220671787858" lon="11.845986340194941">
        <ele>2390.46</ele>
        <time>2017-07-03T11:27:52Z</time>
      </trkpt>
      <trkpt lat="46.282242173328996" lon="11.846014000475407">
        <ele>2390.46</ele>
        <time>2017-07-03T11:28:04Z</time>
      </trkpt>
      <trkpt lat="46.282211747020483" lon="11.846060352399945">
        <ele>2390.46</ele>
        <time>2017-07-03T11:28:26Z</time>
      </trkpt>
      <trkpt lat="46.28222331404686" lon="11.846053563058376">
        <ele>2390.46</ele>
        <time>2017-07-03T11:28:43Z</time>
      </trkpt>
      <trkpt lat="46.282212752848864" lon="11.846044259145856">
        <ele>2390.9400000000001</ele>
        <time>2017-07-03T11:29:01Z</time>
      </trkpt>
      <trkpt lat="46.282226499170065" lon="11.846036380156875">
        <ele>2390.46</ele>
        <time>2017-07-03T11:29:12Z</time>
      </trkpt>
      <trkpt lat="46.282246364280581" lon="11.846039649099112">
        <ele>2390.46</ele>
        <time>2017-07-03T11:29:29Z</time>
      </trkpt>
      <trkpt lat="46.282224571332335" lon="11.846056412905455">
        <ele>2390.46</ele>
        <time>2017-07-03T11:29:42Z</time>
      </trkpt>
      <trkpt lat="46.282217279076576" lon="11.846052473410964">
        <ele>2390.46</ele>
        <time>2017-07-03T11:29:55Z</time>
      </trkpt>
      <trkpt lat="46.28220722079277" lon="11.846060687676072">
        <ele>2390.46</ele>
        <time>2017-07-03T11:30:05Z</time>
      </trkpt>
      <trkpt lat="46.282183835282922" lon="11.846129335463047">
        <ele>2389.0100000000002</ele>
        <time>2017-07-03T11:30:14Z</time>
      </trkpt>
      <trkpt lat="46.282162629067898" lon="11.846244754269719">
        <ele>2387.5700000000002</ele>
        <time>2017-07-03T11:30:25Z</time>
      </trkpt>
      <trkpt lat="46.282197665423155" lon="11.846244167536497">
        <ele>2387.0900000000001</ele>
        <time>2017-07-03T11:30:37Z</time>
      </trkpt>
      <trkpt lat="46.282223733142018" lon="11.846253136172891">
        <ele>2386.1300000000001</ele>
        <time>2017-07-03T11:30:42Z</time>
      </trkpt>
      <trkpt lat="46.282230857759714" lon="11.846244838088751">
        <ele>2385.1700000000001</ele>
        <time>2017-07-03T11:30:53Z</time>
      </trkpt>
      <trkpt lat="46.282239742577076" lon="11.846265960484743">
        <ele>2385.6500000000001</ele>
        <time>2017-07-03T11:31:12Z</time>
      </trkpt>
      <trkpt lat="46.282218033447862" lon="11.846247101202607">
        <ele>2385.1700000000001</ele>
        <time>2017-07-03T11:31:35Z</time>
      </trkpt>
      <trkpt lat="46.282212333753705" lon="11.846234109252691">
        <ele>2385.6500000000001</ele>
        <time>2017-07-03T11:32:00Z</time>
      </trkpt>
      <trkpt lat="46.282226163893938" lon="11.846203682944179">
        <ele>2386.6100000000001</ele>
        <time>2017-07-03T11:32:11Z</time>
      </trkpt>
      <trkpt lat="46.282223565503955" lon="11.846098825335503">
        <ele>2388.5300000000002</ele>
        <time>2017-07-03T11:32:27Z</time>
      </trkpt>
      <trkpt lat="46.282226499170065" lon="11.846042666584253">
        <ele>2389.9699999999998</ele>
        <time>2017-07-03T11:32:41Z</time>
      </trkpt>
      <trkpt lat="46.282234378159046" lon="11.846029842272401">
        <ele>2389.4899999999998</ele>
        <time>2017-07-03T11:32:59Z</time>
      </trkpt>
      <trkpt lat="46.28222725354135" lon="11.846037218347192">
        <ele>2389.9699999999998</ele>
        <time>2017-07-03T11:33:14Z</time>
      </trkpt>
      <trkpt lat="46.282242927700281" lon="11.846036966890097">
        <ele>2389.9699999999998</ele>
        <time>2017-07-03T11:33:28Z</time>
      </trkpt>
      <trkpt lat="46.28225214779377" lon="11.846050545573235">
        <ele>2389.9699999999998</ele>
        <time>2017-07-03T11:33:45Z</time>
      </trkpt>
      <trkpt lat="46.282251393422484" lon="11.84606202878058">
        <ele>2389.9699999999998</ele>
        <time>2017-07-03T11:34:00Z</time>
      </trkpt>
      <trkpt lat="46.282236892729998" lon="11.846056999638677">
        <ele>2390.46</ele>
        <time>2017-07-03T11:34:12Z</time>
      </trkpt>
      <trkpt lat="46.282192133367062" lon="11.846051048487425">
        <ele>2389.4899999999998</ele>
        <time>2017-07-03T11:34:24Z</time>
      </trkpt>
      <trkpt lat="46.282134633511305" lon="11.846071584150195">
        <ele>2389.4899999999998</ele>
        <time>2017-07-03T11:34:33Z</time>
      </trkpt>
      <trkpt lat="46.282061040401459" lon="11.846131598576903">
        <ele>2388.0500000000002</ele>
        <time>2017-07-03T11:34:43Z</time>
      </trkpt>
      <trkpt lat="46.282030027359724" lon="11.846219524741173">
        <ele>2387.0900000000001</ele>
        <time>2017-07-03T11:34:53Z</time>
      </trkpt>
      <trkpt lat="46.282011419534683" lon="11.846256824210286">
        <ele>2385.6500000000001</ele>
        <time>2017-07-03T11:35:01Z</time>
      </trkpt>
      <trkpt lat="46.281964061781764" lon="11.846302002668381">
        <ele>2383.25</ele>
        <time>2017-07-03T11:35:10Z</time>
      </trkpt>
      <trkpt lat="46.281961128115654" lon="11.84637819416821">
        <ele>2381.3200000000002</ele>
        <time>2017-07-03T11:35:20Z</time>
      </trkpt>
      <trkpt lat="46.281973198056221" lon="11.846411386504769">
        <ele>2379.8800000000001</ele>
        <time>2017-07-03T11:35:29Z</time>
      </trkpt>
      <trkpt lat="46.281956434249878" lon="11.846436951309443">
        <ele>2378.9200000000001</ele>
        <time>2017-07-03T11:35:37Z</time>
      </trkpt>
      <trkpt lat="46.281943107023835" lon="11.846481878310442">
        <ele>2378.9200000000001</ele>
        <time>2017-07-03T11:35:46Z</time>
      </trkpt>
      <trkpt lat="46.281954757869244" lon="11.846475005149841">
        <ele>2378.9200000000001</ele>
        <time>2017-07-03T11:35:54Z</time>
      </trkpt>
      <trkpt lat="46.28203522413969" lon="11.846540132537484">
        <ele>2378.4400000000001</ele>
        <time>2017-07-03T11:36:04Z</time>
      </trkpt>
      <trkpt lat="46.282051652669907" lon="11.846559327095747">
        <ele>2377.48</ele>
        <time>2017-07-03T11:36:19Z</time>
      </trkpt>
      <trkpt lat="46.282047629356384" lon="11.846505766734481">
        <ele>2377.96</ele>
        <time>2017-07-03T11:36:47Z</time>
      </trkpt>
      <trkpt lat="46.282025668770075" lon="11.846517752856016">
        <ele>2378.4400000000001</ele>
        <time>2017-07-03T11:36:51Z</time>
      </trkpt>
      <trkpt lat="46.281988536939025" lon="11.846508113667369">
        <ele>2378.4400000000001</ele>
        <time>2017-07-03T11:36:56Z</time>
      </trkpt>
      <trkpt lat="46.2819311209023" lon="11.846489338204265">
        <ele>2378.9200000000001</ele>
        <time>2017-07-03T11:37:08Z</time>
      </trkpt>
      <trkpt lat="46.281872196123004" lon="11.84653602540493">
        <ele>2376.52</ele>
        <time>2017-07-03T11:37:18Z</time>
      </trkpt>
      <trkpt lat="46.281864233314991" lon="11.846550945192575">
        <ele>2375.0700000000002</ele>
        <time>2017-07-03T11:37:20Z</time>
      </trkpt>
      <trkpt lat="46.281860629096627" lon="11.846579108387232">
        <ele>2376.04</ele>
        <time>2017-07-03T11:37:22Z</time>
      </trkpt>
      <trkpt lat="46.281834477558732" lon="11.846610959619284">
        <ele>2373.6300000000001</ele>
        <time>2017-07-03T11:37:26Z</time>
      </trkpt>
      <trkpt lat="46.281788544729352" lon="11.846607774496078">
        <ele>2372.1900000000001</ele>
        <time>2017-07-03T11:37:30Z</time>
      </trkpt>
      <trkpt lat="46.281695673242211" lon="11.846624370664358">
        <ele>2372.6700000000001</ele>
        <time>2017-07-03T11:37:39Z</time>
      </trkpt>
      <trkpt lat="46.281650494784117" lon="11.846608109772205">
        <ele>2372.1900000000001</ele>
        <time>2017-07-03T11:37:48Z</time>
      </trkpt>
      <trkpt lat="46.281634904444218" lon="11.846596710383892">
        <ele>2371.71</ele>
        <time>2017-07-03T11:37:50Z</time>
      </trkpt>
      <trkpt lat="46.28149283118546" lon="11.84657022356987">
        <ele>2370.75</ele>
        <time>2017-07-03T11:38:02Z</time>
      </trkpt>
      <trkpt lat="46.281377160921693" lon="11.846532924100757">
        <ele>2371.71</ele>
        <time>2017-07-03T11:38:13Z</time>
      </trkpt>
      <trkpt lat="46.281294850632548" lon="11.846495037898421">
        <ele>2370.75</ele>
        <time>2017-07-03T11:38:20Z</time>
      </trkpt>
      <trkpt lat="46.281282529234886" lon="11.846476094797254">
        <ele>2370.27</ele>
        <time>2017-07-03T11:38:22Z</time>
      </trkpt>
      <trkpt lat="46.281228801235557" lon="11.846454301849008">
        <ele>2369.79</ele>
        <time>2017-07-03T11:38:27Z</time>
      </trkpt>
      <trkpt lat="46.281160153448582" lon="11.846439801156521">
        <ele>2369.79</ele>
        <time>2017-07-03T11:38:35Z</time>
      </trkpt>
      <trkpt lat="46.281049009412527" lon="11.846398981288075">
        <ele>2370.27</ele>
        <time>2017-07-03T11:38:47Z</time>
      </trkpt>
      <trkpt lat="46.281030066311359" lon="11.8463977240026">
        <ele>2369.79</ele>
        <time>2017-07-03T11:38:49Z</time>
      </trkpt>
      <trkpt lat="46.280986815690994" lon="11.846339805051684">
        <ele>2369.79</ele>
        <time>2017-07-03T11:38:55Z</time>
      </trkpt>
      <trkpt lat="46.280929986387491" lon="11.846359586343169">
        <ele>2370.27</ele>
        <time>2017-07-03T11:39:02Z</time>
      </trkpt>
      <trkpt lat="46.28082973882556" lon="11.846302002668381">
        <ele>2369.79</ele>
        <time>2017-07-03T11:39:13Z</time>
      </trkpt>
      <trkpt lat="46.280724797397852" lon="11.84624089859426">
        <ele>2370.27</ele>
        <time>2017-07-03T11:39:24Z</time>
      </trkpt>
      <trkpt lat="46.280669057741761" lon="11.84618080034852">
        <ele>2370.27</ele>
        <time>2017-07-03T11:39:32Z</time>
      </trkpt>
      <trkpt lat="46.280599823221564" lon="11.8461524695158">
        <ele>2370.27</ele>
        <time>2017-07-03T11:39:42Z</time>
      </trkpt>
      <trkpt lat="46.280496893450618" lon="11.84610502794385">
        <ele>2369.3099999999999</ele>
        <time>2017-07-03T11:39:52Z</time>
      </trkpt>
      <trkpt lat="46.280405782163143" lon="11.84601659886539">
        <ele>2369.79</ele>
        <time>2017-07-03T11:40:05Z</time>
      </trkpt>
      <trkpt lat="46.280336631461978" lon="11.845944430679083">
        <ele>2371.71</ele>
        <time>2017-07-03T11:40:17Z</time>
      </trkpt>
      <trkpt lat="46.280248621478677" lon="11.845860444009304">
        <ele>2372.6700000000001</ele>
        <time>2017-07-03T11:40:29Z</time>
      </trkpt>
      <trkpt lat="46.280143512412906" lon="11.845815097913146">
        <ele>2373.1500000000001</ele>
        <time>2017-07-03T11:40:42Z</time>
      </trkpt>
      <trkpt lat="46.280058268457651" lon="11.845795987173915">
        <ele>2373.6300000000001</ele>
        <time>2017-07-03T11:40:52Z</time>
      </trkpt>
      <trkpt lat="46.280027003958821" lon="11.845795316621661">
        <ele>2374.1100000000001</ele>
        <time>2017-07-03T11:40:56Z</time>
      </trkpt>
      <trkpt lat="46.279935222119093" lon="11.845760615542531">
        <ele>2374.5900000000001</ele>
        <time>2017-07-03T11:41:07Z</time>
      </trkpt>
      <trkpt lat="46.279842266812921" lon="11.845757262781262">
        <ele>2374.1100000000001</ele>
        <time>2017-07-03T11:41:16Z</time>
      </trkpt>
      <trkpt lat="46.279805973172188" lon="11.845740415155888">
        <ele>2374.5900000000001</ele>
        <time>2017-07-03T11:41:20Z</time>
      </trkpt>
      <trkpt lat="46.279737325385213" lon="11.84570780955255">
        <ele>2374.1100000000001</ele>
        <time>2017-07-03T11:41:29Z</time>
      </trkpt>
      <trkpt lat="46.279634982347488" lon="11.845673862844706">
        <ele>2373.6300000000001</ele>
        <time>2017-07-03T11:41:39Z</time>
      </trkpt>
      <trkpt lat="46.279536327347159" lon="11.845638491213322">
        <ele>2374.5900000000001</ele>
        <time>2017-07-03T11:41:51Z</time>
      </trkpt>
      <trkpt lat="46.279447395354509" lon="11.845607897266746">
        <ele>2374.1100000000001</ele>
        <time>2017-07-03T11:42:01Z</time>
      </trkpt>
      <trkpt lat="46.279350919649005" lon="11.845551067963243">
        <ele>2375.0700000000002</ele>
        <time>2017-07-03T11:42:13Z</time>
      </trkpt>
      <trkpt lat="46.27924270927906" lon="11.845485605299473">
        <ele>2375.0700000000002</ele>
        <time>2017-07-03T11:42:25Z</time>
      </trkpt>
      <trkpt lat="46.279161740094423" lon="11.845413018018007">
        <ele>2375.0700000000002</ele>
        <time>2017-07-03T11:42:38Z</time>
      </trkpt>
      <trkpt lat="46.279067695140839" lon="11.845349231734872">
        <ele>2374.1100000000001</ele>
        <time>2017-07-03T11:42:49Z</time>
      </trkpt>
      <trkpt lat="46.278956970199943" lon="11.845266669988632">
        <ele>2373.6300000000001</ele>
        <time>2017-07-03T11:43:02Z</time>
      </trkpt>
      <trkpt lat="46.278915144503117" lon="11.845169523730874">
        <ele>2374.5900000000001</ele>
        <time>2017-07-03T11:43:13Z</time>
      </trkpt>
      <trkpt lat="46.278852196410298" lon="11.84512535110116">
        <ele>2373.6300000000001</ele>
        <time>2017-07-03T11:43:25Z</time>
      </trkpt>
      <trkpt lat="46.278799055144191" lon="11.84507061727345">
        <ele>2372.6700000000001</ele>
        <time>2017-07-03T11:43:34Z</time>
      </trkpt>
      <trkpt lat="46.278744572773576" lon="11.845036083832383">
        <ele>2372.6700000000001</ele>
        <time>2017-07-03T11:43:44Z</time>
      </trkpt>
      <trkpt lat="46.278740549460053" lon="11.845034658908844">
        <ele>2372.6700000000001</ele>
        <time>2017-07-03T11:43:45Z</time>
      </trkpt>
      <trkpt lat="46.27872671931982" lon="11.845019236207008">
        <ele>2372.6700000000001</ele>
        <time>2017-07-03T11:43:47Z</time>
      </trkpt>
      <trkpt lat="46.27866268157959" lon="11.844946732744575">
        <ele>2371.71</ele>
        <time>2017-07-03T11:43:56Z</time>
      </trkpt>
      <trkpt lat="46.278622951358557" lon="11.844907337799668">
        <ele>2370.75</ele>
        <time>2017-07-03T11:44:01Z</time>
      </trkpt>
      <trkpt lat="46.27855472266674" lon="11.844847239553928">
        <ele>2369.3099999999999</ele>
        <time>2017-07-03T11:44:13Z</time>
      </trkpt>
      <trkpt lat="46.278470568358898" lon="11.844760067760944">
        <ele>2367.3800000000001</ele>
        <time>2017-07-03T11:44:24Z</time>
      </trkpt>
      <trkpt lat="46.278443746268749" lon="11.844723019748926">
        <ele>2367.3800000000001</ele>
        <time>2017-07-03T11:44:28Z</time>
      </trkpt>
      <trkpt lat="46.278394879773259" lon="11.844632159918547">
        <ele>2366.4200000000001</ele>
        <time>2017-07-03T11:44:39Z</time>
      </trkpt>
      <trkpt lat="46.278378535062075" lon="11.844612127169967">
        <ele>2365.9400000000001</ele>
        <time>2017-07-03T11:44:42Z</time>
      </trkpt>
      <trkpt lat="46.278298571705818" lon="11.844555884599686">
        <ele>2366.9000000000001</ele>
        <time>2017-07-03T11:44:51Z</time>
      </trkpt>
      <trkpt lat="46.27823268994689" lon="11.84450626373291">
        <ele>2366.4200000000001</ele>
        <time>2017-07-03T11:45:03Z</time>
      </trkpt>
      <trkpt lat="46.278181811794639" lon="11.844463432207704">
        <ele>2364.5</ele>
        <time>2017-07-03T11:45:13Z</time>
      </trkpt>
      <trkpt lat="46.278116935864091" lon="11.844392353668809">
        <ele>2362.0999999999999</ele>
        <time>2017-07-03T11:45:23Z</time>
      </trkpt>
      <trkpt lat="46.278100172057748" lon="11.844363352283835">
        <ele>2361.6199999999999</ele>
        <time>2017-07-03T11:45:26Z</time>
      </trkpt>
      <trkpt lat="46.278094807639718" lon="11.844322616234422">
        <ele>2361.1399999999999</ele>
        <time>2017-07-03T11:45:29Z</time>
      </trkpt>
      <trkpt lat="46.278056418523192" lon="11.844244999811053">
        <ele>2360.1700000000001</ele>
        <time>2017-07-03T11:45:37Z</time>
      </trkpt>
      <trkpt lat="46.278023310005665" lon="11.84421306475997">
        <ele>2360.6500000000001</ele>
        <time>2017-07-03T11:45:51Z</time>
      </trkpt>
      <trkpt lat="46.277995314449072" lon="11.84413293376565">
        <ele>2360.6500000000001</ele>
        <time>2017-07-03T11:46:01Z</time>
      </trkpt>
      <trkpt lat="46.277959691360593" lon="11.844068309292197">
        <ele>2359.6900000000001</ele>
        <time>2017-07-03T11:46:12Z</time>
      </trkpt>
      <trkpt lat="46.277904203161597" lon="11.843970324844122">
        <ele>2358.25</ele>
        <time>2017-07-03T11:46:25Z</time>
      </trkpt>
      <trkpt lat="46.277849720790982" lon="11.843939060345292">
        <ele>2356.8099999999999</ele>
        <time>2017-07-03T11:46:33Z</time>
      </trkpt>
      <trkpt lat="46.277760369703174" lon="11.843871502205729">
        <ele>2354.4099999999999</ele>
        <time>2017-07-03T11:46:45Z</time>
      </trkpt>
      <trkpt lat="46.27769717015326" lon="11.843848871067166">
        <ele>2352.96</ele>
        <time>2017-07-03T11:46:55Z</time>
      </trkpt>
      <trkpt lat="46.277650147676468" lon="11.843850212171674">
        <ele>2352</ele>
        <time>2017-07-03T11:47:04Z</time>
      </trkpt>
      <trkpt lat="46.277614524587989" lon="11.843848535791039">
        <ele>2350.5599999999999</ele>
        <time>2017-07-03T11:47:09Z</time>
      </trkpt>
      <trkpt lat="46.277589378878474" lon="11.843856498599052">
        <ele>2350.5599999999999</ele>
        <time>2017-07-03T11:47:12Z</time>
      </trkpt>
      <trkpt lat="46.277562389150262" lon="11.843924224376678">
        <ele>2349.1199999999999</ele>
        <time>2017-07-03T11:47:22Z</time>
      </trkpt>
      <trkpt lat="46.277538919821382" lon="11.843938305974007">
        <ele>2348.6399999999999</ele>
        <time>2017-07-03T11:47:31Z</time>
      </trkpt>
      <trkpt lat="46.277519725263119" lon="11.843953812494874">
        <ele>2347.6799999999998</ele>
        <time>2017-07-03T11:47:42Z</time>
      </trkpt>
      <trkpt lat="46.277468847110868" lon="11.843954985961318">
        <ele>2346.7199999999998</ele>
        <time>2017-07-03T11:47:53Z</time>
      </trkpt>
      <trkpt lat="46.277443617582321" lon="11.843910813331604">
        <ele>2346.7199999999998</ele>
        <time>2017-07-03T11:48:03Z</time>
      </trkpt>
      <trkpt lat="46.277425428852439" lon="11.84390427544713">
        <ele>2346.7199999999998</ele>
        <time>2017-07-03T11:48:11Z</time>
      </trkpt>
      <trkpt lat="46.277405731379986" lon="11.843909304589033">
        <ele>2345.27</ele>
        <time>2017-07-03T11:48:21Z</time>
      </trkpt>
      <trkpt lat="46.277375472709537" lon="11.843903940171003">
        <ele>2343.3499999999999</ele>
        <time>2017-07-03T11:48:31Z</time>
      </trkpt>
      <trkpt lat="46.277354434132576" lon="11.843887008726597">
        <ele>2342.3899999999999</ele>
        <time>2017-07-03T11:48:35Z</time>
      </trkpt>
      <trkpt lat="46.277270028367639" lon="11.843779385089874">
        <ele>2340.4699999999998</ele>
        <time>2017-07-03T11:48:49Z</time>
      </trkpt>
      <trkpt lat="46.277265921235085" lon="11.843782989308238">
        <ele>2339.9899999999998</ele>
        <time>2017-07-03T11:48:59Z</time>
      </trkpt>
      <trkpt lat="46.277241781353951" lon="11.843732446432114">
        <ele>2339.5100000000002</ele>
        <time>2017-07-03T11:49:09Z</time>
      </trkpt>
      <trkpt lat="46.277213199064136" lon="11.843727082014084">
        <ele>2339.02</ele>
        <time>2017-07-03T11:49:19Z</time>
      </trkpt>
      <trkpt lat="46.277165841311216" lon="11.843734625726938">
        <ele>2336.6199999999999</ele>
        <time>2017-07-03T11:49:28Z</time>
      </trkpt>
      <trkpt lat="46.277166847139597" lon="11.843727249652147">
        <ele>2335.1799999999998</ele>
        <time>2017-07-03T11:49:39Z</time>
      </trkpt>
      <trkpt lat="46.277153352275491" lon="11.84380603954196">
        <ele>2332.7800000000002</ele>
        <time>2017-07-03T11:49:52Z</time>
      </trkpt>
      <trkpt lat="46.277152514085174" lon="11.843842417001724">
        <ele>2331.3299999999999</ele>
        <time>2017-07-03T11:50:02Z</time>
      </trkpt>
      <trkpt lat="46.277117729187012" lon="11.843854235485196">
        <ele>2330.8499999999999</ele>
        <time>2017-07-03T11:50:12Z</time>
      </trkpt>
      <trkpt lat="46.277111191302538" lon="11.843888349831104">
        <ele>2329.4099999999999</ele>
        <time>2017-07-03T11:50:20Z</time>
      </trkpt>
      <trkpt lat="46.277113705873489" lon="11.843902263790369">
        <ele>2328.4499999999998</ele>
        <time>2017-07-03T11:50:22Z</time>
      </trkpt>
      <trkpt lat="46.277127787470818" lon="11.8438989110291">
        <ele>2327.9699999999998</ele>
        <time>2017-07-03T11:50:33Z</time>
      </trkpt>
      <trkpt lat="46.277072047814727" lon="11.843884494155645">
        <ele>2327.4899999999998</ele>
        <time>2017-07-03T11:50:53Z</time>
      </trkpt>
      <trkpt lat="46.277028461918235" lon="11.843840489163995">
        <ele>2326.5300000000002</ele>
        <time>2017-07-03T11:51:02Z</time>
      </trkpt>
      <trkpt lat="46.277004489675164" lon="11.843837639316916">
        <ele>2325.0900000000001</ele>
        <time>2017-07-03T11:51:12Z</time>
      </trkpt>
      <trkpt lat="46.276948917657137" lon="11.843836633488536">
        <ele>2323.6399999999999</ele>
        <time>2017-07-03T11:51:23Z</time>
      </trkpt>
      <trkpt lat="46.276900470256805" lon="11.843875190243125">
        <ele>2321.2399999999998</ele>
        <time>2017-07-03T11:51:33Z</time>
      </trkpt>
      <trkpt lat="46.276854956522584" lon="11.84388717636466">
        <ele>2319.8000000000002</ele>
        <time>2017-07-03T11:51:42Z</time>
      </trkpt>
      <trkpt lat="46.276825787499547" lon="11.843885499984026">
        <ele>2320.2800000000002</ele>
        <time>2017-07-03T11:51:45Z</time>
      </trkpt>
      <trkpt lat="46.276800222694874" lon="11.843859683722258">
        <ele>2320.2800000000002</ele>
        <time>2017-07-03T11:51:55Z</time>
      </trkpt>
      <trkpt lat="46.276826038956642" lon="11.843853816390038">
        <ele>2319.3200000000002</ele>
        <time>2017-07-03T11:52:05Z</time>
      </trkpt>
      <trkpt lat="46.276840707287192" lon="11.843860018998384">
        <ele>2319.3200000000002</ele>
        <time>2017-07-03T11:52:25Z</time>
      </trkpt>
      <trkpt lat="46.276831654831767" lon="11.843879381194711">
        <ele>2319.3200000000002</ele>
        <time>2017-07-03T11:52:31Z</time>
      </trkpt>
      <trkpt lat="46.276793600991368" lon="11.843876363709569">
        <ele>2320.2800000000002</ele>
        <time>2017-07-03T11:52:38Z</time>
      </trkpt>
      <trkpt lat="46.276774825528264" lon="11.843860605731606">
        <ele>2320.2800000000002</ele>
        <time>2017-07-03T11:52:47Z</time>
      </trkpt>
      <trkpt lat="46.276703998446465" lon="11.843881057575345">
        <ele>2319.3200000000002</ele>
        <time>2017-07-03T11:52:57Z</time>
      </trkpt>
      <trkpt lat="46.276678768917918" lon="11.843881560489535">
        <ele>2318.3600000000001</ele>
        <time>2017-07-03T11:53:08Z</time>
      </trkpt>
      <trkpt lat="46.276649599894881" lon="11.843868903815746">
        <ele>2318.3600000000001</ele>
        <time>2017-07-03T11:53:11Z</time>
      </trkpt>
      <trkpt lat="46.276564188301563" lon="11.843881392851472">
        <ele>2317.4000000000001</ele>
        <time>2017-07-03T11:53:20Z</time>
      </trkpt>
      <trkpt lat="46.276497971266508" lon="11.843836801126599">
        <ele>2315.9499999999998</ele>
        <time>2017-07-03T11:53:29Z</time>
      </trkpt>
      <trkpt lat="46.27648925408721" lon="11.8438436742872">
        <ele>2315.9499999999998</ele>
        <time>2017-07-03T11:53:30Z</time>
      </trkpt>
      <trkpt lat="46.276390850543976" lon="11.843889355659485">
        <ele>2314.5100000000002</ele>
        <time>2017-07-03T11:53:42Z</time>
      </trkpt>
      <trkpt lat="46.276314491406083" lon="11.843926990404725">
        <ele>2313.0700000000002</ele>
        <time>2017-07-03T11:53:53Z</time>
      </trkpt>
      <trkpt lat="46.27624056302011" lon="11.843930678442121">
        <ele>2312.1100000000001</ele>
        <time>2017-07-03T11:54:04Z</time>
      </trkpt>
      <trkpt lat="46.276227571070194" lon="11.843923134729266">
        <ele>2312.1100000000001</ele>
        <time>2017-07-03T11:54:06Z</time>
      </trkpt>
      <trkpt lat="46.276191612705588" lon="11.843895809724927">
        <ele>2312.1100000000001</ele>
        <time>2017-07-03T11:54:19Z</time>
      </trkpt>
      <trkpt lat="46.27617945894599" lon="11.843906622380018">
        <ele>2312.5900000000001</ele>
        <time>2017-07-03T11:54:22Z</time>
      </trkpt>
      <trkpt lat="46.276134196668863" lon="11.843916848301888">
        <ele>2310.6700000000001</ele>
        <time>2017-07-03T11:54:27Z</time>
      </trkpt>
      <trkpt lat="46.276027159765363" lon="11.843895055353642">
        <ele>2310.6700000000001</ele>
        <time>2017-07-03T11:54:37Z</time>
      </trkpt>
      <trkpt lat="46.275929259136319" lon="11.843859096989036">
        <ele>2310.6700000000001</ele>
        <time>2017-07-03T11:54:46Z</time>
      </trkpt>
      <trkpt lat="46.275914255529642" lon="11.843839231878519">
        <ele>2310.6700000000001</ele>
        <time>2017-07-03T11:54:48Z</time>
      </trkpt>
      <trkpt lat="46.275818031281233" lon="11.843801764771342">
        <ele>2310.1900000000001</ele>
        <time>2017-07-03T11:54:59Z</time>
      </trkpt>
      <trkpt lat="46.275741755962372" lon="11.843820624053478">
        <ele>2311.1500000000001</ele>
        <time>2017-07-03T11:55:08Z</time>
      </trkpt>
      <trkpt lat="46.27565274015069" lon="11.843890864402056">
        <ele>2311.1500000000001</ele>
        <time>2017-07-03T11:55:21Z</time>
      </trkpt>
      <trkpt lat="46.275594234466553" lon="11.843934869393706">
        <ele>2312.1100000000001</ele>
        <time>2017-07-03T11:55:29Z</time>
      </trkpt>
      <trkpt lat="46.275488371029496" lon="11.843979880213737">
        <ele>2313.5500000000002</ele>
        <time>2017-07-03T11:55:42Z</time>
      </trkpt>
      <trkpt lat="46.275455178692937" lon="11.844074176624417">
        <ele>2314.5100000000002</ele>
        <time>2017-07-03T11:55:51Z</time>
      </trkpt>
      <trkpt lat="46.275439336895943" lon="11.844185069203377">
        <ele>2315.4699999999998</ele>
        <time>2017-07-03T11:56:00Z</time>
      </trkpt>
      <trkpt lat="46.275424920022488" lon="11.844302918761969">
        <ele>2316.4299999999998</ele>
        <time>2017-07-03T11:56:09Z</time>
      </trkpt>
      <trkpt lat="46.275393068790436" lon="11.844352371990681">
        <ele>2314.5100000000002</ele>
        <time>2017-07-03T11:56:14Z</time>
      </trkpt>
      <trkpt lat="46.275360127910972" lon="11.844395538792014">
        <ele>2315.9499999999998</ele>
        <time>2017-07-03T11:56:19Z</time>
      </trkpt>
      <trkpt lat="46.275317883118987" lon="11.844507772475481">
        <ele>2317.4000000000001</ele>
        <time>2017-07-03T11:56:29Z</time>
      </trkpt>
      <trkpt lat="46.275284942239523" lon="11.844581617042422">
        <ele>2318.3600000000001</ele>
        <time>2017-07-03T11:56:38Z</time>
      </trkpt>
      <trkpt lat="46.275256862863898" lon="11.844670716673136">
        <ele>2318.8400000000001</ele>
        <time>2017-07-03T11:56:50Z</time>
      </trkpt>
      <trkpt lat="46.275214282795787" lon="11.844782112166286">
        <ele>2320.2800000000002</ele>
        <time>2017-07-03T11:57:01Z</time>
      </trkpt>
      <trkpt lat="46.275148652493954" lon="11.844835923984647">
        <ele>2321.2399999999998</ele>
        <time>2017-07-03T11:57:12Z</time>
      </trkpt>
      <trkpt lat="46.275148233398795" lon="11.84486199170351">
        <ele>2321.2399999999998</ele>
        <time>2017-07-03T11:57:21Z</time>
      </trkpt>
      <trkpt lat="46.275143371894956" lon="11.844868445768952">
        <ele>2321.2399999999998</ele>
        <time>2017-07-03T11:57:42Z</time>
      </trkpt>
      <trkpt lat="46.275137085467577" lon="11.844891496002674">
        <ele>2321.2399999999998</ele>
        <time>2017-07-03T11:57:53Z</time>
      </trkpt>
      <trkpt lat="46.275082184001803" lon="11.844957377761602">
        <ele>2322.6799999999998</ele>
        <time>2017-07-03T11:58:03Z</time>
      </trkpt>
      <trkpt lat="46.275014290586114" lon="11.845025103539228">
        <ele>2323.6399999999999</ele>
        <time>2017-07-03T11:58:15Z</time>
      </trkpt>
      <trkpt lat="46.274949917569757" lon="11.845059301704168">
        <ele>2324.6100000000001</ele>
        <time>2017-07-03T11:58:26Z</time>
      </trkpt>
      <trkpt lat="46.274896105751395" lon="11.845055110752583">
        <ele>2325.5700000000002</ele>
        <time>2017-07-03T11:58:35Z</time>
      </trkpt>
      <trkpt lat="46.274868613108993" lon="11.845078160986304">
        <ele>2327.0100000000002</ele>
        <time>2017-07-03T11:58:44Z</time>
      </trkpt>
      <trkpt lat="46.27480105496943" lon="11.845108671113849">
        <ele>2328.4499999999998</ele>
        <time>2017-07-03T11:58:54Z</time>
      </trkpt>
      <trkpt lat="46.274728635326028" lon="11.845175307244062">
        <ele>2328.9299999999998</ele>
        <time>2017-07-03T11:59:05Z</time>
      </trkpt>
      <trkpt lat="46.274652276188135" lon="11.84522207826376">
        <ele>2330.3699999999999</ele>
        <time>2017-07-03T11:59:15Z</time>
      </trkpt>
      <trkpt lat="46.274622185155749" lon="11.845231549814343">
        <ele>2330.8499999999999</ele>
        <time>2017-07-03T11:59:20Z</time>
      </trkpt>
      <trkpt lat="46.274532750248909" lon="11.84527438133955">
        <ele>2329.8899999999999</ele>
        <time>2017-07-03T11:59:30Z</time>
      </trkpt>
      <trkpt lat="46.274462593719363" lon="11.845298688858747">
        <ele>2329.8899999999999</ele>
        <time>2017-07-03T11:59:38Z</time>
      </trkpt>
      <trkpt lat="46.274445997551084" lon="11.84531201608479">
        <ele>2329.8899999999999</ele>
        <time>2017-07-03T11:59:40Z</time>
      </trkpt>
      <trkpt lat="46.274347258731723" lon="11.845364570617676">
        <ele>2328.4499999999998</ele>
        <time>2017-07-03T11:59:51Z</time>
      </trkpt>
      <trkpt lat="46.274307612329721" lon="11.845394494011998">
        <ele>2328.4499999999998</ele>
        <time>2017-07-03T11:59:57Z</time>
      </trkpt>
      <trkpt lat="46.274256482720375" lon="11.845406647771597">
        <ele>2328.4499999999998</ele>
        <time>2017-07-03T12:00:06Z</time>
      </trkpt>
      <trkpt lat="46.274230917915702" lon="11.845424417406321">
        <ele>2327.9699999999998</ele>
        <time>2017-07-03T12:00:09Z</time>
      </trkpt>
      <trkpt lat="46.274116337299347" lon="11.845451239496469">
        <ele>2327.9699999999998</ele>
        <time>2017-07-03T12:00:20Z</time>
      </trkpt>
      <trkpt lat="46.274032350629568" lon="11.84548107907176">
        <ele>2328.4499999999998</ele>
        <time>2017-07-03T12:00:29Z</time>
      </trkpt>
      <trkpt lat="46.274014497175813" lon="11.845484850928187">
        <ele>2328.4499999999998</ele>
        <time>2017-07-03T12:00:31Z</time>
      </trkpt>
      <trkpt lat="46.273929923772812" lon="11.845525670796633">
        <ele>2328.9299999999998</ele>
        <time>2017-07-03T12:00:39Z</time>
      </trkpt>
      <trkpt lat="46.273904861882329" lon="11.845526341348886">
        <ele>2328.9299999999998</ele>
        <time>2017-07-03T12:00:42Z</time>
      </trkpt>
      <trkpt lat="46.273830765858293" lon="11.845559617504478">
        <ele>2328.9299999999998</ele>
        <time>2017-07-03T12:00:50Z</time>
      </trkpt>
      <trkpt lat="46.273826574906707" lon="11.845563221722841">
        <ele>2328.9299999999998</ele>
        <time>2017-07-03T12:00:51Z</time>
      </trkpt>
      <trkpt lat="46.27371727488935" lon="11.845575543120503">
        <ele>2329.4099999999999</ele>
        <time>2017-07-03T12:01:04Z</time>
      </trkpt>
      <trkpt lat="46.273624571040273" lon="11.845581661909819">
        <ele>2329.8899999999999</ele>
        <time>2017-07-03T12:01:16Z</time>
      </trkpt>
      <trkpt lat="46.273607052862644" lon="11.845577554777265">
        <ele>2329.8899999999999</ele>
        <time>2017-07-03T12:01:19Z</time>
      </trkpt>
      <trkpt lat="46.273525496944785" lon="11.845578560605645">
        <ele>2330.3699999999999</ele>
        <time>2017-07-03T12:01:29Z</time>
      </trkpt>
      <trkpt lat="46.273491969332099" lon="11.845581578090787">
        <ele>2330.8499999999999</ele>
        <time>2017-07-03T12:01:33Z</time>
      </trkpt>
      <trkpt lat="46.273423824459314" lon="11.845582248643041">
        <ele>2331.8099999999999</ele>
        <time>2017-07-03T12:01:42Z</time>
      </trkpt>
      <trkpt lat="46.273416113108397" lon="11.845584260299802">
        <ele>2332.3000000000002</ele>
        <time>2017-07-03T12:01:43Z</time>
      </trkpt>
      <trkpt lat="46.273377053439617" lon="11.845654333010316">
        <ele>2332.3000000000002</ele>
        <time>2017-07-03T12:01:49Z</time>
      </trkpt>
      <trkpt lat="46.273286445066333" lon="11.84566087089479">
        <ele>2332.7800000000002</ele>
        <time>2017-07-03T12:01:59Z</time>
      </trkpt>
      <trkpt lat="46.273202123120427" lon="11.845705965533853">
        <ele>2333.7399999999998</ele>
        <time>2017-07-03T12:02:10Z</time>
      </trkpt>
      <trkpt lat="46.273193825036287" lon="11.845698757097125">
        <ele>2333.7399999999998</ele>
        <time>2017-07-03T12:02:13Z</time>
      </trkpt>
      <trkpt lat="46.273112436756492" lon="11.845702445134521">
        <ele>2334.6999999999998</ele>
        <time>2017-07-03T12:02:24Z</time>
      </trkpt>
      <trkpt lat="46.273061390966177" lon="11.845753826200962">
        <ele>2335.6599999999999</ele>
        <time>2017-07-03T12:02:34Z</time>
      </trkpt>
      <trkpt lat="46.272986540570855" lon="11.845781486481428">
        <ele>2336.1399999999999</ele>
        <time>2017-07-03T12:02:43Z</time>
      </trkpt>
      <trkpt lat="46.272974889725447" lon="11.845783749595284">
        <ele>2336.6199999999999</ele>
        <time>2017-07-03T12:02:44Z</time>
      </trkpt>
      <trkpt lat="46.272898614406586" lon="11.845875531435013">
        <ele>2337.0999999999999</ele>
        <time>2017-07-03T12:02:56Z</time>
      </trkpt>
      <trkpt lat="46.272815885022283" lon="11.845878465101123">
        <ele>2338.54</ele>
        <time>2017-07-03T12:03:08Z</time>
      </trkpt>
      <trkpt lat="46.272743213921785" lon="11.845935797318816">
        <ele>2340.4699999999998</ele>
        <time>2017-07-03T12:03:22Z</time>
      </trkpt>
      <trkpt lat="46.272703567519784" lon="11.845973851159215">
        <ele>2341.9099999999999</ele>
        <time>2017-07-03T12:03:35Z</time>
      </trkpt>
      <trkpt lat="46.272672051563859" lon="11.84603663161397">
        <ele>2343.8299999999999</ele>
        <time>2017-07-03T12:03:48Z</time>
      </trkpt>
      <trkpt lat="46.272628800943494" lon="11.846059681847692">
        <ele>2344.79</ele>
        <time>2017-07-03T12:04:00Z</time>
      </trkpt>
      <trkpt lat="46.272620838135481" lon="11.846056161448359">
        <ele>2344.3099999999999</ele>
        <time>2017-07-03T12:04:13Z</time>
      </trkpt>
      <trkpt lat="46.272614970803261" lon="11.846104441210628">
        <ele>2345.27</ele>
        <time>2017-07-03T12:04:19Z</time>
      </trkpt>
      <trkpt lat="46.272585550323129" lon="11.846178704872727">
        <ele>2347.1999999999998</ele>
        <time>2017-07-03T12:04:30Z</time>
      </trkpt>
      <trkpt lat="46.272548167034984" lon="11.846239138394594">
        <ele>2349.1199999999999</ele>
        <time>2017-07-03T12:04:43Z</time>
      </trkpt>
      <trkpt lat="46.272481111809611" lon="11.846230421215296">
        <ele>2350.5599999999999</ele>
        <time>2017-07-03T12:04:55Z</time>
      </trkpt>
      <trkpt lat="46.272472562268376" lon="11.846348522230983">
        <ele>2352.96</ele>
        <time>2017-07-03T12:05:09Z</time>
      </trkpt>
      <trkpt lat="46.272410033270717" lon="11.846351874992251">
        <ele>2355.3699999999999</ele>
        <time>2017-07-03T12:05:24Z</time>
      </trkpt>
      <trkpt lat="46.27236477099359" lon="11.846362687647343">
        <ele>2357.29</ele>
        <time>2017-07-03T12:05:39Z</time>
      </trkpt>
      <trkpt lat="46.272407602518797" lon="11.846521440893412">
        <ele>2359.21</ele>
        <time>2017-07-03T12:05:57Z</time>
      </trkpt>
      <trkpt lat="46.272384133189917" lon="11.846562679857016">
        <ele>2361.6199999999999</ele>
        <time>2017-07-03T12:06:12Z</time>
      </trkpt>
      <trkpt lat="46.272305846214294" lon="11.846610205247998">
        <ele>2363.54</ele>
        <time>2017-07-03T12:06:28Z</time>
      </trkpt>
      <trkpt lat="46.272187409922481" lon="11.846668794751167">
        <ele>2365.9400000000001</ele>
        <time>2017-07-03T12:06:45Z</time>
      </trkpt>
      <trkpt lat="46.272222949191928" lon="11.846778346225619">
        <ele>2367.3800000000001</ele>
        <time>2017-07-03T12:07:00Z</time>
      </trkpt>
      <trkpt lat="46.272211885079741" lon="11.846816651523113">
        <ele>2368.3499999999999</ele>
        <time>2017-07-03T12:07:11Z</time>
      </trkpt>
      <trkpt lat="46.272140722721815" lon="11.846799720078707">
        <ele>2368.8299999999999</ele>
        <time>2017-07-03T12:07:23Z</time>
      </trkpt>
      <trkpt lat="46.272090766578913" lon="11.846830565482378">
        <ele>2369.79</ele>
        <time>2017-07-03T12:07:34Z</time>
      </trkpt>
      <trkpt lat="46.272052377462387" lon="11.84682184830308">
        <ele>2373.6300000000001</ele>
        <time>2017-07-03T12:07:46Z</time>
      </trkpt>
      <trkpt lat="46.272045420482755" lon="11.846851268783212">
        <ele>2373.6300000000001</ele>
        <time>2017-07-03T12:07:57Z</time>
      </trkpt>
      <trkpt lat="46.272022621706128" lon="11.846891837194562">
        <ele>2373.6300000000001</ele>
        <time>2017-07-03T12:08:12Z</time>
      </trkpt>
      <trkpt lat="46.272024717181921" lon="11.846905332058668">
        <ele>2374.1100000000001</ele>
        <time>2017-07-03T12:08:28Z</time>
      </trkpt>
      <trkpt lat="46.272020107135177" lon="11.846900386735797">
        <ele>2375.5500000000002</ele>
        <time>2017-07-03T12:08:29Z</time>
      </trkpt>
      <trkpt lat="46.272006947547197" lon="11.846900805830956">
        <ele>2376.04</ele>
        <time>2017-07-03T12:08:38Z</time>
      </trkpt>
      <trkpt lat="46.271984567865729" lon="11.846900638192892">
        <ele>2378.4400000000001</ele>
        <time>2017-07-03T12:08:44Z</time>
      </trkpt>
      <trkpt lat="46.271938299760222" lon="11.846919665113091">
        <ele>2378.9200000000001</ele>
        <time>2017-07-03T12:08:54Z</time>
      </trkpt>
      <trkpt lat="46.271902089938521" lon="11.846936512738466">
        <ele>2381.8000000000002</ele>
        <time>2017-07-03T12:09:06Z</time>
      </trkpt>
      <trkpt lat="46.271876357495785" lon="11.846930058673024">
        <ele>2382.7600000000002</ele>
        <time>2017-07-03T12:09:12Z</time>
      </trkpt>
      <trkpt lat="46.271831765770912" lon="11.84697775170207">
        <ele>2384.21</ele>
        <time>2017-07-03T12:09:22Z</time>
      </trkpt>
      <trkpt lat="46.271817851811647" lon="11.846994766965508">
        <ele>2384.6900000000001</ele>
        <time>2017-07-03T12:09:31Z</time>
      </trkpt>
      <trkpt lat="46.27178474329412" lon="11.847008932381868">
        <ele>2386.1300000000001</ele>
        <time>2017-07-03T12:09:42Z</time>
      </trkpt>
      <trkpt lat="46.271779127418995" lon="11.847006333991885">
        <ele>2387.0900000000001</ele>
        <time>2017-07-03T12:09:43Z</time>
      </trkpt>
      <trkpt lat="46.271762112155557" lon="11.84698554687202">
        <ele>2387.5700000000002</ele>
        <time>2017-07-03T12:09:55Z</time>
      </trkpt>
      <trkpt lat="46.271706204861403" lon="11.846975153312087">
        <ele>2389.4899999999998</ele>
        <time>2017-07-03T12:10:07Z</time>
      </trkpt>
      <trkpt lat="46.271697320044041" lon="11.846987558528781">
        <ele>2390.9400000000001</ele>
        <time>2017-07-03T12:10:18Z</time>
      </trkpt>
      <trkpt lat="46.271688351407647" lon="11.847019996494055">
        <ele>2393.8200000000002</ele>
        <time>2017-07-03T12:10:30Z</time>
      </trkpt>
      <trkpt lat="46.271684328094125" lon="11.847021337598562">
        <ele>2392.3800000000001</ele>
        <time>2017-07-03T12:10:31Z</time>
      </trkpt>
      <trkpt lat="46.271638395264745" lon="11.847045309841633">
        <ele>2394.3000000000002</ele>
        <time>2017-07-03T12:10:43Z</time>
      </trkpt>
      <trkpt lat="46.271628756076097" lon="11.846994934603572">
        <ele>2395.7399999999998</ele>
        <time>2017-07-03T12:10:51Z</time>
      </trkpt>
      <trkpt lat="46.271593971177936" lon="11.846995269879699">
        <ele>2397.1799999999998</ele>
        <time>2017-07-03T12:11:01Z</time>
      </trkpt>
      <trkpt lat="46.271554240956903" lon="11.846980266273022">
        <ele>2398.1500000000001</ele>
        <time>2017-07-03T12:11:14Z</time>
      </trkpt>
      <trkpt lat="46.271537644788623" lon="11.846944224089384">
        <ele>2399.1100000000001</ele>
        <time>2017-07-03T12:11:26Z</time>
      </trkpt>
      <trkpt lat="46.271513504907489" lon="11.846955958753824">
        <ele>2401.0300000000002</ele>
        <time>2017-07-03T12:11:38Z</time>
      </trkpt>
      <trkpt lat="46.271467320621014" lon="11.846947995945811">
        <ele>2403.4299999999998</ele>
        <time>2017-07-03T12:11:55Z</time>
      </trkpt>
      <trkpt lat="46.271394230425358" lon="11.846923856064677">
        <ele>2404.8800000000001</ele>
        <time>2017-07-03T12:12:10Z</time>
      </trkpt>
      <trkpt lat="46.271428763866425" lon="11.84686484746635">
        <ele>2404.8800000000001</ele>
        <time>2017-07-03T12:12:22Z</time>
      </trkpt>
      <trkpt lat="46.271430188789964" lon="11.846802402287722">
        <ele>2406.3200000000002</ele>
        <time>2017-07-03T12:12:33Z</time>
      </trkpt>
      <trkpt lat="46.271396493539214" lon="11.846778765320778">
        <ele>2407.7600000000002</ele>
        <time>2017-07-03T12:12:44Z</time>
      </trkpt>
      <trkpt lat="46.271378388628364" lon="11.846737107262015">
        <ele>2407.2800000000002</ele>
        <time>2017-07-03T12:12:55Z</time>
      </trkpt>
      <trkpt lat="46.271363385021687" lon="11.846733670681715">
        <ele>2410.1599999999999</ele>
        <time>2017-07-03T12:12:59Z</time>
      </trkpt>
      <trkpt lat="46.271345280110836" lon="11.846721936017275">
        <ele>2411.1199999999999</ele>
        <time>2017-07-03T12:13:09Z</time>
      </trkpt>
      <trkpt lat="46.271300604566932" lon="11.846735933795571">
        <ele>2412.0900000000001</ele>
        <time>2017-07-03T12:13:21Z</time>
      </trkpt>
      <trkpt lat="46.271274285390973" lon="11.84668798930943">
        <ele>2413.5300000000002</ele>
        <time>2017-07-03T12:13:32Z</time>
      </trkpt>
      <trkpt lat="46.271224915981293" lon="11.846669381484389">
        <ele>2415.4499999999998</ele>
        <time>2017-07-03T12:13:44Z</time>
      </trkpt>
      <trkpt lat="46.271179150789976" lon="11.846624286845326">
        <ele>2417.8499999999999</ele>
        <time>2017-07-03T12:13:55Z</time>
      </trkpt>
      <trkpt lat="46.271125422790647" lon="11.846597297117114">
        <ele>2419.7800000000002</ele>
        <time>2017-07-03T12:14:09Z</time>
      </trkpt>
      <trkpt lat="46.271102791652083" lon="11.846554046496749">
        <ele>2420.7399999999998</ele>
        <time>2017-07-03T12:14:20Z</time>
      </trkpt>
      <trkpt lat="46.271092314273119" lon="11.846472071483731">
        <ele>2422.1799999999998</ele>
        <time>2017-07-03T12:14:32Z</time>
      </trkpt>
      <trkpt lat="46.271054176613688" lon="11.846427395939827">
        <ele>2422.6599999999999</ele>
        <time>2017-07-03T12:14:43Z</time>
      </trkpt>
      <trkpt lat="46.27100489102304" lon="11.846518674865365">
        <ele>2425.0599999999999</ele>
        <time>2017-07-03T12:14:57Z</time>
      </trkpt>
      <trkpt lat="46.270968094468117" lon="11.846433598548174">
        <ele>2426.9899999999998</ele>
        <time>2017-07-03T12:15:10Z</time>
      </trkpt>
      <trkpt lat="46.270972620695829" lon="11.846387833356857">
        <ele>2427.9499999999998</ele>
        <time>2017-07-03T12:15:22Z</time>
      </trkpt>
      <trkpt lat="46.270954767242074" lon="11.84631516225636">
        <ele>2429.8699999999999</ele>
        <time>2017-07-03T12:15:36Z</time>
      </trkpt>
      <trkpt lat="46.270925011485815" lon="11.84628582559526">
        <ele>2431.3099999999999</ele>
        <time>2017-07-03T12:15:47Z</time>
      </trkpt>
      <trkpt lat="46.27089592628181" lon="11.846294375136495">
        <ele>2434.1999999999998</ele>
        <time>2017-07-03T12:16:00Z</time>
      </trkpt>
      <trkpt lat="46.270869188010693" lon="11.846265457570553">
        <ele>2434.6799999999998</ele>
        <time>2017-07-03T12:16:13Z</time>
      </trkpt>
      <trkpt lat="46.270822752267122" lon="11.846235617995262">
        <ele>2438.04</ele>
        <time>2017-07-03T12:16:27Z</time>
      </trkpt>
      <trkpt lat="46.270778495818377" lon="11.84618666768074">
        <ele>2440.4400000000001</ele>
        <time>2017-07-03T12:16:43Z</time>
      </trkpt>
      <trkpt lat="46.270776987075806" lon="11.846176525577903">
        <ele>2439.96</ele>
        <time>2017-07-03T12:16:55Z</time>
      </trkpt>
      <trkpt lat="46.270776484161615" lon="11.84611433185637">
        <ele>2440.9200000000001</ele>
        <time>2017-07-03T12:17:09Z</time>
      </trkpt>
      <trkpt lat="46.270744381472468" lon="11.846035206690431">
        <ele>2442.3699999999999</ele>
        <time>2017-07-03T12:17:18Z</time>
      </trkpt>
      <trkpt lat="46.27073222771287" lon="11.845953902229667">
        <ele>2442.3699999999999</ele>
        <time>2017-07-03T12:17:28Z</time>
      </trkpt>
      <trkpt lat="46.27070389688015" lon="11.845892881974578">
        <ele>2442.3699999999999</ele>
        <time>2017-07-03T12:17:35Z</time>
      </trkpt>
      <trkpt lat="46.270651342347264" lon="11.845739912241697">
        <ele>2443.3299999999999</ele>
        <time>2017-07-03T12:17:49Z</time>
      </trkpt>
      <trkpt lat="46.270619826391339" lon="11.845616446807981">
        <ele>2444.77</ele>
        <time>2017-07-03T12:18:01Z</time>
      </trkpt>
      <trkpt lat="46.27060130238533" lon="11.845514941960573">
        <ele>2447.1700000000001</ele>
        <time>2017-07-03T12:18:16Z</time>
      </trkpt>
      <trkpt lat="46.270596440881491" lon="11.845432799309492">
        <ele>2449.5799999999999</ele>
        <time>2017-07-03T12:18:29Z</time>
      </trkpt>
      <trkpt lat="46.270582275465131" lon="11.845366917550564">
        <ele>2451.5</ele>
        <time>2017-07-03T12:18:41Z</time>
      </trkpt>
      <trkpt lat="46.270587639883161" lon="11.845311764627695">
        <ele>2452.46</ele>
        <time>2017-07-03T12:18:52Z</time>
      </trkpt>
      <trkpt lat="46.270603900775313" lon="11.845327857881784">
        <ele>2451.98</ele>
        <time>2017-07-03T12:19:08Z</time>
      </trkpt>
      <trkpt lat="46.270599374547601" lon="11.845331126824021">
        <ele>2452.46</ele>
        <time>2017-07-03T12:19:25Z</time>
      </trkpt>
      <trkpt lat="46.270575653761625" lon="11.845243284478784">
        <ele>2453.4200000000001</ele>
        <time>2017-07-03T12:19:44Z</time>
      </trkpt>
      <trkpt lat="46.270548161119223" lon="11.845124512910843">
        <ele>2455.8200000000002</ele>
        <time>2017-07-03T12:19:58Z</time>
      </trkpt>
      <trkpt lat="46.270508598536253" lon="11.845103390514851">
        <ele>2456.79</ele>
        <time>2017-07-03T12:20:10Z</time>
      </trkpt>
      <trkpt lat="46.270484207198024" lon="11.845053182914853">
        <ele>2458.71</ele>
        <time>2017-07-03T12:20:21Z</time>
      </trkpt>
      <trkpt lat="46.270473059266806" lon="11.845024013891816">
        <ele>2460.1500000000001</ele>
        <time>2017-07-03T12:20:31Z</time>
      </trkpt>
      <trkpt lat="46.270440369844437" lon="11.844999454915524">
        <ele>2462.0700000000002</ele>
        <time>2017-07-03T12:20:42Z</time>
      </trkpt>
      <trkpt lat="46.270416146144271" lon="11.844954527914524">
        <ele>2463.52</ele>
        <time>2017-07-03T12:20:54Z</time>
      </trkpt>
      <trkpt lat="46.270406171679497" lon="11.84488395228982">
        <ele>2463.52</ele>
        <time>2017-07-03T12:21:09Z</time>
      </trkpt>
      <trkpt lat="46.2703662738204" lon="11.844846233725548">
        <ele>2465.4400000000001</ele>
        <time>2017-07-03T12:21:22Z</time>
      </trkpt>
      <trkpt lat="46.270307265222073" lon="11.844751182943583">
        <ele>2466.4000000000001</ele>
        <time>2017-07-03T12:21:36Z</time>
      </trkpt>
      <trkpt lat="46.270248927175999" lon="11.8446552939713">
        <ele>2466.8800000000001</ele>
        <time>2017-07-03T12:21:48Z</time>
      </trkpt>
      <trkpt lat="46.270195199176669" lon="11.844584299251437">
        <ele>2468.8000000000002</ele>
        <time>2017-07-03T12:22:02Z</time>
      </trkpt>
      <trkpt lat="46.270149266347289" lon="11.844520512968302">
        <ele>2470.73</ele>
        <time>2017-07-03T12:22:13Z</time>
      </trkpt>
      <trkpt lat="46.270140800625086" lon="11.844403753057122">
        <ele>2471.6900000000001</ele>
        <time>2017-07-03T12:22:25Z</time>
      </trkpt>
      <trkpt lat="46.270154379308224" lon="11.844326723366976">
        <ele>2474.5700000000002</ele>
        <time>2017-07-03T12:22:36Z</time>
      </trkpt>
      <trkpt lat="46.270086737349629" lon="11.844262182712555">
        <ele>2475.0500000000002</ele>
        <time>2017-07-03T12:22:51Z</time>
      </trkpt>
      <trkpt lat="46.270041055977345" lon="11.844194792211056">
        <ele>2477.4499999999998</ele>
        <time>2017-07-03T12:23:07Z</time>
      </trkpt>
      <trkpt lat="46.270026303827763" lon="11.8441441655159">
        <ele>2479.3800000000001</ele>
        <time>2017-07-03T12:23:19Z</time>
      </trkpt>
      <trkpt lat="46.270018257200718" lon="11.844090605154634">
        <ele>2479.8600000000001</ele>
        <time>2017-07-03T12:23:34Z</time>
      </trkpt>
      <trkpt lat="46.269973665475845" lon="11.843980802223086">
        <ele>2482.2600000000002</ele>
        <time>2017-07-03T12:23:49Z</time>
      </trkpt>
      <trkpt lat="46.269946256652474" lon="11.843957081437111">
        <ele>2484.6599999999999</ele>
        <time>2017-07-03T12:24:01Z</time>
      </trkpt>
      <trkpt lat="46.269924128428102" lon="11.843929756432772">
        <ele>2484.6599999999999</ele>
        <time>2017-07-03T12:24:21Z</time>
      </trkpt>
      <trkpt lat="46.269855480641127" lon="11.84387594461441">
        <ele>2486.1100000000001</ele>
        <time>2017-07-03T12:24:33Z</time>
      </trkpt>
      <trkpt lat="46.269799908623099" lon="11.84380847029388">
        <ele>2487.0700000000002</ele>
        <time>2017-07-03T12:24:43Z</time>
      </trkpt>
      <trkpt lat="46.269748695194721" lon="11.843722136691213">
        <ele>2488.5100000000002</ele>
        <time>2017-07-03T12:24:54Z</time>
      </trkpt>
      <trkpt lat="46.269721454009414" lon="11.843696907162666">
        <ele>2488.0300000000002</ele>
        <time>2017-07-03T12:24:58Z</time>
      </trkpt>
      <trkpt lat="46.269663870334625" lon="11.843584505841136">
        <ele>2488.9899999999998</ele>
        <time>2017-07-03T12:25:10Z</time>
      </trkpt>
      <trkpt lat="46.269626319408417" lon="11.843478810042143">
        <ele>2490.9099999999999</ele>
        <time>2017-07-03T12:25:22Z</time>
      </trkpt>
      <trkpt lat="46.269597318023443" lon="11.843381244689226">
        <ele>2493.3200000000002</ele>
        <time>2017-07-03T12:25:35Z</time>
      </trkpt>
      <trkpt lat="46.269573345780373" lon="11.843330450356007">
        <ele>2494.2800000000002</ele>
        <time>2017-07-03T12:25:44Z</time>
      </trkpt>
      <trkpt lat="46.269539231434464" lon="11.843271525576711">
        <ele>2495.7199999999998</ele>
        <time>2017-07-03T12:25:56Z</time>
      </trkpt>
      <trkpt lat="46.26948525197804" lon="11.843221401795745">
        <ele>2497.6399999999999</ele>
        <time>2017-07-03T12:26:08Z</time>
      </trkpt>
      <trkpt lat="46.269445605576038" lon="11.843177732080221">
        <ele>2499.0799999999999</ele>
        <time>2017-07-03T12:26:18Z</time>
      </trkpt>
      <trkpt lat="46.269408306106925" lon="11.843137415125966">
        <ele>2501.0100000000002</ele>
        <time>2017-07-03T12:26:29Z</time>
      </trkpt>
      <trkpt lat="46.26941341906786" lon="11.843099612742662">
        <ele>2502.4499999999998</ele>
        <time>2017-07-03T12:26:38Z</time>
      </trkpt>
      <trkpt lat="46.269386680796742" lon="11.843027947470546">
        <ele>2501.9699999999998</ele>
        <time>2017-07-03T12:26:49Z</time>
      </trkpt>
      <trkpt lat="46.269379388540983" lon="11.842918815091252">
        <ele>2503.8899999999999</ele>
        <time>2017-07-03T12:27:00Z</time>
      </trkpt>
      <trkpt lat="46.269362540915608" lon="11.84279752895236">
        <ele>2504.3699999999999</ele>
        <time>2017-07-03T12:27:11Z</time>
      </trkpt>
      <trkpt lat="46.269344855099916" lon="11.842678589746356">
        <ele>2505.8099999999999</ele>
        <time>2017-07-03T12:27:25Z</time>
      </trkpt>
      <trkpt lat="46.269330270588398" lon="11.842545233666897">
        <ele>2506.77</ele>
        <time>2017-07-03T12:27:37Z</time>
      </trkpt>
      <trkpt lat="46.269282661378384" lon="11.8425053358078">
        <ele>2507.7399999999998</ele>
        <time>2017-07-03T12:27:47Z</time>
      </trkpt>
      <trkpt lat="46.269241003319621" lon="11.842395029962063">
        <ele>2509.1799999999998</ele>
        <time>2017-07-03T12:27:59Z</time>
      </trkpt>
      <trkpt lat="46.269202614203095" lon="11.842346247285604">
        <ele>2509.1799999999998</ele>
        <time>2017-07-03T12:28:05Z</time>
      </trkpt>
      <trkpt lat="46.269134134054184" lon="11.842304086312652">
        <ele>2509.6599999999999</ele>
        <time>2017-07-03T12:28:16Z</time>
      </trkpt>
      <trkpt lat="46.269098008051515" lon="11.842291681095958">
        <ele>2511.0999999999999</ele>
        <time>2017-07-03T12:28:23Z</time>
      </trkpt>
      <trkpt lat="46.269028186798096" lon="11.842273157089949">
        <ele>2512.54</ele>
        <time>2017-07-03T12:28:36Z</time>
      </trkpt>
      <trkpt lat="46.269002286717296" lon="11.84221163392067">
        <ele>2513.98</ele>
        <time>2017-07-03T12:28:46Z</time>
      </trkpt>
      <trkpt lat="46.26893162727356" lon="11.842231247574091">
        <ele>2516.8699999999999</ele>
        <time>2017-07-03T12:28:59Z</time>
      </trkpt>
      <trkpt lat="46.268869768828154" lon="11.84220040217042">
        <ele>2519.27</ele>
        <time>2017-07-03T12:29:12Z</time>
      </trkpt>
      <trkpt lat="46.268843365833163" lon="11.842161007225513">
        <ele>2518.3099999999999</ele>
        <time>2017-07-03T12:29:20Z</time>
      </trkpt>
      <trkpt lat="46.268805731087923" lon="11.842121696099639">
        <ele>2520.71</ele>
        <time>2017-07-03T12:29:29Z</time>
      </trkpt>
      <trkpt lat="46.268788715824485" lon="11.842148099094629">
        <ele>2521.6799999999998</ele>
        <time>2017-07-03T12:29:41Z</time>
      </trkpt>
      <trkpt lat="46.268712859600782" lon="11.842140890657902">
        <ele>2523.5999999999999</ele>
        <time>2017-07-03T12:29:54Z</time>
      </trkpt>
      <trkpt lat="46.268648486584425" lon="11.842097220942378">
        <ele>2526</ele>
        <time>2017-07-03T12:30:07Z</time>
      </trkpt>
      <trkpt lat="46.26860624179244" lon="11.842012479901314">
        <ele>2526.96</ele>
        <time>2017-07-03T12:30:20Z</time>
      </trkpt>
      <trkpt lat="46.268598195165396" lon="11.842007534578443">
        <ele>2527.9200000000001</ele>
        <time>2017-07-03T12:30:22Z</time>
      </trkpt>
      <trkpt lat="46.268575731664896" lon="11.841918854042888">
        <ele>2528.8899999999999</ele>
        <time>2017-07-03T12:30:34Z</time>
      </trkpt>
      <trkpt lat="46.268527200445533" lon="11.841859510168433">
        <ele>2531.29</ele>
        <time>2017-07-03T12:30:48Z</time>
      </trkpt>
      <trkpt lat="46.268496606498957" lon="11.841852217912674">
        <ele>2532.73</ele>
        <time>2017-07-03T12:31:01Z</time>
      </trkpt>
      <trkpt lat="46.268452601507306" lon="11.841766303405166">
        <ele>2534.1700000000001</ele>
        <time>2017-07-03T12:31:13Z</time>
      </trkpt>
      <trkpt lat="46.268441118299961" lon="11.841703271493316">
        <ele>2535.6100000000001</ele>
        <time>2017-07-03T12:31:24Z</time>
      </trkpt>
      <trkpt lat="46.26846550963819" lon="11.841713665053248">
        <ele>2536.0999999999999</ele>
        <time>2017-07-03T12:31:44Z</time>
      </trkpt>
      <trkpt lat="46.268475987017155" lon="11.841712826862931">
        <ele>2536.0999999999999</ele>
        <time>2017-07-03T12:31:59Z</time>
      </trkpt>
      <trkpt lat="46.268469365313649" lon="11.841646693646908">
        <ele>2536.0999999999999</ele>
        <time>2017-07-03T12:32:09Z</time>
      </trkpt>
      <trkpt lat="46.268446315079927" lon="11.841545691713691">
        <ele>2536.5799999999999</ele>
        <time>2017-07-03T12:32:20Z</time>
      </trkpt>
      <trkpt lat="46.268414380028844" lon="11.841501435264945">
        <ele>2535.6100000000001</ele>
        <time>2017-07-03T12:32:25Z</time>
      </trkpt>
      <trkpt lat="46.268383534625173" lon="11.841465476900339">
        <ele>2537.54</ele>
        <time>2017-07-03T12:32:31Z</time>
      </trkpt>
      <trkpt lat="46.268344642594457" lon="11.841414514929056">
        <ele>2540.4200000000001</ele>
        <time>2017-07-03T12:32:43Z</time>
      </trkpt>
      <trkpt lat="46.268274988979101" lon="11.84134335257113">
        <ele>2539.9400000000001</ele>
        <time>2017-07-03T12:32:55Z</time>
      </trkpt>
      <trkpt lat="46.268192008137703" lon="11.841257438063622">
        <ele>2542.3400000000001</ele>
        <time>2017-07-03T12:33:08Z</time>
      </trkpt>
      <trkpt lat="46.268128389492631" lon="11.841169344261289">
        <ele>2542.8200000000002</ele>
        <time>2017-07-03T12:33:20Z</time>
      </trkpt>
      <trkpt lat="46.26805261708796" lon="11.84103456325829">
        <ele>2544.27</ele>
        <time>2017-07-03T12:33:34Z</time>
      </trkpt>
      <trkpt lat="46.267958404496312" lon="11.840952588245273">
        <ele>2545.71</ele>
        <time>2017-07-03T12:33:48Z</time>
      </trkpt>
      <trkpt lat="46.267904760316014" lon="11.840941272675991">
        <ele>2547.1500000000001</ele>
        <time>2017-07-03T12:34:02Z</time>
      </trkpt>
      <trkpt lat="46.267881542444229" lon="11.84093582443893">
        <ele>2546.6700000000001</ele>
        <time>2017-07-03T12:34:18Z</time>
      </trkpt>
      <trkpt lat="46.267832675948739" lon="11.840934650972486">
        <ele>2548.1100000000001</ele>
        <time>2017-07-03T12:34:27Z</time>
      </trkpt>
      <trkpt lat="46.267775008454919" lon="11.840937919914722">
        <ele>2549.5500000000002</ele>
        <time>2017-07-03T12:34:37Z</time>
      </trkpt>
      <trkpt lat="46.267723124474287" lon="11.840943954885006">
        <ele>2550.0300000000002</ele>
        <time>2017-07-03T12:34:46Z</time>
      </trkpt>
      <trkpt lat="46.267649615183473" lon="11.840950073674321">
        <ele>2551</ele>
        <time>2017-07-03T12:34:56Z</time>
      </trkpt>
      <trkpt lat="46.267581721767783" lon="11.840948648750782">
        <ele>2551.96</ele>
        <time>2017-07-03T12:35:05Z</time>
      </trkpt>
      <trkpt lat="46.26750729046762" lon="11.840918138623238">
        <ele>2552.9200000000001</ele>
        <time>2017-07-03T12:35:15Z</time>
      </trkpt>
      <trkpt lat="46.267445180565119" lon="11.840922413393855">
        <ele>2553.8800000000001</ele>
        <time>2017-07-03T12:35:26Z</time>
      </trkpt>
      <trkpt lat="46.267380053177476" lon="11.840951414778829">
        <ele>2554.8400000000001</ele>
        <time>2017-07-03T12:35:36Z</time>
      </trkpt>
      <trkpt lat="46.267319284379482" lon="11.840985612943769">
        <ele>2555.8000000000002</ele>
        <time>2017-07-03T12:35:46Z</time>
      </trkpt>
      <trkpt lat="46.267263209447265" lon="11.84098175726831">
        <ele>2556.7600000000002</ele>
        <time>2017-07-03T12:35:56Z</time>
      </trkpt>
      <trkpt lat="46.267163380980492" lon="11.841006819158792">
        <ele>2557.73</ele>
        <time>2017-07-03T12:36:10Z</time>
      </trkpt>
      <trkpt lat="46.267101438716054" lon="11.841050153598189">
        <ele>2559.1700000000001</ele>
        <time>2017-07-03T12:36:22Z</time>
      </trkpt>
      <trkpt lat="46.267038574442267" lon="11.841080076992512">
        <ele>2560.6100000000001</ele>
        <time>2017-07-03T12:36:34Z</time>
      </trkpt>
      <trkpt lat="46.267002196982503" lon="11.841008244082332">
        <ele>2561.5700000000002</ele>
        <time>2017-07-03T12:36:47Z</time>
      </trkpt>
      <trkpt lat="46.266993898898363" lon="11.840959377586842">
        <ele>2562.5300000000002</ele>
        <time>2017-07-03T12:36:58Z</time>
      </trkpt>
      <trkpt lat="46.26696883700788" lon="11.840888299047947">
        <ele>2564.9299999999998</ele>
        <time>2017-07-03T12:37:11Z</time>
      </trkpt>
      <trkpt lat="46.266974955797195" lon="11.840891484171152">
        <ele>2565.4200000000001</ele>
        <time>2017-07-03T12:37:22Z</time>
      </trkpt>
      <trkpt lat="46.266965148970485" lon="11.840870277956128">
        <ele>2565.4200000000001</ele>
        <time>2017-07-03T12:37:38Z</time>
      </trkpt>
      <trkpt lat="46.266965484246612" lon="11.840869607403874">
        <ele>2564.9299999999998</ele>
        <time>2017-07-03T12:37:53Z</time>
      </trkpt>
      <trkpt lat="46.266965735703707" lon="11.840874720364809">
        <ele>2565.4200000000001</ele>
        <time>2017-07-03T12:38:12Z</time>
      </trkpt>
      <trkpt lat="46.26696296967566" lon="11.840868098661304">
        <ele>2564.9299999999998</ele>
        <time>2017-07-03T12:38:28Z</time>
      </trkpt>
      <trkpt lat="46.266963975504041" lon="11.840878827497363">
        <ele>2566.3800000000001</ele>
        <time>2017-07-03T12:38:43Z</time>
      </trkpt>
      <trkpt lat="46.266966490074992" lon="11.840874720364809">
        <ele>2564.9299999999998</ele>
        <time>2017-07-03T12:38:58Z</time>
      </trkpt>
      <trkpt lat="46.266972022131085" lon="11.840875307098031">
        <ele>2564.9299999999998</ele>
        <time>2017-07-03T12:39:17Z</time>
      </trkpt>
      <trkpt lat="46.266975039616227" lon="11.840877570211887">
        <ele>2565.4200000000001</ele>
        <time>2017-07-03T12:39:33Z</time>
      </trkpt>
      <trkpt lat="46.266976799815893" lon="11.840879749506712">
        <ele>2565.4200000000001</ele>
        <time>2017-07-03T12:39:48Z</time>
      </trkpt>
      <trkpt lat="46.266970848664641" lon="11.84090212918818">
        <ele>2565.9000000000001</ele>
        <time>2017-07-03T12:40:11Z</time>
      </trkpt>
      <trkpt lat="46.266970597207546" lon="11.840872624889016">
        <ele>2565.9000000000001</ele>
        <time>2017-07-03T12:40:32Z</time>
      </trkpt>
      <trkpt lat="46.266964478418231" lon="11.840854352340102">
        <ele>2565.9000000000001</ele>
        <time>2017-07-03T12:40:51Z</time>
      </trkpt>
      <trkpt lat="46.266962299123406" lon="11.840875055640936">
        <ele>2565.4200000000001</ele>
        <time>2017-07-03T12:41:07Z</time>
      </trkpt>
      <trkpt lat="46.266960203647614" lon="11.840847311541438">
        <ele>2565.9000000000001</ele>
        <time>2017-07-03T12:41:19Z</time>
      </trkpt>
      <trkpt lat="46.266982164233923" lon="11.840866003185511">
        <ele>2565.9000000000001</ele>
        <time>2017-07-03T12:41:37Z</time>
      </trkpt>
      <trkpt lat="46.266983253881335" lon="11.840863069519401">
        <ele>2565.9000000000001</ele>
        <time>2017-07-03T12:41:50Z</time>
      </trkpt>
      <trkpt lat="46.266970681026578" lon="11.840901710093021">
        <ele>2566.3800000000001</ele>
        <time>2017-07-03T12:42:03Z</time>
      </trkpt>
      <trkpt lat="46.266965316608548" lon="11.840902213007212">
        <ele>2565.9000000000001</ele>
        <time>2017-07-03T12:42:20Z</time>
      </trkpt>
      <trkpt lat="46.266954001039267" lon="11.840891232714057">
        <ele>2565.9000000000001</ele>
        <time>2017-07-03T12:42:44Z</time>
      </trkpt>
      <trkpt lat="46.266954839229584" lon="11.840872624889016">
        <ele>2565.9000000000001</ele>
        <time>2017-07-03T12:42:57Z</time>
      </trkpt>
      <trkpt lat="46.266964981332421" lon="11.840776735916734">
        <ele>2566.3800000000001</ele>
        <time>2017-07-03T12:43:06Z</time>
      </trkpt>
      <trkpt lat="46.266962718218565" lon="11.840723091736436">
        <ele>2566.3800000000001</ele>
        <time>2017-07-03T12:43:10Z</time>
      </trkpt>
      <trkpt lat="46.267007226124406" lon="11.840601554140449">
        <ele>2567.8200000000002</ele>
        <time>2017-07-03T12:43:21Z</time>
      </trkpt>
      <trkpt lat="46.267040334641933" lon="11.840498205274343">
        <ele>2568.3000000000002</ele>
        <time>2017-07-03T12:43:30Z</time>
      </trkpt>
      <trkpt lat="46.26706950366497" lon="11.840387564152479">
        <ele>2569.2600000000002</ele>
        <time>2017-07-03T12:43:40Z</time>
      </trkpt>
      <trkpt lat="46.267096325755119" lon="11.840297542512417">
        <ele>2569.2600000000002</ele>
        <time>2017-07-03T12:43:49Z</time>
      </trkpt>
      <trkpt lat="46.267136391252279" lon="11.840195870026946">
        <ele>2570.6999999999998</ele>
        <time>2017-07-03T12:43:59Z</time>
      </trkpt>
      <trkpt lat="46.26714083366096" lon="11.840159827843308">
        <ele>2570.6999999999998</ele>
        <time>2017-07-03T12:44:02Z</time>
      </trkpt>
      <trkpt lat="46.267148545011878" lon="11.840052455663681">
        <ele>2571.6599999999999</ele>
        <time>2017-07-03T12:44:12Z</time>
      </trkpt>
      <trkpt lat="46.267171343788505" lon="11.839973581954837">
        <ele>2573.1100000000001</ele>
        <time>2017-07-03T12:44:20Z</time>
      </trkpt>
      <trkpt lat="46.267211493104696" lon="11.839873753488064">
        <ele>2573.5900000000001</ele>
        <time>2017-07-03T12:44:29Z</time>
      </trkpt>
      <trkpt lat="46.26724292524159" lon="11.839791024103761">
        <ele>2574.0700000000002</ele>
        <time>2017-07-03T12:44:37Z</time>
      </trkpt>
      <trkpt lat="46.267259605228901" lon="11.839724304154515">
        <ele>2573.5900000000001</ele>
        <time>2017-07-03T12:44:42Z</time>
      </trkpt>
      <trkpt lat="46.267267065122724" lon="11.839568736031651">
        <ele>2574.0700000000002</ele>
        <time>2017-07-03T12:44:53Z</time>
      </trkpt>
      <trkpt lat="46.267289277166128" lon="11.839427165687084">
        <ele>2575.0300000000002</ele>
        <time>2017-07-03T12:45:04Z</time>
      </trkpt>
      <trkpt lat="46.267337808385491" lon="11.839346196502447">
        <ele>2576.4699999999998</ele>
        <time>2017-07-03T12:45:14Z</time>
      </trkpt>
      <trkpt lat="46.267334455624223" lon="11.839264137670398">
        <ele>2576.4699999999998</ele>
        <time>2017-07-03T12:45:23Z</time>
      </trkpt>
      <trkpt lat="46.267331102862954" lon="11.839185180142522">
        <ele>2578.3899999999999</ele>
        <time>2017-07-03T12:45:33Z</time>
      </trkpt>
      <trkpt lat="46.267366474494338" lon="11.839178893715143">
        <ele>2579.3499999999999</ele>
        <time>2017-07-03T12:45:43Z</time>
      </trkpt>
      <trkpt lat="46.267369156703353" lon="11.839151987805963">
        <ele>2580.3200000000002</ele>
        <time>2017-07-03T12:45:51Z</time>
      </trkpt>
      <trkpt lat="46.267375191673636" lon="11.839143102988601">
        <ele>2579.8400000000001</ele>
        <time>2017-07-03T12:46:08Z</time>
      </trkpt>
      <trkpt lat="46.267370330169797" lon="11.839148132130504">
        <ele>2579.8400000000001</ele>
        <time>2017-07-03T12:46:18Z</time>
      </trkpt>
      <trkpt lat="46.267366223037243" lon="11.839177720248699">
        <ele>2578.8699999999999</ele>
        <time>2017-07-03T12:46:27Z</time>
      </trkpt>
      <trkpt lat="46.267353985458612" lon="11.83918853290379">
        <ele>2578.8699999999999</ele>
        <time>2017-07-03T12:46:49Z</time>
      </trkpt>
      <trkpt lat="46.267377538606524" lon="11.839163973927498">
        <ele>2578.8699999999999</ele>
        <time>2017-07-03T12:47:09Z</time>
      </trkpt>
      <trkpt lat="46.267370162531734" lon="11.839184844866395">
        <ele>2578.8699999999999</ele>
        <time>2017-07-03T12:47:35Z</time>
      </trkpt>
      <trkpt lat="46.267367145046592" lon="11.839172774925828">
        <ele>2578.8699999999999</ele>
        <time>2017-07-03T12:48:00Z</time>
      </trkpt>
      <trkpt lat="46.267369659617543" lon="11.839193310588598">
        <ele>2578.8699999999999</ele>
        <time>2017-07-03T12:48:18Z</time>
      </trkpt>
      <trkpt lat="46.267361277714372" lon="11.839195573702455">
        <ele>2578.8699999999999</ele>
        <time>2017-07-03T12:48:31Z</time>
      </trkpt>
      <trkpt lat="46.267353817820549" lon="11.839198842644691">
        <ele>2578.8699999999999</ele>
        <time>2017-07-03T12:48:51Z</time>
      </trkpt>
      <trkpt lat="46.267361110076308" lon="11.839181156829">
        <ele>2578.8699999999999</ele>
        <time>2017-07-03T12:49:11Z</time>
      </trkpt>
      <trkpt lat="46.267371503636241" lon="11.839207308366895">
        <ele>2579.3499999999999</ele>
        <time>2017-07-03T12:49:37Z</time>
      </trkpt>
      <trkpt lat="46.267366893589497" lon="11.839233795180917">
        <ele>2578.8699999999999</ele>
        <time>2017-07-03T12:50:11Z</time>
      </trkpt>
      <trkpt lat="46.267382148653269" lon="11.839221473783255">
        <ele>2578.8699999999999</ele>
        <time>2017-07-03T12:50:36Z</time>
      </trkpt>
      <trkpt lat="46.267372509464622" lon="11.839213594794273">
        <ele>2579.3499999999999</ele>
        <time>2017-07-03T12:50:59Z</time>
      </trkpt>
      <trkpt lat="46.267378376796842" lon="11.839209655299783">
        <ele>2578.8699999999999</ele>
        <time>2017-07-03T12:51:31Z</time>
      </trkpt>
      <trkpt lat="46.267370162531734" lon="11.839220635592937">
        <ele>2579.3499999999999</ele>
        <time>2017-07-03T12:51:54Z</time>
      </trkpt>
      <trkpt lat="46.267375275492668" lon="11.839201441034675">
        <ele>2579.3499999999999</ele>
        <time>2017-07-03T12:52:24Z</time>
      </trkpt>
      <trkpt lat="46.267378460615873" lon="11.839186185970902">
        <ele>2579.3499999999999</ele>
        <time>2017-07-03T12:52:53Z</time>
      </trkpt>
      <trkpt lat="46.267370413988829" lon="11.839209320023656">
        <ele>2579.3499999999999</ele>
        <time>2017-07-03T12:53:24Z</time>
      </trkpt>
      <trkpt lat="46.267374353483319" lon="11.839183000847697">
        <ele>2578.8699999999999</ele>
        <time>2017-07-03T12:53:34Z</time>
      </trkpt>
      <trkpt lat="46.267403354868293" lon="11.839132541790605">
        <ele>2579.8400000000001</ele>
        <time>2017-07-03T12:53:42Z</time>
      </trkpt>
      <trkpt lat="46.267537968233228" lon="11.839107060804963">
        <ele>2579.8400000000001</ele>
        <time>2017-07-03T12:53:57Z</time>
      </trkpt>
      <trkpt lat="46.267546433955431" lon="11.839111167937517">
        <ele>2579.8400000000001</ele>
        <time>2017-07-03T12:53:58Z</time>
      </trkpt>
      <trkpt lat="46.267564706504345" lon="11.839124327525496">
        <ele>2579.8400000000001</ele>
        <time>2017-07-03T12:54:00Z</time>
      </trkpt>
      <trkpt lat="46.267597228288651" lon="11.839200686663389">
        <ele>2580.3200000000002</ele>
        <time>2017-07-03T12:54:06Z</time>
      </trkpt>
      <trkpt lat="46.267503434792161" lon="11.839795801788568">
        <ele>2580.8000000000002</ele>
        <time>2017-07-03T12:54:34Z</time>
      </trkpt>
    </trkseg>
  </trk>

  <trk>
    <name>3-rif-pedrotti-rif-rif-canali-2017-07-04</name>
    <extensions>
      <gpxx:TrackExtension>
        <gpxx:DisplayColor>Yellow</gpxx:DisplayColor>
      </gpxx:TrackExtension>
    </extensions>
    <trkseg>
      <trkpt lat="46.267343005165458" lon="11.839335635304451">
        <ele>2592.3299999999999</ele>
        <time>2017-07-04T06:03:04Z</time>
      </trkpt>
      <trkpt lat="46.267342502251267" lon="11.839336222037673">
        <ele>2592.3299999999999</ele>
        <time>2017-07-04T06:03:05Z</time>
      </trkpt>
      <trkpt lat="46.267340993508697" lon="11.839327169582248">
        <ele>2589.4499999999998</ele>
        <time>2017-07-04T06:03:11Z</time>
      </trkpt>
      <trkpt lat="46.267340909689665" lon="11.839331863448024">
        <ele>2590.4099999999999</ele>
        <time>2017-07-04T06:03:14Z</time>
      </trkpt>
      <trkpt lat="46.267336970195174" lon="11.83934778906405">
        <ele>2590.4099999999999</ele>
        <time>2017-07-04T06:03:26Z</time>
      </trkpt>
      <trkpt lat="46.267330599948764" lon="11.83932825922966">
        <ele>2590.4099999999999</ele>
        <time>2017-07-04T06:03:39Z</time>
      </trkpt>
      <trkpt lat="46.267318278551102" lon="11.839326079934835">
        <ele>2590.4099999999999</ele>
        <time>2017-07-04T06:03:50Z</time>
      </trkpt>
      <trkpt lat="46.267315428704023" lon="11.839299509301782">
        <ele>2589.9299999999998</ele>
        <time>2017-07-04T06:04:05Z</time>
      </trkpt>
      <trkpt lat="46.267319954931736" lon="11.839298754930496">
        <ele>2589.9299999999998</ele>
        <time>2017-07-04T06:04:21Z</time>
      </trkpt>
      <trkpt lat="46.267315009608865" lon="11.839308561757207">
        <ele>2590.4099999999999</ele>
        <time>2017-07-04T06:04:34Z</time>
      </trkpt>
      <trkpt lat="46.267311405390501" lon="11.83935122564435">
        <ele>2590.4099999999999</ele>
        <time>2017-07-04T06:04:45Z</time>
      </trkpt>
      <trkpt lat="46.267349878326058" lon="11.839348375797272">
        <ele>2588.9699999999998</ele>
        <time>2017-07-04T06:04:55Z</time>
      </trkpt>
      <trkpt lat="46.267349794507027" lon="11.83934778906405">
        <ele>2590.4099999999999</ele>
        <time>2017-07-04T06:04:56Z</time>
      </trkpt>
      <trkpt lat="46.267321882769465" lon="11.839365223422647">
        <ele>2590.4099999999999</ele>
        <time>2017-07-04T06:05:05Z</time>
      </trkpt>
      <trkpt lat="46.267306376248598" lon="11.839352482929826">
        <ele>2589.4499999999998</ele>
        <time>2017-07-04T06:05:25Z</time>
      </trkpt>
      <trkpt lat="46.267302185297012" lon="11.839342340826988">
        <ele>2589.9299999999998</ele>
        <time>2017-07-04T06:05:42Z</time>
      </trkpt>
      <trkpt lat="46.267302939668298" lon="11.839329181239009">
        <ele>2589.4499999999998</ele>
        <time>2017-07-04T06:05:55Z</time>
      </trkpt>
      <trkpt lat="46.267300760373473" lon="11.839306633919477">
        <ele>2589.4499999999998</ele>
        <time>2017-07-04T06:06:09Z</time>
      </trkpt>
      <trkpt lat="46.267288355156779" lon="11.839390369132161">
        <ele>2589.4499999999998</ele>
        <time>2017-07-04T06:06:24Z</time>
      </trkpt>
      <trkpt lat="46.267201267182827" lon="11.839397577568889">
        <ele>2586.5599999999999</ele>
        <time>2017-07-04T06:06:36Z</time>
      </trkpt>
      <trkpt lat="46.267084674909711" lon="11.839465135708451">
        <ele>2584.6399999999999</ele>
        <time>2017-07-04T06:06:50Z</time>
      </trkpt>
      <trkpt lat="46.267077047377825" lon="11.839337311685085">
        <ele>2582.2399999999998</ele>
        <time>2017-07-04T06:06:59Z</time>
      </trkpt>
      <trkpt lat="46.267073526978493" lon="11.839329265058041">
        <ele>2582.7199999999998</ele>
        <time>2017-07-04T06:07:12Z</time>
      </trkpt>
      <trkpt lat="46.267080148681998" lon="11.839336808770895">
        <ele>2582.7199999999998</ele>
        <time>2017-07-04T06:07:26Z</time>
      </trkpt>
      <trkpt lat="46.267054500058293" lon="11.839326499029994">
        <ele>2582.2399999999998</ele>
        <time>2017-07-04T06:07:42Z</time>
      </trkpt>
      <trkpt lat="46.266992557793856" lon="11.83931116014719">
        <ele>2581.7600000000002</ele>
        <time>2017-07-04T06:07:52Z</time>
      </trkpt>
      <trkpt lat="46.266933884471655" lon="11.839337395504117">
        <ele>2579.3499999999999</ele>
        <time>2017-07-04T06:08:01Z</time>
      </trkpt>
      <trkpt lat="46.26687060110271" lon="11.83920856565237">
        <ele>2578.3899999999999</ele>
        <time>2017-07-04T06:08:13Z</time>
      </trkpt>
      <trkpt lat="46.266817292198539" lon="11.839162884280086">
        <ele>2577.9099999999999</ele>
        <time>2017-07-04T06:08:23Z</time>
      </trkpt>
      <trkpt lat="46.266805557534099" lon="11.839159363880754">
        <ele>2577.9099999999999</ele>
        <time>2017-07-04T06:08:24Z</time>
      </trkpt>
      <trkpt lat="46.266750739887357" lon="11.83917336165905">
        <ele>2576.4699999999998</ele>
        <time>2017-07-04T06:08:34Z</time>
      </trkpt>
      <trkpt lat="46.26675333827734" lon="11.839177049696445">
        <ele>2575.9899999999998</ele>
        <time>2017-07-04T06:08:36Z</time>
      </trkpt>
      <trkpt lat="46.26658377237618" lon="11.839192640036345">
        <ele>2574.5500000000002</ele>
        <time>2017-07-04T06:08:48Z</time>
      </trkpt>
      <trkpt lat="46.266425438225269" lon="11.839195657521486">
        <ele>2575.0300000000002</ele>
        <time>2017-07-04T06:09:01Z</time>
      </trkpt>
      <trkpt lat="46.266329381614923" lon="11.839239243417978">
        <ele>2576.9499999999998</ele>
        <time>2017-07-04T06:09:12Z</time>
      </trkpt>
      <trkpt lat="46.266299290582538" lon="11.839229939505458">
        <ele>2576.9499999999998</ele>
        <time>2017-07-04T06:09:15Z</time>
      </trkpt>
      <trkpt lat="46.2661665212363" lon="11.839142683893442">
        <ele>2577.9099999999999</ele>
        <time>2017-07-04T06:09:29Z</time>
      </trkpt>
      <trkpt lat="46.26611178740859" lon="11.839124327525496">
        <ele>2578.8699999999999</ele>
        <time>2017-07-04T06:09:39Z</time>
      </trkpt>
      <trkpt lat="46.266124779358506" lon="11.83907512575388">
        <ele>2578.8699999999999</ele>
        <time>2017-07-04T06:09:48Z</time>
      </trkpt>
      <trkpt lat="46.266087396070361" lon="11.839035311713815">
        <ele>2579.3499999999999</ele>
        <time>2017-07-04T06:09:56Z</time>
      </trkpt>
      <trkpt lat="46.266066525131464" lon="11.839028103277087">
        <ele>2579.8400000000001</ele>
        <time>2017-07-04T06:10:06Z</time>
      </trkpt>
      <trkpt lat="46.26601941883564" lon="11.839097505435348">
        <ele>2581.7600000000002</ele>
        <time>2017-07-04T06:10:16Z</time>
      </trkpt>
      <trkpt lat="46.266014808788896" lon="11.839148802682757">
        <ele>2581.7600000000002</ele>
        <time>2017-07-04T06:10:20Z</time>
      </trkpt>
      <trkpt lat="46.265994692221284" lon="11.839180486276746">
        <ele>2582.2399999999998</ele>
        <time>2017-07-04T06:10:23Z</time>
      </trkpt>
      <trkpt lat="46.265892684459686" lon="11.839253911748528">
        <ele>2582.2399999999998</ele>
        <time>2017-07-04T06:10:33Z</time>
      </trkpt>
      <trkpt lat="46.265851277858019" lon="11.839261706918478">
        <ele>2582.2399999999998</ele>
        <time>2017-07-04T06:10:38Z</time>
      </trkpt>
      <trkpt lat="46.265835603699088" lon="11.839261874556541">
        <ele>2582.2399999999998</ele>
        <time>2017-07-04T06:10:40Z</time>
      </trkpt>
      <trkpt lat="46.265704426914454" lon="11.839330354705453">
        <ele>2582.7199999999998</ele>
        <time>2017-07-04T06:10:54Z</time>
      </trkpt>
      <trkpt lat="46.265570651739836" lon="11.839389363303781">
        <ele>2583.1999999999998</ele>
        <time>2017-07-04T06:11:06Z</time>
      </trkpt>
      <trkpt lat="46.265486245974898" lon="11.839354410767555">
        <ele>2583.1999999999998</ele>
        <time>2017-07-04T06:11:14Z</time>
      </trkpt>
      <trkpt lat="46.265321457758546" lon="11.83940495364368">
        <ele>2584.1599999999999</ele>
        <time>2017-07-04T06:11:30Z</time>
      </trkpt>
      <trkpt lat="46.265186006203294" lon="11.839451724663377">
        <ele>2584.6399999999999</ele>
        <time>2017-07-04T06:11:44Z</time>
      </trkpt>
      <trkpt lat="46.26503974199295" lon="11.839524060487747">
        <ele>2584.6399999999999</ele>
        <time>2017-07-04T06:11:58Z</time>
      </trkpt>
      <trkpt lat="46.264894148334861" lon="11.839553061872721">
        <ele>2585.1199999999999</ele>
        <time>2017-07-04T06:12:11Z</time>
      </trkpt>
      <trkpt lat="46.26478367485106" lon="11.839563539251685">
        <ele>2585.5999999999999</ele>
        <time>2017-07-04T06:12:22Z</time>
      </trkpt>
      <trkpt lat="46.26470111310482" lon="11.839620368555188">
        <ele>2585.5999999999999</ele>
        <time>2017-07-04T06:12:32Z</time>
      </trkpt>
      <trkpt lat="46.264636823907495" lon="11.839695805683732">
        <ele>2586.0799999999999</ele>
        <time>2017-07-04T06:12:44Z</time>
      </trkpt>
      <trkpt lat="46.264616623520851" lon="11.839671665802598">
        <ele>2586.0799999999999</ele>
        <time>2017-07-04T06:12:54Z</time>
      </trkpt>
      <trkpt lat="46.264493996277452" lon="11.839828742668033">
        <ele>2585.1199999999999</ele>
        <time>2017-07-04T06:13:08Z</time>
      </trkpt>
      <trkpt lat="46.264390479773283" lon="11.839990178123116">
        <ele>2583.1999999999998</ele>
        <time>2017-07-04T06:13:22Z</time>
      </trkpt>
      <trkpt lat="46.264370195567608" lon="11.840033512562513">
        <ele>2583.1999999999998</ele>
        <time>2017-07-04T06:13:25Z</time>
      </trkpt>
      <trkpt lat="46.264330381527543" lon="11.840089000761509">
        <ele>2582.7199999999998</ele>
        <time>2017-07-04T06:13:37Z</time>
      </trkpt>
      <trkpt lat="46.26430775038898" lon="11.840057652443647">
        <ele>2581.7600000000002</ele>
        <time>2017-07-04T06:13:47Z</time>
      </trkpt>
      <trkpt lat="46.264339853078127" lon="11.839882303029299">
        <ele>2580.8000000000002</ele>
        <time>2017-07-04T06:14:01Z</time>
      </trkpt>
      <trkpt lat="46.264351839199662" lon="11.839808458462358">
        <ele>2580.3200000000002</ele>
        <time>2017-07-04T06:14:07Z</time>
      </trkpt>
      <trkpt lat="46.264339685440063" lon="11.839800076559186">
        <ele>2579.3499999999999</ele>
        <time>2017-07-04T06:14:14Z</time>
      </trkpt>
      <trkpt lat="46.264236839488149" lon="11.840002750977874">
        <ele>2578.3899999999999</ele>
        <time>2017-07-04T06:14:29Z</time>
      </trkpt>
      <trkpt lat="46.26413818448782" lon="11.840145830065012">
        <ele>2577.9099999999999</ele>
        <time>2017-07-04T06:14:42Z</time>
      </trkpt>
      <trkpt lat="46.264102896675467" lon="11.840209029614925">
        <ele>2577.4299999999998</ele>
        <time>2017-07-04T06:14:47Z</time>
      </trkpt>
      <trkpt lat="46.264021005481482" lon="11.840377757325768">
        <ele>2575.9899999999998</ele>
        <time>2017-07-04T06:15:00Z</time>
      </trkpt>
      <trkpt lat="46.26399745233357" lon="11.840383876115084">
        <ele>2575.5100000000002</ele>
        <time>2017-07-04T06:15:03Z</time>
      </trkpt>
      <trkpt lat="46.26387826167047" lon="11.840507425367832">
        <ele>2574.0700000000002</ele>
        <time>2017-07-04T06:15:17Z</time>
      </trkpt>
      <trkpt lat="46.263802321627736" lon="11.840546736493707">
        <ele>2572.6300000000001</ele>
        <time>2017-07-04T06:15:28Z</time>
      </trkpt>
      <trkpt lat="46.263808188959956" lon="11.840527039021254">
        <ele>2572.6300000000001</ele>
        <time>2017-07-04T06:15:29Z</time>
      </trkpt>
      <trkpt lat="46.263867616653442" lon="11.840418158099055">
        <ele>2572.1399999999999</ele>
        <time>2017-07-04T06:15:42Z</time>
      </trkpt>
      <trkpt lat="46.263891002163291" lon="11.840354204177856">
        <ele>2571.6599999999999</ele>
        <time>2017-07-04T06:15:54Z</time>
      </trkpt>
      <trkpt lat="46.263970043510199" lon="11.840218417346478">
        <ele>2570.2199999999998</ele>
        <time>2017-07-04T06:16:04Z</time>
      </trkpt>
      <trkpt lat="46.264022765681148" lon="11.840023370459676">
        <ele>2569.2600000000002</ele>
        <time>2017-07-04T06:16:15Z</time>
      </trkpt>
      <trkpt lat="46.264090156182647" lon="11.839859001338482">
        <ele>2569.2600000000002</ele>
        <time>2017-07-04T06:16:25Z</time>
      </trkpt>
      <trkpt lat="46.264100214466453" lon="11.839830335229635">
        <ele>2569.2600000000002</ele>
        <time>2017-07-04T06:16:27Z</time>
      </trkpt>
      <trkpt lat="46.264164336025715" lon="11.839620871469378">
        <ele>2569.2600000000002</ele>
        <time>2017-07-04T06:16:41Z</time>
      </trkpt>
      <trkpt lat="46.264213621616364" lon="11.839409815147519">
        <ele>2568.3000000000002</ele>
        <time>2017-07-04T06:16:54Z</time>
      </trkpt>
      <trkpt lat="46.264277994632721" lon="11.839196914806962">
        <ele>2567.3400000000001</ele>
        <time>2017-07-04T06:17:08Z</time>
      </trkpt>
      <trkpt lat="46.26435418613255" lon="11.839075796306133">
        <ele>2565.4200000000001</ele>
        <time>2017-07-04T06:17:18Z</time>
      </trkpt>
      <trkpt lat="46.264389641582966" lon="11.838997257873416">
        <ele>2564.9299999999998</ele>
        <time>2017-07-04T06:17:24Z</time>
      </trkpt>
      <trkpt lat="46.264406489208341" lon="11.838976722210646">
        <ele>2564.9299999999998</ele>
        <time>2017-07-04T06:17:26Z</time>
      </trkpt>
      <trkpt lat="46.264578234404325" lon="11.838968591764569">
        <ele>2563.4899999999998</ele>
        <time>2017-07-04T06:17:42Z</time>
      </trkpt>
      <trkpt lat="46.264618802815676" lon="11.838961550965905">
        <ele>2562.5300000000002</ele>
        <time>2017-07-04T06:17:49Z</time>
      </trkpt>
      <trkpt lat="46.26460581086576" lon="11.838931208476424">
        <ele>2562.0500000000002</ele>
        <time>2017-07-04T06:17:52Z</time>
      </trkpt>
      <trkpt lat="46.264667082577944" lon="11.838937327265739">
        <ele>2560.1300000000001</ele>
        <time>2017-07-04T06:18:02Z</time>
      </trkpt>
      <trkpt lat="46.264627017080784" lon="11.838899860158563">
        <ele>2559.1700000000001</ele>
        <time>2017-07-04T06:18:06Z</time>
      </trkpt>
      <trkpt lat="46.264596255496144" lon="11.838807491585612">
        <ele>2557.73</ele>
        <time>2017-07-04T06:18:14Z</time>
      </trkpt>
      <trkpt lat="46.264623999595642" lon="11.838778490200639">
        <ele>2557.2399999999998</ele>
        <time>2017-07-04T06:18:17Z</time>
      </trkpt>
      <trkpt lat="46.264657778665423" lon="11.838764576241374">
        <ele>2556.7600000000002</ele>
        <time>2017-07-04T06:18:20Z</time>
      </trkpt>
      <trkpt lat="46.264695497229695" lon="11.838737586513162">
        <ele>2556.7600000000002</ele>
        <time>2017-07-04T06:18:31Z</time>
      </trkpt>
      <trkpt lat="46.264682421460748" lon="11.838722582906485">
        <ele>2556.2800000000002</ele>
        <time>2017-07-04T06:18:42Z</time>
      </trkpt>
      <trkpt lat="46.264675799757242" lon="11.838723756372929">
        <ele>2555.3200000000002</ele>
        <time>2017-07-04T06:18:52Z</time>
      </trkpt>
      <trkpt lat="46.264665154740214" lon="11.838716799393296">
        <ele>2556.2800000000002</ele>
        <time>2017-07-04T06:19:09Z</time>
      </trkpt>
      <trkpt lat="46.264664987102151" lon="11.838722666725516">
        <ele>2555.8000000000002</ele>
        <time>2017-07-04T06:19:21Z</time>
      </trkpt>
      <trkpt lat="46.264665070921183" lon="11.838723588734865">
        <ele>2556.2800000000002</ele>
        <time>2017-07-04T06:19:33Z</time>
      </trkpt>
      <trkpt lat="46.264660879969597" lon="11.838718727231026">
        <ele>2555.8000000000002</ele>
        <time>2017-07-04T06:19:42Z</time>
      </trkpt>
      <trkpt lat="46.264558788388968" lon="11.838741190731525">
        <ele>2554.8400000000001</ele>
        <time>2017-07-04T06:19:51Z</time>
      </trkpt>
      <trkpt lat="46.264556692913175" lon="11.838712440803647">
        <ele>2554.3600000000001</ele>
        <time>2017-07-04T06:19:59Z</time>
      </trkpt>
      <trkpt lat="46.26458628103137" lon="11.838737083598971">
        <ele>2555.3200000000002</ele>
        <time>2017-07-04T06:20:09Z</time>
      </trkpt>
      <trkpt lat="46.264608660712838" lon="11.838718727231026">
        <ele>2555.3200000000002</ele>
        <time>2017-07-04T06:20:15Z</time>
      </trkpt>
      <trkpt lat="46.264676386490464" lon="11.838769437745214">
        <ele>2556.2800000000002</ele>
        <time>2017-07-04T06:20:25Z</time>
      </trkpt>
      <trkpt lat="46.264708237722516" lon="11.838744459673762">
        <ele>2556.7600000000002</ele>
        <time>2017-07-04T06:20:30Z</time>
      </trkpt>
      <trkpt lat="46.264697844162583" lon="11.838702466338873">
        <ele>2556.2800000000002</ele>
        <time>2017-07-04T06:20:41Z</time>
      </trkpt>
      <trkpt lat="46.264676051214337" lon="11.838741945102811">
        <ele>2555.8000000000002</ele>
        <time>2017-07-04T06:20:55Z</time>
      </trkpt>
      <trkpt lat="46.264674374833703" lon="11.838749404996634">
        <ele>2556.2800000000002</ele>
        <time>2017-07-04T06:21:09Z</time>
      </trkpt>
      <trkpt lat="46.264678565785289" lon="11.838757870718837">
        <ele>2556.2800000000002</ele>
        <time>2017-07-04T06:21:27Z</time>
      </trkpt>
      <trkpt lat="46.264680158346891" lon="11.838752422481775">
        <ele>2556.7600000000002</ele>
        <time>2017-07-04T06:21:42Z</time>
      </trkpt>
      <trkpt lat="46.264696419239044" lon="11.838735323399305">
        <ele>2556.2800000000002</ele>
        <time>2017-07-04T06:22:02Z</time>
      </trkpt>
      <trkpt lat="46.264689043164253" lon="11.838741861283779">
        <ele>2556.2800000000002</ele>
        <time>2017-07-04T06:22:21Z</time>
      </trkpt>
      <trkpt lat="46.264676302671432" lon="11.838735323399305">
        <ele>2556.2800000000002</ele>
        <time>2017-07-04T06:22:36Z</time>
      </trkpt>
      <trkpt lat="46.264651156961918" lon="11.838737083598971">
        <ele>2555.8000000000002</ele>
        <time>2017-07-04T06:22:47Z</time>
      </trkpt>
      <trkpt lat="46.264559207484126" lon="11.838742112740874">
        <ele>2554.8400000000001</ele>
        <time>2017-07-04T06:22:59Z</time>
      </trkpt>
      <trkpt lat="46.264506904408336" lon="11.838756781071424">
        <ele>2554.3600000000001</ele>
        <time>2017-07-04T06:23:05Z</time>
      </trkpt>
      <trkpt lat="46.264447560533881" lon="11.838707076385617">
        <ele>2553.4000000000001</ele>
        <time>2017-07-04T06:23:12Z</time>
      </trkpt>
      <trkpt lat="46.264330046251416" lon="11.838761894032359">
        <ele>2552.9200000000001</ele>
        <time>2017-07-04T06:23:25Z</time>
      </trkpt>
      <trkpt lat="46.264330465346575" lon="11.838714368641376">
        <ele>2551.96</ele>
        <time>2017-07-04T06:23:28Z</time>
      </trkpt>
      <trkpt lat="46.264418223872781" lon="11.838626526296139">
        <ele>2551</ele>
        <time>2017-07-04T06:23:36Z</time>
      </trkpt>
      <trkpt lat="46.264495085924864" lon="11.838457463309169">
        <ele>2549.0700000000002</ele>
        <time>2017-07-04T06:23:49Z</time>
      </trkpt>
      <trkpt lat="46.264442028477788" lon="11.838503228500485">
        <ele>2548.1100000000001</ele>
        <time>2017-07-04T06:23:58Z</time>
      </trkpt>
      <trkpt lat="46.264454014599323" lon="11.838404573500156">
        <ele>2547.1500000000001</ele>
        <time>2017-07-04T06:24:08Z</time>
      </trkpt>
      <trkpt lat="46.264395592734218" lon="11.838475735858083">
        <ele>2546.1900000000001</ele>
        <time>2017-07-04T06:24:16Z</time>
      </trkpt>
      <trkpt lat="46.264435993507504" lon="11.838340451940894">
        <ele>2544.75</ele>
        <time>2017-07-04T06:24:26Z</time>
      </trkpt>
      <trkpt lat="46.264479160308838" lon="11.838264092803001">
        <ele>2543.3099999999999</ele>
        <time>2017-07-04T06:24:36Z</time>
      </trkpt>
      <trkpt lat="46.264331052079797" lon="11.838380768895149">
        <ele>2541.8600000000001</ele>
        <time>2017-07-04T06:24:50Z</time>
      </trkpt>
      <trkpt lat="46.264270450919867" lon="11.83840423822403">
        <ele>2541.3800000000001</ele>
        <time>2017-07-04T06:25:02Z</time>
      </trkpt>
      <trkpt lat="46.264245137572289" lon="11.838479926809669">
        <ele>2540.9000000000001</ele>
        <time>2017-07-04T06:25:13Z</time>
      </trkpt>
      <trkpt lat="46.264166599139571" lon="11.838603895157576">
        <ele>2538.98</ele>
        <time>2017-07-04T06:25:24Z</time>
      </trkpt>
      <trkpt lat="46.264148578047752" lon="11.838616970926523">
        <ele>2538.5</ele>
        <time>2017-07-04T06:25:26Z</time>
      </trkpt>
      <trkpt lat="46.264115804806352" lon="11.838663406670094">
        <ele>2537.54</ele>
        <time>2017-07-04T06:25:31Z</time>
      </trkpt>
      <trkpt lat="46.264099543914199" lon="11.838651839643717">
        <ele>2536.5799999999999</ele>
        <time>2017-07-04T06:25:33Z</time>
      </trkpt>
      <trkpt lat="46.264117062091827" lon="11.838617054745555">
        <ele>2536.5799999999999</ele>
        <time>2017-07-04T06:25:35Z</time>
      </trkpt>
      <trkpt lat="46.264129970222712" lon="11.838584868237376">
        <ele>2536.0999999999999</ele>
        <time>2017-07-04T06:25:37Z</time>
      </trkpt>
      <trkpt lat="46.264130137860775" lon="11.838557375594974">
        <ele>2534.1700000000001</ele>
        <time>2017-07-04T06:25:48Z</time>
      </trkpt>
      <trkpt lat="46.264061657711864" lon="11.838611606508493">
        <ele>2532.73</ele>
        <time>2017-07-04T06:26:00Z</time>
      </trkpt>
      <trkpt lat="46.264005247503519" lon="11.838596099987626">
        <ele>2530.3299999999999</ele>
        <time>2017-07-04T06:26:11Z</time>
      </trkpt>
      <trkpt lat="46.26405562274158" lon="11.838469114154577">
        <ele>2528.4000000000001</ele>
        <time>2017-07-04T06:26:22Z</time>
      </trkpt>
      <trkpt lat="46.264040870591998" lon="11.838531224057078">
        <ele>2527.9200000000001</ele>
        <time>2017-07-04T06:26:26Z</time>
      </trkpt>
      <trkpt lat="46.263998709619045" lon="11.838580090552568">
        <ele>2527.4400000000001</ele>
        <time>2017-07-04T06:26:32Z</time>
      </trkpt>
      <trkpt lat="46.263980939984322" lon="11.838598363101482">
        <ele>2527.4400000000001</ele>
        <time>2017-07-04T06:26:34Z</time>
      </trkpt>
      <trkpt lat="46.263936180621386" lon="11.838628202676773">
        <ele>2526.48</ele>
        <time>2017-07-04T06:26:42Z</time>
      </trkpt>
      <trkpt lat="46.264007762074471" lon="11.838444219902158">
        <ele>2524.5599999999999</ele>
        <time>2017-07-04T06:26:55Z</time>
      </trkpt>
      <trkpt lat="46.264006420969963" lon="11.838406082242727">
        <ele>2523.1199999999999</ele>
        <time>2017-07-04T06:27:06Z</time>
      </trkpt>
      <trkpt lat="46.263955207541585" lon="11.838439609855413">
        <ele>2521.1900000000001</ele>
        <time>2017-07-04T06:27:18Z</time>
      </trkpt>
      <trkpt lat="46.263918662443757" lon="11.83848294429481">
        <ele>2520.23</ele>
        <time>2017-07-04T06:27:30Z</time>
      </trkpt>
      <trkpt lat="46.263896031305194" lon="11.838511191308498">
        <ele>2519.75</ele>
        <time>2017-07-04T06:27:34Z</time>
      </trkpt>
      <trkpt lat="46.263811876997352" lon="11.838540527969599">
        <ele>2517.8299999999999</ele>
        <time>2017-07-04T06:27:45Z</time>
      </trkpt>
      <trkpt lat="46.263800980523229" lon="11.838525105267763">
        <ele>2517.8299999999999</ele>
        <time>2017-07-04T06:27:47Z</time>
      </trkpt>
      <trkpt lat="46.263753036037087" lon="11.838544383645058">
        <ele>2515.9099999999999</ele>
        <time>2017-07-04T06:27:53Z</time>
      </trkpt>
      <trkpt lat="46.263719173148274" lon="11.838580844923854">
        <ele>2514.9499999999998</ele>
        <time>2017-07-04T06:27:57Z</time>
      </trkpt>
      <trkpt lat="46.263671731576324" lon="11.838679332286119">
        <ele>2513.98</ele>
        <time>2017-07-04T06:28:06Z</time>
      </trkpt>
      <trkpt lat="46.263605179265141" lon="11.838738089427352">
        <ele>2513.02</ele>
        <time>2017-07-04T06:28:16Z</time>
      </trkpt>
      <trkpt lat="46.26360509544611" lon="11.838725516572595">
        <ele>2513.02</ele>
        <time>2017-07-04T06:28:17Z</time>
      </trkpt>
      <trkpt lat="46.263623367995024" lon="11.838620407506824">
        <ele>2512.0599999999999</ele>
        <time>2017-07-04T06:28:26Z</time>
      </trkpt>
      <trkpt lat="46.26362320035696" lon="11.838579839095473">
        <ele>2511.5799999999999</ele>
        <time>2017-07-04T06:28:31Z</time>
      </trkpt>
      <trkpt lat="46.26369796693325" lon="11.838425444439054">
        <ele>2510.6199999999999</ele>
        <time>2017-07-04T06:28:42Z</time>
      </trkpt>
      <trkpt lat="46.26371992751956" lon="11.838392587378621">
        <ele>2510.1399999999999</ele>
        <time>2017-07-04T06:28:50Z</time>
      </trkpt>
      <trkpt lat="46.263618925586343" lon="11.838515801355243">
        <ele>2508.6999999999998</ele>
        <time>2017-07-04T06:29:03Z</time>
      </trkpt>
      <trkpt lat="46.263583805412054" lon="11.83855620212853">
        <ele>2507.7399999999998</ele>
        <time>2017-07-04T06:29:08Z</time>
      </trkpt>
      <trkpt lat="46.263525802642107" lon="11.838667765259743">
        <ele>2506.77</ele>
        <time>2017-07-04T06:29:18Z</time>
      </trkpt>
      <trkpt lat="46.263511134311557" lon="11.838632225990295">
        <ele>2506.29</ele>
        <time>2017-07-04T06:29:21Z</time>
      </trkpt>
      <trkpt lat="46.26351666636765" lon="11.838602721691132">
        <ele>2506.29</ele>
        <time>2017-07-04T06:29:23Z</time>
      </trkpt>
      <trkpt lat="46.263592354953289" lon="11.838437849655747">
        <ele>2505.3299999999999</ele>
        <time>2017-07-04T06:29:34Z</time>
      </trkpt>
      <trkpt lat="46.26361096277833" lon="11.838400550186634">
        <ele>2504.8499999999999</ele>
        <time>2017-07-04T06:29:37Z</time>
      </trkpt>
      <trkpt lat="46.263646921142936" lon="11.838335506618023">
        <ele>2504.3699999999999</ele>
        <time>2017-07-04T06:29:42Z</time>
      </trkpt>
      <trkpt lat="46.263674832880497" lon="11.83829334564507">
        <ele>2503.4099999999999</ele>
        <time>2017-07-04T06:29:54Z</time>
      </trkpt>
      <trkpt lat="46.263600485399365" lon="11.838323604315519">
        <ele>2501.0100000000002</ele>
        <time>2017-07-04T06:30:07Z</time>
      </trkpt>
      <trkpt lat="46.263548601418734" lon="11.838368531316519">
        <ele>2499.0799999999999</ele>
        <time>2017-07-04T06:30:18Z</time>
      </trkpt>
      <trkpt lat="46.26355673186481" lon="11.838325867429376">
        <ele>2498.5999999999999</ele>
        <time>2017-07-04T06:30:21Z</time>
      </trkpt>
      <trkpt lat="46.26360216178" lon="11.838236432522535">
        <ele>2498.1199999999999</ele>
        <time>2017-07-04T06:30:30Z</time>
      </trkpt>
      <trkpt lat="46.26362269744277" lon="11.838193014264107">
        <ele>2497.1599999999999</ele>
        <time>2017-07-04T06:30:41Z</time>
      </trkpt>
      <trkpt lat="46.263613644987345" lon="11.838203659281135">
        <ele>2496.6799999999998</ele>
        <time>2017-07-04T06:30:42Z</time>
      </trkpt>
      <trkpt lat="46.263503087684512" lon="11.838338607922196">
        <ele>2495.7199999999998</ele>
        <time>2017-07-04T06:30:55Z</time>
      </trkpt>
      <trkpt lat="46.263465704396367" lon="11.838348330929875">
        <ele>2494.7600000000002</ele>
        <time>2017-07-04T06:31:02Z</time>
      </trkpt>
      <trkpt lat="46.263477941974998" lon="11.838294016197324">
        <ele>2493.8000000000002</ele>
        <time>2017-07-04T06:31:14Z</time>
      </trkpt>
      <trkpt lat="46.263472577556968" lon="11.838271468877792">
        <ele>2493.3200000000002</ele>
        <time>2017-07-04T06:31:30Z</time>
      </trkpt>
      <trkpt lat="46.263470062986016" lon="11.838263338431716">
        <ele>2493.3200000000002</ele>
        <time>2017-07-04T06:31:41Z</time>
      </trkpt>
      <trkpt lat="46.26348540186882" lon="11.838225703686476">
        <ele>2492.8400000000001</ele>
        <time>2017-07-04T06:31:45Z</time>
      </trkpt>
      <trkpt lat="46.263507697731256" lon="11.83816778473556">
        <ele>2491.8699999999999</ele>
        <time>2017-07-04T06:31:55Z</time>
      </trkpt>
      <trkpt lat="46.26344483345747" lon="11.838249759748578">
        <ele>2489.4699999999998</ele>
        <time>2017-07-04T06:32:06Z</time>
      </trkpt>
      <trkpt lat="46.263421531766653" lon="11.838193517178297">
        <ele>2488.0300000000002</ele>
        <time>2017-07-04T06:32:14Z</time>
      </trkpt>
      <trkpt lat="46.263483222573996" lon="11.838055299594998">
        <ele>2486.5900000000001</ele>
        <time>2017-07-04T06:32:25Z</time>
      </trkpt>
      <trkpt lat="46.263455981388688" lon="11.838071644306183">
        <ele>2485.1500000000001</ele>
        <time>2017-07-04T06:32:34Z</time>
      </trkpt>
      <trkpt lat="46.263427650555968" lon="11.838090503588319">
        <ele>2484.1799999999998</ele>
        <time>2017-07-04T06:32:38Z</time>
      </trkpt>
      <trkpt lat="46.263348776847124" lon="11.838114811107516">
        <ele>2481.7800000000002</ele>
        <time>2017-07-04T06:32:51Z</time>
      </trkpt>
      <trkpt lat="46.263356991112232" lon="11.838080696761608">
        <ele>2480.3400000000001</ele>
        <time>2017-07-04T06:33:00Z</time>
      </trkpt>
      <trkpt lat="46.263291528448462" lon="11.838131407275796">
        <ele>2479.3800000000001</ele>
        <time>2017-07-04T06:33:10Z</time>
      </trkpt>
      <trkpt lat="46.263271244242787" lon="11.838102489709854">
        <ele>2477.9400000000001</ele>
        <time>2017-07-04T06:33:20Z</time>
      </trkpt>
      <trkpt lat="46.263248194009066" lon="11.838143141940236">
        <ele>2476.9699999999998</ele>
        <time>2017-07-04T06:33:26Z</time>
      </trkpt>
      <trkpt lat="46.263224808499217" lon="11.838188990950584">
        <ele>2476.0100000000002</ele>
        <time>2017-07-04T06:33:31Z</time>
      </trkpt>
      <trkpt lat="46.263207457959652" lon="11.83810668066144">
        <ele>2475.0500000000002</ele>
        <time>2017-07-04T06:33:38Z</time>
      </trkpt>
      <trkpt lat="46.263156412169337" lon="11.838264176622033">
        <ele>2473.1300000000001</ele>
        <time>2017-07-04T06:33:49Z</time>
      </trkpt>
      <trkpt lat="46.263140821829438" lon="11.838316731154919">
        <ele>2472.6500000000001</ele>
        <time>2017-07-04T06:33:53Z</time>
      </trkpt>
      <trkpt lat="46.263115340843797" lon="11.838141465559602">
        <ele>2470.2399999999998</ele>
        <time>2017-07-04T06:34:05Z</time>
      </trkpt>
      <trkpt lat="46.263113496825099" lon="11.838111542165279">
        <ele>2470.2399999999998</ele>
        <time>2017-07-04T06:34:07Z</time>
      </trkpt>
      <trkpt lat="46.263145599514246" lon="11.837999979034066">
        <ele>2468.8000000000002</ele>
        <time>2017-07-04T06:34:19Z</time>
      </trkpt>
      <trkpt lat="46.263077203184366" lon="11.838081451132894">
        <ele>2467.3600000000001</ele>
        <time>2017-07-04T06:34:31Z</time>
      </trkpt>
      <trkpt lat="46.263083321973681" lon="11.83797131292522">
        <ele>2465.4400000000001</ele>
        <time>2017-07-04T06:34:41Z</time>
      </trkpt>
      <trkpt lat="46.263075862079859" lon="11.837969636544585">
        <ele>2464</ele>
        <time>2017-07-04T06:34:51Z</time>
      </trkpt>
      <trkpt lat="46.263061361387372" lon="11.838031327351928">
        <ele>2462.5500000000002</ele>
        <time>2017-07-04T06:35:02Z</time>
      </trkpt>
      <trkpt lat="46.263005705550313" lon="11.838138615712523">
        <ele>2461.5900000000001</ele>
        <time>2017-07-04T06:35:13Z</time>
      </trkpt>
      <trkpt lat="46.262994473800063" lon="11.838239198550582">
        <ele>2459.6700000000001</ele>
        <time>2017-07-04T06:35:23Z</time>
      </trkpt>
      <trkpt lat="46.262944685295224" lon="11.838318323716521">
        <ele>2457.75</ele>
        <time>2017-07-04T06:35:33Z</time>
      </trkpt>
      <trkpt lat="46.262916270643473" lon="11.838256129994988">
        <ele>2456.3099999999999</ele>
        <time>2017-07-04T06:35:42Z</time>
      </trkpt>
      <trkpt lat="46.262892549857497" lon="11.838251017034054">
        <ele>2454.3800000000001</ele>
        <time>2017-07-04T06:35:54Z</time>
      </trkpt>
      <trkpt lat="46.262871511280537" lon="11.838359646499157">
        <ele>2451.98</ele>
        <time>2017-07-04T06:36:05Z</time>
      </trkpt>
      <trkpt lat="46.262820046395063" lon="11.838380433619022">
        <ele>2450.54</ele>
        <time>2017-07-04T06:36:15Z</time>
      </trkpt>
      <trkpt lat="46.262815268710256" lon="11.838305750861764">
        <ele>2449.0999999999999</ele>
        <time>2017-07-04T06:36:25Z</time>
      </trkpt>
      <trkpt lat="46.262801522389054" lon="11.838273899629712">
        <ele>2448.6199999999999</ele>
        <time>2017-07-04T06:36:35Z</time>
      </trkpt>
      <trkpt lat="46.262795571237803" lon="11.838280269876122">
        <ele>2447.6500000000001</ele>
        <time>2017-07-04T06:36:48Z</time>
      </trkpt>
      <trkpt lat="46.262802192941308" lon="11.838328298181295">
        <ele>2447.1700000000001</ele>
        <time>2017-07-04T06:37:01Z</time>
      </trkpt>
      <trkpt lat="46.262797666713595" lon="11.838341625407338">
        <ele>2446.6900000000001</ele>
        <time>2017-07-04T06:37:22Z</time>
      </trkpt>
      <trkpt lat="46.262785261496902" lon="11.838323688134551">
        <ele>2446.6900000000001</ele>
        <time>2017-07-04T06:37:37Z</time>
      </trkpt>
      <trkpt lat="46.262762127444148" lon="11.838239617645741">
        <ele>2445.73</ele>
        <time>2017-07-04T06:37:47Z</time>
      </trkpt>
      <trkpt lat="46.262743687257171" lon="11.838273061439395">
        <ele>2444.29</ele>
        <time>2017-07-04T06:37:56Z</time>
      </trkpt>
      <trkpt lat="46.262724325060844" lon="11.838332489132881">
        <ele>2442.8499999999999</ele>
        <time>2017-07-04T06:38:06Z</time>
      </trkpt>
      <trkpt lat="46.262720134109259" lon="11.838354784995317">
        <ele>2443.3299999999999</ele>
        <time>2017-07-04T06:38:19Z</time>
      </trkpt>
      <trkpt lat="46.262696497142315" lon="11.8383764103055">
        <ele>2442.8499999999999</ele>
        <time>2017-07-04T06:38:34Z</time>
      </trkpt>
      <trkpt lat="46.262699598446488" lon="11.838395688682795">
        <ele>2442.3699999999999</ele>
        <time>2017-07-04T06:38:48Z</time>
      </trkpt>
      <trkpt lat="46.262654755264521" lon="11.838353695347905">
        <ele>2440.9200000000001</ele>
        <time>2017-07-04T06:38:59Z</time>
      </trkpt>
      <trkpt lat="46.262649223208427" lon="11.838255627080798">
        <ele>2439.48</ele>
        <time>2017-07-04T06:39:09Z</time>
      </trkpt>
      <trkpt lat="46.262635057792068" lon="11.838252944871783">
        <ele>2438.04</ele>
        <time>2017-07-04T06:39:19Z</time>
      </trkpt>
      <trkpt lat="46.262637404724956" lon="11.838114727288485">
        <ele>2435.6399999999999</ele>
        <time>2017-07-04T06:39:31Z</time>
      </trkpt>
      <trkpt lat="46.262665232643485" lon="11.838035015389323">
        <ele>2434.1999999999998</ele>
        <time>2017-07-04T06:39:42Z</time>
      </trkpt>
      <trkpt lat="46.262633884325624" lon="11.838068962097168">
        <ele>2433.23</ele>
        <time>2017-07-04T06:39:50Z</time>
      </trkpt>
      <trkpt lat="46.262601530179381" lon="11.838115565478802">
        <ele>2431.79</ele>
        <time>2017-07-04T06:39:59Z</time>
      </trkpt>
      <trkpt lat="46.2625902146101" lon="11.838156301528215">
        <ele>2431.3099999999999</ele>
        <time>2017-07-04T06:40:12Z</time>
      </trkpt>
      <trkpt lat="46.262586610391736" lon="11.838127383962274">
        <ele>2431.3099999999999</ele>
        <time>2017-07-04T06:40:25Z</time>
      </trkpt>
      <trkpt lat="46.262582251802087" lon="11.838116152212024">
        <ele>2430.3499999999999</ele>
        <time>2017-07-04T06:40:37Z</time>
      </trkpt>
      <trkpt lat="46.262570014223456" lon="11.838102322071791">
        <ele>2429.8699999999999</ele>
        <time>2017-07-04T06:40:44Z</time>
      </trkpt>
      <trkpt lat="46.26255115494132" lon="11.838202569633722">
        <ele>2427.9499999999998</ele>
        <time>2017-07-04T06:40:54Z</time>
      </trkpt>
      <trkpt lat="46.262541599571705" lon="11.838225284591317">
        <ele>2427.9499999999998</ele>
        <time>2017-07-04T06:40:56Z</time>
      </trkpt>
      <trkpt lat="46.262499606236815" lon="11.838349336758256">
        <ele>2426.5</ele>
        <time>2017-07-04T06:41:08Z</time>
      </trkpt>
      <trkpt lat="46.26242752186954" lon="11.838498786091805">
        <ele>2425.54</ele>
        <time>2017-07-04T06:41:20Z</time>
      </trkpt>
      <trkpt lat="46.26236985437572" lon="11.838560393080115">
        <ele>2425.0599999999999</ele>
        <time>2017-07-04T06:41:29Z</time>
      </trkpt>
      <trkpt lat="46.262371949851513" lon="11.838541869074106">
        <ele>2424.0999999999999</ele>
        <time>2017-07-04T06:41:36Z</time>
      </trkpt>
      <trkpt lat="46.262383349239826" lon="11.83851957321167">
        <ele>2424.0999999999999</ele>
        <time>2017-07-04T06:41:53Z</time>
      </trkpt>
      <trkpt lat="46.262372452765703" lon="11.838523764163256">
        <ele>2424.5799999999999</ele>
        <time>2017-07-04T06:41:57Z</time>
      </trkpt>
      <trkpt lat="46.262395670637488" lon="11.838523764163256">
        <ele>2424.5799999999999</ele>
        <time>2017-07-04T06:42:06Z</time>
      </trkpt>
      <trkpt lat="46.262413104996085" lon="11.838543629273772">
        <ele>2425.0599999999999</ele>
        <time>2017-07-04T06:42:20Z</time>
      </trkpt>
      <trkpt lat="46.262362981215119" lon="11.838572714477777">
        <ele>2424.5799999999999</ele>
        <time>2017-07-04T06:42:32Z</time>
      </trkpt>
      <trkpt lat="46.262316629290581" lon="11.838562320917845">
        <ele>2423.6199999999999</ele>
        <time>2017-07-04T06:42:37Z</time>
      </trkpt>
      <trkpt lat="46.262264074757695" lon="11.838607499375939">
        <ele>2422.6599999999999</ele>
        <time>2017-07-04T06:42:44Z</time>
      </trkpt>
      <trkpt lat="46.262242700904608" lon="11.838628454133868">
        <ele>2422.1799999999998</ele>
        <time>2017-07-04T06:42:47Z</time>
      </trkpt>
      <trkpt lat="46.262232307344675" lon="11.8385801743716">
        <ele>2421.2199999999998</ele>
        <time>2017-07-04T06:42:56Z</time>
      </trkpt>
      <trkpt lat="46.262222249060869" lon="11.838567517697811">
        <ele>2420.2600000000002</ele>
        <time>2017-07-04T06:43:02Z</time>
      </trkpt>
      <trkpt lat="46.26210942864418" lon="11.838651672005653">
        <ele>2418.8099999999999</ele>
        <time>2017-07-04T06:43:15Z</time>
      </trkpt>
      <trkpt lat="46.262041786685586" lon="11.838682265952229">
        <ele>2417.3699999999999</ele>
        <time>2017-07-04T06:43:24Z</time>
      </trkpt>
      <trkpt lat="46.261963751167059" lon="11.838719313964248">
        <ele>2416.8899999999999</ele>
        <time>2017-07-04T06:43:32Z</time>
      </trkpt>
      <trkpt lat="46.261946652084589" lon="11.838724678382277">
        <ele>2416.4099999999999</ele>
        <time>2017-07-04T06:43:36Z</time>
      </trkpt>
      <trkpt lat="46.261927708983421" lon="11.83866667561233">
        <ele>2414.4899999999998</ele>
        <time>2017-07-04T06:43:44Z</time>
      </trkpt>
      <trkpt lat="46.261933241039515" lon="11.838630130514503">
        <ele>2413.5300000000002</ele>
        <time>2017-07-04T06:43:51Z</time>
      </trkpt>
      <trkpt lat="46.26192033290863" lon="11.838634572923183">
        <ele>2413.0500000000002</ele>
        <time>2017-07-04T06:43:53Z</time>
      </trkpt>
      <trkpt lat="46.261857217177749" lon="11.838665083050728">
        <ele>2412.5700000000002</ele>
        <time>2017-07-04T06:44:00Z</time>
      </trkpt>
      <trkpt lat="46.261734841391444" lon="11.838594675064087">
        <ele>2411.1199999999999</ele>
        <time>2017-07-04T06:44:13Z</time>
      </trkpt>
      <trkpt lat="46.261724447831511" lon="11.838597524911165">
        <ele>2411.1199999999999</ele>
        <time>2017-07-04T06:44:14Z</time>
      </trkpt>
      <trkpt lat="46.261659990996122" lon="11.838579503819346">
        <ele>2410.1599999999999</ele>
        <time>2017-07-04T06:44:21Z</time>
      </trkpt>
      <trkpt lat="46.261679101735353" lon="11.838512029498816">
        <ele>2408.7199999999998</ele>
        <time>2017-07-04T06:44:29Z</time>
      </trkpt>
      <trkpt lat="46.261703660711646" lon="11.838483614847064">
        <ele>2408.2399999999998</ele>
        <time>2017-07-04T06:44:40Z</time>
      </trkpt>
      <trkpt lat="46.261743055656552" lon="11.838446399196982">
        <ele>2406.3200000000002</ele>
        <time>2017-07-04T06:44:51Z</time>
      </trkpt>
      <trkpt lat="46.261778175830841" lon="11.838430976495147">
        <ele>2404.3899999999999</ele>
        <time>2017-07-04T06:45:00Z</time>
      </trkpt>
      <trkpt lat="46.261710952967405" lon="11.838405160233378">
        <ele>2402.9499999999998</ele>
        <time>2017-07-04T06:45:09Z</time>
      </trkpt>
      <trkpt lat="46.261681700125337" lon="11.838404657319188">
        <ele>2401.9899999999998</ele>
        <time>2017-07-04T06:45:13Z</time>
      </trkpt>
      <trkpt lat="46.261657644063234" lon="11.838387558236718">
        <ele>2401.0300000000002</ele>
        <time>2017-07-04T06:45:16Z</time>
      </trkpt>
      <trkpt lat="46.261680694296956" lon="11.838344978168607">
        <ele>2399.1100000000001</ele>
        <time>2017-07-04T06:45:24Z</time>
      </trkpt>
      <trkpt lat="46.26168823800981" lon="11.838338691741228">
        <ele>2399.1100000000001</ele>
        <time>2017-07-04T06:45:25Z</time>
      </trkpt>
      <trkpt lat="46.261797370389104" lon="11.838297536596656">
        <ele>2397.1799999999998</ele>
        <time>2017-07-04T06:45:37Z</time>
      </trkpt>
      <trkpt lat="46.261793514713645" lon="11.838281778618693">
        <ele>2396.2199999999998</ele>
        <time>2017-07-04T06:45:41Z</time>
      </trkpt>
      <trkpt lat="46.261734673753381" lon="11.838300470262766">
        <ele>2395.7399999999998</ele>
        <time>2017-07-04T06:45:46Z</time>
      </trkpt>
      <trkpt lat="46.261682789772749" lon="11.838263170793653">
        <ele>2394.7800000000002</ele>
        <time>2017-07-04T06:45:55Z</time>
      </trkpt>
      <trkpt lat="46.261740541085601" lon="11.838238192722201">
        <ele>2393.8200000000002</ele>
        <time>2017-07-04T06:46:00Z</time>
      </trkpt>
      <trkpt lat="46.261747581884265" lon="11.838224111124873">
        <ele>2392.8600000000001</ele>
        <time>2017-07-04T06:46:05Z</time>
      </trkpt>
      <trkpt lat="46.261700810864568" lon="11.838217321783304">
        <ele>2392.3800000000001</ele>
        <time>2017-07-04T06:46:09Z</time>
      </trkpt>
      <trkpt lat="46.261615147814155" lon="11.838224111124873">
        <ele>2390.46</ele>
        <time>2017-07-04T06:46:18Z</time>
      </trkpt>
      <trkpt lat="46.26150987111032" lon="11.83825965039432">
        <ele>2389.9699999999998</ele>
        <time>2017-07-04T06:46:30Z</time>
      </trkpt>
      <trkpt lat="46.261383974924684" lon="11.83824447914958">
        <ele>2389.0100000000002</ele>
        <time>2017-07-04T06:46:42Z</time>
      </trkpt>
      <trkpt lat="46.261383136734366" lon="11.838214639574289">
        <ele>2389.0100000000002</ele>
        <time>2017-07-04T06:46:44Z</time>
      </trkpt>
      <trkpt lat="46.261475002393126" lon="11.838182453066111">
        <ele>2388.0500000000002</ele>
        <time>2017-07-04T06:46:52Z</time>
      </trkpt>
      <trkpt lat="46.261520264670253" lon="11.838166359812021">
        <ele>2387.5700000000002</ele>
        <time>2017-07-04T06:46:56Z</time>
      </trkpt>
      <trkpt lat="46.261528730392456" lon="11.838131071999669">
        <ele>2386.6100000000001</ele>
        <time>2017-07-04T06:47:01Z</time>
      </trkpt>
      <trkpt lat="46.261467710137367" lon="11.838117660954595">
        <ele>2384.6900000000001</ele>
        <time>2017-07-04T06:47:10Z</time>
      </trkpt>
      <trkpt lat="46.261567119508982" lon="11.838063094764948">
        <ele>2383.73</ele>
        <time>2017-07-04T06:47:21Z</time>
      </trkpt>
      <trkpt lat="46.26169117167592" lon="11.838021101430058">
        <ele>2382.2800000000002</ele>
        <time>2017-07-04T06:47:34Z</time>
      </trkpt>
      <trkpt lat="46.261680778115988" lon="11.838014395907521">
        <ele>2381.3200000000002</ele>
        <time>2017-07-04T06:47:38Z</time>
      </trkpt>
      <trkpt lat="46.261623110622168" lon="11.83805781416595">
        <ele>2380.8400000000001</ele>
        <time>2017-07-04T06:47:44Z</time>
      </trkpt>
      <trkpt lat="46.261499980464578" lon="11.83807885274291">
        <ele>2379.8800000000001</ele>
        <time>2017-07-04T06:47:56Z</time>
      </trkpt>
      <trkpt lat="46.261351453140378" lon="11.838116403669119">
        <ele>2378.9200000000001</ele>
        <time>2017-07-04T06:48:09Z</time>
      </trkpt>
      <trkpt lat="46.261236621066928" lon="11.838110452517867">
        <ele>2377.48</ele>
        <time>2017-07-04T06:48:20Z</time>
      </trkpt>
      <trkpt lat="46.261119022965431" lon="11.838076673448086">
        <ele>2375.5500000000002</ele>
        <time>2017-07-04T06:48:32Z</time>
      </trkpt>
      <trkpt lat="46.261014919728041" lon="11.838085893541574">
        <ele>2374.5900000000001</ele>
        <time>2017-07-04T06:48:43Z</time>
      </trkpt>
      <trkpt lat="46.260866224765778" lon="11.838087905198336">
        <ele>2373.1500000000001</ele>
        <time>2017-07-04T06:48:56Z</time>
      </trkpt>
      <trkpt lat="46.260797074064612" lon="11.838074745610356">
        <ele>2372.6700000000001</ele>
        <time>2017-07-04T06:49:04Z</time>
      </trkpt>
      <trkpt lat="46.260816603899002" lon="11.838033339008689">
        <ele>2371.71</ele>
        <time>2017-07-04T06:49:07Z</time>
      </trkpt>
      <trkpt lat="46.260976614430547" lon="11.837970977649093">
        <ele>2370.75</ele>
        <time>2017-07-04T06:49:22Z</time>
      </trkpt>
      <trkpt lat="46.260974518954754" lon="11.837963433936238">
        <ele>2370.27</ele>
        <time>2017-07-04T06:49:25Z</time>
      </trkpt>
      <trkpt lat="46.260871673002839" lon="11.837991764768958">
        <ele>2368.8299999999999</ele>
        <time>2017-07-04T06:49:36Z</time>
      </trkpt>
      <trkpt lat="46.260893633589149" lon="11.83793418109417">
        <ele>2367.3800000000001</ele>
        <time>2017-07-04T06:49:44Z</time>
      </trkpt>
      <trkpt lat="46.261032437905669" lon="11.837907945737243">
        <ele>2365.9400000000001</ele>
        <time>2017-07-04T06:49:56Z</time>
      </trkpt>
      <trkpt lat="46.261080466210842" lon="11.837902078405023">
        <ele>2365.9400000000001</ele>
        <time>2017-07-04T06:50:00Z</time>
      </trkpt>
      <trkpt lat="46.261205524206161" lon="11.837873328477144">
        <ele>2365.46</ele>
        <time>2017-07-04T06:50:11Z</time>
      </trkpt>
      <trkpt lat="46.261343825608492" lon="11.83782672509551">
        <ele>2363.54</ele>
        <time>2017-07-04T06:50:24Z</time>
      </trkpt>
      <trkpt lat="46.261453377082944" lon="11.837805351242423">
        <ele>2363.0599999999999</ele>
        <time>2017-07-04T06:50:34Z</time>
      </trkpt>
      <trkpt lat="46.261423788964748" lon="11.837823120877147">
        <ele>2362.0999999999999</ele>
        <time>2017-07-04T06:50:42Z</time>
      </trkpt>
      <trkpt lat="46.26141800545156" lon="11.837822198867798">
        <ele>2361.6199999999999</ele>
        <time>2017-07-04T06:50:49Z</time>
      </trkpt>
      <trkpt lat="46.261307448148727" lon="11.837841477245092">
        <ele>2360.6500000000001</ele>
        <time>2017-07-04T06:50:59Z</time>
      </trkpt>
      <trkpt lat="46.261147186160088" lon="11.837846003472805">
        <ele>2359.6900000000001</ele>
        <time>2017-07-04T06:51:12Z</time>
      </trkpt>
      <trkpt lat="46.261124387383461" lon="11.83784575201571">
        <ele>2359.21</ele>
        <time>2017-07-04T06:51:14Z</time>
      </trkpt>
      <trkpt lat="46.261106785386801" lon="11.837817169725895">
        <ele>2358.73</ele>
        <time>2017-07-04T06:51:16Z</time>
      </trkpt>
      <trkpt lat="46.261233938857913" lon="11.837744833901525">
        <ele>2357.77</ele>
        <time>2017-07-04T06:51:28Z</time>
      </trkpt>
      <trkpt lat="46.261305101215839" lon="11.837724130600691">
        <ele>2357.77</ele>
        <time>2017-07-04T06:51:34Z</time>
      </trkpt>
      <trkpt lat="46.261429991573095" lon="11.837673839181662">
        <ele>2356.3299999999999</ele>
        <time>2017-07-04T06:51:46Z</time>
      </trkpt>
      <trkpt lat="46.261450108140707" lon="11.837657913565636">
        <ele>2355.8499999999999</ele>
        <time>2017-07-04T06:51:49Z</time>
      </trkpt>
      <trkpt lat="46.261502746492624" lon="11.837625140324235">
        <ele>2354.8899999999999</ele>
        <time>2017-07-04T06:51:54Z</time>
      </trkpt>
      <trkpt lat="46.261527724564075" lon="11.837596725672483">
        <ele>2353.9299999999998</ele>
        <time>2017-07-04T06:52:00Z</time>
      </trkpt>
      <trkpt lat="46.261475505307317" lon="11.837623128667474">
        <ele>2352</ele>
        <time>2017-07-04T06:52:11Z</time>
      </trkpt>
      <trkpt lat="46.26148447394371" lon="11.837607705965638">
        <ele>2352</ele>
        <time>2017-07-04T06:52:12Z</time>
      </trkpt>
      <trkpt lat="46.261548511683941" lon="11.837531011551619">
        <ele>2350.5599999999999</ele>
        <time>2017-07-04T06:52:20Z</time>
      </trkpt>
      <trkpt lat="46.26162076368928" lon="11.83745632879436">
        <ele>2348.6399999999999</ele>
        <time>2017-07-04T06:52:31Z</time>
      </trkpt>
      <trkpt lat="46.261642053723335" lon="11.837402433156967">
        <ele>2347.1999999999998</ele>
        <time>2017-07-04T06:52:40Z</time>
      </trkpt>
      <trkpt lat="46.261588828638196" lon="11.837425651028752">
        <ele>2346.23</ele>
        <time>2017-07-04T06:52:49Z</time>
      </trkpt>
      <trkpt lat="46.261604251340032" lon="11.837361948564649">
        <ele>2345.27</ele>
        <time>2017-07-04T06:52:55Z</time>
      </trkpt>
      <trkpt lat="46.261493358761072" lon="11.837440319359303">
        <ele>2343.8299999999999</ele>
        <time>2017-07-04T06:53:07Z</time>
      </trkpt>
      <trkpt lat="46.261400151997805" lon="11.837460855022073">
        <ele>2341.9099999999999</ele>
        <time>2017-07-04T06:53:19Z</time>
      </trkpt>
      <trkpt lat="46.261370312422514" lon="11.837432775646448">
        <ele>2340.9499999999998</ele>
        <time>2017-07-04T06:53:25Z</time>
      </trkpt>
      <trkpt lat="46.261464105919003" lon="11.837329007685184">
        <ele>2338.54</ele>
        <time>2017-07-04T06:53:38Z</time>
      </trkpt>
      <trkpt lat="46.261528981849551" lon="11.837222306057811">
        <ele>2337.5799999999999</ele>
        <time>2017-07-04T06:53:49Z</time>
      </trkpt>
      <trkpt lat="46.261521270498633" lon="11.837200177833438">
        <ele>2337.5799999999999</ele>
        <time>2017-07-04T06:54:09Z</time>
      </trkpt>
      <trkpt lat="46.261538621038198" lon="11.837133709341288">
        <ele>2337.0999999999999</ele>
        <time>2017-07-04T06:54:21Z</time>
      </trkpt>
      <trkpt lat="46.261523198336363" lon="11.837161537259817">
        <ele>2336.6199999999999</ele>
        <time>2017-07-04T06:54:26Z</time>
      </trkpt>
      <trkpt lat="46.261461172252893" lon="11.837253654375672">
        <ele>2335.1799999999998</ele>
        <time>2017-07-04T06:54:39Z</time>
      </trkpt>
      <trkpt lat="46.261471481993794" lon="11.837167907506227">
        <ele>2333.7399999999998</ele>
        <time>2017-07-04T06:54:49Z</time>
      </trkpt>
      <trkpt lat="46.261449521407485" lon="11.837156843394041">
        <ele>2333.7399999999998</ele>
        <time>2017-07-04T06:55:02Z</time>
      </trkpt>
      <trkpt lat="46.261458322405815" lon="11.83714946731925">
        <ele>2333.7399999999998</ele>
        <time>2017-07-04T06:55:13Z</time>
      </trkpt>
      <trkpt lat="46.261472487822175" lon="11.837125662714243">
        <ele>2332.7800000000002</ele>
        <time>2017-07-04T06:55:30Z</time>
      </trkpt>
      <trkpt lat="46.261510206386447" lon="11.837085178121924">
        <ele>2333.2600000000002</ele>
        <time>2017-07-04T06:55:51Z</time>
      </trkpt>
      <trkpt lat="46.261531244963408" lon="11.837033294141293">
        <ele>2333.2600000000002</ele>
        <time>2017-07-04T06:56:06Z</time>
      </trkpt>
      <trkpt lat="46.26151917502284" lon="11.837021308019757">
        <ele>2333.2600000000002</ele>
        <time>2017-07-04T06:56:26Z</time>
      </trkpt>
      <trkpt lat="46.261552115902305" lon="11.837000856176019">
        <ele>2333.7399999999998</ele>
        <time>2017-07-04T06:56:47Z</time>
      </trkpt>
      <trkpt lat="46.261504422873259" lon="11.837023822590709">
        <ele>2333.7399999999998</ele>
        <time>2017-07-04T06:57:06Z</time>
      </trkpt>
      <trkpt lat="46.261492436751723" lon="11.837048046290874">
        <ele>2333.2600000000002</ele>
        <time>2017-07-04T06:57:20Z</time>
      </trkpt>
      <trkpt lat="46.261462010443211" lon="11.837045615538955">
        <ele>2333.2600000000002</ele>
        <time>2017-07-04T06:57:32Z</time>
      </trkpt>
      <trkpt lat="46.261432506144047" lon="11.837057936936617">
        <ele>2332.7800000000002</ele>
        <time>2017-07-04T06:57:43Z</time>
      </trkpt>
      <trkpt lat="46.261439463123679" lon="11.83715240098536">
        <ele>2331.3299999999999</ele>
        <time>2017-07-04T06:57:54Z</time>
      </trkpt>
      <trkpt lat="46.261375676840544" lon="11.837204033508897">
        <ele>2329.4099999999999</ele>
        <time>2017-07-04T06:58:06Z</time>
      </trkpt>
      <trkpt lat="46.261309962719679" lon="11.837206464260817">
        <ele>2327.9699999999998</ele>
        <time>2017-07-04T06:58:16Z</time>
      </trkpt>
      <trkpt lat="46.261348268017173" lon="11.837086603045464">
        <ele>2325.5700000000002</ele>
        <time>2017-07-04T06:58:29Z</time>
      </trkpt>
      <trkpt lat="46.261253468692303" lon="11.837158016860485">
        <ele>2323.1599999999999</ele>
        <time>2017-07-04T06:58:42Z</time>
      </trkpt>
      <trkpt lat="46.261208625510335" lon="11.837204871699214">
        <ele>2321.7199999999998</ele>
        <time>2017-07-04T06:58:53Z</time>
      </trkpt>
      <trkpt lat="46.261188508942723" lon="11.837156927213073">
        <ele>2320.2800000000002</ele>
        <time>2017-07-04T06:59:02Z</time>
      </trkpt>
      <trkpt lat="46.261181551963091" lon="11.837100852280855">
        <ele>2319.3200000000002</ele>
        <time>2017-07-04T06:59:13Z</time>
      </trkpt>
      <trkpt lat="46.261179791763425" lon="11.837162291631103">
        <ele>2318.8400000000001</ele>
        <time>2017-07-04T06:59:25Z</time>
      </trkpt>
      <trkpt lat="46.261120531708002" lon="11.83723445981741">
        <ele>2316.9099999999999</ele>
        <time>2017-07-04T06:59:35Z</time>
      </trkpt>
      <trkpt lat="46.261046016588807" lon="11.837254492565989">
        <ele>2315.4699999999998</ele>
        <time>2017-07-04T06:59:45Z</time>
      </trkpt>
      <trkpt lat="46.261023469269276" lon="11.837264467030764">
        <ele>2314.9899999999998</ele>
        <time>2017-07-04T06:59:56Z</time>
      </trkpt>
      <trkpt lat="46.26101927831769" lon="11.837266562506557">
        <ele>2315.4699999999998</ele>
        <time>2017-07-04T07:00:00Z</time>
      </trkpt>
      <trkpt lat="46.260902686044574" lon="11.837348621338606">
        <ele>2314.5100000000002</ele>
        <time>2017-07-04T07:00:12Z</time>
      </trkpt>
      <trkpt lat="46.260774862021208" lon="11.837397068738937">
        <ele>2313.0700000000002</ele>
        <time>2017-07-04T07:00:25Z</time>
      </trkpt>
      <trkpt lat="46.260630525648594" lon="11.837419364601374">
        <ele>2311.6300000000001</ele>
        <time>2017-07-04T07:00:38Z</time>
      </trkpt>
      <trkpt lat="46.260531451553106" lon="11.83743679895997">
        <ele>2310.6700000000001</ele>
        <time>2017-07-04T07:00:47Z</time>
      </trkpt>
      <trkpt lat="46.260393653064966" lon="11.837441911920905">
        <ele>2310.1900000000001</ele>
        <time>2017-07-04T07:01:00Z</time>
      </trkpt>
      <trkpt lat="46.26034545712173" lon="11.837425986304879">
        <ele>2309.2199999999998</ele>
        <time>2017-07-04T07:01:13Z</time>
      </trkpt>
      <trkpt lat="46.260300362482667" lon="11.837413413450122">
        <ele>2307.3000000000002</ele>
        <time>2017-07-04T07:01:23Z</time>
      </trkpt>
      <trkpt lat="46.260267924517393" lon="11.837371755391359">
        <ele>2305.3800000000001</ele>
        <time>2017-07-04T07:01:34Z</time>
      </trkpt>
      <trkpt lat="46.260195421054959" lon="11.837373683229089">
        <ele>2303.46</ele>
        <time>2017-07-04T07:01:44Z</time>
      </trkpt>
      <trkpt lat="46.26019005663693" lon="11.837378209456801">
        <ele>2303.46</ele>
        <time>2017-07-04T07:01:45Z</time>
      </trkpt>
      <trkpt lat="46.260107913985848" lon="11.837362619116902">
        <ele>2301.5300000000002</ele>
        <time>2017-07-04T07:01:58Z</time>
      </trkpt>
      <trkpt lat="46.260100957006216" lon="11.837364044040442">
        <ele>2301.0500000000002</ele>
        <time>2017-07-04T07:01:59Z</time>
      </trkpt>
      <trkpt lat="46.260123588144779" lon="11.837328337132931">
        <ele>2300.0900000000001</ele>
        <time>2017-07-04T07:02:08Z</time>
      </trkpt>
      <trkpt lat="46.260135238990188" lon="11.837254660204053">
        <ele>2298.1700000000001</ele>
        <time>2017-07-04T07:02:19Z</time>
      </trkpt>
      <trkpt lat="46.260095844045281" lon="11.837247032672167">
        <ele>2297.21</ele>
        <time>2017-07-04T07:02:29Z</time>
      </trkpt>
      <trkpt lat="46.260084528476" lon="11.837244099006057">
        <ele>2296.73</ele>
        <time>2017-07-04T07:02:39Z</time>
      </trkpt>
      <trkpt lat="46.260023172944784" lon="11.837221132591367">
        <ele>2294.8000000000002</ele>
        <time>2017-07-04T07:02:48Z</time>
      </trkpt>
      <trkpt lat="46.259942958131433" lon="11.837290450930595">
        <ele>2293.3600000000001</ele>
        <time>2017-07-04T07:02:59Z</time>
      </trkpt>
      <trkpt lat="46.259883362799883" lon="11.837374186143279">
        <ele>2291.9200000000001</ele>
        <time>2017-07-04T07:03:08Z</time>
      </trkpt>
      <trkpt lat="46.259817229583859" lon="11.837421711534262">
        <ele>2290.48</ele>
        <time>2017-07-04T07:03:19Z</time>
      </trkpt>
      <trkpt lat="46.259782360866666" lon="11.837416933849454">
        <ele>2288.5599999999999</ele>
        <time>2017-07-04T07:03:29Z</time>
      </trkpt>
      <trkpt lat="46.259764339774847" lon="11.837402181699872">
        <ele>2288.0799999999999</ele>
        <time>2017-07-04T07:03:40Z</time>
      </trkpt>
      <trkpt lat="46.259808344766498" lon="11.837339820340276">
        <ele>2287.1100000000001</ele>
        <time>2017-07-04T07:03:51Z</time>
      </trkpt>
      <trkpt lat="46.25982410274446" lon="11.83733219280839">
        <ele>2286.6300000000001</ele>
        <time>2017-07-04T07:04:02Z</time>
      </trkpt>
      <trkpt lat="46.259833825752139" lon="11.837268657982349">
        <ele>2285.6700000000001</ele>
        <time>2017-07-04T07:04:13Z</time>
      </trkpt>
      <trkpt lat="46.25980163924396" lon="11.83731316588819">
        <ele>2285.1900000000001</ele>
        <time>2017-07-04T07:04:22Z</time>
      </trkpt>
      <trkpt lat="46.259785043075681" lon="11.837327415123582">
        <ele>2284.71</ele>
        <time>2017-07-04T07:04:24Z</time>
      </trkpt>
      <trkpt lat="46.259703151881695" lon="11.837412659078836">
        <ele>2283.27</ele>
        <time>2017-07-04T07:04:35Z</time>
      </trkpt>
      <trkpt lat="46.25971270725131" lon="11.837335713207722">
        <ele>2281.8299999999999</ele>
        <time>2017-07-04T07:04:45Z</time>
      </trkpt>
      <trkpt lat="46.2597322370857" lon="11.837278045713902">
        <ele>2280.8699999999999</ele>
        <time>2017-07-04T07:04:53Z</time>
      </trkpt>
      <trkpt lat="46.259679598733783" lon="11.837346525862813">
        <ele>2278.9400000000001</ele>
        <time>2017-07-04T07:05:03Z</time>
      </trkpt>
      <trkpt lat="46.259610280394554" lon="11.837418861687183">
        <ele>2277.5</ele>
        <time>2017-07-04T07:05:13Z</time>
      </trkpt>
      <trkpt lat="46.259531993418932" lon="11.837493628263474">
        <ele>2275.0999999999999</ele>
        <time>2017-07-04T07:05:22Z</time>
      </trkpt>
      <trkpt lat="46.259478684514761" lon="11.837602341547608">
        <ele>2273.6599999999999</ele>
        <time>2017-07-04T07:05:32Z</time>
      </trkpt>
      <trkpt lat="46.259398050606251" lon="11.837648190557957">
        <ele>2272.21</ele>
        <time>2017-07-04T07:05:41Z</time>
      </trkpt>
      <trkpt lat="46.259337952360511" lon="11.83773628436029">
        <ele>2272.6900000000001</ele>
        <time>2017-07-04T07:05:51Z</time>
      </trkpt>
      <trkpt lat="46.259229071438313" lon="11.837840639054775">
        <ele>2273.1700000000001</ele>
        <time>2017-07-04T07:06:03Z</time>
      </trkpt>
      <trkpt lat="46.259224126115441" lon="11.837850529700518">
        <ele>2273.1700000000001</ele>
        <time>2017-07-04T07:06:04Z</time>
      </trkpt>
      <trkpt lat="46.259171906858683" lon="11.837968379259109">
        <ele>2272.6900000000001</ele>
        <time>2017-07-04T07:06:14Z</time>
      </trkpt>
      <trkpt lat="46.259163105860353" lon="11.838004924356937">
        <ele>2273.6599999999999</ele>
        <time>2017-07-04T07:06:17Z</time>
      </trkpt>
      <trkpt lat="46.259124549105763" lon="11.838081534951925">
        <ele>2273.1700000000001</ele>
        <time>2017-07-04T07:06:27Z</time>
      </trkpt>
      <trkpt lat="46.259125387296081" lon="11.838095784187317">
        <ele>2273.1700000000001</ele>
        <time>2017-07-04T07:06:29Z</time>
      </trkpt>
      <trkpt lat="46.25911801122129" lon="11.838121516630054">
        <ele>2273.1700000000001</ele>
        <time>2017-07-04T07:06:31Z</time>
      </trkpt>
      <trkpt lat="46.259110635146499" lon="11.838149931281805">
        <ele>2273.1700000000001</ele>
        <time>2017-07-04T07:06:33Z</time>
      </trkpt>
      <trkpt lat="46.25906428322196" lon="11.838267529383302">
        <ele>2272.6900000000001</ele>
        <time>2017-07-04T07:06:43Z</time>
      </trkpt>
      <trkpt lat="46.259036120027304" lon="11.838346989825368">
        <ele>2273.1700000000001</ele>
        <time>2017-07-04T07:06:51Z</time>
      </trkpt>
      <trkpt lat="46.259023044258356" lon="11.838398035615683">
        <ele>2274.1399999999999</ele>
        <time>2017-07-04T07:06:57Z</time>
      </trkpt>
      <trkpt lat="46.258966885507107" lon="11.838483111932874">
        <ele>2274.1399999999999</ele>
        <time>2017-07-04T07:07:03Z</time>
      </trkpt>
      <trkpt lat="46.258949870243669" lon="11.838521165773273">
        <ele>2273.6599999999999</ele>
        <time>2017-07-04T07:07:06Z</time>
      </trkpt>
      <trkpt lat="46.258910978212953" lon="11.838569529354572">
        <ele>2274.1399999999999</ele>
        <time>2017-07-04T07:07:10Z</time>
      </trkpt>
      <trkpt lat="46.258867559954524" lon="11.838582688942552">
        <ele>2274.1399999999999</ele>
        <time>2017-07-04T07:07:13Z</time>
      </trkpt>
      <trkpt lat="46.258825482800603" lon="11.838660975918174">
        <ele>2274.6199999999999</ele>
        <time>2017-07-04T07:07:20Z</time>
      </trkpt>
      <trkpt lat="46.258792793378234" lon="11.838763151317835">
        <ele>2276.0599999999999</ele>
        <time>2017-07-04T07:07:29Z</time>
      </trkpt>
      <trkpt lat="46.258671088144183" lon="11.838874462991953">
        <ele>2276.0599999999999</ele>
        <time>2017-07-04T07:07:42Z</time>
      </trkpt>
      <trkpt lat="46.258613588288426" lon="11.838915450498462">
        <ele>2276.54</ele>
        <time>2017-07-04T07:07:49Z</time>
      </trkpt>
      <trkpt lat="46.258580144494772" lon="11.838918384164572">
        <ele>2277.02</ele>
        <time>2017-07-04T07:07:53Z</time>
      </trkpt>
      <trkpt lat="46.258524153381586" lon="11.838944116607308">
        <ele>2277.02</ele>
        <time>2017-07-04T07:07:59Z</time>
      </trkpt>
      <trkpt lat="46.258501941338181" lon="11.838988959789276">
        <ele>2277.02</ele>
        <time>2017-07-04T07:08:04Z</time>
      </trkpt>
      <trkpt lat="46.258475705981255" lon="11.839058864861727">
        <ele>2276.54</ele>
        <time>2017-07-04T07:08:10Z</time>
      </trkpt>
      <trkpt lat="46.258408147841692" lon="11.839156933128834">
        <ele>2277.5</ele>
        <time>2017-07-04T07:08:21Z</time>
      </trkpt>
      <trkpt lat="46.258317371830344" lon="11.839129021391273">
        <ele>2277.98</ele>
        <time>2017-07-04T07:08:30Z</time>
      </trkpt>
      <trkpt lat="46.258295411244035" lon="11.839117873460054">
        <ele>2277.98</ele>
        <time>2017-07-04T07:08:32Z</time>
      </trkpt>
      <trkpt lat="46.258213352411985" lon="11.839149389415979">
        <ele>2278.46</ele>
        <time>2017-07-04T07:08:43Z</time>
      </trkpt>
      <trkpt lat="46.258176136761904" lon="11.839146791025996">
        <ele>2277.98</ele>
        <time>2017-07-04T07:08:50Z</time>
      </trkpt>
      <trkpt lat="46.258066417649388" lon="11.839145198464394">
        <ele>2278.46</ele>
        <time>2017-07-04T07:09:01Z</time>
      </trkpt>
      <trkpt lat="46.257970947772264" lon="11.839150562882423">
        <ele>2279.4200000000001</ele>
        <time>2017-07-04T07:09:11Z</time>
      </trkpt>
      <trkpt lat="46.257869442924857" lon="11.839150814339519">
        <ele>2279.9000000000001</ele>
        <time>2017-07-04T07:09:20Z</time>
      </trkpt>
      <trkpt lat="46.257772212848067" lon="11.839143773540854">
        <ele>2279.9000000000001</ele>
        <time>2017-07-04T07:09:30Z</time>
      </trkpt>
      <trkpt lat="46.257758717983961" lon="11.839149305596948">
        <ele>2280.3800000000001</ele>
        <time>2017-07-04T07:09:32Z</time>
      </trkpt>
      <trkpt lat="46.257726531475782" lon="11.839169338345528">
        <ele>2280.3800000000001</ele>
        <time>2017-07-04T07:09:45Z</time>
      </trkpt>
      <trkpt lat="46.257729465141892" lon="11.839149473235011">
        <ele>2280.3800000000001</ele>
        <time>2017-07-04T07:09:55Z</time>
      </trkpt>
      <trkpt lat="46.2576790060848" lon="11.839107563719153">
        <ele>2280.8699999999999</ele>
        <time>2017-07-04T07:10:06Z</time>
      </trkpt>
      <trkpt lat="46.257623517885804" lon="11.838997006416321">
        <ele>2281.3499999999999</ele>
        <time>2017-07-04T07:10:18Z</time>
      </trkpt>
      <trkpt lat="46.257539615035057" lon="11.838872702792287">
        <ele>2281.3499999999999</ele>
        <time>2017-07-04T07:10:30Z</time>
      </trkpt>
      <trkpt lat="46.257512206211686" lon="11.838837582617998">
        <ele>2281.3499999999999</ele>
        <time>2017-07-04T07:10:34Z</time>
      </trkpt>
      <trkpt lat="46.257412377744913" lon="11.838707327842712">
        <ele>2282.3099999999999</ele>
        <time>2017-07-04T07:10:48Z</time>
      </trkpt>
      <trkpt lat="46.257305005565286" lon="11.838594758883119">
        <ele>2282.79</ele>
        <time>2017-07-04T07:11:01Z</time>
      </trkpt>
      <trkpt lat="46.257198806852102" lon="11.838472131639719">
        <ele>2284.23</ele>
        <time>2017-07-04T07:11:15Z</time>
      </trkpt>
      <trkpt lat="46.25719285570085" lon="11.838464504107833">
        <ele>2284.23</ele>
        <time>2017-07-04T07:11:16Z</time>
      </trkpt>
      <trkpt lat="46.257107611745596" lon="11.83836861513555">
        <ele>2283.27</ele>
        <time>2017-07-04T07:11:29Z</time>
      </trkpt>
      <trkpt lat="46.257082130759954" lon="11.838379092514515">
        <ele>2283.75</ele>
        <time>2017-07-04T07:11:33Z</time>
      </trkpt>
      <trkpt lat="46.257060589268804" lon="11.83838864788413">
        <ele>2284.23</ele>
        <time>2017-07-04T07:11:38Z</time>
      </trkpt>
      <trkpt lat="46.257046675309539" lon="11.838427456095815">
        <ele>2284.23</ele>
        <time>2017-07-04T07:11:49Z</time>
      </trkpt>
      <trkpt lat="46.257025049999356" lon="11.838448494672775">
        <ele>2284.23</ele>
        <time>2017-07-04T07:12:05Z</time>
      </trkpt>
      <trkpt lat="46.257023373618722" lon="11.83845947496593">
        <ele>2284.23</ele>
        <time>2017-07-04T07:12:25Z</time>
      </trkpt>
      <trkpt lat="46.257027229294181" lon="11.838439190760255">
        <ele>2284.23</ele>
        <time>2017-07-04T07:12:47Z</time>
      </trkpt>
      <trkpt lat="46.257029240950942" lon="11.838441286236048">
        <ele>2284.23</ele>
        <time>2017-07-04T07:13:07Z</time>
      </trkpt>
      <trkpt lat="46.257029576227069" lon="11.838447991758585">
        <ele>2284.23</ele>
        <time>2017-07-04T07:13:30Z</time>
      </trkpt>
      <trkpt lat="46.257027061656117" lon="11.838446399196982">
        <ele>2283.75</ele>
        <time>2017-07-04T07:13:54Z</time>
      </trkpt>
      <trkpt lat="46.257036197930574" lon="11.838427539914846">
        <ele>2283.75</ele>
        <time>2017-07-04T07:14:19Z</time>
      </trkpt>
      <trkpt lat="46.257037287577987" lon="11.838420666754246">
        <ele>2284.23</ele>
        <time>2017-07-04T07:14:30Z</time>
      </trkpt>
      <trkpt lat="46.257042651996017" lon="11.838418068364263">
        <ele>2283.75</ele>
        <time>2017-07-04T07:14:45Z</time>
      </trkpt>
      <trkpt lat="46.257037036120892" lon="11.838418655097485">
        <ele>2283.75</ele>
        <time>2017-07-04T07:15:06Z</time>
      </trkpt>
      <trkpt lat="46.2570227868855" lon="11.838418487459421">
        <ele>2284.23</ele>
        <time>2017-07-04T07:15:26Z</time>
      </trkpt>
      <trkpt lat="46.257049273699522" lon="11.838418990373611">
        <ele>2283.75</ele>
        <time>2017-07-04T07:15:48Z</time>
      </trkpt>
      <trkpt lat="46.257043238729239" lon="11.8384057469666">
        <ele>2283.75</ele>
        <time>2017-07-04T07:16:10Z</time>
      </trkpt>
      <trkpt lat="46.25704089179635" lon="11.838401723653078">
        <ele>2283.75</ele>
        <time>2017-07-04T07:16:29Z</time>
      </trkpt>
      <trkpt lat="46.257051285356283" lon="11.838407255709171">
        <ele>2284.23</ele>
        <time>2017-07-04T07:16:44Z</time>
      </trkpt>
      <trkpt lat="46.257048435509205" lon="11.838403651490808">
        <ele>2284.23</ele>
        <time>2017-07-04T07:17:11Z</time>
      </trkpt>
      <trkpt lat="46.257045082747936" lon="11.838412703946233">
        <ele>2283.75</ele>
        <time>2017-07-04T07:17:33Z</time>
      </trkpt>
      <trkpt lat="46.257051033899188" lon="11.83841697871685">
        <ele>2283.75</ele>
        <time>2017-07-04T07:17:47Z</time>
      </trkpt>
      <trkpt lat="46.257050111889839" lon="11.838426869362593">
        <ele>2283.75</ele>
        <time>2017-07-04T07:18:05Z</time>
      </trkpt>
      <trkpt lat="46.257052207365632" lon="11.838416559621692">
        <ele>2283.75</ele>
        <time>2017-07-04T07:18:21Z</time>
      </trkpt>
      <trkpt lat="46.257038796320558" lon="11.83841697871685">
        <ele>2283.75</ele>
        <time>2017-07-04T07:18:41Z</time>
      </trkpt>
      <trkpt lat="46.257037790492177" lon="11.838396526873112">
        <ele>2283.75</ele>
        <time>2017-07-04T07:19:05Z</time>
      </trkpt>
      <trkpt lat="46.257043490186334" lon="11.838390324264765">
        <ele>2283.75</ele>
        <time>2017-07-04T07:19:32Z</time>
      </trkpt>
      <trkpt lat="46.257054470479488" lon="11.838392587378621">
        <ele>2283.27</ele>
        <time>2017-07-04T07:19:51Z</time>
      </trkpt>
      <trkpt lat="46.257054302841425" lon="11.838389653712511">
        <ele>2283.27</ele>
        <time>2017-07-04T07:20:16Z</time>
      </trkpt>
      <trkpt lat="46.257050530984998" lon="11.838372554630041">
        <ele>2283.27</ele>
        <time>2017-07-04T07:20:33Z</time>
      </trkpt>
      <trkpt lat="46.25704575330019" lon="11.838362831622362">
        <ele>2283.27</ele>
        <time>2017-07-04T07:20:59Z</time>
      </trkpt>
      <trkpt lat="46.257043825462461" lon="11.83837691321969">
        <ele>2283.27</ele>
        <time>2017-07-04T07:21:20Z</time>
      </trkpt>
      <trkpt lat="46.25704332254827" lon="11.838373057544231">
        <ele>2282.79</ele>
        <time>2017-07-04T07:21:43Z</time>
      </trkpt>
      <trkpt lat="46.25704281963408" lon="11.838377164676785">
        <ele>2282.79</ele>
        <time>2017-07-04T07:22:09Z</time>
      </trkpt>
      <trkpt lat="46.257041729986668" lon="11.838368950411677">
        <ele>2282.79</ele>
        <time>2017-07-04T07:22:32Z</time>
      </trkpt>
      <trkpt lat="46.257046088576317" lon="11.838356545194983">
        <ele>2282.79</ele>
        <time>2017-07-04T07:22:53Z</time>
      </trkpt>
      <trkpt lat="46.257043993100524" lon="11.838365430012345">
        <ele>2282.79</ele>
        <time>2017-07-04T07:23:22Z</time>
      </trkpt>
      <trkpt lat="46.2570486869663" lon="11.838386803865433">
        <ele>2282.3099999999999</ele>
        <time>2017-07-04T07:23:53Z</time>
      </trkpt>
      <trkpt lat="46.257051872089505" lon="11.838378924876451">
        <ele>2282.3099999999999</ele>
        <time>2017-07-04T07:24:12Z</time>
      </trkpt>
      <trkpt lat="46.25703644938767" lon="11.838372135534883">
        <ele>2282.3099999999999</ele>
        <time>2017-07-04T07:24:33Z</time>
      </trkpt>
      <trkpt lat="46.257024295628071" lon="11.83838420547545">
        <ele>2282.79</ele>
        <time>2017-07-04T07:24:53Z</time>
      </trkpt>
      <trkpt lat="46.257033934816718" lon="11.838389234617352">
        <ele>2282.79</ele>
        <time>2017-07-04T07:25:22Z</time>
      </trkpt>
      <trkpt lat="46.257029240950942" lon="11.838390743359923">
        <ele>2282.79</ele>
        <time>2017-07-04T07:25:53Z</time>
      </trkpt>
      <trkpt lat="46.257033264264464" lon="11.838391665369272">
        <ele>2282.79</ele>
        <time>2017-07-04T07:26:21Z</time>
      </trkpt>
      <trkpt lat="46.257039215415716" lon="11.83840130455792">
        <ele>2282.79</ele>
        <time>2017-07-04T07:26:52Z</time>
      </trkpt>
      <trkpt lat="46.257051955908537" lon="11.83838470838964">
        <ele>2282.79</ele>
        <time>2017-07-04T07:27:12Z</time>
      </trkpt>
      <trkpt lat="46.257060756906867" lon="11.83836417272687">
        <ele>2282.79</ele>
        <time>2017-07-04T07:27:26Z</time>
      </trkpt>
      <trkpt lat="46.257057571783662" lon="11.838399795815349">
        <ele>2282.79</ele>
        <time>2017-07-04T07:27:37Z</time>
      </trkpt>
      <trkpt lat="46.257037706673145" lon="11.838405663147569">
        <ele>2282.79</ele>
        <time>2017-07-04T07:27:48Z</time>
      </trkpt>
      <trkpt lat="46.257036784663796" lon="11.838390659540892">
        <ele>2283.27</ele>
        <time>2017-07-04T07:28:02Z</time>
      </trkpt>
      <trkpt lat="46.257043490186334" lon="11.838375823572278">
        <ele>2282.79</ele>
        <time>2017-07-04T07:28:16Z</time>
      </trkpt>
      <trkpt lat="46.257041143253446" lon="11.838375823572278">
        <ele>2282.79</ele>
        <time>2017-07-04T07:28:31Z</time>
      </trkpt>
      <trkpt lat="46.257031252607703" lon="11.838377332314849">
        <ele>2283.27</ele>
        <time>2017-07-04T07:28:52Z</time>
      </trkpt>
      <trkpt lat="46.257028905674815" lon="11.838406082242727">
        <ele>2283.27</ele>
        <time>2017-07-04T07:29:09Z</time>
      </trkpt>
      <trkpt lat="46.257023373618722" lon="11.838374733924866">
        <ele>2283.75</ele>
        <time>2017-07-04T07:29:21Z</time>
      </trkpt>
      <trkpt lat="46.257036030292511" lon="11.838381858542562">
        <ele>2283.75</ele>
        <time>2017-07-04T07:29:33Z</time>
      </trkpt>
      <trkpt lat="46.257009292021394" lon="11.838358892127872">
        <ele>2283.27</ele>
        <time>2017-07-04T07:29:47Z</time>
      </trkpt>
      <trkpt lat="46.256966376677155" lon="11.838355455547571">
        <ele>2283.27</ele>
        <time>2017-07-04T07:29:59Z</time>
      </trkpt>
      <trkpt lat="46.256901081651449" lon="11.838352354243398">
        <ele>2283.75</ele>
        <time>2017-07-04T07:30:10Z</time>
      </trkpt>
      <trkpt lat="46.256903596222401" lon="11.838374398648739">
        <ele>2283.75</ele>
        <time>2017-07-04T07:30:28Z</time>
      </trkpt>
      <trkpt lat="46.256850454956293" lon="11.838408345356584">
        <ele>2283.75</ele>
        <time>2017-07-04T07:30:41Z</time>
      </trkpt>
      <trkpt lat="46.256838133558631" lon="11.838470874354243">
        <ele>2284.71</ele>
        <time>2017-07-04T07:30:52Z</time>
      </trkpt>
      <trkpt lat="46.256858501583338" lon="11.838472383096814">
        <ele>2284.71</ele>
        <time>2017-07-04T07:31:04Z</time>
      </trkpt>
      <trkpt lat="46.256866380572319" lon="11.838501133024693">
        <ele>2284.23</ele>
        <time>2017-07-04T07:31:17Z</time>
      </trkpt>
      <trkpt lat="46.256867470219731" lon="11.838576989248395">
        <ele>2284.71</ele>
        <time>2017-07-04T07:31:28Z</time>
      </trkpt>
      <trkpt lat="46.256836038082838" lon="11.83868570253253">
        <ele>2284.71</ele>
        <time>2017-07-04T07:31:39Z</time>
      </trkpt>
      <trkpt lat="46.256850203499198" lon="11.838793158531189">
        <ele>2284.71</ele>
        <time>2017-07-04T07:31:51Z</time>
      </trkpt>
      <trkpt lat="46.256845006719232" lon="11.838941937312484">
        <ele>2285.1900000000001</ele>
        <time>2017-07-04T07:32:03Z</time>
      </trkpt>
      <trkpt lat="46.256845593452454" lon="11.839125333353877">
        <ele>2285.1900000000001</ele>
        <time>2017-07-04T07:32:18Z</time>
      </trkpt>
      <trkpt lat="46.256847772747278" lon="11.839258521795273">
        <ele>2285.6700000000001</ele>
        <time>2017-07-04T07:32:29Z</time>
      </trkpt>
      <trkpt lat="46.256835786625743" lon="11.839489443227649">
        <ele>2286.1500000000001</ele>
        <time>2017-07-04T07:32:43Z</time>
      </trkpt>
      <trkpt lat="46.256860597059131" lon="11.839683316648006">
        <ele>2286.6300000000001</ele>
        <time>2017-07-04T07:32:57Z</time>
      </trkpt>
      <trkpt lat="46.256901249289513" lon="11.839895462617278">
        <ele>2287.1100000000001</ele>
        <time>2017-07-04T07:33:10Z</time>
      </trkpt>
      <trkpt lat="46.256940308958292" lon="11.840060083195567">
        <ele>2287.1100000000001</ele>
        <time>2017-07-04T07:33:22Z</time>
      </trkpt>
      <trkpt lat="46.256914911791682" lon="11.840122612193227">
        <ele>2288.0799999999999</ele>
        <time>2017-07-04T07:33:26Z</time>
      </trkpt>
      <trkpt lat="46.256855735555291" lon="11.840183297172189">
        <ele>2289.04</ele>
        <time>2017-07-04T07:33:31Z</time>
      </trkpt>
      <trkpt lat="46.256792955100536" lon="11.840371638536453">
        <ele>2288.0799999999999</ele>
        <time>2017-07-04T07:33:43Z</time>
      </trkpt>
      <trkpt lat="46.256768060848117" lon="11.840402651578188">
        <ele>2288.5599999999999</ele>
        <time>2017-07-04T07:33:45Z</time>
      </trkpt>
      <trkpt lat="46.25673696398735" lon="11.840404160320759">
        <ele>2288.5599999999999</ele>
        <time>2017-07-04T07:33:47Z</time>
      </trkpt>
      <trkpt lat="46.256643170490861" lon="11.840413128957152">
        <ele>2288.5599999999999</ele>
        <time>2017-07-04T07:33:58Z</time>
      </trkpt>
      <trkpt lat="46.256627831608057" lon="11.840418074280024">
        <ele>2289.04</ele>
        <time>2017-07-04T07:34:00Z</time>
      </trkpt>
      <trkpt lat="46.256606709212065" lon="11.840433580800891">
        <ele>2289.52</ele>
        <time>2017-07-04T07:34:02Z</time>
      </trkpt>
      <trkpt lat="46.25656739808619" lon="11.840426288545132">
        <ele>2289.52</ele>
        <time>2017-07-04T07:34:11Z</time>
      </trkpt>
      <trkpt lat="46.256511574611068" lon="11.840408267453313">
        <ele>2290.48</ele>
        <time>2017-07-04T07:34:20Z</time>
      </trkpt>
      <trkpt lat="46.256511742249131" lon="11.840428970754147">
        <ele>2290.48</ele>
        <time>2017-07-04T07:34:22Z</time>
      </trkpt>
      <trkpt lat="46.256213514134288" lon="11.840283628553152">
        <ele>2291.4400000000001</ele>
        <time>2017-07-04T07:34:29Z</time>
      </trkpt>
      <trkpt lat="46.256057024002075" lon="11.840315312147141">
        <ele>2291.4400000000001</ele>
        <time>2017-07-04T07:34:40Z</time>
      </trkpt>
      <trkpt lat="46.256062388420105" lon="11.840338110923767">
        <ele>2291.4400000000001</ele>
        <time>2017-07-04T07:34:42Z</time>
      </trkpt>
      <trkpt lat="46.256013102829456" lon="11.840479513630271">
        <ele>2291.9200000000001</ele>
        <time>2017-07-04T07:34:53Z</time>
      </trkpt>
      <trkpt lat="46.255971360951662" lon="11.840609516948462">
        <ele>2292.4000000000001</ele>
        <time>2017-07-04T07:35:06Z</time>
      </trkpt>
      <trkpt lat="46.255957530811429" lon="11.840657880529761">
        <ele>2292.8800000000001</ele>
        <time>2017-07-04T07:35:10Z</time>
      </trkpt>
      <trkpt lat="46.255959626287222" lon="11.84085326269269">
        <ele>2293.8400000000001</ele>
        <time>2017-07-04T07:35:25Z</time>
      </trkpt>
      <trkpt lat="46.255903216078877" lon="11.841040346771479">
        <ele>2294.8000000000002</ele>
        <time>2017-07-04T07:35:41Z</time>
      </trkpt>
      <trkpt lat="46.256111674010754" lon="11.841265903785825">
        <ele>2296.25</ele>
        <time>2017-07-04T07:35:56Z</time>
      </trkpt>
      <trkpt lat="46.256106309592724" lon="11.841278560459614">
        <ele>2296.25</ele>
        <time>2017-07-04T07:35:57Z</time>
      </trkpt>
      <trkpt lat="46.25610220246017" lon="11.841437732800841">
        <ele>2296.73</ele>
        <time>2017-07-04T07:36:10Z</time>
      </trkpt>
      <trkpt lat="46.256123073399067" lon="11.841555582359433">
        <ele>2296.73</ele>
        <time>2017-07-04T07:36:18Z</time>
      </trkpt>
      <trkpt lat="46.256124246865511" lon="11.841627331450582">
        <ele>2297.21</ele>
        <time>2017-07-04T07:36:23Z</time>
      </trkpt>
      <trkpt lat="46.256133802235126" lon="11.84167318046093">
        <ele>2297.6900000000001</ele>
        <time>2017-07-04T07:36:28Z</time>
      </trkpt>
      <trkpt lat="46.256101028993726" lon="11.841794298961759">
        <ele>2297.21</ele>
        <time>2017-07-04T07:36:38Z</time>
      </trkpt>
      <trkpt lat="46.256110752001405" lon="11.841846434399486">
        <ele>2296.73</ele>
        <time>2017-07-04T07:36:43Z</time>
      </trkpt>
      <trkpt lat="46.256102873012424" lon="11.841967301443219">
        <ele>2296.25</ele>
        <time>2017-07-04T07:36:53Z</time>
      </trkpt>
      <trkpt lat="46.256433119997382" lon="11.842171316966414">
        <ele>2297.21</ele>
        <time>2017-07-04T07:37:01Z</time>
      </trkpt>
      <trkpt lat="46.256529930979013" lon="11.842331159859896">
        <ele>2295.77</ele>
        <time>2017-07-04T07:37:12Z</time>
      </trkpt>
      <trkpt lat="46.25647502951324" lon="11.842451691627502">
        <ele>2296.25</ele>
        <time>2017-07-04T07:37:25Z</time>
      </trkpt>
      <trkpt lat="46.256414009258151" lon="11.84247407130897">
        <ele>2297.6900000000001</ele>
        <time>2017-07-04T07:37:33Z</time>
      </trkpt>
      <trkpt lat="46.256359778344631" lon="11.842545820400119">
        <ele>2297.21</ele>
        <time>2017-07-04T07:37:41Z</time>
      </trkpt>
      <trkpt lat="46.256300685927272" lon="11.842546407133341">
        <ele>2296.25</ele>
        <time>2017-07-04T07:37:46Z</time>
      </trkpt>
      <trkpt lat="46.256188452243805" lon="11.842517489567399">
        <ele>2293.8400000000001</ele>
        <time>2017-07-04T07:37:56Z</time>
      </trkpt>
      <trkpt lat="46.25615056604147" lon="11.842557974159718">
        <ele>2292.8800000000001</ele>
        <time>2017-07-04T07:38:01Z</time>
      </trkpt>
      <trkpt lat="46.256035398691893" lon="11.842581946402788">
        <ele>2292.4000000000001</ele>
        <time>2017-07-04T07:38:10Z</time>
      </trkpt>
      <trkpt lat="46.255915034562349" lon="11.842559147626162">
        <ele>2291.9200000000001</ele>
        <time>2017-07-04T07:38:21Z</time>
      </trkpt>
      <trkpt lat="46.255808332934976" lon="11.842492176219821">
        <ele>2290.96</ele>
        <time>2017-07-04T07:38:32Z</time>
      </trkpt>
      <trkpt lat="46.2556810118258" lon="11.842364352196455">
        <ele>2289.52</ele>
        <time>2017-07-04T07:38:46Z</time>
      </trkpt>
      <trkpt lat="46.255599875003099" lon="11.842293525114655">
        <ele>2290</ele>
        <time>2017-07-04T07:38:57Z</time>
      </trkpt>
      <trkpt lat="46.25550951808691" lon="11.842253627255559">
        <ele>2291.4400000000001</ele>
        <time>2017-07-04T07:39:10Z</time>
      </trkpt>
      <trkpt lat="46.255431398749352" lon="11.842222865670919">
        <ele>2292.4000000000001</ele>
        <time>2017-07-04T07:39:20Z</time>
      </trkpt>
      <trkpt lat="46.255387058481574" lon="11.842191349714994">
        <ele>2292.8800000000001</ele>
        <time>2017-07-04T07:39:27Z</time>
      </trkpt>
      <trkpt lat="46.255266107618809" lon="11.842188080772758">
        <ele>2293.8400000000001</ele>
        <time>2017-07-04T07:39:39Z</time>
      </trkpt>
      <trkpt lat="46.255247667431831" lon="11.842168383300304">
        <ele>2293.8400000000001</ele>
        <time>2017-07-04T07:39:42Z</time>
      </trkpt>
      <trkpt lat="46.255144318565726" lon="11.842117169871926">
        <ele>2294.8000000000002</ele>
        <time>2017-07-04T07:39:54Z</time>
      </trkpt>
      <trkpt lat="46.255089417099953" lon="11.842092107981443">
        <ele>2295.77</ele>
        <time>2017-07-04T07:40:00Z</time>
      </trkpt>
      <trkpt lat="46.254980033263564" lon="11.841981131583452">
        <ele>2296.25</ele>
        <time>2017-07-04T07:40:14Z</time>
      </trkpt>
      <trkpt lat="46.254903506487608" lon="11.841887505725026">
        <ele>2297.6900000000001</ele>
        <time>2017-07-04T07:40:27Z</time>
      </trkpt>
      <trkpt lat="46.25481809489429" lon="11.841880800202489">
        <ele>2298.6500000000001</ele>
        <time>2017-07-04T07:40:37Z</time>
      </trkpt>
      <trkpt lat="46.254711141809821" lon="11.841845847666264">
        <ele>2299.6100000000001</ele>
        <time>2017-07-04T07:40:48Z</time>
      </trkpt>
      <trkpt lat="46.254606284201145" lon="11.841846685856581">
        <ele>2300.0900000000001</ele>
        <time>2017-07-04T07:40:59Z</time>
      </trkpt>
      <trkpt lat="46.254476280882955" lon="11.84179974719882">
        <ele>2300.5700000000002</ele>
        <time>2017-07-04T07:41:11Z</time>
      </trkpt>
      <trkpt lat="46.254358682781458" lon="11.841720957309008">
        <ele>2300.0900000000001</ele>
        <time>2017-07-04T07:41:22Z</time>
      </trkpt>
      <trkpt lat="46.254252400249243" lon="11.841698493808508">
        <ele>2299.6100000000001</ele>
        <time>2017-07-04T07:41:34Z</time>
      </trkpt>
      <trkpt lat="46.254114685580134" lon="11.841708971187472">
        <ele>2300.5700000000002</ele>
        <time>2017-07-04T07:41:48Z</time>
      </trkpt>
      <trkpt lat="46.254060873761773" lon="11.841725818812847">
        <ele>2301.0500000000002</ele>
        <time>2017-07-04T07:41:54Z</time>
      </trkpt>
      <trkpt lat="46.253975797444582" lon="11.841812152415514">
        <ele>2300.0900000000001</ele>
        <time>2017-07-04T07:42:05Z</time>
      </trkpt>
      <trkpt lat="46.25389264896512" lon="11.841851714998484">
        <ele>2300.5700000000002</ele>
        <time>2017-07-04T07:42:16Z</time>
      </trkpt>
      <trkpt lat="46.253845877945423" lon="11.841896222904325">
        <ele>2300.0900000000001</ele>
        <time>2017-07-04T07:42:27Z</time>
      </trkpt>
      <trkpt lat="46.25375434756279" lon="11.841958332806826">
        <ele>2300.0900000000001</ele>
        <time>2017-07-04T07:42:39Z</time>
      </trkpt>
      <trkpt lat="46.253757113590837" lon="11.842001583427191">
        <ele>2300.5700000000002</ele>
        <time>2017-07-04T07:42:50Z</time>
      </trkpt>
      <trkpt lat="46.253689220175147" lon="11.842108955606818">
        <ele>2300.0900000000001</ele>
        <time>2017-07-04T07:43:00Z</time>
      </trkpt>
      <trkpt lat="46.25363415107131" lon="11.842240886762738">
        <ele>2300.0900000000001</ele>
        <time>2017-07-04T07:43:12Z</time>
      </trkpt>
      <trkpt lat="46.253605736419559" lon="11.842312887310982">
        <ele>2300.5700000000002</ele>
        <time>2017-07-04T07:43:19Z</time>
      </trkpt>
      <trkpt lat="46.253580674529076" lon="11.842406848445535">
        <ele>2301.0500000000002</ele>
        <time>2017-07-04T07:43:32Z</time>
      </trkpt>
      <trkpt lat="46.253557372838259" lon="11.84245060198009">
        <ele>2301.0500000000002</ele>
        <time>2017-07-04T07:43:35Z</time>
      </trkpt>
      <trkpt lat="46.253488808870316" lon="11.842494774609804">
        <ele>2301.0500000000002</ele>
        <time>2017-07-04T07:43:46Z</time>
      </trkpt>
      <trkpt lat="46.253538262099028" lon="11.842558728531003">
        <ele>2301.5300000000002</ele>
        <time>2017-07-04T07:44:01Z</time>
      </trkpt>
      <trkpt lat="46.253511356189847" lon="11.842663586139679">
        <ele>2302.4899999999998</ele>
        <time>2017-07-04T07:44:10Z</time>
      </trkpt>
      <trkpt lat="46.253492329269648" lon="11.842763833701611">
        <ele>2302.98</ele>
        <time>2017-07-04T07:44:18Z</time>
      </trkpt>
      <trkpt lat="46.253490820527077" lon="11.842907331883907">
        <ele>2303.9400000000001</ele>
        <time>2017-07-04T07:44:28Z</time>
      </trkpt>
      <trkpt lat="46.253539016470313" lon="11.842998024076223">
        <ele>2304.9000000000001</ele>
        <time>2017-07-04T07:44:38Z</time>
      </trkpt>
      <trkpt lat="46.253601210191846" lon="11.843149987980723">
        <ele>2305.8600000000001</ele>
        <time>2017-07-04T07:44:50Z</time>
      </trkpt>
      <trkpt lat="46.253588134422898" lon="11.843272112309933">
        <ele>2306.8200000000002</ele>
        <time>2017-07-04T07:45:01Z</time>
      </trkpt>
      <trkpt lat="46.25357304699719" lon="11.843293318524957">
        <ele>2306.8200000000002</ele>
        <time>2017-07-04T07:45:04Z</time>
      </trkpt>
      <trkpt lat="46.253514960408211" lon="11.84333304874599">
        <ele>2306.3400000000001</ele>
        <time>2017-07-04T07:45:10Z</time>
      </trkpt>
      <trkpt lat="46.253477493301034" lon="11.843370012938976">
        <ele>2307.3000000000002</ele>
        <time>2017-07-04T07:45:23Z</time>
      </trkpt>
      <trkpt lat="46.253471793606877" lon="11.843385687097907">
        <ele>2307.3000000000002</ele>
        <time>2017-07-04T07:45:25Z</time>
      </trkpt>
      <trkpt lat="46.253378419205546" lon="11.843509990721941">
        <ele>2308.2600000000002</ele>
        <time>2017-07-04T07:45:37Z</time>
      </trkpt>
      <trkpt lat="46.253321757540107" lon="11.843569921329618">
        <ele>2307.7800000000002</ele>
        <time>2017-07-04T07:45:47Z</time>
      </trkpt>
      <trkpt lat="46.253290325403214" lon="11.843663966283202">
        <ele>2308.7399999999998</ele>
        <time>2017-07-04T07:45:57Z</time>
      </trkpt>
      <trkpt lat="46.2532789260149" lon="11.843677293509245">
        <ele>2309.2199999999998</ele>
        <time>2017-07-04T07:45:59Z</time>
      </trkpt>
      <trkpt lat="46.253250343725085" lon="11.84360814280808">
        <ele>2310.1900000000001</ele>
        <time>2017-07-04T07:46:09Z</time>
      </trkpt>
      <trkpt lat="46.253218576312065" lon="11.843662708997726">
        <ele>2310.1900000000001</ele>
        <time>2017-07-04T07:46:17Z</time>
      </trkpt>
      <trkpt lat="46.253150682896376" lon="11.843732446432114">
        <ele>2311.1500000000001</ele>
        <time>2017-07-04T07:46:28Z</time>
      </trkpt>
      <trkpt lat="46.25316116027534" lon="11.84378701262176">
        <ele>2311.6300000000001</ele>
        <time>2017-07-04T07:46:36Z</time>
      </trkpt>
      <trkpt lat="46.253105420619249" lon="11.843802351504564">
        <ele>2311.6300000000001</ele>
        <time>2017-07-04T07:46:48Z</time>
      </trkpt>
      <trkpt lat="46.253061918541789" lon="11.843802435323596">
        <ele>2312.1100000000001</ele>
        <time>2017-07-04T07:46:59Z</time>
      </trkpt>
      <trkpt lat="46.253042388707399" lon="11.843792460858822">
        <ele>2311.1500000000001</ele>
        <time>2017-07-04T07:47:05Z</time>
      </trkpt>
      <trkpt lat="46.252990253269672" lon="11.843834035098553">
        <ele>2312.1100000000001</ele>
        <time>2017-07-04T07:47:17Z</time>
      </trkpt>
      <trkpt lat="46.252972483634949" lon="11.843825820833445">
        <ele>2313.0700000000002</ele>
        <time>2017-07-04T07:47:20Z</time>
      </trkpt>
      <trkpt lat="46.252937195822597" lon="11.843734541907907">
        <ele>2314.5100000000002</ele>
        <time>2017-07-04T07:47:31Z</time>
      </trkpt>
      <trkpt lat="46.252904087305069" lon="11.843781480565667">
        <ele>2314.5100000000002</ele>
        <time>2017-07-04T07:47:41Z</time>
      </trkpt>
      <trkpt lat="46.252861004322767" lon="11.843782570213079">
        <ele>2314.0300000000002</ele>
        <time>2017-07-04T07:47:51Z</time>
      </trkpt>
      <trkpt lat="46.252832086756825" lon="11.843705205246806">
        <ele>2313.0700000000002</ele>
        <time>2017-07-04T07:48:04Z</time>
      </trkpt>
      <trkpt lat="46.252802331000566" lon="11.843712581321597">
        <ele>2313.5500000000002</ele>
        <time>2017-07-04T07:48:13Z</time>
      </trkpt>
      <trkpt lat="46.252751871943474" lon="11.843738816678524">
        <ele>2314.9899999999998</ele>
        <time>2017-07-04T07:48:22Z</time>
      </trkpt>
      <trkpt lat="46.252715410664678" lon="11.843753736466169">
        <ele>2315.4699999999998</ele>
        <time>2017-07-04T07:48:26Z</time>
      </trkpt>
      <trkpt lat="46.252698395401239" lon="11.843755748122931">
        <ele>2315.4699999999998</ele>
        <time>2017-07-04T07:48:28Z</time>
      </trkpt>
      <trkpt lat="46.252655815333128" lon="11.843759687617421">
        <ele>2315.9499999999998</ele>
        <time>2017-07-04T07:48:36Z</time>
      </trkpt>
      <trkpt lat="46.252606613561511" lon="11.843808386474848">
        <ele>2316.4299999999998</ele>
        <time>2017-07-04T07:48:45Z</time>
      </trkpt>
      <trkpt lat="46.252476694062352" lon="11.843782570213079">
        <ele>2317.8800000000001</ele>
        <time>2017-07-04T07:48:57Z</time>
      </trkpt>
      <trkpt lat="46.252362364903092" lon="11.843728087842464">
        <ele>2318.3600000000001</ele>
        <time>2017-07-04T07:49:10Z</time>
      </trkpt>
      <trkpt lat="46.252305116504431" lon="11.843720795586705">
        <ele>2318.8400000000001</ele>
        <time>2017-07-04T07:49:18Z</time>
      </trkpt>
      <trkpt lat="46.25222104601562" lon="11.843709228560328">
        <ele>2320.2800000000002</ele>
        <time>2017-07-04T07:49:29Z</time>
      </trkpt>
      <trkpt lat="46.252138148993254" lon="11.843702523037791">
        <ele>2321.2399999999998</ele>
        <time>2017-07-04T07:49:38Z</time>
      </trkpt>
      <trkpt lat="46.252082828432322" lon="11.843726662918925">
        <ele>2322.1999999999998</ele>
        <time>2017-07-04T07:49:48Z</time>
      </trkpt>
      <trkpt lat="46.252047959715128" lon="11.843793382868171">
        <ele>2323.1599999999999</ele>
        <time>2017-07-04T07:49:58Z</time>
      </trkpt>
      <trkpt lat="46.252004876732826" lon="11.843842919915915">
        <ele>2324.1199999999999</ele>
        <time>2017-07-04T07:50:09Z</time>
      </trkpt>
      <trkpt lat="46.251959027722478" lon="11.843885164707899">
        <ele>2325.0900000000001</ele>
        <time>2017-07-04T07:50:20Z</time>
      </trkpt>
      <trkpt lat="46.251927427947521" lon="11.84392036870122">
        <ele>2325.5700000000002</ele>
        <time>2017-07-04T07:50:29Z</time>
      </trkpt>
      <trkpt lat="46.25188727863133" lon="11.843920452520251">
        <ele>2326.5300000000002</ele>
        <time>2017-07-04T07:50:41Z</time>
      </trkpt>
      <trkpt lat="46.251845620572567" lon="11.843913998454809">
        <ele>2325.5700000000002</ele>
        <time>2017-07-04T07:50:51Z</time>
      </trkpt>
      <trkpt lat="46.251794155687094" lon="11.843899413943291">
        <ele>2325.5700000000002</ele>
        <time>2017-07-04T07:51:01Z</time>
      </trkpt>
      <trkpt lat="46.251743361353874" lon="11.843870412558317">
        <ele>2324.6100000000001</ele>
        <time>2017-07-04T07:51:11Z</time>
      </trkpt>
      <trkpt lat="46.251694494858384" lon="11.843837471678853">
        <ele>2323.1599999999999</ele>
        <time>2017-07-04T07:51:22Z</time>
      </trkpt>
      <trkpt lat="46.251663146540523" lon="11.843806290999055">
        <ele>2321.7199999999998</ele>
        <time>2017-07-04T07:51:32Z</time>
      </trkpt>
      <trkpt lat="46.251641437411308" lon="11.843796065077186">
        <ele>2321.7199999999998</ele>
        <time>2017-07-04T07:51:43Z</time>
      </trkpt>
      <trkpt lat="46.251590643078089" lon="11.843793634325266">
        <ele>2320.7600000000002</ele>
        <time>2017-07-04T07:51:59Z</time>
      </trkpt>
      <trkpt lat="46.251552840694785" lon="11.843807967379689">
        <ele>2321.2399999999998</ele>
        <time>2017-07-04T07:52:08Z</time>
      </trkpt>
      <trkpt lat="46.251525934785604" lon="11.843857755884528">
        <ele>2321.7199999999998</ele>
        <time>2017-07-04T07:52:19Z</time>
      </trkpt>
      <trkpt lat="46.251554265618324" lon="11.843852223828435">
        <ele>2321.7199999999998</ele>
        <time>2017-07-04T07:52:32Z</time>
      </trkpt>
      <trkpt lat="46.251533143222332" lon="11.843837220221758">
        <ele>2321.7199999999998</ele>
        <time>2017-07-04T07:52:46Z</time>
      </trkpt>
      <trkpt lat="46.251499699428678" lon="11.843842584639788">
        <ele>2323.1599999999999</ele>
        <time>2017-07-04T07:52:58Z</time>
      </trkpt>
      <trkpt lat="46.251504560932517" lon="11.843851050361991">
        <ele>2323.6399999999999</ele>
        <time>2017-07-04T07:53:14Z</time>
      </trkpt>
      <trkpt lat="46.25147882848978" lon="11.843814505264163">
        <ele>2324.6100000000001</ele>
        <time>2017-07-04T07:53:22Z</time>
      </trkpt>
      <trkpt lat="46.251489724963903" lon="11.843834118917584">
        <ele>2325.0900000000001</ele>
        <time>2017-07-04T07:53:36Z</time>
      </trkpt>
      <trkpt lat="46.251502549275756" lon="11.843842333182693">
        <ele>2325.0900000000001</ele>
        <time>2017-07-04T07:53:49Z</time>
      </trkpt>
      <trkpt lat="46.251509422436357" lon="11.843858594074845">
        <ele>2325.0900000000001</ele>
        <time>2017-07-04T07:54:02Z</time>
      </trkpt>
      <trkpt lat="46.251520989462733" lon="11.843850379809737">
        <ele>2325.0900000000001</ele>
        <time>2017-07-04T07:54:16Z</time>
      </trkpt>
      <trkpt lat="46.251520151272416" lon="11.843852810561657">
        <ele>2325.0900000000001</ele>
        <time>2017-07-04T07:54:28Z</time>
      </trkpt>
      <trkpt lat="46.251523336395621" lon="11.843848619610071">
        <ele>2325.0900000000001</ele>
        <time>2017-07-04T07:54:45Z</time>
      </trkpt>
      <trkpt lat="46.251544710248709" lon="11.843825401738286">
        <ele>2324.1199999999999</ele>
        <time>2017-07-04T07:54:58Z</time>
      </trkpt>
      <trkpt lat="46.251475643366575" lon="11.843879381194711">
        <ele>2324.1199999999999</ele>
        <time>2017-07-04T07:55:10Z</time>
      </trkpt>
      <trkpt lat="46.251473715528846" lon="11.843919111415744">
        <ele>2324.1199999999999</ele>
        <time>2017-07-04T07:55:20Z</time>
      </trkpt>
      <trkpt lat="46.251449575647712" lon="11.843934031203389">
        <ele>2324.6100000000001</ele>
        <time>2017-07-04T07:55:32Z</time>
      </trkpt>
      <trkpt lat="46.251456029713154" lon="11.843931768089533">
        <ele>2326.5300000000002</ele>
        <time>2017-07-04T07:55:42Z</time>
      </trkpt>
      <trkpt lat="46.251428201794624" lon="11.843957081437111">
        <ele>2326.0500000000002</ele>
        <time>2017-07-04T07:55:50Z</time>
      </trkpt>
      <trkpt lat="46.251448569819331" lon="11.843939395621419">
        <ele>2327.0100000000002</ele>
        <time>2017-07-04T07:56:01Z</time>
      </trkpt>
      <trkpt lat="46.251449240371585" lon="11.843931013718247">
        <ele>2327.0100000000002</ele>
        <time>2017-07-04T07:56:06Z</time>
      </trkpt>
      <trkpt lat="46.251469273120165" lon="11.843890445306897">
        <ele>2327.4899999999998</ele>
        <time>2017-07-04T07:56:15Z</time>
      </trkpt>
      <trkpt lat="46.251451419666409" lon="11.843877704814076">
        <ele>2328.4499999999998</ele>
        <time>2017-07-04T07:56:24Z</time>
      </trkpt>
      <trkpt lat="46.251449156552553" lon="11.843843758106232">
        <ele>2327.9699999999998</ele>
        <time>2017-07-04T07:56:33Z</time>
      </trkpt>
      <trkpt lat="46.251435158774257" lon="11.843769745901227">
        <ele>2327.0100000000002</ele>
        <time>2017-07-04T07:56:42Z</time>
      </trkpt>
      <trkpt lat="46.251419233158231" lon="11.843787515535951">
        <ele>2327.4899999999998</ele>
        <time>2017-07-04T07:56:45Z</time>
      </trkpt>
      <trkpt lat="46.251361900940537" lon="11.843755580484867">
        <ele>2327.9699999999998</ele>
        <time>2017-07-04T07:56:54Z</time>
      </trkpt>
      <trkpt lat="46.251365588977933" lon="11.843829089775681">
        <ele>2330.3699999999999</ele>
        <time>2017-07-04T07:57:04Z</time>
      </trkpt>
      <trkpt lat="46.251327702775598" lon="11.843827245756984">
        <ele>2331.8099999999999</ele>
        <time>2017-07-04T07:57:13Z</time>
      </trkpt>
      <trkpt lat="46.251246901229024" lon="11.843808135017753">
        <ele>2333.7399999999998</ele>
        <time>2017-07-04T07:57:23Z</time>
      </trkpt>
      <trkpt lat="46.251171799376607" lon="11.843782821670175">
        <ele>2335.1799999999998</ele>
        <time>2017-07-04T07:57:35Z</time>
      </trkpt>
      <trkpt lat="46.251114550977945" lon="11.843819534406066">
        <ele>2336.1399999999999</ele>
        <time>2017-07-04T07:57:43Z</time>
      </trkpt>
      <trkpt lat="46.251076413318515" lon="11.843850715085864">
        <ele>2337.5799999999999</ele>
        <time>2017-07-04T07:57:51Z</time>
      </trkpt>
      <trkpt lat="46.251017237082124" lon="11.843923050910234">
        <ele>2338.54</ele>
        <time>2017-07-04T07:58:02Z</time>
      </trkpt>
      <trkpt lat="46.250982703641057" lon="11.843947861343622">
        <ele>2339.5100000000002</ele>
        <time>2017-07-04T07:58:13Z</time>
      </trkpt>
      <trkpt lat="46.250897208228707" lon="11.843886757269502">
        <ele>2340.4699999999998</ele>
        <time>2017-07-04T07:58:23Z</time>
      </trkpt>
      <trkpt lat="46.250837780535221" lon="11.84388080611825">
        <ele>2342.3899999999999</ele>
        <time>2017-07-04T07:58:35Z</time>
      </trkpt>
      <trkpt lat="46.250868123024702" lon="11.843889690935612">
        <ele>2342.8699999999999</ele>
        <time>2017-07-04T07:58:50Z</time>
      </trkpt>
      <trkpt lat="46.25086510553956" lon="11.843864042311907">
        <ele>2343.8299999999999</ele>
        <time>2017-07-04T07:59:00Z</time>
      </trkpt>
      <trkpt lat="46.250854209065437" lon="11.843885332345963">
        <ele>2344.79</ele>
        <time>2017-07-04T07:59:09Z</time>
      </trkpt>
      <trkpt lat="46.250828728079796" lon="11.843919111415744">
        <ele>2345.27</ele>
        <time>2017-07-04T07:59:19Z</time>
      </trkpt>
      <trkpt lat="46.250833002850413" lon="11.843872675672174">
        <ele>2345.27</ele>
        <time>2017-07-04T07:59:37Z</time>
      </trkpt>
      <trkpt lat="46.250817663967609" lon="11.843886338174343">
        <ele>2346.23</ele>
        <time>2017-07-04T07:59:47Z</time>
      </trkpt>
      <trkpt lat="46.250837361440063" lon="11.843869574368">
        <ele>2346.23</ele>
        <time>2017-07-04T08:00:00Z</time>
      </trkpt>
      <trkpt lat="46.250875582918525" lon="11.843838393688202">
        <ele>2345.27</ele>
        <time>2017-07-04T08:00:11Z</time>
      </trkpt>
      <trkpt lat="46.250885305926204" lon="11.84385733678937">
        <ele>2344.79</ele>
        <time>2017-07-04T08:00:20Z</time>
      </trkpt>
      <trkpt lat="46.250837361440063" lon="11.843904191628098">
        <ele>2345.75</ele>
        <time>2017-07-04T08:00:33Z</time>
      </trkpt>
      <trkpt lat="46.250816574320197" lon="11.843914836645126">
        <ele>2345.75</ele>
        <time>2017-07-04T08:00:36Z</time>
      </trkpt>
      <trkpt lat="46.250719930976629" lon="11.843896983191371">
        <ele>2347.6799999999998</ele>
        <time>2017-07-04T08:00:46Z</time>
      </trkpt>
      <trkpt lat="46.250655557960272" lon="11.843894803896546">
        <ele>2349.5999999999999</ele>
        <time>2017-07-04T08:00:57Z</time>
      </trkpt>
      <trkpt lat="46.250604344531894" lon="11.843915591016412">
        <ele>2350.0799999999999</ele>
        <time>2017-07-04T08:01:06Z</time>
      </trkpt>
      <trkpt lat="46.250613396987319" lon="11.84388181194663">
        <ele>2348.6399999999999</ele>
        <time>2017-07-04T08:01:22Z</time>
      </trkpt>
      <trkpt lat="46.250619599595666" lon="11.843910813331604">
        <ele>2349.1199999999999</ele>
        <time>2017-07-04T08:01:38Z</time>
      </trkpt>
      <trkpt lat="46.250618593767285" lon="11.84391550719738">
        <ele>2349.5999999999999</ele>
        <time>2017-07-04T08:01:59Z</time>
      </trkpt>
      <trkpt lat="46.250604595988989" lon="11.84389840811491">
        <ele>2349.1199999999999</ele>
        <time>2017-07-04T08:02:23Z</time>
      </trkpt>
      <trkpt lat="46.250606356188655" lon="11.843882482498884">
        <ele>2349.5999999999999</ele>
        <time>2017-07-04T08:02:45Z</time>
      </trkpt>
      <trkpt lat="46.250618426129222" lon="11.84385247528553">
        <ele>2349.5999999999999</ele>
        <time>2017-07-04T08:03:07Z</time>
      </trkpt>
      <trkpt lat="46.25061146914959" lon="11.843853397294879">
        <ele>2350.0799999999999</ele>
        <time>2017-07-04T08:03:17Z</time>
      </trkpt>
      <trkpt lat="46.25063493847847" lon="11.84385146945715">
        <ele>2350.5599999999999</ele>
        <time>2017-07-04T08:03:29Z</time>
      </trkpt>
      <trkpt lat="46.250634267926216" lon="11.843860438093543">
        <ele>2346.23</ele>
        <time>2017-07-04T08:03:31Z</time>
      </trkpt>
      <trkpt lat="46.25063301064074" lon="11.84386077336967">
        <ele>2350.0799999999999</ele>
        <time>2017-07-04T08:03:32Z</time>
      </trkpt>
      <trkpt lat="46.250624880194664" lon="11.843863790854812">
        <ele>2350.0799999999999</ele>
        <time>2017-07-04T08:03:41Z</time>
      </trkpt>
      <trkpt lat="46.250601997599006" lon="11.843859599903226">
        <ele>2350.0799999999999</ele>
        <time>2017-07-04T08:04:04Z</time>
      </trkpt>
      <trkpt lat="46.250586407259107" lon="11.843863287940621">
        <ele>2350.5599999999999</ele>
        <time>2017-07-04T08:04:26Z</time>
      </trkpt>
      <trkpt lat="46.250604595988989" lon="11.84385834261775">
        <ele>2350.0799999999999</ele>
        <time>2017-07-04T08:04:53Z</time>
      </trkpt>
      <trkpt lat="46.250595794990659" lon="11.843878794461489">
        <ele>2350.5599999999999</ele>
        <time>2017-07-04T08:05:21Z</time>
      </trkpt>
      <trkpt lat="46.250572912395" lon="11.843879716470838">
        <ele>2350.5599999999999</ele>
        <time>2017-07-04T08:05:50Z</time>
      </trkpt>
      <trkpt lat="46.250608116388321" lon="11.843852810561657">
        <ele>2350.5599999999999</ele>
        <time>2017-07-04T08:06:19Z</time>
      </trkpt>
      <trkpt lat="46.250587329268456" lon="11.843865048140287">
        <ele>2351.04</ele>
        <time>2017-07-04T08:06:44Z</time>
      </trkpt>
      <trkpt lat="46.25060317106545" lon="11.843879045918584">
        <ele>2351.04</ele>
        <time>2017-07-04T08:07:05Z</time>
      </trkpt>
      <trkpt lat="46.250580539926887" lon="11.843862533569336">
        <ele>2351.04</ele>
        <time>2017-07-04T08:07:34Z</time>
      </trkpt>
      <trkpt lat="46.250599315389991" lon="11.843865802511573">
        <ele>2351.04</ele>
        <time>2017-07-04T08:08:05Z</time>
      </trkpt>
      <trkpt lat="46.250583808869123" lon="11.843862198293209">
        <ele>2351.52</ele>
        <time>2017-07-04T08:08:31Z</time>
      </trkpt>
      <trkpt lat="46.250593196600676" lon="11.843856163322926">
        <ele>2351.52</ele>
        <time>2017-07-04T08:08:57Z</time>
      </trkpt>
      <trkpt lat="46.250615576282144" lon="11.843868568539619">
        <ele>2351.52</ele>
        <time>2017-07-04T08:09:24Z</time>
      </trkpt>
      <trkpt lat="46.250611636787653" lon="11.843862785026431">
        <ele>2351.52</ele>
        <time>2017-07-04T08:09:51Z</time>
      </trkpt>
      <trkpt lat="46.250576265156269" lon="11.843867311254144">
        <ele>2351.52</ele>
        <time>2017-07-04T08:10:20Z</time>
      </trkpt>
      <trkpt lat="46.250566290691495" lon="11.843852056190372">
        <ele>2351.52</ele>
        <time>2017-07-04T08:10:52Z</time>
      </trkpt>
      <trkpt lat="46.250565033406019" lon="11.84385004453361">
        <ele>2351.52</ele>
        <time>2017-07-04T08:11:21Z</time>
      </trkpt>
      <trkpt lat="46.250559668987989" lon="11.843855660408735">
        <ele>2351.52</ele>
        <time>2017-07-04T08:11:50Z</time>
      </trkpt>
      <trkpt lat="46.250589173287153" lon="11.843855241313577">
        <ele>2351.52</ele>
        <time>2017-07-04T08:12:18Z</time>
      </trkpt>
      <trkpt lat="46.250593867152929" lon="11.843871083110571">
        <ele>2351.52</ele>
        <time>2017-07-04T08:12:37Z</time>
      </trkpt>
      <trkpt lat="46.250609457492828" lon="11.843875860795379">
        <ele>2351.52</ele>
        <time>2017-07-04T08:13:05Z</time>
      </trkpt>
      <trkpt lat="46.250627310946584" lon="11.843882231041789">
        <ele>2351.04</ele>
        <time>2017-07-04T08:13:34Z</time>
      </trkpt>
      <trkpt lat="46.250606020912528" lon="11.843883655965328">
        <ele>2351.52</ele>
        <time>2017-07-04T08:13:58Z</time>
      </trkpt>
      <trkpt lat="46.250610295683146" lon="11.843864964321256">
        <ele>2351.52</ele>
        <time>2017-07-04T08:14:25Z</time>
      </trkpt>
      <trkpt lat="46.250607278198004" lon="11.843869406729937">
        <ele>2351.52</ele>
        <time>2017-07-04T08:14:49Z</time>
      </trkpt>
      <trkpt lat="46.250601410865784" lon="11.84384903870523">
        <ele>2351.52</ele>
        <time>2017-07-04T08:15:18Z</time>
      </trkpt>
      <trkpt lat="46.250608870759606" lon="11.843831688165665">
        <ele>2351.52</ele>
        <time>2017-07-04T08:15:44Z</time>
      </trkpt>
      <trkpt lat="46.250613732263446" lon="11.843832358717918">
        <ele>2351.52</ele>
        <time>2017-07-04T08:16:10Z</time>
      </trkpt>
      <trkpt lat="46.250580539926887" lon="11.843869909644127">
        <ele>2351.52</ele>
        <time>2017-07-04T08:16:36Z</time>
      </trkpt>
      <trkpt lat="46.250631753355265" lon="11.843891954049468">
        <ele>2352.48</ele>
        <time>2017-07-04T08:16:43Z</time>
      </trkpt>
      <trkpt lat="46.250627227127552" lon="11.843907963484526">
        <ele>2352.48</ele>
        <time>2017-07-04T08:16:50Z</time>
      </trkpt>
      <trkpt lat="46.250647762790322" lon="11.84390620328486">
        <ele>2352.96</ele>
        <time>2017-07-04T08:17:01Z</time>
      </trkpt>
      <trkpt lat="46.250626305118203" lon="11.843846272677183">
        <ele>2352.96</ele>
        <time>2017-07-04T08:17:17Z</time>
      </trkpt>
      <trkpt lat="46.250626808032393" lon="11.843864126130939">
        <ele>2352.96</ele>
        <time>2017-07-04T08:17:34Z</time>
      </trkpt>
      <trkpt lat="46.250628316774964" lon="11.843854822218418">
        <ele>2352.96</ele>
        <time>2017-07-04T08:17:53Z</time>
      </trkpt>
      <trkpt lat="46.250648852437735" lon="11.843863623216748">
        <ele>2352.48</ele>
        <time>2017-07-04T08:18:07Z</time>
      </trkpt>
      <trkpt lat="46.250631250441074" lon="11.843871418386698">
        <ele>2352.48</ele>
        <time>2017-07-04T08:18:23Z</time>
      </trkpt>
      <trkpt lat="46.250576432794333" lon="11.843906370922923">
        <ele>2352.96</ele>
        <time>2017-07-04T08:18:34Z</time>
      </trkpt>
      <trkpt lat="46.250562937930226" lon="11.843948448076844">
        <ele>2353.4400000000001</ele>
        <time>2017-07-04T08:18:44Z</time>
      </trkpt>
      <trkpt lat="46.250579953193665" lon="11.843970492482185">
        <ele>2352.48</ele>
        <time>2017-07-04T08:18:53Z</time>
      </trkpt>
      <trkpt lat="46.250566793605685" lon="11.843991028144956">
        <ele>2352.48</ele>
        <time>2017-07-04T08:19:02Z</time>
      </trkpt>
      <trkpt lat="46.250562770292163" lon="11.843983232975006">
        <ele>2352.48</ele>
        <time>2017-07-04T08:19:16Z</time>
      </trkpt>
      <trkpt lat="46.250541983172297" lon="11.84400980360806">
        <ele>2352</ele>
        <time>2017-07-04T08:19:37Z</time>
      </trkpt>
      <trkpt lat="46.250533936545253" lon="11.844005864113569">
        <ele>2352</ele>
        <time>2017-07-04T08:19:46Z</time>
      </trkpt>
      <trkpt lat="46.250518346205354" lon="11.843985579907894">
        <ele>2351.52</ele>
        <time>2017-07-04T08:19:57Z</time>
      </trkpt>
      <trkpt lat="46.25052941031754" lon="11.843965295702219">
        <ele>2351.04</ele>
        <time>2017-07-04T08:20:19Z</time>
      </trkpt>
      <trkpt lat="46.250513317063451" lon="11.844011563807726">
        <ele>2351.04</ele>
        <time>2017-07-04T08:20:30Z</time>
      </trkpt>
      <trkpt lat="46.250504180788994" lon="11.844020448625088">
        <ele>2350.5599999999999</ele>
        <time>2017-07-04T08:20:40Z</time>
      </trkpt>
      <trkpt lat="46.250519352033734" lon="11.844016509130597">
        <ele>2350.5599999999999</ele>
        <time>2017-07-04T08:20:55Z</time>
      </trkpt>
      <trkpt lat="46.250518513843417" lon="11.844023549929261">
        <ele>2350.0799999999999</ele>
        <time>2017-07-04T08:21:04Z</time>
      </trkpt>
      <trkpt lat="46.250462019816041" lon="11.844044085592031">
        <ele>2350.5599999999999</ele>
        <time>2017-07-04T08:21:20Z</time>
      </trkpt>
      <trkpt lat="46.250472581014037" lon="11.844039727002382">
        <ele>2350.0799999999999</ele>
        <time>2017-07-04T08:21:38Z</time>
      </trkpt>
      <trkpt lat="46.250506108626723" lon="11.844025645405054">
        <ele>2350.5599999999999</ele>
        <time>2017-07-04T08:21:56Z</time>
      </trkpt>
      <trkpt lat="46.250505521893501" lon="11.844040481373668">
        <ele>2350.5599999999999</ele>
        <time>2017-07-04T08:22:14Z</time>
      </trkpt>
      <trkpt lat="46.250477861613035" lon="11.844018772244453">
        <ele>2351.04</ele>
        <time>2017-07-04T08:22:28Z</time>
      </trkpt>
      <trkpt lat="46.250527231022716" lon="11.844046683982015">
        <ele>2350.5599999999999</ele>
        <time>2017-07-04T08:22:45Z</time>
      </trkpt>
      <trkpt lat="46.250475095584989" lon="11.84407090768218">
        <ele>2350.5599999999999</ele>
        <time>2017-07-04T08:23:05Z</time>
      </trkpt>
      <trkpt lat="46.250442070886493" lon="11.844084905460477">
        <ele>2350.5599999999999</ele>
        <time>2017-07-04T08:23:16Z</time>
      </trkpt>
      <trkpt lat="46.25046051107347" lon="11.844085827469826">
        <ele>2350.5599999999999</ele>
        <time>2017-07-04T08:23:31Z</time>
      </trkpt>
      <trkpt lat="46.250443831086159" lon="11.84405573643744">
        <ele>2350.5599999999999</ele>
        <time>2017-07-04T08:23:45Z</time>
      </trkpt>
      <trkpt lat="46.250418601557612" lon="11.844042995944619">
        <ele>2351.04</ele>
        <time>2017-07-04T08:24:01Z</time>
      </trkpt>
      <trkpt lat="46.250391025096178" lon="11.844052216038108">
        <ele>2350.5599999999999</ele>
        <time>2017-07-04T08:24:18Z</time>
      </trkpt>
      <trkpt lat="46.250382978469133" lon="11.844033859670162">
        <ele>2350.5599999999999</ele>
        <time>2017-07-04T08:24:32Z</time>
      </trkpt>
      <trkpt lat="46.250401167199016" lon="11.844031764194369">
        <ele>2351.04</ele>
        <time>2017-07-04T08:24:47Z</time>
      </trkpt>
      <trkpt lat="46.250413488596678" lon="11.844035116955638">
        <ele>2351.04</ele>
        <time>2017-07-04T08:25:08Z</time>
      </trkpt>
      <trkpt lat="46.250366130843759" lon="11.844041906297207">
        <ele>2351.52</ele>
        <time>2017-07-04T08:25:21Z</time>
      </trkpt>
      <trkpt lat="46.250357665121555" lon="11.844043750315905">
        <ele>2351.52</ele>
        <time>2017-07-04T08:25:32Z</time>
      </trkpt>
      <trkpt lat="46.250317431986332" lon="11.844036374241114">
        <ele>2351.52</ele>
        <time>2017-07-04T08:25:44Z</time>
      </trkpt>
      <trkpt lat="46.250314749777317" lon="11.844052970409393">
        <ele>2351.52</ele>
        <time>2017-07-04T08:26:01Z</time>
      </trkpt>
      <trkpt lat="46.250285413116217" lon="11.844063866883516">
        <ele>2351.52</ele>
        <time>2017-07-04T08:26:16Z</time>
      </trkpt>
      <trkpt lat="46.250241491943598" lon="11.844062609598041">
        <ele>2352</ele>
        <time>2017-07-04T08:26:29Z</time>
      </trkpt>
      <trkpt lat="46.250214837491512" lon="11.844053389504552">
        <ele>2352</ele>
        <time>2017-07-04T08:26:42Z</time>
      </trkpt>
      <trkpt lat="46.250201258808374" lon="11.844096556305885">
        <ele>2352</ele>
        <time>2017-07-04T08:26:54Z</time>
      </trkpt>
      <trkpt lat="46.250217352062464" lon="11.844083145260811">
        <ele>2352</ele>
        <time>2017-07-04T08:27:12Z</time>
      </trkpt>
      <trkpt lat="46.250238558277488" lon="11.844119355082512">
        <ele>2352</ele>
        <time>2017-07-04T08:27:28Z</time>
      </trkpt>
      <trkpt lat="46.250276528298855" lon="11.844157157465816">
        <ele>2352.48</ele>
        <time>2017-07-04T08:27:48Z</time>
      </trkpt>
      <trkpt lat="46.250245599076152" lon="11.84413880109787">
        <ele>2352</ele>
        <time>2017-07-04T08:27:59Z</time>
      </trkpt>
      <trkpt lat="46.250212742015719" lon="11.844172328710556">
        <ele>2352.48</ele>
        <time>2017-07-04T08:28:10Z</time>
      </trkpt>
      <trkpt lat="46.250191368162632" lon="11.844177776947618">
        <ele>2352.48</ele>
        <time>2017-07-04T08:28:21Z</time>
      </trkpt>
      <trkpt lat="46.250178795307875" lon="11.844224212691188">
        <ele>2352.96</ele>
        <time>2017-07-04T08:28:36Z</time>
      </trkpt>
      <trkpt lat="46.250165300443769" lon="11.844226308166981">
        <ele>2352.96</ele>
        <time>2017-07-04T08:28:51Z</time>
      </trkpt>
      <trkpt lat="46.250151135027409" lon="11.844144919887185">
        <ele>2352.96</ele>
        <time>2017-07-04T08:29:05Z</time>
      </trkpt>
      <trkpt lat="46.250163288787007" lon="11.844201162457466">
        <ele>2352.96</ele>
        <time>2017-07-04T08:29:22Z</time>
      </trkpt>
      <trkpt lat="46.250158678740263" lon="11.844214908778667">
        <ele>2352.96</ele>
        <time>2017-07-04T08:29:40Z</time>
      </trkpt>
      <trkpt lat="46.250137221068144" lon="11.844213148579001">
        <ele>2353.9299999999998</ele>
        <time>2017-07-04T08:29:54Z</time>
      </trkpt>
      <trkpt lat="46.250135041773319" lon="11.844253968447447">
        <ele>2354.4099999999999</ele>
        <time>2017-07-04T08:30:07Z</time>
      </trkpt>
      <trkpt lat="46.250112242996693" lon="11.84431423433125">
        <ele>2355.3699999999999</ele>
        <time>2017-07-04T08:30:20Z</time>
      </trkpt>
      <trkpt lat="46.250140657648444" lon="11.844328483566642">
        <ele>2355.3699999999999</ele>
        <time>2017-07-04T08:30:40Z</time>
      </trkpt>
      <trkpt lat="46.250096568837762" lon="11.844292692840099">
        <ele>2355.8499999999999</ele>
        <time>2017-07-04T08:30:52Z</time>
      </trkpt>
      <trkpt lat="46.250105369836092" lon="11.844289591535926">
        <ele>2355.8499999999999</ele>
        <time>2017-07-04T08:31:03Z</time>
      </trkpt>
      <trkpt lat="46.250047953799367" lon="11.844288418069482">
        <ele>2355.8499999999999</ele>
        <time>2017-07-04T08:31:15Z</time>
      </trkpt>
      <trkpt lat="46.250047869980335" lon="11.844318341463804">
        <ele>2355.8499999999999</ele>
        <time>2017-07-04T08:31:26Z</time>
      </trkpt>
      <trkpt lat="46.250041080638766" lon="11.844362514093518">
        <ele>2356.8099999999999</ele>
        <time>2017-07-04T08:31:37Z</time>
      </trkpt>
      <trkpt lat="46.250049881637096" lon="11.844378858804703">
        <ele>2357.29</ele>
        <time>2017-07-04T08:31:50Z</time>
      </trkpt>
      <trkpt lat="46.25003001652658" lon="11.844360250979662">
        <ele>2357.29</ele>
        <time>2017-07-04T08:32:04Z</time>
      </trkpt>
      <trkpt lat="46.250024735927582" lon="11.844375925138593">
        <ele>2357.29</ele>
        <time>2017-07-04T08:32:24Z</time>
      </trkpt>
      <trkpt lat="46.250015599653125" lon="11.844372069463134">
        <ele>2357.29</ele>
        <time>2017-07-04T08:32:43Z</time>
      </trkpt>
      <trkpt lat="46.250010067597032" lon="11.844367124140263">
        <ele>2357.29</ele>
        <time>2017-07-04T08:32:54Z</time>
      </trkpt>
      <trkpt lat="46.25000755302608" lon="11.844400567933917">
        <ele>2357.29</ele>
        <time>2017-07-04T08:33:09Z</time>
      </trkpt>
      <trkpt lat="46.249992633238435" lon="11.844373913481832">
        <ele>2357.29</ele>
        <time>2017-07-04T08:33:27Z</time>
      </trkpt>
      <trkpt lat="46.250002356246114" lon="11.844381373375654">
        <ele>2357.29</ele>
        <time>2017-07-04T08:33:44Z</time>
      </trkpt>
      <trkpt lat="46.249994058161974" lon="11.84439335949719">
        <ele>2357.77</ele>
        <time>2017-07-04T08:33:56Z</time>
      </trkpt>
      <trkpt lat="46.249960949644446" lon="11.844435855746269">
        <ele>2358.73</ele>
        <time>2017-07-04T08:34:07Z</time>
      </trkpt>
      <trkpt lat="46.249963045120239" lon="11.844453541561961">
        <ele>2358.73</ele>
        <time>2017-07-04T08:34:17Z</time>
      </trkpt>
      <trkpt lat="46.249957093968987" lon="11.844455720856786">
        <ele>2359.21</ele>
        <time>2017-07-04T08:34:29Z</time>
      </trkpt>
      <trkpt lat="46.24994452111423" lon="11.844440046697855">
        <ele>2358.73</ele>
        <time>2017-07-04T08:34:41Z</time>
      </trkpt>
      <trkpt lat="46.249929601326585" lon="11.844478771090508">
        <ele>2359.21</ele>
        <time>2017-07-04T08:34:51Z</time>
      </trkpt>
      <trkpt lat="46.249954076483846" lon="11.844454631209373">
        <ele>2359.6900000000001</ele>
        <time>2017-07-04T08:35:02Z</time>
      </trkpt>
      <trkpt lat="46.249927673488855" lon="11.844449434429407">
        <ele>2359.6900000000001</ele>
        <time>2017-07-04T08:35:21Z</time>
      </trkpt>
      <trkpt lat="46.249924153089523" lon="11.844476507976651">
        <ele>2359.21</ele>
        <time>2017-07-04T08:35:35Z</time>
      </trkpt>
      <trkpt lat="46.249918201938272" lon="11.844482710584998">
        <ele>2359.6900000000001</ele>
        <time>2017-07-04T08:35:46Z</time>
      </trkpt>
      <trkpt lat="46.249915268272161" lon="11.844482040032744">
        <ele>2359.6900000000001</ele>
        <time>2017-07-04T08:36:00Z</time>
      </trkpt>
      <trkpt lat="46.249895403161645" lon="11.844487404450774">
        <ele>2360.6500000000001</ele>
        <time>2017-07-04T08:36:12Z</time>
      </trkpt>
      <trkpt lat="46.24989029020071" lon="11.844492768868804">
        <ele>2360.6500000000001</ele>
        <time>2017-07-04T08:36:26Z</time>
      </trkpt>
      <trkpt lat="46.249890793114901" lon="11.844505090266466">
        <ele>2360.6500000000001</ele>
        <time>2017-07-04T08:36:39Z</time>
      </trkpt>
      <trkpt lat="46.249867575243115" lon="11.844513136893511">
        <ele>2361.1399999999999</ele>
        <time>2017-07-04T08:36:56Z</time>
      </trkpt>
      <trkpt lat="46.249896828085184" lon="11.844519842416048">
        <ele>2361.1399999999999</ele>
        <time>2017-07-04T08:37:15Z</time>
      </trkpt>
      <trkpt lat="46.249891547486186" lon="11.844537612050772">
        <ele>2360.6500000000001</ele>
        <time>2017-07-04T08:37:28Z</time>
      </trkpt>
      <trkpt lat="46.249879980459809" lon="11.844539456069469">
        <ele>2360.6500000000001</ele>
        <time>2017-07-04T08:37:40Z</time>
      </trkpt>
      <trkpt lat="46.249880315735936" lon="11.844558482989669">
        <ele>2361.6199999999999</ele>
        <time>2017-07-04T08:37:51Z</time>
      </trkpt>
      <trkpt lat="46.249860785901546" lon="11.84460056014359">
        <ele>2362.0999999999999</ele>
        <time>2017-07-04T08:38:03Z</time>
      </trkpt>
      <trkpt lat="46.249820720404387" lon="11.844627046957612">
        <ele>2362.5799999999999</ele>
        <time>2017-07-04T08:38:14Z</time>
      </trkpt>
      <trkpt lat="46.249830694869161" lon="11.844636937603354">
        <ele>2363.0599999999999</ele>
        <time>2017-07-04T08:38:25Z</time>
      </trkpt>
      <trkpt lat="46.249824073165655" lon="11.844620425254107">
        <ele>2363.0599999999999</ele>
        <time>2017-07-04T08:38:39Z</time>
      </trkpt>
      <trkpt lat="46.249824576079845" lon="11.844666274264455">
        <ele>2363.0599999999999</ele>
        <time>2017-07-04T08:38:57Z</time>
      </trkpt>
      <trkpt lat="46.249794317409396" lon="11.844690917059779">
        <ele>2363.0599999999999</ele>
        <time>2017-07-04T08:39:11Z</time>
      </trkpt>
      <trkpt lat="46.249773530289531" lon="11.844713464379311">
        <ele>2363.0599999999999</ele>
        <time>2017-07-04T08:39:24Z</time>
      </trkpt>
      <trkpt lat="46.249773697927594" lon="11.844684211537242">
        <ele>2362.5799999999999</ele>
        <time>2017-07-04T08:39:38Z</time>
      </trkpt>
      <trkpt lat="46.249745283275843" lon="11.844707261770964">
        <ele>2362.5799999999999</ele>
        <time>2017-07-04T08:39:48Z</time>
      </trkpt>
      <trkpt lat="46.24972709454596" lon="11.844708519056439">
        <ele>2363.0599999999999</ele>
        <time>2017-07-04T08:40:04Z</time>
      </trkpt>
      <trkpt lat="46.249724077060819" lon="11.84469879604876">
        <ele>2363.54</ele>
        <time>2017-07-04T08:40:13Z</time>
      </trkpt>
      <trkpt lat="46.249713515862823" lon="11.844736430794001">
        <ele>2364.5</ele>
        <time>2017-07-04T08:40:23Z</time>
      </trkpt>
      <trkpt lat="46.249693734571338" lon="11.844762749969959">
        <ele>2365.46</ele>
        <time>2017-07-04T08:40:33Z</time>
      </trkpt>
      <trkpt lat="46.249689962714911" lon="11.844769204035401">
        <ele>2366.9000000000001</ele>
        <time>2017-07-04T08:40:42Z</time>
      </trkpt>
      <trkpt lat="46.249677557498217" lon="11.844801977276802">
        <ele>2367.3800000000001</ele>
        <time>2017-07-04T08:40:51Z</time>
      </trkpt>
      <trkpt lat="46.249644951894879" lon="11.844826284796">
        <ele>2367.8600000000001</ele>
        <time>2017-07-04T08:41:00Z</time>
      </trkpt>
      <trkpt lat="46.249588374048471" lon="11.844891915097833">
        <ele>2368.3499999999999</ele>
        <time>2017-07-04T08:41:10Z</time>
      </trkpt>
      <trkpt lat="46.249548643827438" lon="11.844956120476127">
        <ele>2369.3099999999999</ele>
        <time>2017-07-04T08:41:20Z</time>
      </trkpt>
      <trkpt lat="46.249545710161328" lon="11.844981350004673">
        <ele>2370.27</ele>
        <time>2017-07-04T08:41:32Z</time>
      </trkpt>
      <trkpt lat="46.249506818130612" lon="11.845046225935221">
        <ele>2371.23</ele>
        <time>2017-07-04T08:41:41Z</time>
      </trkpt>
      <trkpt lat="46.249490221962333" lon="11.845081010833383">
        <ele>2372.1900000000001</ele>
        <time>2017-07-04T08:41:51Z</time>
      </trkpt>
      <trkpt lat="46.249460382387042" lon="11.84512828476727">
        <ele>2372.6700000000001</ele>
        <time>2017-07-04T08:42:01Z</time>
      </trkpt>
      <trkpt lat="46.249428950250149" lon="11.845156196504831">
        <ele>2373.1500000000001</ele>
        <time>2017-07-04T08:42:14Z</time>
      </trkpt>
      <trkpt lat="46.249381089583039" lon="11.845202296972275">
        <ele>2374.5900000000001</ele>
        <time>2017-07-04T08:42:27Z</time>
      </trkpt>
      <trkpt lat="46.249375054612756" lon="11.84524797834456">
        <ele>2374.1100000000001</ele>
        <time>2017-07-04T08:42:35Z</time>
      </trkpt>
      <trkpt lat="46.249380586668849" lon="11.845278237015009">
        <ele>2374.5900000000001</ele>
        <time>2017-07-04T08:42:44Z</time>
      </trkpt>
      <trkpt lat="46.249363990500569" lon="11.845310172066092">
        <ele>2375.0700000000002</ele>
        <time>2017-07-04T08:42:57Z</time>
      </trkpt>
      <trkpt lat="46.249342365190387" lon="11.84530078433454">
        <ele>2375.5500000000002</ele>
        <time>2017-07-04T08:43:07Z</time>
      </trkpt>
      <trkpt lat="46.24934446066618" lon="11.845295839011669">
        <ele>2375.0700000000002</ele>
        <time>2017-07-04T08:43:09Z</time>
      </trkpt>
      <trkpt lat="46.249344293028116" lon="11.845264155417681">
        <ele>2375.0700000000002</ele>
        <time>2017-07-04T08:43:19Z</time>
      </trkpt>
      <trkpt lat="46.249360973015428" lon="11.845233310014009">
        <ele>2377</ele>
        <time>2017-07-04T08:43:32Z</time>
      </trkpt>
      <trkpt lat="46.249347981065512" lon="11.845185700803995">
        <ele>2377.48</ele>
        <time>2017-07-04T08:43:40Z</time>
      </trkpt>
      <trkpt lat="46.249329876154661" lon="11.845192322507501">
        <ele>2377.48</ele>
        <time>2017-07-04T08:43:48Z</time>
      </trkpt>
      <trkpt lat="46.249267514795065" lon="11.845230627804995">
        <ele>2377.48</ele>
        <time>2017-07-04T08:44:04Z</time>
      </trkpt>
      <trkpt lat="46.249311519786716" lon="11.845269603654742">
        <ele>2377.48</ele>
        <time>2017-07-04T08:44:15Z</time>
      </trkpt>
      <trkpt lat="46.24928193166852" lon="11.845246218144894">
        <ele>2377.96</ele>
        <time>2017-07-04T08:44:28Z</time>
      </trkpt>
      <trkpt lat="46.249230299144983" lon="11.845246804878116">
        <ele>2378.9200000000001</ele>
        <time>2017-07-04T08:44:39Z</time>
      </trkpt>
      <trkpt lat="46.249207081273198" lon="11.845266250893474">
        <ele>2380.8400000000001</ele>
        <time>2017-07-04T08:44:49Z</time>
      </trkpt>
      <trkpt lat="46.249214792624116" lon="11.845282260328531">
        <ele>2381.3200000000002</ele>
        <time>2017-07-04T08:44:59Z</time>
      </trkpt>
      <trkpt lat="46.249197106808424" lon="11.845328696072102">
        <ele>2382.7600000000002</ele>
        <time>2017-07-04T08:45:09Z</time>
      </trkpt>
      <trkpt lat="46.249170452356339" lon="11.845291815698147">
        <ele>2382.2800000000002</ele>
        <time>2017-07-04T08:45:26Z</time>
      </trkpt>
      <trkpt lat="46.249147988855839" lon="11.845315368846059">
        <ele>2383.73</ele>
        <time>2017-07-04T08:45:40Z</time>
      </trkpt>
      <trkpt lat="46.249103900045156" lon="11.845331210643053">
        <ele>2386.1300000000001</ele>
        <time>2017-07-04T08:45:51Z</time>
      </trkpt>
      <trkpt lat="46.249079424887896" lon="11.845327438786626">
        <ele>2386.1300000000001</ele>
        <time>2017-07-04T08:46:01Z</time>
      </trkpt>
      <trkpt lat="46.249044304713607" lon="11.845341688022017">
        <ele>2387.0900000000001</ele>
        <time>2017-07-04T08:46:11Z</time>
      </trkpt>
      <trkpt lat="46.249034330248833" lon="11.845351913943887">
        <ele>2387.5700000000002</ele>
        <time>2017-07-04T08:46:21Z</time>
      </trkpt>
      <trkpt lat="46.249005412682891" lon="11.845368593931198">
        <ele>2388.5300000000002</ele>
        <time>2017-07-04T08:46:32Z</time>
      </trkpt>
      <trkpt lat="46.248991079628468" lon="11.845376472920179">
        <ele>2389.4899999999998</ele>
        <time>2017-07-04T08:46:41Z</time>
      </trkpt>
      <trkpt lat="46.248985128477216" lon="11.845398433506489">
        <ele>2389.4899999999998</ele>
        <time>2017-07-04T08:46:54Z</time>
      </trkpt>
      <trkpt lat="46.248944392427802" lon="11.84539751149714">
        <ele>2390.9400000000001</ele>
        <time>2017-07-04T08:47:05Z</time>
      </trkpt>
      <trkpt lat="46.248933663591743" lon="11.845299946144223">
        <ele>2390.46</ele>
        <time>2017-07-04T08:47:17Z</time>
      </trkpt>
      <trkpt lat="46.248922012746334" lon="11.84535794891417">
        <ele>2390.9400000000001</ele>
        <time>2017-07-04T08:47:31Z</time>
      </trkpt>
      <trkpt lat="46.248907763510942" lon="11.845340011641383">
        <ele>2390.46</ele>
        <time>2017-07-04T08:47:45Z</time>
      </trkpt>
      <trkpt lat="46.248914049938321" lon="11.845345040783286">
        <ele>2390.9400000000001</ele>
        <time>2017-07-04T08:47:58Z</time>
      </trkpt>
      <trkpt lat="46.248885132372379" lon="11.845348309725523">
        <ele>2390.9400000000001</ele>
        <time>2017-07-04T08:48:12Z</time>
      </trkpt>
      <trkpt lat="46.248875912278891" lon="11.845358703285456">
        <ele>2391.4200000000001</ele>
        <time>2017-07-04T08:48:25Z</time>
      </trkpt>
      <trkpt lat="46.248855041339993" lon="11.845338251441717">
        <ele>2392.3800000000001</ele>
        <time>2017-07-04T08:48:35Z</time>
      </trkpt>
      <trkpt lat="46.248829979449511" lon="11.845320900902152">
        <ele>2392.8600000000001</ele>
        <time>2017-07-04T08:48:46Z</time>
      </trkpt>
      <trkpt lat="46.248801900073886" lon="11.84532274492085">
        <ele>2394.3000000000002</ele>
        <time>2017-07-04T08:48:57Z</time>
      </trkpt>
      <trkpt lat="46.248773317784071" lon="11.845342274755239">
        <ele>2395.2600000000002</ele>
        <time>2017-07-04T08:49:10Z</time>
      </trkpt>
      <trkpt lat="46.248749764636159" lon="11.845332803204656">
        <ele>2395.2600000000002</ele>
        <time>2017-07-04T08:49:20Z</time>
      </trkpt>
      <trkpt lat="46.248730570077896" lon="11.845328863710165">
        <ele>2396.2199999999998</ele>
        <time>2017-07-04T08:49:30Z</time>
      </trkpt>
      <trkpt lat="46.248722355812788" lon="11.845326013863087">
        <ele>2396.6999999999998</ele>
        <time>2017-07-04T08:49:43Z</time>
      </trkpt>
      <trkpt lat="46.248694360256195" lon="11.845310172066092">
        <ele>2397.1799999999998</ele>
        <time>2017-07-04T08:49:55Z</time>
      </trkpt>
      <trkpt lat="46.248675081878901" lon="11.8453149497509">
        <ele>2397.6700000000001</ele>
        <time>2017-07-04T08:50:03Z</time>
      </trkpt>
      <trkpt lat="46.248649349436164" lon="11.845355685800314">
        <ele>2398.6300000000001</ele>
        <time>2017-07-04T08:50:15Z</time>
      </trkpt>
      <trkpt lat="46.24862227588892" lon="11.845386866480112">
        <ele>2399.1100000000001</ele>
        <time>2017-07-04T08:50:28Z</time>
      </trkpt>
      <trkpt lat="46.248623197898269" lon="11.845404636114836">
        <ele>2399.1100000000001</ele>
        <time>2017-07-04T08:50:39Z</time>
      </trkpt>
      <trkpt lat="46.248591346666217" lon="11.845387537032366">
        <ele>2400.0700000000002</ele>
        <time>2017-07-04T08:50:50Z</time>
      </trkpt>
      <trkpt lat="46.248558908700943" lon="11.845433805137873">
        <ele>2401.5100000000002</ele>
        <time>2017-07-04T08:50:59Z</time>
      </trkpt>
      <trkpt lat="46.248503336682916" lon="11.845475966110826">
        <ele>2401.5100000000002</ele>
        <time>2017-07-04T08:51:10Z</time>
      </trkpt>
      <trkpt lat="46.248455056920648" lon="11.845507565885782">
        <ele>2402.4699999999998</ele>
        <time>2017-07-04T08:51:21Z</time>
      </trkpt>
      <trkpt lat="46.248386409133673" lon="11.845549894496799">
        <ele>2403.9099999999999</ele>
        <time>2017-07-04T08:51:32Z</time>
      </trkpt>
      <trkpt lat="46.248329328373075" lon="11.845585852861404">
        <ele>2404.3899999999999</ele>
        <time>2017-07-04T08:51:43Z</time>
      </trkpt>
      <trkpt lat="46.24827291816473" lon="11.845638072118163">
        <ele>2405.3600000000001</ele>
        <time>2017-07-04T08:51:53Z</time>
      </trkpt>
      <trkpt lat="46.248224638402462" lon="11.845682077109814">
        <ele>2405.8400000000001</ele>
        <time>2017-07-04T08:52:03Z</time>
      </trkpt>
      <trkpt lat="46.248196810483932" lon="11.845724070444703">
        <ele>2406.3200000000002</ele>
        <time>2017-07-04T08:52:14Z</time>
      </trkpt>
      <trkpt lat="46.248166216537356" lon="11.845758352428675">
        <ele>2406.8000000000002</ele>
        <time>2017-07-04T08:52:24Z</time>
      </trkpt>
      <trkpt lat="46.248149117454886" lon="11.845772517845035">
        <ele>2406.8000000000002</ele>
        <time>2017-07-04T08:52:40Z</time>
      </trkpt>
      <trkpt lat="46.248168312013149" lon="11.845744270831347">
        <ele>2406.3200000000002</ele>
        <time>2017-07-04T08:52:52Z</time>
      </trkpt>
      <trkpt lat="46.248138220980763" lon="11.845728177577257">
        <ele>2406.8000000000002</ele>
        <time>2017-07-04T08:53:02Z</time>
      </trkpt>
      <trkpt lat="46.248140735551715" lon="11.845698338001966">
        <ele>2406.3200000000002</ele>
        <time>2017-07-04T08:53:16Z</time>
      </trkpt>
      <trkpt lat="46.248125312849879" lon="11.845715772360563">
        <ele>2405.8400000000001</ele>
        <time>2017-07-04T08:53:34Z</time>
      </trkpt>
      <trkpt lat="46.248150458559394" lon="11.845742678269744">
        <ele>2406.3200000000002</ele>
        <time>2017-07-04T08:53:55Z</time>
      </trkpt>
      <trkpt lat="46.248115841299295" lon="11.845713425427675">
        <ele>2406.3200000000002</ele>
        <time>2017-07-04T08:54:15Z</time>
      </trkpt>
      <trkpt lat="46.248131096363068" lon="11.845720382407308">
        <ele>2406.3200000000002</ele>
        <time>2017-07-04T08:54:30Z</time>
      </trkpt>
      <trkpt lat="46.24814392067492" lon="11.845718370750546">
        <ele>2406.3200000000002</ele>
        <time>2017-07-04T08:54:46Z</time>
      </trkpt>
      <trkpt lat="46.248131096363068" lon="11.845731781795621">
        <ele>2405.8400000000001</ele>
        <time>2017-07-04T08:55:06Z</time>
      </trkpt>
      <trkpt lat="46.248137718066573" lon="11.845737481489778">
        <ele>2406.3200000000002</ele>
        <time>2017-07-04T08:55:29Z</time>
      </trkpt>
      <trkpt lat="46.248158505186439" lon="11.845750557258725">
        <ele>2406.3200000000002</ele>
        <time>2017-07-04T08:55:44Z</time>
      </trkpt>
      <trkpt lat="46.248134197667241" lon="11.845721891149879">
        <ele>2406.3200000000002</ele>
        <time>2017-07-04T08:56:06Z</time>
      </trkpt>
      <trkpt lat="46.248152386397123" lon="11.845707641914487">
        <ele>2406.3200000000002</ele>
        <time>2017-07-04T08:56:21Z</time>
      </trkpt>
      <trkpt lat="46.248122546821833" lon="11.845717197284102">
        <ele>2406.3200000000002</ele>
        <time>2017-07-04T08:56:41Z</time>
      </trkpt>
      <trkpt lat="46.248102933168411" lon="11.845690794289112">
        <ele>2406.3200000000002</ele>
        <time>2017-07-04T08:56:55Z</time>
      </trkpt>
      <trkpt lat="46.248131096363068" lon="11.845693979412317">
        <ele>2406.8000000000002</ele>
        <time>2017-07-04T08:57:05Z</time>
      </trkpt>
      <trkpt lat="46.248147441074252" lon="11.845721891149879">
        <ele>2406.8000000000002</ele>
        <time>2017-07-04T08:57:21Z</time>
      </trkpt>
      <trkpt lat="46.248143333941698" lon="11.84572733938694">
        <ele>2406.8000000000002</ele>
        <time>2017-07-04T08:57:39Z</time>
      </trkpt>
      <trkpt lat="46.248149620369077" lon="11.845742259174585">
        <ele>2406.3200000000002</ele>
        <time>2017-07-04T08:58:00Z</time>
      </trkpt>
      <trkpt lat="46.248170910403132" lon="11.845751814544201">
        <ele>2407.2800000000002</ele>
        <time>2017-07-04T08:58:08Z</time>
      </trkpt>
      <trkpt lat="46.248140148818493" lon="11.845783079043031">
        <ele>2407.2800000000002</ele>
        <time>2017-07-04T08:58:21Z</time>
      </trkpt>
      <trkpt lat="46.248152889311314" lon="11.845753826200962">
        <ele>2407.7600000000002</ele>
        <time>2017-07-04T08:58:34Z</time>
      </trkpt>
      <trkpt lat="46.248174095526338" lon="11.845759190618992">
        <ele>2407.7600000000002</ele>
        <time>2017-07-04T08:58:50Z</time>
      </trkpt>
      <trkpt lat="46.248156409710646" lon="11.845758352428675">
        <ele>2407.7600000000002</ele>
        <time>2017-07-04T08:59:04Z</time>
      </trkpt>
      <trkpt lat="46.248184908181429" lon="11.845741588622332">
        <ele>2407.7600000000002</ele>
        <time>2017-07-04T08:59:20Z</time>
      </trkpt>
      <trkpt lat="46.248187841847539" lon="11.845754496753216">
        <ele>2408.7199999999998</ele>
        <time>2017-07-04T08:59:35Z</time>
      </trkpt>
      <trkpt lat="46.248189937323332" lon="11.845750389620662">
        <ele>2407.7600000000002</ele>
        <time>2017-07-04T08:59:47Z</time>
      </trkpt>
      <trkpt lat="46.248192954808474" lon="11.845748210325837">
        <ele>2407.7600000000002</ele>
        <time>2017-07-04T09:00:09Z</time>
      </trkpt>
      <trkpt lat="46.248170826584101" lon="11.845760280266404">
        <ele>2407.2800000000002</ele>
        <time>2017-07-04T09:00:28Z</time>
      </trkpt>
      <trkpt lat="46.248168060556054" lon="11.845737649127841">
        <ele>2407.7600000000002</ele>
        <time>2017-07-04T09:00:42Z</time>
      </trkpt>
      <trkpt lat="46.248174011707306" lon="11.845729434862733">
        <ele>2407.7600000000002</ele>
        <time>2017-07-04T09:01:00Z</time>
      </trkpt>
      <trkpt lat="46.248183818534017" lon="11.845757681876421">
        <ele>2407.7600000000002</ele>
        <time>2017-07-04T09:01:19Z</time>
      </trkpt>
      <trkpt lat="46.248166719451547" lon="11.845725746825337">
        <ele>2408.2399999999998</ele>
        <time>2017-07-04T09:01:32Z</time>
      </trkpt>
      <trkpt lat="46.248161690309644" lon="11.845724657177925">
        <ele>2408.2399999999998</ele>
        <time>2017-07-04T09:01:49Z</time>
      </trkpt>
      <trkpt lat="46.248140400275588" lon="11.845760447904468">
        <ele>2408.2399999999998</ele>
        <time>2017-07-04T09:02:02Z</time>
      </trkpt>
      <trkpt lat="46.248035626485944" lon="11.845844686031342">
        <ele>2409.1999999999998</ele>
        <time>2017-07-04T09:02:15Z</time>
      </trkpt>
      <trkpt lat="46.24800561927259" lon="11.84591450728476">
        <ele>2410.6399999999999</ele>
        <time>2017-07-04T09:02:24Z</time>
      </trkpt>
      <trkpt lat="46.247955663129687" lon="11.846002684906125">
        <ele>2413.0500000000002</ele>
        <time>2017-07-04T09:02:36Z</time>
      </trkpt>
      <trkpt lat="46.247948035597801" lon="11.846051467582583">
        <ele>2414.4899999999998</ele>
        <time>2017-07-04T09:02:47Z</time>
      </trkpt>
      <trkpt lat="46.247930517420173" lon="11.846118522807956">
        <ele>2416.4099999999999</ele>
        <time>2017-07-04T09:02:58Z</time>
      </trkpt>
      <trkpt lat="46.247891206294298" lon="11.846172250807285">
        <ele>2418.3299999999999</ele>
        <time>2017-07-04T09:03:10Z</time>
      </trkpt>
      <trkpt lat="46.247854577377439" lon="11.846244838088751">
        <ele>2420.2600000000002</ele>
        <time>2017-07-04T09:03:23Z</time>
      </trkpt>
      <trkpt lat="46.247815350070596" lon="11.84625799767673">
        <ele>2421.2199999999998</ele>
        <time>2017-07-04T09:03:34Z</time>
      </trkpt>
      <trkpt lat="46.247769584879279" lon="11.846302254125476">
        <ele>2422.6599999999999</ele>
        <time>2017-07-04T09:03:46Z</time>
      </trkpt>
      <trkpt lat="46.247743852436543" lon="11.84636696241796">
        <ele>2424.0999999999999</ele>
        <time>2017-07-04T09:03:57Z</time>
      </trkpt>
      <trkpt lat="46.247714934870601" lon="11.846427395939827">
        <ele>2426.02</ele>
        <time>2017-07-04T09:04:09Z</time>
      </trkpt>
      <trkpt lat="46.247667325660586" lon="11.846440555527806">
        <ele>2428.4299999999998</ele>
        <time>2017-07-04T09:04:22Z</time>
      </trkpt>
      <trkpt lat="46.247674031183124" lon="11.846435777842999">
        <ele>2428.9099999999999</ele>
        <time>2017-07-04T09:04:34Z</time>
      </trkpt>
      <trkpt lat="46.247646873816848" lon="11.846515322104096">
        <ele>2429.8699999999999</ele>
        <time>2017-07-04T09:04:45Z</time>
      </trkpt>
      <trkpt lat="46.247588619589806" lon="11.846534935757518">
        <ele>2430.3499999999999</ele>
        <time>2017-07-04T09:04:54Z</time>
      </trkpt>
      <trkpt lat="46.247570849955082" lon="11.846516663208604">
        <ele>2430.3499999999999</ele>
        <time>2017-07-04T09:05:09Z</time>
      </trkpt>
      <trkpt lat="46.247509075328708" lon="11.846625627949834">
        <ele>2432.27</ele>
        <time>2017-07-04T09:05:24Z</time>
      </trkpt>
      <trkpt lat="46.2474593706429" lon="11.846719086170197">
        <ele>2434.6799999999998</ele>
        <time>2017-07-04T09:05:35Z</time>
      </trkpt>
      <trkpt lat="46.24745056964457" lon="11.84672461822629">
        <ele>2434.6799999999998</ele>
        <time>2017-07-04T09:05:36Z</time>
      </trkpt>
      <trkpt lat="46.247366918250918" lon="11.846803072839975">
        <ele>2435.1599999999999</ele>
        <time>2017-07-04T09:05:48Z</time>
      </trkpt>
      <trkpt lat="46.247329451143742" lon="11.846837941557169">
        <ele>2436.1199999999999</ele>
        <time>2017-07-04T09:05:59Z</time>
      </trkpt>
      <trkpt lat="46.247304389253259" lon="11.846827799454331">
        <ele>2436.5999999999999</ele>
        <time>2017-07-04T09:06:08Z</time>
      </trkpt>
      <trkpt lat="46.247236495837569" lon="11.84687172062695">
        <ele>2436.5999999999999</ele>
        <time>2017-07-04T09:06:21Z</time>
      </trkpt>
      <trkpt lat="46.247141864150763" lon="11.846903152763844">
        <ele>2438.04</ele>
        <time>2017-07-04T09:06:34Z</time>
      </trkpt>
      <trkpt lat="46.247053267434239" lon="11.846898039802909">
        <ele>2438.04</ele>
        <time>2017-07-04T09:06:45Z</time>
      </trkpt>
      <trkpt lat="46.247001215815544" lon="11.846892591565847">
        <ele>2439.48</ele>
        <time>2017-07-04T09:06:56Z</time>
      </trkpt>
      <trkpt lat="46.246968107298017" lon="11.846900722011924">
        <ele>2441.4099999999999</ele>
        <time>2017-07-04T09:07:06Z</time>
      </trkpt>
      <trkpt lat="46.246902896091342" lon="11.846872391179204">
        <ele>2441.8899999999999</ele>
        <time>2017-07-04T09:07:17Z</time>
      </trkpt>
      <trkpt lat="46.246834751218557" lon="11.846852945163846">
        <ele>2443.8099999999999</ele>
        <time>2017-07-04T09:07:30Z</time>
      </trkpt>
      <trkpt lat="46.246783118695021" lon="11.846788572147489">
        <ele>2445.73</ele>
        <time>2017-07-04T09:07:41Z</time>
      </trkpt>
      <trkpt lat="46.246754871681333" lon="11.84687364846468">
        <ele>2447.1700000000001</ele>
        <time>2017-07-04T09:07:53Z</time>
      </trkpt>
      <trkpt lat="46.246717991307378" lon="11.846869541332126">
        <ele>2449.0999999999999</ele>
        <time>2017-07-04T09:08:05Z</time>
      </trkpt>
      <trkpt lat="46.246703825891018" lon="11.846909858286381">
        <ele>2450.54</ele>
        <time>2017-07-04T09:08:17Z</time>
      </trkpt>
      <trkpt lat="46.246713548898697" lon="11.846980853006244">
        <ele>2451.98</ele>
        <time>2017-07-04T09:08:28Z</time>
      </trkpt>
      <trkpt lat="46.246751686558127" lon="11.847024187445641">
        <ele>2453.9000000000001</ele>
        <time>2017-07-04T09:08:39Z</time>
      </trkpt>
      <trkpt lat="46.24675621278584" lon="11.847070539370179">
        <ele>2455.3400000000001</ele>
        <time>2017-07-04T09:08:50Z</time>
      </trkpt>
      <trkpt lat="46.246777754276991" lon="11.847126614302397">
        <ele>2457.27</ele>
        <time>2017-07-04T09:09:01Z</time>
      </trkpt>
      <trkpt lat="46.246778005734086" lon="11.847140109166503">
        <ele>2457.27</ele>
        <time>2017-07-04T09:09:13Z</time>
      </trkpt>
      <trkpt lat="46.246747830882668" lon="11.847139103338122">
        <ele>2457.27</ele>
        <time>2017-07-04T09:09:25Z</time>
      </trkpt>
      <trkpt lat="46.246765432879329" lon="11.84708965010941">
        <ele>2457.27</ele>
        <time>2017-07-04T09:09:35Z</time>
      </trkpt>
      <trkpt lat="46.246744813397527" lon="11.847099373117089">
        <ele>2457.75</ele>
        <time>2017-07-04T09:09:44Z</time>
      </trkpt>
      <trkpt lat="46.246735928580165" lon="11.847107755020261">
        <ele>2457.27</ele>
        <time>2017-07-04T09:09:56Z</time>
      </trkpt>
      <trkpt lat="46.246733078733087" lon="11.847125524654984">
        <ele>2457.75</ele>
        <time>2017-07-04T09:10:09Z</time>
      </trkpt>
      <trkpt lat="46.246738024055958" lon="11.84713264927268">
        <ele>2457.75</ele>
        <time>2017-07-04T09:10:23Z</time>
      </trkpt>
      <trkpt lat="46.246730480343103" lon="11.847162488847971">
        <ele>2457.75</ele>
        <time>2017-07-04T09:10:41Z</time>
      </trkpt>
      <trkpt lat="46.246722852811217" lon="11.84714924544096">
        <ele>2457.27</ele>
        <time>2017-07-04T09:11:00Z</time>
      </trkpt>
      <trkpt lat="46.246728803962469" lon="11.847153520211577">
        <ele>2457.27</ele>
        <time>2017-07-04T09:11:12Z</time>
      </trkpt>
      <trkpt lat="46.246717907488346" lon="11.847201129421592">
        <ele>2457.27</ele>
        <time>2017-07-04T09:11:24Z</time>
      </trkpt>
      <trkpt lat="46.246757889166474" lon="11.847144048660994">
        <ele>2457.27</ele>
        <time>2017-07-04T09:11:39Z</time>
      </trkpt>
      <trkpt lat="46.246739532798529" lon="11.84718101285398">
        <ele>2456.79</ele>
        <time>2017-07-04T09:11:52Z</time>
      </trkpt>
      <trkpt lat="46.246721260249615" lon="11.847174223512411">
        <ele>2457.27</ele>
        <time>2017-07-04T09:12:11Z</time>
      </trkpt>
      <trkpt lat="46.246736347675323" lon="11.8471609801054">
        <ele>2457.27</ele>
        <time>2017-07-04T09:12:31Z</time>
      </trkpt>
      <trkpt lat="46.246695192530751" lon="11.847192328423262">
        <ele>2456.3099999999999</ele>
        <time>2017-07-04T09:12:43Z</time>
      </trkpt>
      <trkpt lat="46.246627466753125" lon="11.847231136634946">
        <ele>2454.8600000000001</ele>
        <time>2017-07-04T09:12:55Z</time>
      </trkpt>
      <trkpt lat="46.246550185605884" lon="11.847297437489033">
        <ele>2452.46</ele>
        <time>2017-07-04T09:13:07Z</time>
      </trkpt>
      <trkpt lat="46.24656468629837" lon="11.847297186031938">
        <ele>2451.02</ele>
        <time>2017-07-04T09:13:16Z</time>
      </trkpt>
      <trkpt lat="46.246552113443613" lon="11.847273800522089">
        <ele>2451.5</ele>
        <time>2017-07-04T09:13:30Z</time>
      </trkpt>
      <trkpt lat="46.246587401255965" lon="11.847348064184189">
        <ele>2450.54</ele>
        <time>2017-07-04T09:13:39Z</time>
      </trkpt>
      <trkpt lat="46.246656719595194" lon="11.847353680059314">
        <ele>2448.6199999999999</ele>
        <time>2017-07-04T09:13:49Z</time>
      </trkpt>
      <trkpt lat="46.246584048494697" lon="11.847415035590529">
        <ele>2446.21</ele>
        <time>2017-07-04T09:13:58Z</time>
      </trkpt>
      <trkpt lat="46.24650165438652" lon="11.847484689205885">
        <ele>2443.8099999999999</ele>
        <time>2017-07-04T09:14:10Z</time>
      </trkpt>
      <trkpt lat="46.246423115953803" lon="11.847511511296034">
        <ele>2441.8899999999999</ele>
        <time>2017-07-04T09:14:20Z</time>
      </trkpt>
      <trkpt lat="46.24644884839654" lon="11.847554510459304">
        <ele>2439.96</ele>
        <time>2017-07-04T09:14:31Z</time>
      </trkpt>
      <trkpt lat="46.246503414586186" lon="11.847571860998869">
        <ele>2439.48</ele>
        <time>2017-07-04T09:14:38Z</time>
      </trkpt>
      <trkpt lat="46.246507605537772" lon="11.847578315064311">
        <ele>2438.52</ele>
        <time>2017-07-04T09:14:39Z</time>
      </trkpt>
      <trkpt lat="46.246519256383181" lon="11.847601197659969">
        <ele>2437.0799999999999</ele>
        <time>2017-07-04T09:14:42Z</time>
      </trkpt>
      <trkpt lat="46.246580109000206" lon="11.847652494907379">
        <ele>2435.6399999999999</ele>
        <time>2017-07-04T09:14:53Z</time>
      </trkpt>
      <trkpt lat="46.24653291888535" lon="11.847720220685005">
        <ele>2434.1999999999998</ele>
        <time>2017-07-04T09:15:03Z</time>
      </trkpt>
      <trkpt lat="46.246531410142779" lon="11.847770847380161">
        <ele>2432.75</ele>
        <time>2017-07-04T09:15:11Z</time>
      </trkpt>
      <trkpt lat="46.246519172564149" lon="11.847794903442264">
        <ele>2431.79</ele>
        <time>2017-07-04T09:15:19Z</time>
      </trkpt>
      <trkpt lat="46.246517915278673" lon="11.847829688340425">
        <ele>2430.8299999999999</ele>
        <time>2017-07-04T09:15:21Z</time>
      </trkpt>
      <trkpt lat="46.246560579165816" lon="11.847929935902357">
        <ele>2428.9099999999999</ele>
        <time>2017-07-04T09:15:30Z</time>
      </trkpt>
      <trkpt lat="46.246586563065648" lon="11.847971174865961">
        <ele>2427.9499999999998</ele>
        <time>2017-07-04T09:15:34Z</time>
      </trkpt>
      <trkpt lat="46.246597375720739" lon="11.848070248961449">
        <ele>2426.9899999999998</ele>
        <time>2017-07-04T09:15:44Z</time>
      </trkpt>
      <trkpt lat="46.246593268588185" lon="11.848088186234236">
        <ele>2425.54</ele>
        <time>2017-07-04T09:15:46Z</time>
      </trkpt>
      <trkpt lat="46.246590251103044" lon="11.848195642232895">
        <ele>2423.6199999999999</ele>
        <time>2017-07-04T09:15:56Z</time>
      </trkpt>
      <trkpt lat="46.246632663533092" lon="11.848199917003512">
        <ele>2423.1399999999999</ele>
        <time>2017-07-04T09:16:05Z</time>
      </trkpt>
      <trkpt lat="46.24662428162992" lon="11.848314749076962">
        <ele>2421.2199999999998</ele>
        <time>2017-07-04T09:16:17Z</time>
      </trkpt>
      <trkpt lat="46.24658614397049" lon="11.848401501774788">
        <ele>2418.8099999999999</ele>
        <time>2017-07-04T09:16:28Z</time>
      </trkpt>
      <trkpt lat="46.246534259989858" lon="11.848491439595819">
        <ele>2415.9299999999998</ele>
        <time>2017-07-04T09:16:41Z</time>
      </trkpt>
      <trkpt lat="46.246520513668656" lon="11.848576432093978">
        <ele>2414.0100000000002</ele>
        <time>2017-07-04T09:16:51Z</time>
      </trkpt>
      <trkpt lat="46.246521854773164" lon="11.84868598356843">
        <ele>2411.1199999999999</ele>
        <time>2017-07-04T09:17:02Z</time>
      </trkpt>
      <trkpt lat="46.246490590274334" lon="11.848766030743718">
        <ele>2409.1999999999998</ele>
        <time>2017-07-04T09:17:13Z</time>
      </trkpt>
      <trkpt lat="46.246530069038272" lon="11.848896620795131">
        <ele>2406.8000000000002</ele>
        <time>2017-07-04T09:17:23Z</time>
      </trkpt>
      <trkpt lat="46.246523279696703" lon="11.849023187533021">
        <ele>2403.9099999999999</ele>
        <time>2017-07-04T09:17:35Z</time>
      </trkpt>
      <trkpt lat="46.246519004926085" lon="11.849033581092954">
        <ele>2403.4299999999998</ele>
        <time>2017-07-04T09:17:36Z</time>
      </trkpt>
      <trkpt lat="46.246492937207222" lon="11.849183114245534">
        <ele>2401.5100000000002</ele>
        <time>2017-07-04T09:17:47Z</time>
      </trkpt>
      <trkpt lat="46.246578264981508" lon="11.849129470065236">
        <ele>2401.5100000000002</ele>
        <time>2017-07-04T09:17:52Z</time>
      </trkpt>
      <trkpt lat="46.24668781645596" lon="11.849175821989775">
        <ele>2400.0700000000002</ele>
        <time>2017-07-04T09:18:03Z</time>
      </trkpt>
      <trkpt lat="46.246649594977498" lon="11.849232064560056">
        <ele>2398.6300000000001</ele>
        <time>2017-07-04T09:18:09Z</time>
      </trkpt>
      <trkpt lat="46.246615229174495" lon="11.849384531378746">
        <ele>2395.7399999999998</ele>
        <time>2017-07-04T09:18:20Z</time>
      </trkpt>
      <trkpt lat="46.246600057929754" lon="11.849524509161711">
        <ele>2393.8200000000002</ele>
        <time>2017-07-04T09:18:29Z</time>
      </trkpt>
      <trkpt lat="46.246556639671326" lon="11.849580835551023">
        <ele>2392.8600000000001</ele>
        <time>2017-07-04T09:18:35Z</time>
      </trkpt>
      <trkpt lat="46.24641758389771" lon="11.849607238546014">
        <ele>2390.46</ele>
        <time>2017-07-04T09:18:43Z</time>
      </trkpt>
      <trkpt lat="46.246373327448964" lon="11.849635150283575">
        <ele>2389.4899999999998</ele>
        <time>2017-07-04T09:18:47Z</time>
      </trkpt>
      <trkpt lat="46.24634625390172" lon="11.849644789472222">
        <ele>2389.0100000000002</ele>
        <time>2017-07-04T09:18:49Z</time>
      </trkpt>
      <trkpt lat="46.246239468455315" lon="11.849714023992419">
        <ele>2386.6100000000001</ele>
        <time>2017-07-04T09:18:58Z</time>
      </trkpt>
      <trkpt lat="46.246195547282696" lon="11.849787868559361">
        <ele>2385.1700000000001</ele>
        <time>2017-07-04T09:19:07Z</time>
      </trkpt>
      <trkpt lat="46.246164198964834" lon="11.849788036197424">
        <ele>2384.6900000000001</ele>
        <time>2017-07-04T09:19:10Z</time>
      </trkpt>
      <trkpt lat="46.246109884232283" lon="11.849838579073548">
        <ele>2383.25</ele>
        <time>2017-07-04T09:19:21Z</time>
      </trkpt>
      <trkpt lat="46.246095886453986" lon="11.849837154150009">
        <ele>2382.2800000000002</ele>
        <time>2017-07-04T09:19:22Z</time>
      </trkpt>
      <trkpt lat="46.246024053543806" lon="11.849950226023793">
        <ele>2381.3200000000002</ele>
        <time>2017-07-04T09:19:33Z</time>
      </trkpt>
      <trkpt lat="46.24601349234581" lon="11.850009737536311">
        <ele>2380.8400000000001</ele>
        <time>2017-07-04T09:19:43Z</time>
      </trkpt>
      <trkpt lat="46.24600175768137" lon="11.850027842447162">
        <ele>2382.2800000000002</ele>
        <time>2017-07-04T09:19:47Z</time>
      </trkpt>
      <trkpt lat="46.246000081300735" lon="11.850034883245826">
        <ele>2380.8400000000001</ele>
        <time>2017-07-04T09:19:48Z</time>
      </trkpt>
      <trkpt lat="46.245997650548816" lon="11.850042678415775">
        <ele>2380.8400000000001</ele>
        <time>2017-07-04T09:19:49Z</time>
      </trkpt>
      <trkpt lat="46.245918525382876" lon="11.850167149677873">
        <ele>2378.9200000000001</ele>
        <time>2017-07-04T09:20:01Z</time>
      </trkpt>
      <trkpt lat="46.245852308347821" lon="11.850336128845811">
        <ele>2376.52</ele>
        <time>2017-07-04T09:20:13Z</time>
      </trkpt>
      <trkpt lat="46.245819786563516" lon="11.850403435528278">
        <ele>2376.04</ele>
        <time>2017-07-04T09:20:18Z</time>
      </trkpt>
      <trkpt lat="46.245736470445991" lon="11.850534696131945">
        <ele>2373.6300000000001</ele>
        <time>2017-07-04T09:20:29Z</time>
      </trkpt>
      <trkpt lat="46.24568123370409" lon="11.850723205134273">
        <ele>2372.1900000000001</ele>
        <time>2017-07-04T09:20:42Z</time>
      </trkpt>
      <trkpt lat="46.245660278946161" lon="11.850831247866154">
        <ele>2371.23</ele>
        <time>2017-07-04T09:20:49Z</time>
      </trkpt>
      <trkpt lat="46.245601521804929" lon="11.851009866222739">
        <ele>2369.79</ele>
        <time>2017-07-04T09:21:02Z</time>
      </trkpt>
      <trkpt lat="46.245740493759513" lon="11.850901823490858">
        <ele>2369.3099999999999</ele>
        <time>2017-07-04T09:21:13Z</time>
      </trkpt>
      <trkpt lat="46.245748540386558" lon="11.850925125181675">
        <ele>2369.3099999999999</ele>
        <time>2017-07-04T09:21:22Z</time>
      </trkpt>
      <trkpt lat="46.245759772136807" lon="11.851017074659467">
        <ele>2368.8299999999999</ele>
        <time>2017-07-04T09:21:31Z</time>
      </trkpt>
      <trkpt lat="46.24571249820292" lon="11.85113986954093">
        <ele>2368.3499999999999</ele>
        <time>2017-07-04T09:21:42Z</time>
      </trkpt>
      <trkpt lat="46.245712582021952" lon="11.851164344698191">
        <ele>2366.9000000000001</ele>
        <time>2017-07-04T09:21:44Z</time>
      </trkpt>
      <trkpt lat="46.245704283937812" lon="11.851264759898186">
        <ele>2366.4200000000001</ele>
        <time>2017-07-04T09:21:55Z</time>
      </trkpt>
      <trkpt lat="46.245708726346493" lon="11.851277416571975">
        <ele>2366.4200000000001</ele>
        <time>2017-07-04T09:21:56Z</time>
      </trkpt>
      <trkpt lat="46.245706798508763" lon="11.851353524252772">
        <ele>2365.9400000000001</ele>
        <time>2017-07-04T09:22:06Z</time>
      </trkpt>
      <trkpt lat="46.245683999732137" lon="11.851372886449099">
        <ele>2365.9400000000001</ele>
        <time>2017-07-04T09:22:17Z</time>
      </trkpt>
      <trkpt lat="46.245686933398247" lon="11.851421920582652">
        <ele>2364.5</ele>
        <time>2017-07-04T09:22:25Z</time>
      </trkpt>
      <trkpt lat="46.245669247582555" lon="11.85144723393023">
        <ele>2364.02</ele>
        <time>2017-07-04T09:22:34Z</time>
      </trkpt>
      <trkpt lat="46.245631277561188" lon="11.85150783509016">
        <ele>2363.0599999999999</ele>
        <time>2017-07-04T09:22:42Z</time>
      </trkpt>
      <trkpt lat="46.245582830160856" lon="11.851595593616366">
        <ele>2362.0999999999999</ele>
        <time>2017-07-04T09:22:52Z</time>
      </trkpt>
      <trkpt lat="46.245566233992577" lon="11.851613698527217">
        <ele>2362.5799999999999</ele>
        <time>2017-07-04T09:23:01Z</time>
      </trkpt>
      <trkpt lat="46.24553413130343" lon="11.851594839245081">
        <ele>2361.6199999999999</ele>
        <time>2017-07-04T09:23:10Z</time>
      </trkpt>
      <trkpt lat="46.245488952845335" lon="11.85157329775393">
        <ele>2360.1700000000001</ele>
        <time>2017-07-04T09:23:19Z</time>
      </trkpt>
      <trkpt lat="46.245470345020294" lon="11.851481515914202">
        <ele>2359.21</ele>
        <time>2017-07-04T09:23:29Z</time>
      </trkpt>
      <trkpt lat="46.245452240109444" lon="11.851578745990992">
        <ele>2357.29</ele>
        <time>2017-07-04T09:23:41Z</time>
      </trkpt>
      <trkpt lat="46.245483253151178" lon="11.851648986339569">
        <ele>2356.8099999999999</ele>
        <time>2017-07-04T09:23:50Z</time>
      </trkpt>
      <trkpt lat="46.245450060814619" lon="11.851690895855427">
        <ele>2353.9299999999998</ele>
        <time>2017-07-04T09:24:01Z</time>
      </trkpt>
      <trkpt lat="46.24542030505836" lon="11.851701876148582">
        <ele>2352.96</ele>
        <time>2017-07-04T09:24:12Z</time>
      </trkpt>
      <trkpt lat="46.245393147692084" lon="11.851726267486811">
        <ele>2351.52</ele>
        <time>2017-07-04T09:24:21Z</time>
      </trkpt>
      <trkpt lat="46.245338246226311" lon="11.851763064041734">
        <ele>2350.0799999999999</ele>
        <time>2017-07-04T09:24:29Z</time>
      </trkpt>
      <trkpt lat="46.245315531268716" lon="11.851732386276126">
        <ele>2348.1599999999999</ele>
        <time>2017-07-04T09:24:37Z</time>
      </trkpt>
      <trkpt lat="46.245291978120804" lon="11.851765494793653">
        <ele>2347.1999999999998</ele>
        <time>2017-07-04T09:24:40Z</time>
      </trkpt>
      <trkpt lat="46.245278986170888" lon="11.851789718493819">
        <ele>2347.1999999999998</ele>
        <time>2017-07-04T09:24:42Z</time>
      </trkpt>
      <trkpt lat="46.245258366689086" lon="11.851830119267106">
        <ele>2346.23</ele>
        <time>2017-07-04T09:24:45Z</time>
      </trkpt>
      <trkpt lat="46.245242524892092" lon="11.851835316047072">
        <ele>2346.23</ele>
        <time>2017-07-04T09:24:46Z</time>
      </trkpt>
      <trkpt lat="46.245214696973562" lon="11.851992812007666">
        <ele>2345.27</ele>
        <time>2017-07-04T09:24:57Z</time>
      </trkpt>
      <trkpt lat="46.24515300616622" lon="11.852088868618011">
        <ele>2343.8299999999999</ele>
        <time>2017-07-04T09:25:09Z</time>
      </trkpt>
      <trkpt lat="46.245145546272397" lon="11.852093478664756">
        <ele>2343.8299999999999</ele>
        <time>2017-07-04T09:25:10Z</time>
      </trkpt>
      <trkpt lat="46.245139259845018" lon="11.852110577747226">
        <ele>2343.8299999999999</ele>
        <time>2017-07-04T09:25:11Z</time>
      </trkpt>
      <trkpt lat="46.245121154934168" lon="11.852113511413336">
        <ele>2343.3499999999999</ele>
        <time>2017-07-04T09:25:13Z</time>
      </trkpt>
      <trkpt lat="46.244999701157212" lon="11.852179896086454">
        <ele>2342.3899999999999</ele>
        <time>2017-07-04T09:25:25Z</time>
      </trkpt>
      <trkpt lat="46.244950918480754" lon="11.85218995437026">
        <ele>2342.3899999999999</ele>
        <time>2017-07-04T09:25:30Z</time>
      </trkpt>
      <trkpt lat="46.24487305060029" lon="11.852323981001973">
        <ele>2340.9499999999998</ele>
        <time>2017-07-04T09:25:41Z</time>
      </trkpt>
      <trkpt lat="46.24479778110981" lon="11.852399418130517">
        <ele>2341.9099999999999</ele>
        <time>2017-07-04T09:25:51Z</time>
      </trkpt>
      <trkpt lat="46.244688061997294" lon="11.852396568283439">
        <ele>2339.02</ele>
        <time>2017-07-04T09:26:04Z</time>
      </trkpt>
      <trkpt lat="46.244581108912826" lon="11.852415008470416">
        <ele>2337.5799999999999</ele>
        <time>2017-07-04T09:26:15Z</time>
      </trkpt>
      <trkpt lat="46.244455883279443" lon="11.852447697892785">
        <ele>2336.1399999999999</ele>
        <time>2017-07-04T09:26:28Z</time>
      </trkpt>
      <trkpt lat="46.244389917701483" lon="11.85245675034821">
        <ele>2334.6999999999998</ele>
        <time>2017-07-04T09:26:35Z</time>
      </trkpt>
      <trkpt lat="46.244283970445395" lon="11.852409727871418">
        <ele>2333.2600000000002</ele>
        <time>2017-07-04T09:26:47Z</time>
      </trkpt>
      <trkpt lat="46.244215909391642" lon="11.852350048720837">
        <ele>2332.3000000000002</ele>
        <time>2017-07-04T09:26:57Z</time>
      </trkpt>
      <trkpt lat="46.244167881086469" lon="11.852366141974926">
        <ele>2330.8499999999999</ele>
        <time>2017-07-04T09:27:05Z</time>
      </trkpt>
      <trkpt lat="46.244119685143232" lon="11.85234971344471">
        <ele>2329.8899999999999</ele>
        <time>2017-07-04T09:27:14Z</time>
      </trkpt>
      <trkpt lat="46.244010301306844" lon="11.852265056222677">
        <ele>2327.4899999999998</ele>
        <time>2017-07-04T09:27:25Z</time>
      </trkpt>
      <trkpt lat="46.2439573276788" lon="11.852236809208989">
        <ele>2327.4899999999998</ele>
        <time>2017-07-04T09:27:36Z</time>
      </trkpt>
      <trkpt lat="46.243943497538567" lon="11.852234126999974">
        <ele>2328.4499999999998</ele>
        <time>2017-07-04T09:27:52Z</time>
      </trkpt>
      <trkpt lat="46.243866300210357" lon="11.852188697084785">
        <ele>2326.5300000000002</ele>
        <time>2017-07-04T09:28:00Z</time>
      </trkpt>
      <trkpt lat="46.243718108162284" lon="11.852180315181613">
        <ele>2323.6399999999999</ele>
        <time>2017-07-04T09:28:13Z</time>
      </trkpt>
      <trkpt lat="46.243624901399016" lon="11.852187607437372">
        <ele>2322.6799999999998</ele>
        <time>2017-07-04T09:28:22Z</time>
      </trkpt>
      <trkpt lat="46.243578717112541" lon="11.852206718176603">
        <ele>2321.2399999999998</ele>
        <time>2017-07-04T09:28:27Z</time>
      </trkpt>
      <trkpt lat="46.24343303963542" lon="11.852251896634698">
        <ele>2319.3200000000002</ele>
        <time>2017-07-04T09:28:42Z</time>
      </trkpt>
      <trkpt lat="46.243598749861121" lon="11.852095993235707">
        <ele>2317.8800000000001</ele>
        <time>2017-07-04T09:28:53Z</time>
      </trkpt>
      <trkpt lat="46.243519457057118" lon="11.852116445079446">
        <ele>2316.9099999999999</ele>
        <time>2017-07-04T09:29:03Z</time>
      </trkpt>
      <trkpt lat="46.243517361581326" lon="11.85214594937861">
        <ele>2314.9899999999998</ele>
        <time>2017-07-04T09:29:15Z</time>
      </trkpt>
      <trkpt lat="46.243555918335915" lon="11.852151649072766">
        <ele>2314.0300000000002</ele>
        <time>2017-07-04T09:29:21Z</time>
      </trkpt>
      <trkpt lat="46.243646442890167" lon="11.852175118401647">
        <ele>2311.1500000000001</ele>
        <time>2017-07-04T09:29:33Z</time>
      </trkpt>
      <trkpt lat="46.243625823408365" lon="11.852251142263412">
        <ele>2309.2199999999998</ele>
        <time>2017-07-04T09:29:43Z</time>
      </trkpt>
      <trkpt lat="46.243602856993675" lon="11.852326830849051">
        <ele>2307.3000000000002</ele>
        <time>2017-07-04T09:29:51Z</time>
      </trkpt>
      <trkpt lat="46.243596570566297" lon="11.852393299341202">
        <ele>2305.3800000000001</ele>
        <time>2017-07-04T09:29:56Z</time>
      </trkpt>
      <trkpt lat="46.243607802316546" lon="11.852434789761901">
        <ele>2304.4200000000001</ele>
        <time>2017-07-04T09:30:03Z</time>
      </trkpt>
      <trkpt lat="46.243643341585994" lon="11.852468065917492">
        <ele>2302.98</ele>
        <time>2017-07-04T09:30:08Z</time>
      </trkpt>
      <trkpt lat="46.243686592206359" lon="11.852488769218326">
        <ele>2302.4899999999998</ele>
        <time>2017-07-04T09:30:12Z</time>
      </trkpt>
      <trkpt lat="46.243760520592332" lon="11.852554064244032">
        <ele>2301.5300000000002</ele>
        <time>2017-07-04T09:30:21Z</time>
      </trkpt>
      <trkpt lat="46.243864707648754" lon="11.852645091712475">
        <ele>2299.6100000000001</ele>
        <time>2017-07-04T09:30:34Z</time>
      </trkpt>
      <trkpt lat="46.243882644921541" lon="11.852735280990601">
        <ele>2297.6900000000001</ele>
        <time>2017-07-04T09:30:43Z</time>
      </trkpt>
      <trkpt lat="46.243915585801005" lon="11.852804012596607">
        <ele>2297.21</ele>
        <time>2017-07-04T09:30:49Z</time>
      </trkpt>
      <trkpt lat="46.243944838643074" lon="11.852812981233001">
        <ele>2296.25</ele>
        <time>2017-07-04T09:30:53Z</time>
      </trkpt>
      <trkpt lat="46.243963278830051" lon="11.852870816364884">
        <ele>2295.77</ele>
        <time>2017-07-04T09:30:57Z</time>
      </trkpt>
      <trkpt lat="46.243992112576962" lon="11.852927980944514">
        <ele>2293.8400000000001</ele>
        <time>2017-07-04T09:31:08Z</time>
      </trkpt>
      <trkpt lat="46.244020443409681" lon="11.852990929037333">
        <ele>2292.4000000000001</ele>
        <time>2017-07-04T09:31:18Z</time>
      </trkpt>
      <trkpt lat="46.244021700695157" lon="11.853021774441004">
        <ele>2290.48</ele>
        <time>2017-07-04T09:31:25Z</time>
      </trkpt>
      <trkpt lat="46.244055312126875" lon="11.853107186034322">
        <ele>2288.5599999999999</ele>
        <time>2017-07-04T09:31:35Z</time>
      </trkpt>
      <trkpt lat="46.244032010436058" lon="11.853221347555518">
        <ele>2286.1500000000001</ele>
        <time>2017-07-04T09:31:46Z</time>
      </trkpt>
      <trkpt lat="46.244170228019357" lon="11.854024836793542">
        <ele>2284.23</ele>
        <time>2017-07-04T09:36:29Z</time>
      </trkpt>
      <trkpt lat="46.244217166677117" lon="11.854233127087355">
        <ele>2285.1900000000001</ele>
        <time>2017-07-04T09:36:46Z</time>
      </trkpt>
      <trkpt lat="46.244247509166598" lon="11.854319125413895">
        <ele>2284.71</ele>
        <time>2017-07-04T09:37:03Z</time>
      </trkpt>
      <trkpt lat="46.244223117828369" lon="11.85423145070672">
        <ele>2284.71</ele>
        <time>2017-07-04T09:37:23Z</time>
      </trkpt>
      <trkpt lat="46.244248934090137" lon="11.854251734912395">
        <ele>2284.71</ele>
        <time>2017-07-04T09:37:41Z</time>
      </trkpt>
      <trkpt lat="46.244237702339888" lon="11.854244694113731">
        <ele>2284.71</ele>
        <time>2017-07-04T09:37:56Z</time>
      </trkpt>
      <trkpt lat="46.244217669591308" lon="11.854264056310058">
        <ele>2284.23</ele>
        <time>2017-07-04T09:38:08Z</time>
      </trkpt>
      <trkpt lat="46.244224878028035" lon="11.854274701327085">
        <ele>2285.1900000000001</ele>
        <time>2017-07-04T09:38:18Z</time>
      </trkpt>
      <trkpt lat="46.244244324043393" lon="11.85407605022192">
        <ele>2282.79</ele>
        <time>2017-07-04T09:49:31Z</time>
      </trkpt>
      <trkpt lat="46.244258992373943" lon="11.854104548692703">
        <ele>2282.79</ele>
        <time>2017-07-04T09:49:51Z</time>
      </trkpt>
      <trkpt lat="46.244238708168268" lon="11.854153834283352">
        <ele>2282.79</ele>
        <time>2017-07-04T09:50:07Z</time>
      </trkpt>
      <trkpt lat="46.244153715670109" lon="11.854333458468318">
        <ele>2282.3099999999999</ele>
        <time>2017-07-04T09:50:17Z</time>
      </trkpt>
      <trkpt lat="46.244180286303163" lon="11.854312755167484">
        <ele>2282.79</ele>
        <time>2017-07-04T09:50:42Z</time>
      </trkpt>
      <trkpt lat="46.244346415624022" lon="11.854206388816237">
        <ele>2283.75</ele>
        <time>2017-07-04T09:51:26Z</time>
      </trkpt>
      <trkpt lat="46.244317581877112" lon="11.854269588366151">
        <ele>2283.75</ele>
        <time>2017-07-04T09:51:49Z</time>
      </trkpt>
      <trkpt lat="46.244327388703823" lon="11.854297081008554">
        <ele>2283.27</ele>
        <time>2017-07-04T09:52:07Z</time>
      </trkpt>
      <trkpt lat="46.244374075904489" lon="11.854307306930423">
        <ele>2282.79</ele>
        <time>2017-07-04T09:52:26Z</time>
      </trkpt>
      <trkpt lat="46.244392432272434" lon="11.854306887835264">
        <ele>2282.79</ele>
        <time>2017-07-04T09:52:45Z</time>
      </trkpt>
      <trkpt lat="46.244378099218011" lon="11.854269001632929">
        <ele>2282.79</ele>
        <time>2017-07-04T09:53:07Z</time>
      </trkpt>
      <trkpt lat="46.244372650980949" lon="11.854243185371161">
        <ele>2283.27</ele>
        <time>2017-07-04T09:53:34Z</time>
      </trkpt>
      <trkpt lat="46.244272319599986" lon="11.854316862300038">
        <ele>2283.27</ele>
        <time>2017-07-04T09:53:53Z</time>
      </trkpt>
      <trkpt lat="46.244303248822689" lon="11.854238407686353">
        <ele>2283.75</ele>
        <time>2017-07-04T09:54:13Z</time>
      </trkpt>
      <trkpt lat="46.244352199137211" lon="11.854265062138438">
        <ele>2283.27</ele>
        <time>2017-07-04T09:54:30Z</time>
      </trkpt>
      <trkpt lat="46.244390504434705" lon="11.854323651641607">
        <ele>2283.27</ele>
        <time>2017-07-04T09:54:51Z</time>
      </trkpt>
      <trkpt lat="46.244366867467761" lon="11.854422558099031">
        <ele>2283.75</ele>
        <time>2017-07-04T09:55:09Z</time>
      </trkpt>
      <trkpt lat="46.244219932705164" lon="11.85427151620388">
        <ele>2283.75</ele>
        <time>2017-07-04T09:55:24Z</time>
      </trkpt>
      <trkpt lat="46.244234433397651" lon="11.854349467903376">
        <ele>2283.75</ele>
        <time>2017-07-04T09:55:40Z</time>
      </trkpt>
      <trkpt lat="46.244243402034044" lon="11.854348294436932">
        <ele>2283.75</ele>
        <time>2017-07-04T09:55:52Z</time>
      </trkpt>
      <trkpt lat="46.244308361783624" lon="11.854390120133758">
        <ele>2283.75</ele>
        <time>2017-07-04T09:56:01Z</time>
      </trkpt>
      <trkpt lat="46.244291346520185" lon="11.854417864233255">
        <ele>2283.75</ele>
        <time>2017-07-04T09:56:45Z</time>
      </trkpt>
      <trkpt lat="46.244244826957583" lon="11.854450888931751">
        <ele>2283.75</ele>
        <time>2017-07-04T09:57:05Z</time>
      </trkpt>
      <trkpt lat="46.244200905784965" lon="11.854288280010223">
        <ele>2283.27</ele>
        <time>2017-07-04T09:58:22Z</time>
      </trkpt>
      <trkpt lat="46.244223201647401" lon="11.854237904772162">
        <ele>2283.27</ele>
        <time>2017-07-04T09:58:28Z</time>
      </trkpt>
      <trkpt lat="46.244265446439385" lon="11.854283586144447">
        <ele>2283.27</ele>
        <time>2017-07-04T09:58:38Z</time>
      </trkpt>
      <trkpt lat="46.244234684854746" lon="11.854193480685353">
        <ele>2283.27</ele>
        <time>2017-07-04T09:59:00Z</time>
      </trkpt>
      <trkpt lat="46.244260165840387" lon="11.854231115430593">
        <ele>2283.27</ele>
        <time>2017-07-04T09:59:21Z</time>
      </trkpt>
      <trkpt lat="46.244272654876113" lon="11.854184176772833">
        <ele>2283.27</ele>
        <time>2017-07-04T09:59:52Z</time>
      </trkpt>
      <trkpt lat="46.24425538815558" lon="11.854133047163486">
        <ele>2283.27</ele>
        <time>2017-07-04T10:00:17Z</time>
      </trkpt>
      <trkpt lat="46.24426226131618" lon="11.854122150689363">
        <ele>2283.75</ele>
        <time>2017-07-04T10:00:37Z</time>
      </trkpt>
      <trkpt lat="46.244268631562591" lon="11.854075212031603">
        <ele>2283.75</ele>
        <time>2017-07-04T10:01:04Z</time>
      </trkpt>
      <trkpt lat="46.244269469752908" lon="11.854047970846295">
        <ele>2284.23</ele>
        <time>2017-07-04T10:01:25Z</time>
      </trkpt>
      <trkpt lat="46.244296878576279" lon="11.854104129597545">
        <ele>2284.71</ele>
        <time>2017-07-04T10:01:44Z</time>
      </trkpt>
      <trkpt lat="46.244287993758917" lon="11.854080324992537">
        <ele>2284.71</ele>
        <time>2017-07-04T10:02:03Z</time>
      </trkpt>
      <trkpt lat="46.244288496673107" lon="11.854030704125762">
        <ele>2284.71</ele>
        <time>2017-07-04T10:02:23Z</time>
      </trkpt>
      <trkpt lat="46.24430132098496" lon="11.854058112949133">
        <ele>2285.1900000000001</ele>
        <time>2017-07-04T10:02:44Z</time>
      </trkpt>
      <trkpt lat="46.244290508329868" lon="11.854060627520084">
        <ele>2285.1900000000001</ele>
        <time>2017-07-04T10:03:03Z</time>
      </trkpt>
      <trkpt lat="46.244288412854075" lon="11.854042522609234">
        <ele>2285.6700000000001</ele>
        <time>2017-07-04T10:03:24Z</time>
      </trkpt>
      <trkpt lat="46.244281036779284" lon="11.85404235497117">
        <ele>2286.1500000000001</ele>
        <time>2017-07-04T10:03:38Z</time>
      </trkpt>
      <trkpt lat="46.244272319599986" lon="11.853906735777855">
        <ele>2286.1500000000001</ele>
        <time>2017-07-04T10:04:01Z</time>
      </trkpt>
      <trkpt lat="46.244301572442055" lon="11.853884188458323">
        <ele>2287.1100000000001</ele>
        <time>2017-07-04T10:04:20Z</time>
      </trkpt>
      <trkpt lat="46.244335602968931" lon="11.853851163759828">
        <ele>2287.1100000000001</ele>
        <time>2017-07-04T10:04:38Z</time>
      </trkpt>
      <trkpt lat="46.244375668466091" lon="11.853794334456325">
        <ele>2288.0799999999999</ele>
        <time>2017-07-04T10:05:00Z</time>
      </trkpt>
      <trkpt lat="46.244421936571598" lon="11.853634072467685">
        <ele>2289.04</ele>
        <time>2017-07-04T10:05:22Z</time>
      </trkpt>
      <trkpt lat="46.244466193020344" lon="11.853677406907082">
        <ele>2289.04</ele>
        <time>2017-07-04T10:05:39Z</time>
      </trkpt>
      <trkpt lat="46.244497625157237" lon="11.853652680292726">
        <ele>2290</ele>
        <time>2017-07-04T10:06:06Z</time>
      </trkpt>
      <trkpt lat="46.244567530229688" lon="11.8535849545151">
        <ele>2291.9200000000001</ele>
        <time>2017-07-04T10:06:33Z</time>
      </trkpt>
      <trkpt lat="46.244559651240706" lon="11.853664498776197">
        <ele>2293.3600000000001</ele>
        <time>2017-07-04T10:06:58Z</time>
      </trkpt>
      <trkpt lat="46.244590915739536" lon="11.853630552068353">
        <ele>2294.3200000000002</ele>
        <time>2017-07-04T10:07:18Z</time>
      </trkpt>
      <trkpt lat="46.24462922103703" lon="11.853552600368857">
        <ele>2296.25</ele>
        <time>2017-07-04T10:07:43Z</time>
      </trkpt>
      <trkpt lat="46.244660653173923" lon="11.853477582335472">
        <ele>2298.1700000000001</ele>
        <time>2017-07-04T10:08:05Z</time>
      </trkpt>
      <trkpt lat="46.244649169966578" lon="11.853455035015941">
        <ele>2299.1300000000001</ele>
        <time>2017-07-04T10:08:12Z</time>
      </trkpt>
      <trkpt lat="46.244661826640368" lon="11.853457130491734">
        <ele>2300.5700000000002</ele>
        <time>2017-07-04T10:08:24Z</time>
      </trkpt>
      <trkpt lat="46.244689989835024" lon="11.85350239276886">
        <ele>2302.4899999999998</ele>
        <time>2017-07-04T10:08:35Z</time>
      </trkpt>
      <trkpt lat="46.244725612923503" lon="11.853561569005251">
        <ele>2302.4899999999998</ele>
        <time>2017-07-04T10:08:48Z</time>
      </trkpt>
      <trkpt lat="46.244730977341533" lon="11.85358788818121">
        <ele>2303.9400000000001</ele>
        <time>2017-07-04T10:09:02Z</time>
      </trkpt>
      <trkpt lat="46.244742712005973" lon="11.853570118546486">
        <ele>2305.3800000000001</ele>
        <time>2017-07-04T10:09:18Z</time>
      </trkpt>
      <trkpt lat="46.244762158021331" lon="11.853529717773199">
        <ele>2307.3000000000002</ele>
        <time>2017-07-04T10:09:34Z</time>
      </trkpt>
      <trkpt lat="46.244762828573585" lon="11.85354488901794">
        <ele>2308.2600000000002</ele>
        <time>2017-07-04T10:09:48Z</time>
      </trkpt>
      <trkpt lat="46.244821334257722" lon="11.853486467152834">
        <ele>2309.6999999999998</ele>
        <time>2017-07-04T10:10:01Z</time>
      </trkpt>
      <trkpt lat="46.244840109720826" lon="11.853456040844321">
        <ele>2311.1500000000001</ele>
        <time>2017-07-04T10:10:09Z</time>
      </trkpt>
      <trkpt lat="46.24486031010747" lon="11.85343055985868">
        <ele>2311.1500000000001</ele>
        <time>2017-07-04T10:10:14Z</time>
      </trkpt>
      <trkpt lat="46.244882019236684" lon="11.853386638686061">
        <ele>2311.1500000000001</ele>
        <time>2017-07-04T10:10:17Z</time>
      </trkpt>
      <trkpt lat="46.244985703378916" lon="11.853410778567195">
        <ele>2313.0700000000002</ele>
        <time>2017-07-04T10:10:28Z</time>
      </trkpt>
      <trkpt lat="46.245034318417311" lon="11.853531561791897">
        <ele>2316.4299999999998</ele>
        <time>2017-07-04T10:10:36Z</time>
      </trkpt>
      <trkpt lat="46.245037419721484" lon="11.853546481579542">
        <ele>2315.9499999999998</ele>
        <time>2017-07-04T10:10:37Z</time>
      </trkpt>
      <trkpt lat="46.245071198791265" lon="11.853713365271688">
        <ele>2317.4000000000001</ele>
        <time>2017-07-04T10:10:47Z</time>
      </trkpt>
      <trkpt lat="46.245077904313803" lon="11.853724010288715">
        <ele>2318.3600000000001</ele>
        <time>2017-07-04T10:10:48Z</time>
      </trkpt>
      <trkpt lat="46.245113359764218" lon="11.85383029282093">
        <ele>2318.8400000000001</ele>
        <time>2017-07-04T10:10:56Z</time>
      </trkpt>
      <trkpt lat="46.245075641199946" lon="11.853984855115414">
        <ele>2318.8400000000001</ele>
        <time>2017-07-04T10:11:02Z</time>
      </trkpt>
      <trkpt lat="46.244908003136516" lon="11.854304289445281">
        <ele>2319.3200000000002</ele>
        <time>2017-07-04T10:11:12Z</time>
      </trkpt>
      <trkpt lat="46.244963407516479" lon="11.854290040209889">
        <ele>2317.4000000000001</ele>
        <time>2017-07-04T10:11:23Z</time>
      </trkpt>
      <trkpt lat="46.245000036433339" lon="11.854286687448621">
        <ele>2315.9499999999998</ele>
        <time>2017-07-04T10:11:27Z</time>
      </trkpt>
      <trkpt lat="46.245068097487092" lon="11.854381402954459">
        <ele>2314.5100000000002</ele>
        <time>2017-07-04T10:11:39Z</time>
      </trkpt>
      <trkpt lat="46.245102463290095" lon="11.85435357503593">
        <ele>2312.5900000000001</ele>
        <time>2017-07-04T10:11:46Z</time>
      </trkpt>
      <trkpt lat="46.24511000700295" lon="11.854360867291689">
        <ele>2313.0700000000002</ele>
        <time>2017-07-04T10:11:48Z</time>
      </trkpt>
      <trkpt lat="46.245209081098437" lon="11.85435064136982">
        <ele>2310.6700000000001</ele>
        <time>2017-07-04T10:12:00Z</time>
      </trkpt>
      <trkpt lat="46.245250068604946" lon="11.854336811229587">
        <ele>2310.1900000000001</ele>
        <time>2017-07-04T10:12:05Z</time>
      </trkpt>
      <trkpt lat="46.245305640622973" lon="11.854315856471658">
        <ele>2309.2199999999998</ele>
        <time>2017-07-04T10:12:14Z</time>
      </trkpt>
      <trkpt lat="46.24538904055953" lon="11.854394562542439">
        <ele>2308.7399999999998</ele>
        <time>2017-07-04T10:12:27Z</time>
      </trkpt>
      <trkpt lat="46.245390130206943" lon="11.854444686323404">
        <ele>2309.6999999999998</ele>
        <time>2017-07-04T10:12:37Z</time>
      </trkpt>
      <trkpt lat="46.245363308116794" lon="11.854557171463966">
        <ele>2307.7800000000002</ele>
        <time>2017-07-04T10:12:43Z</time>
      </trkpt>
      <trkpt lat="46.245283344760537" lon="11.854786165058613">
        <ele>2304.9000000000001</ele>
        <time>2017-07-04T10:12:56Z</time>
      </trkpt>
      <trkpt lat="46.245297007262707" lon="11.854846850037575">
        <ele>2303.9400000000001</ele>
        <time>2017-07-04T10:13:05Z</time>
      </trkpt>
      <trkpt lat="46.245361883193254" lon="11.85497316531837">
        <ele>2302.4899999999998</ele>
        <time>2017-07-04T10:13:16Z</time>
      </trkpt>
      <trkpt lat="46.245357021689415" lon="11.855102414265275">
        <ele>2301.5300000000002</ele>
        <time>2017-07-04T10:13:26Z</time>
      </trkpt>
      <trkpt lat="46.245380574837327" lon="11.855239290744066">
        <ele>2300.0900000000001</ele>
        <time>2017-07-04T10:13:38Z</time>
      </trkpt>
      <trkpt lat="46.245410833507776" lon="11.855332916602492">
        <ele>2299.1300000000001</ele>
        <time>2017-07-04T10:13:49Z</time>
      </trkpt>
      <trkpt lat="46.245435895398259" lon="11.85545152053237">
        <ele>2297.6900000000001</ele>
        <time>2017-07-04T10:14:02Z</time>
      </trkpt>
      <trkpt lat="46.245455425232649" lon="11.855436014011502">
        <ele>2297.21</ele>
        <time>2017-07-04T10:14:22Z</time>
      </trkpt>
      <trkpt lat="46.245462717488408" lon="11.855442551895976">
        <ele>2297.21</ele>
        <time>2017-07-04T10:14:23Z</time>
      </trkpt>
      <trkpt lat="46.245501441881061" lon="11.855536680668592">
        <ele>2296.73</ele>
        <time>2017-07-04T10:14:32Z</time>
      </trkpt>
      <trkpt lat="46.245529102161527" lon="11.855695182457566">
        <ele>2296.25</ele>
        <time>2017-07-04T10:14:43Z</time>
      </trkpt>
      <trkpt lat="46.245586182922125" lon="11.855802554637194">
        <ele>2294.8000000000002</ele>
        <time>2017-07-04T10:14:53Z</time>
      </trkpt>
      <trkpt lat="46.245682323351502" lon="11.855887295678258">
        <ele>2293.8400000000001</ele>
        <time>2017-07-04T10:15:04Z</time>
      </trkpt>
      <trkpt lat="46.245724316686392" lon="11.855941778048873">
        <ele>2293.8400000000001</ele>
        <time>2017-07-04T10:15:11Z</time>
      </trkpt>
      <trkpt lat="46.245841914787889" lon="11.8559455499053">
        <ele>2291.4400000000001</ele>
        <time>2017-07-04T10:15:23Z</time>
      </trkpt>
      <trkpt lat="46.245855996385217" lon="11.855953512713313">
        <ele>2290.96</ele>
        <time>2017-07-04T10:15:25Z</time>
      </trkpt>
      <trkpt lat="46.245950041338801" lon="11.856012688949704">
        <ele>2291.9200000000001</ele>
        <time>2017-07-04T10:15:37Z</time>
      </trkpt>
      <trkpt lat="46.246044840663671" lon="11.856028530746698">
        <ele>2292.4000000000001</ele>
        <time>2017-07-04T10:15:48Z</time>
      </trkpt>
      <trkpt lat="46.246062191203237" lon="11.856033308431506">
        <ele>2292.8800000000001</ele>
        <time>2017-07-04T10:15:50Z</time>
      </trkpt>
      <trkpt lat="46.246099825948477" lon="11.856047892943025">
        <ele>2292.8800000000001</ele>
        <time>2017-07-04T10:15:54Z</time>
      </trkpt>
      <trkpt lat="46.246160427108407" lon="11.856058537960052">
        <ele>2293.8400000000001</ele>
        <time>2017-07-04T10:16:03Z</time>
      </trkpt>
      <trkpt lat="46.246190182864666" lon="11.856073709204793">
        <ele>2293.3600000000001</ele>
        <time>2017-07-04T10:16:13Z</time>
      </trkpt>
      <trkpt lat="46.246198732405901" lon="11.856066584587097">
        <ele>2293.8400000000001</ele>
        <time>2017-07-04T10:16:26Z</time>
      </trkpt>
      <trkpt lat="46.246203342452645" lon="11.856053173542023">
        <ele>2293.3600000000001</ele>
        <time>2017-07-04T10:16:35Z</time>
      </trkpt>
      <trkpt lat="46.246214238926768" lon="11.85605501756072">
        <ele>2293.3600000000001</ele>
        <time>2017-07-04T10:16:42Z</time>
      </trkpt>
      <trkpt lat="46.246330076828599" lon="11.856074128299952">
        <ele>2294.3200000000002</ele>
        <time>2017-07-04T10:16:54Z</time>
      </trkpt>
      <trkpt lat="46.246388414874673" lon="11.856055771932006">
        <ele>2293.8400000000001</ele>
        <time>2017-07-04T10:16:58Z</time>
      </trkpt>
      <trkpt lat="46.246501319110394" lon="11.85597438365221">
        <ele>2293.3600000000001</ele>
        <time>2017-07-04T10:17:11Z</time>
      </trkpt>
      <trkpt lat="46.246525458991528" lon="11.855974718928337">
        <ele>2292.8800000000001</ele>
        <time>2017-07-04T10:17:14Z</time>
      </trkpt>
      <trkpt lat="46.246600141748786" lon="11.856001038104296">
        <ele>2291.9200000000001</ele>
        <time>2017-07-04T10:17:23Z</time>
      </trkpt>
      <trkpt lat="46.246750177815557" lon="11.85594605281949">
        <ele>2291.9200000000001</ele>
        <time>2017-07-04T10:17:36Z</time>
      </trkpt>
      <trkpt lat="46.246876744553447" lon="11.855876566842198">
        <ele>2290.96</ele>
        <time>2017-07-04T10:17:49Z</time>
      </trkpt>
      <trkpt lat="46.246992163360119" lon="11.855829879641533">
        <ele>2289.52</ele>
        <time>2017-07-04T10:18:01Z</time>
      </trkpt>
      <trkpt lat="46.247021248564124" lon="11.85583365149796">
        <ele>2289.04</ele>
        <time>2017-07-04T10:18:08Z</time>
      </trkpt>
      <trkpt lat="46.247167596593499" lon="11.855798363685608">
        <ele>2289.04</ele>
        <time>2017-07-04T10:18:24Z</time>
      </trkpt>
      <trkpt lat="46.247274214401841" lon="11.855778163298965">
        <ele>2290.48</ele>
        <time>2017-07-04T10:18:37Z</time>
      </trkpt>
      <trkpt lat="46.247401367872953" lon="11.855828454717994">
        <ele>2290</ele>
        <time>2017-07-04T10:18:51Z</time>
      </trkpt>
      <trkpt lat="46.247463645413518" lon="11.855869526043534">
        <ele>2291.4400000000001</ele>
        <time>2017-07-04T10:19:01Z</time>
      </trkpt>
      <trkpt lat="46.247529778629541" lon="11.855913531035185">
        <ele>2293.3600000000001</ele>
        <time>2017-07-04T10:19:13Z</time>
      </trkpt>
      <trkpt lat="46.247587949037552" lon="11.855935910716653">
        <ele>2295.2800000000002</ele>
        <time>2017-07-04T10:19:25Z</time>
      </trkpt>
      <trkpt lat="46.247618291527033" lon="11.855973796918988">
        <ele>2297.21</ele>
        <time>2017-07-04T10:19:35Z</time>
      </trkpt>
      <trkpt lat="46.24766749329865" lon="11.855978658422828">
        <ele>2298.6500000000001</ele>
        <time>2017-07-04T10:19:48Z</time>
      </trkpt>
      <trkpt lat="46.247730441391468" lon="11.855973210185766">
        <ele>2300.5700000000002</ele>
        <time>2017-07-04T10:19:59Z</time>
      </trkpt>
      <trkpt lat="46.247825408354402" lon="11.856029285117984">
        <ele>2302.0100000000002</ele>
        <time>2017-07-04T10:20:10Z</time>
      </trkpt>
      <trkpt lat="46.247904784977436" lon="11.856004055589437">
        <ele>2303.46</ele>
        <time>2017-07-04T10:20:23Z</time>
      </trkpt>
      <trkpt lat="46.247977456077933" lon="11.855985280126333">
        <ele>2305.3800000000001</ele>
        <time>2017-07-04T10:20:36Z</time>
      </trkpt>
      <trkpt lat="46.24803495593369" lon="11.855974635109305">
        <ele>2306.8200000000002</ele>
        <time>2017-07-04T10:20:48Z</time>
      </trkpt>
      <trkpt lat="46.248088935390115" lon="11.855940939858556">
        <ele>2308.7399999999998</ele>
        <time>2017-07-04T10:21:02Z</time>
      </trkpt>
      <trkpt lat="46.248075272887945" lon="11.855925684794784">
        <ele>2309.6999999999998</ele>
        <time>2017-07-04T10:21:17Z</time>
      </trkpt>
      <trkpt lat="46.248174849897623" lon="11.855963403359056">
        <ele>2310.6700000000001</ele>
        <time>2017-07-04T10:21:30Z</time>
      </trkpt>
      <trkpt lat="46.24828708358109" lon="11.855923673138022">
        <ele>2312.1100000000001</ele>
        <time>2017-07-04T10:21:44Z</time>
      </trkpt>
      <trkpt lat="46.248405184596777" lon="11.855872711166739">
        <ele>2312.5900000000001</ele>
        <time>2017-07-04T10:21:55Z</time>
      </trkpt>
      <trkpt lat="46.248436197638512" lon="11.855904143303633">
        <ele>2312.1100000000001</ele>
        <time>2017-07-04T10:22:04Z</time>
      </trkpt>
      <trkpt lat="46.248470647260547" lon="11.855944124981761">
        <ele>2312.5900000000001</ele>
        <time>2017-07-04T10:22:14Z</time>
      </trkpt>
      <trkpt lat="46.248479196801782" lon="11.855950327590108">
        <ele>2312.5900000000001</ele>
        <time>2017-07-04T10:22:15Z</time>
      </trkpt>
      <trkpt lat="46.248606014996767" lon="11.855985028669238">
        <ele>2312.5900000000001</ele>
        <time>2017-07-04T10:22:25Z</time>
      </trkpt>
      <trkpt lat="46.248663179576397" lon="11.856052670627832">
        <ele>2312.1100000000001</ele>
        <time>2017-07-04T10:22:35Z</time>
      </trkpt>
      <trkpt lat="46.248734761029482" lon="11.856118887662888">
        <ele>2313.0700000000002</ele>
        <time>2017-07-04T10:22:45Z</time>
      </trkpt>
      <trkpt lat="46.248758900910616" lon="11.856156438589096">
        <ele>2314.0300000000002</ele>
        <time>2017-07-04T10:22:53Z</time>
      </trkpt>
      <trkpt lat="46.248760242015123" lon="11.856167502701283">
        <ele>2314.0300000000002</ele>
        <time>2017-07-04T10:22:54Z</time>
      </trkpt>
      <trkpt lat="46.248767953366041" lon="11.856232462450862">
        <ele>2315.9499999999998</ele>
        <time>2017-07-04T10:23:01Z</time>
      </trkpt>
      <trkpt lat="46.248828638345003" lon="11.856235982850194">
        <ele>2317.4000000000001</ele>
        <time>2017-07-04T10:23:10Z</time>
      </trkpt>
      <trkpt lat="46.248812125995755" lon="11.856270851567388">
        <ele>2318.3600000000001</ele>
        <time>2017-07-04T10:23:18Z</time>
      </trkpt>
      <trkpt lat="46.248827297240496" lon="11.856334134936333">
        <ele>2319.3200000000002</ele>
        <time>2017-07-04T10:23:26Z</time>
      </trkpt>
      <trkpt lat="46.248793350532651" lon="11.856344528496265">
        <ele>2320.2800000000002</ele>
        <time>2017-07-04T10:23:35Z</time>
      </trkpt>
      <trkpt lat="46.24883777461946" lon="11.856273030862212">
        <ele>2321.7199999999998</ele>
        <time>2017-07-04T10:23:47Z</time>
      </trkpt>
      <trkpt lat="46.248921677470207" lon="11.856280826032162">
        <ele>2322.6799999999998</ele>
        <time>2017-07-04T10:23:54Z</time>
      </trkpt>
      <trkpt lat="46.248952355235815" lon="11.856229528784752">
        <ele>2323.1599999999999</ele>
        <time>2017-07-04T10:24:00Z</time>
      </trkpt>
      <trkpt lat="46.249024774879217" lon="11.856144620105624">
        <ele>2324.6100000000001</ele>
        <time>2017-07-04T10:24:13Z</time>
      </trkpt>
      <trkpt lat="46.249059978872538" lon="11.856203293427825">
        <ele>2326.0500000000002</ele>
        <time>2017-07-04T10:24:22Z</time>
      </trkpt>
      <trkpt lat="46.249069534242153" lon="11.856259703636169">
        <ele>2327.0100000000002</ele>
        <time>2017-07-04T10:24:30Z</time>
      </trkpt>
      <trkpt lat="46.249064337462187" lon="11.856270432472229">
        <ele>2328.4499999999998</ele>
        <time>2017-07-04T10:24:31Z</time>
      </trkpt>
      <trkpt lat="46.249075317755342" lon="11.85628853738308">
        <ele>2329.4099999999999</ele>
        <time>2017-07-04T10:24:39Z</time>
      </trkpt>
      <trkpt lat="46.249134996905923" lon="11.856287447735667">
        <ele>2330.3699999999999</ele>
        <time>2017-07-04T10:24:48Z</time>
      </trkpt>
      <trkpt lat="46.249131811782718" lon="11.856313515454531">
        <ele>2329.4099999999999</ele>
        <time>2017-07-04T10:25:02Z</time>
      </trkpt>
      <trkpt lat="46.249136673286557" lon="11.856309743598104">
        <ele>2331.3299999999999</ele>
        <time>2017-07-04T10:25:22Z</time>
      </trkpt>
      <trkpt lat="46.249143378809094" lon="11.85631007887423">
        <ele>2330.8499999999999</ele>
        <time>2017-07-04T10:25:37Z</time>
      </trkpt>
      <trkpt lat="46.249201465398073" lon="11.856312761083245">
        <ele>2330.8499999999999</ele>
        <time>2017-07-04T10:25:47Z</time>
      </trkpt>
      <trkpt lat="46.249284194782376" lon="11.856375876814127">
        <ele>2329.8899999999999</ele>
        <time>2017-07-04T10:25:56Z</time>
      </trkpt>
      <trkpt lat="46.249293833971024" lon="11.856383504346013">
        <ele>2329.8899999999999</ele>
        <time>2017-07-04T10:25:57Z</time>
      </trkpt>
      <trkpt lat="46.249370193108916" lon="11.856375206261873">
        <ele>2328.9299999999998</ele>
        <time>2017-07-04T10:26:05Z</time>
      </trkpt>
      <trkpt lat="46.249397182837129" lon="11.85644494369626">
        <ele>2329.4099999999999</ele>
        <time>2017-07-04T10:26:12Z</time>
      </trkpt>
      <trkpt lat="46.249411851167679" lon="11.856447542086244">
        <ele>2328.9299999999998</ele>
        <time>2017-07-04T10:26:13Z</time>
      </trkpt>
      <trkpt lat="46.249498687684536" lon="11.856515100225806">
        <ele>2327.9699999999998</ele>
        <time>2017-07-04T10:26:23Z</time>
      </trkpt>
      <trkpt lat="46.249562222510576" lon="11.856576539576054">
        <ele>2328.4499999999998</ele>
        <time>2017-07-04T10:26:33Z</time>
      </trkpt>
      <trkpt lat="46.249600946903229" lon="11.856640158221126">
        <ele>2329.8899999999999</ele>
        <time>2017-07-04T10:26:43Z</time>
      </trkpt>
      <trkpt lat="46.249624248594046" lon="11.856654323637486">
        <ele>2331.3299999999999</ele>
        <time>2017-07-04T10:26:47Z</time>
      </trkpt>
      <trkpt lat="46.249663224443793" lon="11.856686258688569">
        <ele>2330.8499999999999</ele>
        <time>2017-07-04T10:26:52Z</time>
      </trkpt>
      <trkpt lat="46.249806806445122" lon="11.856708722189069">
        <ele>2329.4099999999999</ele>
        <time>2017-07-04T10:27:04Z</time>
      </trkpt>
      <trkpt lat="46.249927757307887" lon="11.856736801564693">
        <ele>2327.9699999999998</ele>
        <time>2017-07-04T10:27:14Z</time>
      </trkpt>
      <trkpt lat="46.249971594661474" lon="11.856749542057514">
        <ele>2327.4899999999998</ele>
        <time>2017-07-04T10:27:17Z</time>
      </trkpt>
      <trkpt lat="46.249982323497534" lon="11.856756834313273">
        <ele>2327.4899999999998</ele>
        <time>2017-07-04T10:27:18Z</time>
      </trkpt>
      <trkpt lat="46.249996740370989" lon="11.856765802949667">
        <ele>2327.4899999999998</ele>
        <time>2017-07-04T10:27:19Z</time>
      </trkpt>
      <trkpt lat="46.250005625188351" lon="11.856776783242822">
        <ele>2327.4899999999998</ele>
        <time>2017-07-04T10:27:20Z</time>
      </trkpt>
      <trkpt lat="46.250013755634427" lon="11.856786087155342">
        <ele>2327.9699999999998</ele>
        <time>2017-07-04T10:27:21Z</time>
      </trkpt>
      <trkpt lat="46.250071590766311" lon="11.856883820146322">
        <ele>2327.9699999999998</ele>
        <time>2017-07-04T10:27:29Z</time>
      </trkpt>
      <trkpt lat="46.250080307945609" lon="11.856947354972363">
        <ele>2327.9699999999998</ele>
        <time>2017-07-04T10:27:34Z</time>
      </trkpt>
      <trkpt lat="46.250085169449449" lon="11.85696043074131">
        <ele>2327.9699999999998</ele>
        <time>2017-07-04T10:27:35Z</time>
      </trkpt>
      <trkpt lat="46.250086175277829" lon="11.856975350528955">
        <ele>2327.9699999999998</ele>
        <time>2017-07-04T10:27:36Z</time>
      </trkpt>
      <trkpt lat="46.250106375664473" lon="11.857032598927617">
        <ele>2327.9699999999998</ele>
        <time>2017-07-04T10:27:40Z</time>
      </trkpt>
      <trkpt lat="46.250108890235424" lon="11.857047602534294">
        <ele>2328.4499999999998</ele>
        <time>2017-07-04T10:27:41Z</time>
      </trkpt>
      <trkpt lat="46.25011408701539" lon="11.85707425698638">
        <ele>2327.9699999999998</ele>
        <time>2017-07-04T10:27:43Z</time>
      </trkpt>
      <trkpt lat="46.250152895227075" lon="11.857159920036793">
        <ele>2328.4499999999998</ele>
        <time>2017-07-04T10:27:52Z</time>
      </trkpt>
      <trkpt lat="46.250151554122567" lon="11.857227645814419">
        <ele>2328.4499999999998</ele>
        <time>2017-07-04T10:28:00Z</time>
      </trkpt>
      <trkpt lat="46.250152895227075" lon="11.857260251417756">
        <ele>2328.9299999999998</ele>
        <time>2017-07-04T10:28:11Z</time>
      </trkpt>
      <trkpt lat="46.250149374827743" lon="11.857292437925935">
        <ele>2328.9299999999998</ele>
        <time>2017-07-04T10:28:23Z</time>
      </trkpt>
      <trkpt lat="46.250177789479494" lon="11.857370054349303">
        <ele>2330.8499999999999</ele>
        <time>2017-07-04T10:28:33Z</time>
      </trkpt>
      <trkpt lat="46.25020737759769" lon="11.85743979178369">
        <ele>2332.3000000000002</ele>
        <time>2017-07-04T10:28:41Z</time>
      </trkpt>
      <trkpt lat="46.250228583812714" lon="11.857506092637777">
        <ele>2333.7399999999998</ele>
        <time>2017-07-04T10:28:50Z</time>
      </trkpt>
      <trkpt lat="46.250209724530578" lon="11.85756241902709">
        <ele>2335.1799999999998</ele>
        <time>2017-07-04T10:29:01Z</time>
      </trkpt>
      <trkpt lat="46.250248616561294" lon="11.857601227238774">
        <ele>2336.6199999999999</ele>
        <time>2017-07-04T10:29:13Z</time>
      </trkpt>
      <trkpt lat="46.250293711200356" lon="11.857646740972996">
        <ele>2338.0599999999999</ele>
        <time>2017-07-04T10:29:23Z</time>
      </trkpt>
      <trkpt lat="46.250341823324561" lon="11.85769778676331">
        <ele>2339.5100000000002</ele>
        <time>2017-07-04T10:29:37Z</time>
      </trkpt>
      <trkpt lat="46.250358335673809" lon="11.857738103717566">
        <ele>2340.4699999999998</ele>
        <time>2017-07-04T10:29:47Z</time>
      </trkpt>
      <trkpt lat="46.250257333740592" lon="11.857769368216395">
        <ele>2342.3899999999999</ele>
        <time>2017-07-04T10:29:58Z</time>
      </trkpt>
      <trkpt lat="46.250294214114547" lon="11.857790322974324">
        <ele>2343.3499999999999</ele>
        <time>2017-07-04T10:30:08Z</time>
      </trkpt>
      <trkpt lat="46.250239480286837" lon="11.857847403734922">
        <ele>2344.79</ele>
        <time>2017-07-04T10:30:20Z</time>
      </trkpt>
      <trkpt lat="46.250289771705866" lon="11.857837764546275">
        <ele>2345.75</ele>
        <time>2017-07-04T10:30:30Z</time>
      </trkpt>
      <trkpt lat="46.250324891880155" lon="11.857864418998361">
        <ele>2346.7199999999998</ele>
        <time>2017-07-04T10:30:41Z</time>
      </trkpt>
      <trkpt lat="46.250347690656781" lon="11.857883613556623">
        <ele>2348.1599999999999</ele>
        <time>2017-07-04T10:30:53Z</time>
      </trkpt>
      <trkpt lat="46.250336626544595" lon="11.857919404283166">
        <ele>2349.5999999999999</ele>
        <time>2017-07-04T10:31:04Z</time>
      </trkpt>
      <trkpt lat="46.250297650694847" lon="11.857989141717553">
        <ele>2351.52</ele>
        <time>2017-07-04T10:31:15Z</time>
      </trkpt>
      <trkpt lat="46.250329501926899" lon="11.858000457286835">
        <ele>2352.48</ele>
        <time>2017-07-04T10:31:27Z</time>
      </trkpt>
      <trkpt lat="46.250351797789335" lon="11.8580402713269">
        <ele>2353.4400000000001</ele>
        <time>2017-07-04T10:31:37Z</time>
      </trkpt>
      <trkpt lat="46.250358000397682" lon="11.858077067881823">
        <ele>2354.4099999999999</ele>
        <time>2017-07-04T10:31:46Z</time>
      </trkpt>
      <trkpt lat="46.250354563817382" lon="11.858106069266796">
        <ele>2354.8899999999999</ele>
        <time>2017-07-04T10:31:56Z</time>
      </trkpt>
      <trkpt lat="46.250324975699186" lon="11.858159797266126">
        <ele>2356.8099999999999</ele>
        <time>2017-07-04T10:32:07Z</time>
      </trkpt>
      <trkpt lat="46.250356659293175" lon="11.858196510002017">
        <ele>2358.25</ele>
        <time>2017-07-04T10:32:19Z</time>
      </trkpt>
      <trkpt lat="46.250358587130904" lon="11.858208999037743">
        <ele>2358.25</ele>
        <time>2017-07-04T10:32:21Z</time>
      </trkpt>
      <trkpt lat="46.250362023711205" lon="11.858239090070128">
        <ele>2358.73</ele>
        <time>2017-07-04T10:32:29Z</time>
      </trkpt>
      <trkpt lat="46.250360850244761" lon="11.858288543298841">
        <ele>2359.6900000000001</ele>
        <time>2017-07-04T10:32:38Z</time>
      </trkpt>
      <trkpt lat="46.250399490818381" lon="11.85830757021904">
        <ele>2361.1399999999999</ele>
        <time>2017-07-04T10:32:47Z</time>
      </trkpt>
      <trkpt lat="46.250369818881154" lon="11.858355514705181">
        <ele>2362.5799999999999</ele>
        <time>2017-07-04T10:32:58Z</time>
      </trkpt>
      <trkpt lat="46.250383481383324" lon="11.85837990604341">
        <ele>2363.54</ele>
        <time>2017-07-04T10:33:09Z</time>
      </trkpt>
      <trkpt lat="46.250407202169299" lon="11.858417373150587">
        <ele>2364.98</ele>
        <time>2017-07-04T10:33:22Z</time>
      </trkpt>
      <trkpt lat="46.250369986519217" lon="11.858474956825376">
        <ele>2366.4200000000001</ele>
        <time>2017-07-04T10:33:31Z</time>
      </trkpt>
      <trkpt lat="46.25041164457798" lon="11.858492223545909">
        <ele>2366.9000000000001</ele>
        <time>2017-07-04T10:33:40Z</time>
      </trkpt>
      <trkpt lat="46.250420697033405" lon="11.858520051464438">
        <ele>2367.8600000000001</ele>
        <time>2017-07-04T10:33:48Z</time>
      </trkpt>
      <trkpt lat="46.250390857458115" lon="11.858558105304837">
        <ele>2369.3099999999999</ele>
        <time>2017-07-04T10:34:01Z</time>
      </trkpt>
      <trkpt lat="46.250395970419049" lon="11.858587777242064">
        <ele>2370.27</ele>
        <time>2017-07-04T10:34:11Z</time>
      </trkpt>
      <trkpt lat="46.250382056459785" lon="11.858636308461428">
        <ele>2371.71</ele>
        <time>2017-07-04T10:34:24Z</time>
      </trkpt>
      <trkpt lat="46.250413404777646" lon="11.858653575181961">
        <ele>2372.6700000000001</ele>
        <time>2017-07-04T10:34:34Z</time>
      </trkpt>
      <trkpt lat="46.250473083928227" lon="11.858657849952579">
        <ele>2373.6300000000001</ele>
        <time>2017-07-04T10:34:46Z</time>
      </trkpt>
      <trkpt lat="46.250501917675138" lon="11.858681067824364">
        <ele>2374.5900000000001</ele>
        <time>2017-07-04T10:34:58Z</time>
      </trkpt>
      <trkpt lat="46.250508120283484" lon="11.858722977340221">
        <ele>2375.5500000000002</ele>
        <time>2017-07-04T10:35:11Z</time>
      </trkpt>
      <trkpt lat="46.250525387004018" lon="11.858732448890805">
        <ele>2376.52</ele>
        <time>2017-07-04T10:35:23Z</time>
      </trkpt>
      <trkpt lat="46.250558160245419" lon="11.858743680641055">
        <ele>2377.48</ele>
        <time>2017-07-04T10:35:30Z</time>
      </trkpt>
      <trkpt lat="46.250588921830058" lon="11.85873999260366">
        <ele>2377.96</ele>
        <time>2017-07-04T10:35:37Z</time>
      </trkpt>
      <trkpt lat="46.25060660764575" lon="11.858745524659753">
        <ele>2378.4400000000001</ele>
        <time>2017-07-04T10:35:45Z</time>
      </trkpt>
      <trkpt lat="46.250607864931226" lon="11.858808221295476">
        <ele>2379.8800000000001</ele>
        <time>2017-07-04T10:35:56Z</time>
      </trkpt>
      <trkpt lat="46.250642733648419" lon="11.858811657875776">
        <ele>2380.8400000000001</ele>
        <time>2017-07-04T10:36:08Z</time>
      </trkpt>
      <trkpt lat="46.250642649829388" lon="11.858836552128196">
        <ele>2381.8000000000002</ele>
        <time>2017-07-04T10:36:17Z</time>
      </trkpt>
      <trkpt lat="46.250671315938234" lon="11.858868822455406">
        <ele>2382.2800000000002</ele>
        <time>2017-07-04T10:36:25Z</time>
      </trkpt>
      <trkpt lat="46.25070484355092" lon="11.858919281512499">
        <ele>2383.25</ele>
        <time>2017-07-04T10:36:31Z</time>
      </trkpt>
      <trkpt lat="46.250738203525543" lon="11.858901092782617">
        <ele>2383.25</ele>
        <time>2017-07-04T10:36:40Z</time>
      </trkpt>
      <trkpt lat="46.250769216567278" lon="11.858903774991632">
        <ele>2383.73</ele>
        <time>2017-07-04T10:36:48Z</time>
      </trkpt>
      <trkpt lat="46.250753710046411" lon="11.858960688114166">
        <ele>2385.1700000000001</ele>
        <time>2017-07-04T10:36:59Z</time>
      </trkpt>
      <trkpt lat="46.250809282064438" lon="11.858947277069092">
        <ele>2386.1300000000001</ele>
        <time>2017-07-04T10:37:09Z</time>
      </trkpt>
      <trkpt lat="46.250838618725538" lon="11.858972841873765">
        <ele>2387.0900000000001</ele>
        <time>2017-07-04T10:37:17Z</time>
      </trkpt>
      <trkpt lat="46.250887149944901" lon="11.859001759439707">
        <ele>2388.0500000000002</ele>
        <time>2017-07-04T10:37:28Z</time>
      </trkpt>
      <trkpt lat="46.250914474949241" lon="11.859018439427018">
        <ele>2389.0100000000002</ele>
        <time>2017-07-04T10:37:39Z</time>
      </trkpt>
      <trkpt lat="46.250956887379289" lon="11.859042579308152">
        <ele>2389.9699999999998</ele>
        <time>2017-07-04T10:37:51Z</time>
      </trkpt>
      <trkpt lat="46.251020170748234" lon="11.85906495898962">
        <ele>2391.9000000000001</ele>
        <time>2017-07-04T10:38:03Z</time>
      </trkpt>
      <trkpt lat="46.251072138547897" lon="11.859088260680437">
        <ele>2392.8600000000001</ele>
        <time>2017-07-04T10:38:14Z</time>
      </trkpt>
      <trkpt lat="46.251035677269101" lon="11.859147604554892">
        <ele>2394.7800000000002</ele>
        <time>2017-07-04T10:38:27Z</time>
      </trkpt>
      <trkpt lat="46.251040538772941" lon="11.859182305634022">
        <ele>2395.7399999999998</ele>
        <time>2017-07-04T10:38:37Z</time>
      </trkpt>
      <trkpt lat="46.25103659927845" lon="11.859229579567909">
        <ele>2396.6999999999998</ele>
        <time>2017-07-04T10:38:47Z</time>
      </trkpt>
      <trkpt lat="46.251052860170603" lon="11.859261011704803">
        <ele>2398.6300000000001</ele>
        <time>2017-07-04T10:39:01Z</time>
      </trkpt>
      <trkpt lat="46.251050010323524" lon="11.859277104958892">
        <ele>2399.1100000000001</ele>
        <time>2017-07-04T10:39:05Z</time>
      </trkpt>
      <trkpt lat="46.251057554036379" lon="11.859278529882431">
        <ele>2399.1100000000001</ele>
        <time>2017-07-04T10:39:13Z</time>
      </trkpt>
      <trkpt lat="46.251074150204659" lon="11.859325971454382">
        <ele>2400.5500000000002</ele>
        <time>2017-07-04T10:39:24Z</time>
      </trkpt>
      <trkpt lat="46.251102481037378" lon="11.859337957575917">
        <ele>2401.9899999999998</ele>
        <time>2017-07-04T10:39:35Z</time>
      </trkpt>
      <trkpt lat="46.251148581504822" lon="11.859349524602294">
        <ele>2403.4299999999998</ele>
        <time>2017-07-04T10:39:45Z</time>
      </trkpt>
      <trkpt lat="46.251154448837042" lon="11.859374083578587">
        <ele>2404.3899999999999</ele>
        <time>2017-07-04T10:39:54Z</time>
      </trkpt>
      <trkpt lat="46.251134751364589" lon="11.859443485736847">
        <ele>2405.8400000000001</ele>
        <time>2017-07-04T10:40:06Z</time>
      </trkpt>
      <trkpt lat="46.251180935651064" lon="11.859472738578916">
        <ele>2407.2800000000002</ele>
        <time>2017-07-04T10:40:19Z</time>
      </trkpt>
      <trkpt lat="46.251230137422681" lon="11.859502242878079">
        <ele>2408.7199999999998</ele>
        <time>2017-07-04T10:40:30Z</time>
      </trkpt>
      <trkpt lat="46.251195017248392" lon="11.859553204849362">
        <ele>2410.1599999999999</ele>
        <time>2017-07-04T10:40:43Z</time>
      </trkpt>
      <trkpt lat="46.251200130209327" lon="11.859587319195271">
        <ele>2412.0900000000001</ele>
        <time>2017-07-04T10:40:54Z</time>
      </trkpt>
      <trkpt lat="46.251217564567924" lon="11.859630737453699">
        <ele>2412.0900000000001</ele>
        <time>2017-07-04T10:41:11Z</time>
      </trkpt>
      <trkpt lat="46.25120859593153" lon="11.859673568978906">
        <ele>2413.5300000000002</ele>
        <time>2017-07-04T10:41:23Z</time>
      </trkpt>
      <trkpt lat="46.251254193484783" lon="11.859724698588252">
        <ele>2415.4499999999998</ele>
        <time>2017-07-04T10:41:35Z</time>
      </trkpt>
      <trkpt lat="46.251235082745552" lon="11.859797704964876">
        <ele>2417.3699999999999</ele>
        <time>2017-07-04T10:41:49Z</time>
      </trkpt>
      <trkpt lat="46.251244302839041" lon="11.859810194000602">
        <ele>2418.8099999999999</ele>
        <time>2017-07-04T10:41:59Z</time>
      </trkpt>
      <trkpt lat="46.25126576051116" lon="11.859851768240333">
        <ele>2419.3000000000002</ele>
        <time>2017-07-04T10:42:11Z</time>
      </trkpt>
      <trkpt lat="46.251233238726854" lon="11.85985897667706">
        <ele>2420.7399999999998</ele>
        <time>2017-07-04T10:42:24Z</time>
      </trkpt>
      <trkpt lat="46.251196777448058" lon="11.859886134043336">
        <ele>2422.1799999999998</ele>
        <time>2017-07-04T10:42:34Z</time>
      </trkpt>
      <trkpt lat="46.251218905672431" lon="11.859957715496421">
        <ele>2423.1399999999999</ele>
        <time>2017-07-04T10:42:43Z</time>
      </trkpt>
      <trkpt lat="46.251240279525518" lon="11.859971880912781">
        <ele>2424.0999999999999</ele>
        <time>2017-07-04T10:42:53Z</time>
      </trkpt>
      <trkpt lat="46.25123935751617" lon="11.860023094341159">
        <ele>2425.0599999999999</ele>
        <time>2017-07-04T10:43:04Z</time>
      </trkpt>
      <trkpt lat="46.251262910664082" lon="11.860072547569871">
        <ele>2426.9899999999998</ele>
        <time>2017-07-04T10:43:13Z</time>
      </trkpt>
      <trkpt lat="46.251301802694798" lon="11.860087299719453">
        <ele>2427.9499999999998</ele>
        <time>2017-07-04T10:43:23Z</time>
      </trkpt>
      <trkpt lat="46.251358799636364" lon="11.860138680785894">
        <ele>2429.3899999999999</ele>
        <time>2017-07-04T10:43:36Z</time>
      </trkpt>
      <trkpt lat="46.251387465745211" lon="11.860167346894741">
        <ele>2430.3499999999999</ele>
        <time>2017-07-04T10:43:46Z</time>
      </trkpt>
      <trkpt lat="46.251440439373255" lon="11.860212357714772">
        <ele>2431.3099999999999</ele>
        <time>2017-07-04T10:43:59Z</time>
      </trkpt>
      <trkpt lat="46.251487880945206" lon="11.860241778194904">
        <ele>2433.23</ele>
        <time>2017-07-04T10:44:15Z</time>
      </trkpt>
      <trkpt lat="46.251516044139862" lon="11.86028259806335">
        <ele>2434.1999999999998</ele>
        <time>2017-07-04T10:44:26Z</time>
      </trkpt>
      <trkpt lat="46.251543369144201" lon="11.860332218930125">
        <ele>2435.1599999999999</ele>
        <time>2017-07-04T10:44:37Z</time>
      </trkpt>
      <trkpt lat="46.251529874280095" lon="11.860392652451992">
        <ele>2436.5999999999999</ele>
        <time>2017-07-04T10:44:48Z</time>
      </trkpt>
      <trkpt lat="46.251575388014317" lon="11.860461216419935">
        <ele>2438.04</ele>
        <time>2017-07-04T10:45:02Z</time>
      </trkpt>
      <trkpt lat="46.251608077436686" lon="11.860526092350483">
        <ele>2439.48</ele>
        <time>2017-07-04T10:45:13Z</time>
      </trkpt>
      <trkpt lat="46.251594834029675" lon="11.860615946352482">
        <ele>2441.4099999999999</ele>
        <time>2017-07-04T10:45:25Z</time>
      </trkpt>
      <trkpt lat="46.251588547602296" lon="11.860652826726437">
        <ele>2442.8499999999999</ele>
        <time>2017-07-04T10:45:34Z</time>
      </trkpt>
      <trkpt lat="46.251525180414319" lon="11.860647043213248">
        <ele>2444.29</ele>
        <time>2017-07-04T10:45:44Z</time>
      </trkpt>
      <trkpt lat="46.251499867066741" lon="11.860696412622929">
        <ele>2445.25</ele>
        <time>2017-07-04T10:45:54Z</time>
      </trkpt>
      <trkpt lat="46.251494502648711" lon="11.860739914700389">
        <ele>2447.1700000000001</ele>
        <time>2017-07-04T10:46:06Z</time>
      </trkpt>
      <trkpt lat="46.25150129199028" lon="11.860785176977515">
        <ele>2447.6500000000001</ele>
        <time>2017-07-04T10:46:18Z</time>
      </trkpt>
      <trkpt lat="46.251545129343867" lon="11.860809233039618">
        <ele>2448.1300000000001</ele>
        <time>2017-07-04T10:46:30Z</time>
      </trkpt>
      <trkpt lat="46.251556612551212" lon="11.86081669293344">
        <ele>2450.0599999999999</ele>
        <time>2017-07-04T10:46:38Z</time>
      </trkpt>
      <trkpt lat="46.251562312245369" lon="11.860861033201218">
        <ele>2452.46</ele>
        <time>2017-07-04T10:46:55Z</time>
      </trkpt>
      <trkpt lat="46.251584189012647" lon="11.860887855291367">
        <ele>2453.9000000000001</ele>
        <time>2017-07-04T10:47:05Z</time>
      </trkpt>
      <trkpt lat="46.251607155427337" lon="11.860890202224255">
        <ele>2454.3800000000001</ele>
        <time>2017-07-04T10:47:19Z</time>
      </trkpt>
      <trkpt lat="46.251610843464732" lon="11.860904954373837">
        <ele>2455.8200000000002</ele>
        <time>2017-07-04T10:47:22Z</time>
      </trkpt>
      <trkpt lat="46.251659961417317" lon="11.8609534855932">
        <ele>2458.23</ele>
        <time>2017-07-04T10:47:35Z</time>
      </trkpt>
      <trkpt lat="46.251691812649369" lon="11.860954826697707">
        <ele>2459.6700000000001</ele>
        <time>2017-07-04T10:47:43Z</time>
      </trkpt>
      <trkpt lat="46.251675048843026" lon="11.860964382067323">
        <ele>2460.6300000000001</ele>
        <time>2017-07-04T10:47:54Z</time>
      </trkpt>
      <trkpt lat="46.251715533435345" lon="11.860991455614567">
        <ele>2461.1100000000001</ele>
        <time>2017-07-04T10:48:05Z</time>
      </trkpt>
      <trkpt lat="46.251733135432005" lon="11.860986845567822">
        <ele>2461.5900000000001</ele>
        <time>2017-07-04T10:48:08Z</time>
      </trkpt>
      <trkpt lat="46.251768842339516" lon="11.860986761748791">
        <ele>2461.5900000000001</ele>
        <time>2017-07-04T10:48:16Z</time>
      </trkpt>
      <trkpt lat="46.251811673864722" lon="11.86108835041523">
        <ele>2462.0700000000002</ele>
        <time>2017-07-04T10:48:27Z</time>
      </trkpt>
      <trkpt lat="46.251861378550529" lon="11.86111081391573">
        <ele>2461.5900000000001</ele>
        <time>2017-07-04T10:48:35Z</time>
      </trkpt>
      <trkpt lat="46.251891469582915" lon="11.861126320436597">
        <ele>2461.1100000000001</ele>
        <time>2017-07-04T10:48:47Z</time>
      </trkpt>
      <trkpt lat="46.252027591690421" lon="11.861187508329749">
        <ele>2460.6300000000001</ele>
        <time>2017-07-04T10:48:59Z</time>
      </trkpt>
      <trkpt lat="46.252081822603941" lon="11.861290941014886">
        <ele>2461.5900000000001</ele>
        <time>2017-07-04T10:49:09Z</time>
      </trkpt>
      <trkpt lat="46.252094730734825" lon="11.86137618497014">
        <ele>2463.52</ele>
        <time>2017-07-04T10:49:18Z</time>
      </trkpt>
      <trkpt lat="46.252129850909114" lon="11.861463356763124">
        <ele>2464.96</ele>
        <time>2017-07-04T10:49:27Z</time>
      </trkpt>
      <trkpt lat="46.252136221155524" lon="11.861474756151438">
        <ele>2464.96</ele>
        <time>2017-07-04T10:49:28Z</time>
      </trkpt>
      <trkpt lat="46.252196570858359" lon="11.861561005935073">
        <ele>2464.96</ele>
        <time>2017-07-04T10:49:37Z</time>
      </trkpt>
      <trkpt lat="46.252226997166872" lon="11.861676508560777">
        <ele>2466.4000000000001</ele>
        <time>2017-07-04T10:49:48Z</time>
      </trkpt>
      <trkpt lat="46.252269661054015" lon="11.861766362562776">
        <ele>2467.3600000000001</ele>
        <time>2017-07-04T10:49:59Z</time>
      </trkpt>
      <trkpt lat="46.252330262213945" lon="11.861825119704008">
        <ele>2468.8000000000002</ele>
        <time>2017-07-04T10:50:12Z</time>
      </trkpt>
      <trkpt lat="46.252348534762859" lon="11.861930396407843">
        <ele>2470.2399999999998</ele>
        <time>2017-07-04T10:50:23Z</time>
      </trkpt>
      <trkpt lat="46.25235197134316" lon="11.86200013384223">
        <ele>2471.6900000000001</ele>
        <time>2017-07-04T10:50:34Z</time>
      </trkpt>
      <trkpt lat="46.252393377944827" lon="11.862050341442227">
        <ele>2472.6500000000001</ele>
        <time>2017-07-04T10:50:44Z</time>
      </trkpt>
      <trkpt lat="46.252409806475043" lon="11.862113205716014">
        <ele>2474.5700000000002</ele>
        <time>2017-07-04T10:50:55Z</time>
      </trkpt>
      <trkpt lat="46.252454314380884" lon="11.862130388617516">
        <ele>2475.5300000000002</ele>
        <time>2017-07-04T10:51:07Z</time>
      </trkpt>
      <trkpt lat="46.252504019066691" lon="11.862139524891973">
        <ele>2476.9699999999998</ele>
        <time>2017-07-04T10:51:18Z</time>
      </trkpt>
      <trkpt lat="46.252570990473032" lon="11.862178836017847">
        <ele>2478.4200000000001</ele>
        <time>2017-07-04T10:51:29Z</time>
      </trkpt>
      <trkpt lat="46.252639219164848" lon="11.862178919836879">
        <ele>2479.3800000000001</ele>
        <time>2017-07-04T10:51:40Z</time>
      </trkpt>
      <trkpt lat="46.252612816169858" lon="11.862261900678277">
        <ele>2481.3000000000002</ele>
        <time>2017-07-04T10:51:52Z</time>
      </trkpt>
      <trkpt lat="46.25265640206635" lon="11.862280340865254">
        <ele>2483.2199999999998</ele>
        <time>2017-07-04T10:52:03Z</time>
      </trkpt>
      <trkpt lat="46.252640057355165" lon="11.862383605912328">
        <ele>2485.1500000000001</ele>
        <time>2017-07-04T10:52:18Z</time>
      </trkpt>
      <trkpt lat="46.252661347389221" lon="11.862418055534363">
        <ele>2486.5900000000001</ele>
        <time>2017-07-04T10:52:26Z</time>
      </trkpt>
      <trkpt lat="46.25269940122962" lon="11.862420486286283">
        <ele>2487.5500000000002</ele>
        <time>2017-07-04T10:52:34Z</time>
      </trkpt>
      <trkpt lat="46.252725217491388" lon="11.862373882904649">
        <ele>2488.5100000000002</ele>
        <time>2017-07-04T10:52:40Z</time>
      </trkpt>
      <trkpt lat="46.252735862508416" lon="11.862372122704983">
        <ele>2488.0300000000002</ele>
        <time>2017-07-04T10:52:41Z</time>
      </trkpt>
      <trkpt lat="46.252747848629951" lon="11.862368267029524">
        <ele>2488.5100000000002</ele>
        <time>2017-07-04T10:52:42Z</time>
      </trkpt>
      <trkpt lat="46.252799145877361" lon="11.862322250381112">
        <ele>2488.9899999999998</ele>
        <time>2017-07-04T10:52:52Z</time>
      </trkpt>
      <trkpt lat="46.252841977402568" lon="11.862314706668258">
        <ele>2489.4699999999998</ele>
        <time>2017-07-04T10:53:01Z</time>
      </trkpt>
      <trkpt lat="46.252849437296391" lon="11.86245359480381">
        <ele>2490.9099999999999</ele>
        <time>2017-07-04T10:53:14Z</time>
      </trkpt>
      <trkpt lat="46.252827392891049" lon="11.862502712756395">
        <ele>2491.8699999999999</ele>
        <time>2017-07-04T10:53:24Z</time>
      </trkpt>
      <trkpt lat="46.252816496416926" lon="11.86256205663085">
        <ele>2493.3200000000002</ele>
        <time>2017-07-04T10:53:35Z</time>
      </trkpt>
      <trkpt lat="46.252839211374521" lon="11.862604385241866">
        <ele>2494.7600000000002</ele>
        <time>2017-07-04T10:53:46Z</time>
      </trkpt>
      <trkpt lat="46.252872068434954" lon="11.862603547051549">
        <ele>2495.7199999999998</ele>
        <time>2017-07-04T10:53:56Z</time>
      </trkpt>
      <trkpt lat="46.252896711230278" lon="11.862667249515653">
        <ele>2496.6799999999998</ele>
        <time>2017-07-04T10:54:04Z</time>
      </trkpt>
      <trkpt lat="46.252935267984867" lon="11.862692395225167">
        <ele>2497.6399999999999</ele>
        <time>2017-07-04T10:54:14Z</time>
      </trkpt>
      <trkpt lat="46.252970974892378" lon="11.862775208428502">
        <ele>2498.1199999999999</ele>
        <time>2017-07-04T10:54:24Z</time>
      </trkpt>
      <trkpt lat="46.252968376502395" lon="11.862855926156044">
        <ele>2500.0500000000002</ele>
        <time>2017-07-04T10:54:37Z</time>
      </trkpt>
      <trkpt lat="46.25299503095448" lon="11.862867828458548">
        <ele>2501.0100000000002</ele>
        <time>2017-07-04T10:54:45Z</time>
      </trkpt>
      <trkpt lat="46.253041382879019" lon="11.862884927541018">
        <ele>2502.9299999999998</ele>
        <time>2017-07-04T10:54:55Z</time>
      </trkpt>
      <trkpt lat="46.253044148907065" lon="11.86295198276639">
        <ele>2503.4099999999999</ele>
        <time>2017-07-04T10:55:04Z</time>
      </trkpt>
      <trkpt lat="46.25303409062326" lon="11.863014427945018">
        <ele>2503.8899999999999</ele>
        <time>2017-07-04T10:55:15Z</time>
      </trkpt>
      <trkpt lat="46.253033084794879" lon="11.863079387694597">
        <ele>2504.8499999999999</ele>
        <time>2017-07-04T10:55:27Z</time>
      </trkpt>
      <trkpt lat="46.253067031502724" lon="11.863091038540006">
        <ele>2506.29</ele>
        <time>2017-07-04T10:55:36Z</time>
      </trkpt>
      <trkpt lat="46.253070551902056" lon="11.863147700205445">
        <ele>2507.7399999999998</ele>
        <time>2017-07-04T10:55:47Z</time>
      </trkpt>
      <trkpt lat="46.253052027896047" lon="11.863135546445847">
        <ele>2508.2199999999998</ele>
        <time>2017-07-04T10:55:54Z</time>
      </trkpt>
      <trkpt lat="46.253073150292039" lon="11.863142922520638">
        <ele>2509.1799999999998</ele>
        <time>2017-07-04T10:56:03Z</time>
      </trkpt>
      <trkpt lat="46.253098798915744" lon="11.863152394071221">
        <ele>2511.0999999999999</ele>
        <time>2017-07-04T10:56:13Z</time>
      </trkpt>
      <trkpt lat="46.25310986302793" lon="11.863154154270887">
        <ele>2511.0999999999999</ele>
        <time>2017-07-04T10:56:14Z</time>
      </trkpt>
      <trkpt lat="46.253155209124088" lon="11.863186676055193">
        <ele>2511.5799999999999</ele>
        <time>2017-07-04T10:56:20Z</time>
      </trkpt>
      <trkpt lat="46.253170045092702" lon="11.863215425983071">
        <ele>2512.0599999999999</ele>
        <time>2017-07-04T10:56:24Z</time>
      </trkpt>
      <trkpt lat="46.253102654591203" lon="11.863266471773386">
        <ele>2513.5</ele>
        <time>2017-07-04T10:56:35Z</time>
      </trkpt>
      <trkpt lat="46.253089075908065" lon="11.863280721008778">
        <ele>2513.98</ele>
        <time>2017-07-04T10:56:44Z</time>
      </trkpt>
      <trkpt lat="46.253024032339454" lon="11.863288599997759">
        <ele>2513.5</ele>
        <time>2017-07-04T10:56:54Z</time>
      </trkpt>
      <trkpt lat="46.253006933256984" lon="11.863291449844837">
        <ele>2513.98</ele>
        <time>2017-07-04T10:56:56Z</time>
      </trkpt>
      <trkpt lat="46.252990337088704" lon="11.863312823697925">
        <ele>2513.5</ele>
        <time>2017-07-04T10:57:00Z</time>
      </trkpt>
      <trkpt lat="46.252951864153147" lon="11.863334951922297">
        <ele>2514.4699999999998</ele>
        <time>2017-07-04T10:57:08Z</time>
      </trkpt>
      <trkpt lat="46.252923868596554" lon="11.863352889195085">
        <ele>2514.9499999999998</ele>
        <time>2017-07-04T10:57:13Z</time>
      </trkpt>
      <trkpt lat="46.252913055941463" lon="11.863360265269876">
        <ele>2515.4299999999998</ele>
        <time>2017-07-04T10:57:14Z</time>
      </trkpt>
      <trkpt lat="46.252876259386539" lon="11.863378537818789">
        <ele>2516.3899999999999</ele>
        <time>2017-07-04T10:57:24Z</time>
      </trkpt>
      <trkpt lat="46.252841809764504" lon="11.863398486748338">
        <ele>2518.3099999999999</ele>
        <time>2017-07-04T10:57:35Z</time>
      </trkpt>
      <trkpt lat="46.252822615206242" lon="11.863391362130642">
        <ele>2519.27</ele>
        <time>2017-07-04T10:57:44Z</time>
      </trkpt>
      <trkpt lat="46.252854969352484" lon="11.863411981612444">
        <ele>2520.23</ele>
        <time>2017-07-04T10:57:53Z</time>
      </trkpt>
      <trkpt lat="46.252885479480028" lon="11.863414077088237">
        <ele>2520.23</ele>
        <time>2017-07-04T10:58:05Z</time>
      </trkpt>
      <trkpt lat="46.252962676808238" lon="11.86342891305685">
        <ele>2520.71</ele>
        <time>2017-07-04T11:00:00Z</time>
      </trkpt>
      <trkpt lat="46.252924706786871" lon="11.863414663821459">
        <ele>2520.23</ele>
        <time>2017-07-04T11:00:20Z</time>
      </trkpt>
      <trkpt lat="46.25297256745398" lon="11.863458417356014">
        <ele>2520.23</ele>
        <time>2017-07-04T11:00:41Z</time>
      </trkpt>
      <trkpt lat="46.252934597432613" lon="11.86344257555902">
        <ele>2520.71</ele>
        <time>2017-07-04T11:00:59Z</time>
      </trkpt>
      <trkpt lat="46.252974662929773" lon="11.863444503396749">
        <ele>2520.71</ele>
        <time>2017-07-04T11:01:21Z</time>
      </trkpt>
      <trkpt lat="46.252996455878019" lon="11.863451544195414">
        <ele>2520.71</ele>
        <time>2017-07-04T11:01:42Z</time>
      </trkpt>
      <trkpt lat="46.253031492233276" lon="11.863454561680555">
        <ele>2520.71</ele>
        <time>2017-07-04T11:02:01Z</time>
      </trkpt>
      <trkpt lat="46.253033000975847" lon="11.86347040347755">
        <ele>2520.71</ele>
        <time>2017-07-04T11:02:16Z</time>
      </trkpt>
      <trkpt lat="46.252970639616251" lon="11.863445928320289">
        <ele>2520.71</ele>
        <time>2017-07-04T11:02:33Z</time>
      </trkpt>
      <trkpt lat="46.252980446442962" lon="11.863456405699253">
        <ele>2520.71</ele>
        <time>2017-07-04T11:02:46Z</time>
      </trkpt>
      <trkpt lat="46.253026966005564" lon="11.863481635227799">
        <ele>2520.23</ele>
        <time>2017-07-04T11:03:01Z</time>
      </trkpt>
      <trkpt lat="46.253038868308067" lon="11.863470319658518">
        <ele>2520.71</ele>
        <time>2017-07-04T11:03:21Z</time>
      </trkpt>
      <trkpt lat="46.253047166392207" lon="11.863460429012775">
        <ele>2521.1900000000001</ele>
        <time>2017-07-04T11:03:33Z</time>
      </trkpt>
      <trkpt lat="46.253009950742126" lon="11.863466715440154">
        <ele>2521.1900000000001</ele>
        <time>2017-07-04T11:03:45Z</time>
      </trkpt>
      <trkpt lat="46.252951277419925" lon="11.863469900563359">
        <ele>2521.1900000000001</ele>
        <time>2017-07-04T11:03:54Z</time>
      </trkpt>
      <trkpt lat="46.252917665988207" lon="11.863464536145329">
        <ele>2521.1900000000001</ele>
        <time>2017-07-04T11:04:05Z</time>
      </trkpt>
      <trkpt lat="46.252917749807239" lon="11.863449029624462">
        <ele>2521.6799999999998</ele>
        <time>2017-07-04T11:04:14Z</time>
      </trkpt>
      <trkpt lat="46.252902578562498" lon="11.863467302173376">
        <ele>2521.6799999999998</ele>
        <time>2017-07-04T11:04:30Z</time>
      </trkpt>
      <trkpt lat="46.252832422032952" lon="11.863435367122293">
        <ele>2521.6799999999998</ele>
        <time>2017-07-04T11:04:47Z</time>
      </trkpt>
      <trkpt lat="46.252896543592215" lon="11.86349923722446">
        <ele>2521.6799999999998</ele>
        <time>2017-07-04T11:05:04Z</time>
      </trkpt>
      <trkpt lat="46.25291439704597" lon="11.863471576943994">
        <ele>2521.6799999999998</ele>
        <time>2017-07-04T11:05:26Z</time>
      </trkpt>
      <trkpt lat="46.252919258549809" lon="11.863461434841156">
        <ele>2521.1900000000001</ele>
        <time>2017-07-04T11:05:44Z</time>
      </trkpt>
      <trkpt lat="46.252901824191213" lon="11.863461267203093">
        <ele>2521.6799999999998</ele>
        <time>2017-07-04T11:05:57Z</time>
      </trkpt>
      <trkpt lat="46.252933675423265" lon="11.863387171179056">
        <ele>2521.6799999999998</ele>
        <time>2017-07-04T11:06:06Z</time>
      </trkpt>
      <trkpt lat="46.252959491685033" lon="11.863363785669208">
        <ele>2521.6799999999998</ele>
        <time>2017-07-04T11:06:15Z</time>
      </trkpt>
      <trkpt lat="46.252953372895718" lon="11.863319696858525">
        <ele>2521.1900000000001</ele>
        <time>2017-07-04T11:06:33Z</time>
      </trkpt>
      <trkpt lat="46.252887155860662" lon="11.863398738205433">
        <ele>2521.6799999999998</ele>
        <time>2017-07-04T11:06:49Z</time>
      </trkpt>
      <trkpt lat="46.252854214981198" lon="11.863431176170707">
        <ele>2524.0799999999999</ele>
        <time>2017-07-04T11:06:57Z</time>
      </trkpt>
      <trkpt lat="46.252801744267344" lon="11.863441402092576">
        <ele>2526.48</ele>
        <time>2017-07-04T11:07:07Z</time>
      </trkpt>
      <trkpt lat="46.2528195977211" lon="11.863448610529304">
        <ele>2526</ele>
        <time>2017-07-04T11:07:16Z</time>
      </trkpt>
      <trkpt lat="46.252874080091715" lon="11.863477947190404">
        <ele>2527.9200000000001</ele>
        <time>2017-07-04T11:07:28Z</time>
      </trkpt>
      <trkpt lat="46.252900147810578" lon="11.863448023796082">
        <ele>2528.4000000000001</ele>
        <time>2017-07-04T11:07:36Z</time>
      </trkpt>
      <trkpt lat="46.252921940758824" lon="11.863455316051841">
        <ele>2528.8899999999999</ele>
        <time>2017-07-04T11:07:44Z</time>
      </trkpt>
      <trkpt lat="46.252978937700391" lon="11.863460764288902">
        <ele>2528.8899999999999</ele>
        <time>2017-07-04T11:07:58Z</time>
      </trkpt>
      <trkpt lat="46.25298815779388" lon="11.863499404862523">
        <ele>2529.8499999999999</ele>
        <time>2017-07-04T11:08:06Z</time>
      </trkpt>
      <trkpt lat="46.253013219684362" lon="11.863507954403758">
        <ele>2530.8099999999999</ele>
        <time>2017-07-04T11:08:15Z</time>
      </trkpt>
      <trkpt lat="46.253013052046299" lon="11.863506445661187">
        <ele>2530.8099999999999</ele>
        <time>2017-07-04T11:08:28Z</time>
      </trkpt>
      <trkpt lat="46.253042556345463" lon="11.86353150755167">
        <ele>2532.25</ele>
        <time>2017-07-04T11:08:39Z</time>
      </trkpt>
      <trkpt lat="46.253014309331775" lon="11.863566711544991">
        <ele>2532.73</ele>
        <time>2017-07-04T11:08:52Z</time>
      </trkpt>
      <trkpt lat="46.253025541082025" lon="11.863582469522953">
        <ele>2534.6500000000001</ele>
        <time>2017-07-04T11:09:04Z</time>
      </trkpt>
      <trkpt lat="46.252992432564497" lon="11.863554054871202">
        <ele>2536.0999999999999</ele>
        <time>2017-07-04T11:09:18Z</time>
      </trkpt>
      <trkpt lat="46.252995701506734" lon="11.863547516986728">
        <ele>2537.0599999999999</ele>
        <time>2017-07-04T11:09:27Z</time>
      </trkpt>
      <trkpt lat="46.252944739535451" lon="11.863575177267194">
        <ele>2538.02</ele>
        <time>2017-07-04T11:09:40Z</time>
      </trkpt>
      <trkpt lat="46.252945242449641" lon="11.863611219450831">
        <ele>2538.98</ele>
        <time>2017-07-04T11:09:50Z</time>
      </trkpt>
      <trkpt lat="46.252916324883699" lon="11.863591438159347">
        <ele>2539.46</ele>
        <time>2017-07-04T11:10:07Z</time>
      </trkpt>
      <trkpt lat="46.252933340147138" lon="11.863595377653837">
        <ele>2539.46</ele>
        <time>2017-07-04T11:10:23Z</time>
      </trkpt>
      <trkpt lat="46.25289486721158" lon="11.863634185865521">
        <ele>2542.3400000000001</ele>
        <time>2017-07-04T11:10:35Z</time>
      </trkpt>
      <trkpt lat="46.252795625478029" lon="11.86363753862679">
        <ele>2543.3099999999999</ele>
        <time>2017-07-04T11:10:44Z</time>
      </trkpt>
      <trkpt lat="46.252803336828947" lon="11.863656817004085">
        <ele>2543.79</ele>
        <time>2017-07-04T11:10:53Z</time>
      </trkpt>
      <trkpt lat="46.252769473940134" lon="11.863634185865521">
        <ele>2543.79</ele>
        <time>2017-07-04T11:11:07Z</time>
      </trkpt>
      <trkpt lat="46.252764025703073" lon="11.863638712093234">
        <ele>2544.27</ele>
        <time>2017-07-04T11:11:18Z</time>
      </trkpt>
      <trkpt lat="46.252749273553491" lon="11.863663187250495">
        <ele>2545.71</ele>
        <time>2017-07-04T11:11:28Z</time>
      </trkpt>
      <trkpt lat="46.252747597172856" lon="11.863683806732297">
        <ele>2548.1100000000001</ele>
        <time>2017-07-04T11:11:38Z</time>
      </trkpt>
      <trkpt lat="46.252810880541801" lon="11.863643238320947">
        <ele>2549.0700000000002</ele>
        <time>2017-07-04T11:11:47Z</time>
      </trkpt>
      <trkpt lat="46.252845162525773" lon="11.863629072904587">
        <ele>2549.5500000000002</ele>
        <time>2017-07-04T11:11:56Z</time>
      </trkpt>
      <trkpt lat="46.252920934930444" lon="11.863626139238477">
        <ele>2549.0700000000002</ele>
        <time>2017-07-04T11:12:09Z</time>
      </trkpt>
      <trkpt lat="46.252956725656986" lon="11.863601580262184">
        <ele>2549.5500000000002</ele>
        <time>2017-07-04T11:12:17Z</time>
      </trkpt>
      <trkpt lat="46.252995198592544" lon="11.863586157560349">
        <ele>2550.0300000000002</ele>
        <time>2017-07-04T11:12:27Z</time>
      </trkpt>
      <trkpt lat="46.253003915771842" lon="11.863601328805089">
        <ele>2550.5100000000002</ele>
        <time>2017-07-04T11:12:39Z</time>
      </trkpt>
      <trkpt lat="46.252999724820256" lon="11.863590432330966">
        <ele>2550.5100000000002</ele>
        <time>2017-07-04T11:12:51Z</time>
      </trkpt>
      <trkpt lat="46.252962509170175" lon="11.863546762615442">
        <ele>2550.5100000000002</ele>
        <time>2017-07-04T11:13:11Z</time>
      </trkpt>
      <trkpt lat="46.253028139472008" lon="11.863536452874541">
        <ele>2551</ele>
        <time>2017-07-04T11:13:24Z</time>
      </trkpt>
      <trkpt lat="46.253098715096712" lon="11.863562185317278">
        <ele>2552.4400000000001</ele>
        <time>2017-07-04T11:13:38Z</time>
      </trkpt>
      <trkpt lat="46.253003999590874" lon="11.863596383482218">
        <ele>2552.4400000000001</ele>
        <time>2017-07-04T11:13:50Z</time>
      </trkpt>
      <trkpt lat="46.252944068983197" lon="11.86366394162178">
        <ele>2552.9200000000001</ele>
        <time>2017-07-04T11:14:09Z</time>
      </trkpt>
      <trkpt lat="46.252885395660996" lon="11.863687662407756">
        <ele>2554.8400000000001</ele>
        <time>2017-07-04T11:14:24Z</time>
      </trkpt>
      <trkpt lat="46.252841306850314" lon="11.86374600045383">
        <ele>2555.3200000000002</ele>
        <time>2017-07-04T11:14:39Z</time>
      </trkpt>
      <trkpt lat="46.252851616591215" lon="11.863735103979707">
        <ele>2556.2800000000002</ele>
        <time>2017-07-04T11:14:55Z</time>
      </trkpt>
      <trkpt lat="46.252826722338796" lon="11.863779611885548">
        <ele>2557.73</ele>
        <time>2017-07-04T11:15:06Z</time>
      </trkpt>
      <trkpt lat="46.252842815592885" lon="11.863773157820106">
        <ele>2558.21</ele>
        <time>2017-07-04T11:15:23Z</time>
      </trkpt>
      <trkpt lat="46.252840217202902" lon="11.863789753988385">
        <ele>2560.1300000000001</ele>
        <time>2017-07-04T11:15:35Z</time>
      </trkpt>
      <trkpt lat="46.252817502245307" lon="11.863795118406415">
        <ele>2561.0900000000001</ele>
        <time>2017-07-04T11:15:46Z</time>
      </trkpt>
      <trkpt lat="46.252807360142469" lon="11.863832334056497">
        <ele>2562.5300000000002</ele>
        <time>2017-07-04T11:15:55Z</time>
      </trkpt>
      <trkpt lat="46.252800654619932" lon="11.863847756758332">
        <ele>2563.4899999999998</ele>
        <time>2017-07-04T11:16:07Z</time>
      </trkpt>
      <trkpt lat="46.252781543880701" lon="11.863831160590053">
        <ele>2563.4899999999998</ele>
        <time>2017-07-04T11:16:19Z</time>
      </trkpt>
      <trkpt lat="46.252775257453322" lon="11.863842308521271">
        <ele>2564.4499999999998</ele>
        <time>2017-07-04T11:16:30Z</time>
      </trkpt>
      <trkpt lat="46.252760337665677" lon="11.863867873325944">
        <ele>2566.3800000000001</ele>
        <time>2017-07-04T11:16:40Z</time>
      </trkpt>
      <trkpt lat="46.252761678770185" lon="11.863834261894226">
        <ele>2567.3400000000001</ele>
        <time>2017-07-04T11:16:52Z</time>
      </trkpt>
      <trkpt lat="46.252756230533123" lon="11.863841973245144">
        <ele>2567.8200000000002</ele>
        <time>2017-07-04T11:17:00Z</time>
      </trkpt>
      <trkpt lat="46.252788081765175" lon="11.863841051235795">
        <ele>2568.3000000000002</ele>
        <time>2017-07-04T11:17:09Z</time>
      </trkpt>
      <trkpt lat="46.252794619649649" lon="11.863851612433791">
        <ele>2569.2600000000002</ele>
        <time>2017-07-04T11:17:22Z</time>
      </trkpt>
      <trkpt lat="46.252788165584207" lon="11.863858569413424">
        <ele>2569.2600000000002</ele>
        <time>2017-07-04T11:17:39Z</time>
      </trkpt>
      <trkpt lat="46.25281079672277" lon="11.863855132833123">
        <ele>2571.1799999999998</ele>
        <time>2017-07-04T11:17:51Z</time>
      </trkpt>
      <trkpt lat="46.252842480316758" lon="11.863853624090552">
        <ele>2569.2600000000002</ele>
        <time>2017-07-04T11:18:01Z</time>
      </trkpt>
      <trkpt lat="46.25284356996417" lon="11.863881954923272">
        <ele>2570.2199999999998</ele>
        <time>2017-07-04T11:18:13Z</time>
      </trkpt>
      <trkpt lat="46.252842145040631" lon="11.863892264664173">
        <ele>2570.6999999999998</ele>
        <time>2017-07-04T11:18:23Z</time>
      </trkpt>
      <trkpt lat="46.252852957695723" lon="11.863881535828114">
        <ele>2571.1799999999998</ele>
        <time>2017-07-04T11:18:39Z</time>
      </trkpt>
      <trkpt lat="46.25282010063529" lon="11.863915231078863">
        <ele>2572.6300000000001</ele>
        <time>2017-07-04T11:18:50Z</time>
      </trkpt>
      <trkpt lat="46.25280543230474" lon="11.863948591053486">
        <ele>2574.5500000000002</ele>
        <time>2017-07-04T11:19:02Z</time>
      </trkpt>
      <trkpt lat="46.252786321565509" lon="11.863979520276189">
        <ele>2577.4299999999998</ele>
        <time>2017-07-04T11:19:12Z</time>
      </trkpt>
      <trkpt lat="46.252769725397229" lon="11.864011455327272">
        <ele>2577.4299999999998</ele>
        <time>2017-07-04T11:19:21Z</time>
      </trkpt>
      <trkpt lat="46.252798894420266" lon="11.864026039838791">
        <ele>2578.8699999999999</ele>
        <time>2017-07-04T11:19:30Z</time>
      </trkpt>
      <trkpt lat="46.2527746707201" lon="11.864049844443798">
        <ele>2579.8400000000001</ele>
        <time>2017-07-04T11:19:40Z</time>
      </trkpt>
      <trkpt lat="46.252770479768515" lon="11.86408462934196">
        <ele>2581.7600000000002</ele>
        <time>2017-07-04T11:19:53Z</time>
      </trkpt>
      <trkpt lat="46.252763019874692" lon="11.864114971831441">
        <ele>2582.7199999999998</ele>
        <time>2017-07-04T11:20:03Z</time>
      </trkpt>
      <trkpt lat="46.252782884985209" lon="11.86413349583745">
        <ele>2584.1599999999999</ele>
        <time>2017-07-04T11:20:14Z</time>
      </trkpt>
      <trkpt lat="46.252806270495057" lon="11.86415352858603">
        <ele>2584.6399999999999</ele>
        <time>2017-07-04T11:20:24Z</time>
      </trkpt>
      <trkpt lat="46.252776850014925" lon="11.864173309877515">
        <ele>2586.0799999999999</ele>
        <time>2017-07-04T11:20:35Z</time>
      </trkpt>
      <trkpt lat="46.252779448404908" lon="11.864194013178349">
        <ele>2587.04</ele>
        <time>2017-07-04T11:20:42Z</time>
      </trkpt>
      <trkpt lat="46.252823621034622" lon="11.86419946141541">
        <ele>2587.5300000000002</ele>
        <time>2017-07-04T11:20:50Z</time>
      </trkpt>
      <trkpt lat="46.252832924947143" lon="11.86426886357367">
        <ele>2588.4899999999998</ele>
        <time>2017-07-04T11:20:59Z</time>
      </trkpt>
      <trkpt lat="46.252858238294721" lon="11.864330554381013">
        <ele>2589.4499999999998</ele>
        <time>2017-07-04T11:21:09Z</time>
      </trkpt>
      <trkpt lat="46.252828985452652" lon="11.864395597949624">
        <ele>2589.4499999999998</ele>
        <time>2017-07-04T11:21:26Z</time>
      </trkpt>
      <trkpt lat="46.252821441739798" lon="11.864450667053461">
        <ele>2590.8899999999999</ele>
        <time>2017-07-04T11:21:36Z</time>
      </trkpt>
      <trkpt lat="46.252839043736458" lon="11.864517303183675">
        <ele>2591.8499999999999</ele>
        <time>2017-07-04T11:21:46Z</time>
      </trkpt>
      <trkpt lat="46.252862177789211" lon="11.864547478035092">
        <ele>2593.29</ele>
        <time>2017-07-04T11:21:57Z</time>
      </trkpt>
      <trkpt lat="46.252855556085706" lon="11.864581760019064">
        <ele>2593.29</ele>
        <time>2017-07-04T11:22:08Z</time>
      </trkpt>
      <trkpt lat="46.252852454781532" lon="11.864600367844105">
        <ele>2594.25</ele>
        <time>2017-07-04T11:22:20Z</time>
      </trkpt>
      <trkpt lat="46.252831416204572" lon="11.864574970677495">
        <ele>2595.6999999999998</ele>
        <time>2017-07-04T11:22:30Z</time>
      </trkpt>
      <trkpt lat="46.252805097028613" lon="11.864543789997697">
        <ele>2596.6599999999999</ele>
        <time>2017-07-04T11:22:40Z</time>
      </trkpt>
      <trkpt lat="46.252802414819598" lon="11.864554351195693">
        <ele>2598.0999999999999</ele>
        <time>2017-07-04T11:22:47Z</time>
      </trkpt>
      <trkpt lat="46.252783304080367" lon="11.864519650116563">
        <ele>2598.0999999999999</ele>
        <time>2017-07-04T11:22:56Z</time>
      </trkpt>
      <trkpt lat="46.252766875550151" lon="11.86451805755496">
        <ele>2598.5799999999999</ele>
        <time>2017-07-04T11:23:09Z</time>
      </trkpt>
      <trkpt lat="46.252739047631621" lon="11.864510430023074">
        <ele>2599.54</ele>
        <time>2017-07-04T11:23:24Z</time>
      </trkpt>
      <trkpt lat="46.252698227763176" lon="11.86448629014194">
        <ele>2600.5</ele>
        <time>2017-07-04T11:23:34Z</time>
      </trkpt>
      <trkpt lat="46.252699233591557" lon="11.864485200494528">
        <ele>2600.98</ele>
        <time>2017-07-04T11:23:45Z</time>
      </trkpt>
      <trkpt lat="46.252689259126782" lon="11.86449509114027">
        <ele>2602.9099999999999</ele>
        <time>2017-07-04T11:23:57Z</time>
      </trkpt>
      <trkpt lat="46.252723541110754" lon="11.864521661773324">
        <ele>2603.8699999999999</ele>
        <time>2017-07-04T11:24:08Z</time>
      </trkpt>
      <trkpt lat="46.252734437584877" lon="11.864542197436094">
        <ele>2604.8299999999999</ele>
        <time>2017-07-04T11:24:18Z</time>
      </trkpt>
      <trkpt lat="46.252738209441304" lon="11.864580251276493">
        <ele>2606.27</ele>
        <time>2017-07-04T11:24:28Z</time>
      </trkpt>
      <trkpt lat="46.252715494483709" lon="11.864648396149278">
        <ele>2607.23</ele>
        <time>2017-07-04T11:24:37Z</time>
      </trkpt>
      <trkpt lat="46.252657324075699" lon="11.864667003974319">
        <ele>2607.71</ele>
        <time>2017-07-04T11:24:46Z</time>
      </trkpt>
      <trkpt lat="46.252596471458673" lon="11.86468611471355">
        <ele>2607.71</ele>
        <time>2017-07-04T11:24:57Z</time>
      </trkpt>
      <trkpt lat="46.252565206959844" lon="11.864722827449441">
        <ele>2608.6700000000001</ele>
        <time>2017-07-04T11:25:08Z</time>
      </trkpt>
      <trkpt lat="46.252537714317441" lon="11.864732885733247">
        <ele>2609.6399999999999</ele>
        <time>2017-07-04T11:25:19Z</time>
      </trkpt>
      <trkpt lat="46.252535367384553" lon="11.864745290949941">
        <ele>2610.1199999999999</ele>
        <time>2017-07-04T11:25:28Z</time>
      </trkpt>
      <trkpt lat="46.252537462860346" lon="11.864776555448771">
        <ele>2611.5599999999999</ele>
        <time>2017-07-04T11:25:38Z</time>
      </trkpt>
      <trkpt lat="46.252503683790565" lon="11.864785188809037">
        <ele>2613</ele>
        <time>2017-07-04T11:25:49Z</time>
      </trkpt>
      <trkpt lat="46.252506701275706" lon="11.864774795249104">
        <ele>2614.4400000000001</ele>
        <time>2017-07-04T11:26:02Z</time>
      </trkpt>
      <trkpt lat="46.25253084115684" lon="11.864841431379318">
        <ele>2615.8800000000001</ele>
        <time>2017-07-04T11:26:13Z</time>
      </trkpt>
      <trkpt lat="46.252489266917109" lon="11.864904882386327">
        <ele>2617.3299999999999</ele>
        <time>2017-07-04T11:26:25Z</time>
      </trkpt>
      <trkpt lat="46.25243310816586" lon="11.864900188520551">
        <ele>2619.25</ele>
        <time>2017-07-04T11:26:34Z</time>
      </trkpt>
      <trkpt lat="46.252402262762189" lon="11.864944444969296">
        <ele>2620.21</ele>
        <time>2017-07-04T11:26:45Z</time>
      </trkpt>
      <trkpt lat="46.252393797039986" lon="11.864919047802687">
        <ele>2619.73</ele>
        <time>2017-07-04T11:26:57Z</time>
      </trkpt>
      <trkpt lat="46.252393126487732" lon="11.864953581243753">
        <ele>2619.73</ele>
        <time>2017-07-04T11:27:14Z</time>
      </trkpt>
      <trkpt lat="46.252334369346499" lon="11.86500571668148">
        <ele>2620.21</ele>
        <time>2017-07-04T11:27:24Z</time>
      </trkpt>
      <trkpt lat="46.25230310484767" lon="11.865016696974635">
        <ele>2619.73</ele>
        <time>2017-07-04T11:27:34Z</time>
      </trkpt>
      <trkpt lat="46.252299416810274" lon="11.865010745823383">
        <ele>2619.73</ele>
        <time>2017-07-04T11:27:46Z</time>
      </trkpt>
      <trkpt lat="46.252260524779558" lon="11.865021390840411">
        <ele>2620.21</ele>
        <time>2017-07-04T11:28:00Z</time>
      </trkpt>
      <trkpt lat="46.252222219482064" lon="11.86503354460001">
        <ele>2619.25</ele>
        <time>2017-07-04T11:28:09Z</time>
      </trkpt>
      <trkpt lat="46.252194307744503" lon="11.865049386397004">
        <ele>2619.73</ele>
        <time>2017-07-04T11:28:18Z</time>
      </trkpt>
      <trkpt lat="46.252194894477725" lon="11.865130104124546">
        <ele>2621.1700000000001</ele>
        <time>2017-07-04T11:28:29Z</time>
      </trkpt>
      <trkpt lat="46.252172263339162" lon="11.865196069702506">
        <ele>2622.6100000000001</ele>
        <time>2017-07-04T11:28:41Z</time>
      </trkpt>
      <trkpt lat="46.252165893092752" lon="11.865204451605678">
        <ele>2623.0900000000001</ele>
        <time>2017-07-04T11:28:53Z</time>
      </trkpt>
      <trkpt lat="46.252145692706108" lon="11.865246780216694">
        <ele>2624.0599999999999</ele>
        <time>2017-07-04T11:29:04Z</time>
      </trkpt>
      <trkpt lat="46.252118535339832" lon="11.865246361121535">
        <ele>2625.98</ele>
        <time>2017-07-04T11:29:14Z</time>
      </trkpt>
      <trkpt lat="46.25210965052247" lon="11.865241164341569">
        <ele>2625.98</ele>
        <time>2017-07-04T11:29:16Z</time>
      </trkpt>
      <trkpt lat="46.252088863402605" lon="11.865266310051084">
        <ele>2627.4200000000001</ele>
        <time>2017-07-04T11:29:25Z</time>
      </trkpt>
      <trkpt lat="46.252048881724477" lon="11.865240326151252">
        <ele>2628.3800000000001</ele>
        <time>2017-07-04T11:29:36Z</time>
      </trkpt>
      <trkpt lat="46.252033291384578" lon="11.865248791873455">
        <ele>2629.8200000000002</ele>
        <time>2017-07-04T11:29:46Z</time>
      </trkpt>
      <trkpt lat="46.252021053805947" lon="11.865290785208344">
        <ele>2631.27</ele>
        <time>2017-07-04T11:29:56Z</time>
      </trkpt>
      <trkpt lat="46.252004457637668" lon="11.865268656983972">
        <ele>2632.71</ele>
        <time>2017-07-04T11:30:09Z</time>
      </trkpt>
      <trkpt lat="46.251994986087084" lon="11.865279050543904">
        <ele>2632.71</ele>
        <time>2017-07-04T11:30:27Z</time>
      </trkpt>
      <trkpt lat="46.251968666911125" lon="11.865258682519197">
        <ele>2633.1900000000001</ele>
        <time>2017-07-04T11:30:51Z</time>
      </trkpt>
      <trkpt lat="46.251948801800609" lon="11.865268489345908">
        <ele>2633.6700000000001</ele>
        <time>2017-07-04T11:31:04Z</time>
      </trkpt>
      <trkpt lat="46.251929858699441" lon="11.865246025845408">
        <ele>2633.6700000000001</ele>
        <time>2017-07-04T11:31:23Z</time>
      </trkpt>
      <trkpt lat="46.251903958618641" lon="11.865232279524207">
        <ele>2636.0700000000002</ele>
        <time>2017-07-04T11:31:36Z</time>
      </trkpt>
      <trkpt lat="46.251901611685753" lon="11.865195985883474">
        <ele>2637.0300000000002</ele>
        <time>2017-07-04T11:31:46Z</time>
      </trkpt>
      <trkpt lat="46.251893313601613" lon="11.865192716941237">
        <ele>2637.0300000000002</ele>
        <time>2017-07-04T11:31:57Z</time>
      </trkpt>
      <trkpt lat="46.251881830394268" lon="11.865189531818032">
        <ele>2637.5100000000002</ele>
        <time>2017-07-04T11:32:09Z</time>
      </trkpt>
      <trkpt lat="46.251874957233667" lon="11.86518358066678">
        <ele>2637.9899999999998</ele>
        <time>2017-07-04T11:32:23Z</time>
      </trkpt>
      <trkpt lat="46.251870347186923" lon="11.86517964117229">
        <ele>2638.96</ele>
        <time>2017-07-04T11:32:37Z</time>
      </trkpt>
      <trkpt lat="46.251881495118141" lon="11.865161368623376">
        <ele>2638.96</ele>
        <time>2017-07-04T11:32:53Z</time>
      </trkpt>
      <trkpt lat="46.251874873414636" lon="11.865155920386314">
        <ele>2638.96</ele>
        <time>2017-07-04T11:33:04Z</time>
      </trkpt>
      <trkpt lat="46.251876968890429" lon="11.865167235955596">
        <ele>2638.96</ele>
        <time>2017-07-04T11:33:23Z</time>
      </trkpt>
      <trkpt lat="46.251841010525823" lon="11.865139491856098">
        <ele>2639.9200000000001</ele>
        <time>2017-07-04T11:33:32Z</time>
      </trkpt>
      <trkpt lat="46.251832125708461" lon="11.86517377384007">
        <ele>2641.3600000000001</ele>
        <time>2017-07-04T11:33:44Z</time>
      </trkpt>
      <trkpt lat="46.25183304771781" lon="11.865207888185978">
        <ele>2643.2800000000002</ele>
        <time>2017-07-04T11:33:55Z</time>
      </trkpt>
      <trkpt lat="46.251827348023653" lon="11.865206966176629">
        <ele>2643.7600000000002</ele>
        <time>2017-07-04T11:34:11Z</time>
      </trkpt>
      <trkpt lat="46.251820726320148" lon="11.865204032510519">
        <ele>2643.7600000000002</ele>
        <time>2017-07-04T11:34:30Z</time>
      </trkpt>
      <trkpt lat="46.251808069646358" lon="11.865253401920199">
        <ele>2644.7199999999998</ele>
        <time>2017-07-04T11:34:41Z</time>
      </trkpt>
      <trkpt lat="46.251814942806959" lon="11.865240661427379">
        <ele>2645.6900000000001</ele>
        <time>2017-07-04T11:34:53Z</time>
      </trkpt>
      <trkpt lat="46.251810165122151" lon="11.86524661257863">
        <ele>2646.1700000000001</ele>
        <time>2017-07-04T11:35:08Z</time>
      </trkpt>
      <trkpt lat="46.251807902008295" lon="11.865248959511518">
        <ele>2647.1300000000001</ele>
        <time>2017-07-04T11:35:16Z</time>
      </trkpt>
      <trkpt lat="46.251809997484088" lon="11.865284079685807">
        <ele>2648.5700000000002</ele>
        <time>2017-07-04T11:35:25Z</time>
      </trkpt>
      <trkpt lat="46.251797759905457" lon="11.865289947018027">
        <ele>2648.5700000000002</ele>
        <time>2017-07-04T11:35:37Z</time>
      </trkpt>
      <trkpt lat="46.251800609752536" lon="11.865313164889812">
        <ele>2648.0900000000001</ele>
        <time>2017-07-04T11:35:54Z</time>
      </trkpt>
      <trkpt lat="46.251806309446692" lon="11.865371251478791">
        <ele>2651.4499999999998</ele>
        <time>2017-07-04T11:36:03Z</time>
      </trkpt>
      <trkpt lat="46.251761466264725" lon="11.865347027778625">
        <ele>2653.3800000000001</ele>
        <time>2017-07-04T11:36:14Z</time>
      </trkpt>
      <trkpt lat="46.251730620861053" lon="11.865296317264438">
        <ele>2655.3000000000002</ele>
        <time>2017-07-04T11:36:26Z</time>
      </trkpt>
      <trkpt lat="46.251712515950203" lon="11.86520361341536">
        <ele>2655.3000000000002</ele>
        <time>2017-07-04T11:36:37Z</time>
      </trkpt>
      <trkpt lat="46.251688040792942" lon="11.865201182663441">
        <ele>2656.2600000000002</ele>
        <time>2017-07-04T11:36:47Z</time>
      </trkpt>
      <trkpt lat="46.251679407432675" lon="11.865165224298835">
        <ele>2656.7399999999998</ele>
        <time>2017-07-04T11:36:52Z</time>
      </trkpt>
      <trkpt lat="46.251662308350205" lon="11.86508777551353">
        <ele>2657.6999999999998</ele>
        <time>2017-07-04T11:37:02Z</time>
      </trkpt>
      <trkpt lat="46.251659961417317" lon="11.865048799663782">
        <ele>2658.1799999999998</ele>
        <time>2017-07-04T11:37:13Z</time>
      </trkpt>
      <trkpt lat="46.25165518373251" lon="11.865026084706187">
        <ele>2659.1399999999999</ele>
        <time>2017-07-04T11:37:22Z</time>
      </trkpt>
      <trkpt lat="46.251654680818319" lon="11.864994736388326">
        <ele>2659.1399999999999</ele>
        <time>2017-07-04T11:37:41Z</time>
      </trkpt>
      <trkpt lat="46.251643616706133" lon="11.864943355321884">
        <ele>2661.0700000000002</ele>
        <time>2017-07-04T11:37:51Z</time>
      </trkpt>
      <trkpt lat="46.251625092700124" lon="11.864919885993004">
        <ele>2662.0300000000002</ele>
        <time>2017-07-04T11:37:59Z</time>
      </trkpt>
      <trkpt lat="46.251603215932846" lon="11.864884765818715">
        <ele>2663.4699999999998</ele>
        <time>2017-07-04T11:38:09Z</time>
      </trkpt>
      <trkpt lat="46.25158972106874" lon="11.864805305376649">
        <ele>2663.4699999999998</ele>
        <time>2017-07-04T11:38:18Z</time>
      </trkpt>
      <trkpt lat="46.251575807109475" lon="11.864758282899857">
        <ele>2664.4299999999998</ele>
        <time>2017-07-04T11:38:28Z</time>
      </trkpt>
      <trkpt lat="46.25157019123435" lon="11.864701872691512">
        <ele>2665.3899999999999</ele>
        <time>2017-07-04T11:38:41Z</time>
      </trkpt>
      <trkpt lat="46.251547476276755" lon="11.864654934033751">
        <ele>2666.3499999999999</ele>
        <time>2017-07-04T11:38:50Z</time>
      </trkpt>
      <trkpt lat="46.251552002504468" lon="11.864665830507874">
        <ele>2666.3499999999999</ele>
        <time>2017-07-04T11:39:03Z</time>
      </trkpt>
      <trkpt lat="46.251549739390612" lon="11.864658957347274">
        <ele>2666.8299999999999</ele>
        <time>2017-07-04T11:39:25Z</time>
      </trkpt>
      <trkpt lat="46.251531885936856" lon="11.864603469148278">
        <ele>2668.2800000000002</ele>
        <time>2017-07-04T11:39:35Z</time>
      </trkpt>
      <trkpt lat="46.251475643366575" lon="11.864583352580667">
        <ele>2670.6799999999998</ele>
        <time>2017-07-04T11:39:46Z</time>
      </trkpt>
      <trkpt lat="46.251491652801633" lon="11.864521577954292">
        <ele>2671.6399999999999</ele>
        <time>2017-07-04T11:39:54Z</time>
      </trkpt>
      <trkpt lat="46.251474805176258" lon="11.864474806934595">
        <ele>2673.0799999999999</ele>
        <time>2017-07-04T11:40:05Z</time>
      </trkpt>
      <trkpt lat="46.251457957550883" lon="11.864440441131592">
        <ele>2674.04</ele>
        <time>2017-07-04T11:40:15Z</time>
      </trkpt>
      <trkpt lat="46.251454101875424" lon="11.864459719508886">
        <ele>2674.04</ele>
        <time>2017-07-04T11:40:22Z</time>
      </trkpt>
      <trkpt lat="46.25141772441566" lon="11.864349329844117">
        <ele>2674.52</ele>
        <time>2017-07-04T11:40:32Z</time>
      </trkpt>
      <trkpt lat="46.251405067741871" lon="11.86422192491591">
        <ele>2675.0100000000002</ele>
        <time>2017-07-04T11:40:43Z</time>
      </trkpt>
      <trkpt lat="46.25137229450047" lon="11.864151181653142">
        <ele>2675.4899999999998</ele>
        <time>2017-07-04T11:40:53Z</time>
      </trkpt>
      <trkpt lat="46.25135712325573" lon="11.864165514707565">
        <ele>2675.4899999999998</ele>
        <time>2017-07-04T11:41:04Z</time>
      </trkpt>
      <trkpt lat="46.251320913434029" lon="11.86418772675097">
        <ele>2676.9299999999998</ele>
        <time>2017-07-04T11:41:15Z</time>
      </trkpt>
      <trkpt lat="46.251292750239372" lon="11.864200215786695">
        <ele>2678.3699999999999</ele>
        <time>2017-07-04T11:41:26Z</time>
      </trkpt>
      <trkpt lat="46.251282608136535" lon="11.864223014563322">
        <ele>2678.8499999999999</ele>
        <time>2017-07-04T11:41:37Z</time>
      </trkpt>
      <trkpt lat="46.251276824623346" lon="11.864257631823421">
        <ele>2680.77</ele>
        <time>2017-07-04T11:41:52Z</time>
      </trkpt>
      <trkpt lat="46.251268275082111" lon="11.864275988191366">
        <ele>2681.73</ele>
        <time>2017-07-04T11:42:02Z</time>
      </trkpt>
      <trkpt lat="46.251248074695468" lon="11.864276574924588">
        <ele>2682.6999999999998</ele>
        <time>2017-07-04T11:42:16Z</time>
      </trkpt>
      <trkpt lat="46.251233490183949" lon="11.864302223548293">
        <ele>2683.1799999999998</ele>
        <time>2017-07-04T11:42:25Z</time>
      </trkpt>
      <trkpt lat="46.251241536810994" lon="11.864345390349627">
        <ele>2685.0999999999999</ele>
        <time>2017-07-04T11:42:37Z</time>
      </trkpt>
      <trkpt lat="46.251229299232364" lon="11.8643743917346">
        <ele>2686.54</ele>
        <time>2017-07-04T11:42:51Z</time>
      </trkpt>
      <trkpt lat="46.251172637566924" lon="11.864394592121243">
        <ele>2687.98</ele>
        <time>2017-07-04T11:43:00Z</time>
      </trkpt>
      <trkpt lat="46.251156125217676" lon="11.864437172189355">
        <ele>2688.46</ele>
        <time>2017-07-04T11:43:10Z</time>
      </trkpt>
      <trkpt lat="46.251147743314505" lon="11.86453172005713">
        <ele>2688.9400000000001</ele>
        <time>2017-07-04T11:43:22Z</time>
      </trkpt>
      <trkpt lat="46.251089992001653" lon="11.864502970129251">
        <ele>2690.3899999999999</ele>
        <time>2017-07-04T11:43:33Z</time>
      </trkpt>
      <trkpt lat="46.251056548207998" lon="11.864542616531253">
        <ele>2691.3499999999999</ele>
        <time>2017-07-04T11:43:45Z</time>
      </trkpt>
      <trkpt lat="46.250989744439721" lon="11.864510094746947">
        <ele>2692.79</ele>
        <time>2017-07-04T11:43:56Z</time>
      </trkpt>
      <trkpt lat="46.250945823267102" lon="11.864519733935595">
        <ele>2693.75</ele>
        <time>2017-07-04T11:44:08Z</time>
      </trkpt>
      <trkpt lat="46.250910283997655" lon="11.864560386165977">
        <ele>2694.71</ele>
        <time>2017-07-04T11:44:18Z</time>
      </trkpt>
      <trkpt lat="46.250848677009344" lon="11.864530965685844">
        <ele>2696.6399999999999</ele>
        <time>2017-07-04T11:44:30Z</time>
      </trkpt>
      <trkpt lat="46.250811126083136" lon="11.864475393667817">
        <ele>2697.1199999999999</ele>
        <time>2017-07-04T11:44:38Z</time>
      </trkpt>
      <trkpt lat="46.250780951231718" lon="11.864447481930256">
        <ele>2698.0799999999999</ele>
        <time>2017-07-04T11:44:46Z</time>
      </trkpt>
      <trkpt lat="46.250759242102504" lon="11.864430718123913">
        <ele>2699.04</ele>
        <time>2017-07-04T11:44:59Z</time>
      </trkpt>
      <trkpt lat="46.250738957896829" lon="11.864426359534264">
        <ele>2699.52</ele>
        <time>2017-07-04T11:45:11Z</time>
      </trkpt>
      <trkpt lat="46.25073024071753" lon="11.864405907690525">
        <ele>2700</ele>
        <time>2017-07-04T11:45:19Z</time>
      </trkpt>
      <trkpt lat="46.250705430284142" lon="11.864380510523915">
        <ele>2700.48</ele>
        <time>2017-07-04T11:45:32Z</time>
      </trkpt>
      <trkpt lat="46.250702831894159" lon="11.864421498030424">
        <ele>2701.9200000000001</ele>
        <time>2017-07-04T11:45:40Z</time>
      </trkpt>
      <trkpt lat="46.250689839944243" lon="11.864457624033093">
        <ele>2702.4000000000001</ele>
        <time>2017-07-04T11:45:49Z</time>
      </trkpt>
      <trkpt lat="46.250679446384311" lon="11.864405823871493">
        <ele>2701.9200000000001</ele>
        <time>2017-07-04T11:46:05Z</time>
      </trkpt>
      <trkpt lat="46.250691097229719" lon="11.864383611828089">
        <ele>2702.4000000000001</ele>
        <time>2017-07-04T11:46:20Z</time>
      </trkpt>
      <trkpt lat="46.2507180031389" lon="11.864396519958973">
        <ele>2701.4400000000001</ele>
        <time>2017-07-04T11:46:30Z</time>
      </trkpt>
      <trkpt lat="46.250707609578967" lon="11.864397022873163">
        <ele>2700.96</ele>
        <time>2017-07-04T11:46:39Z</time>
      </trkpt>
      <trkpt lat="46.250708447769284" lon="11.864390401169658">
        <ele>2700.96</ele>
        <time>2017-07-04T11:46:51Z</time>
      </trkpt>
      <trkpt lat="46.250709956511855" lon="11.864384114742279">
        <ele>2700.96</ele>
        <time>2017-07-04T11:47:17Z</time>
      </trkpt>
      <trkpt lat="46.250704508274794" lon="11.864393837749958">
        <ele>2700.96</ele>
        <time>2017-07-04T11:47:41Z</time>
      </trkpt>
      <trkpt lat="46.250708615407348" lon="11.86440565623343">
        <ele>2700.96</ele>
        <time>2017-07-04T11:48:01Z</time>
      </trkpt>
      <trkpt lat="46.250701658427715" lon="11.86439735814929">
        <ele>2700.96</ele>
        <time>2017-07-04T11:48:25Z</time>
      </trkpt>
      <trkpt lat="46.25071750022471" lon="11.864390820264816">
        <ele>2700.96</ele>
        <time>2017-07-04T11:48:52Z</time>
      </trkpt>
      <trkpt lat="46.250711129978299" lon="11.864391406998038">
        <ele>2700.96</ele>
        <time>2017-07-04T11:49:16Z</time>
      </trkpt>
      <trkpt lat="46.250705597922206" lon="11.86439149081707">
        <ele>2700.96</ele>
        <time>2017-07-04T11:49:44Z</time>
      </trkpt>
      <trkpt lat="46.250707609578967" lon="11.864389814436436">
        <ele>2701.4400000000001</ele>
        <time>2017-07-04T11:50:10Z</time>
      </trkpt>
      <trkpt lat="46.250699479132891" lon="11.864393251016736">
        <ele>2701.4400000000001</ele>
        <time>2017-07-04T11:50:33Z</time>
      </trkpt>
      <trkpt lat="46.250691851601005" lon="11.864396436139941">
        <ele>2701.4400000000001</ele>
        <time>2017-07-04T11:50:56Z</time>
      </trkpt>
      <trkpt lat="46.2506955396384" lon="11.864388305693865">
        <ele>2700.96</ele>
        <time>2017-07-04T11:51:23Z</time>
      </trkpt>
      <trkpt lat="46.250697299838066" lon="11.86438805423677">
        <ele>2700.96</ele>
        <time>2017-07-04T11:51:52Z</time>
      </trkpt>
      <trkpt lat="46.250714650377631" lon="11.864398699253798">
        <ele>2701.4400000000001</ele>
        <time>2017-07-04T11:52:14Z</time>
      </trkpt>
      <trkpt lat="46.250702077522874" lon="11.864396687597036">
        <ele>2700.96</ele>
        <time>2017-07-04T11:52:47Z</time>
      </trkpt>
      <trkpt lat="46.250701574608684" lon="11.864393334835768">
        <ele>2700.96</ele>
        <time>2017-07-04T11:53:08Z</time>
      </trkpt>
      <trkpt lat="46.250708615407348" lon="11.864398783072829">
        <ele>2700.96</ele>
        <time>2017-07-04T11:53:33Z</time>
      </trkpt>
      <trkpt lat="46.25070434063673" lon="11.86438025906682">
        <ele>2700.96</ele>
        <time>2017-07-04T11:54:02Z</time>
      </trkpt>
      <trkpt lat="46.25070484355092" lon="11.864386880770326">
        <ele>2700.96</ele>
        <time>2017-07-04T11:54:21Z</time>
      </trkpt>
      <trkpt lat="46.250709872692823" lon="11.864378917962313">
        <ele>2701.4400000000001</ele>
        <time>2017-07-04T11:54:51Z</time>
      </trkpt>
      <trkpt lat="46.250700317323208" lon="11.864379504695535">
        <ele>2701.4400000000001</ele>
        <time>2017-07-04T11:55:23Z</time>
      </trkpt>
      <trkpt lat="46.250711800530553" lon="11.864372547715902">
        <ele>2701.9200000000001</ele>
        <time>2017-07-04T11:55:47Z</time>
      </trkpt>
      <trkpt lat="46.250708196312189" lon="11.864370703697205">
        <ele>2701.9200000000001</ele>
        <time>2017-07-04T11:56:13Z</time>
      </trkpt>
      <trkpt lat="46.250702328979969" lon="11.864375984296203">
        <ele>2701.9200000000001</ele>
        <time>2017-07-04T11:56:39Z</time>
      </trkpt>
      <trkpt lat="46.250713309273124" lon="11.864388892427087">
        <ele>2700.96</ele>
        <time>2017-07-04T11:57:08Z</time>
      </trkpt>
      <trkpt lat="46.250717081129551" lon="11.86438369564712">
        <ele>2701.4400000000001</ele>
        <time>2017-07-04T11:57:38Z</time>
      </trkpt>
      <trkpt lat="46.250706603750587" lon="11.864372547715902">
        <ele>2700.96</ele>
        <time>2017-07-04T11:58:08Z</time>
      </trkpt>
      <trkpt lat="46.250714398920536" lon="11.864371122792363">
        <ele>2700.96</ele>
        <time>2017-07-04T11:58:42Z</time>
      </trkpt>
      <trkpt lat="46.250711884349585" lon="11.864373553544283">
        <ele>2701.4400000000001</ele>
        <time>2017-07-04T11:59:13Z</time>
      </trkpt>
      <trkpt lat="46.25070727430284" lon="11.864379420876503">
        <ele>2700.96</ele>
        <time>2017-07-04T11:59:44Z</time>
      </trkpt>
      <trkpt lat="46.250710291787982" lon="11.8643778283149">
        <ele>2700.96</ele>
        <time>2017-07-04T12:00:07Z</time>
      </trkpt>
      <trkpt lat="46.250714063644409" lon="11.864380342885852">
        <ele>2700.96</ele>
        <time>2017-07-04T12:00:34Z</time>
      </trkpt>
      <trkpt lat="46.250713057816029" lon="11.864373469725251">
        <ele>2700.96</ele>
        <time>2017-07-04T12:00:57Z</time>
      </trkpt>
      <trkpt lat="46.250715237110853" lon="11.86436802148819">
        <ele>2700.96</ele>
        <time>2017-07-04T12:01:22Z</time>
      </trkpt>
      <trkpt lat="46.250712303444743" lon="11.864373385906219">
        <ele>2700.96</ele>
        <time>2017-07-04T12:01:51Z</time>
      </trkpt>
      <trkpt lat="46.250713812187314" lon="11.86439786106348">
        <ele>2701.9200000000001</ele>
        <time>2017-07-04T12:02:02Z</time>
      </trkpt>
      <trkpt lat="46.250698724761605" lon="11.86442082747817">
        <ele>2701.9200000000001</ele>
        <time>2017-07-04T12:02:16Z</time>
      </trkpt>
      <trkpt lat="46.250705681741238" lon="11.864419737830758">
        <ele>2701.9200000000001</ele>
        <time>2017-07-04T12:02:28Z</time>
      </trkpt>
      <trkpt lat="46.250703418627381" lon="11.864429377019405">
        <ele>2701.9200000000001</ele>
        <time>2017-07-04T12:02:43Z</time>
      </trkpt>
      <trkpt lat="46.250695791095495" lon="11.864410266280174">
        <ele>2702.4000000000001</ele>
        <time>2017-07-04T12:03:01Z</time>
      </trkpt>
      <trkpt lat="46.250705262646079" lon="11.864421498030424">
        <ele>2702.4000000000001</ele>
        <time>2017-07-04T12:03:20Z</time>
      </trkpt>
      <trkpt lat="46.250699646770954" lon="11.864422336220741">
        <ele>2701.9200000000001</ele>
        <time>2017-07-04T12:03:33Z</time>
      </trkpt>
      <trkpt lat="46.250692941248417" lon="11.864410769194365">
        <ele>2701.9200000000001</ele>
        <time>2017-07-04T12:03:54Z</time>
      </trkpt>
      <trkpt lat="46.250698640942574" lon="11.864380342885852">
        <ele>2701.9200000000001</ele>
        <time>2017-07-04T12:04:04Z</time>
      </trkpt>
      <trkpt lat="46.250686654821038" lon="11.864388724789023">
        <ele>2701.9200000000001</ele>
        <time>2017-07-04T12:04:18Z</time>
      </trkpt>
      <trkpt lat="46.250687744468451" lon="11.864380845800042">
        <ele>2701.9200000000001</ele>
        <time>2017-07-04T12:04:30Z</time>
      </trkpt>
      <trkpt lat="46.250698557123542" lon="11.864389143884182">
        <ele>2701.9200000000001</ele>
        <time>2017-07-04T12:04:38Z</time>
      </trkpt>
      <trkpt lat="46.250698138028383" lon="11.864452678710222">
        <ele>2702.4000000000001</ele>
        <time>2017-07-04T12:04:48Z</time>
      </trkpt>
      <trkpt lat="46.250682799145579" lon="11.864464581012726">
        <ele>2700.96</ele>
        <time>2017-07-04T12:04:56Z</time>
      </trkpt>
      <trkpt lat="46.250680536031723" lon="11.864481512457132">
        <ele>2700</ele>
        <time>2017-07-04T12:05:04Z</time>
      </trkpt>
      <trkpt lat="46.250640638172626" lon="11.864513363689184">
        <ele>2698.5599999999999</ele>
        <time>2017-07-04T12:05:12Z</time>
      </trkpt>
      <trkpt lat="46.250641057267785" lon="11.864537503570318">
        <ele>2697.1199999999999</ele>
        <time>2017-07-04T12:05:23Z</time>
      </trkpt>
      <trkpt lat="46.250610966235399" lon="11.864553513005376">
        <ele>2695.6700000000001</ele>
        <time>2017-07-04T12:05:32Z</time>
      </trkpt>
      <trkpt lat="46.250577522441745" lon="11.864584609866142">
        <ele>2694.71</ele>
        <time>2017-07-04T12:05:42Z</time>
      </trkpt>
      <trkpt lat="46.250574253499508" lon="11.864606402814388">
        <ele>2693.75</ele>
        <time>2017-07-04T12:05:53Z</time>
      </trkpt>
      <trkpt lat="46.250615827739239" lon="11.864623418077826">
        <ele>2691.8299999999999</ele>
        <time>2017-07-04T12:06:06Z</time>
      </trkpt>
      <trkpt lat="46.250582635402679" lon="11.864673960953951">
        <ele>2690.3899999999999</ele>
        <time>2017-07-04T12:06:15Z</time>
      </trkpt>
      <trkpt lat="46.250553214922547" lon="11.864699358120561">
        <ele>2688.9400000000001</ele>
        <time>2017-07-04T12:06:23Z</time>
      </trkpt>
      <trkpt lat="46.250543324276805" lon="11.864737076684833">
        <ele>2687.98</ele>
        <time>2017-07-04T12:06:31Z</time>
      </trkpt>
      <trkpt lat="46.250510131940246" lon="11.864726515486836">
        <ele>2686.54</ele>
        <time>2017-07-04T12:06:40Z</time>
      </trkpt>
      <trkpt lat="46.25049814581871" lon="11.864690389484167">
        <ele>2686.0599999999999</ele>
        <time>2017-07-04T12:06:53Z</time>
      </trkpt>
      <trkpt lat="46.250476185232401" lon="11.864725593477488">
        <ele>2684.6199999999999</ele>
        <time>2017-07-04T12:07:03Z</time>
      </trkpt>
      <trkpt lat="46.250455817207694" lon="11.864756690338254">
        <ele>2683.6599999999999</ele>
        <time>2017-07-04T12:07:13Z</time>
      </trkpt>
      <trkpt lat="46.250451290979981" lon="11.864800946787">
        <ele>2682.6999999999998</ele>
        <time>2017-07-04T12:07:27Z</time>
      </trkpt>
      <trkpt lat="46.250380631536245" lon="11.86477211304009">
        <ele>2680.29</ele>
        <time>2017-07-04T12:07:38Z</time>
      </trkpt>
      <trkpt lat="46.250373171642423" lon="11.864787619560957">
        <ele>2679.3299999999999</ele>
        <time>2017-07-04T12:07:48Z</time>
      </trkpt>
      <trkpt lat="46.250352468341589" lon="11.864816201850772">
        <ele>2677.4099999999999</ele>
        <time>2017-07-04T12:07:58Z</time>
      </trkpt>
      <trkpt lat="46.250323550775647" lon="11.864853166043758">
        <ele>2676.4499999999998</ele>
        <time>2017-07-04T12:08:11Z</time>
      </trkpt>
      <trkpt lat="46.250352468341589" lon="11.86486791819334">
        <ele>2675.4899999999998</ele>
        <time>2017-07-04T12:08:22Z</time>
      </trkpt>
      <trkpt lat="46.250325394794345" lon="11.86490697786212">
        <ele>2674.04</ele>
        <time>2017-07-04T12:08:32Z</time>
      </trkpt>
      <trkpt lat="46.250334614887834" lon="11.86489381827414">
        <ele>2674.04</ele>
        <time>2017-07-04T12:08:43Z</time>
      </trkpt>
      <trkpt lat="46.250352552160621" lon="11.864901026710868">
        <ele>2672.5999999999999</ele>
        <time>2017-07-04T12:08:53Z</time>
      </trkpt>
      <trkpt lat="46.250338470563293" lon="11.864928435534239">
        <ele>2671.1599999999999</ele>
        <time>2017-07-04T12:09:04Z</time>
      </trkpt>
      <trkpt lat="46.250320700928569" lon="11.864946372807026">
        <ele>2669.7199999999998</ele>
        <time>2017-07-04T12:09:15Z</time>
      </trkpt>
      <trkpt lat="46.250313073396683" lon="11.864955006167293">
        <ele>2668.7600000000002</ele>
        <time>2017-07-04T12:09:26Z</time>
      </trkpt>
      <trkpt lat="46.250335872173309" lon="11.864993562921882">
        <ele>2666.8299999999999</ele>
        <time>2017-07-04T12:09:37Z</time>
      </trkpt>
      <trkpt lat="46.250327825546265" lon="11.865015607327223">
        <ele>2665.3899999999999</ele>
        <time>2017-07-04T12:09:47Z</time>
      </trkpt>
      <trkpt lat="46.25032028183341" lon="11.86503161676228">
        <ele>2664.4299999999998</ele>
        <time>2017-07-04T12:09:58Z</time>
      </trkpt>
      <trkpt lat="46.250356156378984" lon="11.865063216537237">
        <ele>2663.4699999999998</ele>
        <time>2017-07-04T12:10:07Z</time>
      </trkpt>
      <trkpt lat="46.250388342887163" lon="11.865134881809354">
        <ele>2660.5900000000001</ele>
        <time>2017-07-04T12:10:20Z</time>
      </trkpt>
      <trkpt lat="46.250351127237082" lon="11.865175198763609">
        <ele>2659.1399999999999</ele>
        <time>2017-07-04T12:10:30Z</time>
      </trkpt>
      <trkpt lat="46.250292118638754" lon="11.865176456049085">
        <ele>2657.2199999999998</ele>
        <time>2017-07-04T12:10:42Z</time>
      </trkpt>
      <trkpt lat="46.250261776149273" lon="11.865177378058434">
        <ele>2655.7800000000002</ele>
        <time>2017-07-04T12:10:52Z</time>
      </trkpt>
      <trkpt lat="46.250289101153612" lon="11.865216605365276">
        <ele>2654.3400000000001</ele>
        <time>2017-07-04T12:11:03Z</time>
      </trkpt>
      <trkpt lat="46.250282814726233" lon="11.865263041108847">
        <ele>2652.9000000000001</ele>
        <time>2017-07-04T12:11:12Z</time>
      </trkpt>
      <trkpt lat="46.25029094517231" lon="11.865325318649411">
        <ele>2651.9299999999998</ele>
        <time>2017-07-04T12:11:20Z</time>
      </trkpt>
      <trkpt lat="46.25026605091989" lon="11.865424728021026">
        <ele>2650.4899999999998</ele>
        <time>2017-07-04T12:11:32Z</time>
      </trkpt>
      <trkpt lat="46.25021911226213" lon="11.865456160157919">
        <ele>2649.0500000000002</ele>
        <time>2017-07-04T12:11:41Z</time>
      </trkpt>
      <trkpt lat="46.250189440324903" lon="11.865541068837047">
        <ele>2646.6500000000001</ele>
        <time>2017-07-04T12:11:52Z</time>
      </trkpt>
      <trkpt lat="46.25018248334527" lon="11.865613237023354">
        <ele>2644.2399999999998</ele>
        <time>2017-07-04T12:12:05Z</time>
      </trkpt>
      <trkpt lat="46.250159852206707" lon="11.865678280591965">
        <ele>2642.3200000000002</ele>
        <time>2017-07-04T12:12:12Z</time>
      </trkpt>
      <trkpt lat="46.250173933804035" lon="11.865706108510494">
        <ele>2640.4000000000001</ele>
        <time>2017-07-04T12:12:21Z</time>
      </trkpt>
      <trkpt lat="46.250165551900864" lon="11.865745251998305">
        <ele>2638.96</ele>
        <time>2017-07-04T12:12:31Z</time>
      </trkpt>
      <trkpt lat="46.250170832499862" lon="11.865811720490456">
        <ele>2637.0300000000002</ele>
        <time>2017-07-04T12:12:41Z</time>
      </trkpt>
      <trkpt lat="46.250163456425071" lon="11.865917919203639">
        <ele>2634.1500000000001</ele>
        <time>2017-07-04T12:12:52Z</time>
      </trkpt>
      <trkpt lat="46.250158594921231" lon="11.866001319140196">
        <ele>2631.75</ele>
        <time>2017-07-04T12:13:05Z</time>
      </trkpt>
      <trkpt lat="46.250152057036757" lon="11.866086227819324">
        <ele>2630.3000000000002</ele>
        <time>2017-07-04T12:13:14Z</time>
      </trkpt>
      <trkpt lat="46.250157253816724" lon="11.866148086264729">
        <ele>2629.8200000000002</ele>
        <time>2017-07-04T12:13:18Z</time>
      </trkpt>
      <trkpt lat="46.250158594921231" lon="11.866258308291435">
        <ele>2629.8200000000002</ele>
        <time>2017-07-04T12:13:25Z</time>
      </trkpt>
      <trkpt lat="46.250160438939929" lon="11.866283789277077">
        <ele>2629.8200000000002</ele>
        <time>2017-07-04T12:13:27Z</time>
      </trkpt>
      <trkpt lat="46.250164294615388" lon="11.866431478410959">
        <ele>2629.3400000000001</ele>
        <time>2017-07-04T12:13:38Z</time>
      </trkpt>
      <trkpt lat="46.250159936025739" lon="11.866585956886411">
        <ele>2628.3800000000001</ele>
        <time>2017-07-04T12:13:49Z</time>
      </trkpt>
      <trkpt lat="46.250162785872817" lon="11.866685282438993">
        <ele>2628.8600000000001</ele>
        <time>2017-07-04T12:13:57Z</time>
      </trkpt>
      <trkpt lat="46.250119619071484" lon="11.866822661831975">
        <ele>2627.4200000000001</ele>
        <time>2017-07-04T12:14:09Z</time>
      </trkpt>
      <trkpt lat="46.250096820294857" lon="11.866917628794909">
        <ele>2625.02</ele>
        <time>2017-07-04T12:14:20Z</time>
      </trkpt>
      <trkpt lat="46.250079302117229" lon="11.867094989866018">
        <ele>2624.54</ele>
        <time>2017-07-04T12:14:34Z</time>
      </trkpt>
      <trkpt lat="46.250006128102541" lon="11.867259861901402">
        <ele>2622.6100000000001</ele>
        <time>2017-07-04T12:14:47Z</time>
      </trkpt>
      <trkpt lat="46.249958351254463" lon="11.867321049794555">
        <ele>2623.0900000000001</ele>
        <time>2017-07-04T12:14:55Z</time>
      </trkpt>
      <trkpt lat="46.249954747036099" lon="11.86733789741993">
        <ele>2623.0900000000001</ele>
        <time>2017-07-04T12:15:03Z</time>
      </trkpt>
      <trkpt lat="46.249921638518572" lon="11.867354242131114">
        <ele>2622.1300000000001</ele>
        <time>2017-07-04T12:15:06Z</time>
      </trkpt>
      <trkpt lat="46.249825330451131" lon="11.867465805262327">
        <ele>2620.6900000000001</ele>
        <time>2017-07-04T12:15:20Z</time>
      </trkpt>
      <trkpt lat="46.249785348773003" lon="11.867537889629602">
        <ele>2619.73</ele>
        <time>2017-07-04T12:15:29Z</time>
      </trkpt>
      <trkpt lat="46.24974075704813" lon="11.867529256269336">
        <ele>2618.77</ele>
        <time>2017-07-04T12:15:40Z</time>
      </trkpt>
      <trkpt lat="46.249715276062489" lon="11.867564041167498">
        <ele>2619.25</ele>
        <time>2017-07-04T12:16:01Z</time>
      </trkpt>
      <trkpt lat="46.249727848917246" lon="11.867561023682356">
        <ele>2619.25</ele>
        <time>2017-07-04T12:16:16Z</time>
      </trkpt>
      <trkpt lat="46.249682921916246" lon="11.867597904056311">
        <ele>2616.8499999999999</ele>
        <time>2017-07-04T12:16:27Z</time>
      </trkpt>
      <trkpt lat="46.249659704044461" lon="11.867597987875342">
        <ele>2615.4000000000001</ele>
        <time>2017-07-04T12:16:34Z</time>
      </trkpt>
      <trkpt lat="46.249643862247467" lon="11.867682477459311">
        <ele>2613.96</ele>
        <time>2017-07-04T12:16:39Z</time>
      </trkpt>
      <trkpt lat="46.24963715672493" lon="11.867732433602214">
        <ele>2613.48</ele>
        <time>2017-07-04T12:16:43Z</time>
      </trkpt>
      <trkpt lat="46.249602539464831" lon="11.867766631767154">
        <ele>2612.52</ele>
        <time>2017-07-04T12:16:51Z</time>
      </trkpt>
      <trkpt lat="46.249549314379692" lon="11.867815246805549">
        <ele>2611.0799999999999</ele>
        <time>2017-07-04T12:16:59Z</time>
      </trkpt>
      <trkpt lat="46.249499190598726" lon="11.867920607328415">
        <ele>2609.1599999999999</ele>
        <time>2017-07-04T12:17:09Z</time>
      </trkpt>
      <trkpt lat="46.249477816745639" lon="11.867984980344772">
        <ele>2609.6399999999999</ele>
        <time>2017-07-04T12:17:15Z</time>
      </trkpt>
      <trkpt lat="46.24942216090858" lon="11.868062345311046">
        <ele>2610.5999999999999</ele>
        <time>2017-07-04T12:17:23Z</time>
      </trkpt>
      <trkpt lat="46.249406402930617" lon="11.868107607588172">
        <ele>2610.1199999999999</ele>
        <time>2017-07-04T12:17:26Z</time>
      </trkpt>
      <trkpt lat="46.249358961358666" lon="11.868204418569803">
        <ele>2609.1599999999999</ele>
        <time>2017-07-04T12:17:36Z</time>
      </trkpt>
      <trkpt lat="46.249294588342309" lon="11.868290500715375">
        <ele>2607.23</ele>
        <time>2017-07-04T12:17:45Z</time>
      </trkpt>
      <trkpt lat="46.249233903363347" lon="11.86837574467063">
        <ele>2604.3499999999999</ele>
        <time>2017-07-04T12:17:55Z</time>
      </trkpt>
      <trkpt lat="46.249195095151663" lon="11.868413547053933">
        <ele>2602.4299999999998</ele>
        <time>2017-07-04T12:18:05Z</time>
      </trkpt>
      <trkpt lat="46.24915586784482" lon="11.868458474054933">
        <ele>2600.5</ele>
        <time>2017-07-04T12:18:15Z</time>
      </trkpt>
      <trkpt lat="46.249098870903254" lon="11.868465514853597">
        <ele>2598.0999999999999</ele>
        <time>2017-07-04T12:18:26Z</time>
      </trkpt>
      <trkpt lat="46.249018739908934" lon="11.868544891476631">
        <ele>2595.6999999999998</ele>
        <time>2017-07-04T12:18:36Z</time>
      </trkpt>
      <trkpt lat="46.248989067971706" lon="11.868555368855596">
        <ele>2594.25</ele>
        <time>2017-07-04T12:18:40Z</time>
      </trkpt>
      <trkpt lat="46.248974651098251" lon="11.868643378838897">
        <ele>2593.29</ele>
        <time>2017-07-04T12:18:50Z</time>
      </trkpt>
      <trkpt lat="46.248949253931642" lon="11.868621418252587">
        <ele>2592.3299999999999</ele>
        <time>2017-07-04T12:18:57Z</time>
      </trkpt>
      <trkpt lat="46.248907931149006" lon="11.868598787114024">
        <ele>2589.9299999999998</ele>
        <time>2017-07-04T12:19:08Z</time>
      </trkpt>
      <trkpt lat="46.248836936429143" lon="11.868614628911018">
        <ele>2588.0100000000002</ele>
        <time>2017-07-04T12:19:18Z</time>
      </trkpt>
      <trkpt lat="46.248806426301599" lon="11.868610521778464">
        <ele>2586.5599999999999</ele>
        <time>2017-07-04T12:19:22Z</time>
      </trkpt>
      <trkpt lat="46.248713973909616" lon="11.868620244786143">
        <ele>2585.5999999999999</ele>
        <time>2017-07-04T12:19:34Z</time>
      </trkpt>
      <trkpt lat="46.248690001666546" lon="11.86863524839282">
        <ele>2583.6799999999998</ele>
        <time>2017-07-04T12:19:44Z</time>
      </trkpt>
      <trkpt lat="46.248683044686913" lon="11.868593171238899">
        <ele>2582.7199999999998</ele>
        <time>2017-07-04T12:19:53Z</time>
      </trkpt>
      <trkpt lat="46.248595453798771" lon="11.868646647781134">
        <ele>2581.2800000000002</ele>
        <time>2017-07-04T12:20:03Z</time>
      </trkpt>
      <trkpt lat="46.248521860688925" lon="11.868664920330048">
        <ele>2578.3899999999999</ele>
        <time>2017-07-04T12:20:12Z</time>
      </trkpt>
      <trkpt lat="46.248429911211133" lon="11.868699118494987">
        <ele>2575.5100000000002</ele>
        <time>2017-07-04T12:20:23Z</time>
      </trkpt>
      <trkpt lat="46.248335530981421" lon="11.868771202862263">
        <ele>2572.1399999999999</ele>
        <time>2017-07-04T12:20:35Z</time>
      </trkpt>
      <trkpt lat="46.248289430513978" lon="11.86884043738246">
        <ele>2570.6999999999998</ele>
        <time>2017-07-04T12:20:45Z</time>
      </trkpt>
      <trkpt lat="46.24824944883585" lon="11.86891327612102">
        <ele>2569.7399999999998</ele>
        <time>2017-07-04T12:20:56Z</time>
      </trkpt>
      <trkpt lat="46.2482088804245" lon="11.868955185636878">
        <ele>2568.7800000000002</ele>
        <time>2017-07-04T12:21:04Z</time>
      </trkpt>
      <trkpt lat="46.24820158816874" lon="11.868967339396477">
        <ele>2568.3000000000002</ele>
        <time>2017-07-04T12:21:10Z</time>
      </trkpt>
      <trkpt lat="46.24813755042851" lon="11.868973877280951">
        <ele>2566.3800000000001</ele>
        <time>2017-07-04T12:21:20Z</time>
      </trkpt>
      <trkpt lat="46.248098909854889" lon="11.869038753211498">
        <ele>2564.9299999999998</ele>
        <time>2017-07-04T12:21:30Z</time>
      </trkpt>
      <trkpt lat="46.248055156320333" lon="11.869076555594802">
        <ele>2562.5300000000002</ele>
        <time>2017-07-04T12:21:39Z</time>
      </trkpt>
      <trkpt lat="46.248047444969416" lon="11.86908770352602">
        <ele>2562.0500000000002</ele>
        <time>2017-07-04T12:21:53Z</time>
      </trkpt>
      <trkpt lat="46.248036464676261" lon="11.869102790951729">
        <ele>2561.5700000000002</ele>
        <time>2017-07-04T12:22:06Z</time>
      </trkpt>
      <trkpt lat="46.248009642586112" lon="11.869125841185451">
        <ele>2560.1300000000001</ele>
        <time>2017-07-04T12:22:18Z</time>
      </trkpt>
      <trkpt lat="46.247986340895295" lon="11.869147215038538">
        <ele>2558.6900000000001</ele>
        <time>2017-07-04T12:22:27Z</time>
      </trkpt>
      <trkpt lat="46.247967062518001" lon="11.869180155918002">
        <ele>2558.21</ele>
        <time>2017-07-04T12:22:35Z</time>
      </trkpt>
      <trkpt lat="46.247962284833193" lon="11.869190633296967">
        <ele>2558.21</ele>
        <time>2017-07-04T12:22:44Z</time>
      </trkpt>
      <trkpt lat="46.247959351167083" lon="11.869216868653893">
        <ele>2557.73</ele>
        <time>2017-07-04T12:22:54Z</time>
      </trkpt>
      <trkpt lat="46.247946610674262" lon="11.869251066818833">
        <ele>2557.73</ele>
        <time>2017-07-04T12:23:04Z</time>
      </trkpt>
      <trkpt lat="46.247926661744714" lon="11.869272189214826">
        <ele>2557.2399999999998</ele>
        <time>2017-07-04T12:23:17Z</time>
      </trkpt>
      <trkpt lat="46.247890871018171" lon="11.869308399036527">
        <ele>2555.3200000000002</ele>
        <time>2017-07-04T12:23:28Z</time>
      </trkpt>
      <trkpt lat="46.247853990644217" lon="11.86931443400681">
        <ele>2553.4000000000001</ele>
        <time>2017-07-04T12:23:40Z</time>
      </trkpt>
      <trkpt lat="46.247827503830194" lon="11.869320468977094">
        <ele>2551.96</ele>
        <time>2017-07-04T12:23:48Z</time>
      </trkpt>
      <trkpt lat="46.247812500223517" lon="11.869367994368076">
        <ele>2551</ele>
        <time>2017-07-04T12:23:58Z</time>
      </trkpt>
      <trkpt lat="46.247777882963419" lon="11.869434546679258">
        <ele>2550.0300000000002</ele>
        <time>2017-07-04T12:24:06Z</time>
      </trkpt>
      <trkpt lat="46.247778385877609" lon="11.869458938017488">
        <ele>2550.0300000000002</ele>
        <time>2017-07-04T12:24:09Z</time>
      </trkpt>
      <trkpt lat="46.247773943468928" lon="11.869505792856216">
        <ele>2549.0700000000002</ele>
        <time>2017-07-04T12:24:12Z</time>
      </trkpt>
      <trkpt lat="46.247730609029531" lon="11.869621882215142">
        <ele>2546.6700000000001</ele>
        <time>2017-07-04T12:24:23Z</time>
      </trkpt>
      <trkpt lat="46.247680652886629" lon="11.869712825864553">
        <ele>2545.71</ele>
        <time>2017-07-04T12:24:33Z</time>
      </trkpt>
      <trkpt lat="46.247643269598484" lon="11.86987929046154">
        <ele>2544.27</ele>
        <time>2017-07-04T12:24:44Z</time>
      </trkpt>
      <trkpt lat="46.247589290142059" lon="11.870004013180733">
        <ele>2542.3400000000001</ele>
        <time>2017-07-04T12:24:55Z</time>
      </trkpt>
      <trkpt lat="46.247584344819188" lon="11.870012395083904">
        <ele>2541.8600000000001</ele>
        <time>2017-07-04T12:25:05Z</time>
      </trkpt>
      <trkpt lat="46.247576298192143" lon="11.870043324306607">
        <ele>2541.8600000000001</ele>
        <time>2017-07-04T12:25:12Z</time>
      </trkpt>
      <trkpt lat="46.247583758085966" lon="11.870160084217787">
        <ele>2541.3800000000001</ele>
        <time>2017-07-04T12:25:20Z</time>
      </trkpt>
      <trkpt lat="46.247595241293311" lon="11.870198808610439">
        <ele>2540.9000000000001</ele>
        <time>2017-07-04T12:25:23Z</time>
      </trkpt>
      <trkpt lat="46.247570430859923" lon="11.870353706181049">
        <ele>2538.02</ele>
        <time>2017-07-04T12:25:33Z</time>
      </trkpt>
      <trkpt lat="46.247589373961091" lon="11.870505921542645">
        <ele>2535.1300000000001</ele>
        <time>2017-07-04T12:25:45Z</time>
      </trkpt>
      <trkpt lat="46.247623069211841" lon="11.870575658977032">
        <ele>2533.6900000000001</ele>
        <time>2017-07-04T12:25:52Z</time>
      </trkpt>
      <trkpt lat="46.24770269729197" lon="11.87076416797936">
        <ele>2532.25</ele>
        <time>2017-07-04T12:26:05Z</time>
      </trkpt>
      <trkpt lat="46.247727256268263" lon="11.870829882100224">
        <ele>2531.77</ele>
        <time>2017-07-04T12:26:09Z</time>
      </trkpt>
      <trkpt lat="46.247712085023522" lon="11.87097329646349">
        <ele>2530.8099999999999</ele>
        <time>2017-07-04T12:26:19Z</time>
      </trkpt>
      <trkpt lat="46.247696075588465" lon="11.871062647551298">
        <ele>2528.8899999999999</ele>
        <time>2017-07-04T12:26:30Z</time>
      </trkpt>
      <trkpt lat="46.247715353965759" lon="11.871188711374998">
        <ele>2527.9200000000001</ele>
        <time>2017-07-04T12:26:41Z</time>
      </trkpt>
      <trkpt lat="46.247733877971768" lon="11.871352409943938">
        <ele>2529.3699999999999</ele>
        <time>2017-07-04T12:26:53Z</time>
      </trkpt>
      <trkpt lat="46.24772273004055" lon="11.871483586728573">
        <ele>2527.9200000000001</ele>
        <time>2017-07-04T12:27:03Z</time>
      </trkpt>
      <trkpt lat="46.247700769454241" lon="11.871588947251439">
        <ele>2527.4400000000001</ele>
        <time>2017-07-04T12:27:14Z</time>
      </trkpt>
      <trkpt lat="46.24765869230032" lon="11.871630102396011">
        <ele>2527.9200000000001</ele>
        <time>2017-07-04T12:27:20Z</time>
      </trkpt>
      <trkpt lat="46.247605634853244" lon="11.871789274737239">
        <ele>2527.4400000000001</ele>
        <time>2017-07-04T12:27:32Z</time>
      </trkpt>
      <trkpt lat="46.247610077261925" lon="11.871866220608354">
        <ele>2527.9200000000001</ele>
        <time>2017-07-04T12:27:39Z</time>
      </trkpt>
      <trkpt lat="46.247611669823527" lon="11.871929168701172">
        <ele>2527.9200000000001</ele>
        <time>2017-07-04T12:27:43Z</time>
      </trkpt>
      <trkpt lat="46.247600102797151" lon="11.871976777911186">
        <ele>2527.9200000000001</ele>
        <time>2017-07-04T12:27:53Z</time>
      </trkpt>
      <trkpt lat="46.247583758085966" lon="11.871927827596664">
        <ele>2527.4400000000001</ele>
        <time>2017-07-04T12:28:09Z</time>
      </trkpt>
      <trkpt lat="46.247601862996817" lon="11.871993038803339">
        <ele>2527.9200000000001</ele>
        <time>2017-07-04T12:28:28Z</time>
      </trkpt>
      <trkpt lat="46.247601192444563" lon="11.872134692966938">
        <ele>2529.3699999999999</ele>
        <time>2017-07-04T12:28:40Z</time>
      </trkpt>
      <trkpt lat="46.247597252950072" lon="11.872175177559257">
        <ele>2529.3699999999999</ele>
        <time>2017-07-04T12:28:44Z</time>
      </trkpt>
      <trkpt lat="46.247604796662927" lon="11.872253296896815">
        <ele>2529.8499999999999</ele>
        <time>2017-07-04T12:28:55Z</time>
      </trkpt>
      <trkpt lat="46.247605802491307" lon="11.872343318536878">
        <ele>2530.3299999999999</ele>
        <time>2017-07-04T12:29:03Z</time>
      </trkpt>
      <trkpt lat="46.247600354254246" lon="11.872367626056075">
        <ele>2530.3299999999999</ele>
        <time>2017-07-04T12:29:05Z</time>
      </trkpt>
      <trkpt lat="46.247591720893979" lon="11.872494611889124">
        <ele>2529.8499999999999</ele>
        <time>2017-07-04T12:29:16Z</time>
      </trkpt>
      <trkpt lat="46.247602617368102" lon="11.872501820325851">
        <ele>2529.3699999999999</ele>
        <time>2017-07-04T12:29:23Z</time>
      </trkpt>
      <trkpt lat="46.247593984007835" lon="11.872610114514828">
        <ele>2527.4400000000001</ele>
        <time>2017-07-04T12:29:34Z</time>
      </trkpt>
      <trkpt lat="46.247560204938054" lon="11.872618328779936">
        <ele>2526</ele>
        <time>2017-07-04T12:29:44Z</time>
      </trkpt>
      <trkpt lat="46.247515110298991" lon="11.872616149485111">
        <ele>2524.0799999999999</ele>
        <time>2017-07-04T12:29:54Z</time>
      </trkpt>
      <trkpt lat="46.247505471110344" lon="11.872639786452055">
        <ele>2522.1599999999999</ele>
        <time>2017-07-04T12:30:02Z</time>
      </trkpt>
      <trkpt lat="46.247495329007506" lon="11.872668284922838">
        <ele>2520.71</ele>
        <time>2017-07-04T12:30:11Z</time>
      </trkpt>
      <trkpt lat="46.247514523565769" lon="11.872714385390282">
        <ele>2519.27</ele>
        <time>2017-07-04T12:30:20Z</time>
      </trkpt>
      <trkpt lat="46.247506979852915" lon="11.872760402038693">
        <ele>2517.3499999999999</ele>
        <time>2017-07-04T12:30:30Z</time>
      </trkpt>
      <trkpt lat="46.247478649020195" lon="11.872766772285104">
        <ele>2516.3899999999999</ele>
        <time>2017-07-04T12:30:39Z</time>
      </trkpt>
      <trkpt lat="46.247503543272614" lon="11.872790912166238">
        <ele>2515.4299999999998</ele>
        <time>2017-07-04T12:30:49Z</time>
      </trkpt>
      <trkpt lat="46.247479068115354" lon="11.872856710106134">
        <ele>2513.02</ele>
        <time>2017-07-04T12:30:59Z</time>
      </trkpt>
      <trkpt lat="46.247466830536723" lon="11.872874815016985">
        <ele>2511.5799999999999</ele>
        <time>2017-07-04T12:31:06Z</time>
      </trkpt>
      <trkpt lat="46.2474559340626" lon="11.872919825837016">
        <ele>2510.1399999999999</ele>
        <time>2017-07-04T12:31:19Z</time>
      </trkpt>
      <trkpt lat="46.247442606836557" lon="11.872915467247367">
        <ele>2509.1799999999998</ele>
        <time>2017-07-04T12:31:28Z</time>
      </trkpt>
      <trkpt lat="46.24741486273706" lon="11.872927956283092">
        <ele>2508.6999999999998</ele>
        <time>2017-07-04T12:31:41Z</time>
      </trkpt>
      <trkpt lat="46.247424082830548" lon="11.87293223105371">
        <ele>2507.7399999999998</ele>
        <time>2017-07-04T12:31:52Z</time>
      </trkpt>
      <trkpt lat="46.247391728684306" lon="11.872956119477749">
        <ele>2505.8099999999999</ele>
        <time>2017-07-04T12:32:02Z</time>
      </trkpt>
      <trkpt lat="46.247400529682636" lon="11.872977744787931">
        <ele>2504.8499999999999</ele>
        <time>2017-07-04T12:32:11Z</time>
      </trkpt>
      <trkpt lat="46.247411593794823" lon="11.872945809736848">
        <ele>2504.8499999999999</ele>
        <time>2017-07-04T12:32:23Z</time>
      </trkpt>
      <trkpt lat="46.247424753382802" lon="11.872973889112473">
        <ele>2504.3699999999999</ele>
        <time>2017-07-04T12:32:30Z</time>
      </trkpt>
      <trkpt lat="46.247416790574789" lon="11.873003728687763">
        <ele>2503.8899999999999</ele>
        <time>2017-07-04T12:32:34Z</time>
      </trkpt>
      <trkpt lat="46.247388627380133" lon="11.873030550777912">
        <ele>2502.4499999999998</ele>
        <time>2017-07-04T12:32:43Z</time>
      </trkpt>
      <trkpt lat="46.247376976534724" lon="11.873037088662386">
        <ele>2501.0100000000002</ele>
        <time>2017-07-04T12:32:52Z</time>
      </trkpt>
      <trkpt lat="46.247376557439566" lon="11.873057959601283">
        <ele>2499.5700000000002</ele>
        <time>2017-07-04T12:33:00Z</time>
      </trkpt>
      <trkpt lat="46.247362643480301" lon="11.873031221330166">
        <ele>2499.5700000000002</ele>
        <time>2017-07-04T12:33:12Z</time>
      </trkpt>
      <trkpt lat="46.247335989028215" lon="11.873060306534171">
        <ele>2498.5999999999999</ele>
        <time>2017-07-04T12:33:22Z</time>
      </trkpt>
      <trkpt lat="46.247293576598167" lon="11.873062402009964">
        <ele>2495.7199999999998</ele>
        <time>2017-07-04T12:33:32Z</time>
      </trkpt>
      <trkpt lat="46.247308412566781" lon="11.873092744499445">
        <ele>2493.8000000000002</ele>
        <time>2017-07-04T12:33:43Z</time>
      </trkpt>
      <trkpt lat="46.247279075905681" lon="11.873114453628659">
        <ele>2492.3600000000001</ele>
        <time>2017-07-04T12:33:52Z</time>
      </trkpt>
      <trkpt lat="46.247306065633893" lon="11.873129038140178">
        <ele>2491.3899999999999</ele>
        <time>2017-07-04T12:34:04Z</time>
      </trkpt>
      <trkpt lat="46.247327020391822" lon="11.873144209384918">
        <ele>2490.4299999999998</ele>
        <time>2017-07-04T12:34:15Z</time>
      </trkpt>
      <trkpt lat="46.247314363718033" lon="11.873193746432662">
        <ele>2489.4699999999998</ele>
        <time>2017-07-04T12:34:25Z</time>
      </trkpt>
      <trkpt lat="46.247311849147081" lon="11.87322098761797">
        <ele>2488.5100000000002</ele>
        <time>2017-07-04T12:34:35Z</time>
      </trkpt>
      <trkpt lat="46.24728636816144" lon="11.873227441683412">
        <ele>2487.0700000000002</ele>
        <time>2017-07-04T12:34:46Z</time>
      </trkpt>
      <trkpt lat="46.247277315706015" lon="11.873261639848351">
        <ele>2485.6300000000001</ele>
        <time>2017-07-04T12:34:58Z</time>
      </trkpt>
      <trkpt lat="46.247275387868285" lon="11.873274380341172">
        <ele>2484.1799999999998</ele>
        <time>2017-07-04T12:35:07Z</time>
      </trkpt>
      <trkpt lat="46.247259126976132" lon="11.873286366462708">
        <ele>2483.2199999999998</ele>
        <time>2017-07-04T12:35:17Z</time>
      </trkpt>
      <trkpt lat="46.247253092005849" lon="11.873309165239334">
        <ele>2481.7800000000002</ele>
        <time>2017-07-04T12:35:27Z</time>
      </trkpt>
      <trkpt lat="46.24724973924458" lon="11.873329197987914">
        <ele>2480.3400000000001</ele>
        <time>2017-07-04T12:35:37Z</time>
      </trkpt>
      <trkpt lat="46.247255774214864" lon="11.873316457495093">
        <ele>2480.3400000000001</ele>
        <time>2017-07-04T12:35:40Z</time>
      </trkpt>
      <trkpt lat="46.24725803732872" lon="11.873382674530149">
        <ele>2479.3800000000001</ele>
        <time>2017-07-04T12:35:48Z</time>
      </trkpt>
      <trkpt lat="46.247205566614866" lon="11.873429361730814">
        <ele>2476.9699999999998</ele>
        <time>2017-07-04T12:35:58Z</time>
      </trkpt>
      <trkpt lat="46.247162315994501" lon="11.87342575751245">
        <ele>2474.5700000000002</ele>
        <time>2017-07-04T12:36:06Z</time>
      </trkpt>
      <trkpt lat="46.247140690684319" lon="11.873447131365538">
        <ele>2472.6500000000001</ele>
        <time>2017-07-04T12:36:15Z</time>
      </trkpt>
      <trkpt lat="46.247092075645924" lon="11.873458866029978">
        <ele>2470.73</ele>
        <time>2017-07-04T12:36:25Z</time>
      </trkpt>
      <trkpt lat="46.247054105624557" lon="11.873498177155852">
        <ele>2468.3200000000002</ele>
        <time>2017-07-04T12:36:35Z</time>
      </trkpt>
      <trkpt lat="46.247050082311034" lon="11.873486777767539">
        <ele>2467.8400000000001</ele>
        <time>2017-07-04T12:36:44Z</time>
      </trkpt>
      <trkpt lat="46.247058296576142" lon="11.873509828001261">
        <ele>2467.3600000000001</ele>
        <time>2017-07-04T12:36:59Z</time>
      </trkpt>
      <trkpt lat="46.246993169188499" lon="11.873542098328471">
        <ele>2464.96</ele>
        <time>2017-07-04T12:37:10Z</time>
      </trkpt>
      <trkpt lat="46.246942458674312" lon="11.873497925698757">
        <ele>2462.5500000000002</ele>
        <time>2017-07-04T12:37:20Z</time>
      </trkpt>
      <trkpt lat="46.246920833364129" lon="11.873529022559524">
        <ele>2461.1100000000001</ele>
        <time>2017-07-04T12:37:30Z</time>
      </trkpt>
      <trkpt lat="46.24686568044126" lon="11.873562633991241">
        <ele>2458.71</ele>
        <time>2017-07-04T12:37:40Z</time>
      </trkpt>
      <trkpt lat="46.246826788410544" lon="11.87352835200727">
        <ele>2456.3099999999999</ele>
        <time>2017-07-04T12:37:50Z</time>
      </trkpt>
      <trkpt lat="46.246793260797858" lon="11.873543355613947">
        <ele>2454.3800000000001</ele>
        <time>2017-07-04T12:37:58Z</time>
      </trkpt>
      <trkpt lat="46.246762415394187" lon="11.87359381467104">
        <ele>2452.46</ele>
        <time>2017-07-04T12:38:08Z</time>
      </trkpt>
      <trkpt lat="46.246735760942101" lon="11.873570764437318">
        <ele>2450.54</ele>
        <time>2017-07-04T12:38:17Z</time>
      </trkpt>
      <trkpt lat="46.246693851426244" lon="11.873504798859358">
        <ele>2447.6500000000001</ele>
        <time>2017-07-04T12:38:27Z</time>
      </trkpt>
      <trkpt lat="46.246641715988517" lon="11.87353421933949">
        <ele>2444.77</ele>
        <time>2017-07-04T12:38:37Z</time>
      </trkpt>
      <trkpt lat="46.246603913605213" lon="11.873488873243332">
        <ele>2442.8499999999999</ele>
        <time>2017-07-04T12:38:46Z</time>
      </trkpt>
      <trkpt lat="46.246584299951792" lon="11.873502284288406">
        <ele>2442.3699999999999</ele>
        <time>2017-07-04T12:38:50Z</time>
      </trkpt>
      <trkpt lat="46.246559154242277" lon="11.873496333137155">
        <ele>2441.8899999999999</ele>
        <time>2017-07-04T12:39:00Z</time>
      </trkpt>
      <trkpt lat="46.246553789824247" lon="11.873517371714115">
        <ele>2440.9200000000001</ele>
        <time>2017-07-04T12:39:12Z</time>
      </trkpt>
      <trkpt lat="46.246508359909058" lon="11.873554419726133">
        <ele>2439</ele>
        <time>2017-07-04T12:39:21Z</time>
      </trkpt>
      <trkpt lat="46.24650408513844" lon="11.873541930690408">
        <ele>2439</ele>
        <time>2017-07-04T12:39:28Z</time>
      </trkpt>
      <trkpt lat="46.246478352695704" lon="11.873554587364197">
        <ele>2438.04</ele>
        <time>2017-07-04T12:39:45Z</time>
      </trkpt>
      <trkpt lat="46.246450021862984" lon="11.873594904318452">
        <ele>2436.1199999999999</ele>
        <time>2017-07-04T12:39:56Z</time>
      </trkpt>
      <trkpt lat="46.246452620252967" lon="11.873669922351837">
        <ele>2434.1999999999998</ele>
        <time>2017-07-04T12:40:05Z</time>
      </trkpt>
      <trkpt lat="46.246381457895041" lon="11.873684506863356">
        <ele>2431.79</ele>
        <time>2017-07-04T12:40:14Z</time>
      </trkpt>
      <trkpt lat="46.246370142325759" lon="11.873738653957844">
        <ele>2429.8699999999999</ele>
        <time>2017-07-04T12:40:23Z</time>
      </trkpt>
      <trkpt lat="46.246361173689365" lon="11.873795315623283">
        <ele>2427.9499999999998</ele>
        <time>2017-07-04T12:40:33Z</time>
      </trkpt>
      <trkpt lat="46.246313480660319" lon="11.87383621931076">
        <ele>2426.02</ele>
        <time>2017-07-04T12:40:45Z</time>
      </trkpt>
      <trkpt lat="46.246337620541453" lon="11.873927162960172">
        <ele>2424.0999999999999</ele>
        <time>2017-07-04T12:40:56Z</time>
      </trkpt>
      <trkpt lat="46.246305434033275" lon="11.87400134280324">
        <ele>2423.1399999999999</ele>
        <time>2017-07-04T12:41:04Z</time>
      </trkpt>
      <trkpt lat="46.246259585022926" lon="11.8740448448807">
        <ele>2421.2199999999998</ele>
        <time>2017-07-04T12:41:15Z</time>
      </trkpt>
      <trkpt lat="46.246198313310742" lon="11.874090358614922">
        <ele>2418.3299999999999</ele>
        <time>2017-07-04T12:41:25Z</time>
      </trkpt>
      <trkpt lat="46.246160510927439" lon="11.874066218733788">
        <ele>2416.4099999999999</ele>
        <time>2017-07-04T12:41:35Z</time>
      </trkpt>
      <trkpt lat="46.246109884232283" lon="11.874139811843634">
        <ele>2414.0100000000002</ele>
        <time>2017-07-04T12:41:45Z</time>
      </trkpt>
      <trkpt lat="46.246045175939798" lon="11.874214662238955">
        <ele>2411.5999999999999</ele>
        <time>2017-07-04T12:41:56Z</time>
      </trkpt>
      <trkpt lat="46.246010391041636" lon="11.874227905645967">
        <ele>2410.6399999999999</ele>
        <time>2017-07-04T12:42:07Z</time>
      </trkpt>
      <trkpt lat="46.245995806530118" lon="11.874270988628268">
        <ele>2409.1999999999998</ele>
        <time>2017-07-04T12:42:18Z</time>
      </trkpt>
      <trkpt lat="46.24596806243062" lon="11.874288339167833">
        <ele>2408.2399999999998</ele>
        <time>2017-07-04T12:42:27Z</time>
      </trkpt>
      <trkpt lat="46.245979042723775" lon="11.87424567528069">
        <ele>2406.8000000000002</ele>
        <time>2017-07-04T12:42:35Z</time>
      </trkpt>
      <trkpt lat="46.245942329987884" lon="11.874228827655315">
        <ele>2404.3899999999999</ele>
        <time>2017-07-04T12:42:44Z</time>
      </trkpt>
      <trkpt lat="46.245886757969856" lon="11.87427350319922">
        <ele>2401.9899999999998</ele>
        <time>2017-07-04T12:42:55Z</time>
      </trkpt>
      <trkpt lat="46.245849626138806" lon="11.874281885102391">
        <ele>2400.5500000000002</ele>
        <time>2017-07-04T12:43:00Z</time>
      </trkpt>
      <trkpt lat="46.245802603662014" lon="11.874356232583523">
        <ele>2397.6700000000001</ele>
        <time>2017-07-04T12:43:10Z</time>
      </trkpt>
      <trkpt lat="46.245749881491065" lon="11.874419515952468">
        <ele>2395.7399999999998</ele>
        <time>2017-07-04T12:43:18Z</time>
      </trkpt>
      <trkpt lat="46.245695315301418" lon="11.874418510124087">
        <ele>2393.3400000000001</ele>
        <time>2017-07-04T12:43:28Z</time>
      </trkpt>
      <trkpt lat="46.245657093822956" lon="11.874393029138446">
        <ele>2391.9000000000001</ele>
        <time>2017-07-04T12:43:38Z</time>
      </trkpt>
      <trkpt lat="46.245634462684393" lon="11.8744523730129">
        <ele>2390.46</ele>
        <time>2017-07-04T12:43:45Z</time>
      </trkpt>
      <trkpt lat="46.245579812675714" lon="11.874484978616238">
        <ele>2389.0100000000002</ele>
        <time>2017-07-04T12:43:56Z</time>
      </trkpt>
      <trkpt lat="46.245576962828636" lon="11.874484559521079">
        <ele>2387.5700000000002</ele>
        <time>2017-07-04T12:44:00Z</time>
      </trkpt>
      <trkpt lat="46.245533460751176" lon="11.874497383832932">
        <ele>2388.0500000000002</ele>
        <time>2017-07-04T12:44:24Z</time>
      </trkpt>
      <trkpt lat="46.24546866863966" lon="11.874526552855968">
        <ele>2386.1300000000001</ele>
        <time>2017-07-04T12:44:34Z</time>
      </trkpt>
      <trkpt lat="46.245455760508776" lon="11.874559661373496">
        <ele>2385.1700000000001</ele>
        <time>2017-07-04T12:44:38Z</time>
      </trkpt>
      <trkpt lat="46.245458275079727" lon="11.874629650264978">
        <ele>2383.73</ele>
        <time>2017-07-04T12:44:44Z</time>
      </trkpt>
      <trkpt lat="46.245466321706772" lon="11.874669129028916">
        <ele>2382.7600000000002</ele>
        <time>2017-07-04T12:44:47Z</time>
      </trkpt>
      <trkpt lat="46.245432877913117" lon="11.87469863332808">
        <ele>2381.8000000000002</ele>
        <time>2017-07-04T12:44:52Z</time>
      </trkpt>
      <trkpt lat="46.245429189875722" lon="11.874777171760798">
        <ele>2379.8800000000001</ele>
        <time>2017-07-04T12:44:58Z</time>
      </trkpt>
      <trkpt lat="46.245405804365873" lon="11.87484229914844">
        <ele>2378.9200000000001</ele>
        <time>2017-07-04T12:45:04Z</time>
      </trkpt>
      <trkpt lat="46.245388118550181" lon="11.874856967478991">
        <ele>2378.4400000000001</ele>
        <time>2017-07-04T12:45:06Z</time>
      </trkpt>
      <trkpt lat="46.245378311723471" lon="11.874914299696684">
        <ele>2377.48</ele>
        <time>2017-07-04T12:45:10Z</time>
      </trkpt>
      <trkpt lat="46.245372779667377" lon="11.874991161748767">
        <ele>2376.04</ele>
        <time>2017-07-04T12:45:17Z</time>
      </trkpt>
      <trkpt lat="46.245388872921467" lon="11.875098114833236">
        <ele>2375.0700000000002</ele>
        <time>2017-07-04T12:45:24Z</time>
      </trkpt>
      <trkpt lat="46.245365906506777" lon="11.875213533639908">
        <ele>2374.1100000000001</ele>
        <time>2017-07-04T12:45:33Z</time>
      </trkpt>
      <trkpt lat="46.245344951748848" lon="11.875374801456928">
        <ele>2374.5900000000001</ele>
        <time>2017-07-04T12:45:46Z</time>
      </trkpt>
      <trkpt lat="46.245324751362205" lon="11.875454261898994">
        <ele>2375.0700000000002</ele>
        <time>2017-07-04T12:45:56Z</time>
      </trkpt>
      <trkpt lat="46.245357356965542" lon="11.875449819490314">
        <ele>2375.5500000000002</ele>
        <time>2017-07-04T12:46:07Z</time>
      </trkpt>
      <trkpt lat="46.245356351137161" lon="11.875442443415523">
        <ele>2375.0700000000002</ele>
        <time>2017-07-04T12:46:16Z</time>
      </trkpt>
      <trkpt lat="46.245338246226311" lon="11.875449735671282">
        <ele>2374.1100000000001</ele>
        <time>2017-07-04T12:46:24Z</time>
      </trkpt>
      <trkpt lat="46.245341263711452" lon="11.875470355153084">
        <ele>2374.1100000000001</ele>
        <time>2017-07-04T12:46:38Z</time>
      </trkpt>
      <trkpt lat="46.245348891243339" lon="11.875473288819194">
        <ele>2374.1100000000001</ele>
        <time>2017-07-04T12:47:08Z</time>
      </trkpt>
      <trkpt lat="46.245332211256027" lon="11.875457279384136">
        <ele>2373.6300000000001</ele>
        <time>2017-07-04T12:47:34Z</time>
      </trkpt>
      <trkpt lat="46.245333552360535" lon="11.875464739277959">
        <ele>2373.6300000000001</ele>
        <time>2017-07-04T12:47:58Z</time>
      </trkpt>
      <trkpt lat="46.245335061103106" lon="11.875458201393485">
        <ele>2373.6300000000001</ele>
        <time>2017-07-04T12:48:26Z</time>
      </trkpt>
      <trkpt lat="46.245336653664708" lon="11.875460045412183">
        <ele>2373.6300000000001</ele>
        <time>2017-07-04T12:49:05Z</time>
      </trkpt>
      <trkpt lat="46.245341682806611" lon="11.875453339889646">
        <ele>2373.1500000000001</ele>
        <time>2017-07-04T12:49:37Z</time>
      </trkpt>
      <trkpt lat="46.245344197377563" lon="11.875455267727375">
        <ele>2373.1500000000001</ele>
        <time>2017-07-04T12:50:02Z</time>
      </trkpt>
      <trkpt lat="46.245335899293423" lon="11.875470271334052">
        <ele>2373.1500000000001</ele>
        <time>2017-07-04T12:50:24Z</time>
      </trkpt>
      <trkpt lat="46.245357692241669" lon="11.875434312969446">
        <ele>2373.1500000000001</ele>
        <time>2017-07-04T12:50:47Z</time>
      </trkpt>
      <trkpt lat="46.245369510725141" lon="11.875447053462267">
        <ele>2373.6300000000001</ele>
        <time>2017-07-04T12:51:11Z</time>
      </trkpt>
      <trkpt lat="46.245354423299432" lon="11.875453172251582">
        <ele>2373.1500000000001</ele>
        <time>2017-07-04T12:51:44Z</time>
      </trkpt>
      <trkpt lat="46.245343945920467" lon="11.875454848632216">
        <ele>2373.1500000000001</ele>
        <time>2017-07-04T12:52:20Z</time>
      </trkpt>
      <trkpt lat="46.245344365015626" lon="11.875450825318694">
        <ele>2373.6300000000001</ele>
        <time>2017-07-04T12:52:39Z</time>
      </trkpt>
      <trkpt lat="46.245344532653689" lon="11.875461721792817">
        <ele>2373.1500000000001</ele>
        <time>2017-07-04T12:53:03Z</time>
      </trkpt>
      <trkpt lat="46.245343945920467" lon="11.875432971864939">
        <ele>2373.1500000000001</ele>
        <time>2017-07-04T12:53:30Z</time>
      </trkpt>
      <trkpt lat="46.245343526825309" lon="11.875448310747743">
        <ele>2373.1500000000001</ele>
        <time>2017-07-04T12:53:56Z</time>
      </trkpt>
      <trkpt lat="46.245339838787913" lon="11.875431044027209">
        <ele>2373.1500000000001</ele>
        <time>2017-07-04T12:54:17Z</time>
      </trkpt>
      <trkpt lat="46.245351992547512" lon="11.875454345718026">
        <ele>2373.1500000000001</ele>
        <time>2017-07-04T12:54:33Z</time>
      </trkpt>
      <trkpt lat="46.245346711948514" lon="11.875453591346741">
        <ele>2373.1500000000001</ele>
        <time>2017-07-04T12:55:02Z</time>
      </trkpt>
      <trkpt lat="46.245350819081068" lon="11.875468343496323">
        <ele>2372.6700000000001</ele>
        <time>2017-07-04T12:55:29Z</time>
      </trkpt>
      <trkpt lat="46.245342353358865" lon="11.87544034793973">
        <ele>2372.6700000000001</ele>
        <time>2017-07-04T12:55:49Z</time>
      </trkpt>
      <trkpt lat="46.245330283418298" lon="11.87545157968998">
        <ele>2372.6700000000001</ele>
        <time>2017-07-04T12:56:05Z</time>
      </trkpt>
      <trkpt lat="46.245322488248348" lon="11.875421572476625">
        <ele>2373.1500000000001</ele>
        <time>2017-07-04T12:56:21Z</time>
      </trkpt>
      <trkpt lat="46.245323410257697" lon="11.875419728457928">
        <ele>2373.1500000000001</ele>
        <time>2017-07-04T12:56:41Z</time>
      </trkpt>
      <trkpt lat="46.245297091081738" lon="11.875432301312685">
        <ele>2373.1500000000001</ele>
        <time>2017-07-04T12:57:02Z</time>
      </trkpt>
      <trkpt lat="46.245284853503108" lon="11.875386955216527">
        <ele>2372.6700000000001</ele>
        <time>2017-07-04T12:57:24Z</time>
      </trkpt>
      <trkpt lat="46.245268592610955" lon="11.875447053462267">
        <ele>2373.1500000000001</ele>
        <time>2017-07-04T12:57:48Z</time>
      </trkpt>
      <trkpt lat="46.245275046676397" lon="11.875430205836892">
        <ele>2373.1500000000001</ele>
        <time>2017-07-04T12:58:14Z</time>
      </trkpt>
      <trkpt lat="46.245274124667048" lon="11.875374549999833">
        <ele>2373.1500000000001</ele>
        <time>2017-07-04T12:58:41Z</time>
      </trkpt>
      <trkpt lat="46.245282841846347" lon="11.875491477549076">
        <ele>2373.1500000000001</ele>
        <time>2017-07-04T12:59:09Z</time>
      </trkpt>
      <trkpt lat="46.245310921221972" lon="11.87542375177145">
        <ele>2373.1500000000001</ele>
        <time>2017-07-04T12:59:35Z</time>
      </trkpt>
      <trkpt lat="46.245309496298432" lon="11.875416962429881">
        <ele>2373.1500000000001</ele>
        <time>2017-07-04T13:00:01Z</time>
      </trkpt>
      <trkpt lat="46.24531326815486" lon="11.875413358211517">
        <ele>2373.1500000000001</ele>
        <time>2017-07-04T13:00:23Z</time>
      </trkpt>
      <trkpt lat="46.245334222912788" lon="11.87545258551836">
        <ele>2373.1500000000001</ele>
        <time>2017-07-04T13:00:33Z</time>
      </trkpt>
      <trkpt lat="46.245330367237329" lon="11.875446634367108">
        <ele>2372.6700000000001</ele>
        <time>2017-07-04T13:00:49Z</time>
      </trkpt>
      <trkpt lat="46.245349142700434" lon="11.875442527234554">
        <ele>2372.6700000000001</ele>
        <time>2017-07-04T13:01:11Z</time>
      </trkpt>
      <trkpt lat="46.245362805202603" lon="11.875437330454588">
        <ele>2372.6700000000001</ele>
        <time>2017-07-04T13:01:33Z</time>
      </trkpt>
      <trkpt lat="46.245366409420967" lon="11.875448562204838">
        <ele>2373.1500000000001</ele>
        <time>2017-07-04T13:01:48Z</time>
      </trkpt>
      <trkpt lat="46.245365319773555" lon="11.875454764813185">
        <ele>2373.1500000000001</ele>
        <time>2017-07-04T13:02:08Z</time>
      </trkpt>
      <trkpt lat="46.245367666706443" lon="11.875445796176791">
        <ele>2373.1500000000001</ele>
        <time>2017-07-04T13:02:26Z</time>
      </trkpt>
      <trkpt lat="46.245397757738829" lon="11.875428445637226">
        <ele>2373.1500000000001</ele>
        <time>2017-07-04T13:02:52Z</time>
      </trkpt>
      <trkpt lat="46.245425250381231" lon="11.87546331435442">
        <ele>2373.1500000000001</ele>
        <time>2017-07-04T13:03:12Z</time>
      </trkpt>
      <trkpt lat="46.245440756902099" lon="11.875473624095321">
        <ele>2373.6300000000001</ele>
        <time>2017-07-04T13:03:41Z</time>
      </trkpt>
      <trkpt lat="46.245421310886741" lon="11.875456692650914">
        <ele>2373.1500000000001</ele>
        <time>2017-07-04T13:03:59Z</time>
      </trkpt>
      <trkpt lat="46.245442517101765" lon="11.875468846410513">
        <ele>2373.1500000000001</ele>
        <time>2017-07-04T13:04:20Z</time>
      </trkpt>
      <trkpt lat="46.2454251665622" lon="11.875463984906673">
        <ele>2373.1500000000001</ele>
        <time>2017-07-04T13:04:36Z</time>
      </trkpt>
      <trkpt lat="46.245446540415287" lon="11.875487035140395">
        <ele>2373.6300000000001</ele>
        <time>2017-07-04T13:04:50Z</time>
      </trkpt>
      <trkpt lat="46.245418628677726" lon="11.875491561368108">
        <ele>2373.1500000000001</ele>
        <time>2017-07-04T13:05:10Z</time>
      </trkpt>
      <trkpt lat="46.24542566947639" lon="11.875476138666272">
        <ele>2373.6300000000001</ele>
        <time>2017-07-04T13:05:33Z</time>
      </trkpt>
      <trkpt lat="46.245409576222301" lon="11.87548091635108">
        <ele>2373.6300000000001</ele>
        <time>2017-07-04T13:05:55Z</time>
      </trkpt>
      <trkpt lat="46.245348555967212" lon="11.875424506142735">
        <ele>2373.6300000000001</ele>
        <time>2017-07-04T13:06:16Z</time>
      </trkpt>
      <trkpt lat="46.245333719998598" lon="11.87542861327529">
        <ele>2373.6300000000001</ele>
        <time>2017-07-04T13:06:40Z</time>
      </trkpt>
      <trkpt lat="46.245335899293423" lon="11.875441689044237">
        <ele>2373.6300000000001</ele>
        <time>2017-07-04T13:07:06Z</time>
      </trkpt>
      <trkpt lat="46.245344448834658" lon="11.875443616881967">
        <ele>2373.6300000000001</ele>
        <time>2017-07-04T13:07:22Z</time>
      </trkpt>
      <trkpt lat="46.245358865708113" lon="11.875441186130047">
        <ele>2374.1100000000001</ele>
        <time>2017-07-04T13:07:31Z</time>
      </trkpt>
      <trkpt lat="46.245339084416628" lon="11.875464152544737">
        <ele>2374.1100000000001</ele>
        <time>2017-07-04T13:07:42Z</time>
      </trkpt>
      <trkpt lat="46.245348723605275" lon="11.87547161243856">
        <ele>2374.1100000000001</ele>
        <time>2017-07-04T13:07:56Z</time>
      </trkpt>
      <trkpt lat="46.245344700291753" lon="11.87547454610467">
        <ele>2374.1100000000001</ele>
        <time>2017-07-04T13:08:09Z</time>
      </trkpt>
      <trkpt lat="46.245342772454023" lon="11.8754608836025">
        <ele>2374.1100000000001</ele>
        <time>2017-07-04T13:08:24Z</time>
      </trkpt>
      <trkpt lat="46.245329529047012" lon="11.875465242192149">
        <ele>2374.1100000000001</ele>
        <time>2017-07-04T13:08:41Z</time>
      </trkpt>
      <trkpt lat="46.245323577895761" lon="11.875471780076623">
        <ele>2374.1100000000001</ele>
        <time>2017-07-04T13:08:59Z</time>
      </trkpt>
      <trkpt lat="46.245330115780234" lon="11.875461637973785">
        <ele>2373.6300000000001</ele>
        <time>2017-07-04T13:09:19Z</time>
      </trkpt>
      <trkpt lat="46.245328104123473" lon="11.875453758984804">
        <ele>2374.1100000000001</ele>
        <time>2017-07-04T13:09:41Z</time>
      </trkpt>
      <trkpt lat="46.245323577895761" lon="11.875534476712346">
        <ele>2374.1100000000001</ele>
        <time>2017-07-04T13:09:50Z</time>
      </trkpt>
      <trkpt lat="46.245289212092757" lon="11.875611757859588">
        <ele>2372.6700000000001</ele>
        <time>2017-07-04T13:09:58Z</time>
      </trkpt>
      <trkpt lat="46.245232298970222" lon="11.875724997371435">
        <ele>2370.75</ele>
        <time>2017-07-04T13:10:10Z</time>
      </trkpt>
      <trkpt lat="46.245188880711794" lon="11.87575944699347">
        <ele>2368.8299999999999</ele>
        <time>2017-07-04T13:10:20Z</time>
      </trkpt>
      <trkpt lat="46.245171027258039" lon="11.875753663480282">
        <ele>2368.3499999999999</ele>
        <time>2017-07-04T13:10:29Z</time>
      </trkpt>
      <trkpt lat="46.245140098035336" lon="11.87577654607594">
        <ele>2366.9000000000001</ele>
        <time>2017-07-04T13:10:43Z</time>
      </trkpt>
      <trkpt lat="46.245073042809963" lon="11.875799261033535">
        <ele>2364.5</ele>
        <time>2017-07-04T13:10:52Z</time>
      </trkpt>
      <trkpt lat="46.245005987584591" lon="11.875784927979112">
        <ele>2361.6199999999999</ele>
        <time>2017-07-04T13:11:02Z</time>
      </trkpt>
      <trkpt lat="46.244987798854709" lon="11.875910069793463">
        <ele>2359.6900000000001</ele>
        <time>2017-07-04T13:11:14Z</time>
      </trkpt>
      <trkpt lat="46.244987631216645" lon="11.875963630154729">
        <ele>2358.73</ele>
        <time>2017-07-04T13:11:18Z</time>
      </trkpt>
      <trkpt lat="46.244942955672741" lon="11.876064967364073">
        <ele>2356.3299999999999</ele>
        <time>2017-07-04T13:11:29Z</time>
      </trkpt>
      <trkpt lat="46.244907919317484" lon="11.87613177113235">
        <ele>2354.4099999999999</ele>
        <time>2017-07-04T13:11:37Z</time>
      </trkpt>
      <trkpt lat="46.244852347299457" lon="11.87618994154036">
        <ele>2352</ele>
        <time>2017-07-04T13:11:46Z</time>
      </trkpt>
      <trkpt lat="46.24481295235455" lon="11.876226654276252">
        <ele>2351.04</ele>
        <time>2017-07-04T13:11:52Z</time>
      </trkpt>
      <trkpt lat="46.244771294295788" lon="11.876299828290939">
        <ele>2350.0799999999999</ele>
        <time>2017-07-04T13:12:02Z</time>
      </trkpt>
      <trkpt lat="46.244733575731516" lon="11.876392280682921">
        <ele>2348.6399999999999</ele>
        <time>2017-07-04T13:12:11Z</time>
      </trkpt>
      <trkpt lat="46.244736090302467" lon="11.876436788588762">
        <ele>2347.6799999999998</ele>
        <time>2017-07-04T13:12:15Z</time>
      </trkpt>
      <trkpt lat="46.244709771126509" lon="11.876534186303616">
        <ele>2345.27</ele>
        <time>2017-07-04T13:12:25Z</time>
      </trkpt>
      <trkpt lat="46.244699293747544" lon="11.87657693400979">
        <ele>2345.75</ele>
        <time>2017-07-04T13:12:28Z</time>
      </trkpt>
      <trkpt lat="46.244572810828686" lon="11.876595877110958">
        <ele>2344.79</ele>
        <time>2017-07-04T13:12:40Z</time>
      </trkpt>
      <trkpt lat="46.24447432346642" lon="11.876628901809454">
        <ele>2343.8299999999999</ele>
        <time>2017-07-04T13:12:50Z</time>
      </trkpt>
      <trkpt lat="46.244405005127192" lon="11.876587327569723">
        <ele>2343.8299999999999</ele>
        <time>2017-07-04T13:12:59Z</time>
      </trkpt>
      <trkpt lat="46.244324706494808" lon="11.876603504642844">
        <ele>2345.27</ele>
        <time>2017-07-04T13:13:10Z</time>
      </trkpt>
      <trkpt lat="46.244292352348566" lon="11.876617837697268">
        <ele>2345.27</ele>
        <time>2017-07-04T13:13:13Z</time>
      </trkpt>
      <trkpt lat="46.244198642671108" lon="11.876666788011789">
        <ele>2343.3499999999999</ele>
        <time>2017-07-04T13:13:25Z</time>
      </trkpt>
      <trkpt lat="46.244117422029376" lon="11.876719426363707">
        <ele>2341.9099999999999</ele>
        <time>2017-07-04T13:13:37Z</time>
      </trkpt>
      <trkpt lat="46.244053216651082" lon="11.876745410263538">
        <ele>2339.5100000000002</ele>
        <time>2017-07-04T13:13:48Z</time>
      </trkpt>
      <trkpt lat="46.244030501693487" lon="11.876778015866876">
        <ele>2338.0599999999999</ele>
        <time>2017-07-04T13:13:58Z</time>
      </trkpt>
      <trkpt lat="46.244012732058764" lon="11.876784553751349">
        <ele>2338.0599999999999</ele>
        <time>2017-07-04T13:14:14Z</time>
      </trkpt>
      <trkpt lat="46.243990603834391" lon="11.876821434125304">
        <ele>2337.0999999999999</ele>
        <time>2017-07-04T13:14:29Z</time>
      </trkpt>
      <trkpt lat="46.243988592177629" lon="11.87685496173799">
        <ele>2336.6199999999999</ele>
        <time>2017-07-04T13:14:44Z</time>
      </trkpt>
      <trkpt lat="46.243958082050085" lon="11.876878431066871">
        <ele>2335.6599999999999</ele>
        <time>2017-07-04T13:15:00Z</time>
      </trkpt>
      <trkpt lat="46.243907790631056" lon="11.876777932047844">
        <ele>2335.6599999999999</ele>
        <time>2017-07-04T13:15:22Z</time>
      </trkpt>
      <trkpt lat="46.243964368477464" lon="11.876803580671549">
        <ele>2334.6999999999998</ele>
        <time>2017-07-04T13:15:38Z</time>
      </trkpt>
      <trkpt lat="46.243957914412022" lon="11.87681439332664">
        <ele>2333.7399999999998</ele>
        <time>2017-07-04T13:15:49Z</time>
      </trkpt>
      <trkpt lat="46.243968140333891" lon="11.876824954524636">
        <ele>2333.2600000000002</ele>
        <time>2017-07-04T13:16:01Z</time>
      </trkpt>
      <trkpt lat="46.243957076221704" lon="11.876837946474552">
        <ele>2332.7800000000002</ele>
        <time>2017-07-04T13:16:15Z</time>
      </trkpt>
      <trkpt lat="46.243948275223374" lon="11.876899637281895">
        <ele>2332.3000000000002</ele>
        <time>2017-07-04T13:16:24Z</time>
      </trkpt>
      <trkpt lat="46.243942240253091" lon="11.877009440213442">
        <ele>2331.8099999999999</ele>
        <time>2017-07-04T13:16:33Z</time>
      </trkpt>
      <trkpt lat="46.243922626599669" lon="11.877145646139979">
        <ele>2330.3699999999999</ele>
        <time>2017-07-04T13:16:44Z</time>
      </trkpt>
      <trkpt lat="46.243874514475465" lon="11.877240529283881">
        <ele>2328.4499999999998</ele>
        <time>2017-07-04T13:16:55Z</time>
      </trkpt>
      <trkpt lat="46.243834532797337" lon="11.877355696633458">
        <ele>2325.5700000000002</ele>
        <time>2017-07-04T13:17:07Z</time>
      </trkpt>
      <trkpt lat="46.243812488391995" lon="11.877464074641466">
        <ele>2325.0900000000001</ele>
        <time>2017-07-04T13:17:18Z</time>
      </trkpt>
      <trkpt lat="46.243781559169292" lon="11.877539176493883">
        <ele>2323.1599999999999</ele>
        <time>2017-07-04T13:17:30Z</time>
      </trkpt>
      <trkpt lat="46.243753815069795" lon="11.877573626115918">
        <ele>2320.7600000000002</ele>
        <time>2017-07-04T13:17:44Z</time>
      </trkpt>
      <trkpt lat="46.243740152567625" lon="11.877621486783028">
        <ele>2319.3200000000002</ele>
        <time>2017-07-04T13:17:54Z</time>
      </trkpt>
      <trkpt lat="46.243740487843752" lon="11.87767487950623">
        <ele>2317.8800000000001</ele>
        <time>2017-07-04T13:18:04Z</time>
      </trkpt>
      <trkpt lat="46.24373503960669" lon="11.877712095156312">
        <ele>2316.9099999999999</ele>
        <time>2017-07-04T13:18:14Z</time>
      </trkpt>
      <trkpt lat="46.243724226951599" lon="11.877738917246461">
        <ele>2316.4299999999998</ele>
        <time>2017-07-04T13:18:24Z</time>
      </trkpt>
      <trkpt lat="46.24372573569417" lon="11.877750987187028">
        <ele>2314.5100000000002</ele>
        <time>2017-07-04T13:18:35Z</time>
      </trkpt>
      <trkpt lat="46.243712240830064" lon="11.877801446244121">
        <ele>2313.0700000000002</ele>
        <time>2017-07-04T13:18:44Z</time>
      </trkpt>
      <trkpt lat="46.243706457316875" lon="11.877888785675168">
        <ele>2311.1500000000001</ele>
        <time>2017-07-04T13:18:54Z</time>
      </trkpt>
      <trkpt lat="46.243690280243754" lon="11.877926420420408">
        <ele>2309.6999999999998</ele>
        <time>2017-07-04T13:19:04Z</time>
      </trkpt>
      <trkpt lat="46.243635797873139" lon="11.877966737374663">
        <ele>2307.3000000000002</ele>
        <time>2017-07-04T13:19:15Z</time>
      </trkpt>
      <trkpt lat="46.243588356301188" lon="11.878039995208383">
        <ele>2307.7800000000002</ele>
        <time>2017-07-04T13:19:26Z</time>
      </trkpt>
      <trkpt lat="46.243521384894848" lon="11.8780477065593">
        <ele>2308.7399999999998</ele>
        <time>2017-07-04T13:19:36Z</time>
      </trkpt>
      <trkpt lat="46.243521887809038" lon="11.87806723639369">
        <ele>2309.2199999999998</ele>
        <time>2017-07-04T13:19:49Z</time>
      </trkpt>
      <trkpt lat="46.243514847010374" lon="11.87805206514895">
        <ele>2309.2199999999998</ele>
        <time>2017-07-04T13:20:03Z</time>
      </trkpt>
      <trkpt lat="46.24351073987782" lon="11.878072433173656">
        <ele>2309.2199999999998</ele>
        <time>2017-07-04T13:20:15Z</time>
      </trkpt>
      <trkpt lat="46.243526162579656" lon="11.878093220293522">
        <ele>2309.2199999999998</ele>
        <time>2017-07-04T13:20:25Z</time>
      </trkpt>
      <trkpt lat="46.243509314954281" lon="11.878076456487179">
        <ele>2308.7399999999998</ele>
        <time>2017-07-04T13:20:42Z</time>
      </trkpt>
      <trkpt lat="46.24347704462707" lon="11.878042090684175">
        <ele>2309.2199999999998</ele>
        <time>2017-07-04T13:21:03Z</time>
      </trkpt>
      <trkpt lat="46.243500849232078" lon="11.878096321597695">
        <ele>2308.7399999999998</ele>
        <time>2017-07-04T13:21:12Z</time>
      </trkpt>
      <trkpt lat="46.243474949151278" lon="11.878090286627412">
        <ele>2308.7399999999998</ele>
        <time>2017-07-04T13:21:26Z</time>
      </trkpt>
      <trkpt lat="46.24344234354794" lon="11.878107972443104">
        <ele>2306.8200000000002</ele>
        <time>2017-07-04T13:21:37Z</time>
      </trkpt>
      <trkpt lat="46.243416694924235" lon="11.878111409023404">
        <ele>2305.3800000000001</ele>
        <time>2017-07-04T13:21:47Z</time>
      </trkpt>
      <trkpt lat="46.24341401271522" lon="11.878178296610713">
        <ele>2302.4899999999998</ele>
        <time>2017-07-04T13:21:59Z</time>
      </trkpt>
      <trkpt lat="46.243370175361633" lon="11.878183241933584">
        <ele>2300.5700000000002</ele>
        <time>2017-07-04T13:22:09Z</time>
      </trkpt>
      <trkpt lat="46.243348801508546" lon="11.878137560561299">
        <ele>2299.6100000000001</ele>
        <time>2017-07-04T13:22:22Z</time>
      </trkpt>
      <trkpt lat="46.243285518139601" lon="11.87814200296998">
        <ele>2297.21</ele>
        <time>2017-07-04T13:22:34Z</time>
      </trkpt>
      <trkpt lat="46.243262719362974" lon="11.878195311874151">
        <ele>2294.8000000000002</ele>
        <time>2017-07-04T13:22:43Z</time>
      </trkpt>
      <trkpt lat="46.243242854252458" lon="11.878211656585336">
        <ele>2293.8400000000001</ele>
        <time>2017-07-04T13:22:52Z</time>
      </trkpt>
      <trkpt lat="46.24320387840271" lon="11.878194976598024">
        <ele>2291.9200000000001</ele>
        <time>2017-07-04T13:23:01Z</time>
      </trkpt>
      <trkpt lat="46.243173619732261" lon="11.878180224448442">
        <ele>2290.48</ele>
        <time>2017-07-04T13:23:11Z</time>
      </trkpt>
      <trkpt lat="46.243168339133263" lon="11.878254152834415">
        <ele>2288.0799999999999</ele>
        <time>2017-07-04T13:23:21Z</time>
      </trkpt>
      <trkpt lat="46.243146965280175" lon="11.878302600234747">
        <ele>2286.1500000000001</ele>
        <time>2017-07-04T13:23:30Z</time>
      </trkpt>
      <trkpt lat="46.243135649710894" lon="11.878369655460119">
        <ele>2284.23</ele>
        <time>2017-07-04T13:23:39Z</time>
      </trkpt>
      <trkpt lat="46.243141433224082" lon="11.878381641581655">
        <ele>2282.79</ele>
        <time>2017-07-04T13:23:48Z</time>
      </trkpt>
      <trkpt lat="46.243143612518907" lon="11.878389688208699">
        <ele>2282.79</ele>
        <time>2017-07-04T13:24:00Z</time>
      </trkpt>
      <trkpt lat="46.243155347183347" lon="11.87842782586813">
        <ele>2282.79</ele>
        <time>2017-07-04T13:24:03Z</time>
      </trkpt>
      <trkpt lat="46.243174457922578" lon="11.878508711233735">
        <ele>2281.8299999999999</ele>
        <time>2017-07-04T13:24:09Z</time>
      </trkpt>
      <trkpt lat="46.243198765441775" lon="11.878527570515871">
        <ele>2281.8299999999999</ele>
        <time>2017-07-04T13:24:19Z</time>
      </trkpt>
      <trkpt lat="46.243165070191026" lon="11.87849479727447">
        <ele>2281.8299999999999</ele>
        <time>2017-07-04T13:24:30Z</time>
      </trkpt>
      <trkpt lat="46.243159538134933" lon="11.87847476452589">
        <ele>2281.8299999999999</ele>
        <time>2017-07-04T13:24:59Z</time>
      </trkpt>
      <trkpt lat="46.243210081011057" lon="11.878531845286489">
        <ele>2281.8299999999999</ele>
        <time>2017-07-04T13:25:11Z</time>
      </trkpt>
      <trkpt lat="46.243230029940605" lon="11.878613401204348">
        <ele>2281.8299999999999</ele>
        <time>2017-07-04T13:25:21Z</time>
      </trkpt>
      <trkpt lat="46.243276884779334" lon="11.878682635724545">
        <ele>2279.4200000000001</ele>
        <time>2017-07-04T13:25:31Z</time>
      </trkpt>
      <trkpt lat="46.243296330794692" lon="11.878718426451087">
        <ele>2278.46</ele>
        <time>2017-07-04T13:25:38Z</time>
      </trkpt>
      <trkpt lat="46.243285266682506" lon="11.878759581595659">
        <ele>2276.54</ele>
        <time>2017-07-04T13:25:47Z</time>
      </trkpt>
      <trkpt lat="46.243299851194024" lon="11.878751032054424">
        <ele>2276.0599999999999</ele>
        <time>2017-07-04T13:25:55Z</time>
      </trkpt>
      <trkpt lat="46.243290463462472" lon="11.878785816952586">
        <ele>2275.0999999999999</ele>
        <time>2017-07-04T13:26:05Z</time>
      </trkpt>
      <trkpt lat="46.243301862850785" lon="11.878793779760599">
        <ele>2273.6599999999999</ele>
        <time>2017-07-04T13:26:15Z</time>
      </trkpt>
      <trkpt lat="46.243305886164308" lon="11.878829570487142">
        <ele>2274.1399999999999</ele>
        <time>2017-07-04T13:26:27Z</time>
      </trkpt>
      <trkpt lat="46.243315692991018" lon="11.878885058686137">
        <ele>2273.1700000000001</ele>
        <time>2017-07-04T13:26:37Z</time>
      </trkpt>
      <trkpt lat="46.24332114122808" lon="11.878898721188307">
        <ele>2272.21</ele>
        <time>2017-07-04T13:26:44Z</time>
      </trkpt>
      <trkpt lat="46.243317872285843" lon="11.87897801399231">
        <ele>2270.29</ele>
        <time>2017-07-04T13:26:54Z</time>
      </trkpt>
      <trkpt lat="46.243320135399699" lon="11.879037190228701">
        <ele>2269.3299999999999</ele>
        <time>2017-07-04T13:26:59Z</time>
      </trkpt>
      <trkpt lat="46.243308987468481" lon="11.879070214927197">
        <ele>2268.3699999999999</ele>
        <time>2017-07-04T13:27:02Z</time>
      </trkpt>
      <trkpt lat="46.243302449584007" lon="11.87920575030148">
        <ele>2267.4099999999999</ele>
        <time>2017-07-04T13:27:12Z</time>
      </trkpt>
      <trkpt lat="46.243295576423407" lon="11.87930054962635">
        <ele>2266.4499999999998</ele>
        <time>2017-07-04T13:27:21Z</time>
      </trkpt>
      <trkpt lat="46.243287865072489" lon="11.879315050318837">
        <ele>2265.96</ele>
        <time>2017-07-04T13:27:23Z</time>
      </trkpt>
      <trkpt lat="46.2432302813977" lon="11.879361653700471">
        <ele>2263.0799999999999</ele>
        <time>2017-07-04T13:27:33Z</time>
      </trkpt>
      <trkpt lat="46.243230365216732" lon="11.879428625106812">
        <ele>2261.1599999999999</ele>
        <time>2017-07-04T13:27:42Z</time>
      </trkpt>
      <trkpt lat="46.243212092667818" lon="11.879500458016992">
        <ele>2259.2399999999998</ele>
        <time>2017-07-04T13:27:50Z</time>
      </trkpt>
      <trkpt lat="46.243194825947285" lon="11.879542116075754">
        <ele>2256.8299999999999</ele>
        <time>2017-07-04T13:27:58Z</time>
      </trkpt>
      <trkpt lat="46.243217121809721" lon="11.879649739712477">
        <ele>2253.9499999999998</ele>
        <time>2017-07-04T13:28:09Z</time>
      </trkpt>
      <trkpt lat="46.243237238377333" lon="11.879742192104459">
        <ele>2252.0300000000002</ele>
        <time>2017-07-04T13:28:18Z</time>
      </trkpt>
      <trkpt lat="46.243240004405379" lon="11.879838583990932">
        <ele>2249.1399999999999</ele>
        <time>2017-07-04T13:28:29Z</time>
      </trkpt>
      <trkpt lat="46.243234304711223" lon="11.879928521811962">
        <ele>2246.7399999999998</ele>
        <time>2017-07-04T13:28:38Z</time>
      </trkpt>
      <trkpt lat="46.243236064910889" lon="11.879991050809622">
        <ele>2244.8200000000002</ele>
        <time>2017-07-04T13:28:48Z</time>
      </trkpt>
      <trkpt lat="46.243253415450454" lon="11.880024243146181">
        <ele>2243.8499999999999</ele>
        <time>2017-07-04T13:28:52Z</time>
      </trkpt>
      <trkpt lat="46.243240088224411" lon="11.880099596455693">
        <ele>2241.4499999999998</ele>
        <time>2017-07-04T13:29:01Z</time>
      </trkpt>
      <trkpt lat="46.243278477340937" lon="11.880178553983569">
        <ele>2239.5300000000002</ele>
        <time>2017-07-04T13:29:11Z</time>
      </trkpt>
      <trkpt lat="46.243308484554291" lon="11.880268072709441">
        <ele>2237.1300000000001</ele>
        <time>2017-07-04T13:29:22Z</time>
      </trkpt>
      <trkpt lat="46.243301024660468" lon="11.880333451554179">
        <ele>2235.6799999999998</ele>
        <time>2017-07-04T13:29:32Z</time>
      </trkpt>
      <trkpt lat="46.243317034095526" lon="11.880404446274042">
        <ele>2233.2800000000002</ele>
        <time>2017-07-04T13:29:42Z</time>
      </trkpt>
      <trkpt lat="46.243340168148279" lon="11.8804497923702">
        <ele>2232.8000000000002</ele>
        <time>2017-07-04T13:29:51Z</time>
      </trkpt>
      <trkpt lat="46.243332540616393" lon="11.880516177043319">
        <ele>2232.3200000000002</ele>
        <time>2017-07-04T13:30:02Z</time>
      </trkpt>
      <trkpt lat="46.243324326351285" lon="11.880590692162514">
        <ele>2230.4000000000001</ele>
        <time>2017-07-04T13:30:12Z</time>
      </trkpt>
      <trkpt lat="46.243314854800701" lon="11.880682557821274">
        <ele>2228.4699999999998</ele>
        <time>2017-07-04T13:30:24Z</time>
      </trkpt>
      <trkpt lat="46.243313513696194" lon="11.880777943879366">
        <ele>2226.5500000000002</ele>
        <time>2017-07-04T13:30:36Z</time>
      </trkpt>
      <trkpt lat="46.24328644014895" lon="11.880829995498061">
        <ele>2225.1100000000001</ele>
        <time>2017-07-04T13:30:46Z</time>
      </trkpt>
      <trkpt lat="46.243266072124243" lon="11.880842903628945">
        <ele>2223.1900000000001</ele>
        <time>2017-07-04T13:30:56Z</time>
      </trkpt>
      <trkpt lat="46.243259366601706" lon="11.880832090973854">
        <ele>2222.2199999999998</ele>
        <time>2017-07-04T13:31:06Z</time>
      </trkpt>
      <trkpt lat="46.243237154558301" lon="11.880843658000231">
        <ele>2221.2600000000002</ele>
        <time>2017-07-04T13:31:16Z</time>
      </trkpt>
      <trkpt lat="46.243225084617734" lon="11.880920771509409">
        <ele>2218.8600000000001</ele>
        <time>2017-07-04T13:31:27Z</time>
      </trkpt>
      <trkpt lat="46.243222402408719" lon="11.881001740694046">
        <ele>2216.9400000000001</ele>
        <time>2017-07-04T13:31:38Z</time>
      </trkpt>
      <trkpt lat="46.243208404630423" lon="11.881074076518416">
        <ele>2215.5</ele>
        <time>2017-07-04T13:31:49Z</time>
      </trkpt>
      <trkpt lat="46.243219720199704" lon="11.88107474707067">
        <ele>2215.0100000000002</ele>
        <time>2017-07-04T13:32:05Z</time>
      </trkpt>
      <trkpt lat="46.24319214373827" lon="11.881155967712402">
        <ele>2213.5700000000002</ele>
        <time>2017-07-04T13:32:16Z</time>
      </trkpt>
      <trkpt lat="46.243164064362645" lon="11.881207348778844">
        <ele>2212.1300000000001</ele>
        <time>2017-07-04T13:32:21Z</time>
      </trkpt>
      <trkpt lat="46.243144785985351" lon="11.881237188354135">
        <ele>2211.6500000000001</ele>
        <time>2017-07-04T13:32:24Z</time>
      </trkpt>
      <trkpt lat="46.243183007463813" lon="11.881335508078337">
        <ele>2209.73</ele>
        <time>2017-07-04T13:32:35Z</time>
      </trkpt>
      <trkpt lat="46.24320731498301" lon="11.881345482543111">
        <ele>2208.77</ele>
        <time>2017-07-04T13:32:38Z</time>
      </trkpt>
      <trkpt lat="46.243255510926247" lon="11.881411531940103">
        <ele>2207.3200000000002</ele>
        <time>2017-07-04T13:32:48Z</time>
      </trkpt>
      <trkpt lat="46.243293480947614" lon="11.881466349586844">
        <ele>2206.3600000000001</ele>
        <time>2017-07-04T13:32:58Z</time>
      </trkpt>
      <trkpt lat="46.24330060556531" lon="11.881593586876988">
        <ele>2204.4400000000001</ele>
        <time>2017-07-04T13:33:09Z</time>
      </trkpt>
      <trkpt lat="46.243294654414058" lon="11.88164203427732">
        <ele>2203</ele>
        <time>2017-07-04T13:33:14Z</time>
      </trkpt>
      <trkpt lat="46.243291972205043" lon="11.881733732298017">
        <ele>2201.0799999999999</ele>
        <time>2017-07-04T13:33:22Z</time>
      </trkpt>
      <trkpt lat="46.243309658020735" lon="11.881831884384155">
        <ele>2199.1500000000001</ele>
        <time>2017-07-04T13:33:33Z</time>
      </trkpt>
      <trkpt lat="46.243321057409048" lon="11.88190246000886">
        <ele>2198.1900000000001</ele>
        <time>2017-07-04T13:33:40Z</time>
      </trkpt>
      <trkpt lat="46.243378473445773" lon="11.882004048675299">
        <ele>2198.1900000000001</ele>
        <time>2017-07-04T13:33:51Z</time>
      </trkpt>
      <trkpt lat="46.243397500365973" lon="11.882022824138403">
        <ele>2196.75</ele>
        <time>2017-07-04T13:33:54Z</time>
      </trkpt>
      <trkpt lat="46.24341543763876" lon="11.882069176062942">
        <ele>2195.3099999999999</ele>
        <time>2017-07-04T13:34:04Z</time>
      </trkpt>
      <trkpt lat="46.243468495085835" lon="11.882067834958434">
        <ele>2194.3499999999999</ele>
        <time>2017-07-04T13:34:15Z</time>
      </trkpt>
      <trkpt lat="46.243445780128241" lon="11.882141847163439">
        <ele>2193.8699999999999</ele>
        <time>2017-07-04T13:34:27Z</time>
      </trkpt>
      <trkpt lat="46.243432201445103" lon="11.882209572941065">
        <ele>2192.9000000000001</ele>
        <time>2017-07-04T13:34:34Z</time>
      </trkpt>
      <trkpt lat="46.243452737107873" lon="11.882354831323028">
        <ele>2190.02</ele>
        <time>2017-07-04T13:34:47Z</time>
      </trkpt>
      <trkpt lat="46.243461705744267" lon="11.882429849356413">
        <ele>2188.0999999999999</ele>
        <time>2017-07-04T13:34:55Z</time>
      </trkpt>
      <trkpt lat="46.243465812876821" lon="11.882541077211499">
        <ele>2185.6900000000001</ele>
        <time>2017-07-04T13:35:05Z</time>
      </trkpt>
      <trkpt lat="46.243465058505535" lon="11.882720617577434">
        <ele>2182.8099999999999</ele>
        <time>2017-07-04T13:35:19Z</time>
      </trkpt>
      <trkpt lat="46.24345550313592" lon="11.88279177993536">
        <ele>2180.8899999999999</ele>
        <time>2017-07-04T13:35:28Z</time>
      </trkpt>
      <trkpt lat="46.24343697912991" lon="11.882876940071583">
        <ele>2178.9699999999998</ele>
        <time>2017-07-04T13:35:39Z</time>
      </trkpt>
      <trkpt lat="46.243418203666806" lon="11.882972829043865">
        <ele>2176.5599999999999</ele>
        <time>2017-07-04T13:35:49Z</time>
      </trkpt>
      <trkpt lat="46.243410827592015" lon="11.883053295314312">
        <ele>2175.1199999999999</ele>
        <time>2017-07-04T13:35:59Z</time>
      </trkpt>
      <trkpt lat="46.243420131504536" lon="11.883134096860886">
        <ele>2173.6799999999998</ele>
        <time>2017-07-04T13:36:08Z</time>
      </trkpt>
      <trkpt lat="46.243382999673486" lon="11.883173659443855">
        <ele>2173.1999999999998</ele>
        <time>2017-07-04T13:36:18Z</time>
      </trkpt>
      <trkpt lat="46.243357015773654" lon="11.883246665820479">
        <ele>2170.79</ele>
        <time>2017-07-04T13:36:29Z</time>
      </trkpt>
      <trkpt lat="46.243344862014055" lon="11.883305674418807">
        <ele>2169.3499999999999</ele>
        <time>2017-07-04T13:36:38Z</time>
      </trkpt>
      <trkpt lat="46.243290798738599" lon="11.883341800421476">
        <ele>2167.4299999999998</ele>
        <time>2017-07-04T13:36:48Z</time>
      </trkpt>
      <trkpt lat="46.243257690221071" lon="11.883397120982409">
        <ele>2165.9899999999998</ele>
        <time>2017-07-04T13:36:58Z</time>
      </trkpt>
      <trkpt lat="46.243253499269485" lon="11.883449759334326">
        <ele>2165.0300000000002</ele>
        <time>2017-07-04T13:37:03Z</time>
      </trkpt>
      <trkpt lat="46.24323514290154" lon="11.883481359109282">
        <ele>2164.5500000000002</ele>
        <time>2017-07-04T13:37:12Z</time>
      </trkpt>
      <trkpt lat="46.243221396580338" lon="11.883490495383739">
        <ele>2164.0599999999999</ele>
        <time>2017-07-04T13:37:27Z</time>
      </trkpt>
      <trkpt lat="46.243217205628753" lon="11.883520251139998">
        <ele>2164.0599999999999</ele>
        <time>2017-07-04T13:37:36Z</time>
      </trkpt>
      <trkpt lat="46.243187114596367" lon="11.883547995239496">
        <ele>2162.6199999999999</ele>
        <time>2017-07-04T13:37:46Z</time>
      </trkpt>
      <trkpt lat="46.243167584761977" lon="11.883564591407776">
        <ele>2161.1799999999998</ele>
        <time>2017-07-04T13:37:56Z</time>
      </trkpt>
      <trkpt lat="46.243121484294534" lon="11.883554365485907">
        <ele>2159.7399999999998</ele>
        <time>2017-07-04T13:38:04Z</time>
      </trkpt>
      <trkpt lat="46.243106396868825" lon="11.88354916870594">
        <ele>2158.7800000000002</ele>
        <time>2017-07-04T13:38:14Z</time>
      </trkpt>
      <trkpt lat="46.243097428232431" lon="11.883552605286241">
        <ele>2158.7800000000002</ele>
        <time>2017-07-04T13:38:23Z</time>
      </trkpt>
      <trkpt lat="46.24306901358068" lon="11.883602729067206">
        <ele>2157.3400000000001</ele>
        <time>2017-07-04T13:38:35Z</time>
      </trkpt>
      <trkpt lat="46.243065157905221" lon="11.883584540337324">
        <ele>2157.3400000000001</ele>
        <time>2017-07-04T13:39:00Z</time>
      </trkpt>
      <trkpt lat="46.243048729375005" lon="11.883601136505604">
        <ele>2156.8600000000001</ele>
        <time>2017-07-04T13:39:19Z</time>
      </trkpt>
      <trkpt lat="46.243021655827761" lon="11.883564004674554">
        <ele>2155.8899999999999</ele>
        <time>2017-07-04T13:39:27Z</time>
      </trkpt>
      <trkpt lat="46.242992738261819" lon="11.88356869854033">
        <ele>2153.9699999999998</ele>
        <time>2017-07-04T13:39:39Z</time>
      </trkpt>
      <trkpt lat="46.242955606430769" lon="11.883561238646507">
        <ele>2153.4899999999998</ele>
        <time>2017-07-04T13:39:57Z</time>
      </trkpt>
      <trkpt lat="46.242945967242122" lon="11.883562579751015">
        <ele>2152.5300000000002</ele>
        <time>2017-07-04T13:39:59Z</time>
      </trkpt>
      <trkpt lat="46.242907745763659" lon="11.883586971089244">
        <ele>2150.6100000000001</ele>
        <time>2017-07-04T13:40:09Z</time>
      </trkpt>
      <trkpt lat="46.242856616154313" lon="11.883594179525971">
        <ele>2148.6799999999998</ele>
        <time>2017-07-04T13:40:16Z</time>
      </trkpt>
      <trkpt lat="46.242802971974015" lon="11.883681183680892">
        <ele>2145.8000000000002</ele>
        <time>2017-07-04T13:40:27Z</time>
      </trkpt>
      <trkpt lat="46.242784280329943" lon="11.883679004386067">
        <ele>2145.3200000000002</ele>
        <time>2017-07-04T13:40:29Z</time>
      </trkpt>
      <trkpt lat="46.242736503481865" lon="11.883645476773381">
        <ele>2142.9200000000001</ele>
        <time>2017-07-04T13:40:39Z</time>
      </trkpt>
      <trkpt lat="46.242701131850481" lon="11.88370943069458">
        <ele>2140.5100000000002</ele>
        <time>2017-07-04T13:40:49Z</time>
      </trkpt>
      <trkpt lat="46.24267615377903" lon="11.883755447342992">
        <ele>2139.0700000000002</ele>
        <time>2017-07-04T13:40:59Z</time>
      </trkpt>
      <trkpt lat="46.242647068575025" lon="11.88380473293364">
        <ele>2137.6300000000001</ele>
        <time>2017-07-04T13:41:09Z</time>
      </trkpt>
      <trkpt lat="46.242620833218098" lon="11.883833399042487">
        <ele>2136.6700000000001</ele>
        <time>2017-07-04T13:41:24Z</time>
      </trkpt>
      <trkpt lat="46.242594765499234" lon="11.883809678256512">
        <ele>2134.7399999999998</ele>
        <time>2017-07-04T13:41:33Z</time>
      </trkpt>
      <trkpt lat="46.242592753842473" lon="11.8838154617697">
        <ele>2133.7800000000002</ele>
        <time>2017-07-04T13:41:34Z</time>
      </trkpt>
      <trkpt lat="46.242562411352992" lon="11.883897269144654">
        <ele>2131.8600000000001</ele>
        <time>2017-07-04T13:41:44Z</time>
      </trkpt>
      <trkpt lat="46.242508264258504" lon="11.883916966617107">
        <ele>2129.9400000000001</ele>
        <time>2017-07-04T13:41:55Z</time>
      </trkpt>
      <trkpt lat="46.242478089407086" lon="11.883917637169361">
        <ele>2128.5</ele>
        <time>2017-07-04T13:42:03Z</time>
      </trkpt>
      <trkpt lat="46.242483370006084" lon="11.883932808414102">
        <ele>2128.5</ele>
        <time>2017-07-04T13:42:16Z</time>
      </trkpt>
      <trkpt lat="46.24244062229991" lon="11.883895676583052">
        <ele>2127.5300000000002</ele>
        <time>2017-07-04T13:42:29Z</time>
      </trkpt>
      <trkpt lat="46.242425786331296" lon="11.883903974667192">
        <ele>2126.5700000000002</ele>
        <time>2017-07-04T13:42:32Z</time>
      </trkpt>
      <trkpt lat="46.242404077202082" lon="11.88387262634933">
        <ele>2125.6100000000001</ele>
        <time>2017-07-04T13:42:41Z</time>
      </trkpt>
      <trkpt lat="46.242381948977709" lon="11.883862735703588">
        <ele>2124.6500000000001</ele>
        <time>2017-07-04T13:42:50Z</time>
      </trkpt>
      <trkpt lat="46.242380272597075" lon="11.883894922211766">
        <ele>2122.73</ele>
        <time>2017-07-04T13:43:00Z</time>
      </trkpt>
      <trkpt lat="46.242328304797411" lon="11.883892491459846">
        <ele>2121.29</ele>
        <time>2017-07-04T13:43:09Z</time>
      </trkpt>
      <trkpt lat="46.242305589839816" lon="11.883941441774368">
        <ele>2119.8400000000001</ele>
        <time>2017-07-04T13:43:17Z</time>
      </trkpt>
      <trkpt lat="46.242249934002757" lon="11.883983854204416">
        <ele>2117.9200000000001</ele>
        <time>2017-07-04T13:43:28Z</time>
      </trkpt>
      <trkpt lat="46.242244569584727" lon="11.883964827284217">
        <ele>2116</ele>
        <time>2017-07-04T13:43:39Z</time>
      </trkpt>
      <trkpt lat="46.242248173803091" lon="11.883963737636805">
        <ele>2115.52</ele>
        <time>2017-07-04T13:43:51Z</time>
      </trkpt>
      <trkpt lat="46.242253454402089" lon="11.883964743465185">
        <ele>2115.52</ele>
        <time>2017-07-04T13:44:04Z</time>
      </trkpt>
      <trkpt lat="46.242257645353675" lon="11.883990056812763">
        <ele>2115.52</ele>
        <time>2017-07-04T13:44:07Z</time>
      </trkpt>
      <trkpt lat="46.242215819656849" lon="11.88404705375433">
        <ele>2114.0799999999999</ele>
        <time>2017-07-04T13:44:17Z</time>
      </trkpt>
      <trkpt lat="46.242148010060191" lon="11.884047891944647">
        <ele>2112.1500000000001</ele>
        <time>2017-07-04T13:44:25Z</time>
      </trkpt>
      <trkpt lat="46.242082295939326" lon="11.884081671014428">
        <ele>2109.75</ele>
        <time>2017-07-04T13:44:37Z</time>
      </trkpt>
      <trkpt lat="46.242034770548344" lon="11.884110504761338">
        <ele>2106.8699999999999</ele>
        <time>2017-07-04T13:44:46Z</time>
      </trkpt>
      <trkpt lat="46.24202479608357" lon="11.884098099544644">
        <ele>2105.4200000000001</ele>
        <time>2017-07-04T13:44:54Z</time>
      </trkpt>
      <trkpt lat="46.242019599303603" lon="11.884139087051153">
        <ele>2103.98</ele>
        <time>2017-07-04T13:45:01Z</time>
      </trkpt>
      <trkpt lat="46.242015659809113" lon="11.884154258295894">
        <ele>2103.02</ele>
        <time>2017-07-04T13:45:04Z</time>
      </trkpt>
      <trkpt lat="46.241966458037496" lon="11.884148307144642">
        <ele>2101.5799999999999</ele>
        <time>2017-07-04T13:45:13Z</time>
      </trkpt>
      <trkpt lat="46.241958746686578" lon="11.884154677391052">
        <ele>2100.1399999999999</ele>
        <time>2017-07-04T13:45:21Z</time>
      </trkpt>
      <trkpt lat="46.241946676746011" lon="11.88420245423913">
        <ele>2098.21</ele>
        <time>2017-07-04T13:45:30Z</time>
      </trkpt>
      <trkpt lat="46.241922117769718" lon="11.88418535515666">
        <ele>2096.77</ele>
        <time>2017-07-04T13:45:39Z</time>
      </trkpt>
      <trkpt lat="46.241917004808784" lon="11.884155767038465">
        <ele>2095.8099999999999</ele>
        <time>2017-07-04T13:45:49Z</time>
      </trkpt>
      <trkpt lat="46.241907114163041" lon="11.884146379306912">
        <ele>2095.3299999999999</ele>
        <time>2017-07-04T13:45:58Z</time>
      </trkpt>
      <trkpt lat="46.24189680442214" lon="11.884158449247479">
        <ele>2093.8899999999999</ele>
        <time>2017-07-04T13:46:08Z</time>
      </trkpt>
      <trkpt lat="46.241903929039836" lon="11.884166160598397">
        <ele>2093.4099999999999</ele>
        <time>2017-07-04T13:46:21Z</time>
      </trkpt>
      <trkpt lat="46.241887416690588" lon="11.884183259680867">
        <ele>2092.4499999999998</ele>
        <time>2017-07-04T13:46:30Z</time>
      </trkpt>
      <trkpt lat="46.241877190768719" lon="11.884201029315591">
        <ele>2091.4899999999998</ele>
        <time>2017-07-04T13:46:43Z</time>
      </trkpt>
      <trkpt lat="46.241878783330321" lon="11.884200442582369">
        <ele>2090.52</ele>
        <time>2017-07-04T13:46:52Z</time>
      </trkpt>
      <trkpt lat="46.241892445832491" lon="11.8842161167413">
        <ele>2090.52</ele>
        <time>2017-07-04T13:47:08Z</time>
      </trkpt>
      <trkpt lat="46.24189873225987" lon="11.884235059842467">
        <ele>2090.52</ele>
        <time>2017-07-04T13:47:26Z</time>
      </trkpt>
      <trkpt lat="46.241861432790756" lon="11.884227767586708">
        <ele>2089.5599999999999</ele>
        <time>2017-07-04T13:47:41Z</time>
      </trkpt>
      <trkpt lat="46.241862270981073" lon="11.884217541664839">
        <ele>2089.0799999999999</ele>
        <time>2017-07-04T13:47:53Z</time>
      </trkpt>
      <trkpt lat="46.241878112778068" lon="11.884189043194056">
        <ele>2089.0799999999999</ele>
        <time>2017-07-04T13:48:10Z</time>
      </trkpt>
      <trkpt lat="46.241883477196097" lon="11.884201699867845">
        <ele>2088.5999999999999</ele>
        <time>2017-07-04T13:48:23Z</time>
      </trkpt>
      <trkpt lat="46.241875682026148" lon="11.884191473945975">
        <ele>2087.6399999999999</ele>
        <time>2017-07-04T13:48:38Z</time>
      </trkpt>
      <trkpt lat="46.241857828572392" lon="11.884196335449815">
        <ele>2087.1599999999999</ele>
        <time>2017-07-04T13:48:47Z</time>
      </trkpt>
      <trkpt lat="46.24183913692832" lon="11.884238831698895">
        <ele>2086.1999999999998</ele>
        <time>2017-07-04T13:48:57Z</time>
      </trkpt>
      <trkpt lat="46.241835029795766" lon="11.884236233308911">
        <ele>2085.7199999999998</ele>
        <time>2017-07-04T13:48:58Z</time>
      </trkpt>
      <trkpt lat="46.241832599043846" lon="11.884242938831449">
        <ele>2083.79</ele>
        <time>2017-07-04T13:49:07Z</time>
      </trkpt>
      <trkpt lat="46.24179370701313" lon="11.884257439523935">
        <ele>2082.3499999999999</ele>
        <time>2017-07-04T13:49:17Z</time>
      </trkpt>
      <trkpt lat="46.241784235462546" lon="11.884190049022436">
        <ele>2080.9099999999999</ele>
        <time>2017-07-04T13:49:26Z</time>
      </trkpt>
      <trkpt lat="46.241802172735333" lon="11.88420832157135">
        <ele>2080.9099999999999</ele>
        <time>2017-07-04T13:49:36Z</time>
      </trkpt>
      <trkpt lat="46.241777781397104" lon="11.884205052629113">
        <ele>2079.9499999999998</ele>
        <time>2017-07-04T13:49:45Z</time>
      </trkpt>
      <trkpt lat="46.241750037297606" lon="11.88421905040741">
        <ele>2078.0300000000002</ele>
        <time>2017-07-04T13:49:54Z</time>
      </trkpt>
      <trkpt lat="46.241738218814135" lon="11.884173033758998">
        <ele>2076.5900000000001</ele>
        <time>2017-07-04T13:50:03Z</time>
      </trkpt>
      <trkpt lat="46.24170527793467" lon="11.884196503087878">
        <ele>2075.1399999999999</ele>
        <time>2017-07-04T13:50:14Z</time>
      </trkpt>
      <trkpt lat="46.241673678159714" lon="11.884239166975021">
        <ele>2072.2600000000002</ele>
        <time>2017-07-04T13:50:26Z</time>
      </trkpt>
      <trkpt lat="46.241655992344022" lon="11.884172530844808">
        <ele>2070.3400000000001</ele>
        <time>2017-07-04T13:50:36Z</time>
      </trkpt>
      <trkpt lat="46.241632271558046" lon="11.884195329621434">
        <ele>2068.8899999999999</ele>
        <time>2017-07-04T13:50:46Z</time>
      </trkpt>
      <trkpt lat="46.241588685661554" lon="11.884189629927278">
        <ele>2066.9699999999998</ele>
        <time>2017-07-04T13:50:56Z</time>
      </trkpt>
      <trkpt lat="46.241606706753373" lon="11.884240256622434">
        <ele>2065.5300000000002</ele>
        <time>2017-07-04T13:51:07Z</time>
      </trkpt>
      <trkpt lat="46.241603521630168" lon="11.884252158924937">
        <ele>2065.5300000000002</ele>
        <time>2017-07-04T13:51:18Z</time>
      </trkpt>
      <trkpt lat="46.241629840806127" lon="11.884247716516256">
        <ele>2064.5700000000002</ele>
        <time>2017-07-04T13:51:31Z</time>
      </trkpt>
      <trkpt lat="46.24163051135838" lon="11.884241262450814">
        <ele>2064.5700000000002</ele>
        <time>2017-07-04T13:51:46Z</time>
      </trkpt>
      <trkpt lat="46.241598492488265" lon="11.884262217208743">
        <ele>2064.0900000000001</ele>
        <time>2017-07-04T13:52:05Z</time>
      </trkpt>
      <trkpt lat="46.241580974310637" lon="11.884260540828109">
        <ele>2063.1300000000001</ele>
        <time>2017-07-04T13:52:17Z</time>
      </trkpt>
      <trkpt lat="46.241589188575745" lon="11.88428308814764">
        <ele>2061.6799999999998</ele>
        <time>2017-07-04T13:52:33Z</time>
      </trkpt>
      <trkpt lat="46.241560522466898" lon="11.884293984621763">
        <ele>2060.7199999999998</ele>
        <time>2017-07-04T13:52:44Z</time>
      </trkpt>
      <trkpt lat="46.241554236039519" lon="11.884295996278524">
        <ele>2060.2399999999998</ele>
        <time>2017-07-04T13:52:58Z</time>
      </trkpt>
      <trkpt lat="46.241535041481256" lon="11.884294068440795">
        <ele>2060.2399999999998</ele>
        <time>2017-07-04T13:53:08Z</time>
      </trkpt>
      <trkpt lat="46.241524983197451" lon="11.884317956864834">
        <ele>2058.8000000000002</ele>
        <time>2017-07-04T13:53:17Z</time>
      </trkpt>
      <trkpt lat="46.24154350720346" lon="11.884338911622763">
        <ele>2057.3600000000001</ele>
        <time>2017-07-04T13:53:27Z</time>
      </trkpt>
      <trkpt lat="46.24151861295104" lon="11.884360620751977">
        <ele>2056.8800000000001</ele>
        <time>2017-07-04T13:53:41Z</time>
      </trkpt>
      <trkpt lat="46.241545183584094" lon="11.884410828351974">
        <ele>2055.4400000000001</ele>
        <time>2017-07-04T13:53:50Z</time>
      </trkpt>
      <trkpt lat="46.241513499990106" lon="11.884413007646799">
        <ele>2053.9899999999998</ele>
        <time>2017-07-04T13:54:00Z</time>
      </trkpt>
      <trkpt lat="46.241551386192441" lon="11.884469082579017">
        <ele>2051.5900000000001</ele>
        <time>2017-07-04T13:54:10Z</time>
      </trkpt>
      <trkpt lat="46.241556582972407" lon="11.884500849992037">
        <ele>2050.6300000000001</ele>
        <time>2017-07-04T13:54:21Z</time>
      </trkpt>
      <trkpt lat="46.241540824994445" lon="11.884579975157976">
        <ele>2048.23</ele>
        <time>2017-07-04T13:54:31Z</time>
      </trkpt>
      <trkpt lat="46.24147460795939" lon="11.884598918259144">
        <ele>2045.8199999999999</ele>
        <time>2017-07-04T13:54:41Z</time>
      </trkpt>
      <trkpt lat="46.241413671523333" lon="11.884575951844454">
        <ele>2043.4200000000001</ele>
        <time>2017-07-04T13:54:51Z</time>
      </trkpt>
      <trkpt lat="46.241400260478258" lon="11.884625237435102">
        <ele>2042.46</ele>
        <time>2017-07-04T13:54:57Z</time>
      </trkpt>
      <trkpt lat="46.241399673745036" lon="11.884668823331594">
        <ele>2041.02</ele>
        <time>2017-07-04T13:55:07Z</time>
      </trkpt>
      <trkpt lat="46.241380227729678" lon="11.884665973484516">
        <ele>2040.54</ele>
        <time>2017-07-04T13:55:12Z</time>
      </trkpt>
      <trkpt lat="46.24133538454771" lon="11.884586345404387">
        <ele>2039.0899999999999</ele>
        <time>2017-07-04T13:55:19Z</time>
      </trkpt>
      <trkpt lat="46.241266317665577" lon="11.884576287120581">
        <ele>2036.21</ele>
        <time>2017-07-04T13:55:28Z</time>
      </trkpt>
      <trkpt lat="46.241234885528684" lon="11.884538820013404">
        <ele>2034.29</ele>
        <time>2017-07-04T13:55:36Z</time>
      </trkpt>
      <trkpt lat="46.241221725940704" lon="11.884533958509564">
        <ele>2033.3299999999999</ele>
        <time>2017-07-04T13:55:45Z</time>
      </trkpt>
      <trkpt lat="46.2411995138973" lon="11.884497748687863">
        <ele>2032.3599999999999</ele>
        <time>2017-07-04T13:55:55Z</time>
      </trkpt>
      <trkpt lat="46.241183672100306" lon="11.884513087570667">
        <ele>2030.9200000000001</ele>
        <time>2017-07-04T13:56:05Z</time>
      </trkpt>
      <trkpt lat="46.241173781454563" lon="11.884578466415405">
        <ele>2029.48</ele>
        <time>2017-07-04T13:56:16Z</time>
      </trkpt>
      <trkpt lat="46.241174954921007" lon="11.884588692337275">
        <ele>2029.48</ele>
        <time>2017-07-04T13:56:31Z</time>
      </trkpt>
      <trkpt lat="46.241186857223511" lon="11.884588021785021">
        <ele>2029</ele>
        <time>2017-07-04T13:56:43Z</time>
      </trkpt>
      <trkpt lat="46.2411736138165" lon="11.884588105604053">
        <ele>2028.52</ele>
        <time>2017-07-04T13:57:05Z</time>
      </trkpt>
      <trkpt lat="46.241161795333028" lon="11.884585088118911">
        <ele>2029</ele>
        <time>2017-07-04T13:57:27Z</time>
      </trkpt>
      <trkpt lat="46.241170177236199" lon="11.884553572162986">
        <ele>2029.48</ele>
        <time>2017-07-04T13:57:38Z</time>
      </trkpt>
      <trkpt lat="46.241172524169087" lon="11.884564887732267">
        <ele>2029.48</ele>
        <time>2017-07-04T13:57:50Z</time>
      </trkpt>
      <trkpt lat="46.241172943264246" lon="11.884564384818077">
        <ele>2029</ele>
        <time>2017-07-04T13:58:01Z</time>
      </trkpt>
      <trkpt lat="46.241188868880272" lon="11.884560529142618">
        <ele>2029</ele>
        <time>2017-07-04T13:58:15Z</time>
      </trkpt>
      <trkpt lat="46.241139248013496" lon="11.88452398404479">
        <ele>2028.04</ele>
        <time>2017-07-04T13:58:24Z</time>
      </trkpt>
      <trkpt lat="46.241133799776435" lon="11.88454108312726">
        <ele>2028.04</ele>
        <time>2017-07-04T13:58:31Z</time>
      </trkpt>
      <trkpt lat="46.241141259670258" lon="11.884569246321917">
        <ele>2028.04</ele>
        <time>2017-07-04T13:58:40Z</time>
      </trkpt>
      <trkpt lat="46.241131452843547" lon="11.884572431445122">
        <ele>2027.5599999999999</ele>
        <time>2017-07-04T13:58:54Z</time>
      </trkpt>
      <trkpt lat="46.241132123395801" lon="11.884598163887858">
        <ele>2027.0799999999999</ele>
        <time>2017-07-04T13:59:04Z</time>
      </trkpt>
      <trkpt lat="46.241149641573429" lon="11.884633703157306">
        <ele>2026.5999999999999</ele>
        <time>2017-07-04T13:59:15Z</time>
      </trkpt>
      <trkpt lat="46.241104630753398" lon="11.884633786976337">
        <ele>2024.6700000000001</ele>
        <time>2017-07-04T13:59:25Z</time>
      </trkpt>
      <trkpt lat="46.241082586348057" lon="11.88457578420639">
        <ele>2023.23</ele>
        <time>2017-07-04T13:59:37Z</time>
      </trkpt>
      <trkpt lat="46.241052495315671" lon="11.884648958221078">
        <ele>2021.79</ele>
        <time>2017-07-04T13:59:47Z</time>
      </trkpt>
      <trkpt lat="46.241052160039544" lon="11.884688772261143">
        <ele>2020.3499999999999</ele>
        <time>2017-07-04T13:59:57Z</time>
      </trkpt>
      <trkpt lat="46.241020644083619" lon="11.884720539674163">
        <ele>2018.4300000000001</ele>
        <time>2017-07-04T14:00:07Z</time>
      </trkpt>
      <trkpt lat="46.240993905812502" lon="11.884766137227416">
        <ele>2016.5</ele>
        <time>2017-07-04T14:00:17Z</time>
      </trkpt>
      <trkpt lat="46.24096792191267" lon="11.88478440977633">
        <ele>2014.5799999999999</ele>
        <time>2017-07-04T14:00:27Z</time>
      </trkpt>
      <trkpt lat="46.2409214861691" lon="11.884803855791688">
        <ele>2012.1800000000001</ele>
        <time>2017-07-04T14:00:38Z</time>
      </trkpt>
      <trkpt lat="46.240895250812173" lon="11.884869066998363">
        <ele>2010.25</ele>
        <time>2017-07-04T14:00:49Z</time>
      </trkpt>
      <trkpt lat="46.240861304104328" lon="11.884911311790347">
        <ele>2007.8499999999999</ele>
        <time>2017-07-04T14:00:59Z</time>
      </trkpt>
      <trkpt lat="46.24084428884089" lon="11.884999573230743">
        <ele>2005.45</ele>
        <time>2017-07-04T14:01:09Z</time>
      </trkpt>
      <trkpt lat="46.240834565833211" lon="11.885073250159621">
        <ele>2004.01</ele>
        <time>2017-07-04T14:01:18Z</time>
      </trkpt>
      <trkpt lat="46.240800535306334" lon="11.885120691731572">
        <ele>2001.5999999999999</ele>
        <time>2017-07-04T14:01:28Z</time>
      </trkpt>
      <trkpt lat="46.240790979936719" lon="11.885166205465794">
        <ele>2000.1600000000001</ele>
        <time>2017-07-04T14:01:37Z</time>
      </trkpt>
      <trkpt lat="46.240792237222195" lon="11.885222615674138">
        <ele>1998.24</ele>
        <time>2017-07-04T14:01:46Z</time>
      </trkpt>
      <trkpt lat="46.240757368505001" lon="11.885264692828059">
        <ele>1996.3199999999999</ele>
        <time>2017-07-04T14:01:55Z</time>
      </trkpt>
      <trkpt lat="46.240734569728374" lon="11.885267626494169">
        <ele>1994.8699999999999</ele>
        <time>2017-07-04T14:02:04Z</time>
      </trkpt>
      <trkpt lat="46.24072995968163" lon="11.885315990075469">
        <ele>1993.4300000000001</ele>
        <time>2017-07-04T14:02:13Z</time>
      </trkpt>
      <trkpt lat="46.240693414583802" lon="11.885328479111195">
        <ele>1991.51</ele>
        <time>2017-07-04T14:02:24Z</time>
      </trkpt>
      <trkpt lat="46.240675896406174" lon="11.885334430262446">
        <ele>1990.0699999999999</ele>
        <time>2017-07-04T14:02:32Z</time>
      </trkpt>
      <trkpt lat="46.240715710446239" lon="11.885388744994998">
        <ele>1988.6199999999999</ele>
        <time>2017-07-04T14:02:41Z</time>
      </trkpt>
      <trkpt lat="46.240688133984804" lon="11.885422440245748">
        <ele>1987.1800000000001</ele>
        <time>2017-07-04T14:02:50Z</time>
      </trkpt>
      <trkpt lat="46.240665502846241" lon="11.885437108576298">
        <ele>1985.74</ele>
        <time>2017-07-04T14:02:59Z</time>
      </trkpt>
      <trkpt lat="46.24066885560751" lon="11.885462589561939">
        <ele>1984.3</ele>
        <time>2017-07-04T14:03:07Z</time>
      </trkpt>
      <trkpt lat="46.240689558908343" lon="11.885513216257095">
        <ele>1982.3800000000001</ele>
        <time>2017-07-04T14:03:17Z</time>
      </trkpt>
      <trkpt lat="46.240713866427541" lon="11.885519837960601">
        <ele>1981.4100000000001</ele>
        <time>2017-07-04T14:03:26Z</time>
      </trkpt>
      <trkpt lat="46.240741107612848" lon="11.885558310896158">
        <ele>1979.97</ele>
        <time>2017-07-04T14:03:36Z</time>
      </trkpt>
      <trkpt lat="46.240736581385136" lon="11.885589743033051">
        <ele>1978.53</ele>
        <time>2017-07-04T14:03:47Z</time>
      </trkpt>
      <trkpt lat="46.240717889741063" lon="11.88565026037395">
        <ele>1976.1300000000001</ele>
        <time>2017-07-04T14:03:59Z</time>
      </trkpt>
      <trkpt lat="46.24067472293973" lon="11.885672304779291">
        <ele>1974.6900000000001</ele>
        <time>2017-07-04T14:04:08Z</time>
      </trkpt>
      <trkpt lat="46.240659048780799" lon="11.885706586763263">
        <ele>1972.76</ele>
        <time>2017-07-04T14:04:21Z</time>
      </trkpt>
      <trkpt lat="46.240667849779129" lon="11.8857391923666">
        <ele>1970.8399999999999</ele>
        <time>2017-07-04T14:04:30Z</time>
      </trkpt>
      <trkpt lat="46.240679081529379" lon="11.885786885395646">
        <ele>1969.4000000000001</ele>
        <time>2017-07-04T14:04:38Z</time>
      </trkpt>
      <trkpt lat="46.240638010203838" lon="11.885811276733875">
        <ele>1967.96</ele>
        <time>2017-07-04T14:04:47Z</time>
      </trkpt>
      <trkpt lat="46.240633819252253" lon="11.885861065238714">
        <ele>1965.55</ele>
        <time>2017-07-04T14:04:59Z</time>
      </trkpt>
      <trkpt lat="46.240613535046577" lon="11.885884953662753">
        <ele>1964.5899999999999</ele>
        <time>2017-07-04T14:05:07Z</time>
      </trkpt>
      <trkpt lat="46.240607080981135" lon="11.885903645306826">
        <ele>1963.6300000000001</ele>
        <time>2017-07-04T14:05:15Z</time>
      </trkpt>
      <trkpt lat="46.240608841180801" lon="11.885938346385956">
        <ele>1962.1900000000001</ele>
        <time>2017-07-04T14:05:25Z</time>
      </trkpt>
      <trkpt lat="46.240580845624208" lon="11.885953098535538">
        <ele>1960.75</ele>
        <time>2017-07-04T14:05:34Z</time>
      </trkpt>
      <trkpt lat="46.240549497306347" lon="11.885970029979944">
        <ele>1959.3</ele>
        <time>2017-07-04T14:05:44Z</time>
      </trkpt>
      <trkpt lat="46.240519070997834" lon="11.885973550379276">
        <ele>1956.9000000000001</ele>
        <time>2017-07-04T14:05:54Z</time>
      </trkpt>
      <trkpt lat="46.240499457344413" lon="11.885980255901814">
        <ele>1956.4200000000001</ele>
        <time>2017-07-04T14:06:02Z</time>
      </trkpt>
      <trkpt lat="46.240513622760773" lon="11.886014705523849">
        <ele>1954.98</ele>
        <time>2017-07-04T14:06:12Z</time>
      </trkpt>
      <trkpt lat="46.240531308576465" lon="11.886051837354898">
        <ele>1952.5699999999999</ele>
        <time>2017-07-04T14:06:23Z</time>
      </trkpt>
      <trkpt lat="46.240531895309687" lon="11.886090226471424">
        <ele>1951.1300000000001</ele>
        <time>2017-07-04T14:06:31Z</time>
      </trkpt>
      <trkpt lat="46.240532817319036" lon="11.886112857609987">
        <ele>1950.6500000000001</ele>
        <time>2017-07-04T14:06:42Z</time>
      </trkpt>
      <trkpt lat="46.240556789562106" lon="11.886147391051054">
        <ele>1949.21</ele>
        <time>2017-07-04T14:06:54Z</time>
      </trkpt>
      <trkpt lat="46.240553185343742" lon="11.886167675256729">
        <ele>1948.25</ele>
        <time>2017-07-04T14:07:05Z</time>
      </trkpt>
      <trkpt lat="46.240548575296998" lon="11.886194664984941">
        <ele>1946.8099999999999</ele>
        <time>2017-07-04T14:07:15Z</time>
      </trkpt>
      <trkpt lat="46.240501636639237" lon="11.886224085465074">
        <ele>1945.3599999999999</ele>
        <time>2017-07-04T14:07:24Z</time>
      </trkpt>
      <trkpt lat="46.240464672446251" lon="11.886223498731852">
        <ele>1943.9200000000001</ele>
        <time>2017-07-04T14:07:33Z</time>
      </trkpt>
      <trkpt lat="46.240440784022212" lon="11.886230874806643">
        <ele>1942.48</ele>
        <time>2017-07-04T14:07:45Z</time>
      </trkpt>
      <trkpt lat="46.240449333563447" lon="11.886246465146542">
        <ele>1941.52</ele>
        <time>2017-07-04T14:07:52Z</time>
      </trkpt>
      <trkpt lat="46.240418655797839" lon="11.886225761845708">
        <ele>1940.5599999999999</ele>
        <time>2017-07-04T14:08:01Z</time>
      </trkpt>
      <trkpt lat="46.24039719812572" lon="11.886239843443036">
        <ele>1939.1199999999999</ele>
        <time>2017-07-04T14:08:11Z</time>
      </trkpt>
      <trkpt lat="46.240376411005855" lon="11.886198269203305">
        <ele>1938.1600000000001</ele>
        <time>2017-07-04T14:08:19Z</time>
      </trkpt>
      <trkpt lat="46.240351181477308" lon="11.886199694126844">
        <ele>1937.6700000000001</ele>
        <time>2017-07-04T14:08:28Z</time>
      </trkpt>
      <trkpt lat="46.240371381863952" lon="11.886227438226342">
        <ele>1936.71</ele>
        <time>2017-07-04T14:08:35Z</time>
      </trkpt>
      <trkpt lat="46.240395018830895" lon="11.886245291680098">
        <ele>1936.23</ele>
        <time>2017-07-04T14:08:46Z</time>
      </trkpt>
      <trkpt lat="46.24039183370769" lon="11.886268425732851">
        <ele>1935.75</ele>
        <time>2017-07-04T14:08:58Z</time>
      </trkpt>
      <trkpt lat="46.240369956940413" lon="11.886275382712483">
        <ele>1935.27</ele>
        <time>2017-07-04T14:09:05Z</time>
      </trkpt>
      <trkpt lat="46.240338021889329" lon="11.886240430176258">
        <ele>1933.8299999999999</ele>
        <time>2017-07-04T14:09:15Z</time>
      </trkpt>
      <trkpt lat="46.240320922806859" lon="11.886239675804973">
        <ele>1932.8699999999999</ele>
        <time>2017-07-04T14:09:24Z</time>
      </trkpt>
      <trkpt lat="46.240304159000516" lon="11.886207573115826">
        <ele>1930.95</ele>
        <time>2017-07-04T14:09:33Z</time>
      </trkpt>
      <trkpt lat="46.240280522033572" lon="11.886165328323841">
        <ele>1929.5</ele>
        <time>2017-07-04T14:09:41Z</time>
      </trkpt>
      <trkpt lat="46.240275492891669" lon="11.886189300566912">
        <ele>1928.54</ele>
        <time>2017-07-04T14:09:51Z</time>
      </trkpt>
      <trkpt lat="46.240279851481318" lon="11.886179326102138">
        <ele>1928.0599999999999</ele>
        <time>2017-07-04T14:10:04Z</time>
      </trkpt>
      <trkpt lat="46.24027649872005" lon="11.8861726205796">
        <ele>1928.54</ele>
        <time>2017-07-04T14:10:16Z</time>
      </trkpt>
      <trkpt lat="46.240289490669966" lon="11.88620438799262">
        <ele>1928.54</ele>
        <time>2017-07-04T14:10:32Z</time>
      </trkpt>
      <trkpt lat="46.240286473184824" lon="11.886204052716494">
        <ele>1928.54</ele>
        <time>2017-07-04T14:10:48Z</time>
      </trkpt>
      <trkpt lat="46.240302147343755" lon="11.886195503175259">
        <ele>1928.54</ele>
        <time>2017-07-04T14:11:04Z</time>
      </trkpt>
      <trkpt lat="46.240303991362453" lon="11.886197263374925">
        <ele>1925.1800000000001</ele>
        <time>2017-07-04T14:11:09Z</time>
      </trkpt>
      <trkpt lat="46.24030583538115" lon="11.886196341365576">
        <ele>1928.54</ele>
        <time>2017-07-04T14:11:10Z</time>
      </trkpt>
      <trkpt lat="46.240309271961451" lon="11.886205226182938">
        <ele>1927.5799999999999</ele>
        <time>2017-07-04T14:11:20Z</time>
      </trkpt>
      <trkpt lat="46.240277085453272" lon="11.886191982775927">
        <ele>1928.54</ele>
        <time>2017-07-04T14:11:35Z</time>
      </trkpt>
      <trkpt lat="46.240258980542421" lon="11.886189468204975">
        <ele>1928.54</ele>
        <time>2017-07-04T14:11:46Z</time>
      </trkpt>
      <trkpt lat="46.240254119038582" lon="11.886194078251719">
        <ele>1928.54</ele>
        <time>2017-07-04T14:12:00Z</time>
      </trkpt>
      <trkpt lat="46.240246240049601" lon="11.886222576722503">
        <ele>1927.0999999999999</ele>
        <time>2017-07-04T14:12:10Z</time>
      </trkpt>
      <trkpt lat="46.240247329697013" lon="11.886246632784605">
        <ele>1926.1400000000001</ele>
        <time>2017-07-04T14:12:21Z</time>
      </trkpt>
      <trkpt lat="46.240242635831237" lon="11.886290134862065">
        <ele>1923.74</ele>
        <time>2017-07-04T14:12:31Z</time>
      </trkpt>
      <trkpt lat="46.240237522870302" lon="11.886311341077089">
        <ele>1923.25</ele>
        <time>2017-07-04T14:12:42Z</time>
      </trkpt>
      <trkpt lat="46.240238109603524" lon="11.886348640546203">
        <ele>1921.8099999999999</ele>
        <time>2017-07-04T14:12:52Z</time>
      </trkpt>
      <trkpt lat="46.24023986980319" lon="11.886408571153879">
        <ele>1920.8499999999999</ele>
        <time>2017-07-04T14:13:02Z</time>
      </trkpt>
      <trkpt lat="46.240199971944094" lon="11.88644478097558">
        <ele>1919.4100000000001</ele>
        <time>2017-07-04T14:13:12Z</time>
      </trkpt>
      <trkpt lat="46.240169042721391" lon="11.886437488719821">
        <ele>1917.97</ele>
        <time>2017-07-04T14:13:19Z</time>
      </trkpt>
      <trkpt lat="46.240148255601525" lon="11.88638954423368">
        <ele>1916.53</ele>
        <time>2017-07-04T14:13:30Z</time>
      </trkpt>
      <trkpt lat="46.240131407976151" lon="11.886372864246368">
        <ele>1915.0799999999999</ele>
        <time>2017-07-04T14:13:41Z</time>
      </trkpt>
      <trkpt lat="46.24012797139585" lon="11.886392645537853">
        <ele>1914.1199999999999</ele>
        <time>2017-07-04T14:13:49Z</time>
      </trkpt>
      <trkpt lat="46.240137862041593" lon="11.886416533961892">
        <ele>1912.6800000000001</ele>
        <time>2017-07-04T14:14:00Z</time>
      </trkpt>
      <trkpt lat="46.240113889798522" lon="11.886411672458053">
        <ele>1911.24</ele>
        <time>2017-07-04T14:14:09Z</time>
      </trkpt>
      <trkpt lat="46.240055300295353" lon="11.886415360495448">
        <ele>1908.8299999999999</ele>
        <time>2017-07-04T14:14:20Z</time>
      </trkpt>
      <trkpt lat="46.240032585337758" lon="11.886402871459723">
        <ele>1906.9100000000001</ele>
        <time>2017-07-04T14:14:31Z</time>
      </trkpt>
      <trkpt lat="46.240000231191516" lon="11.886458108201623">
        <ele>1904.51</ele>
        <time>2017-07-04T14:14:41Z</time>
      </trkpt>
      <trkpt lat="46.240000817924738" lon="11.886486355215311">
        <ele>1904.03</ele>
        <time>2017-07-04T14:14:48Z</time>
      </trkpt>
      <trkpt lat="46.239963350817561" lon="11.886488031595945">
        <ele>1902.5899999999999</ele>
        <time>2017-07-04T14:14:56Z</time>
      </trkpt>
      <trkpt lat="46.239925045520067" lon="11.886454503983259">
        <ele>1902.5899999999999</ele>
        <time>2017-07-04T14:15:05Z</time>
      </trkpt>
      <trkpt lat="46.239900067448616" lon="11.886452911421657">
        <ele>1900.6600000000001</ele>
        <time>2017-07-04T14:15:14Z</time>
      </trkpt>
      <trkpt lat="46.239908365532756" lon="11.886428855359554">
        <ele>1901.1400000000001</ele>
        <time>2017-07-04T14:15:31Z</time>
      </trkpt>
      <trkpt lat="46.239910377189517" lon="11.886463304981589">
        <ele>1900.1800000000001</ele>
        <time>2017-07-04T14:15:45Z</time>
      </trkpt>
      <trkpt lat="46.239911885932088" lon="11.886483924463391">
        <ele>1899.22</ele>
        <time>2017-07-04T14:15:56Z</time>
      </trkpt>
      <trkpt lat="46.239910963922739" lon="11.886460706591606">
        <ele>1900.1800000000001</ele>
        <time>2017-07-04T14:16:22Z</time>
      </trkpt>
      <trkpt lat="46.239916328340769" lon="11.886446038261056">
        <ele>1899.7</ele>
        <time>2017-07-04T14:16:41Z</time>
      </trkpt>
      <trkpt lat="46.23990174382925" lon="11.886442936956882">
        <ele>1900.1800000000001</ele>
        <time>2017-07-04T14:17:09Z</time>
      </trkpt>
      <trkpt lat="46.2399095389992" lon="11.886436315253377">
        <ele>1900.1800000000001</ele>
        <time>2017-07-04T14:17:30Z</time>
      </trkpt>
      <trkpt lat="46.239915825426579" lon="11.886440757662058">
        <ele>1900.1800000000001</ele>
        <time>2017-07-04T14:17:53Z</time>
      </trkpt>
      <trkpt lat="46.239913059398532" lon="11.88645014539361">
        <ele>1900.1800000000001</ele>
        <time>2017-07-04T14:18:06Z</time>
      </trkpt>
      <trkpt lat="46.239925967529416" lon="11.88647897914052">
        <ele>1900.1800000000001</ele>
        <time>2017-07-04T14:18:23Z</time>
      </trkpt>
      <trkpt lat="46.23991590924561" lon="11.886522145941854">
        <ele>1899.7</ele>
        <time>2017-07-04T14:18:33Z</time>
      </trkpt>
      <trkpt lat="46.23994424007833" lon="11.886658519506454">
        <ele>1897.78</ele>
        <time>2017-07-04T14:18:45Z</time>
      </trkpt>
      <trkpt lat="46.239966955035925" lon="11.886733453720808">
        <ele>1897.78</ele>
        <time>2017-07-04T14:18:59Z</time>
      </trkpt>
      <trkpt lat="46.240002997219563" lon="11.886779638007283">
        <ele>1897.3</ele>
        <time>2017-07-04T14:19:09Z</time>
      </trkpt>
      <trkpt lat="46.240004086866975" lon="11.886839820072055">
        <ele>1896.3399999999999</ele>
        <time>2017-07-04T14:19:21Z</time>
      </trkpt>
      <trkpt lat="46.240029567852616" lon="11.886947611346841">
        <ele>1893.45</ele>
        <time>2017-07-04T14:19:36Z</time>
      </trkpt>
      <trkpt lat="46.240169545635581" lon="11.887043248862028">
        <ele>1890.5699999999999</ele>
        <time>2017-07-04T14:19:54Z</time>
      </trkpt>
      <trkpt lat="46.240263087674975" lon="11.887077195569873">
        <ele>1887.6900000000001</ele>
        <time>2017-07-04T14:20:09Z</time>
      </trkpt>
      <trkpt lat="46.240358473733068" lon="11.887116339057684">
        <ele>1885.76</ele>
        <time>2017-07-04T14:20:23Z</time>
      </trkpt>
      <trkpt lat="46.240340871736407" lon="11.887122876942158">
        <ele>1884.3199999999999</ele>
        <time>2017-07-04T14:20:32Z</time>
      </trkpt>
      <trkpt lat="46.240338776260614" lon="11.887115836143494">
        <ele>1884.3199999999999</ele>
        <time>2017-07-04T14:20:42Z</time>
      </trkpt>
      <trkpt lat="46.240343805402517" lon="11.887118853628635">
        <ele>1884.8</ele>
        <time>2017-07-04T14:21:00Z</time>
      </trkpt>
      <trkpt lat="46.240369202569127" lon="11.887109717354178">
        <ele>1884.8</ele>
        <time>2017-07-04T14:21:12Z</time>
      </trkpt>
      <trkpt lat="46.240404155105352" lon="11.887151123955846">
        <ele>1884.8</ele>
        <time>2017-07-04T14:21:31Z</time>
      </trkpt>
      <trkpt lat="46.240428546443582" lon="11.887127738445997">
        <ele>1884.3199999999999</ele>
        <time>2017-07-04T14:21:46Z</time>
      </trkpt>
      <trkpt lat="46.240429133176804" lon="11.887102676555514">
        <ele>1884.3199999999999</ele>
        <time>2017-07-04T14:22:01Z</time>
      </trkpt>
      <trkpt lat="46.240445813164115" lon="11.887141233310103">
        <ele>1883.8399999999999</ele>
        <time>2017-07-04T14:22:12Z</time>
      </trkpt>
      <trkpt lat="46.240474563091993" lon="11.887228405103087">
        <ele>1882.4000000000001</ele>
        <time>2017-07-04T14:22:25Z</time>
      </trkpt>
      <trkpt lat="46.240458134561777" lon="11.88730669207871">
        <ele>1881.4400000000001</ele>
        <time>2017-07-04T14:22:34Z</time>
      </trkpt>
      <trkpt lat="46.240418236702681" lon="11.887332927435637">
        <ele>1880.96</ele>
        <time>2017-07-04T14:22:43Z</time>
      </trkpt>
      <trkpt lat="46.240416979417205" lon="11.88735019415617">
        <ele>1880</ele>
        <time>2017-07-04T14:22:53Z</time>
      </trkpt>
      <trkpt lat="46.240402143448591" lon="11.887381207197905">
        <ele>1879.03</ele>
        <time>2017-07-04T14:23:03Z</time>
      </trkpt>
      <trkpt lat="46.240420248359442" lon="11.887394366785884">
        <ele>1879.03</ele>
        <time>2017-07-04T14:23:15Z</time>
      </trkpt>
      <trkpt lat="46.240421673282981" lon="11.887410208582878">
        <ele>1878.0699999999999</ele>
        <time>2017-07-04T14:23:26Z</time>
      </trkpt>
      <trkpt lat="46.240428211167455" lon="11.887406855821609">
        <ele>1877.5899999999999</ele>
        <time>2017-07-04T14:23:37Z</time>
      </trkpt>
      <trkpt lat="46.240426450967789" lon="11.887419512495399">
        <ele>1877.1099999999999</ele>
        <time>2017-07-04T14:23:51Z</time>
      </trkpt>
      <trkpt lat="46.240407088771462" lon="11.887426469475031">
        <ele>1876.6300000000001</ele>
        <time>2017-07-04T14:24:07Z</time>
      </trkpt>
      <trkpt lat="46.240392085164785" lon="11.88744205981493">
        <ele>1875.6700000000001</ele>
        <time>2017-07-04T14:24:20Z</time>
      </trkpt>
      <trkpt lat="46.240352606400847" lon="11.887468881905079">
        <ele>1874.71</ele>
        <time>2017-07-04T14:24:24Z</time>
      </trkpt>
      <trkpt lat="46.240350259467959" lon="11.887501571327448">
        <ele>1873.75</ele>
        <time>2017-07-04T14:24:32Z</time>
      </trkpt>
      <trkpt lat="46.240340871736407" lon="11.887558903545141">
        <ele>1873.27</ele>
        <time>2017-07-04T14:24:40Z</time>
      </trkpt>
      <trkpt lat="46.240371046587825" lon="11.887659654021263">
        <ele>1871.8199999999999</ele>
        <time>2017-07-04T14:24:50Z</time>
      </trkpt>
      <trkpt lat="46.240379763767123" lon="11.887720171362162">
        <ele>1871.3399999999999</ele>
        <time>2017-07-04T14:24:55Z</time>
      </trkpt>
      <trkpt lat="46.240401724353433" lon="11.887864843010902">
        <ele>1868.46</ele>
        <time>2017-07-04T14:25:07Z</time>
      </trkpt>
      <trkpt lat="46.240458134561777" lon="11.887933574616909">
        <ele>1867.02</ele>
        <time>2017-07-04T14:25:19Z</time>
      </trkpt>
      <trkpt lat="46.240500966086984" lon="11.887983195483685">
        <ele>1866.0599999999999</ele>
        <time>2017-07-04T14:25:28Z</time>
      </trkpt>
      <trkpt lat="46.240520495921373" lon="11.888020830228925">
        <ele>1865.0899999999999</ele>
        <time>2017-07-04T14:25:39Z</time>
      </trkpt>
      <trkpt lat="46.240506917238235" lon="11.888062823563814">
        <ele>1864.1300000000001</ele>
        <time>2017-07-04T14:25:49Z</time>
      </trkpt>
      <trkpt lat="46.24045243486762" lon="11.888114959001541">
        <ele>1863.1700000000001</ele>
        <time>2017-07-04T14:25:58Z</time>
      </trkpt>
      <trkpt lat="46.240430809557438" lon="11.888139601796865">
        <ele>1862.21</ele>
        <time>2017-07-04T14:26:07Z</time>
      </trkpt>
      <trkpt lat="46.24039962887764" lon="11.88814370892942">
        <ele>1860.77</ele>
        <time>2017-07-04T14:26:15Z</time>
      </trkpt>
      <trkpt lat="46.240379763767123" lon="11.888156197965145">
        <ele>1859.8099999999999</ele>
        <time>2017-07-04T14:26:20Z</time>
      </trkpt>
      <trkpt lat="46.24036492779851" lon="11.88820967450738">
        <ele>1859.8099999999999</ele>
        <time>2017-07-04T14:26:28Z</time>
      </trkpt>
      <trkpt lat="46.240360401570797" lon="11.888212775811553">
        <ele>1859.8099999999999</ele>
        <time>2017-07-04T14:26:29Z</time>
      </trkpt>
      <trkpt lat="46.240338776260614" lon="11.888285195454955">
        <ele>1857.8900000000001</ele>
        <time>2017-07-04T14:26:39Z</time>
      </trkpt>
      <trkpt lat="46.240304242819548" lon="11.888312771916389">
        <ele>1855</ele>
        <time>2017-07-04T14:26:48Z</time>
      </trkpt>
      <trkpt lat="46.24027892947197" lon="11.888356357812881">
        <ele>1852.5999999999999</ele>
        <time>2017-07-04T14:26:57Z</time>
      </trkpt>
      <trkpt lat="46.240245485678315" lon="11.888360716402531">
        <ele>1850.6800000000001</ele>
        <time>2017-07-04T14:27:05Z</time>
      </trkpt>
      <trkpt lat="46.240276666358113" lon="11.888413270935416">
        <ele>1849.23</ele>
        <time>2017-07-04T14:27:17Z</time>
      </trkpt>
      <trkpt lat="46.240243474021554" lon="11.888427520170808">
        <ele>1847.3099999999999</ele>
        <time>2017-07-04T14:27:26Z</time>
      </trkpt>
      <trkpt lat="46.240247162058949" lon="11.88845107331872">
        <ele>1845.3900000000001</ele>
        <time>2017-07-04T14:27:35Z</time>
      </trkpt>
      <trkpt lat="46.24023886397481" lon="11.888502035290003">
        <ele>1843.47</ele>
        <time>2017-07-04T14:27:43Z</time>
      </trkpt>
      <trkpt lat="46.240212628617883" lon="11.88852827064693">
        <ele>1842.02</ele>
        <time>2017-07-04T14:27:52Z</time>
      </trkpt>
      <trkpt lat="46.240180190652609" lon="11.888500191271305">
        <ele>1840.5799999999999</ele>
        <time>2017-07-04T14:28:00Z</time>
      </trkpt>
      <trkpt lat="46.240176167339087" lon="11.888604545965791">
        <ele>1838.1800000000001</ele>
        <time>2017-07-04T14:28:11Z</time>
      </trkpt>
      <trkpt lat="46.240122523158789" lon="11.888650981709361">
        <ele>1836.26</ele>
        <time>2017-07-04T14:28:21Z</time>
      </trkpt>
      <trkpt lat="46.240103328600526" lon="11.888702781870961">
        <ele>1833.3699999999999</ele>
        <time>2017-07-04T14:28:31Z</time>
      </trkpt>
      <trkpt lat="46.240101149305701" lon="11.888740416616201">
        <ele>1832.4100000000001</ele>
        <time>2017-07-04T14:28:40Z</time>
      </trkpt>
      <trkpt lat="46.240055803209543" lon="11.888805963099003">
        <ele>1829.05</ele>
        <time>2017-07-04T14:28:51Z</time>
      </trkpt>
      <trkpt lat="46.240049265325069" lon="11.888857679441571">
        <ele>1827.1199999999999</ele>
        <time>2017-07-04T14:29:01Z</time>
      </trkpt>
      <trkpt lat="46.240008193999529" lon="11.888856673613191">
        <ele>1826.1600000000001</ele>
        <time>2017-07-04T14:29:09Z</time>
      </trkpt>
      <trkpt lat="46.240001069381833" lon="11.888863043859601">
        <ele>1823.76</ele>
        <time>2017-07-04T14:29:18Z</time>
      </trkpt>
      <trkpt lat="46.239999812096357" lon="11.888891877606511">
        <ele>1823.28</ele>
        <time>2017-07-04T14:29:31Z</time>
      </trkpt>
      <trkpt lat="46.239982713013887" lon="11.888939570635557">
        <ele>1821.3499999999999</ele>
        <time>2017-07-04T14:29:38Z</time>
      </trkpt>
      <trkpt lat="46.239939881488681" lon="11.888925153762102">
        <ele>1819.4300000000001</ele>
        <time>2017-07-04T14:29:46Z</time>
      </trkpt>
      <trkpt lat="46.239917334169149" lon="11.888974858447909">
        <ele>1817.99</ele>
        <time>2017-07-04T14:29:56Z</time>
      </trkpt>
      <trkpt lat="46.239886740222573" lon="11.888946946710348">
        <ele>1816.0699999999999</ele>
        <time>2017-07-04T14:30:05Z</time>
      </trkpt>
      <trkpt lat="46.239865366369486" lon="11.888915933668613">
        <ele>1813.6600000000001</ele>
        <time>2017-07-04T14:30:15Z</time>
      </trkpt>
      <trkpt lat="46.239881627261639" lon="11.888877712190151">
        <ele>1813.6600000000001</ele>
        <time>2017-07-04T14:30:29Z</time>
      </trkpt>
      <trkpt lat="46.239839969202876" lon="11.888862121850252">
        <ele>1811.26</ele>
        <time>2017-07-04T14:30:39Z</time>
      </trkpt>
      <trkpt lat="46.239822199568152" lon="11.888846531510353">
        <ele>1809.8199999999999</ele>
        <time>2017-07-04T14:30:49Z</time>
      </trkpt>
      <trkpt lat="46.239834269508719" lon="11.888864887878299">
        <ele>1809.3399999999999</ele>
        <time>2017-07-04T14:31:02Z</time>
      </trkpt>
      <trkpt lat="46.239810297265649" lon="11.888898247852921">
        <ele>1807.4200000000001</ele>
        <time>2017-07-04T14:31:13Z</time>
      </trkpt>
      <trkpt lat="46.239826725795865" lon="11.888885172083974">
        <ele>1806.9400000000001</ele>
        <time>2017-07-04T14:31:24Z</time>
      </trkpt>
      <trkpt lat="46.239810716360807" lon="11.88896220177412">
        <ele>1805.01</ele>
        <time>2017-07-04T14:31:34Z</time>
      </trkpt>
      <trkpt lat="46.239797556772828" lon="11.889026826247573">
        <ele>1803.0899999999999</ele>
        <time>2017-07-04T14:31:46Z</time>
      </trkpt>
      <trkpt lat="46.239784061908722" lon="11.889045517891645">
        <ele>1800.6900000000001</ele>
        <time>2017-07-04T14:31:55Z</time>
      </trkpt>
      <trkpt lat="46.239764448255301" lon="11.889099664986134">
        <ele>1798.76</ele>
        <time>2017-07-04T14:32:05Z</time>
      </trkpt>
      <trkpt lat="46.239743493497372" lon="11.889119446277618">
        <ele>1796.8399999999999</ele>
        <time>2017-07-04T14:32:15Z</time>
      </trkpt>
      <trkpt lat="46.239725220948458" lon="11.889138305559754">
        <ele>1796.3599999999999</ele>
        <time>2017-07-04T14:32:25Z</time>
      </trkpt>
      <trkpt lat="46.239699069410563" lon="11.889138305559754">
        <ele>1794.9200000000001</ele>
        <time>2017-07-04T14:32:32Z</time>
      </trkpt>
      <trkpt lat="46.239673839882016" lon="11.889173090457916">
        <ele>1793.48</ele>
        <time>2017-07-04T14:32:42Z</time>
      </trkpt>
      <trkpt lat="46.239644000306726" lon="11.88920259475708">
        <ele>1791.0699999999999</ele>
        <time>2017-07-04T14:32:51Z</time>
      </trkpt>
      <trkpt lat="46.239579543471336" lon="11.889191027730703">
        <ele>1789.1500000000001</ele>
        <time>2017-07-04T14:33:00Z</time>
      </trkpt>
      <trkpt lat="46.239530760794878" lon="11.889196643605828">
        <ele>1788.1900000000001</ele>
        <time>2017-07-04T14:33:10Z</time>
      </trkpt>
      <trkpt lat="46.239555403590202" lon="11.889183651655912">
        <ele>1785.79</ele>
        <time>2017-07-04T14:33:20Z</time>
      </trkpt>
      <trkpt lat="46.239592200145125" lon="11.889175437390804">
        <ele>1785.79</ele>
        <time>2017-07-04T14:33:40Z</time>
      </trkpt>
      <trkpt lat="46.239518020302057" lon="11.889196811243892">
        <ele>1783.8599999999999</ele>
        <time>2017-07-04T14:33:50Z</time>
      </trkpt>
      <trkpt lat="46.239501591771841" lon="11.889252467080951">
        <ele>1781.46</ele>
        <time>2017-07-04T14:34:00Z</time>
      </trkpt>
      <trkpt lat="46.239462867379189" lon="11.889290437102318">
        <ele>1779.0599999999999</ele>
        <time>2017-07-04T14:34:11Z</time>
      </trkpt>
      <trkpt lat="46.23943755403161" lon="11.889314325526357">
        <ele>1777.1300000000001</ele>
        <time>2017-07-04T14:34:21Z</time>
      </trkpt>
      <trkpt lat="46.239480888471007" lon="11.889357324689627">
        <ele>1774.73</ele>
        <time>2017-07-04T14:34:32Z</time>
      </trkpt>
      <trkpt lat="46.239412324503064" lon="11.889389595016837">
        <ele>1772.3299999999999</ele>
        <time>2017-07-04T14:34:43Z</time>
      </trkpt>
      <trkpt lat="46.239376198500395" lon="11.889404095709324">
        <ele>1770.8900000000001</ele>
        <time>2017-07-04T14:34:52Z</time>
      </trkpt>
      <trkpt lat="46.239339485764503" lon="11.889401245862246">
        <ele>1768.48</ele>
        <time>2017-07-04T14:35:02Z</time>
      </trkpt>
      <trkpt lat="46.239330852404237" lon="11.889425469562411">
        <ele>1767.04</ele>
        <time>2017-07-04T14:35:11Z</time>
      </trkpt>
      <trkpt lat="46.239335127174854" lon="11.889472994953394">
        <ele>1764.6400000000001</ele>
        <time>2017-07-04T14:35:20Z</time>
      </trkpt>
      <trkpt lat="46.239387849345803" lon="11.889551198109984">
        <ele>1762.23</ele>
        <time>2017-07-04T14:35:32Z</time>
      </trkpt>
      <trkpt lat="46.239365302026272" lon="11.889560921117663">
        <ele>1761.75</ele>
        <time>2017-07-04T14:35:48Z</time>
      </trkpt>
      <trkpt lat="46.239389861002564" lon="11.889563435688615">
        <ele>1761.75</ele>
        <time>2017-07-04T14:36:09Z</time>
      </trkpt>
      <trkpt lat="46.239403691142797" lon="11.889617247506976">
        <ele>1761.75</ele>
        <time>2017-07-04T14:36:19Z</time>
      </trkpt>
      <trkpt lat="46.239404864609241" lon="11.889685224741697">
        <ele>1760.79</ele>
        <time>2017-07-04T14:36:30Z</time>
      </trkpt>
      <trkpt lat="46.23934275470674" lon="11.889722608029842">
        <ele>1758.3900000000001</ele>
        <time>2017-07-04T14:36:41Z</time>
      </trkpt>
      <trkpt lat="46.239325823262334" lon="11.889782622456551">
        <ele>1756.47</ele>
        <time>2017-07-04T14:36:52Z</time>
      </trkpt>
      <trkpt lat="46.239310568198562" lon="11.889847917482257">
        <ele>1754.54</ele>
        <time>2017-07-04T14:37:03Z</time>
      </trkpt>
      <trkpt lat="46.239285254850984" lon="11.889873230829835">
        <ele>1753.0999999999999</ele>
        <time>2017-07-04T14:37:13Z</time>
      </trkpt>
      <trkpt lat="46.239293301478028" lon="11.889948584139347">
        <ele>1751.1800000000001</ele>
        <time>2017-07-04T14:37:22Z</time>
      </trkpt>
      <trkpt lat="46.239278884604573" lon="11.890026787295938">
        <ele>1748.78</ele>
        <time>2017-07-04T14:37:32Z</time>
      </trkpt>
      <trkpt lat="46.239278633147478" lon="11.89012560993433">
        <ele>1745.8900000000001</ele>
        <time>2017-07-04T14:37:44Z</time>
      </trkpt>
      <trkpt lat="46.23925818130374" lon="11.890168273821473">
        <ele>1743.97</ele>
        <time>2017-07-04T14:37:54Z</time>
      </trkpt>
      <trkpt lat="46.239258013665676" lon="11.890249410644174">
        <ele>1741.5699999999999</ele>
        <time>2017-07-04T14:38:03Z</time>
      </trkpt>
      <trkpt lat="46.239267904311419" lon="11.890330882743001">
        <ele>1739.6400000000001</ele>
        <time>2017-07-04T14:38:14Z</time>
      </trkpt>
      <trkpt lat="46.239262707531452" lon="11.890375055372715">
        <ele>1738.2</ele>
        <time>2017-07-04T14:38:22Z</time>
      </trkpt>
      <trkpt lat="46.239255499094725" lon="11.890436746180058">
        <ele>1735.8</ele>
        <time>2017-07-04T14:38:28Z</time>
      </trkpt>
      <trkpt lat="46.239272011443973" lon="11.890493743121624">
        <ele>1735.3199999999999</ele>
        <time>2017-07-04T14:38:37Z</time>
      </trkpt>
      <trkpt lat="46.239301012828946" lon="11.890514530241489">
        <ele>1732.9100000000001</ele>
        <time>2017-07-04T14:38:47Z</time>
      </trkpt>
      <trkpt lat="46.239250721409917" lon="11.890526097267866">
        <ele>1730.51</ele>
        <time>2017-07-04T14:38:57Z</time>
      </trkpt>
      <trkpt lat="46.239227000623941" lon="11.890546549111605">
        <ele>1728.5899999999999</ele>
        <time>2017-07-04T14:39:07Z</time>
      </trkpt>
      <trkpt lat="46.239260863512754" lon="11.890563312917948">
        <ele>1727.6300000000001</ele>
        <time>2017-07-04T14:39:18Z</time>
      </trkpt>
      <trkpt lat="46.239267736673355" lon="11.890570186078548">
        <ele>1726.6700000000001</ele>
        <time>2017-07-04T14:39:33Z</time>
      </trkpt>
      <trkpt lat="46.23926262371242" lon="11.890593990683556">
        <ele>1725.7</ele>
        <time>2017-07-04T14:39:46Z</time>
      </trkpt>
      <trkpt lat="46.239259773865342" lon="11.890684515237808">
        <ele>1723.3</ele>
        <time>2017-07-04T14:39:55Z</time>
      </trkpt>
      <trkpt lat="46.239222725853324" lon="11.890727514401078">
        <ele>1721.3800000000001</ele>
        <time>2017-07-04T14:40:04Z</time>
      </trkpt>
      <trkpt lat="46.239216104149818" lon="11.89077009446919">
        <ele>1719.9400000000001</ele>
        <time>2017-07-04T14:40:13Z</time>
      </trkpt>
      <trkpt lat="46.239162711426616" lon="11.890789037570357">
        <ele>1718.01</ele>
        <time>2017-07-04T14:40:24Z</time>
      </trkpt>
      <trkpt lat="46.239143097773194" lon="11.890830108895898">
        <ele>1715.6099999999999</ele>
        <time>2017-07-04T14:40:34Z</time>
      </trkpt>
      <trkpt lat="46.239113677293062" lon="11.8907989282161">
        <ele>1713.21</ele>
        <time>2017-07-04T14:40:44Z</time>
      </trkpt>
      <trkpt lat="46.239106552675366" lon="11.890855338424444">
        <ele>1711.76</ele>
        <time>2017-07-04T14:40:53Z</time>
      </trkpt>
      <trkpt lat="46.239107390865684" lon="11.890803538262844">
        <ele>1710.8</ele>
        <time>2017-07-04T14:41:07Z</time>
      </trkpt>
      <trkpt lat="46.239081239327788" lon="11.890852991491556">
        <ele>1708.4000000000001</ele>
        <time>2017-07-04T14:41:17Z</time>
      </trkpt>
      <trkpt lat="46.239040587097406" lon="11.890892470255494">
        <ele>1706</ele>
        <time>2017-07-04T14:41:26Z</time>
      </trkpt>
      <trkpt lat="46.239024493843317" lon="11.890966901555657">
        <ele>1703.1099999999999</ele>
        <time>2017-07-04T14:41:36Z</time>
      </trkpt>
      <trkpt lat="46.238986691460013" lon="11.890999590978026">
        <ele>1701.1900000000001</ele>
        <time>2017-07-04T14:41:48Z</time>
      </trkpt>
      <trkpt lat="46.238944362848997" lon="11.890996741130948">
        <ele>1698.79</ele>
        <time>2017-07-04T14:41:57Z</time>
      </trkpt>
      <trkpt lat="46.238924581557512" lon="11.890989867970347">
        <ele>1697.3399999999999</ele>
        <time>2017-07-04T14:42:04Z</time>
      </trkpt>
      <trkpt lat="46.23891418799758" lon="11.89098609611392">
        <ele>1695.9000000000001</ele>
        <time>2017-07-04T14:42:15Z</time>
      </trkpt>
      <trkpt lat="46.238881917670369" lon="11.89100218936801">
        <ele>1693.5</ele>
        <time>2017-07-04T14:42:26Z</time>
      </trkpt>
      <trkpt lat="46.238853838294744" lon="11.890991711989045">
        <ele>1691.0999999999999</ele>
        <time>2017-07-04T14:42:35Z</time>
      </trkpt>
      <trkpt lat="46.238866578787565" lon="11.891027502715588">
        <ele>1690.6199999999999</ele>
        <time>2017-07-04T14:42:46Z</time>
      </trkpt>
      <trkpt lat="46.238844869658351" lon="11.891062706708908">
        <ele>1688.21</ele>
        <time>2017-07-04T14:42:55Z</time>
      </trkpt>
      <trkpt lat="46.238861968740821" lon="11.891141077503562">
        <ele>1685.8099999999999</ele>
        <time>2017-07-04T14:43:06Z</time>
      </trkpt>
      <trkpt lat="46.238866159692407" lon="11.891213329508901">
        <ele>1684.8499999999999</ele>
        <time>2017-07-04T14:43:15Z</time>
      </trkpt>
      <trkpt lat="46.238860208541155" lon="11.891278708353639">
        <ele>1681.48</ele>
        <time>2017-07-04T14:43:25Z</time>
      </trkpt>
      <trkpt lat="46.238842271268368" lon="11.891363114118576">
        <ele>1679.0799999999999</ele>
        <time>2017-07-04T14:43:36Z</time>
      </trkpt>
      <trkpt lat="46.238806983456016" lon="11.891380380839109">
        <ele>1677.1600000000001</ele>
        <time>2017-07-04T14:43:49Z</time>
      </trkpt>
      <trkpt lat="46.238762475550175" lon="11.891407202929258">
        <ele>1674.27</ele>
        <time>2017-07-04T14:43:58Z</time>
      </trkpt>
      <trkpt lat="46.238737748935819" lon="11.891531925648451">
        <ele>1670.9100000000001</ele>
        <time>2017-07-04T14:44:10Z</time>
      </trkpt>
      <trkpt lat="46.238724840804935" lon="11.891623539850116">
        <ele>1668.51</ele>
        <time>2017-07-04T14:44:21Z</time>
      </trkpt>
      <trkpt lat="46.238721990957856" lon="11.891681626439095">
        <ele>1665.6199999999999</ele>
        <time>2017-07-04T14:44:31Z</time>
      </trkpt>
      <trkpt lat="46.238750740885735" lon="11.891757482662797">
        <ele>1665.6199999999999</ele>
        <time>2017-07-04T14:44:42Z</time>
      </trkpt>
      <trkpt lat="46.238737665116787" lon="11.89183191396296">
        <ele>1663.7</ele>
        <time>2017-07-04T14:44:47Z</time>
      </trkpt>
      <trkpt lat="46.238658707588911" lon="11.891877679154277">
        <ele>1662.74</ele>
        <time>2017-07-04T14:44:57Z</time>
      </trkpt>
      <trkpt lat="46.238646302372217" lon="11.891907518729568">
        <ele>1661.3</ele>
        <time>2017-07-04T14:45:03Z</time>
      </trkpt>
      <trkpt lat="46.238618558272719" lon="11.891979351639748">
        <ele>1660.8099999999999</ele>
        <time>2017-07-04T14:45:14Z</time>
      </trkpt>
      <trkpt lat="46.238558795303106" lon="11.891968790441751">
        <ele>1657.45</ele>
        <time>2017-07-04T14:45:23Z</time>
      </trkpt>
      <trkpt lat="46.238538427278399" lon="11.891921181231737">
        <ele>1655.53</ele>
        <time>2017-07-04T14:45:32Z</time>
      </trkpt>
      <trkpt lat="46.238519232720137" lon="11.891879104077816">
        <ele>1653.5999999999999</ele>
        <time>2017-07-04T14:45:41Z</time>
      </trkpt>
      <trkpt lat="46.238511186093092" lon="11.891884552314878">
        <ele>1652.1600000000001</ele>
        <time>2017-07-04T14:45:49Z</time>
      </trkpt>
      <trkpt lat="46.23848469927907" lon="11.891937190666795">
        <ele>1650.72</ele>
        <time>2017-07-04T14:46:04Z</time>
      </trkpt>
      <trkpt lat="46.238438850268722" lon="11.891928389668465">
        <ele>1648.3199999999999</ele>
        <time>2017-07-04T14:46:13Z</time>
      </trkpt>
      <trkpt lat="46.23839920386672" lon="11.891927132382989">
        <ele>1645.4300000000001</ele>
        <time>2017-07-04T14:46:24Z</time>
      </trkpt>
      <trkpt lat="46.238399455323815" lon="11.891884384676814">
        <ele>1643.99</ele>
        <time>2017-07-04T14:46:34Z</time>
      </trkpt>
      <trkpt lat="46.238391911610961" lon="11.891881786286831">
        <ele>1643.51</ele>
        <time>2017-07-04T14:46:52Z</time>
      </trkpt>
      <trkpt lat="46.238340782001615" lon="11.891854126006365">
        <ele>1640.6300000000001</ele>
        <time>2017-07-04T14:47:01Z</time>
      </trkpt>
      <trkpt lat="46.238288227468729" lon="11.891880529001355">
        <ele>1638.7</ele>
        <time>2017-07-04T14:47:10Z</time>
      </trkpt>
      <trkpt lat="46.238246317952871" lon="11.891880612820387">
        <ele>1636.78</ele>
        <time>2017-07-04T14:47:19Z</time>
      </trkpt>
      <trkpt lat="46.238219076767564" lon="11.891854796558619">
        <ele>1634.3800000000001</ele>
        <time>2017-07-04T14:47:28Z</time>
      </trkpt>
      <trkpt lat="46.238214885815978" lon="11.891867704689503">
        <ele>1633.9000000000001</ele>
        <time>2017-07-04T14:47:41Z</time>
      </trkpt>
      <trkpt lat="46.238210527226329" lon="11.891867704689503">
        <ele>1632.9400000000001</ele>
        <time>2017-07-04T14:47:53Z</time>
      </trkpt>
      <trkpt lat="46.238210946321487" lon="11.891857143491507">
        <ele>1632.9400000000001</ele>
        <time>2017-07-04T14:48:06Z</time>
      </trkpt>
      <trkpt lat="46.238209772855043" lon="11.891873488202691">
        <ele>1632.46</ele>
        <time>2017-07-04T14:48:27Z</time>
      </trkpt>
      <trkpt lat="46.238210778683424" lon="11.891887988895178">
        <ele>1632.46</ele>
        <time>2017-07-04T14:48:43Z</time>
      </trkpt>
      <trkpt lat="46.238204073160887" lon="11.891950434073806">
        <ele>1632.46</ele>
        <time>2017-07-04T14:48:55Z</time>
      </trkpt>
      <trkpt lat="46.238214131444693" lon="11.892057722434402">
        <ele>1632.9400000000001</ele>
        <time>2017-07-04T14:49:08Z</time>
      </trkpt>
      <trkpt lat="46.238212287425995" lon="11.892150677740574">
        <ele>1632.46</ele>
        <time>2017-07-04T14:49:27Z</time>
      </trkpt>
      <trkpt lat="46.238240115344524" lon="11.892352011054754">
        <ele>1630.53</ele>
        <time>2017-07-04T14:49:47Z</time>
      </trkpt>
      <trkpt lat="46.238257130607963" lon="11.892429040744901">
        <ele>1629.5699999999999</ele>
        <time>2017-07-04T14:49:57Z</time>
      </trkpt>
      <trkpt lat="46.238257884979248" lon="11.892532724887133">
        <ele>1629.0899999999999</ele>
        <time>2017-07-04T14:50:08Z</time>
      </trkpt>
      <trkpt lat="46.238234750926495" lon="11.892593493685126">
        <ele>1628.6099999999999</ele>
        <time>2017-07-04T14:50:19Z</time>
      </trkpt>
      <trkpt lat="46.238205414265394" lon="11.892618974670768">
        <ele>1627.1700000000001</ele>
        <time>2017-07-04T14:50:28Z</time>
      </trkpt>
      <trkpt lat="46.238216226920485" lon="11.892672618851066">
        <ele>1625.25</ele>
        <time>2017-07-04T14:50:38Z</time>
      </trkpt>
      <trkpt lat="46.238242713734508" lon="11.892735734581947">
        <ele>1623.8</ele>
        <time>2017-07-04T14:50:48Z</time>
      </trkpt>
      <trkpt lat="46.238287976011634" lon="11.892833132296801">
        <ele>1623.8</ele>
        <time>2017-07-04T14:51:00Z</time>
      </trkpt>
      <trkpt lat="46.238299291580915" lon="11.892923321574926">
        <ele>1622.8399999999999</ele>
        <time>2017-07-04T14:51:10Z</time>
      </trkpt>
      <trkpt lat="46.23829560354352" lon="11.893017617985606">
        <ele>1621.4000000000001</ele>
        <time>2017-07-04T14:51:22Z</time>
      </trkpt>
      <trkpt lat="46.238298872485757" lon="11.893069921061397">
        <ele>1621.4000000000001</ele>
        <time>2017-07-04T14:51:33Z</time>
      </trkpt>
      <trkpt lat="46.238280851393938" lon="11.893114428967237">
        <ele>1619.96</ele>
        <time>2017-07-04T14:51:38Z</time>
      </trkpt>
      <trkpt lat="46.238292753696442" lon="11.893173605203629">
        <ele>1618.52</ele>
        <time>2017-07-04T14:51:51Z</time>
      </trkpt>
      <trkpt lat="46.238261740654707" lon="11.893225573003292">
        <ele>1617.0699999999999</ele>
        <time>2017-07-04T14:51:59Z</time>
      </trkpt>
      <trkpt lat="46.238251850008965" lon="11.893318360671401">
        <ele>1614.6700000000001</ele>
        <time>2017-07-04T14:52:08Z</time>
      </trkpt>
      <trkpt lat="46.238243049010634" lon="11.89339404925704">
        <ele>1612.27</ele>
        <time>2017-07-04T14:52:19Z</time>
      </trkpt>
      <trkpt lat="46.238281605765224" lon="11.893467977643013">
        <ele>1611.3099999999999</ele>
        <time>2017-07-04T14:52:31Z</time>
      </trkpt>
      <trkpt lat="46.238288898020983" lon="11.89352598041296">
        <ele>1610.8299999999999</ele>
        <time>2017-07-04T14:52:36Z</time>
      </trkpt>
      <trkpt lat="46.238248329609632" lon="11.893627736717463">
        <ele>1608.4200000000001</ele>
        <time>2017-07-04T14:52:46Z</time>
      </trkpt>
      <trkpt lat="46.238218657672405" lon="11.893707364797592">
        <ele>1606.5</ele>
        <time>2017-07-04T14:52:57Z</time>
      </trkpt>
      <trkpt lat="46.238219244405627" lon="11.893747597932816">
        <ele>1606.02</ele>
        <time>2017-07-04T14:53:07Z</time>
      </trkpt>
      <trkpt lat="46.238164426758885" lon="11.893776515498757">
        <ele>1603.6199999999999</ele>
        <time>2017-07-04T14:53:18Z</time>
      </trkpt>
      <trkpt lat="46.238151770085096" lon="11.893811468034983">
        <ele>1602.6600000000001</ele>
        <time>2017-07-04T14:53:28Z</time>
      </trkpt>
      <trkpt lat="46.238137185573578" lon="11.893833931535482">
        <ele>1600.73</ele>
        <time>2017-07-04T14:53:39Z</time>
      </trkpt>
      <trkpt lat="46.238112961873412" lon="11.893872236832976">
        <ele>1598.8099999999999</ele>
        <time>2017-07-04T14:53:49Z</time>
      </trkpt>
      <trkpt lat="46.238110028207302" lon="11.89394373446703">
        <ele>1596.8900000000001</ele>
        <time>2017-07-04T14:54:00Z</time>
      </trkpt>
      <trkpt lat="46.238115476444364" lon="11.894022775813937">
        <ele>1594.96</ele>
        <time>2017-07-04T14:54:10Z</time>
      </trkpt>
      <trkpt lat="46.238140789791942" lon="11.894149342551827">
        <ele>1593.04</ele>
        <time>2017-07-04T14:54:22Z</time>
      </trkpt>
      <trkpt lat="46.238162666559219" lon="11.894241292029619">
        <ele>1591.5999999999999</ele>
        <time>2017-07-04T14:54:31Z</time>
      </trkpt>
      <trkpt lat="46.238132240250707" lon="11.894248584285378">
        <ele>1591.5999999999999</ele>
        <time>2017-07-04T14:54:41Z</time>
      </trkpt>
      <trkpt lat="46.238191835582256" lon="11.894339611753821">
        <ele>1589.2</ele>
        <time>2017-07-04T14:54:52Z</time>
      </trkpt>
      <trkpt lat="46.238162247464061" lon="11.894413288682699">
        <ele>1586.3099999999999</ele>
        <time>2017-07-04T14:55:03Z</time>
      </trkpt>
      <trkpt lat="46.238118158653378" lon="11.894424939528108">
        <ele>1584.3900000000001</ele>
        <time>2017-07-04T14:55:13Z</time>
      </trkpt>
      <trkpt lat="46.238078847527504" lon="11.894436003640294">
        <ele>1582.47</ele>
        <time>2017-07-04T14:55:22Z</time>
      </trkpt>
      <trkpt lat="46.238102233037353" lon="11.894473219290376">
        <ele>1581.03</ele>
        <time>2017-07-04T14:55:32Z</time>
      </trkpt>
      <trkpt lat="46.238150177523494" lon="11.894526947289705">
        <ele>1578.6199999999999</ele>
        <time>2017-07-04T14:55:42Z</time>
      </trkpt>
      <trkpt lat="46.238167276605964" lon="11.894545219838619">
        <ele>1577.6600000000001</ele>
        <time>2017-07-04T14:55:51Z</time>
      </trkpt>
      <trkpt lat="46.238217735663056" lon="11.89461512491107">
        <ele>1576.7</ele>
        <time>2017-07-04T14:56:01Z</time>
      </trkpt>
      <trkpt lat="46.238270960748196" lon="11.894692238420248">
        <ele>1574.78</ele>
        <time>2017-07-04T14:56:12Z</time>
      </trkpt>
      <trkpt lat="46.23832929879427" lon="11.894755437970161">
        <ele>1572.3699999999999</ele>
        <time>2017-07-04T14:56:23Z</time>
      </trkpt>
      <trkpt lat="46.238375650718808" lon="11.894832719117403">
        <ele>1569.97</ele>
        <time>2017-07-04T14:56:33Z</time>
      </trkpt>
      <trkpt lat="46.238411944359541" lon="11.894965237006545">
        <ele>1567.0899999999999</ele>
        <time>2017-07-04T14:56:45Z</time>
      </trkpt>
      <trkpt lat="46.238438012078404" lon="11.8950573541224">
        <ele>1564.6800000000001</ele>
        <time>2017-07-04T14:56:57Z</time>
      </trkpt>
      <trkpt lat="46.23844220302999" lon="11.895103957504034">
        <ele>1563.72</ele>
        <time>2017-07-04T14:57:08Z</time>
      </trkpt>
      <trkpt lat="46.238448573276401" lon="11.895233625546098">
        <ele>1560.8399999999999</ele>
        <time>2017-07-04T14:57:20Z</time>
      </trkpt>
      <trkpt lat="46.238447818905115" lon="11.895300596952438">
        <ele>1559.8800000000001</ele>
        <time>2017-07-04T14:57:25Z</time>
      </trkpt>
      <trkpt lat="46.238462319597602" lon="11.895348122343421">
        <ele>1558.4300000000001</ele>
        <time>2017-07-04T14:57:34Z</time>
      </trkpt>
      <trkpt lat="46.238405909389257" lon="11.895368238911033">
        <ele>1556.03</ele>
        <time>2017-07-04T14:57:44Z</time>
      </trkpt>
      <trkpt lat="46.238391995429993" lon="11.895334208384156">
        <ele>1554.1099999999999</ele>
        <time>2017-07-04T14:57:53Z</time>
      </trkpt>
      <trkpt lat="46.238348828628659" lon="11.895300513133407">
        <ele>1553.6300000000001</ele>
        <time>2017-07-04T14:58:04Z</time>
      </trkpt>
      <trkpt lat="46.238276911899447" lon="11.895272685214877">
        <ele>1550.74</ele>
        <time>2017-07-04T14:58:16Z</time>
      </trkpt>
      <trkpt lat="46.238226955756545" lon="11.895257430151105">
        <ele>1548.3399999999999</ele>
        <time>2017-07-04T14:58:26Z</time>
      </trkpt>
      <trkpt lat="46.238219914957881" lon="11.895259441807866">
        <ele>1547.8599999999999</ele>
        <time>2017-07-04T14:58:27Z</time>
      </trkpt>
      <trkpt lat="46.238177502527833" lon="11.895270086824894">
        <ele>1545.9400000000001</ele>
        <time>2017-07-04T14:58:37Z</time>
      </trkpt>
      <trkpt lat="46.238112458959222" lon="11.895307637751102">
        <ele>1543.05</ele>
        <time>2017-07-04T14:58:50Z</time>
      </trkpt>
      <trkpt lat="46.238066023215652" lon="11.895298417657614">
        <ele>1541.1300000000001</ele>
        <time>2017-07-04T14:58:59Z</time>
      </trkpt>
      <trkpt lat="46.238045739009976" lon="11.895328089594841">
        <ele>1539.21</ele>
        <time>2017-07-04T14:59:08Z</time>
      </trkpt>
      <trkpt lat="46.237989831715822" lon="11.895353402942419">
        <ele>1536.8</ele>
        <time>2017-07-04T14:59:18Z</time>
      </trkpt>
      <trkpt lat="46.237925542518497" lon="11.895328927785158">
        <ele>1535.3599999999999</ele>
        <time>2017-07-04T14:59:28Z</time>
      </trkpt>
      <trkpt lat="46.237899893894792" lon="11.895352816209197">
        <ele>1533.9200000000001</ele>
        <time>2017-07-04T14:59:38Z</time>
      </trkpt>
      <trkpt lat="46.237866366282105" lon="11.895370669662952">
        <ele>1532.48</ele>
        <time>2017-07-04T14:59:51Z</time>
      </trkpt>
      <trkpt lat="46.237797969952226" lon="11.895356336608529">
        <ele>1529.1099999999999</ele>
        <time>2017-07-04T15:00:02Z</time>
      </trkpt>
      <trkpt lat="46.237770561128855" lon="11.89541894942522">
        <ele>1527.6700000000001</ele>
        <time>2017-07-04T15:00:11Z</time>
      </trkpt>
      <trkpt lat="46.237746672704816" lon="11.895490447059274">
        <ele>1527.1900000000001</ele>
        <time>2017-07-04T15:00:18Z</time>
      </trkpt>
      <trkpt lat="46.237716162577271" lon="11.8955581728369">
        <ele>1525.27</ele>
        <time>2017-07-04T15:00:28Z</time>
      </trkpt>
      <trkpt lat="46.237685065716505" lon="11.895624808967113">
        <ele>1524.3099999999999</ele>
        <time>2017-07-04T15:00:38Z</time>
      </trkpt>
      <trkpt lat="46.237659165635705" lon="11.895662108436227">
        <ele>1523.3499999999999</ele>
        <time>2017-07-04T15:00:47Z</time>
      </trkpt>
      <trkpt lat="46.23761884868145" lon="11.895692953839898">
        <ele>1521.4200000000001</ele>
        <time>2017-07-04T15:00:58Z</time>
      </trkpt>
      <trkpt lat="46.237633097916842" lon="11.895711226388812">
        <ele>1520.46</ele>
        <time>2017-07-04T15:01:03Z</time>
      </trkpt>
      <trkpt lat="46.237655058503151" lon="11.895797224715352">
        <ele>1519.98</ele>
        <time>2017-07-04T15:01:14Z</time>
      </trkpt>
      <trkpt lat="46.237652460113168" lon="11.895841229707003">
        <ele>1519.5</ele>
        <time>2017-07-04T15:01:25Z</time>
      </trkpt>
      <trkpt lat="46.237622452899814" lon="11.895841648802161">
        <ele>1518.0599999999999</ele>
        <time>2017-07-04T15:01:35Z</time>
      </trkpt>
      <trkpt lat="46.237669391557574" lon="11.895854054018855">
        <ele>1516.6199999999999</ele>
        <time>2017-07-04T15:01:47Z</time>
      </trkpt>
      <trkpt lat="46.237674336880445" lon="11.895944327116013">
        <ele>1515.6600000000001</ele>
        <time>2017-07-04T15:01:57Z</time>
      </trkpt>
      <trkpt lat="46.237633852288127" lon="11.896014232188463">
        <ele>1515.6600000000001</ele>
        <time>2017-07-04T15:02:10Z</time>
      </trkpt>
      <trkpt lat="46.237609293311834" lon="11.896058404818177">
        <ele>1515.6600000000001</ele>
        <time>2017-07-04T15:02:20Z</time>
      </trkpt>
      <trkpt lat="46.237586578354239" lon="11.896058823913336">
        <ele>1515.1800000000001</ele>
        <time>2017-07-04T15:02:31Z</time>
      </trkpt>
      <trkpt lat="46.23754458501935" lon="11.896111629903316">
        <ele>1513.73</ele>
        <time>2017-07-04T15:02:37Z</time>
      </trkpt>
      <trkpt lat="46.237519104033709" lon="11.896146917715669">
        <ele>1512.77</ele>
        <time>2017-07-04T15:02:40Z</time>
      </trkpt>
      <trkpt lat="46.237463112920523" lon="11.896238280460238">
        <ele>1511.3299999999999</ele>
        <time>2017-07-04T15:02:51Z</time>
      </trkpt>
      <trkpt lat="46.237475937232375" lon="11.896345987915993">
        <ele>1509.8900000000001</ele>
        <time>2017-07-04T15:03:01Z</time>
      </trkpt>
      <trkpt lat="46.237474679946899" lon="11.89641572535038">
        <ele>1507.97</ele>
        <time>2017-07-04T15:03:11Z</time>
      </trkpt>
      <trkpt lat="46.237524133175611" lon="11.896488564088941">
        <ele>1507</ele>
        <time>2017-07-04T15:03:21Z</time>
      </trkpt>
      <trkpt lat="46.237548356875777" lon="11.896525863558054">
        <ele>1508.9300000000001</ele>
        <time>2017-07-04T15:03:26Z</time>
      </trkpt>
      <trkpt lat="46.237572161480784" lon="11.896514380350709">
        <ele>1508.45</ele>
        <time>2017-07-04T15:03:35Z</time>
      </trkpt>
      <trkpt lat="46.23764131218195" lon="11.896572886034846">
        <ele>1508.45</ele>
        <time>2017-07-04T15:03:45Z</time>
      </trkpt>
      <trkpt lat="46.237657992169261" lon="11.896668775007129">
        <ele>1508.9300000000001</ele>
        <time>2017-07-04T15:03:55Z</time>
      </trkpt>
      <trkpt lat="46.237668888643384" lon="11.896743625402451">
        <ele>1507.48</ele>
        <time>2017-07-04T15:04:04Z</time>
      </trkpt>
      <trkpt lat="46.237673331052065" lon="11.896817972883582">
        <ele>1507.97</ele>
        <time>2017-07-04T15:04:17Z</time>
      </trkpt>
      <trkpt lat="46.237655896693468" lon="11.896882178261876">
        <ele>1506.04</ele>
        <time>2017-07-04T15:04:29Z</time>
      </trkpt>
      <trkpt lat="46.237674839794636" lon="11.896963231265545">
        <ele>1504.5999999999999</ele>
        <time>2017-07-04T15:04:39Z</time>
      </trkpt>
      <trkpt lat="46.237695710733533" lon="11.897099604830146">
        <ele>1502.2</ele>
        <time>2017-07-04T15:04:50Z</time>
      </trkpt>
      <trkpt lat="46.237743571400642" lon="11.897180154919624">
        <ele>1501.72</ele>
        <time>2017-07-04T15:05:01Z</time>
      </trkpt>
      <trkpt lat="46.237759999930859" lon="11.897207731381059">
        <ele>1501.24</ele>
        <time>2017-07-04T15:05:12Z</time>
      </trkpt>
      <trkpt lat="46.237741811200976" lon="11.897265985608101">
        <ele>1500.27</ele>
        <time>2017-07-04T15:05:22Z</time>
      </trkpt>
      <trkpt lat="46.237787995487452" lon="11.897330190986395">
        <ele>1498.8299999999999</ele>
        <time>2017-07-04T15:05:33Z</time>
      </trkpt>
      <trkpt lat="46.237792018800974" lon="11.897344188764691">
        <ele>1498.3499999999999</ele>
        <time>2017-07-04T15:05:34Z</time>
      </trkpt>
      <trkpt lat="46.237781038507819" lon="11.897495230659842">
        <ele>1495.47</ele>
        <time>2017-07-04T15:05:44Z</time>
      </trkpt>
      <trkpt lat="46.237813057377934" lon="11.89753663726151">
        <ele>1495.47</ele>
        <time>2017-07-04T15:05:55Z</time>
      </trkpt>
      <trkpt lat="46.23776008374989" lon="11.897627497091889">
        <ele>1493.0599999999999</ele>
        <time>2017-07-04T15:06:06Z</time>
      </trkpt>
      <trkpt lat="46.237757736817002" lon="11.897651804611087">
        <ele>1491.6199999999999</ele>
        <time>2017-07-04T15:06:09Z</time>
      </trkpt>
      <trkpt lat="46.237806519493461" lon="11.897839643061161">
        <ele>1491.6199999999999</ele>
        <time>2017-07-04T15:06:22Z</time>
      </trkpt>
      <trkpt lat="46.237864522263408" lon="11.897986913099885">
        <ele>1489.7</ele>
        <time>2017-07-04T15:06:35Z</time>
      </trkpt>
      <trkpt lat="46.237784223631024" lon="11.898051034659147">
        <ele>1488.74</ele>
        <time>2017-07-04T15:06:46Z</time>
      </trkpt>
      <trkpt lat="46.237764861434698" lon="11.898095961660147">
        <ele>1486.3399999999999</ele>
        <time>2017-07-04T15:06:54Z</time>
      </trkpt>
      <trkpt lat="46.237734267488122" lon="11.89817818813026">
        <ele>1484.8900000000001</ele>
        <time>2017-07-04T15:07:04Z</time>
      </trkpt>
      <trkpt lat="46.237654220312834" lon="11.898224204778671">
        <ele>1482.97</ele>
        <time>2017-07-04T15:07:13Z</time>
      </trkpt>
      <trkpt lat="46.237629912793636" lon="11.898338701575994">
        <ele>1480.0899999999999</ele>
        <time>2017-07-04T15:07:25Z</time>
      </trkpt>
      <trkpt lat="46.237583057954907" lon="11.89837901853025">
        <ele>1479.1300000000001</ele>
        <time>2017-07-04T15:07:34Z</time>
      </trkpt>
      <trkpt lat="46.237593535333872" lon="11.898460406810045">
        <ele>1479.1300000000001</ele>
        <time>2017-07-04T15:07:45Z</time>
      </trkpt>
      <trkpt lat="46.23766721226275" lon="11.898561827838421">
        <ele>1479.1300000000001</ele>
        <time>2017-07-04T15:07:57Z</time>
      </trkpt>
      <trkpt lat="46.237697219476104" lon="11.898626117035747">
        <ele>1480.5699999999999</ele>
        <time>2017-07-04T15:08:04Z</time>
      </trkpt>
      <trkpt lat="46.237739128991961" lon="11.898702476173639">
        <ele>1481.53</ele>
        <time>2017-07-04T15:08:15Z</time>
      </trkpt>
      <trkpt lat="46.237763771787286" lon="11.898792246356606">
        <ele>1482.49</ele>
        <time>2017-07-04T15:08:25Z</time>
      </trkpt>
      <trkpt lat="46.237790510058403" lon="11.898843878880143">
        <ele>1482.97</ele>
        <time>2017-07-04T15:08:34Z</time>
      </trkpt>
      <trkpt lat="46.237831581383944" lon="11.89890724606812">
        <ele>1483.45</ele>
        <time>2017-07-04T15:08:44Z</time>
      </trkpt>
      <trkpt lat="46.237907353788614" lon="11.898984778672457">
        <ele>1484.8900000000001</ele>
        <time>2017-07-04T15:08:57Z</time>
      </trkpt>
      <trkpt lat="46.237906850874424" lon="11.899083601310849">
        <ele>1486.3399999999999</ele>
        <time>2017-07-04T15:09:07Z</time>
      </trkpt>
      <trkpt lat="46.237932583317161" lon="11.899159708991647">
        <ele>1487.78</ele>
        <time>2017-07-04T15:09:19Z</time>
      </trkpt>
      <trkpt lat="46.237924620509148" lon="11.899169599637389">
        <ele>1487.78</ele>
        <time>2017-07-04T15:09:32Z</time>
      </trkpt>
      <trkpt lat="46.237948257476091" lon="11.899184603244066">
        <ele>1488.26</ele>
        <time>2017-07-04T15:09:53Z</time>
      </trkpt>
      <trkpt lat="46.237943563610315" lon="11.899257274344563">
        <ele>1486.3399999999999</ele>
        <time>2017-07-04T15:10:06Z</time>
      </trkpt>
      <trkpt lat="46.237955298274755" lon="11.899299938231707">
        <ele>1487.3</ele>
        <time>2017-07-04T15:10:15Z</time>
      </trkpt>
      <trkpt lat="46.237984467297792" lon="11.899350732564926">
        <ele>1487.78</ele>
        <time>2017-07-04T15:10:25Z</time>
      </trkpt>
      <trkpt lat="46.237925793975592" lon="11.899345116689801">
        <ele>1486.8199999999999</ele>
        <time>2017-07-04T15:10:36Z</time>
      </trkpt>
      <trkpt lat="46.237916070967913" lon="11.899353414773941">
        <ele>1486.8199999999999</ele>
        <time>2017-07-04T15:10:47Z</time>
      </trkpt>
      <trkpt lat="46.237953118979931" lon="11.899342853575945">
        <ele>1485.8499999999999</ele>
        <time>2017-07-04T15:10:56Z</time>
      </trkpt>
      <trkpt lat="46.237928476184607" lon="11.899322820827365">
        <ele>1485.8499999999999</ele>
        <time>2017-07-04T15:11:10Z</time>
      </trkpt>
      <trkpt lat="46.237928057089448" lon="11.899329777806997">
        <ele>1485.8499999999999</ele>
        <time>2017-07-04T15:11:32Z</time>
      </trkpt>
      <trkpt lat="46.237921686843038" lon="11.899316450580955">
        <ele>1485.3699999999999</ele>
        <time>2017-07-04T15:11:57Z</time>
      </trkpt>
      <trkpt lat="46.23793157748878" lon="11.899387445300817">
        <ele>1485.8499999999999</ele>
        <time>2017-07-04T15:12:27Z</time>
      </trkpt>
      <trkpt lat="46.237943982705474" lon="11.899438239634037">
        <ele>1485.8499999999999</ele>
        <time>2017-07-04T15:12:53Z</time>
      </trkpt>
      <trkpt lat="46.237968122586608" lon="11.899358276277781">
        <ele>1485.8499999999999</ele>
        <time>2017-07-04T15:13:21Z</time>
      </trkpt>
      <trkpt lat="46.237938366830349" lon="11.899358192458749">
        <ele>1485.8499999999999</ele>
        <time>2017-07-04T15:13:42Z</time>
      </trkpt>
      <trkpt lat="46.237928392365575" lon="11.899359198287129">
        <ele>1485.8499999999999</ele>
        <time>2017-07-04T15:14:08Z</time>
      </trkpt>
      <trkpt lat="46.237955298274755" lon="11.899353582412004">
        <ele>1486.3399999999999</ele>
        <time>2017-07-04T15:14:34Z</time>
      </trkpt>
      <trkpt lat="46.237915148958564" lon="11.8993572704494">
        <ele>1486.8199999999999</ele>
        <time>2017-07-04T15:15:03Z</time>
      </trkpt>
      <trkpt lat="46.237882878631353" lon="11.899330113083124">
        <ele>1487.3</ele>
        <time>2017-07-04T15:15:29Z</time>
      </trkpt>
      <trkpt lat="46.237897463142872" lon="11.899365652352571">
        <ele>1487.78</ele>
        <time>2017-07-04T15:15:56Z</time>
      </trkpt>
      <trkpt lat="46.237941719591618" lon="11.899409070611">
        <ele>1488.26</ele>
        <time>2017-07-04T15:16:18Z</time>
      </trkpt>
      <trkpt lat="46.237880950793624" lon="11.899330615997314">
        <ele>1488.74</ele>
        <time>2017-07-04T15:16:37Z</time>
      </trkpt>
      <trkpt lat="46.23784021474421" lon="11.89927764236927">
        <ele>1489.22</ele>
        <time>2017-07-04T15:16:57Z</time>
      </trkpt>
      <trkpt lat="46.237854044884443" lon="11.899337992072105">
        <ele>1489.7</ele>
        <time>2017-07-04T15:17:20Z</time>
      </trkpt>
      <trkpt lat="46.237866282463074" lon="11.899397755041718">
        <ele>1490.1800000000001</ele>
        <time>2017-07-04T15:17:44Z</time>
      </trkpt>
      <trkpt lat="46.23787977732718" lon="11.899434635415673">
        <ele>1490.6600000000001</ele>
        <time>2017-07-04T15:18:03Z</time>
      </trkpt>
      <trkpt lat="46.237857984378934" lon="11.899416949599981">
        <ele>1491.1400000000001</ele>
        <time>2017-07-04T15:18:32Z</time>
      </trkpt>
      <trkpt lat="46.237892350181937" lon="11.899449974298477">
        <ele>1492.0999999999999</ele>
        <time>2017-07-04T15:18:53Z</time>
      </trkpt>
      <trkpt lat="46.237865528091788" lon="11.899437149986625">
        <ele>1492.5799999999999</ele>
        <time>2017-07-04T15:19:15Z</time>
      </trkpt>
      <trkpt lat="46.237886063754559" lon="11.899445615708828">
        <ele>1493.55</ele>
        <time>2017-07-04T15:19:32Z</time>
      </trkpt>
      <trkpt lat="46.237814566120505" lon="11.899387445300817">
        <ele>1494.03</ele>
        <time>2017-07-04T15:19:52Z</time>
      </trkpt>
      <trkpt lat="46.237808279693127" lon="11.899396246299148">
        <ele>1494.51</ele>
        <time>2017-07-04T15:20:03Z</time>
      </trkpt>
      <trkpt lat="46.237788666039705" lon="11.899344110861421">
        <ele>1495.47</ele>
        <time>2017-07-04T15:20:12Z</time>
      </trkpt>
      <trkpt lat="46.237781625241041" lon="11.899298932403326">
        <ele>1495.47</ele>
        <time>2017-07-04T15:20:24Z</time>
      </trkpt>
      <trkpt lat="46.237768130376935" lon="11.899281917139888">
        <ele>1495.95</ele>
        <time>2017-07-04T15:20:38Z</time>
      </trkpt>
      <trkpt lat="46.237735273316503" lon="11.899256352335215">
        <ele>1495.95</ele>
        <time>2017-07-04T15:20:51Z</time>
      </trkpt>
      <trkpt lat="46.237725466489792" lon="11.89924830570817">
        <ele>1495.95</ele>
        <time>2017-07-04T15:21:07Z</time>
      </trkpt>
      <trkpt lat="46.23774298466742" lon="11.899241851642728">
        <ele>1495.95</ele>
        <time>2017-07-04T15:21:17Z</time>
      </trkpt>
      <trkpt lat="46.237757233902812" lon="11.899248892441392">
        <ele>1496.4300000000001</ele>
        <time>2017-07-04T15:21:28Z</time>
      </trkpt>
      <trkpt lat="46.23773954808712" lon="11.899250820279121">
        <ele>1496.9100000000001</ele>
        <time>2017-07-04T15:21:36Z</time>
      </trkpt>
      <trkpt lat="46.237712977454066" lon="11.899315025657415">
        <ele>1497.3900000000001</ele>
        <time>2017-07-04T15:21:46Z</time>
      </trkpt>
      <trkpt lat="46.237675761803985" lon="11.899379063397646">
        <ele>1497.8699999999999</ele>
        <time>2017-07-04T15:21:57Z</time>
      </trkpt>
      <trkpt lat="46.237645503133535" lon="11.899470593780279">
        <ele>1498.8299999999999</ele>
        <time>2017-07-04T15:22:10Z</time>
      </trkpt>
      <trkpt lat="46.237631840631366" lon="11.899560447782278">
        <ele>1500.27</ele>
        <time>2017-07-04T15:22:20Z</time>
      </trkpt>
      <trkpt lat="46.237565036863089" lon="11.899545108899474">
        <ele>1501.72</ele>
        <time>2017-07-04T15:22:31Z</time>
      </trkpt>
      <trkpt lat="46.237520864233375" lon="11.899583917111158">
        <ele>1502.2</ele>
        <time>2017-07-04T15:22:42Z</time>
      </trkpt>
      <trkpt lat="46.237535364925861" lon="11.899718530476093">
        <ele>1504.1199999999999</ele>
        <time>2017-07-04T15:22:52Z</time>
      </trkpt>
      <trkpt lat="46.23750451952219" lon="11.899775778874755">
        <ele>1505.5599999999999</ele>
        <time>2017-07-04T15:23:02Z</time>
      </trkpt>
      <trkpt lat="46.237457580864429" lon="11.899795308709145">
        <ele>1507.48</ele>
        <time>2017-07-04T15:23:13Z</time>
      </trkpt>
      <trkpt lat="46.237399745732546" lon="11.899758093059063">
        <ele>1508.9300000000001</ele>
        <time>2017-07-04T15:23:23Z</time>
      </trkpt>
      <trkpt lat="46.237372839823365" lon="11.899773683398962">
        <ele>1509.4100000000001</ele>
        <time>2017-07-04T15:23:32Z</time>
      </trkpt>
      <trkpt lat="46.237376527860761" lon="11.899779886007309">
        <ele>1511.3299999999999</ele>
        <time>2017-07-04T15:23:33Z</time>
      </trkpt>
      <trkpt lat="46.237380299717188" lon="11.899856412783265">
        <ele>1511.3299999999999</ele>
        <time>2017-07-04T15:23:44Z</time>
      </trkpt>
      <trkpt lat="46.237400667741895" lon="11.899939645081758">
        <ele>1512.29</ele>
        <time>2017-07-04T15:23:54Z</time>
      </trkpt>
      <trkpt lat="46.237429669126868" lon="11.899994127452374">
        <ele>1513.25</ele>
        <time>2017-07-04T15:24:03Z</time>
      </trkpt>
      <trkpt lat="46.23750451952219" lon="11.900060931220651">
        <ele>1514.6900000000001</ele>
        <time>2017-07-04T15:24:15Z</time>
      </trkpt>
      <trkpt lat="46.237518936395645" lon="11.900152377784252">
        <ele>1515.6600000000001</ele>
        <time>2017-07-04T15:24:24Z</time>
      </trkpt>
      <trkpt lat="46.237478703260422" lon="11.900224294513464">
        <ele>1517.0999999999999</ele>
        <time>2017-07-04T15:24:35Z</time>
      </trkpt>
      <trkpt lat="46.237402595579624" lon="11.900163860991597">
        <ele>1518.54</ele>
        <time>2017-07-04T15:24:45Z</time>
      </trkpt>
      <trkpt lat="46.237317100167274" lon="11.900163358077407">
        <ele>1519.5</ele>
        <time>2017-07-04T15:24:56Z</time>
      </trkpt>
      <trkpt lat="46.237235208973289" lon="11.900135781615973">
        <ele>1521.4200000000001</ele>
        <time>2017-07-04T15:25:07Z</time>
      </trkpt>
      <trkpt lat="46.237213583663106" lon="11.900141146034002">
        <ele>1521.9000000000001</ele>
        <time>2017-07-04T15:25:13Z</time>
      </trkpt>
      <trkpt lat="46.237185001373291" lon="11.90012639388442">
        <ele>1522.8699999999999</ele>
        <time>2017-07-04T15:25:26Z</time>
      </trkpt>
      <trkpt lat="46.237137140706182" lon="11.900126896798611">
        <ele>1525.27</ele>
        <time>2017-07-04T15:25:34Z</time>
      </trkpt>
      <trkpt lat="46.237143259495497" lon="11.900190263986588">
        <ele>1525.27</ele>
        <time>2017-07-04T15:25:47Z</time>
      </trkpt>
      <trkpt lat="46.237192545086145" lon="11.900298893451691">
        <ele>1527.1900000000001</ele>
        <time>2017-07-04T15:25:59Z</time>
      </trkpt>
      <trkpt lat="46.237231269478798" lon="11.900357734411955">
        <ele>1527.6700000000001</ele>
        <time>2017-07-04T15:26:10Z</time>
      </trkpt>
      <trkpt lat="46.2372484523803" lon="11.900416323915124">
        <ele>1529.1099999999999</ele>
        <time>2017-07-04T15:26:15Z</time>
      </trkpt>
      <trkpt lat="46.23724602162838" lon="11.900436524301767">
        <ele>1529.1099999999999</ele>
        <time>2017-07-04T15:26:18Z</time>
      </trkpt>
      <trkpt lat="46.237272173166275" lon="11.900516990572214">
        <ele>1530.0799999999999</ele>
        <time>2017-07-04T15:26:28Z</time>
      </trkpt>
      <trkpt lat="46.237273681908846" lon="11.900577172636986">
        <ele>1531.52</ele>
        <time>2017-07-04T15:26:39Z</time>
      </trkpt>
      <trkpt lat="46.237333696335554" lon="11.900647915899754">
        <ele>1532.96</ele>
        <time>2017-07-04T15:26:52Z</time>
      </trkpt>
      <trkpt lat="46.237434195354581" lon="11.900699632242322">
        <ele>1534.8800000000001</ele>
        <time>2017-07-04T15:27:06Z</time>
      </trkpt>
      <trkpt lat="46.237483564764261" lon="11.900742379948497">
        <ele>1535.8399999999999</ele>
        <time>2017-07-04T15:27:12Z</time>
      </trkpt>
      <trkpt lat="46.237542489543557" lon="11.900808596983552">
        <ele>1536.8</ele>
        <time>2017-07-04T15:27:21Z</time>
      </trkpt>
      <trkpt lat="46.237493623048067" lon="11.900818487629294">
        <ele>1538.25</ele>
        <time>2017-07-04T15:27:33Z</time>
      </trkpt>
      <trkpt lat="46.237453892827034" lon="11.900792839005589">
        <ele>1539.21</ele>
        <time>2017-07-04T15:27:41Z</time>
      </trkpt>
      <trkpt lat="46.237409384921193" lon="11.900823013857007">
        <ele>1540.6500000000001</ele>
        <time>2017-07-04T15:27:50Z</time>
      </trkpt>
      <trkpt lat="46.237350963056087" lon="11.900853188708425">
        <ele>1541.6099999999999</ele>
        <time>2017-07-04T15:28:00Z</time>
      </trkpt>
      <trkpt lat="46.237279381603003" lon="11.900848243385553">
        <ele>1543.05</ele>
        <time>2017-07-04T15:28:09Z</time>
      </trkpt>
      <trkpt lat="46.237230850383639" lon="11.900871628895402">
        <ele>1544.5</ele>
        <time>2017-07-04T15:28:20Z</time>
      </trkpt>
      <trkpt lat="46.237190365791321" lon="11.900882944464684">
        <ele>1544.98</ele>
        <time>2017-07-04T15:28:28Z</time>
      </trkpt>
      <trkpt lat="46.237159771844745" lon="11.900916891172528">
        <ele>1546.9000000000001</ele>
        <time>2017-07-04T15:28:38Z</time>
      </trkpt>
      <trkpt lat="46.237123142927885" lon="11.900943545624614">
        <ele>1547.8599999999999</ele>
        <time>2017-07-04T15:28:49Z</time>
      </trkpt>
      <trkpt lat="46.237062206491828" lon="11.900887135416269">
        <ele>1548.8199999999999</ele>
        <time>2017-07-04T15:28:59Z</time>
      </trkpt>
      <trkpt lat="46.236996157094836" lon="11.900860648602247">
        <ele>1549.78</ele>
        <time>2017-07-04T15:29:09Z</time>
      </trkpt>
      <trkpt lat="46.236958270892501" lon="11.900900881737471">
        <ele>1550.74</ele>
        <time>2017-07-04T15:29:17Z</time>
      </trkpt>
      <trkpt lat="46.23693379573524" lon="11.900942958891392">
        <ele>1552.1900000000001</ele>
        <time>2017-07-04T15:29:27Z</time>
      </trkpt>
      <trkpt lat="46.23695433139801" lon="11.900935247540474">
        <ele>1552.1900000000001</ele>
        <time>2017-07-04T15:29:34Z</time>
      </trkpt>
      <trkpt lat="46.236957348883152" lon="11.900939354673028">
        <ele>1553.6300000000001</ele>
        <time>2017-07-04T15:29:36Z</time>
      </trkpt>
      <trkpt lat="46.236979477107525" lon="11.900941450148821">
        <ele>1553.6300000000001</ele>
        <time>2017-07-04T15:29:48Z</time>
      </trkpt>
      <trkpt lat="46.237035300582647" lon="11.900970786809921">
        <ele>1555.0699999999999</ele>
        <time>2017-07-04T15:29:58Z</time>
      </trkpt>
      <trkpt lat="46.237154826521873" lon="11.901047397404909">
        <ele>1556.51</ele>
        <time>2017-07-04T15:30:12Z</time>
      </trkpt>
      <trkpt lat="46.237233281135559" lon="11.901103891432285">
        <ele>1557.95</ele>
        <time>2017-07-04T15:30:25Z</time>
      </trkpt>
      <trkpt lat="46.237293798476458" lon="11.901135072112083">
        <ele>1559.8800000000001</ele>
        <time>2017-07-04T15:30:37Z</time>
      </trkpt>
      <trkpt lat="46.237372336909175" lon="11.90120380371809">
        <ele>1560.8399999999999</ele>
        <time>2017-07-04T15:30:48Z</time>
      </trkpt>
      <trkpt lat="46.237379712983966" lon="11.901248479261994">
        <ele>1561.8</ele>
        <time>2017-07-04T15:31:01Z</time>
      </trkpt>
      <trkpt lat="46.237284746021032" lon="11.901298770681024">
        <ele>1563.72</ele>
        <time>2017-07-04T15:31:14Z</time>
      </trkpt>
      <trkpt lat="46.237220959737897" lon="11.901319725438952">
        <ele>1564.6800000000001</ele>
        <time>2017-07-04T15:31:22Z</time>
      </trkpt>
      <trkpt lat="46.237135380506516" lon="11.901318384334445">
        <ele>1566.1199999999999</ele>
        <time>2017-07-04T15:31:33Z</time>
      </trkpt>
      <trkpt lat="46.237094225361943" lon="11.901326263323426">
        <ele>1567.5699999999999</ele>
        <time>2017-07-04T15:31:45Z</time>
      </trkpt>
      <trkpt lat="46.237011915072799" lon="11.901328274980187">
        <ele>1569.01</ele>
        <time>2017-07-04T15:31:56Z</time>
      </trkpt>
      <trkpt lat="46.236928096041083" lon="11.901329616084695">
        <ele>1570.9300000000001</ele>
        <time>2017-07-04T15:32:11Z</time>
      </trkpt>
      <trkpt lat="46.236885096877813" lon="11.901325089856982">
        <ele>1572.3699999999999</ele>
        <time>2017-07-04T15:32:22Z</time>
      </trkpt>
      <trkpt lat="46.236906303092837" lon="11.901364233344793">
        <ele>1573.3299999999999</ele>
        <time>2017-07-04T15:32:33Z</time>
      </trkpt>
      <trkpt lat="46.23695625923574" lon="11.901400610804558">
        <ele>1574.78</ele>
        <time>2017-07-04T15:32:45Z</time>
      </trkpt>
      <trkpt lat="46.237034546211362" lon="11.901472695171833">
        <ele>1576.7</ele>
        <time>2017-07-04T15:32:56Z</time>
      </trkpt>
      <trkpt lat="46.237092548981309" lon="11.901481496170163">
        <ele>1577.6600000000001</ele>
        <time>2017-07-04T15:33:07Z</time>
      </trkpt>
      <trkpt lat="46.237166980281472" lon="11.901492644101381">
        <ele>1578.6199999999999</ele>
        <time>2017-07-04T15:33:18Z</time>
      </trkpt>
      <trkpt lat="46.23719522729516" lon="11.901519382372499">
        <ele>1579.5799999999999</ele>
        <time>2017-07-04T15:33:30Z</time>
      </trkpt>
      <trkpt lat="46.237231604754925" lon="11.901555424556136">
        <ele>1581.99</ele>
        <time>2017-07-04T15:33:38Z</time>
      </trkpt>
      <trkpt lat="46.237246105447412" lon="11.901618037372828">
        <ele>1581.99</ele>
        <time>2017-07-04T15:33:50Z</time>
      </trkpt>
      <trkpt lat="46.23716295696795" lon="11.901620468124747">
        <ele>1583.9100000000001</ele>
        <time>2017-07-04T15:34:02Z</time>
      </trkpt>
      <trkpt lat="46.23708819039166" lon="11.901615606620908">
        <ele>1585.8299999999999</ele>
        <time>2017-07-04T15:34:16Z</time>
      </trkpt>
      <trkpt lat="46.23701199889183" lon="11.901612589135766">
        <ele>1586.79</ele>
        <time>2017-07-04T15:34:26Z</time>
      </trkpt>
      <trkpt lat="46.236956091597676" lon="11.901627341285348">
        <ele>1587.75</ele>
        <time>2017-07-04T15:34:36Z</time>
      </trkpt>
      <trkpt lat="46.237021973356605" lon="11.901558274403214">
        <ele>1588.72</ele>
        <time>2017-07-04T15:34:45Z</time>
      </trkpt>
      <trkpt lat="46.237038820981979" lon="11.901581240817904">
        <ele>1590.1600000000001</ele>
        <time>2017-07-04T15:34:56Z</time>
      </trkpt>
      <trkpt lat="46.237085340544581" lon="11.901644691824913">
        <ele>1591.1199999999999</ele>
        <time>2017-07-04T15:35:06Z</time>
      </trkpt>
      <trkpt lat="46.237125154584646" lon="11.901697497814894">
        <ele>1592.5599999999999</ele>
        <time>2017-07-04T15:35:17Z</time>
      </trkpt>
      <trkpt lat="46.237204615026712" lon="11.901816604658961">
        <ele>1594</ele>
        <time>2017-07-04T15:35:30Z</time>
      </trkpt>
      <trkpt lat="46.237169494852424" lon="11.901867985725403">
        <ele>1595.45</ele>
        <time>2017-07-04T15:35:40Z</time>
      </trkpt>
      <trkpt lat="46.237129010260105" lon="11.901845606043935">
        <ele>1596.4100000000001</ele>
        <time>2017-07-04T15:35:49Z</time>
      </trkpt>
      <trkpt lat="46.237072851508856" lon="11.901810737326741">
        <ele>1596.8900000000001</ele>
        <time>2017-07-04T15:36:00Z</time>
      </trkpt>
      <trkpt lat="46.237012753263116" lon="11.901765055954456">
        <ele>1597.8499999999999</ele>
        <time>2017-07-04T15:36:13Z</time>
      </trkpt>
      <trkpt lat="46.236954247578979" lon="11.901747873052955">
        <ele>1599.77</ele>
        <time>2017-07-04T15:36:26Z</time>
      </trkpt>
      <trkpt lat="46.236909236758947" lon="11.901843175292015">
        <ele>1600.73</ele>
        <time>2017-07-04T15:36:36Z</time>
      </trkpt>
      <trkpt lat="46.236873026937246" lon="11.901865638792515">
        <ele>1601.6900000000001</ele>
        <time>2017-07-04T15:36:48Z</time>
      </trkpt>
      <trkpt lat="46.23689373023808" lon="11.901867398992181">
        <ele>1602.6600000000001</ele>
        <time>2017-07-04T15:36:57Z</time>
      </trkpt>
      <trkpt lat="46.236943183466792" lon="11.901841415092349">
        <ele>1604.5799999999999</ele>
        <time>2017-07-04T15:37:08Z</time>
      </trkpt>
      <trkpt lat="46.23698852956295" lon="11.901893550530076">
        <ele>1605.54</ele>
        <time>2017-07-04T15:37:20Z</time>
      </trkpt>
      <trkpt lat="46.237043514847755" lon="11.901961527764797">
        <ele>1606.98</ele>
        <time>2017-07-04T15:37:31Z</time>
      </trkpt>
      <trkpt lat="46.2370808981359" lon="11.902028331533074">
        <ele>1607.9400000000001</ele>
        <time>2017-07-04T15:37:44Z</time>
      </trkpt>
      <trkpt lat="46.236969670280814" lon="11.90204375423491">
        <ele>1609.3800000000001</ele>
        <time>2017-07-04T15:37:56Z</time>
      </trkpt>
      <trkpt lat="46.236935807392001" lon="11.902089854702353">
        <ele>1610.8299999999999</ele>
        <time>2017-07-04T15:38:09Z</time>
      </trkpt>
      <trkpt lat="46.236880738288164" lon="11.902134111151099">
        <ele>1612.27</ele>
        <time>2017-07-04T15:38:23Z</time>
      </trkpt>
      <trkpt lat="46.236858693882823" lon="11.9021375477314">
        <ele>1613.71</ele>
        <time>2017-07-04T15:38:34Z</time>
      </trkpt>
      <trkpt lat="46.236818879842758" lon="11.902177026495337">
        <ele>1615.1500000000001</ele>
        <time>2017-07-04T15:38:45Z</time>
      </trkpt>
      <trkpt lat="46.236784430220723" lon="11.902217678725719">
        <ele>1616.1099999999999</ele>
        <time>2017-07-04T15:38:58Z</time>
      </trkpt>
      <trkpt lat="46.236829273402691" lon="11.902183229103684">
        <ele>1617.5599999999999</ele>
        <time>2017-07-04T15:39:10Z</time>
      </trkpt>
      <trkpt lat="46.236932035535574" lon="11.902213990688324">
        <ele>1619</ele>
        <time>2017-07-04T15:39:22Z</time>
      </trkpt>
      <trkpt lat="46.237044855952263" lon="11.902261599898338">
        <ele>1620.9200000000001</ele>
        <time>2017-07-04T15:39:37Z</time>
      </trkpt>
      <trkpt lat="46.23707503080368" lon="11.902235532179475">
        <ele>1622.3599999999999</ele>
        <time>2017-07-04T15:39:47Z</time>
      </trkpt>
      <trkpt lat="46.237154826521873" lon="11.902326308190823">
        <ele>1623.8</ele>
        <time>2017-07-04T15:40:02Z</time>
      </trkpt>
      <trkpt lat="46.237200843170285" lon="11.902422867715359">
        <ele>1626.21</ele>
        <time>2017-07-04T15:40:18Z</time>
      </trkpt>
      <trkpt lat="46.237107133492827" lon="11.902488330379128">
        <ele>1628.1300000000001</ele>
        <time>2017-07-04T15:40:33Z</time>
      </trkpt>
      <trkpt lat="46.237047957256436" lon="11.902525629848242">
        <ele>1630.05</ele>
        <time>2017-07-04T15:40:48Z</time>
      </trkpt>
      <trkpt lat="46.236960953101516" lon="11.90257340669632">
        <ele>1631.98</ele>
        <time>2017-07-04T15:41:03Z</time>
      </trkpt>
      <trkpt lat="46.236958438530564" lon="11.902578268200159">
        <ele>1633.4200000000001</ele>
        <time>2017-07-04T15:41:16Z</time>
      </trkpt>
      <trkpt lat="46.237084334716201" lon="11.902650520205498">
        <ele>1635.3399999999999</ele>
        <time>2017-07-04T15:41:35Z</time>
      </trkpt>
      <trkpt lat="46.237118951976299" lon="11.90272830426693">
        <ele>1637.74</ele>
        <time>2017-07-04T15:41:54Z</time>
      </trkpt>
      <trkpt lat="46.237059943377972" lon="11.902728974819183">
        <ele>1640.1500000000001</ele>
        <time>2017-07-04T15:42:11Z</time>
      </trkpt>
      <trkpt lat="46.237092632800341" lon="11.902815476059914">
        <ele>1642.55</ele>
        <time>2017-07-04T15:42:32Z</time>
      </trkpt>
      <trkpt lat="46.237195311114192" lon="11.902856882661581">
        <ele>1644.47</ele>
        <time>2017-07-04T15:42:49Z</time>
      </trkpt>
      <trkpt lat="46.237213918939233" lon="11.902869287878275">
        <ele>1644.47</ele>
        <time>2017-07-04T15:42:51Z</time>
      </trkpt>
      <trkpt lat="46.23719128780067" lon="11.902970792725682">
        <ele>1646.4000000000001</ele>
        <time>2017-07-04T15:43:09Z</time>
      </trkpt>
      <trkpt lat="46.237095147371292" lon="11.902950676158071">
        <ele>1648.3199999999999</ele>
        <time>2017-07-04T15:43:22Z</time>
      </trkpt>
      <trkpt lat="46.237020548433065" lon="11.902974061667919">
        <ele>1650.72</ele>
        <time>2017-07-04T15:43:39Z</time>
      </trkpt>
      <trkpt lat="46.236990373581648" lon="11.902955453842878">
        <ele>1650.72</ele>
        <time>2017-07-04T15:43:49Z</time>
      </trkpt>
      <trkpt lat="46.236940836533904" lon="11.902920752763748">
        <ele>1650.72</ele>
        <time>2017-07-04T15:43:54Z</time>
      </trkpt>
      <trkpt lat="46.236887611448765" lon="11.902866018936038">
        <ele>1650.72</ele>
        <time>2017-07-04T15:44:01Z</time>
      </trkpt>
      <trkpt lat="46.236854335293174" lon="11.902848836034536">
        <ele>1651.2</ele>
        <time>2017-07-04T15:44:11Z</time>
      </trkpt>
      <trkpt lat="46.236843019723892" lon="11.902821594849229">
        <ele>1649.76</ele>
        <time>2017-07-04T15:44:26Z</time>
      </trkpt>
    </trkseg>
  </trk>

  <trk>
    <name>4-rif-canali-rif-cereda-2017-07-05</name>
    <extensions>
      <gpxx:TrackExtension>
        <gpxx:DisplayColor>Yellow</gpxx:DisplayColor>
      </gpxx:TrackExtension>
      <gpxtrkx:TrackStatsExtension xmlns:gpxtrkx="http://www.garmin.com/xmlschemas/TrackStatsExtension/v1">
        <gpxtrkx:Distance>12060</gpxtrkx:Distance>
        <gpxtrkx:TotalElapsedTime>23437</gpxtrkx:TotalElapsedTime>
        <gpxtrkx:MovingTime>15279</gpxtrkx:MovingTime>
        <gpxtrkx:StoppedTime>8146</gpxtrkx:StoppedTime>
        <gpxtrkx:MovingSpeed>1</gpxtrkx:MovingSpeed>
        <gpxtrkx:MaxSpeed>2</gpxtrkx:MaxSpeed>
        <gpxtrkx:MaxElevation>2154</gpxtrkx:MaxElevation>
        <gpxtrkx:MinElevation>1388</gpxtrkx:MinElevation>
        <gpxtrkx:Ascent>789</gpxtrkx:Ascent>
        <gpxtrkx:Descent>1032</gpxtrkx:Descent>
        <gpxtrkx:AvgAscentRate>0</gpxtrkx:AvgAscentRate>
        <gpxtrkx:MaxAscentRate>0</gpxtrkx:MaxAscentRate>
        <gpxtrkx:AvgDescentRate>0</gpxtrkx:AvgDescentRate>
        <gpxtrkx:MaxDescentRate>-0</gpxtrkx:MaxDescentRate>
      </gpxtrkx:TrackStatsExtension>
    </extensions>
    <trkseg>
      <trkpt lat="46.23676129616797" lon="11.902891499921679">
        <ele>1632.9400000000001</ele>
        <time>2017-07-05T06:16:44Z</time>
      </trkpt>
      <trkpt lat="46.236740341410041" lon="11.902872389182448">
        <ele>1631.98</ele>
        <time>2017-07-05T06:17:00Z</time>
      </trkpt>
      <trkpt lat="46.236700359731913" lon="11.902927961200476">
        <ele>1631.98</ele>
        <time>2017-07-05T06:17:22Z</time>
      </trkpt>
      <trkpt lat="46.236721063032746" lon="11.902893930673599">
        <ele>1632.46</ele>
        <time>2017-07-05T06:17:42Z</time>
      </trkpt>
      <trkpt lat="46.236704885959625" lon="11.902872389182448">
        <ele>1631.98</ele>
        <time>2017-07-05T06:18:04Z</time>
      </trkpt>
      <trkpt lat="46.236688541248441" lon="11.902928045019507">
        <ele>1631.98</ele>
        <time>2017-07-05T06:18:19Z</time>
      </trkpt>
      <trkpt lat="46.236729864031076" lon="11.902896361425519">
        <ele>1631.98</ele>
        <time>2017-07-05T06:18:36Z</time>
      </trkpt>
      <trkpt lat="46.236680997535586" lon="11.902928715571761">
        <ele>1631.98</ele>
        <time>2017-07-05T06:18:50Z</time>
      </trkpt>
      <trkpt lat="46.236684350296855" lon="11.902910023927689">
        <ele>1631.98</ele>
        <time>2017-07-05T06:19:11Z</time>
      </trkpt>
      <trkpt lat="46.236697090789676" lon="11.902896529063582">
        <ele>1631.98</ele>
        <time>2017-07-05T06:19:27Z</time>
      </trkpt>
      <trkpt lat="46.236728942021728" lon="11.902891248464584">
        <ele>1631.98</ele>
        <time>2017-07-05T06:19:48Z</time>
      </trkpt>
      <trkpt lat="46.236729025840759" lon="11.902876412495971">
        <ele>1631.98</ele>
        <time>2017-07-05T06:20:07Z</time>
      </trkpt>
      <trkpt lat="46.236738497391343" lon="11.902871299535036">
        <ele>1631.98</ele>
        <time>2017-07-05T06:20:27Z</time>
      </trkpt>
      <trkpt lat="46.236711507663131" lon="11.902866773307323">
        <ele>1631.98</ele>
        <time>2017-07-05T06:20:46Z</time>
      </trkpt>
      <trkpt lat="46.236692648380995" lon="11.902883872389793">
        <ele>1631.98</ele>
        <time>2017-07-05T06:21:08Z</time>
      </trkpt>
      <trkpt lat="46.236699186265469" lon="11.90287783741951">
        <ele>1632.46</ele>
        <time>2017-07-05T06:21:37Z</time>
      </trkpt>
      <trkpt lat="46.236709915101528" lon="11.902883788570762">
        <ele>1632.46</ele>
        <time>2017-07-05T06:21:59Z</time>
      </trkpt>
      <trkpt lat="46.236694827675819" lon="11.902888482436538">
        <ele>1632.46</ele>
        <time>2017-07-05T06:22:23Z</time>
      </trkpt>
      <trkpt lat="46.236685439944267" lon="11.902865599840879">
        <ele>1632.46</ele>
        <time>2017-07-05T06:22:46Z</time>
      </trkpt>
      <trkpt lat="46.236691474914551" lon="11.902864091098309">
        <ele>1632.46</ele>
        <time>2017-07-05T06:23:03Z</time>
      </trkpt>
      <trkpt lat="46.236677812412381" lon="11.902883453294635">
        <ele>1632.46</ele>
        <time>2017-07-05T06:23:22Z</time>
      </trkpt>
      <trkpt lat="46.236692564561963" lon="11.902873311191797">
        <ele>1632.46</ele>
        <time>2017-07-05T06:23:44Z</time>
      </trkpt>
      <trkpt lat="46.236685859039426" lon="11.902870964258909">
        <ele>1632.46</ele>
        <time>2017-07-05T06:23:57Z</time>
      </trkpt>
      <trkpt lat="46.236690888181329" lon="11.902882782742381">
        <ele>1632.9400000000001</ele>
        <time>2017-07-05T06:24:14Z</time>
      </trkpt>
      <trkpt lat="46.236668340861797" lon="11.902888985350728">
        <ele>1632.9400000000001</ele>
        <time>2017-07-05T06:24:34Z</time>
      </trkpt>
      <trkpt lat="46.236681500449777" lon="11.902870880439878">
        <ele>1633.4200000000001</ele>
        <time>2017-07-05T06:24:53Z</time>
      </trkpt>
      <trkpt lat="46.236664317548275" lon="11.902855541557074">
        <ele>1632.9400000000001</ele>
        <time>2017-07-05T06:25:12Z</time>
      </trkpt>
      <trkpt lat="46.236591897904873" lon="11.902856547385454">
        <ele>1633.4200000000001</ele>
        <time>2017-07-05T06:25:38Z</time>
      </trkpt>
      <trkpt lat="46.23659030534327" lon="11.902835089713335">
        <ele>1633.4200000000001</ele>
        <time>2017-07-05T06:26:06Z</time>
      </trkpt>
      <trkpt lat="46.236552922055125" lon="11.902818828821182">
        <ele>1633.4200000000001</ele>
        <time>2017-07-05T06:26:32Z</time>
      </trkpt>
      <trkpt lat="46.236581252887845" lon="11.902855290099978">
        <ele>1633.4200000000001</ele>
        <time>2017-07-05T06:26:50Z</time>
      </trkpt>
      <trkpt lat="46.236594831570983" lon="11.902849925681949">
        <ele>1633.4200000000001</ele>
        <time>2017-07-05T06:27:12Z</time>
      </trkpt>
      <trkpt lat="46.236604806035757" lon="11.902828216552734">
        <ele>1633.4200000000001</ele>
        <time>2017-07-05T06:27:33Z</time>
      </trkpt>
      <trkpt lat="46.236625676974654" lon="11.902815056964755">
        <ele>1633.4200000000001</ele>
        <time>2017-07-05T06:27:46Z</time>
      </trkpt>
      <trkpt lat="46.2366440333426" lon="11.902784463018179">
        <ele>1633.4200000000001</ele>
        <time>2017-07-05T06:28:04Z</time>
      </trkpt>
      <trkpt lat="46.236649230122566" lon="11.902718581259251">
        <ele>1633.4200000000001</ele>
        <time>2017-07-05T06:28:18Z</time>
      </trkpt>
      <trkpt lat="46.236611343920231" lon="11.902749929577112">
        <ele>1633.9000000000001</ele>
        <time>2017-07-05T06:28:27Z</time>
      </trkpt>
      <trkpt lat="46.236558705568314" lon="11.902722101658583">
        <ele>1634.3800000000001</ele>
        <time>2017-07-05T06:28:39Z</time>
      </trkpt>
      <trkpt lat="46.236554682254791" lon="11.902702488005161">
        <ele>1634.3800000000001</ele>
        <time>2017-07-05T06:28:54Z</time>
      </trkpt>
      <trkpt lat="46.236589383333921" lon="11.902735512703657">
        <ele>1634.3800000000001</ele>
        <time>2017-07-05T06:29:04Z</time>
      </trkpt>
      <trkpt lat="46.236596507951617" lon="11.902741128578782">
        <ele>1634.3800000000001</ele>
        <time>2017-07-05T06:29:17Z</time>
      </trkpt>
      <trkpt lat="46.236573876813054" lon="11.90271757543087">
        <ele>1634.3800000000001</ele>
        <time>2017-07-05T06:29:37Z</time>
      </trkpt>
      <trkpt lat="46.236553844064474" lon="11.902711959555745">
        <ele>1634.3800000000001</ele>
        <time>2017-07-05T06:29:55Z</time>
      </trkpt>
      <trkpt lat="46.23653506860137" lon="11.902741715312004">
        <ele>1634.8599999999999</ele>
        <time>2017-07-05T06:30:06Z</time>
      </trkpt>
      <trkpt lat="46.236726930364966" lon="11.903041955083609">
        <ele>1635.3399999999999</ele>
        <time>2017-07-05T06:30:17Z</time>
      </trkpt>
      <trkpt lat="46.236778730526567" lon="11.903131641447544">
        <ele>1637.74</ele>
        <time>2017-07-05T06:30:27Z</time>
      </trkpt>
      <trkpt lat="46.236725840717554" lon="11.903157792985439">
        <ele>1638.22</ele>
        <time>2017-07-05T06:30:36Z</time>
      </trkpt>
      <trkpt lat="46.236703712493181" lon="11.903172293677926">
        <ele>1637.74</ele>
        <time>2017-07-05T06:30:50Z</time>
      </trkpt>
      <trkpt lat="46.236694240942597" lon="11.90317589789629">
        <ele>1638.7</ele>
        <time>2017-07-05T06:30:52Z</time>
      </trkpt>
      <trkpt lat="46.236633220687509" lon="11.903240103274584">
        <ele>1638.7</ele>
        <time>2017-07-05T06:31:03Z</time>
      </trkpt>
      <trkpt lat="46.236570943146944" lon="11.903297770768404">
        <ele>1640.1500000000001</ele>
        <time>2017-07-05T06:31:14Z</time>
      </trkpt>
      <trkpt lat="46.236541019752622" lon="11.903352672234178">
        <ele>1640.1500000000001</ele>
        <time>2017-07-05T06:31:24Z</time>
      </trkpt>
      <trkpt lat="46.236512856557965" lon="11.903403047472239">
        <ele>1640.1500000000001</ele>
        <time>2017-07-05T06:31:32Z</time>
      </trkpt>
      <trkpt lat="46.236455691978335" lon="11.903435150161386">
        <ele>1640.1500000000001</ele>
        <time>2017-07-05T06:31:40Z</time>
      </trkpt>
      <trkpt lat="46.236415458843112" lon="11.903494158759713">
        <ele>1639.6700000000001</ele>
        <time>2017-07-05T06:31:50Z</time>
      </trkpt>
      <trkpt lat="46.236372711136937" lon="11.903509078547359">
        <ele>1639.1900000000001</ele>
        <time>2017-07-05T06:31:56Z</time>
      </trkpt>
      <trkpt lat="46.23635477386415" lon="11.903508827090263">
        <ele>1638.7</ele>
        <time>2017-07-05T06:31:58Z</time>
      </trkpt>
      <trkpt lat="46.236275229603052" lon="11.903467923402786">
        <ele>1638.7</ele>
        <time>2017-07-05T06:32:10Z</time>
      </trkpt>
      <trkpt lat="46.236226866021752" lon="11.903479658067226">
        <ele>1638.22</ele>
        <time>2017-07-05T06:32:19Z</time>
      </trkpt>
      <trkpt lat="46.236186046153307" lon="11.903426684439182">
        <ele>1638.22</ele>
        <time>2017-07-05T06:32:28Z</time>
      </trkpt>
      <trkpt lat="46.236120080575347" lon="11.903422242030501">
        <ele>1640.6300000000001</ele>
        <time>2017-07-05T06:32:41Z</time>
      </trkpt>
      <trkpt lat="46.235992424190044" lon="11.903395336121321">
        <ele>1640.1500000000001</ele>
        <time>2017-07-05T06:32:54Z</time>
      </trkpt>
      <trkpt lat="46.23592184856534" lon="11.903350157663226">
        <ele>1638.7</ele>
        <time>2017-07-05T06:33:04Z</time>
      </trkpt>
      <trkpt lat="46.23587004840374" lon="11.903307661414146">
        <ele>1637.74</ele>
        <time>2017-07-05T06:33:14Z</time>
      </trkpt>
      <trkpt lat="46.235793856903911" lon="11.903212442994118">
        <ele>1637.26</ele>
        <time>2017-07-05T06:33:24Z</time>
      </trkpt>
      <trkpt lat="46.235749181360006" lon="11.903141280636191">
        <ele>1638.7</ele>
        <time>2017-07-05T06:33:34Z</time>
      </trkpt>
      <trkpt lat="46.235635187476873" lon="11.903114039450884">
        <ele>1640.1500000000001</ele>
        <time>2017-07-05T06:33:47Z</time>
      </trkpt>
      <trkpt lat="46.235589338466525" lon="11.903106328099966">
        <ele>1641.1099999999999</ele>
        <time>2017-07-05T06:33:57Z</time>
      </trkpt>
      <trkpt lat="46.235547764226794" lon="11.903123343363404">
        <ele>1643.03</ele>
        <time>2017-07-05T06:34:08Z</time>
      </trkpt>
      <trkpt lat="46.235513146966696" lon="11.903111776337028">
        <ele>1645.4300000000001</ele>
        <time>2017-07-05T06:34:19Z</time>
      </trkpt>
      <trkpt lat="46.235437039285898" lon="11.903088642284274">
        <ele>1646.4000000000001</ele>
        <time>2017-07-05T06:34:29Z</time>
      </trkpt>
      <trkpt lat="46.235366044566035" lon="11.903051929548383">
        <ele>1648.3199999999999</ele>
        <time>2017-07-05T06:34:41Z</time>
      </trkpt>
      <trkpt lat="46.235284237191081" lon="11.903057293966413">
        <ele>1649.76</ele>
        <time>2017-07-05T06:34:52Z</time>
      </trkpt>
      <trkpt lat="46.23521575704217" lon="11.90305863507092">
        <ele>1651.6800000000001</ele>
        <time>2017-07-05T06:35:02Z</time>
      </trkpt>
      <trkpt lat="46.235152222216129" lon="11.903074057772756">
        <ele>1652.1600000000001</ele>
        <time>2017-07-05T06:35:14Z</time>
      </trkpt>
      <trkpt lat="46.235115006566048" lon="11.903052348643541">
        <ele>1654.0899999999999</ele>
        <time>2017-07-05T06:35:25Z</time>
      </trkpt>
      <trkpt lat="46.235078042373061" lon="11.903014294803143">
        <ele>1655.05</ele>
        <time>2017-07-05T06:35:35Z</time>
      </trkpt>
      <trkpt lat="46.235044179484248" lon="11.903000213205814">
        <ele>1656.49</ele>
        <time>2017-07-05T06:35:45Z</time>
      </trkpt>
      <trkpt lat="46.235012328252196" lon="11.903001638129354">
        <ele>1657.45</ele>
        <time>2017-07-05T06:35:59Z</time>
      </trkpt>
      <trkpt lat="46.235014256089926" lon="11.90303566865623">
        <ele>1657.45</ele>
        <time>2017-07-05T06:36:19Z</time>
      </trkpt>
      <trkpt lat="46.235044011846185" lon="11.903019743040204">
        <ele>1657.9300000000001</ele>
        <time>2017-07-05T06:36:37Z</time>
      </trkpt>
      <trkpt lat="46.235015094280243" lon="11.903046816587448">
        <ele>1657.9300000000001</ele>
        <time>2017-07-05T06:36:56Z</time>
      </trkpt>
      <trkpt lat="46.235057841986418" lon="11.902995184063911">
        <ele>1657.9300000000001</ele>
        <time>2017-07-05T06:37:18Z</time>
      </trkpt>
      <trkpt lat="46.234979387372732" lon="11.902980348095298">
        <ele>1658.8900000000001</ele>
        <time>2017-07-05T06:37:35Z</time>
      </trkpt>
      <trkpt lat="46.23484686948359" lon="11.902967775240541">
        <ele>1660.8099999999999</ele>
        <time>2017-07-05T06:37:52Z</time>
      </trkpt>
      <trkpt lat="46.234765062108636" lon="11.902972720563412">
        <ele>1661.3</ele>
        <time>2017-07-05T06:38:06Z</time>
      </trkpt>
      <trkpt lat="46.234677555039525" lon="11.902928631752729">
        <ele>1662.26</ele>
        <time>2017-07-05T06:38:21Z</time>
      </trkpt>
      <trkpt lat="46.234609326347709" lon="11.902938522398472">
        <ele>1665.1400000000001</ele>
        <time>2017-07-05T06:38:40Z</time>
      </trkpt>
      <trkpt lat="46.234556017443538" lon="11.902984119951725">
        <ele>1667.54</ele>
        <time>2017-07-05T06:38:58Z</time>
      </trkpt>
      <trkpt lat="46.234487453475595" lon="11.902978755533695">
        <ele>1669.95</ele>
        <time>2017-07-05T06:39:16Z</time>
      </trkpt>
      <trkpt lat="46.234403634443879" lon="11.902985041961074">
        <ele>1670.9100000000001</ele>
        <time>2017-07-05T06:39:31Z</time>
      </trkpt>
      <trkpt lat="46.234329622238874" lon="11.903021922335029">
        <ele>1671.3900000000001</ele>
        <time>2017-07-05T06:39:48Z</time>
      </trkpt>
      <trkpt lat="46.234263069927692" lon="11.903069447726011">
        <ele>1673.79</ele>
        <time>2017-07-05T06:40:05Z</time>
      </trkpt>
      <trkpt lat="46.234192913398147" lon="11.90303223207593">
        <ele>1675.23</ele>
        <time>2017-07-05T06:40:16Z</time>
      </trkpt>
      <trkpt lat="46.234152596443892" lon="11.9030009675771">
        <ele>1676.6800000000001</ele>
        <time>2017-07-05T06:40:26Z</time>
      </trkpt>
      <trkpt lat="46.234101802110672" lon="11.90297607332468">
        <ele>1678.5999999999999</ele>
        <time>2017-07-05T06:40:38Z</time>
      </trkpt>
      <trkpt lat="46.234049247577786" lon="11.903004739433527">
        <ele>1680.04</ele>
        <time>2017-07-05T06:40:46Z</time>
      </trkpt>
      <trkpt lat="46.23398001305759" lon="11.902999542653561">
        <ele>1681</ele>
        <time>2017-07-05T06:40:57Z</time>
      </trkpt>
      <trkpt lat="46.233962159603834" lon="11.903018150478601">
        <ele>1679.5599999999999</ele>
        <time>2017-07-05T06:41:09Z</time>
      </trkpt>
      <trkpt lat="46.233958974480629" lon="11.902993591502309">
        <ele>1679.5599999999999</ele>
        <time>2017-07-05T06:41:24Z</time>
      </trkpt>
      <trkpt lat="46.233913712203503" lon="11.903011780232191">
        <ele>1680.04</ele>
        <time>2017-07-05T06:41:29Z</time>
      </trkpt>
      <trkpt lat="46.233864175155759" lon="11.903035333380103">
        <ele>1681.96</ele>
        <time>2017-07-05T06:41:38Z</time>
      </trkpt>
      <trkpt lat="46.233767783269286" lon="11.903018401935697">
        <ele>1681.48</ele>
        <time>2017-07-05T06:41:50Z</time>
      </trkpt>
      <trkpt lat="46.233758898451924" lon="11.903017228469253">
        <ele>1681</ele>
        <time>2017-07-05T06:41:51Z</time>
      </trkpt>
      <trkpt lat="46.233726209029555" lon="11.902993926778436">
        <ele>1681.48</ele>
        <time>2017-07-05T06:42:01Z</time>
      </trkpt>
      <trkpt lat="46.233713552355766" lon="11.902960734441876">
        <ele>1681.48</ele>
        <time>2017-07-05T06:42:24Z</time>
      </trkpt>
      <trkpt lat="46.23367415741086" lon="11.902938606217504">
        <ele>1681.96</ele>
        <time>2017-07-05T06:42:37Z</time>
      </trkpt>
      <trkpt lat="46.233610538765788" lon="11.90293500199914">
        <ele>1683.4100000000001</ele>
        <time>2017-07-05T06:42:48Z</time>
      </trkpt>
      <trkpt lat="46.233573406934738" lon="11.902931481599808">
        <ele>1684.8499999999999</ele>
        <time>2017-07-05T06:43:00Z</time>
      </trkpt>
      <trkpt lat="46.233532084152102" lon="11.902873562648892">
        <ele>1686.29</ele>
        <time>2017-07-05T06:43:10Z</time>
      </trkpt>
      <trkpt lat="46.233471902087331" lon="11.902889655902982">
        <ele>1686.77</ele>
        <time>2017-07-05T06:43:18Z</time>
      </trkpt>
      <trkpt lat="46.233401326462626" lon="11.902884878218174">
        <ele>1687.25</ele>
        <time>2017-07-05T06:43:27Z</time>
      </trkpt>
      <trkpt lat="46.233311807736754" lon="11.902859397232533">
        <ele>1687.25</ele>
        <time>2017-07-05T06:43:38Z</time>
      </trkpt>
      <trkpt lat="46.23326906003058" lon="11.902817068621516">
        <ele>1686.29</ele>
        <time>2017-07-05T06:43:47Z</time>
      </trkpt>
      <trkpt lat="46.233189180493355" lon="11.902772141620517">
        <ele>1685.8099999999999</ele>
        <time>2017-07-05T06:43:58Z</time>
      </trkpt>
      <trkpt lat="46.233134362846613" lon="11.902740960940719">
        <ele>1686.77</ele>
        <time>2017-07-05T06:44:08Z</time>
      </trkpt>
      <trkpt lat="46.233067559078336" lon="11.902727549895644">
        <ele>1687.25</ele>
        <time>2017-07-05T06:44:19Z</time>
      </trkpt>
      <trkpt lat="46.233041742816567" lon="11.902752360329032">
        <ele>1688.21</ele>
        <time>2017-07-05T06:44:31Z</time>
      </trkpt>
      <trkpt lat="46.232992876321077" lon="11.902712378650904">
        <ele>1688.6900000000001</ele>
        <time>2017-07-05T06:44:44Z</time>
      </trkpt>
      <trkpt lat="46.232970831915736" lon="11.902692848816514">
        <ele>1688.6900000000001</ele>
        <time>2017-07-05T06:44:57Z</time>
      </trkpt>
      <trkpt lat="46.232974603772163" lon="11.902708187699318">
        <ele>1689.1700000000001</ele>
        <time>2017-07-05T06:45:09Z</time>
      </trkpt>
      <trkpt lat="46.233002012595534" lon="11.902656387537718">
        <ele>1688.6900000000001</ele>
        <time>2017-07-05T06:45:21Z</time>
      </trkpt>
      <trkpt lat="46.233009975403547" lon="11.90267164260149">
        <ele>1688.6900000000001</ele>
        <time>2017-07-05T06:45:38Z</time>
      </trkpt>
      <trkpt lat="46.232990361750126" lon="11.902693351730704">
        <ele>1689.1700000000001</ele>
        <time>2017-07-05T06:45:54Z</time>
      </trkpt>
      <trkpt lat="46.232984326779842" lon="11.902659740298986">
        <ele>1689.1700000000001</ele>
        <time>2017-07-05T06:46:14Z</time>
      </trkpt>
      <trkpt lat="46.232980638742447" lon="11.902669295668602">
        <ele>1689.1700000000001</ele>
        <time>2017-07-05T06:46:28Z</time>
      </trkpt>
      <trkpt lat="46.23295390047133" lon="11.902669463306665">
        <ele>1689.1700000000001</ele>
        <time>2017-07-05T06:46:40Z</time>
      </trkpt>
      <trkpt lat="46.23292313888669" lon="11.902663931250572">
        <ele>1689.1700000000001</ele>
        <time>2017-07-05T06:46:50Z</time>
      </trkpt>
      <trkpt lat="46.232887515798211" lon="11.902645071968436">
        <ele>1688.21</ele>
        <time>2017-07-05T06:47:01Z</time>
      </trkpt>
      <trkpt lat="46.232812246307731" lon="11.902587739750743">
        <ele>1686.77</ele>
        <time>2017-07-05T06:47:12Z</time>
      </trkpt>
      <trkpt lat="46.232807133346796" lon="11.902583045884967">
        <ele>1686.77</ele>
        <time>2017-07-05T06:47:13Z</time>
      </trkpt>
      <trkpt lat="46.232775449752808" lon="11.902606934309006">
        <ele>1687.25</ele>
        <time>2017-07-05T06:47:23Z</time>
      </trkpt>
      <trkpt lat="46.232706382870674" lon="11.902577178552747">
        <ele>1687.25</ele>
        <time>2017-07-05T06:47:36Z</time>
      </trkpt>
      <trkpt lat="46.232631113380194" lon="11.902566617354751">
        <ele>1686.77</ele>
        <time>2017-07-05T06:47:47Z</time>
      </trkpt>
      <trkpt lat="46.232593562453985" lon="11.902550021186471">
        <ele>1687.25</ele>
        <time>2017-07-05T06:47:57Z</time>
      </trkpt>
      <trkpt lat="46.232523657381535" lon="11.902568293735385">
        <ele>1688.21</ele>
        <time>2017-07-05T06:48:08Z</time>
      </trkpt>
      <trkpt lat="46.232461463660002" lon="11.90252554602921">
        <ele>1688.6900000000001</ele>
        <time>2017-07-05T06:48:19Z</time>
      </trkpt>
      <trkpt lat="46.2323924805969" lon="11.902479194104671">
        <ele>1686.77</ele>
        <time>2017-07-05T06:48:30Z</time>
      </trkpt>
      <trkpt lat="46.2323441170156" lon="11.902488833293319">
        <ele>1686.29</ele>
        <time>2017-07-05T06:48:37Z</time>
      </trkpt>
      <trkpt lat="46.232293741777539" lon="11.902474500238895">
        <ele>1685.3299999999999</ele>
        <time>2017-07-05T06:48:47Z</time>
      </trkpt>
      <trkpt lat="46.232259795069695" lon="11.902405600994825">
        <ele>1683.4100000000001</ele>
        <time>2017-07-05T06:48:59Z</time>
      </trkpt>
      <trkpt lat="46.232203971594572" lon="11.902375007048249">
        <ele>1681.48</ele>
        <time>2017-07-05T06:49:13Z</time>
      </trkpt>
      <trkpt lat="46.232137838378549" lon="11.902321530506015">
        <ele>1679.5599999999999</ele>
        <time>2017-07-05T06:49:24Z</time>
      </trkpt>
      <trkpt lat="46.232062317430973" lon="11.902247099205852">
        <ele>1679.5599999999999</ele>
        <time>2017-07-05T06:49:35Z</time>
      </trkpt>
      <trkpt lat="46.232009679079056" lon="11.902188174426556">
        <ele>1679.0799999999999</ele>
        <time>2017-07-05T06:49:47Z</time>
      </trkpt>
      <trkpt lat="46.231946060433984" lon="11.902152551338077">
        <ele>1678.5999999999999</ele>
        <time>2017-07-05T06:49:59Z</time>
      </trkpt>
      <trkpt lat="46.23187012039125" lon="11.902145175263286">
        <ele>1678.5999999999999</ele>
        <time>2017-07-05T06:50:12Z</time>
      </trkpt>
      <trkpt lat="46.231791917234659" lon="11.902188509702682">
        <ele>1679.5599999999999</ele>
        <time>2017-07-05T06:50:24Z</time>
      </trkpt>
      <trkpt lat="46.231715390458703" lon="11.902202339842916">
        <ele>1679.0799999999999</ele>
        <time>2017-07-05T06:50:35Z</time>
      </trkpt>
      <trkpt lat="46.231668032705784" lon="11.902188844978809">
        <ele>1678.5999999999999</ele>
        <time>2017-07-05T06:50:45Z</time>
      </trkpt>
      <trkpt lat="46.231588488444686" lon="11.902101589366794">
        <ele>1676.2</ele>
        <time>2017-07-05T06:50:57Z</time>
      </trkpt>
      <trkpt lat="46.231570551171899" lon="11.902092956006527">
        <ele>1675.23</ele>
        <time>2017-07-05T06:51:00Z</time>
      </trkpt>
      <trkpt lat="46.231483714655042" lon="11.902045262977481">
        <ele>1676.2</ele>
        <time>2017-07-05T06:51:12Z</time>
      </trkpt>
      <trkpt lat="46.23140593059361" lon="11.902020368725061">
        <ele>1674.27</ele>
        <time>2017-07-05T06:51:22Z</time>
      </trkpt>
      <trkpt lat="46.231341222301126" lon="11.901983488351107">
        <ele>1672.8299999999999</ele>
        <time>2017-07-05T06:51:36Z</time>
      </trkpt>
      <trkpt lat="46.231328900903463" lon="11.901952978223562">
        <ele>1671.3900000000001</ele>
        <time>2017-07-05T06:51:41Z</time>
      </trkpt>
      <trkpt lat="46.231241645291448" lon="11.901943339034915">
        <ele>1670.4300000000001</ele>
        <time>2017-07-05T06:51:50Z</time>
      </trkpt>
      <trkpt lat="46.231176014989614" lon="11.901944847777486">
        <ele>1668.99</ele>
        <time>2017-07-05T06:51:58Z</time>
      </trkpt>
      <trkpt lat="46.231149947270751" lon="11.901931101456285">
        <ele>1668.51</ele>
        <time>2017-07-05T06:52:01Z</time>
      </trkpt>
      <trkpt lat="46.231085071340203" lon="11.901935711503029">
        <ele>1668.99</ele>
        <time>2017-07-05T06:52:08Z</time>
      </trkpt>
      <trkpt lat="46.231024973094463" lon="11.901939650997519">
        <ele>1668.99</ele>
        <time>2017-07-05T06:52:13Z</time>
      </trkpt>
      <trkpt lat="46.230955654755235" lon="11.901929089799523">
        <ele>1668.02</ele>
        <time>2017-07-05T06:52:26Z</time>
      </trkpt>
      <trkpt lat="46.230903435498476" lon="11.901932274922729">
        <ele>1668.99</ele>
        <time>2017-07-05T06:52:36Z</time>
      </trkpt>
      <trkpt lat="46.230841912329197" lon="11.901948871091008">
        <ele>1670.4300000000001</ele>
        <time>2017-07-05T06:52:47Z</time>
      </trkpt>
      <trkpt lat="46.230758428573608" lon="11.901959599927068">
        <ele>1669.47</ele>
        <time>2017-07-05T06:52:59Z</time>
      </trkpt>
      <trkpt lat="46.230707718059421" lon="11.901942836120725">
        <ele>1668.99</ele>
        <time>2017-07-05T06:53:11Z</time>
      </trkpt>
      <trkpt lat="46.230676202103496" lon="11.901971586048603">
        <ele>1670.9100000000001</ele>
        <time>2017-07-05T06:53:26Z</time>
      </trkpt>
      <trkpt lat="46.230661114677787" lon="11.901968903839588">
        <ele>1671.8699999999999</ele>
        <time>2017-07-05T06:53:39Z</time>
      </trkpt>
      <trkpt lat="46.230625994503498" lon="11.901945266872644">
        <ele>1673.3099999999999</ele>
        <time>2017-07-05T06:53:48Z</time>
      </trkpt>
      <trkpt lat="46.230597915127873" lon="11.901974519714713">
        <ele>1674.75</ele>
        <time>2017-07-05T06:53:58Z</time>
      </trkpt>
      <trkpt lat="46.230571931228042" lon="11.901997402310371">
        <ele>1676.2</ele>
        <time>2017-07-05T06:54:09Z</time>
      </trkpt>
      <trkpt lat="46.230579810217023" lon="11.902014585211873">
        <ele>1675.72</ele>
        <time>2017-07-05T06:54:21Z</time>
      </trkpt>
      <trkpt lat="46.230555837973952" lon="11.902036042883992">
        <ele>1673.79</ele>
        <time>2017-07-05T06:54:30Z</time>
      </trkpt>
      <trkpt lat="46.230527758598328" lon="11.902060601860285">
        <ele>1671.8699999999999</ele>
        <time>2017-07-05T06:54:39Z</time>
      </trkpt>
      <trkpt lat="46.230485513806343" lon="11.902061440050602">
        <ele>1670.4300000000001</ele>
        <time>2017-07-05T06:54:49Z</time>
      </trkpt>
      <trkpt lat="46.230442514643073" lon="11.902102427557111">
        <ele>1670.4300000000001</ele>
        <time>2017-07-05T06:54:59Z</time>
      </trkpt>
      <trkpt lat="46.230441844090819" lon="11.902188509702682">
        <ele>1670.4300000000001</ele>
        <time>2017-07-05T06:55:08Z</time>
      </trkpt>
      <trkpt lat="46.230352241545916" lon="11.902263779193163">
        <ele>1669.95</ele>
        <time>2017-07-05T06:55:22Z</time>
      </trkpt>
      <trkpt lat="46.230283426120877" lon="11.90226654522121">
        <ele>1667.54</ele>
        <time>2017-07-05T06:55:32Z</time>
      </trkpt>
      <trkpt lat="46.230218634009361" lon="11.90228414721787">
        <ele>1666.5799999999999</ele>
        <time>2017-07-05T06:55:41Z</time>
      </trkpt>
      <trkpt lat="46.230161553248763" lon="11.902305688709021">
        <ele>1665.6199999999999</ele>
        <time>2017-07-05T06:55:50Z</time>
      </trkpt>
      <trkpt lat="46.230116207152605" lon="11.902351705357432">
        <ele>1664.6600000000001</ele>
        <time>2017-07-05T06:56:00Z</time>
      </trkpt>
      <trkpt lat="46.230120230466127" lon="11.902412474155426">
        <ele>1665.1400000000001</ele>
        <time>2017-07-05T06:56:12Z</time>
      </trkpt>
      <trkpt lat="46.230143029242754" lon="11.902497969567776">
        <ele>1667.0599999999999</ele>
        <time>2017-07-05T06:56:23Z</time>
      </trkpt>
      <trkpt lat="46.230198182165623" lon="11.902586063370109">
        <ele>1666.0999999999999</ele>
        <time>2017-07-05T06:56:38Z</time>
      </trkpt>
      <trkpt lat="46.230129702016711" lon="11.902732495218515">
        <ele>1664.1800000000001</ele>
        <time>2017-07-05T06:56:51Z</time>
      </trkpt>
      <trkpt lat="46.230122242122889" lon="11.902723526582122">
        <ele>1664.1800000000001</ele>
        <time>2017-07-05T06:56:54Z</time>
      </trkpt>
      <trkpt lat="46.23001528903842" lon="11.902723107486963">
        <ele>1663.22</ele>
        <time>2017-07-05T06:57:06Z</time>
      </trkpt>
      <trkpt lat="46.229965165257454" lon="11.902816146612167">
        <ele>1662.26</ele>
        <time>2017-07-05T06:57:16Z</time>
      </trkpt>
      <trkpt lat="46.229922417551279" lon="11.90285537391901">
        <ele>1661.78</ele>
        <time>2017-07-05T06:57:23Z</time>
      </trkpt>
      <trkpt lat="46.22986625880003" lon="11.902869120240211">
        <ele>1661.3</ele>
        <time>2017-07-05T06:57:31Z</time>
      </trkpt>
      <trkpt lat="46.229828791692853" lon="11.902865767478943">
        <ele>1660.3299999999999</ele>
        <time>2017-07-05T06:57:42Z</time>
      </trkpt>
      <trkpt lat="46.229795264080167" lon="11.902841627597809">
        <ele>1659.3699999999999</ele>
        <time>2017-07-05T06:57:53Z</time>
      </trkpt>
      <trkpt lat="46.229782439768314" lon="11.902829306200147">
        <ele>1660.3299999999999</ele>
        <time>2017-07-05T06:57:59Z</time>
      </trkpt>
      <trkpt lat="46.229753186926246" lon="11.902798712253571">
        <ele>1661.78</ele>
        <time>2017-07-05T06:58:10Z</time>
      </trkpt>
      <trkpt lat="46.229711277410388" lon="11.902821343392134">
        <ele>1662.74</ele>
        <time>2017-07-05T06:58:21Z</time>
      </trkpt>
      <trkpt lat="46.229662913829088" lon="11.902809021994472">
        <ele>1663.7</ele>
        <time>2017-07-05T06:58:30Z</time>
      </trkpt>
      <trkpt lat="46.22959996573627" lon="11.902760323137045">
        <ele>1663.22</ele>
        <time>2017-07-05T06:58:42Z</time>
      </trkpt>
      <trkpt lat="46.229571383446455" lon="11.902746576815844">
        <ele>1663.22</ele>
        <time>2017-07-05T06:58:54Z</time>
      </trkpt>
      <trkpt lat="46.229562750086188" lon="11.902785217389464">
        <ele>1663.7</ele>
        <time>2017-07-05T06:59:03Z</time>
      </trkpt>
      <trkpt lat="46.22952033765614" lon="11.902784965932369">
        <ele>1663.22</ele>
        <time>2017-07-05T06:59:13Z</time>
      </trkpt>
      <trkpt lat="46.229505250230432" lon="11.902796868234873">
        <ele>1664.6600000000001</ele>
        <time>2017-07-05T06:59:23Z</time>
      </trkpt>
      <trkpt lat="46.229480020701885" lon="11.902788234874606">
        <ele>1666.0999999999999</ele>
        <time>2017-07-05T06:59:33Z</time>
      </trkpt>
      <trkpt lat="46.229457976296544" lon="11.902763843536377">
        <ele>1666.5799999999999</ele>
        <time>2017-07-05T06:59:42Z</time>
      </trkpt>
      <trkpt lat="46.229436853900552" lon="11.902745487168431">
        <ele>1668.51</ele>
        <time>2017-07-05T06:59:57Z</time>
      </trkpt>
      <trkpt lat="46.22938740067184" lon="11.902709528803825">
        <ele>1669.95</ele>
        <time>2017-07-05T07:00:07Z</time>
      </trkpt>
      <trkpt lat="46.229328475892544" lon="11.902664015069604">
        <ele>1672.3499999999999</ele>
        <time>2017-07-05T07:00:20Z</time>
      </trkpt>
      <trkpt lat="46.229295702651143" lon="11.902663763612509">
        <ele>1674.27</ele>
        <time>2017-07-05T07:00:31Z</time>
      </trkpt>
      <trkpt lat="46.229247590526938" lon="11.902620932087302">
        <ele>1673.3099999999999</ele>
        <time>2017-07-05T07:00:42Z</time>
      </trkpt>
      <trkpt lat="46.229188079014421" lon="11.902631996199489">
        <ele>1672.8299999999999</ele>
        <time>2017-07-05T07:00:51Z</time>
      </trkpt>
      <trkpt lat="46.229103421792388" lon="11.902639539912343">
        <ele>1672.8299999999999</ele>
        <time>2017-07-05T07:01:04Z</time>
      </trkpt>
      <trkpt lat="46.229074001312256" lon="11.902646580711007">
        <ele>1674.27</ele>
        <time>2017-07-05T07:01:16Z</time>
      </trkpt>
      <trkpt lat="46.229036198928952" lon="11.902661249041557">
        <ele>1674.75</ele>
        <time>2017-07-05T07:01:26Z</time>
      </trkpt>
      <trkpt lat="46.228972412645817" lon="11.902650184929371">
        <ele>1674.27</ele>
        <time>2017-07-05T07:01:36Z</time>
      </trkpt>
      <trkpt lat="46.228918265551329" lon="11.902652280405164">
        <ele>1673.3099999999999</ele>
        <time>2017-07-05T07:01:47Z</time>
      </trkpt>
      <trkpt lat="46.228868812322617" lon="11.902626128867269">
        <ele>1672.8299999999999</ele>
        <time>2017-07-05T07:01:58Z</time>
      </trkpt>
      <trkpt lat="46.228870823979378" lon="11.902589667588472">
        <ele>1672.8299999999999</ele>
        <time>2017-07-05T07:02:11Z</time>
      </trkpt>
      <trkpt lat="46.228870153427124" lon="11.9026262126863">
        <ele>1672.8299999999999</ele>
        <time>2017-07-05T07:02:32Z</time>
      </trkpt>
      <trkpt lat="46.228891192004085" lon="11.902600983157754">
        <ele>1672.8299999999999</ele>
        <time>2017-07-05T07:02:48Z</time>
      </trkpt>
      <trkpt lat="46.228871578350663" lon="11.9027195032686">
        <ele>1672.8299999999999</ele>
        <time>2017-07-05T07:03:08Z</time>
      </trkpt>
      <trkpt lat="46.228799410164356" lon="11.902774488553405">
        <ele>1672.8299999999999</ele>
        <time>2017-07-05T07:03:34Z</time>
      </trkpt>
      <trkpt lat="46.228854898363352" lon="11.902726208791137">
        <ele>1673.3099999999999</ele>
        <time>2017-07-05T07:03:49Z</time>
      </trkpt>
      <trkpt lat="46.228856658563018" lon="11.902655297890306">
        <ele>1672.8299999999999</ele>
        <time>2017-07-05T07:04:04Z</time>
      </trkpt>
      <trkpt lat="46.228857496753335" lon="11.902611963450909">
        <ele>1673.3099999999999</ele>
        <time>2017-07-05T07:04:21Z</time>
      </trkpt>
      <trkpt lat="46.228769738227129" lon="11.902661668136716">
        <ele>1673.79</ele>
        <time>2017-07-05T07:04:31Z</time>
      </trkpt>
      <trkpt lat="46.228740820661187" lon="11.902712378650904">
        <ele>1672.8299999999999</ele>
        <time>2017-07-05T07:04:42Z</time>
      </trkpt>
      <trkpt lat="46.228681476786733" lon="11.902697626501322">
        <ele>1670.9100000000001</ele>
        <time>2017-07-05T07:04:51Z</time>
      </trkpt>
      <trkpt lat="46.228605201467872" lon="11.902708020061255">
        <ele>1669.95</ele>
        <time>2017-07-05T07:05:02Z</time>
      </trkpt>
      <trkpt lat="46.228504786267877" lon="11.902768537402153">
        <ele>1669.47</ele>
        <time>2017-07-05T07:05:13Z</time>
      </trkpt>
      <trkpt lat="46.228455919772387" lon="11.902786809951067">
        <ele>1669.47</ele>
        <time>2017-07-05T07:05:23Z</time>
      </trkpt>
      <trkpt lat="46.228373944759369" lon="11.902746325358748">
        <ele>1668.99</ele>
        <time>2017-07-05T07:05:33Z</time>
      </trkpt>
      <trkpt lat="46.228302279487252" lon="11.902779852971435">
        <ele>1667.0599999999999</ele>
        <time>2017-07-05T07:05:43Z</time>
      </trkpt>
      <trkpt lat="46.22826749458909" lon="11.902758060023189">
        <ele>1666.0999999999999</ele>
        <time>2017-07-05T07:05:48Z</time>
      </trkpt>
      <trkpt lat="46.228198762983084" lon="11.902711959555745">
        <ele>1664.6600000000001</ele>
        <time>2017-07-05T07:05:59Z</time>
      </trkpt>
      <trkpt lat="46.2281927280128" lon="11.90270341001451">
        <ele>1664.6600000000001</ele>
        <time>2017-07-05T07:06:00Z</time>
      </trkpt>
      <trkpt lat="46.228136317804456" lon="11.902659991756082">
        <ele>1663.7</ele>
        <time>2017-07-05T07:06:10Z</time>
      </trkpt>
      <trkpt lat="46.228089043870568" lon="11.902642725035548">
        <ele>1663.22</ele>
        <time>2017-07-05T07:06:17Z</time>
      </trkpt>
      <trkpt lat="46.228004638105631" lon="11.902610287070274">
        <ele>1662.74</ele>
        <time>2017-07-05T07:06:28Z</time>
      </trkpt>
      <trkpt lat="46.227976391091943" lon="11.902591260150075">
        <ele>1661.78</ele>
        <time>2017-07-05T07:06:33Z</time>
      </trkpt>
      <trkpt lat="46.227922663092613" lon="11.902549685910344">
        <ele>1660.8099999999999</ele>
        <time>2017-07-05T07:06:40Z</time>
      </trkpt>
      <trkpt lat="46.227800957858562" lon="11.902589583769441">
        <ele>1660.8099999999999</ele>
        <time>2017-07-05T07:06:50Z</time>
      </trkpt>
      <trkpt lat="46.227772710844874" lon="11.902591092512012">
        <ele>1661.3</ele>
        <time>2017-07-05T07:06:55Z</time>
      </trkpt>
      <trkpt lat="46.227649329230189" lon="11.902614058926702">
        <ele>1660.8099999999999</ele>
        <time>2017-07-05T07:07:06Z</time>
      </trkpt>
      <trkpt lat="46.227582693099976" lon="11.902594612911344">
        <ele>1659.8499999999999</ele>
        <time>2017-07-05T07:07:14Z</time>
      </trkpt>
      <trkpt lat="46.227470459416509" lon="11.902637695893645">
        <ele>1659.8499999999999</ele>
        <time>2017-07-05T07:07:27Z</time>
      </trkpt>
      <trkpt lat="46.227402482181787" lon="11.902653621509671">
        <ele>1659.8499999999999</ele>
        <time>2017-07-05T07:07:39Z</time>
      </trkpt>
      <trkpt lat="46.227372726425529" lon="11.902605425566435">
        <ele>1660.8099999999999</ele>
        <time>2017-07-05T07:07:51Z</time>
      </trkpt>
      <trkpt lat="46.227368367835879" lon="11.90254750661552">
        <ele>1661.78</ele>
        <time>2017-07-05T07:08:01Z</time>
      </trkpt>
      <trkpt lat="46.22737037949264" lon="11.902479026466608">
        <ele>1662.26</ele>
        <time>2017-07-05T07:08:13Z</time>
      </trkpt>
      <trkpt lat="46.227376079186797" lon="11.902455221861601">
        <ele>1663.22</ele>
        <time>2017-07-05T07:08:16Z</time>
      </trkpt>
      <trkpt lat="46.227379348129034" lon="11.90244784578681">
        <ele>1663.22</ele>
        <time>2017-07-05T07:08:17Z</time>
      </trkpt>
      <trkpt lat="46.227388568222523" lon="11.902315830811858">
        <ele>1664.1800000000001</ele>
        <time>2017-07-05T07:08:28Z</time>
      </trkpt>
      <trkpt lat="46.227382868528366" lon="11.902286494150758">
        <ele>1664.1800000000001</ele>
        <time>2017-07-05T07:08:30Z</time>
      </trkpt>
      <trkpt lat="46.227288907393813" lon="11.902136709541082">
        <ele>1665.1400000000001</ele>
        <time>2017-07-05T07:08:43Z</time>
      </trkpt>
      <trkpt lat="46.227213805541396" lon="11.902000587433577">
        <ele>1666.5799999999999</ele>
        <time>2017-07-05T07:08:56Z</time>
      </trkpt>
      <trkpt lat="46.227202406153083" lon="11.901995474472642">
        <ele>1666.5799999999999</ele>
        <time>2017-07-05T07:08:57Z</time>
      </trkpt>
      <trkpt lat="46.227086232975125" lon="11.90194359049201">
        <ele>1666.0999999999999</ele>
        <time>2017-07-05T07:09:10Z</time>
      </trkpt>
      <trkpt lat="46.22702345252037" lon="11.901889275759459">
        <ele>1665.6199999999999</ele>
        <time>2017-07-05T07:09:18Z</time>
      </trkpt>
      <trkpt lat="46.227008616551757" lon="11.901804367080331">
        <ele>1667.0599999999999</ele>
        <time>2017-07-05T07:09:31Z</time>
      </trkpt>
      <trkpt lat="46.226960001513362" lon="11.901686182245612">
        <ele>1668.02</ele>
        <time>2017-07-05T07:09:41Z</time>
      </trkpt>
      <trkpt lat="46.226863861083984" lon="11.901544108986855">
        <ele>1668.02</ele>
        <time>2017-07-05T07:09:53Z</time>
      </trkpt>
      <trkpt lat="46.226794458925724" lon="11.90150186419487">
        <ele>1667.54</ele>
        <time>2017-07-05T07:10:02Z</time>
      </trkpt>
      <trkpt lat="46.226720446720719" lon="11.901479233056307">
        <ele>1668.02</ele>
        <time>2017-07-05T07:10:14Z</time>
      </trkpt>
      <trkpt lat="46.226668730378151" lon="11.901409244164824">
        <ele>1666.5799999999999</ele>
        <time>2017-07-05T07:10:26Z</time>
      </trkpt>
      <trkpt lat="46.226602010428905" lon="11.901374459266663">
        <ele>1665.6199999999999</ele>
        <time>2017-07-05T07:10:38Z</time>
      </trkpt>
      <trkpt lat="46.226614750921726" lon="11.901268847286701">
        <ele>1666.0999999999999</ele>
        <time>2017-07-05T07:10:49Z</time>
      </trkpt>
      <trkpt lat="46.226605195552111" lon="11.901206318289042">
        <ele>1666.0999999999999</ele>
        <time>2017-07-05T07:10:54Z</time>
      </trkpt>
      <trkpt lat="46.22657485306263" lon="11.901059299707413">
        <ele>1664.6600000000001</ele>
        <time>2017-07-05T07:11:06Z</time>
      </trkpt>
      <trkpt lat="46.226571165025234" lon="11.901017054915428">
        <ele>1664.1800000000001</ele>
        <time>2017-07-05T07:11:14Z</time>
      </trkpt>
      <trkpt lat="46.226547192782164" lon="11.900976821780205">
        <ele>1662.26</ele>
        <time>2017-07-05T07:11:25Z</time>
      </trkpt>
      <trkpt lat="46.22651718556881" lon="11.900918902829289">
        <ele>1660.3299999999999</ele>
        <time>2017-07-05T07:11:35Z</time>
      </trkpt>
      <trkpt lat="46.226529087871313" lon="11.900843130424619">
        <ele>1660.3299999999999</ele>
        <time>2017-07-05T07:11:44Z</time>
      </trkpt>
      <trkpt lat="46.226494386792183" lon="11.900775823742151">
        <ele>1660.8099999999999</ele>
        <time>2017-07-05T07:11:59Z</time>
      </trkpt>
      <trkpt lat="46.226443257182837" lon="11.90078211016953">
        <ele>1661.3</ele>
        <time>2017-07-05T07:12:09Z</time>
      </trkpt>
      <trkpt lat="46.226401263847947" lon="11.900744391605258">
        <ele>1662.26</ele>
        <time>2017-07-05T07:12:15Z</time>
      </trkpt>
      <trkpt lat="46.226323982700706" lon="11.90075914375484">
        <ele>1662.74</ele>
        <time>2017-07-05T07:12:26Z</time>
      </trkpt>
      <trkpt lat="46.226260447874665" lon="11.900788061320782">
        <ele>1664.6600000000001</ele>
        <time>2017-07-05T07:12:38Z</time>
      </trkpt>
      <trkpt lat="46.226195152848959" lon="11.900867521762848">
        <ele>1666.0999999999999</ele>
        <time>2017-07-05T07:12:50Z</time>
      </trkpt>
      <trkpt lat="46.226149806752801" lon="11.900923177599907">
        <ele>1667.0599999999999</ele>
        <time>2017-07-05T07:13:00Z</time>
      </trkpt>
      <trkpt lat="46.226139161735773" lon="11.900937426835299">
        <ele>1667.54</ele>
        <time>2017-07-05T07:13:10Z</time>
      </trkpt>
      <trkpt lat="46.226135641336441" lon="11.900933068245649">
        <ele>1668.99</ele>
        <time>2017-07-05T07:13:25Z</time>
      </trkpt>
      <trkpt lat="46.22607353143394" lon="11.90103373490274">
        <ele>1669.95</ele>
        <time>2017-07-05T07:13:38Z</time>
      </trkpt>
      <trkpt lat="46.226066742092371" lon="11.90104597248137">
        <ele>1670.4300000000001</ele>
        <time>2017-07-05T07:13:39Z</time>
      </trkpt>
      <trkpt lat="46.226031705737114" lon="11.901147058233619">
        <ele>1672.3499999999999</ele>
        <time>2017-07-05T07:13:50Z</time>
      </trkpt>
      <trkpt lat="46.225990550592542" lon="11.901195170357823">
        <ele>1674.75</ele>
        <time>2017-07-05T07:14:02Z</time>
      </trkpt>
      <trkpt lat="46.226003961637616" lon="11.901284521445632">
        <ele>1676.2</ele>
        <time>2017-07-05T07:14:11Z</time>
      </trkpt>
      <trkpt lat="46.22602810151875" lon="11.901372615247965">
        <ele>1677.6400000000001</ele>
        <time>2017-07-05T07:14:21Z</time>
      </trkpt>
      <trkpt lat="46.226038578897715" lon="11.901432042941451">
        <ele>1679.0799999999999</ele>
        <time>2017-07-05T07:14:31Z</time>
      </trkpt>
      <trkpt lat="46.226043105125427" lon="11.901510581374168">
        <ele>1680.04</ele>
        <time>2017-07-05T07:14:40Z</time>
      </trkpt>
      <trkpt lat="46.226029358804226" lon="11.901571853086352">
        <ele>1681</ele>
        <time>2017-07-05T07:14:48Z</time>
      </trkpt>
      <trkpt lat="46.226135976612568" lon="11.901672268286347">
        <ele>1682.4400000000001</ele>
        <time>2017-07-05T07:14:59Z</time>
      </trkpt>
      <trkpt lat="46.226159613579512" lon="11.9017403293401">
        <ele>1683.4100000000001</ele>
        <time>2017-07-05T07:15:09Z</time>
      </trkpt>
      <trkpt lat="46.226144274696708" lon="11.901766899973154">
        <ele>1685.3299999999999</ele>
        <time>2017-07-05T07:15:20Z</time>
      </trkpt>
      <trkpt lat="46.226086774840951" lon="11.901839571073651">
        <ele>1687.25</ele>
        <time>2017-07-05T07:15:35Z</time>
      </trkpt>
      <trkpt lat="46.226087529212236" lon="11.901880893856287">
        <ele>1689.1700000000001</ele>
        <time>2017-07-05T07:15:48Z</time>
      </trkpt>
      <trkpt lat="46.226063976064324" lon="11.901960857212543">
        <ele>1690.6199999999999</ele>
        <time>2017-07-05T07:15:59Z</time>
      </trkpt>
      <trkpt lat="46.226047044619918" lon="11.901980051770806">
        <ele>1692.0599999999999</ele>
        <time>2017-07-05T07:16:09Z</time>
      </trkpt>
      <trkpt lat="46.226023156195879" lon="11.902067475020885">
        <ele>1693.98</ele>
        <time>2017-07-05T07:16:21Z</time>
      </trkpt>
      <trkpt lat="46.226002117618918" lon="11.902165459468961">
        <ele>1695.9000000000001</ele>
        <time>2017-07-05T07:16:33Z</time>
      </trkpt>
      <trkpt lat="46.226040003821254" lon="11.902227653190494">
        <ele>1697.8299999999999</ele>
        <time>2017-07-05T07:16:46Z</time>
      </trkpt>
      <trkpt lat="46.226034387946129" lon="11.902340389788151">
        <ele>1699.27</ele>
        <time>2017-07-05T07:16:58Z</time>
      </trkpt>
      <trkpt lat="46.225985269993544" lon="11.902430495247245">
        <ele>1700.71</ele>
        <time>2017-07-05T07:17:09Z</time>
      </trkpt>
      <trkpt lat="46.225967165082693" lon="11.902450025081635">
        <ele>1702.1500000000001</ele>
        <time>2017-07-05T07:17:19Z</time>
      </trkpt>
      <trkpt lat="46.225937157869339" lon="11.902465112507343">
        <ele>1703.5899999999999</ele>
        <time>2017-07-05T07:17:29Z</time>
      </trkpt>
      <trkpt lat="46.225905558094382" lon="11.902518672868609">
        <ele>1705.52</ele>
        <time>2017-07-05T07:17:41Z</time>
      </trkpt>
      <trkpt lat="46.225878484547138" lon="11.902526384219527">
        <ele>1707.4400000000001</ele>
        <time>2017-07-05T07:17:53Z</time>
      </trkpt>
      <trkpt lat="46.225852919742465" lon="11.902512386441231">
        <ele>1708.8800000000001</ele>
        <time>2017-07-05T07:18:04Z</time>
      </trkpt>
      <trkpt lat="46.225822241976857" lon="11.902570640668273">
        <ele>1710.3199999999999</ele>
        <time>2017-07-05T07:18:16Z</time>
      </trkpt>
      <trkpt lat="46.225754348561168" lon="11.902511548250914">
        <ele>1711.28</ele>
        <time>2017-07-05T07:18:28Z</time>
      </trkpt>
      <trkpt lat="46.225711014121771" lon="11.902466369792819">
        <ele>1712.73</ele>
        <time>2017-07-05T07:18:38Z</time>
      </trkpt>
      <trkpt lat="46.225705901160836" lon="11.902497382834554">
        <ele>1714.1700000000001</ele>
        <time>2017-07-05T07:18:50Z</time>
      </trkpt>
      <trkpt lat="46.225762646645308" lon="11.902435356751084">
        <ele>1714.1700000000001</ele>
        <time>2017-07-05T07:19:06Z</time>
      </trkpt>
      <trkpt lat="46.225750325247645" lon="11.902458574622869">
        <ele>1714.1700000000001</ele>
        <time>2017-07-05T07:19:22Z</time>
      </trkpt>
      <trkpt lat="46.225756444036961" lon="11.902541723102331">
        <ele>1715.6099999999999</ele>
        <time>2017-07-05T07:19:34Z</time>
      </trkpt>
      <trkpt lat="46.225767508149147" lon="11.902598720043898">
        <ele>1717.05</ele>
        <time>2017-07-05T07:19:45Z</time>
      </trkpt>
      <trkpt lat="46.22575837187469" lon="11.902640461921692">
        <ele>1717.05</ele>
        <time>2017-07-05T07:19:56Z</time>
      </trkpt>
      <trkpt lat="46.225733058527112" lon="11.90271757543087">
        <ele>1718.97</ele>
        <time>2017-07-05T07:20:08Z</time>
      </trkpt>
      <trkpt lat="46.225694501772523" lon="11.902749426662922">
        <ele>1720.4200000000001</ele>
        <time>2017-07-05T07:20:21Z</time>
      </trkpt>
      <trkpt lat="46.225672792643309" lon="11.902820421382785">
        <ele>1721.8599999999999</ele>
        <time>2017-07-05T07:20:31Z</time>
      </trkpt>
      <trkpt lat="46.225662231445313" lon="11.902868198230863">
        <ele>1723.3</ele>
        <time>2017-07-05T07:20:41Z</time>
      </trkpt>
      <trkpt lat="46.225659884512424" lon="11.902891164645553">
        <ele>1723.78</ele>
        <time>2017-07-05T07:20:43Z</time>
      </trkpt>
      <trkpt lat="46.22564647346735" lon="11.902955286204815">
        <ele>1724.74</ele>
        <time>2017-07-05T07:20:53Z</time>
      </trkpt>
      <trkpt lat="46.225633481517434" lon="11.903014881536365">
        <ele>1726.1800000000001</ele>
        <time>2017-07-05T07:21:04Z</time>
      </trkpt>
      <trkpt lat="46.225667847320437" lon="11.903026113286614">
        <ele>1727.1500000000001</ele>
        <time>2017-07-05T07:21:18Z</time>
      </trkpt>
      <trkpt lat="46.225646222010255" lon="11.903033908456564">
        <ele>1727.6300000000001</ele>
        <time>2017-07-05T07:21:33Z</time>
      </trkpt>
      <trkpt lat="46.225620321929455" lon="11.903115464374423">
        <ele>1729.55</ele>
        <time>2017-07-05T07:21:48Z</time>
      </trkpt>
      <trkpt lat="46.225582435727119" lon="11.903197439387441">
        <ele>1731.95</ele>
        <time>2017-07-05T07:22:02Z</time>
      </trkpt>
      <trkpt lat="46.225548908114433" lon="11.903277151286602">
        <ele>1733.8800000000001</ele>
        <time>2017-07-05T07:22:18Z</time>
      </trkpt>
      <trkpt lat="46.225508591160178" lon="11.903327610343695">
        <ele>1735.3199999999999</ele>
        <time>2017-07-05T07:22:29Z</time>
      </trkpt>
      <trkpt lat="46.225476320832968" lon="11.903299363330007">
        <ele>1736.76</ele>
        <time>2017-07-05T07:22:40Z</time>
      </trkpt>
      <trkpt lat="46.225410522893071" lon="11.903286036103964">
        <ele>1738.2</ele>
        <time>2017-07-05T07:22:51Z</time>
      </trkpt>
      <trkpt lat="46.225385712459683" lon="11.903354683890939">
        <ele>1740.1199999999999</ele>
        <time>2017-07-05T07:23:03Z</time>
      </trkpt>
      <trkpt lat="46.225329972803593" lon="11.903361808508635">
        <ele>1741.0799999999999</ele>
        <time>2017-07-05T07:23:15Z</time>
      </trkpt>
      <trkpt lat="46.225304994732141" lon="11.903352169319987">
        <ele>1743.01</ele>
        <time>2017-07-05T07:23:27Z</time>
      </trkpt>
      <trkpt lat="46.225260905921459" lon="11.903311684727669">
        <ele>1744.45</ele>
        <time>2017-07-05T07:23:40Z</time>
      </trkpt>
      <trkpt lat="46.225197454914451" lon="11.903307242318988">
        <ele>1746.3699999999999</ele>
        <time>2017-07-05T07:23:54Z</time>
      </trkpt>
      <trkpt lat="46.225177925080061" lon="11.903376476839185">
        <ele>1747.8099999999999</ele>
        <time>2017-07-05T07:24:06Z</time>
      </trkpt>
      <trkpt lat="46.225141044706106" lon="11.903427857905626">
        <ele>1749.74</ele>
        <time>2017-07-05T07:24:18Z</time>
      </trkpt>
      <trkpt lat="46.225128304213285" lon="11.903487537056208">
        <ele>1751.1800000000001</ele>
        <time>2017-07-05T07:24:30Z</time>
      </trkpt>
      <trkpt lat="46.22511095367372" lon="11.903531793504953">
        <ele>1752.6199999999999</ele>
        <time>2017-07-05T07:24:40Z</time>
      </trkpt>
      <trkpt lat="46.225064350292087" lon="11.903568422421813">
        <ele>1754.0599999999999</ele>
        <time>2017-07-05T07:24:53Z</time>
      </trkpt>
      <trkpt lat="46.225017914548516" lon="11.903614019975066">
        <ele>1755.99</ele>
        <time>2017-07-05T07:25:08Z</time>
      </trkpt>
      <trkpt lat="46.225012047216296" lon="11.903661629185081">
        <ele>1757.9100000000001</ele>
        <time>2017-07-05T07:25:21Z</time>
      </trkpt>
      <trkpt lat="46.22499268501997" lon="11.90372709184885">
        <ele>1759.8299999999999</ele>
        <time>2017-07-05T07:25:32Z</time>
      </trkpt>
      <trkpt lat="46.22496192343533" lon="11.903787273913622">
        <ele>1761.27</ele>
        <time>2017-07-05T07:25:45Z</time>
      </trkpt>
      <trkpt lat="46.224977849051356" lon="11.903782496228814">
        <ele>1761.75</ele>
        <time>2017-07-05T07:25:56Z</time>
      </trkpt>
      <trkpt lat="46.224995534867048" lon="11.903787609189749">
        <ele>1761.75</ele>
        <time>2017-07-05T07:26:08Z</time>
      </trkpt>
      <trkpt lat="46.224984554573894" lon="11.903848294168711">
        <ele>1762.71</ele>
        <time>2017-07-05T07:26:15Z</time>
      </trkpt>
      <trkpt lat="46.224943986162543" lon="11.903932951390743">
        <ele>1764.1600000000001</ele>
        <time>2017-07-05T07:26:25Z</time>
      </trkpt>
      <trkpt lat="46.224900903180242" lon="11.903992379084229">
        <ele>1766.0799999999999</ele>
        <time>2017-07-05T07:26:34Z</time>
      </trkpt>
      <trkpt lat="46.224862011149526" lon="11.904037808999419">
        <ele>1768</ele>
        <time>2017-07-05T07:26:46Z</time>
      </trkpt>
      <trkpt lat="46.224828064441681" lon="11.904083071276546">
        <ele>1770.4100000000001</ele>
        <time>2017-07-05T07:26:58Z</time>
      </trkpt>
      <trkpt lat="46.224817419424653" lon="11.904187342151999">
        <ele>1772.8099999999999</ele>
        <time>2017-07-05T07:27:13Z</time>
      </trkpt>
      <trkpt lat="46.224739635363221" lon="11.904201675206423">
        <ele>1774.73</ele>
        <time>2017-07-05T07:27:28Z</time>
      </trkpt>
      <trkpt lat="46.224693367257714" lon="11.904255906119943">
        <ele>1775.6900000000001</ele>
        <time>2017-07-05T07:27:40Z</time>
      </trkpt>
      <trkpt lat="46.224705185741186" lon="11.904308712109923">
        <ele>1776.6500000000001</ele>
        <time>2017-07-05T07:27:52Z</time>
      </trkpt>
      <trkpt lat="46.224679034203291" lon="11.904314160346985">
        <ele>1777.1300000000001</ele>
        <time>2017-07-05T07:28:01Z</time>
      </trkpt>
      <trkpt lat="46.224692696705461" lon="11.904328158125281">
        <ele>1778.0999999999999</ele>
        <time>2017-07-05T07:28:10Z</time>
      </trkpt>
      <trkpt lat="46.224699737504125" lon="11.904291193932295">
        <ele>1777.6099999999999</ele>
        <time>2017-07-05T07:28:23Z</time>
      </trkpt>
      <trkpt lat="46.224711136892438" lon="11.904317932203412">
        <ele>1777.6099999999999</ele>
        <time>2017-07-05T07:28:50Z</time>
      </trkpt>
      <trkpt lat="46.224695378914475" lon="11.904313154518604">
        <ele>1777.6099999999999</ele>
        <time>2017-07-05T07:29:11Z</time>
      </trkpt>
      <trkpt lat="46.224704850465059" lon="11.904298821464181">
        <ele>1777.6099999999999</ele>
        <time>2017-07-05T07:29:29Z</time>
      </trkpt>
      <trkpt lat="46.224701749160886" lon="11.904308963567019">
        <ele>1777.6099999999999</ele>
        <time>2017-07-05T07:29:50Z</time>
      </trkpt>
      <trkpt lat="46.22469118796289" lon="11.90428851172328">
        <ele>1777.6099999999999</ele>
        <time>2017-07-05T07:30:11Z</time>
      </trkpt>
      <trkpt lat="46.224694205448031" lon="11.904267473146319">
        <ele>1777.6099999999999</ele>
        <time>2017-07-05T07:30:40Z</time>
      </trkpt>
      <trkpt lat="46.224698564037681" lon="11.904272250831127">
        <ele>1777.6099999999999</ele>
        <time>2017-07-05T07:31:01Z</time>
      </trkpt>
      <trkpt lat="46.22469462454319" lon="11.904260264709592">
        <ele>1777.6099999999999</ele>
        <time>2017-07-05T07:31:24Z</time>
      </trkpt>
      <trkpt lat="46.224701832979918" lon="11.904260013252497">
        <ele>1778.0999999999999</ele>
        <time>2017-07-05T07:31:45Z</time>
      </trkpt>
      <trkpt lat="46.224700240418315" lon="11.904299659654498">
        <ele>1778.5799999999999</ele>
        <time>2017-07-05T07:32:02Z</time>
      </trkpt>
      <trkpt lat="46.224689092487097" lon="11.904330085963011">
        <ele>1779.0599999999999</ele>
        <time>2017-07-05T07:32:16Z</time>
      </trkpt>
      <trkpt lat="46.224695043638349" lon="11.904291864484549">
        <ele>1778.0999999999999</ele>
        <time>2017-07-05T07:32:34Z</time>
      </trkpt>
      <trkpt lat="46.224733013659716" lon="11.904295133426785">
        <ele>1778.0999999999999</ele>
        <time>2017-07-05T07:32:45Z</time>
      </trkpt>
      <trkpt lat="46.224715914577246" lon="11.904301755130291">
        <ele>1778.0999999999999</ele>
        <time>2017-07-05T07:33:10Z</time>
      </trkpt>
      <trkpt lat="46.224699066951871" lon="11.90430217422545">
        <ele>1778.5799999999999</ele>
        <time>2017-07-05T07:33:32Z</time>
      </trkpt>
      <trkpt lat="46.224668892100453" lon="11.904299072921276">
        <ele>1778.5799999999999</ele>
        <time>2017-07-05T07:33:48Z</time>
      </trkpt>
      <trkpt lat="46.224673502147198" lon="11.904282812029123">
        <ele>1778.5799999999999</ele>
        <time>2017-07-05T07:34:07Z</time>
      </trkpt>
      <trkpt lat="46.224677357822657" lon="11.904279459267855">
        <ele>1778.0999999999999</ele>
        <time>2017-07-05T07:34:23Z</time>
      </trkpt>
      <trkpt lat="46.224690265953541" lon="11.904280632734299">
        <ele>1778.5799999999999</ele>
        <time>2017-07-05T07:34:51Z</time>
      </trkpt>
      <trkpt lat="46.224687164649367" lon="11.904301084578037">
        <ele>1778.5799999999999</ele>
        <time>2017-07-05T07:35:10Z</time>
      </trkpt>
      <trkpt lat="46.22468096204102" lon="11.904304772615433">
        <ele>1778.5799999999999</ele>
        <time>2017-07-05T07:35:38Z</time>
      </trkpt>
      <trkpt lat="46.224671909585595" lon="11.904278201982379">
        <ele>1778.0999999999999</ele>
        <time>2017-07-05T07:35:56Z</time>
      </trkpt>
      <trkpt lat="46.224666880443692" lon="11.904276525601745">
        <ele>1778.5799999999999</ele>
        <time>2017-07-05T07:36:10Z</time>
      </trkpt>
      <trkpt lat="46.224679285660386" lon="11.90429194830358">
        <ele>1778.5799999999999</ele>
        <time>2017-07-05T07:36:36Z</time>
      </trkpt>
      <trkpt lat="46.224681716412306" lon="11.904284823685884">
        <ele>1778.5799999999999</ele>
        <time>2017-07-05T07:36:49Z</time>
      </trkpt>
      <trkpt lat="46.22468632645905" lon="11.904283734038472">
        <ele>1778.5799999999999</ele>
        <time>2017-07-05T07:37:06Z</time>
      </trkpt>
      <trkpt lat="46.224687080830336" lon="11.904279543086886">
        <ele>1778.5799999999999</ele>
        <time>2017-07-05T07:37:22Z</time>
      </trkpt>
      <trkpt lat="46.224704263731837" lon="11.904274011030793">
        <ele>1778.5799999999999</ele>
        <time>2017-07-05T07:37:43Z</time>
      </trkpt>
      <trkpt lat="46.22470979578793" lon="11.904259761795402">
        <ele>1779.0599999999999</ele>
        <time>2017-07-05T07:37:54Z</time>
      </trkpt>
      <trkpt lat="46.22472932562232" lon="11.904252720996737">
        <ele>1779.54</ele>
        <time>2017-07-05T07:38:06Z</time>
      </trkpt>
      <trkpt lat="46.224729660898447" lon="11.904284404590726">
        <ele>1779.54</ele>
        <time>2017-07-05T07:38:19Z</time>
      </trkpt>
      <trkpt lat="46.224713902920485" lon="11.904273675754666">
        <ele>1779.0599999999999</ele>
        <time>2017-07-05T07:38:28Z</time>
      </trkpt>
      <trkpt lat="46.224707113578916" lon="11.904249703511596">
        <ele>1779.54</ele>
        <time>2017-07-05T07:38:43Z</time>
      </trkpt>
      <trkpt lat="46.224717674776912" lon="11.904233191162348">
        <ele>1779.54</ele>
        <time>2017-07-05T07:38:55Z</time>
      </trkpt>
      <trkpt lat="46.224726475775242" lon="11.904229084029794">
        <ele>1780.02</ele>
        <time>2017-07-05T07:39:09Z</time>
      </trkpt>
      <trkpt lat="46.224721111357212" lon="11.904229419305921">
        <ele>1780.02</ele>
        <time>2017-07-05T07:39:23Z</time>
      </trkpt>
      <trkpt lat="46.224735276773572" lon="11.904247105121613">
        <ele>1780.02</ele>
        <time>2017-07-05T07:39:41Z</time>
      </trkpt>
      <trkpt lat="46.224725050851703" lon="11.904264036566019">
        <ele>1780.02</ele>
        <time>2017-07-05T07:39:53Z</time>
      </trkpt>
      <trkpt lat="46.224723374471068" lon="11.904255906119943">
        <ele>1779.54</ele>
        <time>2017-07-05T07:40:13Z</time>
      </trkpt>
      <trkpt lat="46.224718764424324" lon="11.904269987717271">
        <ele>1780.02</ele>
        <time>2017-07-05T07:40:31Z</time>
      </trkpt>
      <trkpt lat="46.224725302308798" lon="11.904272502288222">
        <ele>1779.54</ele>
        <time>2017-07-05T07:40:43Z</time>
      </trkpt>
      <trkpt lat="46.224742401391268" lon="11.904289266094565">
        <ele>1779.54</ele>
        <time>2017-07-05T07:40:51Z</time>
      </trkpt>
      <trkpt lat="46.224712897092104" lon="11.904364200308919">
        <ele>1780.98</ele>
        <time>2017-07-05T07:41:00Z</time>
      </trkpt>
      <trkpt lat="46.224683141335845" lon="11.904430249705911">
        <ele>1782.4200000000001</ele>
        <time>2017-07-05T07:41:09Z</time>
      </trkpt>
      <trkpt lat="46.22466679662466" lon="11.904490431770682">
        <ele>1783.8599999999999</ele>
        <time>2017-07-05T07:41:21Z</time>
      </trkpt>
      <trkpt lat="46.224671490490437" lon="11.904558157548308">
        <ele>1784.8199999999999</ele>
        <time>2017-07-05T07:41:31Z</time>
      </trkpt>
      <trkpt lat="46.224626731127501" lon="11.904634768143296">
        <ele>1786.75</ele>
        <time>2017-07-05T07:41:44Z</time>
      </trkpt>
      <trkpt lat="46.224618013948202" lon="11.90469897352159">
        <ele>1788.1900000000001</ele>
        <time>2017-07-05T07:41:53Z</time>
      </trkpt>
      <trkpt lat="46.22456319630146" lon="11.904738452285528">
        <ele>1790.1099999999999</ele>
        <time>2017-07-05T07:42:07Z</time>
      </trkpt>
      <trkpt lat="46.224513994529843" lon="11.90479913726449">
        <ele>1791.55</ele>
        <time>2017-07-05T07:42:19Z</time>
      </trkpt>
      <trkpt lat="46.224490106105804" lon="11.904809279367328">
        <ele>1793</ele>
        <time>2017-07-05T07:42:31Z</time>
      </trkpt>
      <trkpt lat="46.224467055872083" lon="11.904868371784687">
        <ele>1793.96</ele>
        <time>2017-07-05T07:42:42Z</time>
      </trkpt>
      <trkpt lat="46.224432690069079" lon="11.904956046491861">
        <ele>1795.8800000000001</ele>
        <time>2017-07-05T07:42:55Z</time>
      </trkpt>
      <trkpt lat="46.224397905170918" lon="11.904984125867486">
        <ele>1797.8</ele>
        <time>2017-07-05T07:43:07Z</time>
      </trkpt>
      <trkpt lat="46.22439413331449" lon="11.905057970434427">
        <ele>1799.24</ele>
        <time>2017-07-05T07:43:18Z</time>
      </trkpt>
      <trkpt lat="46.224382733926177" lon="11.905135083943605">
        <ele>1800.6900000000001</ele>
        <time>2017-07-05T07:43:29Z</time>
      </trkpt>
      <trkpt lat="46.224358677864075" lon="11.905183782801032">
        <ele>1802.1300000000001</ele>
        <time>2017-07-05T07:43:40Z</time>
      </trkpt>
      <trkpt lat="46.2243418302387" lon="11.905236588791013">
        <ele>1803.0899999999999</ele>
        <time>2017-07-05T07:43:52Z</time>
      </trkpt>
      <trkpt lat="46.224317941814661" lon="11.905262907966971">
        <ele>1804.05</ele>
        <time>2017-07-05T07:44:01Z</time>
      </trkpt>
      <trkpt lat="46.224327832460403" lon="11.905283275991678">
        <ele>1805.49</ele>
        <time>2017-07-05T07:44:10Z</time>
      </trkpt>
      <trkpt lat="46.224334118887782" lon="11.905290652066469">
        <ele>1806.45</ele>
        <time>2017-07-05T07:44:23Z</time>
      </trkpt>
      <trkpt lat="46.224340908229351" lon="11.905334992334247">
        <ele>1807.9000000000001</ele>
        <time>2017-07-05T07:44:33Z</time>
      </trkpt>
      <trkpt lat="46.224308805540204" lon="11.905385367572308">
        <ele>1808.8599999999999</ele>
        <time>2017-07-05T07:44:44Z</time>
      </trkpt>
      <trkpt lat="46.224309308454394" lon="11.90544705837965">
        <ele>1810.78</ele>
        <time>2017-07-05T07:44:56Z</time>
      </trkpt>
      <trkpt lat="46.224316852167249" lon="11.905499612912536">
        <ele>1812.22</ele>
        <time>2017-07-05T07:45:09Z</time>
      </trkpt>
      <trkpt lat="46.224279720336199" lon="11.905532553792">
        <ele>1813.6600000000001</ele>
        <time>2017-07-05T07:45:23Z</time>
      </trkpt>
      <trkpt lat="46.224232697859406" lon="11.90557362511754">
        <ele>1815.5899999999999</ele>
        <time>2017-07-05T07:45:37Z</time>
      </trkpt>
      <trkpt lat="46.224229261279106" lon="11.905600028112531">
        <ele>1817.03</ele>
        <time>2017-07-05T07:45:51Z</time>
      </trkpt>
      <trkpt lat="46.22422507032752" lon="11.905627688392997">
        <ele>1818.47</ele>
        <time>2017-07-05T07:46:04Z</time>
      </trkpt>
      <trkpt lat="46.224227836355567" lon="11.905699269846082">
        <ele>1819.9100000000001</ele>
        <time>2017-07-05T07:46:16Z</time>
      </trkpt>
      <trkpt lat="46.224211491644382" lon="11.905739083886147">
        <ele>1821.8399999999999</ele>
        <time>2017-07-05T07:46:30Z</time>
      </trkpt>
      <trkpt lat="46.224163547158241" lon="11.905780071392655">
        <ele>1823.76</ele>
        <time>2017-07-05T07:46:42Z</time>
      </trkpt>
      <trkpt lat="46.224157344549894" lon="11.905838577076793">
        <ele>1824.72</ele>
        <time>2017-07-05T07:46:52Z</time>
      </trkpt>
      <trkpt lat="46.224154913797975" lon="11.905854670330882">
        <ele>1825.6800000000001</ele>
        <time>2017-07-05T07:47:03Z</time>
      </trkpt>
      <trkpt lat="46.224145945161581" lon="11.905898340046406">
        <ele>1826.6400000000001</ele>
        <time>2017-07-05T07:47:15Z</time>
      </trkpt>
      <trkpt lat="46.224130103364587" lon="11.9059400819242">
        <ele>1828.0799999999999</ele>
        <time>2017-07-05T07:47:27Z</time>
      </trkpt>
      <trkpt lat="46.224139742553234" lon="11.905999174341559">
        <ele>1829.53</ele>
        <time>2017-07-05T07:47:40Z</time>
      </trkpt>
      <trkpt lat="46.224142257124186" lon="11.906029768288136">
        <ele>1831.45</ele>
        <time>2017-07-05T07:47:52Z</time>
      </trkpt>
      <trkpt lat="46.224131276831031" lon="11.906096152961254">
        <ele>1832.8900000000001</ele>
        <time>2017-07-05T07:48:03Z</time>
      </trkpt>
      <trkpt lat="46.224110322073102" lon="11.906093806028366">
        <ele>1834.8099999999999</ele>
        <time>2017-07-05T07:48:14Z</time>
      </trkpt>
      <trkpt lat="46.224123733118176" lon="11.906109983101487">
        <ele>1834.8099999999999</ele>
        <time>2017-07-05T07:48:18Z</time>
      </trkpt>
      <trkpt lat="46.224090792238712" lon="11.906212493777275">
        <ele>1836.26</ele>
        <time>2017-07-05T07:48:29Z</time>
      </trkpt>
      <trkpt lat="46.224073190242052" lon="11.906271083280444">
        <ele>1837.7</ele>
        <time>2017-07-05T07:48:38Z</time>
      </trkpt>
      <trkpt lat="46.224020635709167" lon="11.906216265633702">
        <ele>1838.6600000000001</ele>
        <time>2017-07-05T07:48:48Z</time>
      </trkpt>
      <trkpt lat="46.223989706486464" lon="11.906235376372933">
        <ele>1839.6199999999999</ele>
        <time>2017-07-05T07:48:57Z</time>
      </trkpt>
      <trkpt lat="46.224012421444058" lon="11.906285081058741">
        <ele>1841.0599999999999</ele>
        <time>2017-07-05T07:49:06Z</time>
      </trkpt>
      <trkpt lat="46.223985431715846" lon="11.906313998624682">
        <ele>1842.02</ele>
        <time>2017-07-05T07:49:16Z</time>
      </trkpt>
      <trkpt lat="46.223984844982624" lon="11.906325062736869">
        <ele>1842.98</ele>
        <time>2017-07-05T07:49:25Z</time>
      </trkpt>
      <trkpt lat="46.223989874124527" lon="11.906380131840706">
        <ele>1844.4300000000001</ele>
        <time>2017-07-05T07:49:36Z</time>
      </trkpt>
      <trkpt lat="46.223981827497482" lon="11.906413994729519">
        <ele>1846.3499999999999</ele>
        <time>2017-07-05T07:49:50Z</time>
      </trkpt>
      <trkpt lat="46.223957603797317" lon="11.906411480158567">
        <ele>1847.79</ele>
        <time>2017-07-05T07:50:05Z</time>
      </trkpt>
      <trkpt lat="46.223915945738554" lon="11.906433524563909">
        <ele>1849.23</ele>
        <time>2017-07-05T07:50:18Z</time>
      </trkpt>
      <trkpt lat="46.223868168890476" lon="11.906440313905478">
        <ele>1850.1900000000001</ele>
        <time>2017-07-05T07:50:29Z</time>
      </trkpt>
      <trkpt lat="46.22385953553021" lon="11.906495969742537">
        <ele>1852.1199999999999</ele>
        <time>2017-07-05T07:50:44Z</time>
      </trkpt>
      <trkpt lat="46.223851321265101" lon="11.906529245898128">
        <ele>1853.0799999999999</ele>
        <time>2017-07-05T07:50:57Z</time>
      </trkpt>
      <trkpt lat="46.223803712055087" lon="11.906558163464069">
        <ele>1853.5599999999999</ele>
        <time>2017-07-05T07:51:13Z</time>
      </trkpt>
      <trkpt lat="46.22386640869081" lon="11.906536538153887">
        <ele>1853.5599999999999</ele>
        <time>2017-07-05T07:51:32Z</time>
      </trkpt>
      <trkpt lat="46.223844448104501" lon="11.906579453498125">
        <ele>1855.96</ele>
        <time>2017-07-05T07:51:42Z</time>
      </trkpt>
      <trkpt lat="46.223822319880128" lon="11.906626140698791">
        <ele>1856.9200000000001</ele>
        <time>2017-07-05T07:51:54Z</time>
      </trkpt>
      <trkpt lat="46.223810501396656" lon="11.906693866476417">
        <ele>1857.4000000000001</ele>
        <time>2017-07-05T07:52:04Z</time>
      </trkpt>
      <trkpt lat="46.223804131150246" lon="11.906697805970907">
        <ele>1859.3299999999999</ele>
        <time>2017-07-05T07:52:06Z</time>
      </trkpt>
      <trkpt lat="46.223752247169614" lon="11.906653381884098">
        <ele>1860.29</ele>
        <time>2017-07-05T07:52:20Z</time>
      </trkpt>
      <trkpt lat="46.223729448392987" lon="11.90669353120029">
        <ele>1862.21</ele>
        <time>2017-07-05T07:52:32Z</time>
      </trkpt>
      <trkpt lat="46.223708158358932" lon="11.906760083511472">
        <ele>1863.6500000000001</ele>
        <time>2017-07-05T07:52:42Z</time>
      </trkpt>
      <trkpt lat="46.223706481978297" lon="11.906819259747863">
        <ele>1865.5799999999999</ele>
        <time>2017-07-05T07:52:57Z</time>
      </trkpt>
      <trkpt lat="46.223708242177963" lon="11.906776009127498">
        <ele>1865.5799999999999</ele>
        <time>2017-07-05T07:53:09Z</time>
      </trkpt>
      <trkpt lat="46.22370027936995" lon="11.906822277233005">
        <ele>1867.02</ele>
        <time>2017-07-05T07:53:20Z</time>
      </trkpt>
      <trkpt lat="46.223794240504503" lon="11.906941719353199">
        <ele>1867.5</ele>
        <time>2017-07-05T07:53:25Z</time>
      </trkpt>
      <trkpt lat="46.223758365958929" lon="11.90692663192749">
        <ele>1868.46</ele>
        <time>2017-07-05T07:53:31Z</time>
      </trkpt>
      <trkpt lat="46.223728023469448" lon="11.906879022717476">
        <ele>1868.46</ele>
        <time>2017-07-05T07:53:40Z</time>
      </trkpt>
      <trkpt lat="46.223785188049078" lon="11.906900983303785">
        <ele>1867.98</ele>
        <time>2017-07-05T07:53:59Z</time>
      </trkpt>
      <trkpt lat="46.223822319880128" lon="11.906966529786587">
        <ele>1867.98</ele>
        <time>2017-07-05T07:54:08Z</time>
      </trkpt>
      <trkpt lat="46.223889961838722" lon="11.906939456239343">
        <ele>1869.4200000000001</ele>
        <time>2017-07-05T07:54:17Z</time>
      </trkpt>
      <trkpt lat="46.223903372883797" lon="11.906944653019309">
        <ele>1870.3800000000001</ele>
        <time>2017-07-05T07:54:26Z</time>
      </trkpt>
      <trkpt lat="46.223918879404664" lon="11.907008858397603">
        <ele>1871.8199999999999</ele>
        <time>2017-07-05T07:54:39Z</time>
      </trkpt>
      <trkpt lat="46.223911922425032" lon="11.907058898359537">
        <ele>1874.23</ele>
        <time>2017-07-05T07:54:50Z</time>
      </trkpt>
      <trkpt lat="46.223899684846401" lon="11.907140789553523">
        <ele>1876.1500000000001</ele>
        <time>2017-07-05T07:55:02Z</time>
      </trkpt>
      <trkpt lat="46.223915191367269" lon="11.907175239175558">
        <ele>1878.0699999999999</ele>
        <time>2017-07-05T07:55:15Z</time>
      </trkpt>
      <trkpt lat="46.223937654867768" lon="11.907184962183237">
        <ele>1879.51</ele>
        <time>2017-07-05T07:55:31Z</time>
      </trkpt>
      <trkpt lat="46.223948551341891" lon="11.907178927212954">
        <ele>1880.96</ele>
        <time>2017-07-05T07:55:41Z</time>
      </trkpt>
      <trkpt lat="46.223933044821024" lon="11.907223267480731">
        <ele>1881.4400000000001</ele>
        <time>2017-07-05T07:55:52Z</time>
      </trkpt>
      <trkpt lat="46.223911168053746" lon="11.907254448160529">
        <ele>1883.3599999999999</ele>
        <time>2017-07-05T07:56:02Z</time>
      </trkpt>
      <trkpt lat="46.223895912989974" lon="11.907296944409609">
        <ele>1884.8</ele>
        <time>2017-07-05T07:56:10Z</time>
      </trkpt>
      <trkpt lat="46.223906809464097" lon="11.907315216958523">
        <ele>1885.76</ele>
        <time>2017-07-05T07:56:22Z</time>
      </trkpt>
      <trkpt lat="46.22389473952353" lon="11.907356791198254">
        <ele>1887.21</ele>
        <time>2017-07-05T07:56:32Z</time>
      </trkpt>
      <trkpt lat="46.223856853321195" lon="11.907355282455683">
        <ele>1888.6500000000001</ele>
        <time>2017-07-05T07:56:44Z</time>
      </trkpt>
      <trkpt lat="46.22391133569181" lon="11.907438933849335">
        <ele>1890.0899999999999</ele>
        <time>2017-07-05T07:56:56Z</time>
      </trkpt>
      <trkpt lat="46.223881747573614" lon="11.907501211389899">
        <ele>1891.53</ele>
        <time>2017-07-05T07:57:05Z</time>
      </trkpt>
      <trkpt lat="46.223848471418023" lon="11.90755158662796">
        <ele>1892.01</ele>
        <time>2017-07-05T07:57:14Z</time>
      </trkpt>
      <trkpt lat="46.223807316273451" lon="11.90758335404098">
        <ele>1893.9300000000001</ele>
        <time>2017-07-05T07:57:26Z</time>
      </trkpt>
      <trkpt lat="46.223772279918194" lon="11.90764001570642">
        <ele>1895.3800000000001</ele>
        <time>2017-07-05T07:57:39Z</time>
      </trkpt>
      <trkpt lat="46.223800191655755" lon="11.907667675986886">
        <ele>1896.3399999999999</ele>
        <time>2017-07-05T07:57:51Z</time>
      </trkpt>
      <trkpt lat="46.223776303231716" lon="11.907724505290389">
        <ele>1898.26</ele>
        <time>2017-07-05T07:58:03Z</time>
      </trkpt>
      <trkpt lat="46.223760880529881" lon="11.907761050388217">
        <ele>1899.22</ele>
        <time>2017-07-05T07:58:13Z</time>
      </trkpt>
      <trkpt lat="46.223741015419364" lon="11.907803462818265">
        <ele>1900.1800000000001</ele>
        <time>2017-07-05T07:58:22Z</time>
      </trkpt>
      <trkpt lat="46.223686952143908" lon="11.907810671254992">
        <ele>1901.6300000000001</ele>
        <time>2017-07-05T07:58:30Z</time>
      </trkpt>
      <trkpt lat="46.223658118396997" lon="11.907806815579534">
        <ele>1903.0699999999999</ele>
        <time>2017-07-05T07:58:40Z</time>
      </trkpt>
      <trkpt lat="46.223676558583975" lon="11.907827854156494">
        <ele>1904.03</ele>
        <time>2017-07-05T07:58:49Z</time>
      </trkpt>
      <trkpt lat="46.223668763414025" lon="11.907865488901734">
        <ele>1905.47</ele>
        <time>2017-07-05T07:58:59Z</time>
      </trkpt>
      <trkpt lat="46.223651329055429" lon="11.907891556620598">
        <ele>1906.9100000000001</ele>
        <time>2017-07-05T07:59:11Z</time>
      </trkpt>
      <trkpt lat="46.223671529442072" lon="11.907875128090382">
        <ele>1907.3900000000001</ele>
        <time>2017-07-05T07:59:26Z</time>
      </trkpt>
      <trkpt lat="46.223653927445412" lon="11.907912930473685">
        <ele>1908.3499999999999</ele>
        <time>2017-07-05T07:59:35Z</time>
      </trkpt>
      <trkpt lat="46.223632134497166" lon="11.907926676794887">
        <ele>1910.28</ele>
        <time>2017-07-05T07:59:47Z</time>
      </trkpt>
      <trkpt lat="46.223591146990657" lon="11.907960455864668">
        <ele>1911.72</ele>
        <time>2017-07-05T07:59:59Z</time>
      </trkpt>
      <trkpt lat="46.223610257729888" lon="11.907987780869007">
        <ele>1913.6400000000001</ele>
        <time>2017-07-05T08:00:11Z</time>
      </trkpt>
      <trkpt lat="46.223596762865782" lon="11.908036647364497">
        <ele>1914.5999999999999</ele>
        <time>2017-07-05T08:00:21Z</time>
      </trkpt>
      <trkpt lat="46.223655939102173" lon="11.908068498596549">
        <ele>1916.04</ele>
        <time>2017-07-05T08:00:35Z</time>
      </trkpt>
      <trkpt lat="46.223676223307848" lon="11.908096075057983">
        <ele>1916.53</ele>
        <time>2017-07-05T08:00:40Z</time>
      </trkpt>
      <trkpt lat="46.223649987950921" lon="11.908097499981523">
        <ele>1917.01</ele>
        <time>2017-07-05T08:00:43Z</time>
      </trkpt>
      <trkpt lat="46.223646467551589" lon="11.908141169697046">
        <ele>1918.45</ele>
        <time>2017-07-05T08:00:52Z</time>
      </trkpt>
      <trkpt lat="46.223655603826046" lon="11.908157430589199">
        <ele>1919.8900000000001</ele>
        <time>2017-07-05T08:01:01Z</time>
      </trkpt>
      <trkpt lat="46.223609503358603" lon="11.908097667619586">
        <ele>1919.8900000000001</ele>
        <time>2017-07-05T08:01:15Z</time>
      </trkpt>
      <trkpt lat="46.223604893311858" lon="11.908155754208565">
        <ele>1921.3299999999999</ele>
        <time>2017-07-05T08:01:28Z</time>
      </trkpt>
      <trkpt lat="46.223647557199001" lon="11.908247284591198">
        <ele>1921.3299999999999</ele>
        <time>2017-07-05T08:01:46Z</time>
      </trkpt>
      <trkpt lat="46.223641103133559" lon="11.908266479149461">
        <ele>1923.25</ele>
        <time>2017-07-05T08:01:49Z</time>
      </trkpt>
      <trkpt lat="46.223664740100503" lon="11.908289277926087">
        <ele>1924.7</ele>
        <time>2017-07-05T08:01:58Z</time>
      </trkpt>
      <trkpt lat="46.223654430359602" lon="11.908342083916068">
        <ele>1926.1400000000001</ele>
        <time>2017-07-05T08:02:08Z</time>
      </trkpt>
      <trkpt lat="46.22365920804441" lon="11.9083905313164">
        <ele>1928.54</ele>
        <time>2017-07-05T08:02:19Z</time>
      </trkpt>
      <trkpt lat="46.223632218316197" lon="11.908364044502378">
        <ele>1929.98</ele>
        <time>2017-07-05T08:02:30Z</time>
      </trkpt>
      <trkpt lat="46.223624842241406" lon="11.90833973698318">
        <ele>1930.95</ele>
        <time>2017-07-05T08:02:42Z</time>
      </trkpt>
      <trkpt lat="46.223622830584645" lon="11.908355746418238">
        <ele>1932.3900000000001</ele>
        <time>2017-07-05T08:02:53Z</time>
      </trkpt>
      <trkpt lat="46.223603803664446" lon="11.908358428627253">
        <ele>1932.3900000000001</ele>
        <time>2017-07-05T08:03:04Z</time>
      </trkpt>
      <trkpt lat="46.223571952432394" lon="11.908407714217901">
        <ele>1933.3499999999999</ele>
        <time>2017-07-05T08:03:13Z</time>
      </trkpt>
      <trkpt lat="46.223628278821707" lon="11.908447192981839">
        <ele>1935.27</ele>
        <time>2017-07-05T08:03:24Z</time>
      </trkpt>
      <trkpt lat="46.223641522228718" lon="11.908492874354124">
        <ele>1937.1900000000001</ele>
        <time>2017-07-05T08:03:35Z</time>
      </trkpt>
      <trkpt lat="46.223622411489487" lon="11.908510643988848">
        <ele>1938.1600000000001</ele>
        <time>2017-07-05T08:03:48Z</time>
      </trkpt>
      <trkpt lat="46.223562313243747" lon="11.908496981486678">
        <ele>1938.6400000000001</ele>
        <time>2017-07-05T08:04:07Z</time>
      </trkpt>
      <trkpt lat="46.223569186404347" lon="11.908562695607543">
        <ele>1940.0799999999999</ele>
        <time>2017-07-05T08:04:18Z</time>
      </trkpt>
      <trkpt lat="46.223580837249756" lon="11.908612316474319">
        <ele>1942.48</ele>
        <time>2017-07-05T08:04:28Z</time>
      </trkpt>
      <trkpt lat="46.223596930503845" lon="11.908651543781161">
        <ele>1944.8800000000001</ele>
        <time>2017-07-05T08:04:40Z</time>
      </trkpt>
      <trkpt lat="46.223580334335566" lon="11.908688759431243">
        <ele>1946.3299999999999</ele>
        <time>2017-07-05T08:04:52Z</time>
      </trkpt>
      <trkpt lat="46.223551835864782" lon="11.908726561814547">
        <ele>1947.29</ele>
        <time>2017-07-05T08:05:01Z</time>
      </trkpt>
      <trkpt lat="46.223535994067788" lon="11.908771153539419">
        <ele>1948.25</ele>
        <time>2017-07-05T08:05:10Z</time>
      </trkpt>
      <trkpt lat="46.223577065393329" lon="11.908778278157115">
        <ele>1950.1700000000001</ele>
        <time>2017-07-05T08:05:22Z</time>
      </trkpt>
      <trkpt lat="46.223554434254766" lon="11.90883619710803">
        <ele>1951.6099999999999</ele>
        <time>2017-07-05T08:05:33Z</time>
      </trkpt>
      <trkpt lat="46.223541693761945" lon="11.908854721114039">
        <ele>1953.0599999999999</ele>
        <time>2017-07-05T08:05:43Z</time>
      </trkpt>
      <trkpt lat="46.223549908027053" lon="11.908851955085993">
        <ele>1954.02</ele>
        <time>2017-07-05T08:05:53Z</time>
      </trkpt>
      <trkpt lat="46.223565246909857" lon="11.9089050963521">
        <ele>1955.9400000000001</ele>
        <time>2017-07-05T08:06:05Z</time>
      </trkpt>
      <trkpt lat="46.223573880270123" lon="11.908930325880647">
        <ele>1957.3800000000001</ele>
        <time>2017-07-05T08:06:16Z</time>
      </trkpt>
      <trkpt lat="46.223564827814698" lon="11.908974163234234">
        <ele>1959.3</ele>
        <time>2017-07-05T08:06:26Z</time>
      </trkpt>
      <trkpt lat="46.223506238311529" lon="11.909017665311694">
        <ele>1961.23</ele>
        <time>2017-07-05T08:06:37Z</time>
      </trkpt>
      <trkpt lat="46.223478829488158" lon="11.909051528200507">
        <ele>1962.6700000000001</ele>
        <time>2017-07-05T08:06:48Z</time>
      </trkpt>
      <trkpt lat="46.223494419828057" lon="11.909051444381475">
        <ele>1963.6300000000001</ele>
        <time>2017-07-05T08:06:56Z</time>
      </trkpt>
      <trkpt lat="46.223495844751596" lon="11.909096371382475">
        <ele>1963.6300000000001</ele>
        <time>2017-07-05T08:07:05Z</time>
      </trkpt>
      <trkpt lat="46.22349064797163" lon="11.909040044993162">
        <ele>1963.6300000000001</ele>
        <time>2017-07-05T08:07:20Z</time>
      </trkpt>
      <trkpt lat="46.223504561930895" lon="11.909083882346749">
        <ele>1965.0699999999999</ele>
        <time>2017-07-05T08:07:32Z</time>
      </trkpt>
      <trkpt lat="46.223509423434734" lon="11.909115398302674">
        <ele>1966.51</ele>
        <time>2017-07-05T08:07:44Z</time>
      </trkpt>
      <trkpt lat="46.223538257181644" lon="11.909190248697996">
        <ele>1968.4400000000001</ele>
        <time>2017-07-05T08:07:54Z</time>
      </trkpt>
      <trkpt lat="46.223568180575967" lon="11.909245485439897">
        <ele>1969.8800000000001</ele>
        <time>2017-07-05T08:08:04Z</time>
      </trkpt>
      <trkpt lat="46.22356147505343" lon="11.909236768260598">
        <ele>1971.8</ele>
        <time>2017-07-05T08:08:16Z</time>
      </trkpt>
      <trkpt lat="46.223535994067788" lon="11.909324107691646">
        <ele>1973.24</ele>
        <time>2017-07-05T08:08:27Z</time>
      </trkpt>
      <trkpt lat="46.223514536395669" lon="11.909356294199824">
        <ele>1975.6500000000001</ele>
        <time>2017-07-05T08:08:40Z</time>
      </trkpt>
      <trkpt lat="46.223513782024384" lon="11.909337854012847">
        <ele>1976.1300000000001</ele>
        <time>2017-07-05T08:08:53Z</time>
      </trkpt>
      <trkpt lat="46.223538843914866" lon="11.909378841519356">
        <ele>1978.05</ele>
        <time>2017-07-05T08:09:05Z</time>
      </trkpt>
      <trkpt lat="46.223546555265784" lon="11.90942988730967">
        <ele>1979.49</ele>
        <time>2017-07-05T08:09:14Z</time>
      </trkpt>
      <trkpt lat="46.223578657954931" lon="11.90945821814239">
        <ele>1981.4100000000001</ele>
        <time>2017-07-05T08:09:25Z</time>
      </trkpt>
      <trkpt lat="46.223587291315198" lon="11.909458134323359">
        <ele>1981.9000000000001</ele>
        <time>2017-07-05T08:09:34Z</time>
      </trkpt>
      <trkpt lat="46.223614029586315" lon="11.909499960020185">
        <ele>1982.8599999999999</ele>
        <time>2017-07-05T08:09:43Z</time>
      </trkpt>
      <trkpt lat="46.223639594390988" lon="11.909501720219851">
        <ele>1984.78</ele>
        <time>2017-07-05T08:09:53Z</time>
      </trkpt>
      <trkpt lat="46.223640013486147" lon="11.909546982496977">
        <ele>1985.74</ele>
        <time>2017-07-05T08:10:02Z</time>
      </trkpt>
      <trkpt lat="46.22366457246244" lon="11.909600794315338">
        <ele>1987.6600000000001</ele>
        <time>2017-07-05T08:10:12Z</time>
      </trkpt>
      <trkpt lat="46.223644372075796" lon="11.909639770165086">
        <ele>1989.0999999999999</ele>
        <time>2017-07-05T08:10:22Z</time>
      </trkpt>
      <trkpt lat="46.223689885810018" lon="11.909644128754735">
        <ele>1991.03</ele>
        <time>2017-07-05T08:10:33Z</time>
      </trkpt>
      <trkpt lat="46.22366800904274" lon="11.909714788198471">
        <ele>1992.47</ele>
        <time>2017-07-05T08:10:43Z</time>
      </trkpt>
      <trkpt lat="46.223695250228047" lon="11.909743035212159">
        <ele>1993.9100000000001</ele>
        <time>2017-07-05T08:10:51Z</time>
      </trkpt>
      <trkpt lat="46.223697178065777" lon="11.909750159829855">
        <ele>1993.9100000000001</ele>
        <time>2017-07-05T08:11:08Z</time>
      </trkpt>
      <trkpt lat="46.223651580512524" lon="11.909739347174764">
        <ele>1994.8699999999999</ele>
        <time>2017-07-05T08:11:23Z</time>
      </trkpt>
      <trkpt lat="46.223631296306849" lon="11.909824339672923">
        <ele>1996.3199999999999</ele>
        <time>2017-07-05T08:11:35Z</time>
      </trkpt>
      <trkpt lat="46.22361327521503" lon="11.909874547272921">
        <ele>1998.24</ele>
        <time>2017-07-05T08:11:49Z</time>
      </trkpt>
      <trkpt lat="46.223599193617702" lon="11.909912601113319">
        <ele>2000.1600000000001</ele>
        <time>2017-07-05T08:12:00Z</time>
      </trkpt>
      <trkpt lat="46.223623501136899" lon="11.909921653568745">
        <ele>2002.0799999999999</ele>
        <time>2017-07-05T08:12:09Z</time>
      </trkpt>
      <trkpt lat="46.223650155588984" lon="11.909934729337692">
        <ele>2004.01</ele>
        <time>2017-07-05T08:12:22Z</time>
      </trkpt>
      <trkpt lat="46.223658872768283" lon="11.909978985786438">
        <ele>2005.45</ele>
        <time>2017-07-05T08:12:32Z</time>
      </trkpt>
      <trkpt lat="46.223631212487817" lon="11.910014441236854">
        <ele>2006.8900000000001</ele>
        <time>2017-07-05T08:12:42Z</time>
      </trkpt>
      <trkpt lat="46.223637582734227" lon="11.910021398216486">
        <ele>2008.3299999999999</ele>
        <time>2017-07-05T08:12:52Z</time>
      </trkpt>
      <trkpt lat="46.223637918010354" lon="11.910062469542027">
        <ele>2008.3299999999999</ele>
        <time>2017-07-05T08:13:06Z</time>
      </trkpt>
      <trkpt lat="46.223652921617031" lon="11.910085519775748">
        <ele>2010.25</ele>
        <time>2017-07-05T08:13:18Z</time>
      </trkpt>
      <trkpt lat="46.223628362640738" lon="11.910116616636515">
        <ele>2012.6600000000001</ele>
        <time>2017-07-05T08:13:24Z</time>
      </trkpt>
      <trkpt lat="46.223657699301839" lon="11.910152658820152">
        <ele>2013.6199999999999</ele>
        <time>2017-07-05T08:13:37Z</time>
      </trkpt>
      <trkpt lat="46.223666751757264" lon="11.910176631063223">
        <ele>2015.54</ele>
        <time>2017-07-05T08:13:48Z</time>
      </trkpt>
      <trkpt lat="46.223642192780972" lon="11.910198256373405">
        <ele>2016.5</ele>
        <time>2017-07-05T08:13:58Z</time>
      </trkpt>
      <trkpt lat="46.22367387637496" lon="11.910207979381084">
        <ele>2017.46</ele>
        <time>2017-07-05T08:14:07Z</time>
      </trkpt>
      <trkpt lat="46.223703883588314" lon="11.910222060978413">
        <ele>2018.9100000000001</ele>
        <time>2017-07-05T08:14:17Z</time>
      </trkpt>
      <trkpt lat="46.223681839182973" lon="11.910224910825491">
        <ele>2018.9100000000001</ele>
        <time>2017-07-05T08:14:32Z</time>
      </trkpt>
      <trkpt lat="46.223657615482807" lon="11.910288194194436">
        <ele>2020.8299999999999</ele>
        <time>2017-07-05T08:14:42Z</time>
      </trkpt>
      <trkpt lat="46.223672786727548" lon="11.910350220277905">
        <ele>2022.75</ele>
        <time>2017-07-05T08:14:51Z</time>
      </trkpt>
      <trkpt lat="46.223724083974957" lon="11.910338317975402">
        <ele>2024.6700000000001</ele>
        <time>2017-07-05T08:15:01Z</time>
      </trkpt>
      <trkpt lat="46.223768927156925" lon="11.910370253026485">
        <ele>2026.1199999999999</ele>
        <time>2017-07-05T08:15:13Z</time>
      </trkpt>
      <trkpt lat="46.223782505840063" lon="11.910429848358035">
        <ele>2028.04</ele>
        <time>2017-07-05T08:15:24Z</time>
      </trkpt>
      <trkpt lat="46.223768843337893" lon="11.910480055958033">
        <ele>2029</ele>
        <time>2017-07-05T08:15:33Z</time>
      </trkpt>
      <trkpt lat="46.223746379837394" lon="11.910541411489248">
        <ele>2030.4400000000001</ele>
        <time>2017-07-05T08:15:43Z</time>
      </trkpt>
      <trkpt lat="46.22374814003706" lon="11.910518277436495">
        <ele>2030.9200000000001</ele>
        <time>2017-07-05T08:15:56Z</time>
      </trkpt>
      <trkpt lat="46.223790636286139" lon="11.910528838634491">
        <ele>2033.3299999999999</ele>
        <time>2017-07-05T08:16:07Z</time>
      </trkpt>
      <trkpt lat="46.223764652386308" lon="11.910601677373052">
        <ele>2035.25</ele>
        <time>2017-07-05T08:16:19Z</time>
      </trkpt>
      <trkpt lat="46.22376037761569" lon="11.910639815032482">
        <ele>2036.21</ele>
        <time>2017-07-05T08:16:29Z</time>
      </trkpt>
      <trkpt lat="46.223750906065106" lon="11.910686250776052">
        <ele>2037.6500000000001</ele>
        <time>2017-07-05T08:16:39Z</time>
      </trkpt>
      <trkpt lat="46.223772028461099" lon="11.910688765347004">
        <ele>2039.5699999999999</ele>
        <time>2017-07-05T08:16:47Z</time>
      </trkpt>
      <trkpt lat="46.223816033452749" lon="11.910651633515954">
        <ele>2040.54</ele>
        <time>2017-07-05T08:16:57Z</time>
      </trkpt>
      <trkpt lat="46.223788624629378" lon="11.910705864429474">
        <ele>2041.02</ele>
        <time>2017-07-05T08:17:14Z</time>
      </trkpt>
      <trkpt lat="46.223804298788309" lon="11.910720784217119">
        <ele>2042.9400000000001</ele>
        <time>2017-07-05T08:17:26Z</time>
      </trkpt>
      <trkpt lat="46.223811926320195" lon="11.910764118656516">
        <ele>2043.9000000000001</ele>
        <time>2017-07-05T08:17:35Z</time>
      </trkpt>
      <trkpt lat="46.22380580753088" lon="11.910831173881888">
        <ele>2045.8199999999999</ele>
        <time>2017-07-05T08:17:46Z</time>
      </trkpt>
      <trkpt lat="46.223821900784969" lon="11.910853134468198">
        <ele>2047.26</ele>
        <time>2017-07-05T08:17:57Z</time>
      </trkpt>
      <trkpt lat="46.223835395649076" lon="11.910920105874538">
        <ele>2048.71</ele>
        <time>2017-07-05T08:18:09Z</time>
      </trkpt>
      <trkpt lat="46.223818464204669" lon="11.910983305424452">
        <ele>2050.1500000000001</ele>
        <time>2017-07-05T08:18:19Z</time>
      </trkpt>
      <trkpt lat="46.223817123100162" lon="11.911018174141645">
        <ele>2051.1100000000001</ele>
        <time>2017-07-05T08:18:33Z</time>
      </trkpt>
      <trkpt lat="46.223815949633718" lon="11.911083050072193">
        <ele>2053.0300000000002</ele>
        <time>2017-07-05T08:18:42Z</time>
      </trkpt>
      <trkpt lat="46.223779320716858" lon="11.911116158589721">
        <ele>2054.4699999999998</ele>
        <time>2017-07-05T08:18:55Z</time>
      </trkpt>
      <trkpt lat="46.223761299625039" lon="11.911156559363008">
        <ele>2055.9200000000001</ele>
        <time>2017-07-05T08:19:04Z</time>
      </trkpt>
      <trkpt lat="46.223796084523201" lon="11.911155553534627">
        <ele>2057.3600000000001</ele>
        <time>2017-07-05T08:19:13Z</time>
      </trkpt>
      <trkpt lat="46.223848974332213" lon="11.911174161359668">
        <ele>2057.3600000000001</ele>
        <time>2017-07-05T08:19:34Z</time>
      </trkpt>
      <trkpt lat="46.223834808915854" lon="11.911156307905912">
        <ele>2057.8400000000001</ele>
        <time>2017-07-05T08:19:48Z</time>
      </trkpt>
      <trkpt lat="46.223792061209679" lon="11.911217998713255">
        <ele>2058.3200000000002</ele>
        <time>2017-07-05T08:20:05Z</time>
      </trkpt>
      <trkpt lat="46.223772699013352" lon="11.911255801096559">
        <ele>2059.7600000000002</ele>
        <time>2017-07-05T08:20:14Z</time>
      </trkpt>
      <trkpt lat="46.223764233291149" lon="11.91130181774497">
        <ele>2061.6799999999998</ele>
        <time>2017-07-05T08:20:23Z</time>
      </trkpt>
      <trkpt lat="46.223741434514523" lon="11.911362083628774">
        <ele>2064.0900000000001</ele>
        <time>2017-07-05T08:20:34Z</time>
      </trkpt>
      <trkpt lat="46.223743027076125" lon="11.911400053650141">
        <ele>2065.0500000000002</ele>
        <time>2017-07-05T08:20:41Z</time>
      </trkpt>
      <trkpt lat="46.223742021247745" lon="11.911416733637452">
        <ele>2065.5300000000002</ele>
        <time>2017-07-05T08:20:50Z</time>
      </trkpt>
      <trkpt lat="46.223727939650416" lon="11.911430228501558">
        <ele>2066.0100000000002</ele>
        <time>2017-07-05T08:21:04Z</time>
      </trkpt>
      <trkpt lat="46.223716456443071" lon="11.911401897668839">
        <ele>2067.4499999999998</ele>
        <time>2017-07-05T08:21:14Z</time>
      </trkpt>
      <trkpt lat="46.223686700686812" lon="11.911456128582358">
        <ele>2069.3800000000001</ele>
        <time>2017-07-05T08:21:25Z</time>
      </trkpt>
      <trkpt lat="46.223672451451421" lon="11.911491584032774">
        <ele>2070.3400000000001</ele>
        <time>2017-07-05T08:21:34Z</time>
      </trkpt>
      <trkpt lat="46.223654262721539" lon="11.911556208506227">
        <ele>2072.7399999999998</ele>
        <time>2017-07-05T08:21:47Z</time>
      </trkpt>
      <trkpt lat="46.223618974909186" lon="11.911584287881851">
        <ele>2073.6999999999998</ele>
        <time>2017-07-05T08:21:58Z</time>
      </trkpt>
      <trkpt lat="46.223566085100174" lon="11.911612031981349">
        <ele>2076.0999999999999</ele>
        <time>2017-07-05T08:22:11Z</time>
      </trkpt>
      <trkpt lat="46.223543873056769" lon="11.911623012274504">
        <ele>2077.5500000000002</ele>
        <time>2017-07-05T08:22:23Z</time>
      </trkpt>
      <trkpt lat="46.223510513082147" lon="11.911635836586356">
        <ele>2079.4699999999998</ele>
        <time>2017-07-05T08:22:33Z</time>
      </trkpt>
      <trkpt lat="46.223494419828057" lon="11.911607757210732">
        <ele>2080.4299999999998</ele>
        <time>2017-07-05T08:22:46Z</time>
      </trkpt>
      <trkpt lat="46.223484361544251" lon="11.91161748021841">
        <ele>2080.4299999999998</ele>
        <time>2017-07-05T08:22:56Z</time>
      </trkpt>
      <trkpt lat="46.223468100652099" lon="11.911553526297212">
        <ele>2080.9099999999999</ele>
        <time>2017-07-05T08:23:12Z</time>
      </trkpt>
      <trkpt lat="46.223431220278144" lon="11.911586802452803">
        <ele>2082.3499999999999</ele>
        <time>2017-07-05T08:23:20Z</time>
      </trkpt>
      <trkpt lat="46.22345351614058" lon="11.911664670333266">
        <ele>2083.79</ele>
        <time>2017-07-05T08:23:31Z</time>
      </trkpt>
      <trkpt lat="46.223453348502517" lon="11.91165704280138">
        <ele>2084.7600000000002</ele>
        <time>2017-07-05T08:23:42Z</time>
      </trkpt>
      <trkpt lat="46.223424430936575" lon="11.91169467754662">
        <ele>2084.2800000000002</ele>
        <time>2017-07-05T08:23:53Z</time>
      </trkpt>
      <trkpt lat="46.223374726250768" lon="11.911730132997036">
        <ele>2085.7199999999998</ele>
        <time>2017-07-05T08:24:03Z</time>
      </trkpt>
      <trkpt lat="46.223298031836748" lon="11.911769276484847">
        <ele>2087.1599999999999</ele>
        <time>2017-07-05T08:24:16Z</time>
      </trkpt>
      <trkpt lat="46.223262492567301" lon="11.911776904016733">
        <ele>2088.1199999999999</ele>
        <time>2017-07-05T08:24:22Z</time>
      </trkpt>
      <trkpt lat="46.223233742639422" lon="11.91178847104311">
        <ele>2088.1199999999999</ele>
        <time>2017-07-05T08:24:35Z</time>
      </trkpt>
      <trkpt lat="46.223277244716883" lon="11.911738933995366">
        <ele>2087.6399999999999</ele>
        <time>2017-07-05T08:24:44Z</time>
      </trkpt>
      <trkpt lat="46.223304904997349" lon="11.911728288978338">
        <ele>2088.1199999999999</ele>
        <time>2017-07-05T08:24:47Z</time>
      </trkpt>
      <trkpt lat="46.223426526412368" lon="11.911642709746957">
        <ele>2085.2399999999998</ele>
        <time>2017-07-05T08:24:59Z</time>
      </trkpt>
      <trkpt lat="46.223437506705523" lon="11.911647906526923">
        <ele>2084.7600000000002</ele>
        <time>2017-07-05T08:25:09Z</time>
      </trkpt>
      <trkpt lat="46.223407331854105" lon="11.911679673939943">
        <ele>2085.2399999999998</ele>
        <time>2017-07-05T08:25:16Z</time>
      </trkpt>
      <trkpt lat="46.223342707380652" lon="11.911736251786351">
        <ele>2086.6799999999998</ele>
        <time>2017-07-05T08:25:27Z</time>
      </trkpt>
      <trkpt lat="46.223344886675477" lon="11.911755949258804">
        <ele>2088.5999999999999</ele>
        <time>2017-07-05T08:25:38Z</time>
      </trkpt>
      <trkpt lat="46.22335871681571" lon="11.91170884296298">
        <ele>2087.1599999999999</ele>
        <time>2017-07-05T08:25:47Z</time>
      </trkpt>
      <trkpt lat="46.223355615511537" lon="11.911659138277173">
        <ele>2080.9099999999999</ele>
        <time>2017-07-05T08:25:56Z</time>
      </trkpt>
      <trkpt lat="46.22335528023541" lon="11.911655282601714">
        <ele>2091.9699999999998</ele>
        <time>2017-07-05T08:25:57Z</time>
      </trkpt>
      <trkpt lat="46.223353939130902" lon="11.911645978689194">
        <ele>2089.0799999999999</ele>
        <time>2017-07-05T08:25:58Z</time>
      </trkpt>
      <trkpt lat="46.223340947180986" lon="11.911524776369333">
        <ele>2087.6399999999999</ele>
        <time>2017-07-05T08:26:10Z</time>
      </trkpt>
      <trkpt lat="46.223298786208034" lon="11.911498205736279">
        <ele>2087.6399999999999</ele>
        <time>2017-07-05T08:26:28Z</time>
      </trkpt>
      <trkpt lat="46.223313789814711" lon="11.91149334423244">
        <ele>2087.6399999999999</ele>
        <time>2017-07-05T08:26:46Z</time>
      </trkpt>
      <trkpt lat="46.22332351282239" lon="11.91142100840807">
        <ele>2088.1199999999999</ele>
        <time>2017-07-05T08:27:03Z</time>
      </trkpt>
      <trkpt lat="46.223313538357615" lon="11.911409692838788">
        <ele>2088.1199999999999</ele>
        <time>2017-07-05T08:27:23Z</time>
      </trkpt>
      <trkpt lat="46.22339635156095" lon="11.911381864920259">
        <ele>2088.5999999999999</ele>
        <time>2017-07-05T08:27:45Z</time>
      </trkpt>
      <trkpt lat="46.223443290218711" lon="11.9113814458251">
        <ele>2088.5999999999999</ele>
        <time>2017-07-05T08:28:06Z</time>
      </trkpt>
      <trkpt lat="46.223371205851436" lon="11.911463420838118">
        <ele>2089.0799999999999</ele>
        <time>2017-07-05T08:28:23Z</time>
      </trkpt>
      <trkpt lat="46.223347736522555" lon="11.911434838548303">
        <ele>2089.0799999999999</ele>
        <time>2017-07-05T08:28:39Z</time>
      </trkpt>
      <trkpt lat="46.223365841433406" lon="11.911415560171008">
        <ele>2089.5599999999999</ele>
        <time>2017-07-05T08:28:51Z</time>
      </trkpt>
      <trkpt lat="46.223375061526895" lon="11.911406926810741">
        <ele>2089.5599999999999</ele>
        <time>2017-07-05T08:29:01Z</time>
      </trkpt>
      <trkpt lat="46.223398530855775" lon="11.911373818293214">
        <ele>2089.5599999999999</ele>
        <time>2017-07-05T08:29:14Z</time>
      </trkpt>
      <trkpt lat="46.223444547504187" lon="11.911309026181698">
        <ele>2090.04</ele>
        <time>2017-07-05T08:29:33Z</time>
      </trkpt>
      <trkpt lat="46.223470866680145" lon="11.911260662600398">
        <ele>2090.52</ele>
        <time>2017-07-05T08:29:56Z</time>
      </trkpt>
      <trkpt lat="46.223516212776303" lon="11.911302739754319">
        <ele>2090.52</ele>
        <time>2017-07-05T08:30:17Z</time>
      </trkpt>
      <trkpt lat="46.223494336009026" lon="11.911264769732952">
        <ele>2091</ele>
        <time>2017-07-05T08:30:32Z</time>
      </trkpt>
      <trkpt lat="46.223516967147589" lon="11.911237360909581">
        <ele>2091.4899999999998</ele>
        <time>2017-07-05T08:30:49Z</time>
      </trkpt>
      <trkpt lat="46.223578322678804" lon="11.911251274868846">
        <ele>2091.4899999999998</ele>
        <time>2017-07-05T08:31:06Z</time>
      </trkpt>
      <trkpt lat="46.223585698753595" lon="11.911256555467844">
        <ele>2092.4499999999998</ele>
        <time>2017-07-05T08:31:24Z</time>
      </trkpt>
      <trkpt lat="46.223493665456772" lon="11.911324867978692">
        <ele>2092.9299999999998</ele>
        <time>2017-07-05T08:31:46Z</time>
      </trkpt>
      <trkpt lat="46.223496347665787" lon="11.911344733089209">
        <ele>2092.9299999999998</ele>
        <time>2017-07-05T08:32:03Z</time>
      </trkpt>
      <trkpt lat="46.223518559709191" lon="11.911357305943966">
        <ele>2093.4099999999999</ele>
        <time>2017-07-05T08:32:26Z</time>
      </trkpt>
      <trkpt lat="46.223513530567288" lon="11.911447076126933">
        <ele>2094.3699999999999</ele>
        <time>2017-07-05T08:32:50Z</time>
      </trkpt>
      <trkpt lat="46.22348821721971" lon="11.911508431658149">
        <ele>2094.3699999999999</ele>
        <time>2017-07-05T08:33:09Z</time>
      </trkpt>
      <trkpt lat="46.223499281331897" lon="11.911500217393041">
        <ele>2094.8499999999999</ele>
        <time>2017-07-05T08:33:25Z</time>
      </trkpt>
      <trkpt lat="46.223474219441414" lon="11.911483956500888">
        <ele>2094.8499999999999</ele>
        <time>2017-07-05T08:33:43Z</time>
      </trkpt>
      <trkpt lat="46.223426358774304" lon="11.911476664245129">
        <ele>2095.3299999999999</ele>
        <time>2017-07-05T08:33:56Z</time>
      </trkpt>
      <trkpt lat="46.223415965214372" lon="11.911390498280525">
        <ele>2095.3299999999999</ele>
        <time>2017-07-05T08:34:16Z</time>
      </trkpt>
      <trkpt lat="46.22343398630619" lon="11.911392761394382">
        <ele>2095.8099999999999</ele>
        <time>2017-07-05T08:34:31Z</time>
      </trkpt>
      <trkpt lat="46.223449744284153" lon="11.911381697282195">
        <ele>2095.8099999999999</ele>
        <time>2017-07-05T08:34:46Z</time>
      </trkpt>
      <trkpt lat="46.223509423434734" lon="11.911397371441126">
        <ele>2096.29</ele>
        <time>2017-07-05T08:35:06Z</time>
      </trkpt>
      <trkpt lat="46.223459551110864" lon="11.9113814458251">
        <ele>2096.77</ele>
        <time>2017-07-05T08:35:23Z</time>
      </trkpt>
      <trkpt lat="46.223467933014035" lon="11.911366274580359">
        <ele>2096.77</ele>
        <time>2017-07-05T08:35:45Z</time>
      </trkpt>
      <trkpt lat="46.223483355715871" lon="11.911345319822431">
        <ele>2097.25</ele>
        <time>2017-07-05T08:36:02Z</time>
      </trkpt>
      <trkpt lat="46.22346768155694" lon="11.911288993433118">
        <ele>2097.73</ele>
        <time>2017-07-05T08:36:23Z</time>
      </trkpt>
      <trkpt lat="46.223424850031734" lon="11.911389157176018">
        <ele>2097.73</ele>
        <time>2017-07-05T08:36:40Z</time>
      </trkpt>
      <trkpt lat="46.223431555554271" lon="11.911402735859156">
        <ele>2098.21</ele>
        <time>2017-07-05T08:36:56Z</time>
      </trkpt>
      <trkpt lat="46.223440691828728" lon="11.911397958174348">
        <ele>2098.21</ele>
        <time>2017-07-05T08:37:12Z</time>
      </trkpt>
      <trkpt lat="46.223417641595006" lon="11.91146207973361">
        <ele>2098.6999999999998</ele>
        <time>2017-07-05T08:37:29Z</time>
      </trkpt>
      <trkpt lat="46.223431220278144" lon="11.91141614690423">
        <ele>2099.1799999999998</ele>
        <time>2017-07-05T08:37:47Z</time>
      </trkpt>
      <trkpt lat="46.223445888608694" lon="11.911381278187037">
        <ele>2099.1799999999998</ele>
        <time>2017-07-05T08:38:05Z</time>
      </trkpt>
      <trkpt lat="46.223452845588326" lon="11.911370549350977">
        <ele>2099.1799999999998</ele>
        <time>2017-07-05T08:38:21Z</time>
      </trkpt>
      <trkpt lat="46.223456952720881" lon="11.911431150510907">
        <ele>2099.6599999999999</ele>
        <time>2017-07-05T08:38:38Z</time>
      </trkpt>
      <trkpt lat="46.223467849195004" lon="11.911401059478521">
        <ele>2099.6599999999999</ele>
        <time>2017-07-05T08:38:49Z</time>
      </trkpt>
      <trkpt lat="46.22347254306078" lon="11.911334004253149">
        <ele>2099.6599999999999</ele>
        <time>2017-07-05T08:39:10Z</time>
      </trkpt>
      <trkpt lat="46.223466340452433" lon="11.911309529095888">
        <ele>2099.6599999999999</ele>
        <time>2017-07-05T08:39:20Z</time>
      </trkpt>
      <trkpt lat="46.223478410393" lon="11.911281952634454">
        <ele>2099.6599999999999</ele>
        <time>2017-07-05T08:39:37Z</time>
      </trkpt>
      <trkpt lat="46.223493413999677" lon="11.911290418356657">
        <ele>2100.1399999999999</ele>
        <time>2017-07-05T08:39:52Z</time>
      </trkpt>
      <trkpt lat="46.223500622436404" lon="11.911279940977693">
        <ele>2100.1399999999999</ele>
        <time>2017-07-05T08:40:13Z</time>
      </trkpt>
      <trkpt lat="46.223547141999006" lon="11.91128077916801">
        <ele>2100.6199999999999</ele>
        <time>2017-07-05T08:40:25Z</time>
      </trkpt>
      <trkpt lat="46.223536832258105" lon="11.911253705620766">
        <ele>2101.0999999999999</ele>
        <time>2017-07-05T08:40:47Z</time>
      </trkpt>
      <trkpt lat="46.223530042916536" lon="11.911253537982702">
        <ele>2101.0999999999999</ele>
        <time>2017-07-05T08:40:58Z</time>
      </trkpt>
      <trkpt lat="46.223489139229059" lon="11.911373734474182">
        <ele>2101.5799999999999</ele>
        <time>2017-07-05T08:41:15Z</time>
      </trkpt>
      <trkpt lat="46.223497269675136" lon="11.911353701725602">
        <ele>2101.5799999999999</ele>
        <time>2017-07-05T08:41:36Z</time>
      </trkpt>
      <trkpt lat="46.223501209169626" lon="11.911341464146972">
        <ele>2102.0599999999999</ele>
        <time>2017-07-05T08:41:58Z</time>
      </trkpt>
      <trkpt lat="46.223497185856104" lon="11.911331154406071">
        <ele>2102.54</ele>
        <time>2017-07-05T08:42:14Z</time>
      </trkpt>
      <trkpt lat="46.223517805337906" lon="11.911323862150311">
        <ele>2102.54</ele>
        <time>2017-07-05T08:42:31Z</time>
      </trkpt>
      <trkpt lat="46.223490480333567" lon="11.911309696733952">
        <ele>2102.54</ele>
        <time>2017-07-05T08:42:48Z</time>
      </trkpt>
      <trkpt lat="46.223508585244417" lon="11.911311121657491">
        <ele>2103.02</ele>
        <time>2017-07-05T08:43:10Z</time>
      </trkpt>
      <trkpt lat="46.22349064797163" lon="11.911336937919259">
        <ele>2103.5</ele>
        <time>2017-07-05T08:43:20Z</time>
      </trkpt>
      <trkpt lat="46.22346960939467" lon="11.911388235166669">
        <ele>2103.98</ele>
        <time>2017-07-05T08:43:35Z</time>
      </trkpt>
      <trkpt lat="46.223457120358944" lon="11.911398209631443">
        <ele>2104.46</ele>
        <time>2017-07-05T08:43:53Z</time>
      </trkpt>
      <trkpt lat="46.223425352945924" lon="11.911404328420758">
        <ele>2104.46</ele>
        <time>2017-07-05T08:44:08Z</time>
      </trkpt>
      <trkpt lat="46.223450498655438" lon="11.91139217466116">
        <ele>2103.98</ele>
        <time>2017-07-05T08:44:20Z</time>
      </trkpt>
      <trkpt lat="46.223503137007356" lon="11.911371303722262">
        <ele>2103.98</ele>
        <time>2017-07-05T08:44:33Z</time>
      </trkpt>
      <trkpt lat="46.223524427041411" lon="11.911346912384033">
        <ele>2103.98</ele>
        <time>2017-07-05T08:44:50Z</time>
      </trkpt>
      <trkpt lat="46.223570359870791" lon="11.911325789988041">
        <ele>2104.46</ele>
        <time>2017-07-05T08:45:08Z</time>
      </trkpt>
      <trkpt lat="46.223590979352593" lon="11.911313720047474">
        <ele>2104.46</ele>
        <time>2017-07-05T08:45:25Z</time>
      </trkpt>
      <trkpt lat="46.223608162254095" lon="11.911309696733952">
        <ele>2104.9400000000001</ele>
        <time>2017-07-05T08:45:42Z</time>
      </trkpt>
      <trkpt lat="46.223630793392658" lon="11.911282455548644">
        <ele>2104.9400000000001</ele>
        <time>2017-07-05T08:46:04Z</time>
      </trkpt>
      <trkpt lat="46.223622495308518" lon="11.911281030625105">
        <ele>2105.4200000000001</ele>
        <time>2017-07-05T08:46:29Z</time>
      </trkpt>
      <trkpt lat="46.223662979900837" lon="11.911249849945307">
        <ele>2105.4200000000001</ele>
        <time>2017-07-05T08:46:54Z</time>
      </trkpt>
      <trkpt lat="46.223671864718199" lon="11.911256555467844">
        <ele>2105.9099999999999</ele>
        <time>2017-07-05T08:47:17Z</time>
      </trkpt>
      <trkpt lat="46.223623333498836" lon="11.911232164129615">
        <ele>2106.3899999999999</ele>
        <time>2017-07-05T08:47:34Z</time>
      </trkpt>
      <trkpt lat="46.223632637411356" lon="11.911205425858498">
        <ele>2106.3899999999999</ele>
        <time>2017-07-05T08:47:54Z</time>
      </trkpt>
      <trkpt lat="46.223605060949922" lon="11.911225374788046">
        <ele>2106.3899999999999</ele>
        <time>2017-07-05T08:48:11Z</time>
      </trkpt>
      <trkpt lat="46.223644204437733" lon="11.911244317889214">
        <ele>2106.8699999999999</ele>
        <time>2017-07-05T08:48:31Z</time>
      </trkpt>
      <trkpt lat="46.223659459501505" lon="11.911242809146643">
        <ele>2106.8699999999999</ele>
        <time>2017-07-05T08:48:49Z</time>
      </trkpt>
      <trkpt lat="46.223629200831056" lon="11.911330483853817">
        <ele>2107.3499999999999</ele>
        <time>2017-07-05T08:48:57Z</time>
      </trkpt>
      <trkpt lat="46.223588045686483" lon="11.9113555457443">
        <ele>2108.3099999999999</ele>
        <time>2017-07-05T08:49:11Z</time>
      </trkpt>
      <trkpt lat="46.223416049033403" lon="11.911450680345297">
        <ele>2107.8299999999999</ele>
        <time>2017-07-05T08:49:27Z</time>
      </trkpt>
      <trkpt lat="46.223207926377654" lon="11.911723678931594">
        <ele>2107.8299999999999</ele>
        <time>2017-07-05T08:49:38Z</time>
      </trkpt>
      <trkpt lat="46.223284704610705" lon="11.911835996434093">
        <ele>2107.8299999999999</ele>
        <time>2017-07-05T08:49:56Z</time>
      </trkpt>
      <trkpt lat="46.22329618781805" lon="11.911839265376329">
        <ele>2107.8299999999999</ele>
        <time>2017-07-05T08:49:58Z</time>
      </trkpt>
      <trkpt lat="46.223348658531904" lon="11.911906572058797">
        <ele>2106.8699999999999</ele>
        <time>2017-07-05T08:50:07Z</time>
      </trkpt>
      <trkpt lat="46.223350921645761" lon="11.911947643384337">
        <ele>2103.98</ele>
        <time>2017-07-05T08:50:18Z</time>
      </trkpt>
      <trkpt lat="46.223343210294843" lon="11.912011681124568">
        <ele>2101.5799999999999</ele>
        <time>2017-07-05T08:50:29Z</time>
      </trkpt>
      <trkpt lat="46.223378833383322" lon="11.912077646702528">
        <ele>2099.1799999999998</ele>
        <time>2017-07-05T08:50:41Z</time>
      </trkpt>
      <trkpt lat="46.223351424559951" lon="11.912157358601689">
        <ele>2097.25</ele>
        <time>2017-07-05T08:50:52Z</time>
      </trkpt>
      <trkpt lat="46.223314879462123" lon="11.91213196143508">
        <ele>2095.8099999999999</ele>
        <time>2017-07-05T08:51:03Z</time>
      </trkpt>
      <trkpt lat="46.223327871412039" lon="11.912127016112208">
        <ele>2095.3299999999999</ele>
        <time>2017-07-05T08:51:10Z</time>
      </trkpt>
      <trkpt lat="46.223334493115544" lon="11.912111509591341">
        <ele>2095.3299999999999</ele>
        <time>2017-07-05T08:51:21Z</time>
      </trkpt>
      <trkpt lat="46.22326341457665" lon="11.912122908979654">
        <ele>2094.3699999999999</ele>
        <time>2017-07-05T08:51:34Z</time>
      </trkpt>
      <trkpt lat="46.223242543637753" lon="11.912168590351939">
        <ele>2092.4499999999998</ele>
        <time>2017-07-05T08:51:43Z</time>
      </trkpt>
      <trkpt lat="46.223238352686167" lon="11.912216115742922">
        <ele>2090.04</ele>
        <time>2017-07-05T08:51:54Z</time>
      </trkpt>
      <trkpt lat="46.223261067643762" lon="11.912272525951266">
        <ele>2087.6399999999999</ele>
        <time>2017-07-05T08:52:05Z</time>
      </trkpt>
      <trkpt lat="46.223250338807702" lon="11.912300856783986">
        <ele>2086.6799999999998</ele>
        <time>2017-07-05T08:52:15Z</time>
      </trkpt>
      <trkpt lat="46.223292415961623" lon="11.912315022200346">
        <ele>2085.7199999999998</ele>
        <time>2017-07-05T08:52:27Z</time>
      </trkpt>
      <trkpt lat="46.223322255536914" lon="11.912357434630394">
        <ele>2084.7600000000002</ele>
        <time>2017-07-05T08:52:35Z</time>
      </trkpt>
      <trkpt lat="46.223271293565631" lon="11.91238752566278">
        <ele>2082.8299999999999</ele>
        <time>2017-07-05T08:52:45Z</time>
      </trkpt>
      <trkpt lat="46.223257714882493" lon="11.912408228963614">
        <ele>2081.3899999999999</ele>
        <time>2017-07-05T08:52:55Z</time>
      </trkpt>
      <trkpt lat="46.223204825073481" lon="11.912434967234731">
        <ele>2078.9899999999998</ele>
        <time>2017-07-05T08:53:06Z</time>
      </trkpt>
      <trkpt lat="46.223163083195686" lon="11.912435805425048">
        <ele>2077.0700000000002</ele>
        <time>2017-07-05T08:53:16Z</time>
      </trkpt>
      <trkpt lat="46.22316031716764" lon="11.91245106048882">
        <ele>2075.1399999999999</ele>
        <time>2017-07-05T08:53:25Z</time>
      </trkpt>
      <trkpt lat="46.223165262490511" lon="11.912490539252758">
        <ele>2074.6599999999999</ele>
        <time>2017-07-05T08:53:33Z</time>
      </trkpt>
      <trkpt lat="46.223162747919559" lon="11.912539741024375">
        <ele>2071.7800000000002</ele>
        <time>2017-07-05T08:53:45Z</time>
      </trkpt>
      <trkpt lat="46.223184959962964" lon="11.912582321092486">
        <ele>2069.8600000000001</ele>
        <time>2017-07-05T08:53:55Z</time>
      </trkpt>
      <trkpt lat="46.223177500069141" lon="11.912629511207342">
        <ele>2068.8899999999999</ele>
        <time>2017-07-05T08:54:04Z</time>
      </trkpt>
      <trkpt lat="46.22314958833158" lon="11.912664296105504">
        <ele>2067.4499999999998</ele>
        <time>2017-07-05T08:54:14Z</time>
      </trkpt>
      <trkpt lat="46.223131148144603" lon="11.912641497328877">
        <ele>2066.0100000000002</ele>
        <time>2017-07-05T08:54:23Z</time>
      </trkpt>
      <trkpt lat="46.223110277205706" lon="11.912637306377292">
        <ele>2065.0500000000002</ele>
        <time>2017-07-05T08:54:32Z</time>
      </trkpt>
      <trkpt lat="46.223098626360297" lon="11.912674941122532">
        <ele>2064.5700000000002</ele>
        <time>2017-07-05T08:54:42Z</time>
      </trkpt>
      <trkpt lat="46.223096614703536" lon="11.91268851980567">
        <ele>2063.1300000000001</ele>
        <time>2017-07-05T08:54:51Z</time>
      </trkpt>
      <trkpt lat="46.223095776513219" lon="11.912708384916186">
        <ele>2061.6799999999998</ele>
        <time>2017-07-05T08:55:01Z</time>
      </trkpt>
      <trkpt lat="46.223098374903202" lon="11.912723137065768">
        <ele>2060.7199999999998</ele>
        <time>2017-07-05T08:55:09Z</time>
      </trkpt>
      <trkpt lat="46.223120419308543" lon="11.91282439045608">
        <ele>2057.8400000000001</ele>
        <time>2017-07-05T08:55:23Z</time>
      </trkpt>
      <trkpt lat="46.223146989941597" lon="11.912788935005665">
        <ele>2056.4000000000001</ele>
        <time>2017-07-05T08:55:34Z</time>
      </trkpt>
      <trkpt lat="46.223139446228743" lon="11.912734787911177">
        <ele>2056.4000000000001</ele>
        <time>2017-07-05T08:55:45Z</time>
      </trkpt>
      <trkpt lat="46.223081694915891" lon="11.912731770426035">
        <ele>2055.4400000000001</ele>
        <time>2017-07-05T08:56:00Z</time>
      </trkpt>
      <trkpt lat="46.223129136487842" lon="11.91278868354857">
        <ele>2054.4699999999998</ele>
        <time>2017-07-05T08:56:10Z</time>
      </trkpt>
      <trkpt lat="46.223149336874485" lon="11.912849703803658">
        <ele>2052.0700000000002</ele>
        <time>2017-07-05T08:56:21Z</time>
      </trkpt>
      <trkpt lat="46.223110863938928" lon="11.912854565307498">
        <ele>2049.6700000000001</ele>
        <time>2017-07-05T08:56:30Z</time>
      </trkpt>
      <trkpt lat="46.223127963021398" lon="11.91290401853621">
        <ele>2047.26</ele>
        <time>2017-07-05T08:56:41Z</time>
      </trkpt>
      <trkpt lat="46.223104996606708" lon="11.912944419309497">
        <ele>2046.3</ele>
        <time>2017-07-05T08:56:51Z</time>
      </trkpt>
      <trkpt lat="46.223103320226073" lon="11.912974007427692">
        <ele>2044.8599999999999</ele>
        <time>2017-07-05T08:56:58Z</time>
      </trkpt>
      <trkpt lat="46.223085802048445" lon="11.913006948307157">
        <ele>2042.9400000000001</ele>
        <time>2017-07-05T08:57:06Z</time>
      </trkpt>
      <trkpt lat="46.223050514236093" lon="11.9129719119519">
        <ele>2041.5</ele>
        <time>2017-07-05T08:57:17Z</time>
      </trkpt>
      <trkpt lat="46.223029224202037" lon="11.912970570847392">
        <ele>2040.54</ele>
        <time>2017-07-05T08:57:28Z</time>
      </trkpt>
      <trkpt lat="46.223000306636095" lon="11.912970235571265">
        <ele>2039.0899999999999</ele>
        <time>2017-07-05T08:57:38Z</time>
      </trkpt>
      <trkpt lat="46.222996534779668" lon="11.912987921386957">
        <ele>2036.6900000000001</ele>
        <time>2017-07-05T08:57:48Z</time>
      </trkpt>
      <trkpt lat="46.22300935909152" lon="11.913028489798307">
        <ele>2035.25</ele>
        <time>2017-07-05T08:57:57Z</time>
      </trkpt>
      <trkpt lat="46.222990918904543" lon="11.913048187270761">
        <ele>2032.8399999999999</ele>
        <time>2017-07-05T08:58:07Z</time>
      </trkpt>
      <trkpt lat="46.222973065450788" lon="11.913068303838372">
        <ele>2030.9200000000001</ele>
        <time>2017-07-05T08:58:16Z</time>
      </trkpt>
      <trkpt lat="46.222979351878166" lon="11.913132844492793">
        <ele>2029.48</ele>
        <time>2017-07-05T08:58:25Z</time>
      </trkpt>
      <trkpt lat="46.222952613607049" lon="11.913141729310155">
        <ele>2028.04</ele>
        <time>2017-07-05T08:58:34Z</time>
      </trkpt>
      <trkpt lat="46.222931239753962" lon="11.913157403469086">
        <ele>2026.1199999999999</ele>
        <time>2017-07-05T08:58:43Z</time>
      </trkpt>
      <trkpt lat="46.222933838143945" lon="11.913192523643374">
        <ele>2024.1900000000001</ele>
        <time>2017-07-05T08:58:54Z</time>
      </trkpt>
      <trkpt lat="46.222926042973995" lon="11.913191014900804">
        <ele>2023.23</ele>
        <time>2017-07-05T08:59:03Z</time>
      </trkpt>
      <trkpt lat="46.222905507311225" lon="11.913197217509151">
        <ele>2022.27</ele>
        <time>2017-07-05T08:59:11Z</time>
      </trkpt>
      <trkpt lat="46.222919002175331" lon="11.913202246651053">
        <ele>2022.27</ele>
        <time>2017-07-05T08:59:28Z</time>
      </trkpt>
      <trkpt lat="46.222912380471826" lon="11.91319964826107">
        <ele>2022.75</ele>
        <time>2017-07-05T08:59:46Z</time>
      </trkpt>
      <trkpt lat="46.222917912527919" lon="11.913176095113158">
        <ele>2023.23</ele>
        <time>2017-07-05T08:59:54Z</time>
      </trkpt>
      <trkpt lat="46.222932580858469" lon="11.913140891119838">
        <ele>2022.75</ele>
        <time>2017-07-05T09:00:08Z</time>
      </trkpt>
      <trkpt lat="46.222891174256802" lon="11.913196295499802">
        <ele>2022.75</ele>
        <time>2017-07-05T09:00:17Z</time>
      </trkpt>
      <trkpt lat="46.222897376865149" lon="11.913215070962906">
        <ele>2020.8299999999999</ele>
        <time>2017-07-05T09:00:28Z</time>
      </trkpt>
      <trkpt lat="46.222904333844781" lon="11.913263099268079">
        <ele>2018.9100000000001</ele>
        <time>2017-07-05T09:00:36Z</time>
      </trkpt>
      <trkpt lat="46.222901483997703" lon="11.913312468677759">
        <ele>2016.98</ele>
        <time>2017-07-05T09:00:45Z</time>
      </trkpt>
      <trkpt lat="46.222874242812395" lon="11.91331347450614">
        <ele>2015.54</ele>
        <time>2017-07-05T09:00:55Z</time>
      </trkpt>
      <trkpt lat="46.222874326631427" lon="11.913343565538526">
        <ele>2013.6199999999999</ele>
        <time>2017-07-05T09:01:04Z</time>
      </trkpt>
      <trkpt lat="46.222846414893866" lon="11.913386983796954">
        <ele>2011.22</ele>
        <time>2017-07-05T09:01:13Z</time>
      </trkpt>
      <trkpt lat="46.222825795412064" lon="11.913425708189607">
        <ele>2009.29</ele>
        <time>2017-07-05T09:01:23Z</time>
      </trkpt>
      <trkpt lat="46.22283442877233" lon="11.913456888869405">
        <ele>2007.3699999999999</ele>
        <time>2017-07-05T09:01:32Z</time>
      </trkpt>
      <trkpt lat="46.222791010513902" lon="11.913474658504128">
        <ele>2005.9300000000001</ele>
        <time>2017-07-05T09:01:41Z</time>
      </trkpt>
      <trkpt lat="46.222822945564985" lon="11.913498379290104">
        <ele>2004.97</ele>
        <time>2017-07-05T09:01:49Z</time>
      </trkpt>
      <trkpt lat="46.222764607518911" lon="11.913530314341187">
        <ele>2002.5599999999999</ele>
        <time>2017-07-05T09:01:59Z</time>
      </trkpt>
      <trkpt lat="46.222721692174673" lon="11.913492595776916">
        <ele>2002.0799999999999</ele>
        <time>2017-07-05T09:02:11Z</time>
      </trkpt>
      <trkpt lat="46.222729990258813" lon="11.913537858054042">
        <ele>2000.1600000000001</ele>
        <time>2017-07-05T09:02:20Z</time>
      </trkpt>
      <trkpt lat="46.222757566720247" lon="11.913563422858715">
        <ele>1998.72</ele>
        <time>2017-07-05T09:02:30Z</time>
      </trkpt>
      <trkpt lat="46.222750023007393" lon="11.913599465042353">
        <ele>1997.76</ele>
        <time>2017-07-05T09:02:38Z</time>
      </trkpt>
      <trkpt lat="46.222763853147626" lon="11.913627879694104">
        <ele>1995.3499999999999</ele>
        <time>2017-07-05T09:02:48Z</time>
      </trkpt>
      <trkpt lat="46.222763936966658" lon="11.913671968504786">
        <ele>1993.4300000000001</ele>
        <time>2017-07-05T09:02:59Z</time>
      </trkpt>
      <trkpt lat="46.222731247544289" lon="11.91368579864502">
        <ele>1991.99</ele>
        <time>2017-07-05T09:03:07Z</time>
      </trkpt>
      <trkpt lat="46.222653714939952" lon="11.913650510832667">
        <ele>1991.03</ele>
        <time>2017-07-05T09:03:18Z</time>
      </trkpt>
      <trkpt lat="46.222597304731607" lon="11.913658389821649">
        <ele>1988.6199999999999</ele>
        <time>2017-07-05T09:03:29Z</time>
      </trkpt>
      <trkpt lat="46.222556652501225" lon="11.913663418963552">
        <ele>1987.1800000000001</ele>
        <time>2017-07-05T09:03:38Z</time>
      </trkpt>
      <trkpt lat="46.22251289896667" lon="11.9136609043926">
        <ele>1985.74</ele>
        <time>2017-07-05T09:03:49Z</time>
      </trkpt>
      <trkpt lat="46.222475599497557" lon="11.913684289902449">
        <ele>1984.3</ele>
        <time>2017-07-05T09:03:57Z</time>
      </trkpt>
      <trkpt lat="46.222433689981699" lon="11.913664005696774">
        <ele>1983.3399999999999</ele>
        <time>2017-07-05T09:04:08Z</time>
      </trkpt>
      <trkpt lat="46.222406113520265" lon="11.913655456155539">
        <ele>1983.3399999999999</ele>
        <time>2017-07-05T09:04:30Z</time>
      </trkpt>
      <trkpt lat="46.222355486825109" lon="11.913657551631331">
        <ele>1982.8599999999999</ele>
        <time>2017-07-05T09:04:43Z</time>
      </trkpt>
      <trkpt lat="46.222275942564011" lon="11.913660066202283">
        <ele>1981.4100000000001</ele>
        <time>2017-07-05T09:04:53Z</time>
      </trkpt>
      <trkpt lat="46.222191536799073" lon="11.913613798096776">
        <ele>1980.45</ele>
        <time>2017-07-05T09:05:05Z</time>
      </trkpt>
      <trkpt lat="46.222158009186387" lon="11.913645062595606">
        <ele>1979.01</ele>
        <time>2017-07-05T09:05:12Z</time>
      </trkpt>
      <trkpt lat="46.222079051658511" lon="11.91369459964335">
        <ele>1975.6500000000001</ele>
        <time>2017-07-05T09:05:22Z</time>
      </trkpt>
      <trkpt lat="46.22197930701077" lon="11.913662496954203">
        <ele>1973.72</ele>
        <time>2017-07-05T09:05:33Z</time>
      </trkpt>
      <trkpt lat="46.221914598718286" lon="11.913667023181915">
        <ele>1972.76</ele>
        <time>2017-07-05T09:05:39Z</time>
      </trkpt>
      <trkpt lat="46.22182834893465" lon="11.913631819188595">
        <ele>1970.3599999999999</ele>
        <time>2017-07-05T09:05:50Z</time>
      </trkpt>
      <trkpt lat="46.221763137727976" lon="11.913567027077079">
        <ele>1970.3599999999999</ele>
        <time>2017-07-05T09:06:01Z</time>
      </trkpt>
      <trkpt lat="46.221711086109281" lon="11.913534421473742">
        <ele>1971.3199999999999</ele>
        <time>2017-07-05T09:06:09Z</time>
      </trkpt>
      <trkpt lat="46.221615448594093" lon="11.913464851677418">
        <ele>1971.8</ele>
        <time>2017-07-05T09:06:21Z</time>
      </trkpt>
      <trkpt lat="46.221599187701941" lon="11.913452949374914">
        <ele>1971.8</ele>
        <time>2017-07-05T09:06:23Z</time>
      </trkpt>
      <trkpt lat="46.221501706168056" lon="11.91343660466373">
        <ele>1972.76</ele>
        <time>2017-07-05T09:06:34Z</time>
      </trkpt>
      <trkpt lat="46.221421239897609" lon="11.913446160033345">
        <ele>1972.28</ele>
        <time>2017-07-05T09:06:42Z</time>
      </trkpt>
      <trkpt lat="46.221348233520985" lon="11.913475664332509">
        <ele>1973.72</ele>
        <time>2017-07-05T09:06:55Z</time>
      </trkpt>
      <trkpt lat="46.221375474706292" lon="11.913410620763898">
        <ele>1974.6900000000001</ele>
        <time>2017-07-05T09:07:06Z</time>
      </trkpt>
      <trkpt lat="46.221389891579747" lon="11.913448255509138">
        <ele>1973.72</ele>
        <time>2017-07-05T09:07:14Z</time>
      </trkpt>
      <trkpt lat="46.221391148865223" lon="11.91338581033051">
        <ele>1973.72</ele>
        <time>2017-07-05T09:07:35Z</time>
      </trkpt>
      <trkpt lat="46.22134018689394" lon="11.913402155041695">
        <ele>1973.72</ele>
        <time>2017-07-05T09:07:52Z</time>
      </trkpt>
      <trkpt lat="46.221354519948363" lon="11.913394778966904">
        <ele>1973.72</ele>
        <time>2017-07-05T09:08:06Z</time>
      </trkpt>
      <trkpt lat="46.221350161358714" lon="11.913346834480762">
        <ele>1973.72</ele>
        <time>2017-07-05T09:08:15Z</time>
      </trkpt>
      <trkpt lat="46.221352173015475" lon="11.913319006562233">
        <ele>1973.72</ele>
        <time>2017-07-05T09:08:36Z</time>
      </trkpt>
      <trkpt lat="46.221425011754036" lon="11.913260500878096">
        <ele>1973.72</ele>
        <time>2017-07-05T09:08:47Z</time>
      </trkpt>
      <trkpt lat="46.221417970955372" lon="11.913289669901133">
        <ele>1973.72</ele>
        <time>2017-07-05T09:09:06Z</time>
      </trkpt>
      <trkpt lat="46.22146574780345" lon="11.913313223049045">
        <ele>1974.6900000000001</ele>
        <time>2017-07-05T09:09:19Z</time>
      </trkpt>
      <trkpt lat="46.221431465819478" lon="11.913362760096788">
        <ele>1974.2</ele>
        <time>2017-07-05T09:09:33Z</time>
      </trkpt>
      <trkpt lat="46.221391903236508" lon="11.913376841694117">
        <ele>1974.6900000000001</ele>
        <time>2017-07-05T09:09:47Z</time>
      </trkpt>
      <trkpt lat="46.221393076702952" lon="11.913358401507139">
        <ele>1974.2</ele>
        <time>2017-07-05T09:10:02Z</time>
      </trkpt>
      <trkpt lat="46.221412774175406" lon="11.913341553881764">
        <ele>1974.6900000000001</ele>
        <time>2017-07-05T09:10:14Z</time>
      </trkpt>
      <trkpt lat="46.22140129096806" lon="11.913382206112146">
        <ele>1974.6900000000001</ele>
        <time>2017-07-05T09:10:29Z</time>
      </trkpt>
      <trkpt lat="46.221394753083587" lon="11.913402238860726">
        <ele>1974.6900000000001</ele>
        <time>2017-07-05T09:10:46Z</time>
      </trkpt>
      <trkpt lat="46.221390897408128" lon="11.913411626592278">
        <ele>1974.6900000000001</ele>
        <time>2017-07-05T09:11:04Z</time>
      </trkpt>
      <trkpt lat="46.221388215199113" lon="11.913400143384933">
        <ele>1974.6900000000001</ele>
        <time>2017-07-05T09:11:21Z</time>
      </trkpt>
      <trkpt lat="46.221379833295941" lon="11.913403579965234">
        <ele>1974.6900000000001</ele>
        <time>2017-07-05T09:11:35Z</time>
      </trkpt>
      <trkpt lat="46.221372624859214" lon="11.913378601893783">
        <ele>1974.2</ele>
        <time>2017-07-05T09:11:55Z</time>
      </trkpt>
      <trkpt lat="46.221333229914308" lon="11.913307104259729">
        <ele>1973.72</ele>
        <time>2017-07-05T09:12:16Z</time>
      </trkpt>
      <trkpt lat="46.221376731991768" lon="11.913384888321161">
        <ele>1975.1700000000001</ele>
        <time>2017-07-05T09:12:37Z</time>
      </trkpt>
      <trkpt lat="46.221410930156708" lon="11.913395365700126">
        <ele>1974.6900000000001</ele>
        <time>2017-07-05T09:12:51Z</time>
      </trkpt>
      <trkpt lat="46.221392909064889" lon="11.913384972140193">
        <ele>1974.6900000000001</ele>
        <time>2017-07-05T09:13:08Z</time>
      </trkpt>
      <trkpt lat="46.221384778618813" lon="11.913375752046704">
        <ele>1974.2</ele>
        <time>2017-07-05T09:13:23Z</time>
      </trkpt>
      <trkpt lat="46.221417216584086" lon="11.913378601893783">
        <ele>1974.2</ele>
        <time>2017-07-05T09:13:40Z</time>
      </trkpt>
      <trkpt lat="46.221401542425156" lon="11.913377931341529">
        <ele>1974.2</ele>
        <time>2017-07-05T09:13:56Z</time>
      </trkpt>
      <trkpt lat="46.221401793882251" lon="11.913387905806303">
        <ele>1974.2</ele>
        <time>2017-07-05T09:14:10Z</time>
      </trkpt>
      <trkpt lat="46.221384443342686" lon="11.913391007110476">
        <ele>1974.2</ele>
        <time>2017-07-05T09:14:30Z</time>
      </trkpt>
      <trkpt lat="46.221411600708961" lon="11.913359323516488">
        <ele>1973.72</ele>
        <time>2017-07-05T09:14:46Z</time>
      </trkpt>
      <trkpt lat="46.22138905338943" lon="11.913374997675419">
        <ele>1974.2</ele>
        <time>2017-07-05T09:15:01Z</time>
      </trkpt>
      <trkpt lat="46.221391819417477" lon="11.91337357275188">
        <ele>1973.72</ele>
        <time>2017-07-05T09:15:14Z</time>
      </trkpt>
      <trkpt lat="46.221382599323988" lon="11.913379523903131">
        <ele>1973.72</ele>
        <time>2017-07-05T09:15:29Z</time>
      </trkpt>
      <trkpt lat="46.221384108066559" lon="11.913387151435018">
        <ele>1973.24</ele>
        <time>2017-07-05T09:15:46Z</time>
      </trkpt>
      <trkpt lat="46.221353011205792" lon="11.91338581033051">
        <ele>1971.8</ele>
        <time>2017-07-05T09:15:55Z</time>
      </trkpt>
      <trkpt lat="46.221332643181086" lon="11.913318503648043">
        <ele>1971.3199999999999</ele>
        <time>2017-07-05T09:16:10Z</time>
      </trkpt>
      <trkpt lat="46.22131671756506" lon="11.913264021277428">
        <ele>1970.8399999999999</ele>
        <time>2017-07-05T09:16:21Z</time>
      </trkpt>
      <trkpt lat="46.221338259056211" lon="11.913204593583941">
        <ele>1970.3599999999999</ele>
        <time>2017-07-05T09:16:37Z</time>
      </trkpt>
      <trkpt lat="46.221267348155379" lon="11.91310535185039">
        <ele>1970.3599999999999</ele>
        <time>2017-07-05T09:16:48Z</time>
      </trkpt>
      <trkpt lat="46.2211989518255" lon="11.913027232512832">
        <ele>1967.96</ele>
        <time>2017-07-05T09:16:59Z</time>
      </trkpt>
      <trkpt lat="46.221162658184767" lon="11.912965122610331">
        <ele>1967.48</ele>
        <time>2017-07-05T09:17:09Z</time>
      </trkpt>
      <trkpt lat="46.221142625436187" lon="11.912965457886457">
        <ele>1967.48</ele>
        <time>2017-07-05T09:17:21Z</time>
      </trkpt>
      <trkpt lat="46.221128040924668" lon="11.912931511178613">
        <ele>1967.96</ele>
        <time>2017-07-05T09:17:32Z</time>
      </trkpt>
      <trkpt lat="46.221125610172749" lon="11.912887003272772">
        <ele>1968.4400000000001</ele>
        <time>2017-07-05T09:17:40Z</time>
      </trkpt>
      <trkpt lat="46.221097866073251" lon="11.912842495366931">
        <ele>1969.8800000000001</ele>
        <time>2017-07-05T09:17:49Z</time>
      </trkpt>
      <trkpt lat="46.221084287390113" lon="11.912802932783961">
        <ele>1970.3599999999999</ele>
        <time>2017-07-05T09:18:01Z</time>
      </trkpt>
      <trkpt lat="46.221090322360396" lon="11.912762029096484">
        <ele>1971.8</ele>
        <time>2017-07-05T09:18:12Z</time>
      </trkpt>
      <trkpt lat="46.221050256863236" lon="11.912664715200663">
        <ele>1972.28</ele>
        <time>2017-07-05T09:18:22Z</time>
      </trkpt>
      <trkpt lat="46.221009436994791" lon="11.912565054371953">
        <ele>1973.24</ele>
        <time>2017-07-05T09:18:34Z</time>
      </trkpt>
      <trkpt lat="46.220979765057564" lon="11.91248475573957">
        <ele>1974.2</ele>
        <time>2017-07-05T09:18:45Z</time>
      </trkpt>
      <trkpt lat="46.220970042049885" lon="11.912459190934896">
        <ele>1975.1700000000001</ele>
        <time>2017-07-05T09:18:56Z</time>
      </trkpt>
      <trkpt lat="46.2209468241781" lon="11.912416107952595">
        <ele>1976.6099999999999</ele>
        <time>2017-07-05T09:19:06Z</time>
      </trkpt>
      <trkpt lat="46.220918744802475" lon="11.912372941151261">
        <ele>1977.5699999999999</ele>
        <time>2017-07-05T09:19:19Z</time>
      </trkpt>
      <trkpt lat="46.220903657376766" lon="11.912351148203015">
        <ele>1978.53</ele>
        <time>2017-07-05T09:19:30Z</time>
      </trkpt>
      <trkpt lat="46.220882283523679" lon="11.912335306406021">
        <ele>1979.97</ele>
        <time>2017-07-05T09:19:41Z</time>
      </trkpt>
      <trkpt lat="46.220870716497302" lon="11.912340838462114">
        <ele>1981.4100000000001</ele>
        <time>2017-07-05T09:19:44Z</time>
      </trkpt>
      <trkpt lat="46.220830986276269" lon="11.912351148203015">
        <ele>1980.9300000000001</ele>
        <time>2017-07-05T09:19:54Z</time>
      </trkpt>
      <trkpt lat="46.220803912729025" lon="11.912309573963284">
        <ele>1982.8599999999999</ele>
        <time>2017-07-05T09:20:07Z</time>
      </trkpt>
      <trkpt lat="46.220753453671932" lon="11.912351734936237">
        <ele>1983.3399999999999</ele>
        <time>2017-07-05T09:20:18Z</time>
      </trkpt>
      <trkpt lat="46.22073870152235" lon="11.912322901189327">
        <ele>1983.8199999999999</ele>
        <time>2017-07-05T09:20:29Z</time>
      </trkpt>
      <trkpt lat="46.220692517235875" lon="11.912291133776307">
        <ele>1986.22</ele>
        <time>2017-07-05T09:20:40Z</time>
      </trkpt>
      <trkpt lat="46.220620768144727" lon="11.91222969442606">
        <ele>1985.74</ele>
        <time>2017-07-05T09:20:52Z</time>
      </trkpt>
      <trkpt lat="46.220600148662925" lon="11.912216283380985">
        <ele>1986.22</ele>
        <time>2017-07-05T09:20:59Z</time>
      </trkpt>
      <trkpt lat="46.220540637150407" lon="11.912143947556615">
        <ele>1987.1800000000001</ele>
        <time>2017-07-05T09:21:12Z</time>
      </trkpt>
      <trkpt lat="46.220506438985467" lon="11.9120929017663">
        <ele>1988.6199999999999</ele>
        <time>2017-07-05T09:21:22Z</time>
      </trkpt>
      <trkpt lat="46.22049386613071" lon="11.91208410076797">
        <ele>1988.1400000000001</ele>
        <time>2017-07-05T09:21:34Z</time>
      </trkpt>
      <trkpt lat="46.220488585531712" lon="11.912030288949609">
        <ele>1988.1400000000001</ele>
        <time>2017-07-05T09:21:38Z</time>
      </trkpt>
      <trkpt lat="46.22048506513238" lon="11.91195560619235">
        <ele>1988.6199999999999</ele>
        <time>2017-07-05T09:21:45Z</time>
      </trkpt>
      <trkpt lat="46.220468636602163" lon="11.91196289844811">
        <ele>1987.1800000000001</ele>
        <time>2017-07-05T09:22:03Z</time>
      </trkpt>
      <trkpt lat="46.220469307154417" lon="11.911925515159965">
        <ele>1986.7</ele>
        <time>2017-07-05T09:22:15Z</time>
      </trkpt>
      <trkpt lat="46.220469893887639" lon="11.911909757182002">
        <ele>1986.7</ele>
        <time>2017-07-05T09:22:18Z</time>
      </trkpt>
      <trkpt lat="46.220474252477288" lon="11.911827865988016">
        <ele>1986.7</ele>
        <time>2017-07-05T09:22:25Z</time>
      </trkpt>
      <trkpt lat="46.220425134524703" lon="11.911754859611392">
        <ele>1986.22</ele>
        <time>2017-07-05T09:22:37Z</time>
      </trkpt>
      <trkpt lat="46.220420524477959" lon="11.911756116896868">
        <ele>1986.22</ele>
        <time>2017-07-05T09:22:38Z</time>
      </trkpt>
      <trkpt lat="46.220343578606844" lon="11.911715045571327">
        <ele>1986.22</ele>
        <time>2017-07-05T09:22:49Z</time>
      </trkpt>
      <trkpt lat="46.220288928598166" lon="11.911670956760645">
        <ele>1985.26</ele>
        <time>2017-07-05T09:22:59Z</time>
      </trkpt>
      <trkpt lat="46.220267219468951" lon="11.911672465503216">
        <ele>1984.78</ele>
        <time>2017-07-05T09:23:02Z</time>
      </trkpt>
      <trkpt lat="46.220236709341407" lon="11.911639859899879">
        <ele>1984.78</ele>
        <time>2017-07-05T09:23:11Z</time>
      </trkpt>
      <trkpt lat="46.22019681148231" lon="11.911579174920917">
        <ele>1986.22</ele>
        <time>2017-07-05T09:23:20Z</time>
      </trkpt>
      <trkpt lat="46.220174683257937" lon="11.911543132737279">
        <ele>1985.74</ele>
        <time>2017-07-05T09:23:30Z</time>
      </trkpt>
      <trkpt lat="46.220097150653601" lon="11.911510024219751">
        <ele>1985.74</ele>
        <time>2017-07-05T09:23:40Z</time>
      </trkpt>
      <trkpt lat="46.220013163983822" lon="11.911519495770335">
        <ele>1987.1800000000001</ele>
        <time>2017-07-05T09:23:52Z</time>
      </trkpt>
      <trkpt lat="46.219939738512039" lon="11.911484962329268">
        <ele>1988.1400000000001</ele>
        <time>2017-07-05T09:24:03Z</time>
      </trkpt>
      <trkpt lat="46.21992607600987" lon="11.911474401131272">
        <ele>1988.1400000000001</ele>
        <time>2017-07-05T09:24:05Z</time>
      </trkpt>
      <trkpt lat="46.219864804297686" lon="11.911350265145302">
        <ele>1988.1400000000001</ele>
        <time>2017-07-05T09:24:16Z</time>
      </trkpt>
      <trkpt lat="46.219799257814884" lon="11.911271475255489">
        <ele>1988.1400000000001</ele>
        <time>2017-07-05T09:24:30Z</time>
      </trkpt>
      <trkpt lat="46.219770759344101" lon="11.911202324554324">
        <ele>1987.1800000000001</ele>
        <time>2017-07-05T09:24:41Z</time>
      </trkpt>
      <trkpt lat="46.219727173447609" lon="11.91115278750658">
        <ele>1986.7</ele>
        <time>2017-07-05T09:24:51Z</time>
      </trkpt>
      <trkpt lat="46.219687694683671" lon="11.911148596554995">
        <ele>1985.26</ele>
        <time>2017-07-05T09:25:00Z</time>
      </trkpt>
      <trkpt lat="46.2196602858603" lon="11.911103669553995">
        <ele>1985.74</ele>
        <time>2017-07-05T09:25:09Z</time>
      </trkpt>
      <trkpt lat="46.219633379951119" lon="11.911093527451158">
        <ele>1985.26</ele>
        <time>2017-07-05T09:25:23Z</time>
      </trkpt>
      <trkpt lat="46.219605300575495" lon="11.911075925454497">
        <ele>1984.78</ele>
        <time>2017-07-05T09:25:37Z</time>
      </trkpt>
      <trkpt lat="46.219560541212559" lon="11.911020101979375">
        <ele>1985.74</ele>
        <time>2017-07-05T09:25:46Z</time>
      </trkpt>
      <trkpt lat="46.219494575634599" lon="11.910930415615439">
        <ele>1986.7</ele>
        <time>2017-07-05T09:26:00Z</time>
      </trkpt>
      <trkpt lat="46.219455599784851" lon="11.910921698436141">
        <ele>1985.74</ele>
        <time>2017-07-05T09:26:09Z</time>
      </trkpt>
      <trkpt lat="46.219378318637609" lon="11.91087962128222">
        <ele>1985.74</ele>
        <time>2017-07-05T09:26:20Z</time>
      </trkpt>
      <trkpt lat="46.219305144622922" lon="11.910827234387398">
        <ele>1986.7</ele>
        <time>2017-07-05T09:26:33Z</time>
      </trkpt>
      <trkpt lat="46.219242615625262" lon="11.910800244659185">
        <ele>1988.1400000000001</ele>
        <time>2017-07-05T09:26:44Z</time>
      </trkpt>
      <trkpt lat="46.219183690845966" lon="11.910757916048169">
        <ele>1988.6199999999999</ele>
        <time>2017-07-05T09:26:56Z</time>
      </trkpt>
      <trkpt lat="46.219160808250308" lon="11.910662865266204">
        <ele>1989.5899999999999</ele>
        <time>2017-07-05T09:27:07Z</time>
      </trkpt>
      <trkpt lat="46.219128957018256" lon="11.910603940486908">
        <ele>1990.55</ele>
        <time>2017-07-05T09:27:19Z</time>
      </trkpt>
      <trkpt lat="46.219090232625604" lon="11.910577872768044">
        <ele>1990.0699999999999</ele>
        <time>2017-07-05T09:27:30Z</time>
      </trkpt>
      <trkpt lat="46.219049748033285" lon="11.910617100074887">
        <ele>1991.51</ele>
        <time>2017-07-05T09:27:43Z</time>
      </trkpt>
      <trkpt lat="46.21895763091743" lon="11.91060796380043">
        <ele>1992.95</ele>
        <time>2017-07-05T09:27:59Z</time>
      </trkpt>
      <trkpt lat="46.218907255679369" lon="11.910598995164037">
        <ele>1994.3900000000001</ele>
        <time>2017-07-05T09:28:10Z</time>
      </trkpt>
      <trkpt lat="46.218883618712425" lon="11.910600671544671">
        <ele>1994.8699999999999</ele>
        <time>2017-07-05T09:28:22Z</time>
      </trkpt>
      <trkpt lat="46.218852438032627" lon="11.910613914951682">
        <ele>1996.3199999999999</ele>
        <time>2017-07-05T09:28:35Z</time>
      </trkpt>
      <trkpt lat="46.218801476061344" lon="11.910643503069878">
        <ele>1996.8</ele>
        <time>2017-07-05T09:28:47Z</time>
      </trkpt>
      <trkpt lat="46.218729475513101" lon="11.910606874153018">
        <ele>1996.3199999999999</ele>
        <time>2017-07-05T09:28:58Z</time>
      </trkpt>
      <trkpt lat="46.218697791919112" lon="11.91059522330761">
        <ele>1994.8699999999999</ele>
        <time>2017-07-05T09:29:08Z</time>
      </trkpt>
      <trkpt lat="46.218639621511102" lon="11.910586589947343">
        <ele>1993.9100000000001</ele>
        <time>2017-07-05T09:29:19Z</time>
      </trkpt>
      <trkpt lat="46.21860190294683" lon="11.910510817542672">
        <ele>1994.3900000000001</ele>
        <time>2017-07-05T09:29:29Z</time>
      </trkpt>
      <trkpt lat="46.218532081693411" lon="11.910425405949354">
        <ele>1992.47</ele>
        <time>2017-07-05T09:29:40Z</time>
      </trkpt>
      <trkpt lat="46.218488831073046" lon="11.910341838374734">
        <ele>1991.51</ele>
        <time>2017-07-05T09:29:51Z</time>
      </trkpt>
      <trkpt lat="46.2184739112854" lon="11.910279560834169">
        <ele>1990.55</ele>
        <time>2017-07-05T09:30:00Z</time>
      </trkpt>
      <trkpt lat="46.218463266268373" lon="11.910234550014138">
        <ele>1989.5899999999999</ele>
        <time>2017-07-05T09:30:10Z</time>
      </trkpt>
      <trkpt lat="46.218416159972548" lon="11.91020387224853">
        <ele>1987.6600000000001</ele>
        <time>2017-07-05T09:30:20Z</time>
      </trkpt>
      <trkpt lat="46.218410041183233" lon="11.910204626619816">
        <ele>1987.6600000000001</ele>
        <time>2017-07-05T09:30:21Z</time>
      </trkpt>
      <trkpt lat="46.218324713408947" lon="11.91018233075738">
        <ele>1989.0999999999999</ele>
        <time>2017-07-05T09:30:33Z</time>
      </trkpt>
      <trkpt lat="46.218321276828647" lon="11.910163974389434">
        <ele>1989.0999999999999</ele>
        <time>2017-07-05T09:30:35Z</time>
      </trkpt>
      <trkpt lat="46.218284396454692" lon="11.910074455663562">
        <ele>1988.6199999999999</ele>
        <time>2017-07-05T09:30:45Z</time>
      </trkpt>
      <trkpt lat="46.218267548829317" lon="11.910073701292276">
        <ele>1988.6199999999999</ele>
        <time>2017-07-05T09:30:48Z</time>
      </trkpt>
      <trkpt lat="46.218251036480069" lon="11.910066157579422">
        <ele>1987.6600000000001</ele>
        <time>2017-07-05T09:30:51Z</time>
      </trkpt>
      <trkpt lat="46.218190435320139" lon="11.909919390454888">
        <ele>1986.22</ele>
        <time>2017-07-05T09:31:03Z</time>
      </trkpt>
      <trkpt lat="46.21816897764802" lon="11.909868428483605">
        <ele>1986.7</ele>
        <time>2017-07-05T09:31:13Z</time>
      </trkpt>
      <trkpt lat="46.21813528239727" lon="11.909809419885278">
        <ele>1986.7</ele>
        <time>2017-07-05T09:31:23Z</time>
      </trkpt>
      <trkpt lat="46.218129163607955" lon="11.909810928627849">
        <ele>1986.7</ele>
        <time>2017-07-05T09:31:24Z</time>
      </trkpt>
      <trkpt lat="46.218083566054702" lon="11.909767678007483">
        <ele>1988.1400000000001</ele>
        <time>2017-07-05T09:31:36Z</time>
      </trkpt>
      <trkpt lat="46.218038471415639" lon="11.909752255305648">
        <ele>1989.0999999999999</ele>
        <time>2017-07-05T09:31:47Z</time>
      </trkpt>
      <trkpt lat="46.217987425625324" lon="11.909707579761744">
        <ele>1990.0699999999999</ele>
        <time>2017-07-05T09:31:58Z</time>
      </trkpt>
      <trkpt lat="46.21795741841197" lon="11.909678997471929">
        <ele>1991.51</ele>
        <time>2017-07-05T09:32:10Z</time>
      </trkpt>
      <trkpt lat="46.217922801151872" lon="11.909651840105653">
        <ele>1992.47</ele>
        <time>2017-07-05T09:32:21Z</time>
      </trkpt>
      <trkpt lat="46.21789094991982" lon="11.90962091088295">
        <ele>1993.4300000000001</ele>
        <time>2017-07-05T09:32:34Z</time>
      </trkpt>
      <trkpt lat="46.217859601601958" lon="11.909630382433534">
        <ele>1993.9100000000001</ele>
        <time>2017-07-05T09:32:44Z</time>
      </trkpt>
      <trkpt lat="46.217846106737852" lon="11.909593837335706">
        <ele>1994.8699999999999</ele>
        <time>2017-07-05T09:32:55Z</time>
      </trkpt>
      <trkpt lat="46.217807549983263" lon="11.90955201163888">
        <ele>1996.3199999999999</ele>
        <time>2017-07-05T09:33:05Z</time>
      </trkpt>
      <trkpt lat="46.217797324061394" lon="11.909543043002486">
        <ele>1996.3199999999999</ele>
        <time>2017-07-05T09:33:09Z</time>
      </trkpt>
      <trkpt lat="46.217777039855719" lon="11.909548575058579">
        <ele>1996.8</ele>
        <time>2017-07-05T09:33:12Z</time>
      </trkpt>
      <trkpt lat="46.217699842527509" lon="11.90954664722085">
        <ele>1996.8</ele>
        <time>2017-07-05T09:33:23Z</time>
      </trkpt>
      <trkpt lat="46.217669835314155" lon="11.909506162628531">
        <ele>1997.76</ele>
        <time>2017-07-05T09:33:33Z</time>
      </trkpt>
      <trkpt lat="46.217636559158564" lon="11.909490739926696">
        <ele>1999.6800000000001</ele>
        <time>2017-07-05T09:33:43Z</time>
      </trkpt>
      <trkpt lat="46.217599511146545" lon="11.909442711621523">
        <ele>2001.1199999999999</ele>
        <time>2017-07-05T09:33:55Z</time>
      </trkpt>
      <trkpt lat="46.217545447871089" lon="11.909356461837888">
        <ele>2002.0799999999999</ele>
        <time>2017-07-05T09:34:08Z</time>
      </trkpt>
      <trkpt lat="46.217499934136868" lon="11.909307679161429">
        <ele>2003.52</ele>
        <time>2017-07-05T09:34:20Z</time>
      </trkpt>
      <trkpt lat="46.217464311048388" lon="11.909250682219863">
        <ele>2004.01</ele>
        <time>2017-07-05T09:34:29Z</time>
      </trkpt>
      <trkpt lat="46.217423491179943" lon="11.909204665571451">
        <ele>2004.49</ele>
        <time>2017-07-05T09:34:39Z</time>
      </trkpt>
      <trkpt lat="46.217380492016673" lon="11.909080948680639">
        <ele>2003.52</ele>
        <time>2017-07-05T09:34:51Z</time>
      </trkpt>
      <trkpt lat="46.217331038787961" lon="11.908975755795836">
        <ele>2002.5599999999999</ele>
        <time>2017-07-05T09:35:03Z</time>
      </trkpt>
      <trkpt lat="46.217270689085126" lon="11.908932253718376">
        <ele>2004.01</ele>
        <time>2017-07-05T09:35:17Z</time>
      </trkpt>
      <trkpt lat="46.217263815924525" lon="11.908927308395505">
        <ele>2004.01</ele>
        <time>2017-07-05T09:35:18Z</time>
      </trkpt>
      <trkpt lat="46.217202795669436" lon="11.908820271492004">
        <ele>2004.01</ele>
        <time>2017-07-05T09:35:32Z</time>
      </trkpt>
      <trkpt lat="46.21717220172286" lon="11.908778948709369">
        <ele>2004.49</ele>
        <time>2017-07-05T09:35:38Z</time>
      </trkpt>
      <trkpt lat="46.217119563370943" lon="11.908705690875649">
        <ele>2004.97</ele>
        <time>2017-07-05T09:35:51Z</time>
      </trkpt>
      <trkpt lat="46.217070026323199" lon="11.908670319244266">
        <ele>2004.97</ele>
        <time>2017-07-05T09:36:00Z</time>
      </trkpt>
      <trkpt lat="46.217037672176957" lon="11.908693453297019">
        <ele>2005.45</ele>
        <time>2017-07-05T09:36:09Z</time>
      </trkpt>
      <trkpt lat="46.217024009674788" lon="11.908768471330404">
        <ele>2006.4100000000001</ele>
        <time>2017-07-05T09:36:18Z</time>
      </trkpt>
      <trkpt lat="46.21697380207479" lon="11.908780289813876">
        <ele>2007.8499999999999</ele>
        <time>2017-07-05T09:36:28Z</time>
      </trkpt>
      <trkpt lat="46.21691320091486" lon="11.908778948709369">
        <ele>2009.29</ele>
        <time>2017-07-05T09:36:39Z</time>
      </trkpt>
      <trkpt lat="46.216848324984312" lon="11.908784480765462">
        <ele>2011.22</ele>
        <time>2017-07-05T09:36:54Z</time>
      </trkpt>
      <trkpt lat="46.216809265315533" lon="11.908782720565796">
        <ele>2012.1800000000001</ele>
        <time>2017-07-05T09:37:03Z</time>
      </trkpt>
      <trkpt lat="46.216770121827722" lon="11.908770315349102">
        <ele>2013.6199999999999</ele>
        <time>2017-07-05T09:37:16Z</time>
      </trkpt>
      <trkpt lat="46.216730391606688" lon="11.908730920404196">
        <ele>2015.0599999999999</ele>
        <time>2017-07-05T09:37:29Z</time>
      </trkpt>
      <trkpt lat="46.216651182621717" lon="11.908716419711709">
        <ele>2015.0599999999999</ele>
        <time>2017-07-05T09:37:41Z</time>
      </trkpt>
      <trkpt lat="46.216591922566295" lon="11.90871742554009">
        <ele>2017.9400000000001</ele>
        <time>2017-07-05T09:37:53Z</time>
      </trkpt>
      <trkpt lat="46.216536518186331" lon="11.908726394176483">
        <ele>2018.9100000000001</ele>
        <time>2017-07-05T09:38:06Z</time>
      </trkpt>
      <trkpt lat="46.216511288657784" lon="11.908709462732077">
        <ele>2019.3900000000001</ele>
        <time>2017-07-05T09:38:15Z</time>
      </trkpt>
      <trkpt lat="46.216530734673142" lon="11.908698230981827">
        <ele>2019.3900000000001</ele>
        <time>2017-07-05T09:38:29Z</time>
      </trkpt>
      <trkpt lat="46.216525454074144" lon="11.908698733896017">
        <ele>2019.3900000000001</ele>
        <time>2017-07-05T09:38:43Z</time>
      </trkpt>
      <trkpt lat="46.216524867340922" lon="11.908732932060957">
        <ele>2018.9100000000001</ele>
        <time>2017-07-05T09:38:55Z</time>
      </trkpt>
      <trkpt lat="46.216532411053777" lon="11.908748690038919">
        <ele>2018.9100000000001</ele>
        <time>2017-07-05T09:39:13Z</time>
      </trkpt>
      <trkpt lat="46.216512797400355" lon="11.908672582358122">
        <ele>2019.3900000000001</ele>
        <time>2017-07-05T09:39:25Z</time>
      </trkpt>
      <trkpt lat="46.216455297544599" lon="11.908625727519393">
        <ele>2020.3499999999999</ele>
        <time>2017-07-05T09:39:35Z</time>
      </trkpt>
      <trkpt lat="46.216396372765303" lon="11.908554313704371">
        <ele>2021.79</ele>
        <time>2017-07-05T09:39:46Z</time>
      </trkpt>
      <trkpt lat="46.216314313933253" lon="11.9084716681391">
        <ele>2024.1900000000001</ele>
        <time>2017-07-05T09:40:00Z</time>
      </trkpt>
      <trkpt lat="46.216265950351954" lon="11.90844526514411">
        <ele>2026.5999999999999</ele>
        <time>2017-07-05T09:40:11Z</time>
      </trkpt>
      <trkpt lat="46.216251365840435" lon="11.908341245725751">
        <ele>2029</ele>
        <time>2017-07-05T09:40:25Z</time>
      </trkpt>
      <trkpt lat="46.216237284243107" lon="11.908276369795203">
        <ele>2030.9200000000001</ele>
        <time>2017-07-05T09:40:38Z</time>
      </trkpt>
      <trkpt lat="46.216210210695863" lon="11.908246278762817">
        <ele>2032.8399999999999</ele>
        <time>2017-07-05T09:40:51Z</time>
      </trkpt>
      <trkpt lat="46.216181544587016" lon="11.908205542713404">
        <ele>2034.77</ele>
        <time>2017-07-05T09:41:02Z</time>
      </trkpt>
      <trkpt lat="46.216151369735599" lon="11.908184755593538">
        <ele>2036.21</ele>
        <time>2017-07-05T09:41:12Z</time>
      </trkpt>
      <trkpt lat="46.216161763295531" lon="11.908124405890703">
        <ele>2038.1300000000001</ele>
        <time>2017-07-05T09:41:24Z</time>
      </trkpt>
      <trkpt lat="46.216136030852795" lon="11.908109653741121">
        <ele>2039.0899999999999</ele>
        <time>2017-07-05T09:41:36Z</time>
      </trkpt>
      <trkpt lat="46.216103844344616" lon="11.908111749216914">
        <ele>2040.54</ele>
        <time>2017-07-05T09:41:48Z</time>
      </trkpt>
      <trkpt lat="46.216107364743948" lon="11.908055925741792">
        <ele>2041.5</ele>
        <time>2017-07-05T09:41:58Z</time>
      </trkpt>
      <trkpt lat="46.216095881536603" lon="11.90800504758954">
        <ele>2043.4200000000001</ele>
        <time>2017-07-05T09:42:09Z</time>
      </trkpt>
      <trkpt lat="46.216037878766656" lon="11.907975375652313">
        <ele>2045.3399999999999</ele>
        <time>2017-07-05T09:42:22Z</time>
      </trkpt>
      <trkpt lat="46.21599655598402" lon="11.90793271176517">
        <ele>2046.3</ele>
        <time>2017-07-05T09:42:35Z</time>
      </trkpt>
      <trkpt lat="46.215966464951634" lon="11.907874876633286">
        <ele>2047.75</ele>
        <time>2017-07-05T09:42:48Z</time>
      </trkpt>
      <trkpt lat="46.215952299535275" lon="11.907854424789548">
        <ele>2048.23</ele>
        <time>2017-07-05T09:42:59Z</time>
      </trkpt>
      <trkpt lat="46.21594182215631" lon="11.907756943255663">
        <ele>2050.1500000000001</ele>
        <time>2017-07-05T09:43:10Z</time>
      </trkpt>
      <trkpt lat="46.215894464403391" lon="11.907725762575865">
        <ele>2050.6300000000001</ele>
        <time>2017-07-05T09:43:19Z</time>
      </trkpt>
      <trkpt lat="46.215849369764328" lon="11.907657952979207">
        <ele>2052.0700000000002</ele>
        <time>2017-07-05T09:43:32Z</time>
      </trkpt>
      <trkpt lat="46.215829672291875" lon="11.907646972686052">
        <ele>2051.1100000000001</ele>
        <time>2017-07-05T09:43:39Z</time>
      </trkpt>
      <trkpt lat="46.215748284012079" lon="11.907614869996905">
        <ele>2052.5500000000002</ele>
        <time>2017-07-05T09:43:50Z</time>
      </trkpt>
      <trkpt lat="46.215677121654153" lon="11.907544462010264">
        <ele>2053.0300000000002</ele>
        <time>2017-07-05T09:44:01Z</time>
      </trkpt>
      <trkpt lat="46.21564426459372" lon="11.907494673505425">
        <ele>2053.5100000000002</ele>
        <time>2017-07-05T09:44:14Z</time>
      </trkpt>
      <trkpt lat="46.215618448331952" lon="11.907459888607264">
        <ele>2053.9899999999998</ele>
        <time>2017-07-05T09:44:25Z</time>
      </trkpt>
      <trkpt lat="46.215606546029449" lon="11.907470617443323">
        <ele>2053.9899999999998</ele>
        <time>2017-07-05T09:44:34Z</time>
      </trkpt>
      <trkpt lat="46.215584753081203" lon="11.90746751613915">
        <ele>2053.9899999999998</ele>
        <time>2017-07-05T09:44:45Z</time>
      </trkpt>
      <trkpt lat="46.215571342036128" lon="11.90746852196753">
        <ele>2054.4699999999998</ele>
        <time>2017-07-05T09:44:48Z</time>
      </trkpt>
      <trkpt lat="46.215520212426782" lon="11.907520992681384">
        <ele>2055.4400000000001</ele>
        <time>2017-07-05T09:45:00Z</time>
      </trkpt>
      <trkpt lat="46.215463215485215" lon="11.907560219988227">
        <ele>2055.9200000000001</ele>
        <time>2017-07-05T09:45:10Z</time>
      </trkpt>
      <trkpt lat="46.215410325676203" lon="11.907580923289061">
        <ele>2056.8800000000001</ele>
        <time>2017-07-05T09:45:21Z</time>
      </trkpt>
      <trkpt lat="46.215384509414434" lon="11.907588550820947">
        <ele>2057.8400000000001</ele>
        <time>2017-07-05T09:45:31Z</time>
      </trkpt>
      <trkpt lat="46.21533933095634" lon="11.907578492537141">
        <ele>2060.2399999999998</ele>
        <time>2017-07-05T09:45:43Z</time>
      </trkpt>
      <trkpt lat="46.215301025658846" lon="11.907577570527792">
        <ele>2061.6799999999998</ele>
        <time>2017-07-05T09:45:54Z</time>
      </trkpt>
      <trkpt lat="46.215268839150667" lon="11.907530045136809">
        <ele>2062.6500000000001</ele>
        <time>2017-07-05T09:46:04Z</time>
      </trkpt>
      <trkpt lat="46.215245705097914" lon="11.907490314915776">
        <ele>2064.5700000000002</ele>
        <time>2017-07-05T09:46:13Z</time>
      </trkpt>
      <trkpt lat="46.215219302102923" lon="11.907476652413607">
        <ele>2065.5300000000002</ele>
        <time>2017-07-05T09:46:23Z</time>
      </trkpt>
      <trkpt lat="46.215155012905598" lon="11.907441113144159">
        <ele>2067.4499999999998</ele>
        <time>2017-07-05T09:46:35Z</time>
      </trkpt>
      <trkpt lat="46.215134644880891" lon="11.907382104545832">
        <ele>2067.9299999999998</ele>
        <time>2017-07-05T09:46:46Z</time>
      </trkpt>
      <trkpt lat="46.215112935751677" lon="11.907366178929806">
        <ele>2068.4099999999999</ele>
        <time>2017-07-05T09:46:56Z</time>
      </trkpt>
      <trkpt lat="46.215067589655519" lon="11.907337848097086">
        <ele>2069.8600000000001</ele>
        <time>2017-07-05T09:47:08Z</time>
      </trkpt>
      <trkpt lat="46.215042611584067" lon="11.907282946631312">
        <ele>2071.3000000000002</ele>
        <time>2017-07-05T09:47:19Z</time>
      </trkpt>
      <trkpt lat="46.215065410360694" lon="11.907188901677728">
        <ele>2072.2600000000002</ele>
        <time>2017-07-05T09:47:31Z</time>
      </trkpt>
      <trkpt lat="46.215065661817789" lon="11.907128887251019">
        <ele>2073.6999999999998</ele>
        <time>2017-07-05T09:47:42Z</time>
      </trkpt>
      <trkpt lat="46.215028865262866" lon="11.907053701579571">
        <ele>2075.6199999999999</ele>
        <time>2017-07-05T09:47:53Z</time>
      </trkpt>
      <trkpt lat="46.21504127047956" lon="11.906970050185919">
        <ele>2076.5900000000001</ele>
        <time>2017-07-05T09:48:04Z</time>
      </trkpt>
      <trkpt lat="46.21509063988924" lon="11.906905844807625">
        <ele>2076.5900000000001</ele>
        <time>2017-07-05T09:48:15Z</time>
      </trkpt>
      <trkpt lat="46.215171692892909" lon="11.906847506761551">
        <ele>2077.0700000000002</ele>
        <time>2017-07-05T09:48:25Z</time>
      </trkpt>
      <trkpt lat="46.215186277404428" lon="11.906831078231335">
        <ele>2078.5100000000002</ele>
        <time>2017-07-05T09:48:35Z</time>
      </trkpt>
      <trkpt lat="46.215182757005095" lon="11.906848847866058">
        <ele>2078.0300000000002</ele>
        <time>2017-07-05T09:48:36Z</time>
      </trkpt>
      <trkpt lat="46.215180410072207" lon="11.906890925019979">
        <ele>2077.0700000000002</ele>
        <time>2017-07-05T09:48:47Z</time>
      </trkpt>
      <trkpt lat="46.215168507769704" lon="11.906894948333502">
        <ele>2078.0300000000002</ele>
        <time>2017-07-05T09:49:13Z</time>
      </trkpt>
      <trkpt lat="46.2151566054672" lon="11.906847506761551">
        <ele>2077.5500000000002</ele>
        <time>2017-07-05T09:49:27Z</time>
      </trkpt>
      <trkpt lat="46.2151756323874" lon="11.90686603076756">
        <ele>2078.0300000000002</ele>
        <time>2017-07-05T09:49:38Z</time>
      </trkpt>
      <trkpt lat="46.215171776711941" lon="11.906906850636005">
        <ele>2077.5500000000002</ele>
        <time>2017-07-05T09:49:54Z</time>
      </trkpt>
      <trkpt lat="46.215177979320288" lon="11.906879274174571">
        <ele>2077.5500000000002</ele>
        <time>2017-07-05T09:50:11Z</time>
      </trkpt>
      <trkpt lat="46.215187953785062" lon="11.906881956383586">
        <ele>2077.0700000000002</ele>
        <time>2017-07-05T09:50:33Z</time>
      </trkpt>
      <trkpt lat="46.215157695114613" lon="11.906913556158543">
        <ele>2077.0700000000002</ele>
        <time>2017-07-05T09:50:55Z</time>
      </trkpt>
      <trkpt lat="46.215163562446833" lon="11.906904755160213">
        <ele>2077.0700000000002</ele>
        <time>2017-07-05T09:51:13Z</time>
      </trkpt>
      <trkpt lat="46.215166496112943" lon="11.90690265968442">
        <ele>2077.0700000000002</ele>
        <time>2017-07-05T09:51:42Z</time>
      </trkpt>
      <trkpt lat="46.215156521648169" lon="11.906905928626657">
        <ele>2078.5100000000002</ele>
        <time>2017-07-05T09:51:59Z</time>
      </trkpt>
      <trkpt lat="46.2151566054672" lon="11.906905006617308">
        <ele>2077.5500000000002</ele>
        <time>2017-07-05T09:52:01Z</time>
      </trkpt>
      <trkpt lat="46.215153923258185" lon="11.906869970262051">
        <ele>2077.0700000000002</ele>
        <time>2017-07-05T09:52:37Z</time>
      </trkpt>
      <trkpt lat="46.215165741741657" lon="11.906892349943519">
        <ele>2077.0700000000002</ele>
        <time>2017-07-05T09:53:15Z</time>
      </trkpt>
      <trkpt lat="46.215159371495247" lon="11.906875837594271">
        <ele>2077.0700000000002</ele>
        <time>2017-07-05T09:53:52Z</time>
      </trkpt>
      <trkpt lat="46.215161634609103" lon="11.906862761825323">
        <ele>2077.0700000000002</ele>
        <time>2017-07-05T09:54:23Z</time>
      </trkpt>
      <trkpt lat="46.215170100331306" lon="11.906850272789598">
        <ele>2077.0700000000002</ele>
        <time>2017-07-05T09:54:48Z</time>
      </trkpt>
      <trkpt lat="46.215164232999086" lon="11.906853206455708">
        <ele>2076.5900000000001</ele>
        <time>2017-07-05T09:55:17Z</time>
      </trkpt>
      <trkpt lat="46.215152582153678" lon="11.906910119578242">
        <ele>2076.5900000000001</ele>
        <time>2017-07-05T09:55:35Z</time>
      </trkpt>
      <trkpt lat="46.215139590203762" lon="11.906899977475405">
        <ele>2077.0700000000002</ele>
        <time>2017-07-05T09:56:09Z</time>
      </trkpt>
      <trkpt lat="46.215127017349005" lon="11.90691246651113">
        <ele>2076.5900000000001</ele>
        <time>2017-07-05T09:56:35Z</time>
      </trkpt>
      <trkpt lat="46.215142020955682" lon="11.90691682510078">
        <ele>2077.0700000000002</ele>
        <time>2017-07-05T09:57:00Z</time>
      </trkpt>
      <trkpt lat="46.21515023522079" lon="11.906911712139845">
        <ele>2077.0700000000002</ele>
        <time>2017-07-05T09:57:32Z</time>
      </trkpt>
      <trkpt lat="46.215147133916616" lon="11.906883548945189">
        <ele>2078.0300000000002</ele>
        <time>2017-07-05T09:58:02Z</time>
      </trkpt>
      <trkpt lat="46.215147385373712" lon="11.906899558380246">
        <ele>2077.0700000000002</ele>
        <time>2017-07-05T09:58:33Z</time>
      </trkpt>
      <trkpt lat="46.215130286291242" lon="11.906928643584251">
        <ele>2077.0700000000002</ele>
        <time>2017-07-05T09:59:08Z</time>
      </trkpt>
      <trkpt lat="46.215099859982729" lon="11.906922357156873">
        <ele>2077.0700000000002</ele>
        <time>2017-07-05T09:59:41Z</time>
      </trkpt>
      <trkpt lat="46.215098518878222" lon="11.906974324956536">
        <ele>2077.0700000000002</ele>
        <time>2017-07-05T10:00:09Z</time>
      </trkpt>
      <trkpt lat="46.215085610747337" lon="11.90698379650712">
        <ele>2077.0700000000002</ele>
        <time>2017-07-05T10:00:37Z</time>
      </trkpt>
      <trkpt lat="46.215027272701263" lon="11.907042218372226">
        <ele>2077.0700000000002</ele>
        <time>2017-07-05T10:01:04Z</time>
      </trkpt>
      <trkpt lat="46.215095082297921" lon="11.906960494816303">
        <ele>2077.0700000000002</ele>
        <time>2017-07-05T10:01:30Z</time>
      </trkpt>
      <trkpt lat="46.215107655152678" lon="11.906947335228324">
        <ele>2077.5500000000002</ele>
        <time>2017-07-05T10:01:59Z</time>
      </trkpt>
      <trkpt lat="46.215113941580057" lon="11.906935935840011">
        <ele>2077.5500000000002</ele>
        <time>2017-07-05T10:02:31Z</time>
      </trkpt>
      <trkpt lat="46.215100111439824" lon="11.906936522573233">
        <ele>2077.5500000000002</ele>
        <time>2017-07-05T10:02:59Z</time>
      </trkpt>
      <trkpt lat="46.215117713436484" lon="11.906925877556205">
        <ele>2077.5500000000002</ele>
        <time>2017-07-05T10:03:26Z</time>
      </trkpt>
      <trkpt lat="46.215120144188404" lon="11.906913891434669">
        <ele>2077.5500000000002</ele>
        <time>2017-07-05T10:03:55Z</time>
      </trkpt>
      <trkpt lat="46.215142104774714" lon="11.906907018274069">
        <ele>2077.5500000000002</ele>
        <time>2017-07-05T10:04:29Z</time>
      </trkpt>
      <trkpt lat="46.215137327089906" lon="11.906906347721815">
        <ele>2077.5500000000002</ele>
        <time>2017-07-05T10:05:02Z</time>
      </trkpt>
      <trkpt lat="46.215147636830807" lon="11.906889583915472">
        <ele>2077.5500000000002</ele>
        <time>2017-07-05T10:05:39Z</time>
      </trkpt>
      <trkpt lat="46.215136740356684" lon="11.906892852857709">
        <ele>2077.5500000000002</ele>
        <time>2017-07-05T10:06:05Z</time>
      </trkpt>
      <trkpt lat="46.215131543576717" lon="11.90690609626472">
        <ele>2077.0700000000002</ele>
        <time>2017-07-05T10:06:29Z</time>
      </trkpt>
      <trkpt lat="46.215144116431475" lon="11.906887656077743">
        <ele>2077.0700000000002</ele>
        <time>2017-07-05T10:06:43Z</time>
      </trkpt>
      <trkpt lat="46.215127687901258" lon="11.906915148720145">
        <ele>2077.0700000000002</ele>
        <time>2017-07-05T10:07:08Z</time>
      </trkpt>
      <trkpt lat="46.215125843882561" lon="11.90695253200829">
        <ele>2077.0700000000002</ele>
        <time>2017-07-05T10:07:34Z</time>
      </trkpt>
      <trkpt lat="46.21511260047555" lon="11.906949514523149">
        <ele>2077.5500000000002</ele>
        <time>2017-07-05T10:07:53Z</time>
      </trkpt>
      <trkpt lat="46.215099273249507" lon="11.906947670504451">
        <ele>2077.0700000000002</ele>
        <time>2017-07-05T10:08:08Z</time>
      </trkpt>
      <trkpt lat="46.215093825012445" lon="11.906948089599609">
        <ele>2077.5500000000002</ele>
        <time>2017-07-05T10:08:43Z</time>
      </trkpt>
      <trkpt lat="46.21511653997004" lon="11.906946832314134">
        <ele>2077.5500000000002</ele>
        <time>2017-07-05T10:09:18Z</time>
      </trkpt>
      <trkpt lat="46.215119305998087" lon="11.906935935840011">
        <ele>2077.0700000000002</ele>
        <time>2017-07-05T10:09:38Z</time>
      </trkpt>
      <trkpt lat="46.215128023177385" lon="11.906941886991262">
        <ele>2077.5500000000002</ele>
        <time>2017-07-05T10:09:42Z</time>
      </trkpt>
      <trkpt lat="46.21516733430326" lon="11.906892182305455">
        <ele>2078.0300000000002</ele>
        <time>2017-07-05T10:09:51Z</time>
      </trkpt>
      <trkpt lat="46.215183930471539" lon="11.906865695491433">
        <ele>2078.0300000000002</ele>
        <time>2017-07-05T10:10:03Z</time>
      </trkpt>
      <trkpt lat="46.215181248262525" lon="11.906849937513471">
        <ele>2078.0300000000002</ele>
        <time>2017-07-05T10:10:17Z</time>
      </trkpt>
      <trkpt lat="46.215152749791741" lon="11.906816912814975">
        <ele>2077.5500000000002</ele>
        <time>2017-07-05T10:10:42Z</time>
      </trkpt>
      <trkpt lat="46.215149983763695" lon="11.90682353451848">
        <ele>2077.5500000000002</ele>
        <time>2017-07-05T10:11:02Z</time>
      </trkpt>
      <trkpt lat="46.215174542739987" lon="11.906850188970566">
        <ele>2078.0300000000002</ele>
        <time>2017-07-05T10:11:15Z</time>
      </trkpt>
      <trkpt lat="46.215191474184394" lon="11.906856475397944">
        <ele>2077.5500000000002</ele>
        <time>2017-07-05T10:11:29Z</time>
      </trkpt>
      <trkpt lat="46.215153504163027" lon="11.906875250861049">
        <ele>2078.0300000000002</ele>
        <time>2017-07-05T10:11:41Z</time>
      </trkpt>
      <trkpt lat="46.215146631002426" lon="11.906894780695438">
        <ele>2078.0300000000002</ele>
        <time>2017-07-05T10:11:54Z</time>
      </trkpt>
      <trkpt lat="46.215138332918286" lon="11.906907185912132">
        <ele>2078.0300000000002</ele>
        <time>2017-07-05T10:12:06Z</time>
      </trkpt>
      <trkpt lat="46.215132968500257" lon="11.90691732801497">
        <ele>2078.0300000000002</ele>
        <time>2017-07-05T10:12:24Z</time>
      </trkpt>
      <trkpt lat="46.215133387595415" lon="11.906905258074403">
        <ele>2078.0300000000002</ele>
        <time>2017-07-05T10:12:39Z</time>
      </trkpt>
      <trkpt lat="46.21512190438807" lon="11.906903078779578">
        <ele>2078.0300000000002</ele>
        <time>2017-07-05T10:13:00Z</time>
      </trkpt>
      <trkpt lat="46.215128106996417" lon="11.906903078779578">
        <ele>2078.0300000000002</ele>
        <time>2017-07-05T10:13:17Z</time>
      </trkpt>
      <trkpt lat="46.215112181380391" lon="11.906918250024319">
        <ele>2077.5500000000002</ele>
        <time>2017-07-05T10:13:34Z</time>
      </trkpt>
      <trkpt lat="46.215052921324968" lon="11.906931074336171">
        <ele>2076.5900000000001</ele>
        <time>2017-07-05T10:13:44Z</time>
      </trkpt>
      <trkpt lat="46.215051831677556" lon="11.906870389357209">
        <ele>2075.6199999999999</ele>
        <time>2017-07-05T10:13:54Z</time>
      </trkpt>
      <trkpt lat="46.215087957680225" lon="11.906821439042687">
        <ele>2074.6599999999999</ele>
        <time>2017-07-05T10:14:03Z</time>
      </trkpt>
      <trkpt lat="46.215119222179055" lon="11.906658913940191">
        <ele>2073.6999999999998</ele>
        <time>2017-07-05T10:14:12Z</time>
      </trkpt>
      <trkpt lat="46.215089214965701" lon="11.906566126272082">
        <ele>2072.7399999999998</ele>
        <time>2017-07-05T10:14:22Z</time>
      </trkpt>
      <trkpt lat="46.215075301006436" lon="11.906477697193623">
        <ele>2072.2600000000002</ele>
        <time>2017-07-05T10:14:28Z</time>
      </trkpt>
      <trkpt lat="46.215018471702933" lon="11.906401002779603">
        <ele>2071.3000000000002</ele>
        <time>2017-07-05T10:14:36Z</time>
      </trkpt>
      <trkpt lat="46.215010676532984" lon="11.906312657520175">
        <ele>2071.7800000000002</ele>
        <time>2017-07-05T10:14:46Z</time>
      </trkpt>
      <trkpt lat="46.214987123385072" lon="11.906219534575939">
        <ele>2071.3000000000002</ele>
        <time>2017-07-05T10:14:55Z</time>
      </trkpt>
      <trkpt lat="46.214953763410449" lon="11.906123980879784">
        <ele>2071.3000000000002</ele>
        <time>2017-07-05T10:15:05Z</time>
      </trkpt>
      <trkpt lat="46.214902633801103" lon="11.906073605641723">
        <ele>2072.2600000000002</ele>
        <time>2017-07-05T10:15:18Z</time>
      </trkpt>
      <trkpt lat="46.21486441232264" lon="11.906082909554243">
        <ele>2072.2600000000002</ele>
        <time>2017-07-05T10:15:24Z</time>
      </trkpt>
      <trkpt lat="46.214780258014798" lon="11.906104786321521">
        <ele>2072.7399999999998</ele>
        <time>2017-07-05T10:15:35Z</time>
      </trkpt>
      <trkpt lat="46.214702976867557" lon="11.906117862090468">
        <ele>2074.6599999999999</ele>
        <time>2017-07-05T10:15:46Z</time>
      </trkpt>
      <trkpt lat="46.214675484225154" lon="11.906123897060752">
        <ele>2075.6199999999999</ele>
        <time>2017-07-05T10:15:58Z</time>
      </trkpt>
      <trkpt lat="46.214633490890265" lon="11.906126579269767">
        <ele>2078.5100000000002</ele>
        <time>2017-07-05T10:16:10Z</time>
      </trkpt>
      <trkpt lat="46.214582780376077" lon="11.906132781878114">
        <ele>2078.9899999999998</ele>
        <time>2017-07-05T10:16:23Z</time>
      </trkpt>
      <trkpt lat="46.214527124539018" lon="11.906101182103157">
        <ele>2078.0300000000002</ele>
        <time>2017-07-05T10:16:32Z</time>
      </trkpt>
      <trkpt lat="46.214395696297288" lon="11.905983500182629">
        <ele>2075.6199999999999</ele>
        <time>2017-07-05T10:16:47Z</time>
      </trkpt>
      <trkpt lat="46.214288994669914" lon="11.905960449948907">
        <ele>2076.5900000000001</ele>
        <time>2017-07-05T10:17:00Z</time>
      </trkpt>
      <trkpt lat="46.214217748492956" lon="11.905931029468775">
        <ele>2076.5900000000001</ele>
        <time>2017-07-05T10:17:12Z</time>
      </trkpt>
      <trkpt lat="46.214172570034862" lon="11.90592004917562">
        <ele>2077.5500000000002</ele>
        <time>2017-07-05T10:17:23Z</time>
      </trkpt>
      <trkpt lat="46.214138623327017" lon="11.905787447467446">
        <ele>2075.6199999999999</ele>
        <time>2017-07-05T10:17:37Z</time>
      </trkpt>
      <trkpt lat="46.214125463739038" lon="11.905773868784308">
        <ele>2075.6199999999999</ele>
        <time>2017-07-05T10:17:48Z</time>
      </trkpt>
      <trkpt lat="46.214094366878271" lon="11.905742352828383">
        <ele>2076.0999999999999</ele>
        <time>2017-07-05T10:17:57Z</time>
      </trkpt>
      <trkpt lat="46.214020689949393" lon="11.905736234039068">
        <ele>2077.0700000000002</ele>
        <time>2017-07-05T10:18:08Z</time>
      </trkpt>
      <trkpt lat="46.213953886181116" lon="11.90567378886044">
        <ele>2077.0700000000002</ele>
        <time>2017-07-05T10:18:17Z</time>
      </trkpt>
      <trkpt lat="46.213941145688295" lon="11.905598184093833">
        <ele>2077.0700000000002</ele>
        <time>2017-07-05T10:18:29Z</time>
      </trkpt>
      <trkpt lat="46.213911976665258" lon="11.905551832169294">
        <ele>2075.6199999999999</ele>
        <time>2017-07-05T10:18:39Z</time>
      </trkpt>
      <trkpt lat="46.213860427960753" lon="11.905515035614371">
        <ele>2075.1399999999999</ele>
        <time>2017-07-05T10:18:47Z</time>
      </trkpt>
      <trkpt lat="46.213793540373445" lon="11.905531631782651">
        <ele>2075.6199999999999</ele>
        <time>2017-07-05T10:18:57Z</time>
      </trkpt>
      <trkpt lat="46.213769232854247" lon="11.905494835227728">
        <ele>2075.6199999999999</ele>
        <time>2017-07-05T10:19:08Z</time>
      </trkpt>
      <trkpt lat="46.213760683313012" lon="11.905487710610032">
        <ele>2077.0700000000002</ele>
        <time>2017-07-05T10:19:10Z</time>
      </trkpt>
      <trkpt lat="46.213750625029206" lon="11.905481508001685">
        <ele>2077.0700000000002</ele>
        <time>2017-07-05T10:19:22Z</time>
      </trkpt>
      <trkpt lat="46.213734280318022" lon="11.905471114441752">
        <ele>2078.9899999999998</ele>
        <time>2017-07-05T10:19:31Z</time>
      </trkpt>
      <trkpt lat="46.213716175407171" lon="11.905422918498516">
        <ele>2080.9099999999999</ele>
        <time>2017-07-05T10:19:40Z</time>
      </trkpt>
      <trkpt lat="46.213718941435218" lon="11.905424678698182">
        <ele>2080.9099999999999</ele>
        <time>2017-07-05T10:19:41Z</time>
      </trkpt>
      <trkpt lat="46.213728915899992" lon="11.905422331765294">
        <ele>2081.3899999999999</ele>
        <time>2017-07-05T10:19:45Z</time>
      </trkpt>
      <trkpt lat="46.213690610602498" lon="11.905413446947932">
        <ele>2083.3099999999999</ele>
        <time>2017-07-05T10:19:53Z</time>
      </trkpt>
      <trkpt lat="46.213640822097659" lon="11.905387714505196">
        <ele>2084.7600000000002</ele>
        <time>2017-07-05T10:20:05Z</time>
      </trkpt>
      <trkpt lat="46.213603438809514" lon="11.905366843566298">
        <ele>2086.1999999999998</ele>
        <time>2017-07-05T10:20:16Z</time>
      </trkpt>
      <trkpt lat="46.213551973924041" lon="11.905366843566298">
        <ele>2087.1599999999999</ele>
        <time>2017-07-05T10:20:27Z</time>
      </trkpt>
      <trkpt lat="46.213496150448918" lon="11.905377320945263">
        <ele>2087.6399999999999</ele>
        <time>2017-07-05T10:20:38Z</time>
      </trkpt>
      <trkpt lat="46.213459186255932" lon="11.905396096408367">
        <ele>2088.1199999999999</ele>
        <time>2017-07-05T10:20:50Z</time>
      </trkpt>
      <trkpt lat="46.213435716927052" lon="11.905387127771974">
        <ele>2088.5999999999999</ele>
        <time>2017-07-05T10:21:02Z</time>
      </trkpt>
      <trkpt lat="46.213409984484315" lon="11.90539576113224">
        <ele>2089.0799999999999</ele>
        <time>2017-07-05T10:21:10Z</time>
      </trkpt>
      <trkpt lat="46.213380396366119" lon="11.905346978455782">
        <ele>2088.1199999999999</ele>
        <time>2017-07-05T10:21:20Z</time>
      </trkpt>
      <trkpt lat="46.213389113545418" lon="11.90532929264009">
        <ele>2087.6399999999999</ele>
        <time>2017-07-05T10:21:29Z</time>
      </trkpt>
      <trkpt lat="46.213402524590492" lon="11.905350163578987">
        <ele>2087.1599999999999</ele>
        <time>2017-07-05T10:21:40Z</time>
      </trkpt>
      <trkpt lat="46.213419288396835" lon="11.905332393944263">
        <ele>2087.6399999999999</ele>
        <time>2017-07-05T10:21:57Z</time>
      </trkpt>
      <trkpt lat="46.213351646438241" lon="11.905326442793012">
        <ele>2088.1199999999999</ele>
        <time>2017-07-05T10:22:07Z</time>
      </trkpt>
      <trkpt lat="46.21331300586462" lon="11.905350666493177">
        <ele>2089.0799999999999</ele>
        <time>2017-07-05T10:22:20Z</time>
      </trkpt>
      <trkpt lat="46.213321639224887" lon="11.905382098630071">
        <ele>2088.5999999999999</ele>
        <time>2017-07-05T10:22:33Z</time>
      </trkpt>
      <trkpt lat="46.213381150737405" lon="11.905371369794011">
        <ele>2088.1199999999999</ele>
        <time>2017-07-05T10:22:41Z</time>
      </trkpt>
      <trkpt lat="46.213350221514702" lon="11.905358210206032">
        <ele>2087.1599999999999</ele>
        <time>2017-07-05T10:22:54Z</time>
      </trkpt>
      <trkpt lat="46.213323986157775" lon="11.905284952372313">
        <ele>2086.1999999999998</ele>
        <time>2017-07-05T10:23:06Z</time>
      </trkpt>
      <trkpt lat="46.213322728872299" lon="11.905255448073149">
        <ele>2086.1999999999998</ele>
        <time>2017-07-05T10:23:17Z</time>
      </trkpt>
      <trkpt lat="46.213313508778811" lon="11.905281599611044">
        <ele>2086.1999999999998</ele>
        <time>2017-07-05T10:23:29Z</time>
      </trkpt>
      <trkpt lat="46.213293392211199" lon="11.905224267393351">
        <ele>2085.7199999999998</ele>
        <time>2017-07-05T10:23:40Z</time>
      </trkpt>
      <trkpt lat="46.213262211531401" lon="11.9051577989012">
        <ele>2086.6799999999998</ele>
        <time>2017-07-05T10:23:49Z</time>
      </trkpt>
      <trkpt lat="46.213237820193172" lon="11.90510306507349">
        <ele>2085.7199999999998</ele>
        <time>2017-07-05T10:23:57Z</time>
      </trkpt>
      <trkpt lat="46.213243771344423" lon="11.904965937137604">
        <ele>2084.2800000000002</ele>
        <time>2017-07-05T10:24:08Z</time>
      </trkpt>
      <trkpt lat="46.213238909840584" lon="11.904941629618406">
        <ele>2084.7600000000002</ele>
        <time>2017-07-05T10:24:11Z</time>
      </trkpt>
      <trkpt lat="46.213144781067967" lon="11.904911203309894">
        <ele>2083.3099999999999</ele>
        <time>2017-07-05T10:24:22Z</time>
      </trkpt>
      <trkpt lat="46.213087197393179" lon="11.904903324320912">
        <ele>2083.79</ele>
        <time>2017-07-05T10:24:32Z</time>
      </trkpt>
      <trkpt lat="46.213053669780493" lon="11.904884213581681">
        <ele>2084.7600000000002</ele>
        <time>2017-07-05T10:24:37Z</time>
      </trkpt>
      <trkpt lat="46.212987536564469" lon="11.904777679592371">
        <ele>2085.7199999999998</ele>
        <time>2017-07-05T10:24:48Z</time>
      </trkpt>
      <trkpt lat="46.212962307035923" lon="11.904718754813075">
        <ele>2086.1999999999998</ele>
        <time>2017-07-05T10:24:54Z</time>
      </trkpt>
      <trkpt lat="46.212899023666978" lon="11.904616579413414">
        <ele>2086.6799999999998</ele>
        <time>2017-07-05T10:25:05Z</time>
      </trkpt>
      <trkpt lat="46.212883517146111" lon="11.90455773845315">
        <ele>2085.7199999999998</ele>
        <time>2017-07-05T10:25:10Z</time>
      </trkpt>
      <trkpt lat="46.212864993140101" lon="11.904411306604743">
        <ele>2086.6799999999998</ele>
        <time>2017-07-05T10:25:23Z</time>
      </trkpt>
      <trkpt lat="46.212841859087348" lon="11.904388759285212">
        <ele>2086.6799999999998</ele>
        <time>2017-07-05T10:25:28Z</time>
      </trkpt>
      <trkpt lat="46.212746473029256" lon="11.904317764565349">
        <ele>2087.1599999999999</ele>
        <time>2017-07-05T10:25:40Z</time>
      </trkpt>
      <trkpt lat="46.212696768343449" lon="11.904259845614433">
        <ele>2088.5999999999999</ele>
        <time>2017-07-05T10:25:53Z</time>
      </trkpt>
      <trkpt lat="46.212651925161481" lon="11.904211230576038">
        <ele>2090.52</ele>
        <time>2017-07-05T10:26:05Z</time>
      </trkpt>
      <trkpt lat="46.212608506903052" lon="11.904195388779044">
        <ele>2091</ele>
        <time>2017-07-05T10:26:11Z</time>
      </trkpt>
      <trkpt lat="46.212507085874677" lon="11.904154233634472">
        <ele>2091.9699999999998</ele>
        <time>2017-07-05T10:26:24Z</time>
      </trkpt>
      <trkpt lat="46.212498703971505" lon="11.904156832024455">
        <ele>2091.9699999999998</ele>
        <time>2017-07-05T10:26:25Z</time>
      </trkpt>
      <trkpt lat="46.212409269064665" lon="11.90413311123848">
        <ele>2093.4099999999999</ele>
        <time>2017-07-05T10:26:37Z</time>
      </trkpt>
      <trkpt lat="46.212382866069674" lon="11.904098158702254">
        <ele>2094.8499999999999</ele>
        <time>2017-07-05T10:26:46Z</time>
      </trkpt>
      <trkpt lat="46.212331987917423" lon="11.904001766815782">
        <ele>2095.8099999999999</ele>
        <time>2017-07-05T10:26:57Z</time>
      </trkpt>
      <trkpt lat="46.212294856086373" lon="11.903908057138324">
        <ele>2096.29</ele>
        <time>2017-07-05T10:27:08Z</time>
      </trkpt>
      <trkpt lat="46.212296113371849" lon="11.903896993026137">
        <ele>2097.73</ele>
        <time>2017-07-05T10:27:10Z</time>
      </trkpt>
      <trkpt lat="46.212279181927443" lon="11.903829937800765">
        <ele>2100.1399999999999</ele>
        <time>2017-07-05T10:27:23Z</time>
      </trkpt>
      <trkpt lat="46.212268536910415" lon="11.903744358569384">
        <ele>2101.5799999999999</ele>
        <time>2017-07-05T10:27:34Z</time>
      </trkpt>
      <trkpt lat="46.212254539132118" lon="11.903693815693259">
        <ele>2103.5</ele>
        <time>2017-07-05T10:27:46Z</time>
      </trkpt>
      <trkpt lat="46.212234925478697" lon="11.903611673042178">
        <ele>2104.9400000000001</ele>
        <time>2017-07-05T10:27:58Z</time>
      </trkpt>
      <trkpt lat="46.212224029004574" lon="11.903591556474566">
        <ele>2105.9099999999999</ele>
        <time>2017-07-05T10:28:10Z</time>
      </trkpt>
      <trkpt lat="46.212168456986547" lon="11.903578145429492">
        <ele>2106.8699999999999</ele>
        <time>2017-07-05T10:28:23Z</time>
      </trkpt>
      <trkpt lat="46.212122272700071" lon="11.903589041903615">
        <ele>2108.3099999999999</ele>
        <time>2017-07-05T10:28:34Z</time>
      </trkpt>
      <trkpt lat="46.212088745087385" lon="11.903588706627488">
        <ele>2108.79</ele>
        <time>2017-07-05T10:28:45Z</time>
      </trkpt>
      <trkpt lat="46.212047422304749" lon="11.903569931164384">
        <ele>2109.75</ele>
        <time>2017-07-05T10:28:57Z</time>
      </trkpt>
      <trkpt lat="46.212015738710761" lon="11.903544701635838">
        <ele>2111.6700000000001</ele>
        <time>2017-07-05T10:29:12Z</time>
      </trkpt>
      <trkpt lat="46.211965112015605" lon="11.903520310297608">
        <ele>2114.0799999999999</ele>
        <time>2017-07-05T10:29:26Z</time>
      </trkpt>
      <trkpt lat="46.211937787011266" lon="11.903485860675573">
        <ele>2115.04</ele>
        <time>2017-07-05T10:29:40Z</time>
      </trkpt>
      <trkpt lat="46.211901661008596" lon="11.903448728844523">
        <ele>2115.04</ele>
        <time>2017-07-05T10:29:54Z</time>
      </trkpt>
      <trkpt lat="46.211903588846326" lon="11.903480077162385">
        <ele>2116</ele>
        <time>2017-07-05T10:30:03Z</time>
      </trkpt>
      <trkpt lat="46.211865451186895" lon="11.903479993343353">
        <ele>2117.4400000000001</ele>
        <time>2017-07-05T10:30:13Z</time>
      </trkpt>
      <trkpt lat="46.211811304092407" lon="11.90345929004252">
        <ele>2118.8800000000001</ele>
        <time>2017-07-05T10:30:24Z</time>
      </trkpt>
      <trkpt lat="46.211751038208604" lon="11.90347203053534">
        <ele>2120.8099999999999</ele>
        <time>2017-07-05T10:30:34Z</time>
      </trkpt>
      <trkpt lat="46.211698651313782" lon="11.903458451852202">
        <ele>2121.77</ele>
        <time>2017-07-05T10:30:42Z</time>
      </trkpt>
      <trkpt lat="46.211649533361197" lon="11.903492230921984">
        <ele>2122.25</ele>
        <time>2017-07-05T10:30:49Z</time>
      </trkpt>
      <trkpt lat="46.211604606360197" lon="11.903501451015472">
        <ele>2123.21</ele>
        <time>2017-07-05T10:30:55Z</time>
      </trkpt>
      <trkpt lat="46.211562948301435" lon="11.903503462672234">
        <ele>2124.6500000000001</ele>
        <time>2017-07-05T10:31:03Z</time>
      </trkpt>
      <trkpt lat="46.211510226130486" lon="11.903467420488596">
        <ele>2126.0900000000001</ele>
        <time>2017-07-05T10:31:12Z</time>
      </trkpt>
      <trkpt lat="46.211479548364878" lon="11.903488794341683">
        <ele>2127.0500000000002</ele>
        <time>2017-07-05T10:31:19Z</time>
      </trkpt>
      <trkpt lat="46.21145230717957" lon="11.903546545654535">
        <ele>2128.02</ele>
        <time>2017-07-05T10:31:30Z</time>
      </trkpt>
      <trkpt lat="46.211433280259371" lon="11.903577810153365">
        <ele>2128.5</ele>
        <time>2017-07-05T10:31:36Z</time>
      </trkpt>
      <trkpt lat="46.211405703797936" lon="11.903619552031159">
        <ele>2128.02</ele>
        <time>2017-07-05T10:31:43Z</time>
      </trkpt>
      <trkpt lat="46.211361866444349" lon="11.903618210926652">
        <ele>2127.5300000000002</ele>
        <time>2017-07-05T10:31:48Z</time>
      </trkpt>
      <trkpt lat="46.211284417659044" lon="11.903583006933331">
        <ele>2127.5300000000002</ele>
        <time>2017-07-05T10:31:58Z</time>
      </trkpt>
      <trkpt lat="46.211275365203619" lon="11.903582504019141">
        <ele>2127.5300000000002</ele>
        <time>2017-07-05T10:32:00Z</time>
      </trkpt>
      <trkpt lat="46.211260696873069" lon="11.903596250340343">
        <ele>2127.5300000000002</ele>
        <time>2017-07-05T10:32:02Z</time>
      </trkpt>
      <trkpt lat="46.211204035207629" lon="11.90364352427423">
        <ele>2128.5</ele>
        <time>2017-07-05T10:32:12Z</time>
      </trkpt>
      <trkpt lat="46.211159946396947" lon="11.903662467375398">
        <ele>2130.4200000000001</ele>
        <time>2017-07-05T10:32:19Z</time>
      </trkpt>
      <trkpt lat="46.211084593087435" lon="11.903743855655193">
        <ele>2131.8600000000001</ele>
        <time>2017-07-05T10:32:32Z</time>
      </trkpt>
      <trkpt lat="46.211020052433014" lon="11.903730276972055">
        <ele>2133.7800000000002</ele>
        <time>2017-07-05T10:32:45Z</time>
      </trkpt>
      <trkpt lat="46.210986608639359" lon="11.903648301959038">
        <ele>2134.7399999999998</ele>
        <time>2017-07-05T10:33:02Z</time>
      </trkpt>
      <trkpt lat="46.210932126268744" lon="11.903538415208459">
        <ele>2137.6300000000001</ele>
        <time>2017-07-05T10:33:18Z</time>
      </trkpt>
      <trkpt lat="46.210869513452053" lon="11.90352525562048">
        <ele>2140.0300000000002</ele>
        <time>2017-07-05T10:33:31Z</time>
      </trkpt>
      <trkpt lat="46.210822323337197" lon="11.903473036363721">
        <ele>2141.4699999999998</ele>
        <time>2017-07-05T10:33:43Z</time>
      </trkpt>
      <trkpt lat="46.210782844573259" lon="11.903358120471239">
        <ele>2141.4699999999998</ele>
        <time>2017-07-05T10:33:53Z</time>
      </trkpt>
      <trkpt lat="46.21075602248311" lon="11.903250999748707">
        <ele>2143.4000000000001</ele>
        <time>2017-07-05T10:34:05Z</time>
      </trkpt>
      <trkpt lat="46.210704976692796" lon="11.903115212917328">
        <ele>2144.3600000000001</ele>
        <time>2017-07-05T10:34:18Z</time>
      </trkpt>
      <trkpt lat="46.21064848266542" lon="11.903051510453224">
        <ele>2143.8800000000001</ele>
        <time>2017-07-05T10:34:29Z</time>
      </trkpt>
      <trkpt lat="46.210617972537875" lon="11.903040613979101">
        <ele>2145.8000000000002</ele>
        <time>2017-07-05T10:34:39Z</time>
      </trkpt>
      <trkpt lat="46.210595592856407" lon="11.902972469106317">
        <ele>2147.2399999999998</ele>
        <time>2017-07-05T10:34:50Z</time>
      </trkpt>
      <trkpt lat="46.210576733574271" lon="11.902953861281276">
        <ele>2146.7600000000002</ele>
        <time>2017-07-05T10:34:53Z</time>
      </trkpt>
      <trkpt lat="46.210495596751571" lon="11.902922680601478">
        <ele>2146.2800000000002</ele>
        <time>2017-07-05T10:35:05Z</time>
      </trkpt>
      <trkpt lat="46.210431223735213" lon="11.902873562648892">
        <ele>2149.1599999999999</ele>
        <time>2017-07-05T10:35:19Z</time>
      </trkpt>
      <trkpt lat="46.210392666980624" lon="11.902805669233203">
        <ele>2150.1300000000001</ele>
        <time>2017-07-05T10:35:34Z</time>
      </trkpt>
      <trkpt lat="46.210363497957587" lon="11.902749426662922">
        <ele>2149.1599999999999</ele>
        <time>2017-07-05T10:35:44Z</time>
      </trkpt>
      <trkpt lat="46.210291832685471" lon="11.902661081403494">
        <ele>2149.1599999999999</ele>
        <time>2017-07-05T10:35:56Z</time>
      </trkpt>
      <trkpt lat="46.210285713896155" lon="11.902657141909003">
        <ele>2149.1599999999999</ele>
        <time>2017-07-05T10:35:57Z</time>
      </trkpt>
      <trkpt lat="46.210180353373289" lon="11.902621183544397">
        <ele>2150.1300000000001</ele>
        <time>2017-07-05T10:36:12Z</time>
      </trkpt>
      <trkpt lat="46.210169373080134" lon="11.902624452486634">
        <ele>2150.6100000000001</ele>
        <time>2017-07-05T10:36:13Z</time>
      </trkpt>
      <trkpt lat="46.210096115246415" lon="11.902610957622528">
        <ele>2150.6100000000001</ele>
        <time>2017-07-05T10:36:24Z</time>
      </trkpt>
      <trkpt lat="46.210078345611691" lon="11.902597546577454">
        <ele>2150.6100000000001</ele>
        <time>2017-07-05T10:36:29Z</time>
      </trkpt>
      <trkpt lat="46.209993939846754" lon="11.902505094185472">
        <ele>2149.1599999999999</ele>
        <time>2017-07-05T10:36:41Z</time>
      </trkpt>
      <trkpt lat="46.209920346736908" lon="11.902426974847913">
        <ele>2148.1999999999998</ele>
        <time>2017-07-05T10:36:52Z</time>
      </trkpt>
      <trkpt lat="46.209812806919217" lon="11.902403840795159">
        <ele>2148.6799999999998</ele>
        <time>2017-07-05T10:37:05Z</time>
      </trkpt>
      <trkpt lat="46.209753714501858" lon="11.902409540489316">
        <ele>2149.6500000000001</ele>
        <time>2017-07-05T10:37:16Z</time>
      </trkpt>
      <trkpt lat="46.209697974845767" lon="11.90239705145359">
        <ele>2151.0900000000001</ele>
        <time>2017-07-05T10:37:27Z</time>
      </trkpt>
      <trkpt lat="46.209674505516887" lon="11.902330247685313">
        <ele>2151.5700000000002</ele>
        <time>2017-07-05T10:37:36Z</time>
      </trkpt>
      <trkpt lat="46.209693951532245" lon="11.902351872995496">
        <ele>2152.0500000000002</ele>
        <time>2017-07-05T10:37:52Z</time>
      </trkpt>
      <trkpt lat="46.20969663374126" lon="11.90232957713306">
        <ele>2152.5300000000002</ele>
        <time>2017-07-05T10:38:08Z</time>
      </trkpt>
      <trkpt lat="46.209669141098857" lon="11.902303257957101">
        <ele>2152.5300000000002</ele>
        <time>2017-07-05T10:38:26Z</time>
      </trkpt>
      <trkpt lat="46.209666961804032" lon="11.902312897145748">
        <ele>2152.5300000000002</ele>
        <time>2017-07-05T10:38:48Z</time>
      </trkpt>
      <trkpt lat="46.209666458889842" lon="11.902313148602843">
        <ele>2152.5300000000002</ele>
        <time>2017-07-05T10:39:05Z</time>
      </trkpt>
      <trkpt lat="46.209663776680827" lon="11.902299653738737">
        <ele>2152.0500000000002</ele>
        <time>2017-07-05T10:39:22Z</time>
      </trkpt>
      <trkpt lat="46.209678947925568" lon="11.90231298096478">
        <ele>2152.5300000000002</ele>
        <time>2017-07-05T10:39:40Z</time>
      </trkpt>
      <trkpt lat="46.20965757407248" lon="11.902288589626551">
        <ele>2152.5300000000002</ele>
        <time>2017-07-05T10:39:57Z</time>
      </trkpt>
      <trkpt lat="46.2096565682441" lon="11.902322871610522">
        <ele>2151.5700000000002</ele>
        <time>2017-07-05T10:40:08Z</time>
      </trkpt>
      <trkpt lat="46.209649695083499" lon="11.902208207175136">
        <ele>2149.1599999999999</ele>
        <time>2017-07-05T10:40:19Z</time>
      </trkpt>
      <trkpt lat="46.209650449454784" lon="11.902156993746758">
        <ele>2147.7199999999998</ele>
        <time>2017-07-05T10:40:25Z</time>
      </trkpt>
      <trkpt lat="46.209661429747939" lon="11.902125813066959">
        <ele>2147.2399999999998</ele>
        <time>2017-07-05T10:40:34Z</time>
      </trkpt>
      <trkpt lat="46.209668722003698" lon="11.902027744799852">
        <ele>2146.2800000000002</ele>
        <time>2017-07-05T10:40:45Z</time>
      </trkpt>
      <trkpt lat="46.209628069773316" lon="11.901915930211544">
        <ele>2146.2800000000002</ele>
        <time>2017-07-05T10:40:56Z</time>
      </trkpt>
      <trkpt lat="46.209610970690846" lon="11.901869494467974">
        <ele>2145.3200000000002</ele>
        <time>2017-07-05T10:41:07Z</time>
      </trkpt>
      <trkpt lat="46.209602421149611" lon="11.901673106476665">
        <ele>2142.4400000000001</ele>
        <time>2017-07-05T10:41:19Z</time>
      </trkpt>
      <trkpt lat="46.209610886871815" lon="11.90161133185029">
        <ele>2142.4400000000001</ele>
        <time>2017-07-05T10:41:24Z</time>
      </trkpt>
      <trkpt lat="46.209504688158631" lon="11.901525249704719">
        <ele>2140.5100000000002</ele>
        <time>2017-07-05T10:41:37Z</time>
      </trkpt>
      <trkpt lat="46.209506783634424" lon="11.901530865579844">
        <ele>2140.9899999999998</ele>
        <time>2017-07-05T10:41:39Z</time>
      </trkpt>
      <trkpt lat="46.209425395354629" lon="11.901499684900045">
        <ele>2142.9200000000001</ele>
        <time>2017-07-05T10:41:52Z</time>
      </trkpt>
      <trkpt lat="46.209409385919571" lon="11.901467749848962">
        <ele>2142.9200000000001</ele>
        <time>2017-07-05T10:42:04Z</time>
      </trkpt>
      <trkpt lat="46.209427658468485" lon="11.90148962661624">
        <ele>2142.9200000000001</ele>
        <time>2017-07-05T10:42:17Z</time>
      </trkpt>
      <trkpt lat="46.209431011229753" lon="11.901483424007893">
        <ele>2143.4000000000001</ele>
        <time>2017-07-05T10:42:32Z</time>
      </trkpt>
      <trkpt lat="46.209420282393694" lon="11.901488788425922">
        <ele>2142.4400000000001</ele>
        <time>2017-07-05T10:42:47Z</time>
      </trkpt>
      <trkpt lat="46.209416342899203" lon="11.901478059589863">
        <ele>2142.9200000000001</ele>
        <time>2017-07-05T10:43:05Z</time>
      </trkpt>
      <trkpt lat="46.209417097270489" lon="11.901483088731766">
        <ele>2142.9200000000001</ele>
        <time>2017-07-05T10:43:20Z</time>
      </trkpt>
      <trkpt lat="46.209421372041106" lon="11.901481915265322">
        <ele>2142.9200000000001</ele>
        <time>2017-07-05T10:43:34Z</time>
      </trkpt>
      <trkpt lat="46.209417600184679" lon="11.901464145630598">
        <ele>2142.9200000000001</ele>
        <time>2017-07-05T10:43:49Z</time>
      </trkpt>
      <trkpt lat="46.209415337070823" lon="11.901448722928762">
        <ele>2143.4000000000001</ele>
        <time>2017-07-05T10:44:02Z</time>
      </trkpt>
      <trkpt lat="46.209432184696198" lon="11.901479819789529">
        <ele>2143.4000000000001</ele>
        <time>2017-07-05T10:44:16Z</time>
      </trkpt>
      <trkpt lat="46.209423802793026" lon="11.901464480906725">
        <ele>2143.4000000000001</ele>
        <time>2017-07-05T10:44:29Z</time>
      </trkpt>
      <trkpt lat="46.209429837763309" lon="11.901471773162484">
        <ele>2142.9200000000001</ele>
        <time>2017-07-05T10:44:41Z</time>
      </trkpt>
      <trkpt lat="46.20942254550755" lon="11.901477305218577">
        <ele>2143.4000000000001</ele>
        <time>2017-07-05T10:44:53Z</time>
      </trkpt>
      <trkpt lat="46.209409805014729" lon="11.901489878073335">
        <ele>2142.4400000000001</ele>
        <time>2017-07-05T10:45:01Z</time>
      </trkpt>
      <trkpt lat="46.209401087835431" lon="11.901404047384858">
        <ele>2140.5100000000002</ele>
        <time>2017-07-05T10:45:11Z</time>
      </trkpt>
      <trkpt lat="46.209397315979004" lon="11.901351157575846">
        <ele>2138.5900000000001</ele>
        <time>2017-07-05T10:45:19Z</time>
      </trkpt>
      <trkpt lat="46.209384659305215" lon="11.901251580566168">
        <ele>2135.71</ele>
        <time>2017-07-05T10:45:32Z</time>
      </trkpt>
      <trkpt lat="46.209359429776669" lon="11.901214784011245">
        <ele>2134.2600000000002</ele>
        <time>2017-07-05T10:45:41Z</time>
      </trkpt>
      <trkpt lat="46.20935071259737" lon="11.901207324117422">
        <ele>2132.8200000000002</ele>
        <time>2017-07-05T10:45:50Z</time>
      </trkpt>
      <trkpt lat="46.209306875243783" lon="11.901180418208241">
        <ele>2131.3800000000001</ele>
        <time>2017-07-05T10:46:00Z</time>
      </trkpt>
      <trkpt lat="46.209282483905554" lon="11.901150327175856">
        <ele>2128.98</ele>
        <time>2017-07-05T10:46:09Z</time>
      </trkpt>
      <trkpt lat="46.20927058160305" lon="11.901133647188544">
        <ele>2127.5300000000002</ele>
        <time>2017-07-05T10:46:12Z</time>
      </trkpt>
      <trkpt lat="46.209269324317575" lon="11.901103975251317">
        <ele>2127.5300000000002</ele>
        <time>2017-07-05T10:46:14Z</time>
      </trkpt>
      <trkpt lat="46.20922951027751" lon="11.90111487172544">
        <ele>2126.5700000000002</ele>
        <time>2017-07-05T10:46:24Z</time>
      </trkpt>
      <trkpt lat="46.209194557741284" lon="11.901102969422936">
        <ele>2123.21</ele>
        <time>2017-07-05T10:46:33Z</time>
      </trkpt>
      <trkpt lat="46.209186259657145" lon="11.901023173704743">
        <ele>2120.3200000000002</ele>
        <time>2017-07-05T10:46:44Z</time>
      </trkpt>
      <trkpt lat="46.209179302677512" lon="11.900916388258338">
        <ele>2117.4400000000001</ele>
        <time>2017-07-05T10:46:58Z</time>
      </trkpt>
      <trkpt lat="46.209177793934941" lon="11.900875819846988">
        <ele>2116</ele>
        <time>2017-07-05T10:47:09Z</time>
      </trkpt>
      <trkpt lat="46.209137225523591" lon="11.900813290849328">
        <ele>2113.5999999999999</ele>
        <time>2017-07-05T10:47:20Z</time>
      </trkpt>
      <trkpt lat="46.209106799215078" lon="11.900756796821952">
        <ele>2112.6300000000001</ele>
        <time>2017-07-05T10:47:31Z</time>
      </trkpt>
      <trkpt lat="46.20908735319972" lon="11.900758892297745">
        <ele>2111.6700000000001</ele>
        <time>2017-07-05T10:47:37Z</time>
      </trkpt>
      <trkpt lat="46.209048880264163" lon="11.900674570351839">
        <ele>2108.79</ele>
        <time>2017-07-05T10:47:49Z</time>
      </trkpt>
      <trkpt lat="46.209029769524932" lon="11.900630900636315">
        <ele>2107.8299999999999</ele>
        <time>2017-07-05T10:48:01Z</time>
      </trkpt>
      <trkpt lat="46.20898568071425" lon="11.90049477852881">
        <ele>2105.9099999999999</ele>
        <time>2017-07-05T10:48:14Z</time>
      </trkpt>
      <trkpt lat="46.208952153101563" lon="11.900481954216957">
        <ele>2105.9099999999999</ele>
        <time>2017-07-05T10:48:23Z</time>
      </trkpt>
      <trkpt lat="46.208893982693553" lon="11.900392016395926">
        <ele>2103.98</ele>
        <time>2017-07-05T10:48:33Z</time>
      </trkpt>
      <trkpt lat="46.208883170038462" lon="11.900366116315126">
        <ele>2103.5</ele>
        <time>2017-07-05T10:48:40Z</time>
      </trkpt>
      <trkpt lat="46.208845535293221" lon="11.90031984820962">
        <ele>2101.5799999999999</ele>
        <time>2017-07-05T10:48:50Z</time>
      </trkpt>
      <trkpt lat="46.208797674626112" lon="11.900318339467049">
        <ele>2100.6199999999999</ele>
        <time>2017-07-05T10:49:06Z</time>
      </trkpt>
      <trkpt lat="46.208782168105245" lon="11.900317585095763">
        <ele>2100.1399999999999</ele>
        <time>2017-07-05T10:49:08Z</time>
      </trkpt>
      <trkpt lat="46.208670437335968" lon="11.900293026119471">
        <ele>2096.77</ele>
        <time>2017-07-05T10:49:22Z</time>
      </trkpt>
      <trkpt lat="46.20860505849123" lon="11.900255726650357">
        <ele>2094.3699999999999</ele>
        <time>2017-07-05T10:49:32Z</time>
      </trkpt>
      <trkpt lat="46.208593994379044" lon="11.90024952404201">
        <ele>2093.8899999999999</ele>
        <time>2017-07-05T10:49:34Z</time>
      </trkpt>
      <trkpt lat="46.208554012700915" lon="11.900219433009624">
        <ele>2092.4499999999998</ele>
        <time>2017-07-05T10:49:44Z</time>
      </trkpt>
      <trkpt lat="46.208473965525627" lon="11.900163944810629">
        <ele>2089.5599999999999</ele>
        <time>2017-07-05T10:49:56Z</time>
      </trkpt>
      <trkpt lat="46.208406910300255" lon="11.900091860443354">
        <ele>2086.6799999999998</ele>
        <time>2017-07-05T10:50:08Z</time>
      </trkpt>
      <trkpt lat="46.208380926400423" lon="11.900057829916477">
        <ele>2085.2399999999998</ele>
        <time>2017-07-05T10:50:19Z</time>
      </trkpt>
      <trkpt lat="46.208339435979724" lon="11.900000749155879">
        <ele>2083.79</ele>
        <time>2017-07-05T10:50:29Z</time>
      </trkpt>
      <trkpt lat="46.208313703536987" lon="11.899954900145531">
        <ele>2081.8699999999999</ele>
        <time>2017-07-05T10:50:41Z</time>
      </trkpt>
      <trkpt lat="46.208268273621798" lon="11.899943836033344">
        <ele>2080.4299999999998</ele>
        <time>2017-07-05T10:50:51Z</time>
      </trkpt>
      <trkpt lat="46.208209432661533" lon="11.899946350604296">
        <ele>2077.5500000000002</ele>
        <time>2017-07-05T10:51:02Z</time>
      </trkpt>
      <trkpt lat="46.20818680152297" lon="11.899954732507467">
        <ele>2077.5500000000002</ele>
        <time>2017-07-05T10:51:09Z</time>
      </trkpt>
      <trkpt lat="46.20816919952631" lon="11.899973675608635">
        <ele>2076.5900000000001</ele>
        <time>2017-07-05T10:51:11Z</time>
      </trkpt>
      <trkpt lat="46.208112789317966" lon="11.899970825761557">
        <ele>2075.1399999999999</ele>
        <time>2017-07-05T10:51:16Z</time>
      </trkpt>
      <trkpt lat="46.207999298349023" lon="11.899976022541523">
        <ele>2072.7399999999998</ele>
        <time>2017-07-05T10:51:29Z</time>
      </trkpt>
      <trkpt lat="46.207937439903617" lon="11.899967221543193">
        <ele>2072.2600000000002</ele>
        <time>2017-07-05T10:51:39Z</time>
      </trkpt>
      <trkpt lat="46.207887232303619" lon="11.899993875995278">
        <ele>2071.3000000000002</ele>
        <time>2017-07-05T10:51:48Z</time>
      </trkpt>
      <trkpt lat="46.20787750929594" lon="11.900003431364894">
        <ele>2070.8200000000002</ele>
        <time>2017-07-05T10:51:50Z</time>
      </trkpt>
      <trkpt lat="46.207876754924655" lon="11.899990690872073">
        <ele>2070.8200000000002</ele>
        <time>2017-07-05T10:52:01Z</time>
      </trkpt>
      <trkpt lat="46.207852447405457" lon="11.90001105889678">
        <ele>2069.8600000000001</ele>
        <time>2017-07-05T10:52:13Z</time>
      </trkpt>
      <trkpt lat="46.20784280821681" lon="11.900011897087097">
        <ele>2069.3800000000001</ele>
        <time>2017-07-05T10:52:14Z</time>
      </trkpt>
      <trkpt lat="46.207761755213141" lon="11.900044921785593">
        <ele>2066.4899999999998</ele>
        <time>2017-07-05T10:52:25Z</time>
      </trkpt>
      <trkpt lat="46.207684306427836" lon="11.900062020868063">
        <ele>2064.5700000000002</ele>
        <time>2017-07-05T10:52:36Z</time>
      </trkpt>
      <trkpt lat="46.207662932574749" lon="11.900093033909798">
        <ele>2063.1300000000001</ele>
        <time>2017-07-05T10:52:48Z</time>
      </trkpt>
      <trkpt lat="46.207628231495619" lon="11.900098482146859">
        <ele>2061.1999999999998</ele>
        <time>2017-07-05T10:52:58Z</time>
      </trkpt>
      <trkpt lat="46.207589507102966" lon="11.900059254840016">
        <ele>2059.2800000000002</ele>
        <time>2017-07-05T10:53:06Z</time>
      </trkpt>
      <trkpt lat="46.207567462697625" lon="11.900050202384591">
        <ele>2058.3200000000002</ele>
        <time>2017-07-05T10:53:19Z</time>
      </trkpt>
      <trkpt lat="46.207518596202135" lon="11.900015166029334">
        <ele>2056.8800000000001</ele>
        <time>2017-07-05T10:53:30Z</time>
      </trkpt>
      <trkpt lat="46.207474591210485" lon="11.899947356432676">
        <ele>2053.9899999999998</ele>
        <time>2017-07-05T10:53:41Z</time>
      </trkpt>
      <trkpt lat="46.207445673644543" lon="11.899916594848037">
        <ele>2052.0700000000002</ele>
        <time>2017-07-05T10:53:50Z</time>
      </trkpt>
      <trkpt lat="46.207416923716664" lon="11.899854149669409">
        <ele>2050.1500000000001</ele>
        <time>2017-07-05T10:54:01Z</time>
      </trkpt>
      <trkpt lat="46.207380797713995" lon="11.899854065850377">
        <ele>2048.23</ele>
        <time>2017-07-05T10:54:10Z</time>
      </trkpt>
      <trkpt lat="46.207343162968755" lon="11.899828668683767">
        <ele>2046.3</ele>
        <time>2017-07-05T10:54:19Z</time>
      </trkpt>
      <trkpt lat="46.207347270101309" lon="11.899815090000629">
        <ele>2045.8199999999999</ele>
        <time>2017-07-05T10:54:29Z</time>
      </trkpt>
      <trkpt lat="46.207305947318673" lon="11.899901842698455">
        <ele>2043.4200000000001</ele>
        <time>2017-07-05T10:54:41Z</time>
      </trkpt>
      <trkpt lat="46.207228247076273" lon="11.899958085268736">
        <ele>2040.54</ele>
        <time>2017-07-05T10:54:52Z</time>
      </trkpt>
      <trkpt lat="46.207165718078613" lon="11.899970071390271">
        <ele>2038.6099999999999</ele>
        <time>2017-07-05T10:55:00Z</time>
      </trkpt>
      <trkpt lat="46.207128670066595" lon="11.899991361424327">
        <ele>2037.1700000000001</ele>
        <time>2017-07-05T10:55:06Z</time>
      </trkpt>
      <trkpt lat="46.207093382254243" lon="11.900022542104125">
        <ele>2035.73</ele>
        <time>2017-07-05T10:55:16Z</time>
      </trkpt>
      <trkpt lat="46.20705314911902" lon="11.900086663663387">
        <ele>2033.8099999999999</ele>
        <time>2017-07-05T10:55:28Z</time>
      </trkpt>
      <trkpt lat="46.207047617062926" lon="11.900084065273404">
        <ele>2033.3299999999999</ele>
        <time>2017-07-05T10:55:38Z</time>
      </trkpt>
      <trkpt lat="46.207060189917684" lon="11.90010049380362">
        <ele>2033.3299999999999</ele>
        <time>2017-07-05T10:55:50Z</time>
      </trkpt>
      <trkpt lat="46.207072678953409" lon="11.900122202932835">
        <ele>2033.3299999999999</ele>
        <time>2017-07-05T10:56:09Z</time>
      </trkpt>
      <trkpt lat="46.207073852419853" lon="11.900120442733169">
        <ele>2033.3299999999999</ele>
        <time>2017-07-05T10:56:22Z</time>
      </trkpt>
      <trkpt lat="46.207070332020521" lon="11.900146258994937">
        <ele>2031.4000000000001</ele>
        <time>2017-07-05T10:56:35Z</time>
      </trkpt>
      <trkpt lat="46.207052897661924" lon="11.90017475746572">
        <ele>2029.48</ele>
        <time>2017-07-05T10:56:45Z</time>
      </trkpt>
      <trkpt lat="46.207030015066266" lon="11.900224545970559">
        <ele>2027.5599999999999</ele>
        <time>2017-07-05T10:56:54Z</time>
      </trkpt>
      <trkpt lat="46.207043426111341" lon="11.900264192372561">
        <ele>2026.1199999999999</ele>
        <time>2017-07-05T10:57:03Z</time>
      </trkpt>
      <trkpt lat="46.207044515758753" lon="11.900273663923144">
        <ele>2024.6700000000001</ele>
        <time>2017-07-05T10:57:12Z</time>
      </trkpt>
      <trkpt lat="46.207026746124029" lon="11.900311131030321">
        <ele>2024.1900000000001</ele>
        <time>2017-07-05T10:57:20Z</time>
      </trkpt>
      <trkpt lat="46.207016436383128" lon="11.900303922593594">
        <ele>2023.23</ele>
        <time>2017-07-05T10:57:32Z</time>
      </trkpt>
      <trkpt lat="46.207036636769772" lon="11.900325128808618">
        <ele>2021.79</ele>
        <time>2017-07-05T10:57:42Z</time>
      </trkpt>
      <trkpt lat="46.207040324807167" lon="11.90036628395319">
        <ele>2020.3499999999999</ele>
        <time>2017-07-05T10:57:51Z</time>
      </trkpt>
      <trkpt lat="46.207046359777451" lon="11.900382377207279">
        <ele>2019.8699999999999</ele>
        <time>2017-07-05T10:57:53Z</time>
      </trkpt>
      <trkpt lat="46.207021968439221" lon="11.900365194305778">
        <ele>2019.3900000000001</ele>
        <time>2017-07-05T10:58:01Z</time>
      </trkpt>
      <trkpt lat="46.206993469968438" lon="11.900399476289749">
        <ele>2017.9400000000001</ele>
        <time>2017-07-05T10:58:10Z</time>
      </trkpt>
      <trkpt lat="46.207009898498654" lon="11.900452114641666">
        <ele>2016.02</ele>
        <time>2017-07-05T10:58:21Z</time>
      </trkpt>
      <trkpt lat="46.206976873800159" lon="11.90048354677856">
        <ele>2014.5799999999999</ele>
        <time>2017-07-05T10:58:30Z</time>
      </trkpt>
      <trkpt lat="46.206964887678623" lon="11.900468543171883">
        <ele>2012.6600000000001</ele>
        <time>2017-07-05T10:58:39Z</time>
      </trkpt>
      <trkpt lat="46.206905543804169" lon="11.900511626154184">
        <ele>2010.25</ele>
        <time>2017-07-05T10:58:50Z</time>
      </trkpt>
      <trkpt lat="46.206893557682633" lon="11.900515146553516">
        <ele>2009.77</ele>
        <time>2017-07-05T10:58:59Z</time>
      </trkpt>
      <trkpt lat="46.206870088353753" lon="11.900585638359189">
        <ele>2008.3299999999999</ele>
        <time>2017-07-05T10:59:08Z</time>
      </trkpt>
      <trkpt lat="46.206851312890649" lon="11.900628134608269">
        <ele>2007.3699999999999</ele>
        <time>2017-07-05T10:59:18Z</time>
      </trkpt>
      <trkpt lat="46.20680982246995" lon="11.900663841515779">
        <ele>2004.49</ele>
        <time>2017-07-05T10:59:29Z</time>
      </trkpt>
      <trkpt lat="46.206794651225209" lon="11.900661746039987">
        <ele>2004.01</ele>
        <time>2017-07-05T10:59:33Z</time>
      </trkpt>
      <trkpt lat="46.206800350919366" lon="11.900677504017949">
        <ele>2003.04</ele>
        <time>2017-07-05T10:59:43Z</time>
      </trkpt>
      <trkpt lat="46.206797920167446" lon="11.90072980709374">
        <ele>2002.0799999999999</ele>
        <time>2017-07-05T10:59:53Z</time>
      </trkpt>
      <trkpt lat="46.206809487193823" lon="11.900740787386894">
        <ele>2000.1600000000001</ele>
        <time>2017-07-05T11:00:03Z</time>
      </trkpt>
      <trkpt lat="46.206785263493657" lon="11.900812033563852">
        <ele>1997.76</ele>
        <time>2017-07-05T11:00:14Z</time>
      </trkpt>
      <trkpt lat="46.206769421696663" lon="11.900797029957175">
        <ele>1997.76</ele>
        <time>2017-07-05T11:00:30Z</time>
      </trkpt>
      <trkpt lat="46.206757435575128" lon="11.900840448215604">
        <ele>1996.3199999999999</ele>
        <time>2017-07-05T11:00:40Z</time>
      </trkpt>
      <trkpt lat="46.206705719232559" lon="11.900896690785885">
        <ele>1993.4300000000001</ele>
        <time>2017-07-05T11:00:51Z</time>
      </trkpt>
      <trkpt lat="46.206652158871293" lon="11.900934912264347">
        <ele>1991.99</ele>
        <time>2017-07-05T11:00:58Z</time>
      </trkpt>
      <trkpt lat="46.206627851352096" lon="11.900978498160839">
        <ele>1991.51</ele>
        <time>2017-07-05T11:01:08Z</time>
      </trkpt>
      <trkpt lat="46.206640424206853" lon="11.901003560051322">
        <ele>1990.55</ele>
        <time>2017-07-05T11:01:22Z</time>
      </trkpt>
      <trkpt lat="46.206610249355435" lon="11.901050079613924">
        <ele>1989.0999999999999</ele>
        <time>2017-07-05T11:01:32Z</time>
      </trkpt>
      <trkpt lat="46.206593737006187" lon="11.901065083220601">
        <ele>1989.0999999999999</ele>
        <time>2017-07-05T11:01:44Z</time>
      </trkpt>
      <trkpt lat="46.206575380638242" lon="11.901082349941134">
        <ele>1989.0999999999999</ele>
        <time>2017-07-05T11:01:59Z</time>
      </trkpt>
      <trkpt lat="46.206580996513367" lon="11.901106489822268">
        <ele>1988.1400000000001</ele>
        <time>2017-07-05T11:02:09Z</time>
      </trkpt>
      <trkpt lat="46.206548810005188" lon="11.901134233921766">
        <ele>1986.22</ele>
        <time>2017-07-05T11:02:18Z</time>
      </trkpt>
      <trkpt lat="46.206546127796173" lon="11.901144795119762">
        <ele>1985.74</ele>
        <time>2017-07-05T11:02:31Z</time>
      </trkpt>
      <trkpt lat="46.20654696598649" lon="11.901145549491048">
        <ele>1985.74</ele>
        <time>2017-07-05T11:02:48Z</time>
      </trkpt>
      <trkpt lat="46.206526765599847" lon="11.901147561147809">
        <ele>1984.78</ele>
        <time>2017-07-05T11:02:58Z</time>
      </trkpt>
      <trkpt lat="46.206512851640582" lon="11.901139095425606">
        <ele>1985.26</ele>
        <time>2017-07-05T11:03:11Z</time>
      </trkpt>
      <trkpt lat="46.206506984308362" lon="11.901152171194553">
        <ele>1985.26</ele>
        <time>2017-07-05T11:03:20Z</time>
      </trkpt>
      <trkpt lat="46.206504050642252" lon="11.901170276105404">
        <ele>1985.26</ele>
        <time>2017-07-05T11:03:34Z</time>
      </trkpt>
      <trkpt lat="46.206485778093338" lon="11.901146471500397">
        <ele>1985.26</ele>
        <time>2017-07-05T11:03:46Z</time>
      </trkpt>
      <trkpt lat="46.206467589363456" lon="11.9011256005615">
        <ele>1985.26</ele>
        <time>2017-07-05T11:04:03Z</time>
      </trkpt>
      <trkpt lat="46.206456106156111" lon="11.901157619431615">
        <ele>1983.8199999999999</ele>
        <time>2017-07-05T11:04:20Z</time>
      </trkpt>
      <trkpt lat="46.206443784758449" lon="11.901135323569179">
        <ele>1982.8599999999999</ele>
        <time>2017-07-05T11:04:32Z</time>
      </trkpt>
      <trkpt lat="46.206421572715044" lon="11.901129959151149">
        <ele>1981.9000000000001</ele>
        <time>2017-07-05T11:04:45Z</time>
      </trkpt>
      <trkpt lat="46.206402461975813" lon="11.901101376861334">
        <ele>1981.4100000000001</ele>
        <time>2017-07-05T11:05:00Z</time>
      </trkpt>
      <trkpt lat="46.206381255760789" lon="11.901058629155159">
        <ele>1980.45</ele>
        <time>2017-07-05T11:05:08Z</time>
      </trkpt>
      <trkpt lat="46.206375639885664" lon="11.901035914197564">
        <ele>1980.45</ele>
        <time>2017-07-05T11:05:19Z</time>
      </trkpt>
      <trkpt lat="46.20636080391705" lon="11.901034153997898">
        <ele>1980.45</ele>
        <time>2017-07-05T11:05:30Z</time>
      </trkpt>
      <trkpt lat="46.206339513882995" lon="11.901034573093057">
        <ele>1979.97</ele>
        <time>2017-07-05T11:05:38Z</time>
      </trkpt>
      <trkpt lat="46.206342950463295" lon="11.901015462353826">
        <ele>1979.49</ele>
        <time>2017-07-05T11:05:47Z</time>
      </trkpt>
      <trkpt lat="46.206340854987502" lon="11.901018982753158">
        <ele>1979.01</ele>
        <time>2017-07-05T11:06:01Z</time>
      </trkpt>
      <trkpt lat="46.206324007362127" lon="11.901027029380202">
        <ele>1979.01</ele>
        <time>2017-07-05T11:06:16Z</time>
      </trkpt>
      <trkpt lat="46.206294586881995" lon="11.901067597791553">
        <ele>1978.53</ele>
        <time>2017-07-05T11:06:29Z</time>
      </trkpt>
      <trkpt lat="46.206357954069972" lon="11.901108836755157">
        <ele>1978.53</ele>
        <time>2017-07-05T11:06:42Z</time>
      </trkpt>
      <trkpt lat="46.206348147243261" lon="11.901107160374522">
        <ele>1978.05</ele>
        <time>2017-07-05T11:06:44Z</time>
      </trkpt>
      <trkpt lat="46.206273380666971" lon="11.901068519800901">
        <ele>1975.1700000000001</ele>
        <time>2017-07-05T11:06:58Z</time>
      </trkpt>
      <trkpt lat="46.206222753971815" lon="11.901069106534123">
        <ele>1974.2</ele>
        <time>2017-07-05T11:07:10Z</time>
      </trkpt>
      <trkpt lat="46.206187717616558" lon="11.90107673406601">
        <ele>1969.8800000000001</ele>
        <time>2017-07-05T11:07:16Z</time>
      </trkpt>
      <trkpt lat="46.206180341541767" lon="11.90108310431242">
        <ele>1973.72</ele>
        <time>2017-07-05T11:07:17Z</time>
      </trkpt>
      <trkpt lat="46.206156956031919" lon="11.901120152324438">
        <ele>1971.3199999999999</ele>
        <time>2017-07-05T11:07:27Z</time>
      </trkpt>
      <trkpt lat="46.206148322671652" lon="11.901145884767175">
        <ele>1970.8399999999999</ele>
        <time>2017-07-05T11:07:31Z</time>
      </trkpt>
      <trkpt lat="46.20613600127399" lon="11.901172706857324">
        <ele>1970.3599999999999</ele>
        <time>2017-07-05T11:07:34Z</time>
      </trkpt>
      <trkpt lat="46.206095768138766" lon="11.901224423199892">
        <ele>1969.8800000000001</ele>
        <time>2017-07-05T11:07:40Z</time>
      </trkpt>
      <trkpt lat="46.206089565530419" lon="11.901196511462331">
        <ele>1970.3599999999999</ele>
        <time>2017-07-05T11:07:48Z</time>
      </trkpt>
      <trkpt lat="46.206070287153125" lon="11.901227021589875">
        <ele>1969.8800000000001</ele>
        <time>2017-07-05T11:08:03Z</time>
      </trkpt>
      <trkpt lat="46.206080093979836" lon="11.901251412928104">
        <ele>1970.3599999999999</ele>
        <time>2017-07-05T11:08:19Z</time>
      </trkpt>
      <trkpt lat="46.206072550266981" lon="11.901266081258655">
        <ele>1970.3599999999999</ele>
        <time>2017-07-05T11:08:33Z</time>
      </trkpt>
      <trkpt lat="46.206070454791188" lon="11.90124437212944">
        <ele>1970.8399999999999</ele>
        <time>2017-07-05T11:08:53Z</time>
      </trkpt>
      <trkpt lat="46.206053355708718" lon="11.90120724029839">
        <ele>1970.3599999999999</ele>
        <time>2017-07-05T11:09:10Z</time>
      </trkpt>
      <trkpt lat="46.206053271889687" lon="11.901192404329777">
        <ele>1970.3599999999999</ele>
        <time>2017-07-05T11:09:20Z</time>
      </trkpt>
      <trkpt lat="46.206062659621239" lon="11.901187710464001">
        <ele>1970.3599999999999</ele>
        <time>2017-07-05T11:09:33Z</time>
      </trkpt>
      <trkpt lat="46.206045895814896" lon="11.901210676878691">
        <ele>1970.3599999999999</ele>
        <time>2017-07-05T11:09:50Z</time>
      </trkpt>
      <trkpt lat="46.206022342666984" lon="11.901259711012244">
        <ele>1970.3599999999999</ele>
        <time>2017-07-05T11:09:58Z</time>
      </trkpt>
      <trkpt lat="46.206006668508053" lon="11.901265410706401">
        <ele>1970.8399999999999</ele>
        <time>2017-07-05T11:10:08Z</time>
      </trkpt>
      <trkpt lat="46.206014463678002" lon="11.901267087087035">
        <ele>1970.8399999999999</ele>
        <time>2017-07-05T11:10:22Z</time>
      </trkpt>
      <trkpt lat="46.206028377637267" lon="11.901238169521093">
        <ele>1971.8</ele>
        <time>2017-07-05T11:10:36Z</time>
      </trkpt>
      <trkpt lat="46.206021253019571" lon="11.901265494525433">
        <ele>1970.8399999999999</ele>
        <time>2017-07-05T11:10:49Z</time>
      </trkpt>
      <trkpt lat="46.206023013219237" lon="11.90126390196383">
        <ele>1970.8399999999999</ele>
        <time>2017-07-05T11:11:07Z</time>
      </trkpt>
      <trkpt lat="46.206035502254963" lon="11.90127270296216">
        <ele>1970.3599999999999</ele>
        <time>2017-07-05T11:11:24Z</time>
      </trkpt>
      <trkpt lat="46.206031395122409" lon="11.901269014924765">
        <ele>1969.8800000000001</ele>
        <time>2017-07-05T11:11:35Z</time>
      </trkpt>
      <trkpt lat="46.206043381243944" lon="11.901257112622261">
        <ele>1969.8800000000001</ele>
        <time>2017-07-05T11:11:58Z</time>
      </trkpt>
      <trkpt lat="46.20603047311306" lon="11.901271948590875">
        <ele>1969.8800000000001</ele>
        <time>2017-07-05T11:12:09Z</time>
      </trkpt>
      <trkpt lat="46.206071376800537" lon="11.901261890307069">
        <ele>1969.8800000000001</ele>
        <time>2017-07-05T11:12:35Z</time>
      </trkpt>
      <trkpt lat="46.206053858622909" lon="11.901277145370841">
        <ele>1970.3599999999999</ele>
        <time>2017-07-05T11:12:48Z</time>
      </trkpt>
      <trkpt lat="46.206046901643276" lon="11.901272619143128">
        <ele>1970.8399999999999</ele>
        <time>2017-07-05T11:13:05Z</time>
      </trkpt>
      <trkpt lat="46.206044806167483" lon="11.901263734325767">
        <ele>1970.3599999999999</ele>
        <time>2017-07-05T11:13:16Z</time>
      </trkpt>
      <trkpt lat="46.206062072888017" lon="11.901230290532112">
        <ele>1969.8800000000001</ele>
        <time>2017-07-05T11:13:38Z</time>
      </trkpt>
      <trkpt lat="46.206028377637267" lon="11.90123163163662">
        <ele>1970.3599999999999</ele>
        <time>2017-07-05T11:13:56Z</time>
      </trkpt>
      <trkpt lat="46.206037681549788" lon="11.901207575574517">
        <ele>1969.8800000000001</ele>
        <time>2017-07-05T11:14:17Z</time>
      </trkpt>
      <trkpt lat="46.206028545275331" lon="11.901200031861663">
        <ele>1970.3599999999999</ele>
        <time>2017-07-05T11:14:34Z</time>
      </trkpt>
      <trkpt lat="46.206018067896366" lon="11.901218723505735">
        <ele>1970.8399999999999</ele>
        <time>2017-07-05T11:14:50Z</time>
      </trkpt>
      <trkpt lat="46.206024941056967" lon="11.901212437078357">
        <ele>1970.3599999999999</ele>
        <time>2017-07-05T11:15:13Z</time>
      </trkpt>
      <trkpt lat="46.206017062067986" lon="11.901286281645298">
        <ele>1969.8800000000001</ele>
        <time>2017-07-05T11:15:26Z</time>
      </trkpt>
      <trkpt lat="46.205989317968488" lon="11.901289047673345">
        <ele>1968.9200000000001</ele>
        <time>2017-07-05T11:15:37Z</time>
      </trkpt>
      <trkpt lat="46.205981438979506" lon="11.901269434019923">
        <ele>1967.96</ele>
        <time>2017-07-05T11:15:47Z</time>
      </trkpt>
      <trkpt lat="46.205973057076335" lon="11.901243450120091">
        <ele>1967.96</ele>
        <time>2017-07-05T11:16:16Z</time>
      </trkpt>
      <trkpt lat="46.205945815891027" lon="11.901239678263664">
        <ele>1969.4000000000001</ele>
        <time>2017-07-05T11:16:38Z</time>
      </trkpt>
      <trkpt lat="46.205954449251294" lon="11.90123800188303">
        <ele>1967.96</ele>
        <time>2017-07-05T11:17:09Z</time>
      </trkpt>
      <trkpt lat="46.205905331298709" lon="11.901239845901728">
        <ele>1966.51</ele>
        <time>2017-07-05T11:17:24Z</time>
      </trkpt>
      <trkpt lat="46.205860320478678" lon="11.901132306084037">
        <ele>1963.6300000000001</ele>
        <time>2017-07-05T11:17:35Z</time>
      </trkpt>
      <trkpt lat="46.205822853371501" lon="11.901087379083037">
        <ele>1961.23</ele>
        <time>2017-07-05T11:17:45Z</time>
      </trkpt>
      <trkpt lat="46.205757558345795" lon="11.901041530072689">
        <ele>1960.27</ele>
        <time>2017-07-05T11:17:56Z</time>
      </trkpt>
      <trkpt lat="46.205735430121422" lon="11.901041865348816">
        <ele>1959.3</ele>
        <time>2017-07-05T11:18:08Z</time>
      </trkpt>
      <trkpt lat="46.205719253048301" lon="11.901039350777864">
        <ele>1959.3</ele>
        <time>2017-07-05T11:18:18Z</time>
      </trkpt>
      <trkpt lat="46.205700561404228" lon="11.901032561436296">
        <ele>1958.8199999999999</ele>
        <time>2017-07-05T11:18:29Z</time>
      </trkpt>
      <trkpt lat="46.205710619688034" lon="11.901056617498398">
        <ele>1957.3800000000001</ele>
        <time>2017-07-05T11:18:40Z</time>
      </trkpt>
      <trkpt lat="46.205703495070338" lon="11.901055108755827">
        <ele>1954.98</ele>
        <time>2017-07-05T11:18:52Z</time>
      </trkpt>
      <trkpt lat="46.205693939700723" lon="11.901078410446644">
        <ele>1953.0599999999999</ele>
        <time>2017-07-05T11:19:03Z</time>
      </trkpt>
      <trkpt lat="46.205687401816249" lon="11.901080003008246">
        <ele>1952.0899999999999</ele>
        <time>2017-07-05T11:19:15Z</time>
      </trkpt>
      <trkpt lat="46.205684635788202" lon="11.901107495650649">
        <ele>1951.1300000000001</ele>
        <time>2017-07-05T11:19:30Z</time>
      </trkpt>
      <trkpt lat="46.205691592767835" lon="11.901124007999897">
        <ele>1950.6500000000001</ele>
        <time>2017-07-05T11:19:42Z</time>
      </trkpt>
      <trkpt lat="46.205667620524764" lon="11.90112610347569">
        <ele>1949.6900000000001</ele>
        <time>2017-07-05T11:19:55Z</time>
      </trkpt>
      <trkpt lat="46.205691425129771" lon="11.90114714205265">
        <ele>1948.73</ele>
        <time>2017-07-05T11:20:09Z</time>
      </trkpt>
      <trkpt lat="46.205703495070338" lon="11.901144040748477">
        <ele>1946.8099999999999</ele>
        <time>2017-07-05T11:20:19Z</time>
      </trkpt>
      <trkpt lat="46.205713218078017" lon="11.901165246963501">
        <ele>1946.8099999999999</ele>
        <time>2017-07-05T11:20:30Z</time>
      </trkpt>
      <trkpt lat="46.205729814246297" lon="11.901189470663667">
        <ele>1946.3299999999999</ele>
        <time>2017-07-05T11:20:42Z</time>
      </trkpt>
      <trkpt lat="46.205716151744127" lon="11.901185028254986">
        <ele>1945.3599999999999</ele>
        <time>2017-07-05T11:20:53Z</time>
      </trkpt>
      <trkpt lat="46.205719085410237" lon="11.90119500271976">
        <ele>1944.4000000000001</ele>
        <time>2017-07-05T11:21:04Z</time>
      </trkpt>
      <trkpt lat="46.205714978277683" lon="11.90121746622026">
        <ele>1945.8499999999999</ele>
        <time>2017-07-05T11:21:15Z</time>
      </trkpt>
      <trkpt lat="46.20569234713912" lon="11.901190392673016">
        <ele>1944.4000000000001</ele>
        <time>2017-07-05T11:21:26Z</time>
      </trkpt>
      <trkpt lat="46.205686312168837" lon="11.901174718514085">
        <ele>1944.4000000000001</ele>
        <time>2017-07-05T11:21:39Z</time>
      </trkpt>
      <trkpt lat="46.205689162015915" lon="11.901182597503066">
        <ele>1944.4000000000001</ele>
        <time>2017-07-05T11:21:52Z</time>
      </trkpt>
      <trkpt lat="46.205670638009906" lon="11.901164576411247">
        <ele>1944.4000000000001</ele>
        <time>2017-07-05T11:22:07Z</time>
      </trkpt>
      <trkpt lat="46.20566887781024" lon="11.901167845353484">
        <ele>1943.4400000000001</ele>
        <time>2017-07-05T11:22:22Z</time>
      </trkpt>
      <trkpt lat="46.205680444836617" lon="11.9011808373034">
        <ele>1942.96</ele>
        <time>2017-07-05T11:22:32Z</time>
      </trkpt>
      <trkpt lat="46.205683462321758" lon="11.90119843930006">
        <ele>1942</ele>
        <time>2017-07-05T11:22:42Z</time>
      </trkpt>
      <trkpt lat="46.205691425129771" lon="11.901212520897388">
        <ele>1942</ele>
        <time>2017-07-05T11:22:53Z</time>
      </trkpt>
      <trkpt lat="46.205695196986198" lon="11.901240767911077">
        <ele>1941.52</ele>
        <time>2017-07-05T11:23:06Z</time>
      </trkpt>
      <trkpt lat="46.205706764012575" lon="11.901290221139789">
        <ele>1941.04</ele>
        <time>2017-07-05T11:23:17Z</time>
      </trkpt>
      <trkpt lat="46.205698549747467" lon="11.90129172988236">
        <ele>1940.5599999999999</ele>
        <time>2017-07-05T11:23:29Z</time>
      </trkpt>
      <trkpt lat="46.205655466765165" lon="11.901306062936783">
        <ele>1938.6400000000001</ele>
        <time>2017-07-05T11:23:39Z</time>
      </trkpt>
      <trkpt lat="46.205648928880692" lon="11.901301620528102">
        <ele>1937.6700000000001</ele>
        <time>2017-07-05T11:23:47Z</time>
      </trkpt>
      <trkpt lat="46.205630823969841" lon="11.901288963854313">
        <ele>1937.1900000000001</ele>
        <time>2017-07-05T11:23:59Z</time>
      </trkpt>
      <trkpt lat="46.205615652725101" lon="11.901324838399887">
        <ele>1935.75</ele>
        <time>2017-07-05T11:24:10Z</time>
      </trkpt>
      <trkpt lat="46.205621771514416" lon="11.901334980502725">
        <ele>1934.3099999999999</ele>
        <time>2017-07-05T11:24:22Z</time>
      </trkpt>
      <trkpt lat="46.205593273043633" lon="11.901305895298719">
        <ele>1933.8299999999999</ele>
        <time>2017-07-05T11:24:26Z</time>
      </trkpt>
      <trkpt lat="46.205564690753818" lon="11.901280833408237">
        <ele>1932.3900000000001</ele>
        <time>2017-07-05T11:24:30Z</time>
      </trkpt>
      <trkpt lat="46.205542646348476" lon="11.901282342150807">
        <ele>1931.4300000000001</ele>
        <time>2017-07-05T11:24:37Z</time>
      </trkpt>
      <trkpt lat="46.205525631085038" lon="11.901284018531442">
        <ele>1931.4300000000001</ele>
        <time>2017-07-05T11:24:39Z</time>
      </trkpt>
      <trkpt lat="46.205447763204575" lon="11.901230541989207">
        <ele>1931.4300000000001</ele>
        <time>2017-07-05T11:24:49Z</time>
      </trkpt>
      <trkpt lat="46.20540208183229" lon="11.901197601109743">
        <ele>1929.5</ele>
        <time>2017-07-05T11:25:00Z</time>
      </trkpt>
      <trkpt lat="46.205392861738801" lon="11.901170862838626">
        <ele>1928.54</ele>
        <time>2017-07-05T11:25:02Z</time>
      </trkpt>
      <trkpt lat="46.20535958558321" lon="11.901127947494388">
        <ele>1927.0999999999999</ele>
        <time>2017-07-05T11:25:10Z</time>
      </trkpt>
      <trkpt lat="46.205283561721444" lon="11.901077404618263">
        <ele>1924.22</ele>
        <time>2017-07-05T11:25:19Z</time>
      </trkpt>
      <trkpt lat="46.205278113484383" lon="11.901072878390551">
        <ele>1924.22</ele>
        <time>2017-07-05T11:25:20Z</time>
      </trkpt>
      <trkpt lat="46.205205274745822" lon="11.900951256975532">
        <ele>1923.25</ele>
        <time>2017-07-05T11:25:31Z</time>
      </trkpt>
      <trkpt lat="46.205157749354839" lon="11.900815470144153">
        <ele>1923.74</ele>
        <time>2017-07-05T11:25:44Z</time>
      </trkpt>
      <trkpt lat="46.205093041062355" lon="11.900734500959516">
        <ele>1924.7</ele>
        <time>2017-07-05T11:25:55Z</time>
      </trkpt>
      <trkpt lat="46.205065632238984" lon="11.900658141821623">
        <ele>1926.6199999999999</ele>
        <time>2017-07-05T11:26:08Z</time>
      </trkpt>
      <trkpt lat="46.20504685677588" lon="11.900626793503761">
        <ele>1928.0599999999999</ele>
        <time>2017-07-05T11:26:20Z</time>
      </trkpt>
      <trkpt lat="46.204987848177552" lon="11.900620758533478">
        <ele>1928.54</ele>
        <time>2017-07-05T11:26:31Z</time>
      </trkpt>
      <trkpt lat="46.204977706074715" lon="11.900624195113778">
        <ele>1928.54</ele>
        <time>2017-07-05T11:26:32Z</time>
      </trkpt>
      <trkpt lat="46.204946441575885" lon="11.900634001940489">
        <ele>1927.5799999999999</ele>
        <time>2017-07-05T11:26:35Z</time>
      </trkpt>
      <trkpt lat="46.204887600615621" lon="11.9006213452667">
        <ele>1928.54</ele>
        <time>2017-07-05T11:26:46Z</time>
      </trkpt>
      <trkpt lat="46.20487779378891" lon="11.900619501248002">
        <ele>1928.54</ele>
        <time>2017-07-05T11:27:03Z</time>
      </trkpt>
      <trkpt lat="46.204851558431983" lon="11.900616064667702">
        <ele>1929.02</ele>
        <time>2017-07-05T11:27:15Z</time>
      </trkpt>
      <trkpt lat="46.20482599362731" lon="11.900583961978555">
        <ele>1930.95</ele>
        <time>2017-07-05T11:27:25Z</time>
      </trkpt>
      <trkpt lat="46.20481233112514" lon="11.900582620874047">
        <ele>1932.3900000000001</ele>
        <time>2017-07-05T11:27:35Z</time>
      </trkpt>
      <trkpt lat="46.204799339175224" lon="11.900568287819624">
        <ele>1933.3499999999999</ele>
        <time>2017-07-05T11:27:46Z</time>
      </trkpt>
      <trkpt lat="46.204788023605943" lon="11.900540795177221">
        <ele>1934.3099999999999</ele>
        <time>2017-07-05T11:27:57Z</time>
      </trkpt>
      <trkpt lat="46.204782156273723" lon="11.900509614497423">
        <ele>1935.27</ele>
        <time>2017-07-05T11:28:07Z</time>
      </trkpt>
      <trkpt lat="46.204755250364542" lon="11.900500310584903">
        <ele>1936.23</ele>
        <time>2017-07-05T11:28:18Z</time>
      </trkpt>
      <trkpt lat="46.204739743843675" lon="11.900492263957858">
        <ele>1937.1900000000001</ele>
        <time>2017-07-05T11:28:27Z</time>
      </trkpt>
      <trkpt lat="46.204717950895429" lon="11.900504250079393">
        <ele>1935.75</ele>
        <time>2017-07-05T11:28:37Z</time>
      </trkpt>
      <trkpt lat="46.204695487394929" lon="11.900512631982565">
        <ele>1934.79</ele>
        <time>2017-07-05T11:28:48Z</time>
      </trkpt>
      <trkpt lat="46.204689117148519" lon="11.900482121855021">
        <ele>1934.3099999999999</ele>
        <time>2017-07-05T11:29:00Z</time>
      </trkpt>
      <trkpt lat="46.204658607020974" lon="11.900482876226306">
        <ele>1932.3900000000001</ele>
        <time>2017-07-05T11:29:12Z</time>
      </trkpt>
      <trkpt lat="46.204635305330157" lon="11.900451863184571">
        <ele>1931.4300000000001</ele>
        <time>2017-07-05T11:29:22Z</time>
      </trkpt>
      <trkpt lat="46.20459389872849" lon="11.900459406897426">
        <ele>1929.02</ele>
        <time>2017-07-05T11:29:32Z</time>
      </trkpt>
      <trkpt lat="46.20459146797657" lon="11.900407858192921">
        <ele>1927.5799999999999</ele>
        <time>2017-07-05T11:29:43Z</time>
      </trkpt>
      <trkpt lat="46.204575039446354" lon="11.900357566773891">
        <ele>1926.1400000000001</ele>
        <time>2017-07-05T11:29:52Z</time>
      </trkpt>
      <trkpt lat="46.204556012526155" lon="11.900307526811957">
        <ele>1923.74</ele>
        <time>2017-07-05T11:30:02Z</time>
      </trkpt>
      <trkpt lat="46.204544194042683" lon="11.900308197364211">
        <ele>1922.29</ele>
        <time>2017-07-05T11:30:11Z</time>
      </trkpt>
      <trkpt lat="46.204506643116474" lon="11.90028028562665">
        <ele>1919.8900000000001</ele>
        <time>2017-07-05T11:30:23Z</time>
      </trkpt>
      <trkpt lat="46.204432379454374" lon="11.900229575112462">
        <ele>1917.01</ele>
        <time>2017-07-05T11:30:36Z</time>
      </trkpt>
      <trkpt lat="46.204373203217983" lon="11.900183642283082">
        <ele>1914.1199999999999</ele>
        <time>2017-07-05T11:30:48Z</time>
      </trkpt>
      <trkpt lat="46.204347470775247" lon="11.90017668530345">
        <ele>1912.6800000000001</ele>
        <time>2017-07-05T11:30:58Z</time>
      </trkpt>
      <trkpt lat="46.20437110774219" lon="11.900185737758875">
        <ele>1912.6800000000001</ele>
        <time>2017-07-05T11:31:14Z</time>
      </trkpt>
      <trkpt lat="46.204351158812642" lon="11.900150282308459">
        <ele>1912.2</ele>
        <time>2017-07-05T11:31:27Z</time>
      </trkpt>
      <trkpt lat="46.204346213489771" lon="11.900158580392599">
        <ele>1912.6800000000001</ele>
        <time>2017-07-05T11:31:43Z</time>
      </trkpt>
      <trkpt lat="46.204353170469403" lon="11.900161765515804">
        <ele>1912.6800000000001</ele>
        <time>2017-07-05T11:31:56Z</time>
      </trkpt>
      <trkpt lat="46.204361552372575" lon="11.900178445503116">
        <ele>1911.72</ele>
        <time>2017-07-05T11:32:12Z</time>
      </trkpt>
      <trkpt lat="46.204336658120155" lon="11.900183223187923">
        <ele>1911.72</ele>
        <time>2017-07-05T11:32:30Z</time>
      </trkpt>
      <trkpt lat="46.204343782737851" lon="11.900189844891429">
        <ele>1912.2</ele>
        <time>2017-07-05T11:32:45Z</time>
      </trkpt>
      <trkpt lat="46.204327186569571" lon="11.900188336148858">
        <ele>1912.2</ele>
        <time>2017-07-05T11:33:02Z</time>
      </trkpt>
      <trkpt lat="46.204337831586599" lon="11.90021239221096">
        <ele>1912.2</ele>
        <time>2017-07-05T11:33:20Z</time>
      </trkpt>
      <trkpt lat="46.204323247075081" lon="11.900184396654367">
        <ele>1912.2</ele>
        <time>2017-07-05T11:33:38Z</time>
      </trkpt>
      <trkpt lat="46.204339005053043" lon="11.900225132703781">
        <ele>1912.2</ele>
        <time>2017-07-05T11:34:01Z</time>
      </trkpt>
      <trkpt lat="46.204318972304463" lon="11.900185402482748">
        <ele>1912.2</ele>
        <time>2017-07-05T11:34:21Z</time>
      </trkpt>
      <trkpt lat="46.204324755817652" lon="11.900202333927155">
        <ele>1912.2</ele>
        <time>2017-07-05T11:34:41Z</time>
      </trkpt>
      <trkpt lat="46.204311763867736" lon="11.900178948417306">
        <ele>1912.2</ele>
        <time>2017-07-05T11:34:57Z</time>
      </trkpt>
      <trkpt lat="46.204334059730172" lon="11.900228317826986">
        <ele>1912.2</ele>
        <time>2017-07-05T11:35:11Z</time>
      </trkpt>
      <trkpt lat="46.204409077763557" lon="11.900336192920804">
        <ele>1912.2</ele>
        <time>2017-07-05T11:35:32Z</time>
      </trkpt>
      <trkpt lat="46.204314948990941" lon="11.900215996429324">
        <ele>1911.72</ele>
        <time>2017-07-05T11:35:45Z</time>
      </trkpt>
      <trkpt lat="46.20427580550313" lon="11.900178613141179">
        <ele>1911.72</ele>
        <time>2017-07-05T11:36:05Z</time>
      </trkpt>
      <trkpt lat="46.204238086938858" lon="11.900159670040011">
        <ele>1910.76</ele>
        <time>2017-07-05T11:36:16Z</time>
      </trkpt>
      <trkpt lat="46.204215288162231" lon="11.90015472471714">
        <ele>1908.8299999999999</ele>
        <time>2017-07-05T11:36:29Z</time>
      </trkpt>
      <trkpt lat="46.204192405566573" lon="11.900134608149529">
        <ele>1907.8699999999999</ele>
        <time>2017-07-05T11:36:38Z</time>
      </trkpt>
      <trkpt lat="46.204140605404973" lon="11.900087585672736">
        <ele>1906.9100000000001</ele>
        <time>2017-07-05T11:36:48Z</time>
      </trkpt>
      <trkpt lat="46.204092744737864" lon="11.900066798552871">
        <ele>1905.47</ele>
        <time>2017-07-05T11:36:58Z</time>
      </trkpt>
      <trkpt lat="46.204045973718166" lon="11.900027822703123">
        <ele>1903.0699999999999</ele>
        <time>2017-07-05T11:37:10Z</time>
      </trkpt>
      <trkpt lat="46.20400951243937" lon="11.900032181292772">
        <ele>1900.6600000000001</ele>
        <time>2017-07-05T11:37:23Z</time>
      </trkpt>
      <trkpt lat="46.203946061432362" lon="11.900005610659719">
        <ele>1897.78</ele>
        <time>2017-07-05T11:37:34Z</time>
      </trkpt>
      <trkpt lat="46.203878503292799" lon="11.900013154372573">
        <ele>1895.3800000000001</ele>
        <time>2017-07-05T11:37:45Z</time>
      </trkpt>
      <trkpt lat="46.20379644446075" lon="11.900011729449034">
        <ele>1892.49</ele>
        <time>2017-07-05T11:37:58Z</time>
      </trkpt>
      <trkpt lat="46.203772472217679" lon="11.90007459372282">
        <ele>1890.5699999999999</ele>
        <time>2017-07-05T11:38:09Z</time>
      </trkpt>
      <trkpt lat="46.203757468611002" lon="11.900125052779913">
        <ele>1888.6500000000001</ele>
        <time>2017-07-05T11:38:18Z</time>
      </trkpt>
      <trkpt lat="46.203749924898148" lon="11.900175595656037">
        <ele>1886.72</ele>
        <time>2017-07-05T11:38:30Z</time>
      </trkpt>
      <trkpt lat="46.203747326508164" lon="11.900191772729158">
        <ele>1885.28</ele>
        <time>2017-07-05T11:38:39Z</time>
      </trkpt>
      <trkpt lat="46.203738441690803" lon="11.900256397202611">
        <ele>1882.8800000000001</ele>
        <time>2017-07-05T11:38:50Z</time>
      </trkpt>
      <trkpt lat="46.203683372586966" lon="11.90028129145503">
        <ele>1880.48</ele>
        <time>2017-07-05T11:39:03Z</time>
      </trkpt>
      <trkpt lat="46.20367038063705" lon="11.900350525975227">
        <ele>1878.55</ele>
        <time>2017-07-05T11:39:14Z</time>
      </trkpt>
      <trkpt lat="46.203693933784962" lon="11.900396123528481">
        <ele>1876.1500000000001</ele>
        <time>2017-07-05T11:39:25Z</time>
      </trkpt>
      <trkpt lat="46.20367968454957" lon="11.900450773537159">
        <ele>1874.71</ele>
        <time>2017-07-05T11:39:35Z</time>
      </trkpt>
      <trkpt lat="46.203683288767934" lon="11.900482289493084">
        <ele>1871.8199999999999</ele>
        <time>2017-07-05T11:39:48Z</time>
      </trkpt>
      <trkpt lat="46.203665938228369" lon="11.900537107139826">
        <ele>1870.3800000000001</ele>
        <time>2017-07-05T11:39:59Z</time>
      </trkpt>
      <trkpt lat="46.203685300424695" lon="11.900602569803596">
        <ele>1867.98</ele>
        <time>2017-07-05T11:40:10Z</time>
      </trkpt>
      <trkpt lat="46.203629225492477" lon="11.900569964200258">
        <ele>1866.54</ele>
        <time>2017-07-05T11:40:20Z</time>
      </trkpt>
      <trkpt lat="46.203591171652079" lon="11.900560157373548">
        <ele>1865.0899999999999</ele>
        <time>2017-07-05T11:40:30Z</time>
      </trkpt>
      <trkpt lat="46.203605337068439" lon="11.900605587288737">
        <ele>1863.1700000000001</ele>
        <time>2017-07-05T11:40:40Z</time>
      </trkpt>
      <trkpt lat="46.20363718830049" lon="11.900690663605928">
        <ele>1861.25</ele>
        <time>2017-07-05T11:40:51Z</time>
      </trkpt>
      <trkpt lat="46.203672224655747" lon="11.900715222582221">
        <ele>1859.8099999999999</ele>
        <time>2017-07-05T11:41:00Z</time>
      </trkpt>
      <trkpt lat="46.203686641529202" lon="11.900785965844989">
        <ele>1857.4000000000001</ele>
        <time>2017-07-05T11:41:10Z</time>
      </trkpt>
      <trkpt lat="46.203650934621692" lon="11.900811865925789">
        <ele>1856.4400000000001</ele>
        <time>2017-07-05T11:41:18Z</time>
      </trkpt>
      <trkpt lat="46.203667614609003" lon="11.900878837332129">
        <ele>1854.04</ele>
        <time>2017-07-05T11:41:29Z</time>
      </trkpt>
      <trkpt lat="46.203683540225029" lon="11.900913454592228">
        <ele>1852.1199999999999</ele>
        <time>2017-07-05T11:41:39Z</time>
      </trkpt>
      <trkpt lat="46.203695945441723" lon="11.900959555059671">
        <ele>1850.1900000000001</ele>
        <time>2017-07-05T11:41:50Z</time>
      </trkpt>
      <trkpt lat="46.203697957098484" lon="11.900999369099736">
        <ele>1848.75</ele>
        <time>2017-07-05T11:42:02Z</time>
      </trkpt>
      <trkpt lat="46.203717067837715" lon="11.901028035208583">
        <ele>1847.3099999999999</ele>
        <time>2017-07-05T11:42:16Z</time>
      </trkpt>
      <trkpt lat="46.203716481104493" lon="11.901089390739799">
        <ele>1845.3900000000001</ele>
        <time>2017-07-05T11:42:26Z</time>
      </trkpt>
      <trkpt lat="46.203714301809669" lon="11.901149740442634">
        <ele>1844.4300000000001</ele>
        <time>2017-07-05T11:42:35Z</time>
      </trkpt>
      <trkpt lat="46.203683959320188" lon="11.901139011606574">
        <ele>1842.5</ele>
        <time>2017-07-05T11:42:45Z</time>
      </trkpt>
      <trkpt lat="46.203657723963261" lon="11.90116030164063">
        <ele>1841.0599999999999</ele>
        <time>2017-07-05T11:42:54Z</time>
      </trkpt>
      <trkpt lat="46.203651437535882" lon="11.90119550563395">
        <ele>1839.1400000000001</ele>
        <time>2017-07-05T11:43:02Z</time>
      </trkpt>
      <trkpt lat="46.203660573810339" lon="11.901224590837955">
        <ele>1837.22</ele>
        <time>2017-07-05T11:43:10Z</time>
      </trkpt>
      <trkpt lat="46.203668704256415" lon="11.901262477040291">
        <ele>1835.29</ele>
        <time>2017-07-05T11:43:19Z</time>
      </trkpt>
      <trkpt lat="46.203682785853744" lon="11.901342775672674">
        <ele>1833.8499999999999</ele>
        <time>2017-07-05T11:43:28Z</time>
      </trkpt>
      <trkpt lat="46.203633500263095" lon="11.9013880379498">
        <ele>1831.9300000000001</ele>
        <time>2017-07-05T11:43:37Z</time>
      </trkpt>
      <trkpt lat="46.203628303483129" lon="11.901441598311067">
        <ele>1829.53</ele>
        <time>2017-07-05T11:43:47Z</time>
      </trkpt>
      <trkpt lat="46.203621597960591" lon="11.901494571939111">
        <ele>1827.5999999999999</ele>
        <time>2017-07-05T11:43:56Z</time>
      </trkpt>
      <trkpt lat="46.20362151414156" lon="11.901499936357141">
        <ele>1827.1199999999999</ele>
        <time>2017-07-05T11:43:57Z</time>
      </trkpt>
      <trkpt lat="46.203631488606334" lon="11.90154192969203">
        <ele>1825.6800000000001</ele>
        <time>2017-07-05T11:44:06Z</time>
      </trkpt>
      <trkpt lat="46.203611036762595" lon="11.90157420001924">
        <ele>1823.76</ele>
        <time>2017-07-05T11:44:14Z</time>
      </trkpt>
      <trkpt lat="46.203636601567268" lon="11.901598675176501">
        <ele>1822.3199999999999</ele>
        <time>2017-07-05T11:44:24Z</time>
      </trkpt>
      <trkpt lat="46.203599805012345" lon="11.90162256360054">
        <ele>1820.8699999999999</ele>
        <time>2017-07-05T11:44:34Z</time>
      </trkpt>
      <trkpt lat="46.203588321805" lon="11.901681991294026">
        <ele>1818.47</ele>
        <time>2017-07-05T11:44:44Z</time>
      </trkpt>
      <trkpt lat="46.203611791133881" lon="11.901740664616227">
        <ele>1816.0699999999999</ele>
        <time>2017-07-05T11:44:55Z</time>
      </trkpt>
      <trkpt lat="46.203601649031043" lon="11.901800343766809">
        <ele>1814.1500000000001</ele>
        <time>2017-07-05T11:45:05Z</time>
      </trkpt>
      <trkpt lat="46.203575162217021" lon="11.901818281039596">
        <ele>1812.22</ele>
        <time>2017-07-05T11:45:15Z</time>
      </trkpt>
      <trkpt lat="46.203544568270445" lon="11.901874942705035">
        <ele>1810.3</ele>
        <time>2017-07-05T11:45:24Z</time>
      </trkpt>
      <trkpt lat="46.203560577705503" lon="11.901915511116385">
        <ele>1808.8599999999999</ele>
        <time>2017-07-05T11:45:32Z</time>
      </trkpt>
      <trkpt lat="46.203584801405668" lon="11.90197728574276">
        <ele>1806.9400000000001</ele>
        <time>2017-07-05T11:45:40Z</time>
      </trkpt>
      <trkpt lat="46.203589830547571" lon="11.902074851095676">
        <ele>1804.53</ele>
        <time>2017-07-05T11:45:51Z</time>
      </trkpt>
      <trkpt lat="46.203532163053751" lon="11.902062194421887">
        <ele>1803.0899999999999</ele>
        <time>2017-07-05T11:45:58Z</time>
      </trkpt>
      <trkpt lat="46.203519087284803" lon="11.902108797803521">
        <ele>1801.1700000000001</ele>
        <time>2017-07-05T11:46:06Z</time>
      </trkpt>
      <trkpt lat="46.20352528989315" lon="11.90216638147831">
        <ele>1799.73</ele>
        <time>2017-07-05T11:46:14Z</time>
      </trkpt>
      <trkpt lat="46.203511711210012" lon="11.90219035372138">
        <ele>1797.3199999999999</ele>
        <time>2017-07-05T11:46:18Z</time>
      </trkpt>
      <trkpt lat="46.203486146405339" lon="11.902208793908358">
        <ele>1797.3199999999999</ele>
        <time>2017-07-05T11:46:28Z</time>
      </trkpt>
      <trkpt lat="46.203466281294823" lon="11.9022445846349">
        <ele>1795.4000000000001</ele>
        <time>2017-07-05T11:46:36Z</time>
      </trkpt>
      <trkpt lat="46.203455217182636" lon="11.902303006500006">
        <ele>1793.96</ele>
        <time>2017-07-05T11:46:44Z</time>
      </trkpt>
      <trkpt lat="46.203455133363605" lon="11.90236134454608">
        <ele>1792.03</ele>
        <time>2017-07-05T11:46:52Z</time>
      </trkpt>
      <trkpt lat="46.203464269638062" lon="11.90240778028965">
        <ele>1791.0699999999999</ele>
        <time>2017-07-05T11:46:59Z</time>
      </trkpt>
      <trkpt lat="46.203431580215693" lon="11.902446923777461">
        <ele>1789.1500000000001</ele>
        <time>2017-07-05T11:47:06Z</time>
      </trkpt>
      <trkpt lat="46.203397884964943" lon="11.90246838144958">
        <ele>1787.71</ele>
        <time>2017-07-05T11:47:15Z</time>
      </trkpt>
      <trkpt lat="46.203390257433057" lon="11.902535604313016">
        <ele>1785.79</ele>
        <time>2017-07-05T11:47:23Z</time>
      </trkpt>
      <trkpt lat="46.203373661264777" lon="11.902590673416853">
        <ele>1783.8599999999999</ele>
        <time>2017-07-05T11:47:31Z</time>
      </trkpt>
      <trkpt lat="46.203353209421039" lon="11.902629649266601">
        <ele>1781.9400000000001</ele>
        <time>2017-07-05T11:47:40Z</time>
      </trkpt>
      <trkpt lat="46.203353712335229" lon="11.902655381709337">
        <ele>1781.46</ele>
        <time>2017-07-05T11:47:52Z</time>
      </trkpt>
      <trkpt lat="46.203353963792324" lon="11.902699386700988">
        <ele>1780.5</ele>
        <time>2017-07-05T11:48:03Z</time>
      </trkpt>
      <trkpt lat="46.203354969620705" lon="11.902762837707996">
        <ele>1779.54</ele>
        <time>2017-07-05T11:48:13Z</time>
      </trkpt>
      <trkpt lat="46.203327309340239" lon="11.902764346450567">
        <ele>1777.6099999999999</ele>
        <time>2017-07-05T11:48:22Z</time>
      </trkpt>
      <trkpt lat="46.203319681808352" lon="11.902795862406492">
        <ele>1776.1700000000001</ele>
        <time>2017-07-05T11:48:32Z</time>
      </trkpt>
      <trkpt lat="46.203327476978302" lon="11.902812542393804">
        <ele>1774.25</ele>
        <time>2017-07-05T11:48:41Z</time>
      </trkpt>
      <trkpt lat="46.203328482806683" lon="11.90287540666759">
        <ele>1772.3299999999999</ele>
        <time>2017-07-05T11:48:51Z</time>
      </trkpt>
      <trkpt lat="46.203311802819371" lon="11.902941539883614">
        <ele>1770.8900000000001</ele>
        <time>2017-07-05T11:49:00Z</time>
      </trkpt>
      <trkpt lat="46.203310461714864" lon="11.902982527390122">
        <ele>1768.96</ele>
        <time>2017-07-05T11:49:11Z</time>
      </trkpt>
      <trkpt lat="46.203339211642742" lon="11.903055449947715">
        <ele>1767.52</ele>
        <time>2017-07-05T11:49:21Z</time>
      </trkpt>
      <trkpt lat="46.203364441171288" lon="11.903145555406809">
        <ele>1766.5599999999999</ele>
        <time>2017-07-05T11:49:30Z</time>
      </trkpt>
      <trkpt lat="46.203338792547584" lon="11.903149830177426">
        <ele>1766.0799999999999</ele>
        <time>2017-07-05T11:49:39Z</time>
      </trkpt>
      <trkpt lat="46.203284813091159" lon="11.903132647275925">
        <ele>1764.1600000000001</ele>
        <time>2017-07-05T11:49:50Z</time>
      </trkpt>
      <trkpt lat="46.203232845291495" lon="11.903136251494288">
        <ele>1762.23</ele>
        <time>2017-07-05T11:50:00Z</time>
      </trkpt>
      <trkpt lat="46.20316905900836" lon="11.90312216989696">
        <ele>1759.8299999999999</ele>
        <time>2017-07-05T11:50:10Z</time>
      </trkpt>
      <trkpt lat="46.203103428706527" lon="11.903111608698964">
        <ele>1757.4300000000001</ele>
        <time>2017-07-05T11:50:23Z</time>
      </trkpt>
      <trkpt lat="46.203063111752272" lon="11.903045056387782">
        <ele>1754.54</ele>
        <time>2017-07-05T11:50:35Z</time>
      </trkpt>
      <trkpt lat="46.203021034598351" lon="11.902939612045884">
        <ele>1752.1400000000001</ele>
        <time>2017-07-05T11:50:47Z</time>
      </trkpt>
      <trkpt lat="46.202980885282159" lon="11.902873059734702">
        <ele>1750.22</ele>
        <time>2017-07-05T11:50:57Z</time>
      </trkpt>
      <trkpt lat="46.202917685732245" lon="11.90280944108963">
        <ele>1748.29</ele>
        <time>2017-07-05T11:51:09Z</time>
      </trkpt>
      <trkpt lat="46.202917601913214" lon="11.902923099696636">
        <ele>1746.3699999999999</ele>
        <time>2017-07-05T11:51:19Z</time>
      </trkpt>
      <trkpt lat="46.202932940796018" lon="11.903045307844877">
        <ele>1744.9300000000001</ele>
        <time>2017-07-05T11:51:30Z</time>
      </trkpt>
      <trkpt lat="46.202929923310876" lon="11.903203893452883">
        <ele>1742.05</ele>
        <time>2017-07-05T11:51:44Z</time>
      </trkpt>
      <trkpt lat="46.202936293557286" lon="11.903305314481258">
        <ele>1740.1199999999999</ele>
        <time>2017-07-05T11:51:53Z</time>
      </trkpt>
      <trkpt lat="46.202939059585333" lon="11.903397934511304">
        <ele>1739.6400000000001</ele>
        <time>2017-07-05T11:52:05Z</time>
      </trkpt>
      <trkpt lat="46.202964624390006" lon="11.903494913130999">
        <ele>1736.28</ele>
        <time>2017-07-05T11:52:14Z</time>
      </trkpt>
      <trkpt lat="46.202936796471477" lon="11.903596753254533">
        <ele>1735.3199999999999</ele>
        <time>2017-07-05T11:52:26Z</time>
      </trkpt>
      <trkpt lat="46.202932018786669" lon="11.90363229252398">
        <ele>1734.8399999999999</ele>
        <time>2017-07-05T11:52:43Z</time>
      </trkpt>
      <trkpt lat="46.202936209738255" lon="11.903704712167382">
        <ele>1733.8800000000001</ele>
        <time>2017-07-05T11:53:00Z</time>
      </trkpt>
      <trkpt lat="46.202935790643096" lon="11.903794314712286">
        <ele>1732.4300000000001</ele>
        <time>2017-07-05T11:53:14Z</time>
      </trkpt>
      <trkpt lat="46.202936377376318" lon="11.903837565332651">
        <ele>1730.99</ele>
        <time>2017-07-05T11:53:28Z</time>
      </trkpt>
      <trkpt lat="46.202959595248103" lon="11.903927167877555">
        <ele>1727.6300000000001</ele>
        <time>2017-07-05T11:53:39Z</time>
      </trkpt>
      <trkpt lat="46.202961606904864" lon="11.903939321637154">
        <ele>1724.74</ele>
        <time>2017-07-05T11:53:52Z</time>
      </trkpt>
      <trkpt lat="46.202940735965967" lon="11.903950218111277">
        <ele>1722.3399999999999</ele>
        <time>2017-07-05T11:54:03Z</time>
      </trkpt>
      <trkpt lat="46.202963618561625" lon="11.904005622491241">
        <ele>1720.9000000000001</ele>
        <time>2017-07-05T11:54:16Z</time>
      </trkpt>
      <trkpt lat="46.20291399769485" lon="11.903989445418119">
        <ele>1718.01</ele>
        <time>2017-07-05T11:54:29Z</time>
      </trkpt>
      <trkpt lat="46.202902346849442" lon="11.904025068506598">
        <ele>1715.6099999999999</ele>
        <time>2017-07-05T11:54:41Z</time>
      </trkpt>
      <trkpt lat="46.202930761501193" lon="11.904130429029465">
        <ele>1712.25</ele>
        <time>2017-07-05T11:54:54Z</time>
      </trkpt>
      <trkpt lat="46.202955739572644" lon="11.904232520610094">
        <ele>1709.3599999999999</ele>
        <time>2017-07-05T11:55:07Z</time>
      </trkpt>
      <trkpt lat="46.202907375991344" lon="11.904338551685214">
        <ele>1707.4400000000001</ele>
        <time>2017-07-05T11:55:17Z</time>
      </trkpt>
      <trkpt lat="46.202862448990345" lon="11.904358081519604">
        <ele>1705.04</ele>
        <time>2017-07-05T11:55:29Z</time>
      </trkpt>
      <trkpt lat="46.202825317159295" lon="11.904315752908587">
        <ele>1705.04</ele>
        <time>2017-07-05T11:55:41Z</time>
      </trkpt>
      <trkpt lat="46.202828753739595" lon="11.904353136196733">
        <ele>1705.04</ele>
        <time>2017-07-05T11:56:10Z</time>
      </trkpt>
      <trkpt lat="46.202883319929242" lon="11.904379287734628">
        <ele>1704.55</ele>
        <time>2017-07-05T11:56:21Z</time>
      </trkpt>
      <trkpt lat="46.202900586649776" lon="11.904406361281872">
        <ele>1703.5899999999999</ele>
        <time>2017-07-05T11:56:32Z</time>
      </trkpt>
      <trkpt lat="46.202968396246433" lon="11.904516918584704">
        <ele>1701.1900000000001</ele>
        <time>2017-07-05T11:56:44Z</time>
      </trkpt>
      <trkpt lat="46.203030170872808" lon="11.904552038758993">
        <ele>1699.75</ele>
        <time>2017-07-05T11:56:53Z</time>
      </trkpt>
      <trkpt lat="46.203103261068463" lon="11.904693022370338">
        <ele>1697.8299999999999</ele>
        <time>2017-07-05T11:57:05Z</time>
      </trkpt>
      <trkpt lat="46.203147936612368" lon="11.904776757583022">
        <ele>1695.9000000000001</ele>
        <time>2017-07-05T11:57:15Z</time>
      </trkpt>
      <trkpt lat="46.203121868893504" lon="11.904831239953637">
        <ele>1693.98</ele>
        <time>2017-07-05T11:57:25Z</time>
      </trkpt>
      <trkpt lat="46.203053304925561" lon="11.904791006818414">
        <ele>1692.0599999999999</ele>
        <time>2017-07-05T11:57:34Z</time>
      </trkpt>
      <trkpt lat="46.202940735965967" lon="11.904819421470165">
        <ele>1688.6900000000001</ele>
        <time>2017-07-05T11:57:45Z</time>
      </trkpt>
      <trkpt lat="46.202860940247774" lon="11.904879352077842">
        <ele>1685.8099999999999</ele>
        <time>2017-07-05T11:57:57Z</time>
      </trkpt>
      <trkpt lat="46.202771505340934" lon="11.904899133369327">
        <ele>1683.4100000000001</ele>
        <time>2017-07-05T11:58:08Z</time>
      </trkpt>
      <trkpt lat="46.202692883089185" lon="11.904897289350629">
        <ele>1681</ele>
        <time>2017-07-05T11:58:19Z</time>
      </trkpt>
      <trkpt lat="46.20260520838201" lon="11.904849763959646">
        <ele>1677.6400000000001</ele>
        <time>2017-07-05T11:58:32Z</time>
      </trkpt>
      <trkpt lat="46.202632952481508" lon="11.904997956007719">
        <ele>1675.23</ele>
        <time>2017-07-05T11:58:44Z</time>
      </trkpt>
      <trkpt lat="46.202692128717899" lon="11.905088480561972">
        <ele>1672.8299999999999</ele>
        <time>2017-07-05T11:59:00Z</time>
      </trkpt>
      <trkpt lat="46.202659271657467" lon="11.905031148344278">
        <ele>1673.3099999999999</ele>
        <time>2017-07-05T11:59:12Z</time>
      </trkpt>
      <trkpt lat="46.202706629410386" lon="11.905089737847447">
        <ele>1671.3900000000001</ele>
        <time>2017-07-05T11:59:25Z</time>
      </trkpt>
      <trkpt lat="46.202780809253454" lon="11.905167186632752">
        <ele>1668.51</ele>
        <time>2017-07-05T11:59:36Z</time>
      </trkpt>
      <trkpt lat="46.20274493470788" lon="11.905249077826738">
        <ele>1667.0599999999999</ele>
        <time>2017-07-05T11:59:47Z</time>
      </trkpt>
      <trkpt lat="46.202703360468149" lon="11.905302386730909">
        <ele>1664.6600000000001</ele>
        <time>2017-07-05T11:59:57Z</time>
      </trkpt>
      <trkpt lat="46.202803859487176" lon="11.905385535210371">
        <ele>1662.26</ele>
        <time>2017-07-05T12:00:10Z</time>
      </trkpt>
      <trkpt lat="46.202816432341933" lon="11.905530709773302">
        <ele>1659.8499999999999</ele>
        <time>2017-07-05T12:00:20Z</time>
      </trkpt>
      <trkpt lat="46.202806374058127" lon="11.905575972050428">
        <ele>1657.9300000000001</ele>
        <time>2017-07-05T12:00:30Z</time>
      </trkpt>
      <trkpt lat="46.202746862545609" lon="11.905637327581644">
        <ele>1655.05</ele>
        <time>2017-07-05T12:00:41Z</time>
      </trkpt>
      <trkpt lat="46.202653152868152" lon="11.905612098053098">
        <ele>1652.1600000000001</ele>
        <time>2017-07-05T12:00:50Z</time>
      </trkpt>
      <trkpt lat="46.202587187290192" lon="11.905689965933561">
        <ele>1649.28</ele>
        <time>2017-07-05T12:01:02Z</time>
      </trkpt>
      <trkpt lat="46.202563047409058" lon="11.905705975368619">
        <ele>1647.3599999999999</ele>
        <time>2017-07-05T12:01:11Z</time>
      </trkpt>
      <trkpt lat="46.202587187290192" lon="11.905793901532888">
        <ele>1644.95</ele>
        <time>2017-07-05T12:01:23Z</time>
      </trkpt>
      <trkpt lat="46.202642675489187" lon="11.905910661444068">
        <ele>1642.55</ele>
        <time>2017-07-05T12:01:34Z</time>
      </trkpt>
      <trkpt lat="46.20269313454628" lon="11.905993558466434">
        <ele>1642.0699999999999</ele>
        <time>2017-07-05T12:01:47Z</time>
      </trkpt>
      <trkpt lat="46.20272783562541" lon="11.906040916219354">
        <ele>1641.1099999999999</ele>
        <time>2017-07-05T12:02:02Z</time>
      </trkpt>
      <trkpt lat="46.202785084024072" lon="11.90611744299531">
        <ele>1638.22</ele>
        <time>2017-07-05T12:02:13Z</time>
      </trkpt>
      <trkpt lat="46.20280746370554" lon="11.906257420778275">
        <ele>1636.3</ele>
        <time>2017-07-05T12:02:23Z</time>
      </trkpt>
      <trkpt lat="46.202835878357291" lon="11.906331432983279">
        <ele>1634.8599999999999</ele>
        <time>2017-07-05T12:02:32Z</time>
      </trkpt>
      <trkpt lat="46.202873094007373" lon="11.906467638909817">
        <ele>1632.46</ele>
        <time>2017-07-05T12:02:42Z</time>
      </trkpt>
      <trkpt lat="46.202945597469807" lon="11.906567383557558">
        <ele>1630.05</ele>
        <time>2017-07-05T12:02:53Z</time>
      </trkpt>
      <trkpt lat="46.202876614406705" lon="11.906574172899127">
        <ele>1628.1300000000001</ele>
        <time>2017-07-05T12:03:02Z</time>
      </trkpt>
      <trkpt lat="46.20275130495429" lon="11.906558079645038">
        <ele>1625.73</ele>
        <time>2017-07-05T12:03:15Z</time>
      </trkpt>
      <trkpt lat="46.202672766521573" lon="11.90655724145472">
        <ele>1623.8</ele>
        <time>2017-07-05T12:03:25Z</time>
      </trkpt>
      <trkpt lat="46.202630689367652" lon="11.906586745753884">
        <ele>1622.8399999999999</ele>
        <time>2017-07-05T12:03:34Z</time>
      </trkpt>
      <trkpt lat="46.202542008832097" lon="11.906590852886438">
        <ele>1620.9200000000001</ele>
        <time>2017-07-05T12:03:42Z</time>
      </trkpt>
      <trkpt lat="46.20244100689888" lon="11.906609879806638">
        <ele>1618.04</ele>
        <time>2017-07-05T12:03:52Z</time>
      </trkpt>
      <trkpt lat="46.202399432659149" lon="11.906599150970578">
        <ele>1616.5899999999999</ele>
        <time>2017-07-05T12:03:57Z</time>
      </trkpt>
      <trkpt lat="46.202330617234111" lon="11.906616417691112">
        <ele>1614.1900000000001</ele>
        <time>2017-07-05T12:04:08Z</time>
      </trkpt>
      <trkpt lat="46.202331036329269" lon="11.906673163175583">
        <ele>1611.79</ele>
        <time>2017-07-05T12:04:16Z</time>
      </trkpt>
      <trkpt lat="46.202264986932278" lon="11.906725047156215">
        <ele>1608.9000000000001</ele>
        <time>2017-07-05T12:04:29Z</time>
      </trkpt>
      <trkpt lat="46.20219080708921" lon="11.906681461259723">
        <ele>1606.5</ele>
        <time>2017-07-05T12:04:40Z</time>
      </trkpt>
      <trkpt lat="46.202188041061163" lon="11.906743487343192">
        <ele>1605.0599999999999</ele>
        <time>2017-07-05T12:04:50Z</time>
      </trkpt>
      <trkpt lat="46.202146802097559" lon="11.906815906986594">
        <ele>1602.6600000000001</ele>
        <time>2017-07-05T12:05:01Z</time>
      </trkpt>
      <trkpt lat="46.202118638902903" lon="11.906795119866729">
        <ele>1599.77</ele>
        <time>2017-07-05T12:05:11Z</time>
      </trkpt>
      <trkpt lat="46.20210925117135" lon="11.906841304153204">
        <ele>1596.8900000000001</ele>
        <time>2017-07-05T12:05:22Z</time>
      </trkpt>
      <trkpt lat="46.202160213142633" lon="11.906944653019309">
        <ele>1595.45</ele>
        <time>2017-07-05T12:05:31Z</time>
      </trkpt>
      <trkpt lat="46.202156692743301" lon="11.907103406265378">
        <ele>1593.04</ele>
        <time>2017-07-05T12:05:44Z</time>
      </trkpt>
      <trkpt lat="46.20212635025382" lon="11.907175742089748">
        <ele>1590.6400000000001</ele>
        <time>2017-07-05T12:05:53Z</time>
      </trkpt>
      <trkpt lat="46.202129032462835" lon="11.907268026843667">
        <ele>1588.24</ele>
        <time>2017-07-05T12:06:04Z</time>
      </trkpt>
      <trkpt lat="46.202126601710916" lon="11.907308930531144">
        <ele>1586.79</ele>
        <time>2017-07-05T12:06:10Z</time>
      </trkpt>
      <trkpt lat="46.202167086303234" lon="11.907378248870373">
        <ele>1584.3900000000001</ele>
        <time>2017-07-05T12:06:21Z</time>
      </trkpt>
      <trkpt lat="46.202187202870846" lon="11.907505737617612">
        <ele>1581.99</ele>
        <time>2017-07-05T12:06:32Z</time>
      </trkpt>
      <trkpt lat="46.202196422964334" lon="11.907630460336804">
        <ele>1579.0999999999999</ele>
        <time>2017-07-05T12:06:44Z</time>
      </trkpt>
      <trkpt lat="46.202204134315252" lon="11.907750656828284">
        <ele>1577.1800000000001</ele>
        <time>2017-07-05T12:06:57Z</time>
      </trkpt>
      <trkpt lat="46.20219524949789" lon="11.907894490286708">
        <ele>1574.3</ele>
        <time>2017-07-05T12:07:09Z</time>
      </trkpt>
      <trkpt lat="46.202099611982703" lon="11.907871440052986">
        <ele>1571.8900000000001</ele>
        <time>2017-07-05T12:07:20Z</time>
      </trkpt>
      <trkpt lat="46.202005567029119" lon="11.907894322648644">
        <ele>1569.49</ele>
        <time>2017-07-05T12:07:31Z</time>
      </trkpt>
      <trkpt lat="46.202027192339301" lon="11.907943524420261">
        <ele>1567.5699999999999</ele>
        <time>2017-07-05T12:07:41Z</time>
      </trkpt>
      <trkpt lat="46.202067593112588" lon="11.908078892156482">
        <ele>1565.6400000000001</ele>
        <time>2017-07-05T12:07:52Z</time>
      </trkpt>
      <trkpt lat="46.202037585899234" lon="11.908147539943457">
        <ele>1564.6800000000001</ele>
        <time>2017-07-05T12:08:03Z</time>
      </trkpt>
      <trkpt lat="46.202028365805745" lon="11.908160448074341">
        <ele>1564.6800000000001</ele>
        <time>2017-07-05T12:08:06Z</time>
      </trkpt>
      <trkpt lat="46.201930800452828" lon="11.908157849684358">
        <ele>1561.8</ele>
        <time>2017-07-05T12:08:16Z</time>
      </trkpt>
      <trkpt lat="46.201829882338643" lon="11.908166818320751">
        <ele>1558.9200000000001</ele>
        <time>2017-07-05T12:08:28Z</time>
      </trkpt>
      <trkpt lat="46.201748242601752" lon="11.908145109191537">
        <ele>1556.51</ele>
        <time>2017-07-05T12:08:40Z</time>
      </trkpt>
      <trkpt lat="46.20165528729558" lon="11.908164639025927">
        <ele>1553.1500000000001</ele>
        <time>2017-07-05T12:08:52Z</time>
      </trkpt>
      <trkpt lat="46.201602062210441" lon="11.90816966816783">
        <ele>1551.71</ele>
        <time>2017-07-05T12:09:04Z</time>
      </trkpt>
      <trkpt lat="46.201552106067538" lon="11.908225072547793">
        <ele>1549.3</ele>
        <time>2017-07-05T12:09:14Z</time>
      </trkpt>
      <trkpt lat="46.201569121330976" lon="11.908262372016907">
        <ele>1547.3800000000001</ele>
        <time>2017-07-05T12:09:25Z</time>
      </trkpt>
      <trkpt lat="46.201580353081226" lon="11.908374857157469">
        <ele>1545.46</ele>
        <time>2017-07-05T12:09:35Z</time>
      </trkpt>
      <trkpt lat="46.201594937592745" lon="11.908539142459631">
        <ele>1543.05</ele>
        <time>2017-07-05T12:09:47Z</time>
      </trkpt>
      <trkpt lat="46.201634667813778" lon="11.908685322850943">
        <ele>1540.1700000000001</ele>
        <time>2017-07-05T12:10:00Z</time>
      </trkpt>
      <trkpt lat="46.201676912605762" lon="11.908749276772141">
        <ele>1539.21</ele>
        <time>2017-07-05T12:10:12Z</time>
      </trkpt>
      <trkpt lat="46.201739190146327" lon="11.908886739984155">
        <ele>1538.25</ele>
        <time>2017-07-05T12:10:21Z</time>
      </trkpt>
      <trkpt lat="46.201769867911935" lon="11.908981958404183">
        <ele>1537.29</ele>
        <time>2017-07-05T12:10:31Z</time>
      </trkpt>
      <trkpt lat="46.201755199581385" lon="11.909019593149424">
        <ele>1535.8399999999999</ele>
        <time>2017-07-05T12:10:42Z</time>
      </trkpt>
      <trkpt lat="46.201744973659515" lon="11.908988831564784">
        <ele>1535.3599999999999</ele>
        <time>2017-07-05T12:10:52Z</time>
      </trkpt>
      <trkpt lat="46.201757630333304" lon="11.908993693068624">
        <ele>1535.3599999999999</ele>
        <time>2017-07-05T12:11:04Z</time>
      </trkpt>
      <trkpt lat="46.201744554564357" lon="11.909006517380476">
        <ele>1535.3599999999999</ele>
        <time>2017-07-05T12:11:14Z</time>
      </trkpt>
      <trkpt lat="46.201729299500585" lon="11.909001069143414">
        <ele>1534.8800000000001</ele>
        <time>2017-07-05T12:11:25Z</time>
      </trkpt>
      <trkpt lat="46.201736256480217" lon="11.908989753574133">
        <ele>1534.8800000000001</ele>
        <time>2017-07-05T12:11:37Z</time>
      </trkpt>
      <trkpt lat="46.201732149347663" lon="11.908995117992163">
        <ele>1534.8800000000001</ele>
        <time>2017-07-05T12:11:54Z</time>
      </trkpt>
      <trkpt lat="46.201712032780051" lon="11.909004840999842">
        <ele>1532.96</ele>
        <time>2017-07-05T12:12:05Z</time>
      </trkpt>
      <trkpt lat="46.201696693897247" lon="11.90901699475944">
        <ele>1532.48</ele>
        <time>2017-07-05T12:12:37Z</time>
      </trkpt>
      <trkpt lat="46.201763078570366" lon="11.909032501280308">
        <ele>1532</ele>
        <time>2017-07-05T12:13:05Z</time>
      </trkpt>
      <trkpt lat="46.201725611463189" lon="11.909075919538736">
        <ele>1531.52</ele>
        <time>2017-07-05T12:13:37Z</time>
      </trkpt>
      <trkpt lat="46.201780764386058" lon="11.909052617847919">
        <ele>1531.52</ele>
        <time>2017-07-05T12:13:59Z</time>
      </trkpt>
      <trkpt lat="46.201671129092574" lon="11.908995537087321">
        <ele>1530.5599999999999</ele>
        <time>2017-07-05T12:14:26Z</time>
      </trkpt>
      <trkpt lat="46.201708512380719" lon="11.908943317830563">
        <ele>1530.5599999999999</ele>
        <time>2017-07-05T12:14:53Z</time>
      </trkpt>
      <trkpt lat="46.20196457952261" lon="11.908817673102021">
        <ele>1530.0799999999999</ele>
        <time>2017-07-05T12:15:18Z</time>
      </trkpt>
      <trkpt lat="46.201921412721276" lon="11.908825971186161">
        <ele>1529.5899999999999</ele>
        <time>2017-07-05T12:15:44Z</time>
      </trkpt>
      <trkpt lat="46.201762659475207" lon="11.908891769126058">
        <ele>1529.5899999999999</ele>
        <time>2017-07-05T12:16:09Z</time>
      </trkpt>
      <trkpt lat="46.201688228175044" lon="11.909070806577802">
        <ele>1529.5899999999999</ele>
        <time>2017-07-05T12:16:48Z</time>
      </trkpt>
      <trkpt lat="46.201718235388398" lon="11.909155296161771">
        <ele>1529.1099999999999</ele>
        <time>2017-07-05T12:17:18Z</time>
      </trkpt>
      <trkpt lat="46.201756373047829" lon="11.909137861803174">
        <ele>1529.1099999999999</ele>
        <time>2017-07-05T12:17:42Z</time>
      </trkpt>
      <trkpt lat="46.201741201803088" lon="11.909046163782477">
        <ele>1530.0799999999999</ele>
        <time>2017-07-05T12:18:14Z</time>
      </trkpt>
      <trkpt lat="46.201756540685892" lon="11.909054629504681">
        <ele>1529.1099999999999</ele>
        <time>2017-07-05T12:18:31Z</time>
      </trkpt>
      <trkpt lat="46.201718151569366" lon="11.908942479640245">
        <ele>1529.5899999999999</ele>
        <time>2017-07-05T12:18:43Z</time>
      </trkpt>
      <trkpt lat="46.201755199581385" lon="11.90895639359951">
        <ele>1529.5899999999999</ele>
        <time>2017-07-05T12:18:53Z</time>
      </trkpt>
      <trkpt lat="46.201739441603422" lon="11.908921441063285">
        <ele>1529.5899999999999</ele>
        <time>2017-07-05T12:19:04Z</time>
      </trkpt>
      <trkpt lat="46.201747823506594" lon="11.909007523208857">
        <ele>1530.0799999999999</ele>
        <time>2017-07-05T12:19:18Z</time>
      </trkpt>
      <trkpt lat="46.201736256480217" lon="11.909101316705346">
        <ele>1528.6300000000001</ele>
        <time>2017-07-05T12:19:31Z</time>
      </trkpt>
      <trkpt lat="46.201708344742656" lon="11.909233331680298">
        <ele>1526.23</ele>
        <time>2017-07-05T12:19:43Z</time>
      </trkpt>
      <trkpt lat="46.201633745804429" lon="11.909314300864935">
        <ele>1523.3499999999999</ele>
        <time>2017-07-05T12:19:57Z</time>
      </trkpt>
      <trkpt lat="46.201621424406767" lon="11.909377751871943">
        <ele>1520.9400000000001</ele>
        <time>2017-07-05T12:20:10Z</time>
      </trkpt>
      <trkpt lat="46.201584627851844" lon="11.909424606710672">
        <ele>1518.54</ele>
        <time>2017-07-05T12:20:23Z</time>
      </trkpt>
      <trkpt lat="46.201576497405767" lon="11.909505156800151">
        <ele>1515.6600000000001</ele>
        <time>2017-07-05T12:20:34Z</time>
      </trkpt>
      <trkpt lat="46.20156048797071" lon="11.909613031893969">
        <ele>1512.77</ele>
        <time>2017-07-05T12:20:48Z</time>
      </trkpt>
      <trkpt lat="46.201614635065198" lon="11.909750830382109">
        <ele>1511.3299999999999</ele>
        <time>2017-07-05T12:21:00Z</time>
      </trkpt>
      <trkpt lat="46.201668614521623" lon="11.909860884770751">
        <ele>1511.3299999999999</ele>
        <time>2017-07-05T12:21:11Z</time>
      </trkpt>
      <trkpt lat="46.201686132699251" lon="11.909956857562065">
        <ele>1510.3699999999999</ele>
        <time>2017-07-05T12:21:21Z</time>
      </trkpt>
      <trkpt lat="46.201651766896248" lon="11.910046879202127">
        <ele>1507.97</ele>
        <time>2017-07-05T12:21:32Z</time>
      </trkpt>
      <trkpt lat="46.201576245948672" lon="11.910104462876916">
        <ele>1506.04</ele>
        <time>2017-07-05T12:21:42Z</time>
      </trkpt>
      <trkpt lat="46.201525367796421" lon="11.91014033742249">
        <ele>1503.6400000000001</ele>
        <time>2017-07-05T12:21:53Z</time>
      </trkpt>
      <trkpt lat="46.201443895697594" lon="11.910154670476913">
        <ele>1501.72</ele>
        <time>2017-07-05T12:22:03Z</time>
      </trkpt>
      <trkpt lat="46.201412715017796" lon="11.910266065970063">
        <ele>1499.79</ele>
        <time>2017-07-05T12:22:15Z</time>
      </trkpt>
      <trkpt lat="46.201325710862875" lon="11.910315351560712">
        <ele>1497.3900000000001</ele>
        <time>2017-07-05T12:22:27Z</time>
      </trkpt>
      <trkpt lat="46.201283717527986" lon="11.910400930792093">
        <ele>1494.99</ele>
        <time>2017-07-05T12:22:38Z</time>
      </trkpt>
      <trkpt lat="46.201234767213464" lon="11.910469997674227">
        <ele>1493.0599999999999</ele>
        <time>2017-07-05T12:22:50Z</time>
      </trkpt>
      <trkpt lat="46.201176596805453" lon="11.910550883039832">
        <ele>1489.7</ele>
        <time>2017-07-05T12:23:01Z</time>
      </trkpt>
      <trkpt lat="46.201131921261549" lon="11.910677198320627">
        <ele>1487.3</ele>
        <time>2017-07-05T12:23:13Z</time>
      </trkpt>
      <trkpt lat="46.201062854379416" lon="11.910735787823796">
        <ele>1484.8900000000001</ele>
        <time>2017-07-05T12:23:25Z</time>
      </trkpt>
      <trkpt lat="46.201000493019819" lon="11.910764118656516">
        <ele>1483.9300000000001</ele>
        <time>2017-07-05T12:23:37Z</time>
      </trkpt>
      <trkpt lat="46.20099077001214" lon="11.910727573558688">
        <ele>1483.45</ele>
        <time>2017-07-05T12:23:50Z</time>
      </trkpt>
      <trkpt lat="46.200974090024829" lon="11.910708546638489">
        <ele>1483.45</ele>
        <time>2017-07-05T12:24:06Z</time>
      </trkpt>
      <trkpt lat="46.200937544927001" lon="11.910702344030142">
        <ele>1483.9300000000001</ele>
        <time>2017-07-05T12:24:24Z</time>
      </trkpt>
      <trkpt lat="46.200960092246532" lon="11.91069882363081">
        <ele>1483.45</ele>
        <time>2017-07-05T12:24:46Z</time>
      </trkpt>
      <trkpt lat="46.200993871316314" lon="11.91075062379241">
        <ele>1483.9300000000001</ele>
        <time>2017-07-05T12:25:04Z</time>
      </trkpt>
      <trkpt lat="46.200927319005132" lon="11.910787001252174">
        <ele>1483.45</ele>
        <time>2017-07-05T12:25:22Z</time>
      </trkpt>
      <trkpt lat="46.200914327055216" lon="11.910861600190401">
        <ele>1481.05</ele>
        <time>2017-07-05T12:25:36Z</time>
      </trkpt>
      <trkpt lat="46.200866717845201" lon="11.910973330959678">
        <ele>1478.6500000000001</ele>
        <time>2017-07-05T12:25:49Z</time>
      </trkpt>
      <trkpt lat="46.200816929340363" lon="11.911090845242143">
        <ele>1475.76</ele>
        <time>2017-07-05T12:26:02Z</time>
      </trkpt>
      <trkpt lat="46.200796309858561" lon="11.911138789728284">
        <ele>1474.3199999999999</ele>
        <time>2017-07-05T12:26:08Z</time>
      </trkpt>
      <trkpt lat="46.200810642912984" lon="11.911132419481874">
        <ele>1474.3199999999999</ele>
        <time>2017-07-05T12:26:18Z</time>
      </trkpt>
      <trkpt lat="46.200814666226506" lon="11.911147506907582">
        <ele>1475.76</ele>
        <time>2017-07-05T12:26:19Z</time>
      </trkpt>
      <trkpt lat="46.200883314013481" lon="11.911314725875854">
        <ele>1471.9200000000001</ele>
        <time>2017-07-05T12:26:33Z</time>
      </trkpt>
      <trkpt lat="46.200876692309976" lon="11.911384714767337">
        <ele>1470.95</ele>
        <time>2017-07-05T12:26:41Z</time>
      </trkpt>
      <trkpt lat="46.200866214931011" lon="11.911475323140621">
        <ele>1469.51</ele>
        <time>2017-07-05T12:26:47Z</time>
      </trkpt>
      <trkpt lat="46.200853558257222" lon="11.911513041704893">
        <ele>1469.51</ele>
        <time>2017-07-05T12:26:50Z</time>
      </trkpt>
      <trkpt lat="46.200846182182431" lon="11.911624688655138">
        <ele>1467.1099999999999</ele>
        <time>2017-07-05T12:27:01Z</time>
      </trkpt>
      <trkpt lat="46.200828831642866" lon="11.911625694483519">
        <ele>1467.1099999999999</ele>
        <time>2017-07-05T12:27:03Z</time>
      </trkpt>
      <trkpt lat="46.200772169977427" lon="11.911595687270164">
        <ele>1466.6300000000001</ele>
        <time>2017-07-05T12:27:08Z</time>
      </trkpt>
      <trkpt lat="46.20064677670598" lon="11.911569535732269">
        <ele>1466.1500000000001</ele>
        <time>2017-07-05T12:27:21Z</time>
      </trkpt>
      <trkpt lat="46.200485760346055" lon="11.911494098603725">
        <ele>1464.71</ele>
        <time>2017-07-05T12:27:36Z</time>
      </trkpt>
      <trkpt lat="46.200341926887631" lon="11.911425450816751">
        <ele>1463.74</ele>
        <time>2017-07-05T12:27:49Z</time>
      </trkpt>
      <trkpt lat="46.200191471725702" lon="11.911368286237121">
        <ele>1462.3</ele>
        <time>2017-07-05T12:28:02Z</time>
      </trkpt>
      <trkpt lat="46.200017798691988" lon="11.911344062536955">
        <ele>1461.3399999999999</ele>
        <time>2017-07-05T12:28:18Z</time>
      </trkpt>
      <trkpt lat="46.19996314868331" lon="11.9113262090832">
        <ele>1460.3800000000001</ele>
        <time>2017-07-05T12:28:23Z</time>
      </trkpt>
      <trkpt lat="46.199767095968127" lon="11.91126468591392">
        <ele>1459.4200000000001</ele>
        <time>2017-07-05T12:28:40Z</time>
      </trkpt>
      <trkpt lat="46.199556710198522" lon="11.911179190501571">
        <ele>1457.5</ele>
        <time>2017-07-05T12:28:58Z</time>
      </trkpt>
      <trkpt lat="46.199382869526744" lon="11.91111464984715">
        <ele>1456.05</ele>
        <time>2017-07-05T12:29:13Z</time>
      </trkpt>
      <trkpt lat="46.199189247563481" lon="11.911015575751662">
        <ele>1455.0899999999999</ele>
        <time>2017-07-05T12:29:30Z</time>
      </trkpt>
      <trkpt lat="46.199050191789865" lon="11.91092069260776">
        <ele>1454.1300000000001</ele>
        <time>2017-07-05T12:29:43Z</time>
      </trkpt>
      <trkpt lat="46.198935946449637" lon="11.910868808627129">
        <ele>1452.6900000000001</ele>
        <time>2017-07-05T12:29:53Z</time>
      </trkpt>
      <trkpt lat="46.198790855705738" lon="11.910783061757684">
        <ele>1451.73</ele>
        <time>2017-07-05T12:30:07Z</time>
      </trkpt>
      <trkpt lat="46.198660600930452" lon="11.910697147250175">
        <ele>1450.77</ele>
        <time>2017-07-05T12:30:20Z</time>
      </trkpt>
      <trkpt lat="46.198579464107752" lon="11.910623470321298">
        <ele>1449.8099999999999</ele>
        <time>2017-07-05T12:30:32Z</time>
      </trkpt>
      <trkpt lat="46.198545685037971" lon="11.910596899688244">
        <ele>1449.3199999999999</ele>
        <time>2017-07-05T12:30:44Z</time>
      </trkpt>
      <trkpt lat="46.198522299528122" lon="11.910550966858864">
        <ele>1448.8399999999999</ele>
        <time>2017-07-05T12:30:54Z</time>
      </trkpt>
      <trkpt lat="46.198460441082716" lon="11.910477373749018">
        <ele>1448.3599999999999</ele>
        <time>2017-07-05T12:31:02Z</time>
      </trkpt>
      <trkpt lat="46.198454154655337" lon="11.910439739003778">
        <ele>1448.3599999999999</ele>
        <time>2017-07-05T12:31:07Z</time>
      </trkpt>
      <trkpt lat="46.198355415835977" lon="11.910250307992101">
        <ele>1447.4000000000001</ele>
        <time>2017-07-05T12:31:21Z</time>
      </trkpt>
      <trkpt lat="46.198310321196914" lon="11.910055177286267">
        <ele>1446.9200000000001</ele>
        <time>2017-07-05T12:31:35Z</time>
      </trkpt>
      <trkpt lat="46.198292719200253" lon="11.909912182018161">
        <ele>1446.4400000000001</ele>
        <time>2017-07-05T12:31:47Z</time>
      </trkpt>
      <trkpt lat="46.198255084455013" lon="11.909709088504314">
        <ele>1445.96</ele>
        <time>2017-07-05T12:32:01Z</time>
      </trkpt>
      <trkpt lat="46.198222311213613" lon="11.909504737704992">
        <ele>1445</ele>
        <time>2017-07-05T12:32:14Z</time>
      </trkpt>
      <trkpt lat="46.19814938865602" lon="11.909252693876624">
        <ele>1444.04</ele>
        <time>2017-07-05T12:32:29Z</time>
      </trkpt>
      <trkpt lat="46.198095073923469" lon="11.908994531258941">
        <ele>1443.0799999999999</ele>
        <time>2017-07-05T12:32:45Z</time>
      </trkpt>
      <trkpt lat="46.198036232963204" lon="11.908789845183492">
        <ele>1442.5999999999999</ele>
        <time>2017-07-05T12:32:58Z</time>
      </trkpt>
      <trkpt lat="46.19795442558825" lon="11.908604605123401">
        <ele>1443.0799999999999</ele>
        <time>2017-07-05T12:33:10Z</time>
      </trkpt>
      <trkpt lat="46.19784202426672" lon="11.908319452777505">
        <ele>1442.5999999999999</ele>
        <time>2017-07-05T12:33:28Z</time>
      </trkpt>
      <trkpt lat="46.197829032316804" lon="11.908273939043283">
        <ele>1442.5999999999999</ele>
        <time>2017-07-05T12:33:31Z</time>
      </trkpt>
      <trkpt lat="46.197797851637006" lon="11.9081970769912">
        <ele>1442.5999999999999</ele>
        <time>2017-07-05T12:33:36Z</time>
      </trkpt>
      <trkpt lat="46.197714703157544" lon="11.907999850809574">
        <ele>1443.0799999999999</ele>
        <time>2017-07-05T12:33:49Z</time>
      </trkpt>
      <trkpt lat="46.197617137804627" lon="11.907770354300737">
        <ele>1442.5999999999999</ele>
        <time>2017-07-05T12:34:04Z</time>
      </trkpt>
      <trkpt lat="46.197583107277751" lon="11.907670274376869">
        <ele>1442.5999999999999</ele>
        <time>2017-07-05T12:34:10Z</time>
      </trkpt>
      <trkpt lat="46.197568690404296" lon="11.907621491700411">
        <ele>1443.0799999999999</ele>
        <time>2017-07-05T12:34:13Z</time>
      </trkpt>
      <trkpt lat="46.1974838655442" lon="11.907415045425296">
        <ele>1443.0799999999999</ele>
        <time>2017-07-05T12:34:27Z</time>
      </trkpt>
      <trkpt lat="46.197440782561898" lon="11.907332399860024">
        <ele>1443.0799999999999</ele>
        <time>2017-07-05T12:34:33Z</time>
      </trkpt>
      <trkpt lat="46.197341373190284" lon="11.907121175900102">
        <ele>1442.5999999999999</ele>
        <time>2017-07-05T12:34:47Z</time>
      </trkpt>
      <trkpt lat="46.197219835594296" lon="11.906892685219646">
        <ele>1442.1099999999999</ele>
        <time>2017-07-05T12:35:03Z</time>
      </trkpt>
      <trkpt lat="46.197128221392632" lon="11.906691938638687">
        <ele>1440.6700000000001</ele>
        <time>2017-07-05T12:35:16Z</time>
      </trkpt>
      <trkpt lat="46.197038702666759" lon="11.906455317512155">
        <ele>1439.23</ele>
        <time>2017-07-05T12:35:30Z</time>
      </trkpt>
      <trkpt lat="46.196916410699487" lon="11.906205201521516">
        <ele>1438.27</ele>
        <time>2017-07-05T12:35:46Z</time>
      </trkpt>
      <trkpt lat="46.196833848953247" lon="11.906052902340889">
        <ele>1437.79</ele>
        <time>2017-07-05T12:35:57Z</time>
      </trkpt>
      <trkpt lat="46.196721363812685" lon="11.905888952314854">
        <ele>1436.3499999999999</ele>
        <time>2017-07-05T12:36:11Z</time>
      </trkpt>
      <trkpt lat="46.196682890877128" lon="11.905866153538227">
        <ele>1437.3099999999999</ele>
        <time>2017-07-05T12:36:16Z</time>
      </trkpt>
      <trkpt lat="46.196561940014362" lon="11.905724080279469">
        <ele>1437.3099999999999</ele>
        <time>2017-07-05T12:36:30Z</time>
      </trkpt>
      <trkpt lat="46.196556072682142" lon="11.905721398070455">
        <ele>1437.3099999999999</ele>
        <time>2017-07-05T12:36:31Z</time>
      </trkpt>
      <trkpt lat="46.196536039933562" lon="11.905694408342242">
        <ele>1436.8299999999999</ele>
        <time>2017-07-05T12:36:35Z</time>
      </trkpt>
      <trkpt lat="46.196422632783651" lon="11.90553305670619">
        <ele>1436.3499999999999</ele>
        <time>2017-07-05T12:36:49Z</time>
      </trkpt>
      <trkpt lat="46.196292461827397" lon="11.905378578230739">
        <ele>1435.3900000000001</ele>
        <time>2017-07-05T12:37:03Z</time>
      </trkpt>
      <trkpt lat="46.196180144324899" lon="11.905180849134922">
        <ele>1434.4200000000001</ele>
        <time>2017-07-05T12:37:17Z</time>
      </trkpt>
      <trkpt lat="46.1960678268224" lon="11.904992088675499">
        <ele>1432.98</ele>
        <time>2017-07-05T12:37:31Z</time>
      </trkpt>
      <trkpt lat="46.19594469666481" lon="11.904811039566994">
        <ele>1431.54</ele>
        <time>2017-07-05T12:37:46Z</time>
      </trkpt>
      <trkpt lat="46.195821901783347" lon="11.904648849740624">
        <ele>1429.6199999999999</ele>
        <time>2017-07-05T12:38:00Z</time>
      </trkpt>
      <trkpt lat="46.195693155750632" lon="11.904512895271182">
        <ele>1428.1800000000001</ele>
        <time>2017-07-05T12:38:14Z</time>
      </trkpt>
      <trkpt lat="46.195559045299888" lon="11.90434517338872">
        <ele>1426.25</ele>
        <time>2017-07-05T12:38:29Z</time>
      </trkpt>
      <trkpt lat="46.195448990911245" lon="11.904193460941315">
        <ele>1424.3299999999999</ele>
        <time>2017-07-05T12:38:44Z</time>
      </trkpt>
      <trkpt lat="46.195425605401397" lon="11.904228664934635">
        <ele>1423.8499999999999</ele>
        <time>2017-07-05T12:38:49Z</time>
      </trkpt>
      <trkpt lat="46.195398196578026" lon="11.904245261102915">
        <ele>1423.3699999999999</ele>
        <time>2017-07-05T12:38:52Z</time>
      </trkpt>
      <trkpt lat="46.195252016186714" lon="11.904277447611094">
        <ele>1420.97</ele>
        <time>2017-07-05T12:39:05Z</time>
      </trkpt>
      <trkpt lat="46.195102650672197" lon="11.904335366562009">
        <ele>1418.5599999999999</ele>
        <time>2017-07-05T12:39:19Z</time>
      </trkpt>
      <trkpt lat="46.194960661232471" lon="11.904346430674195">
        <ele>1416.1600000000001</ele>
        <time>2017-07-05T12:39:33Z</time>
      </trkpt>
      <trkpt lat="46.194933420047164" lon="11.904394458979368">
        <ele>1415.2</ele>
        <time>2017-07-05T12:39:37Z</time>
      </trkpt>
      <trkpt lat="46.194788916036487" lon="11.904480373486876">
        <ele>1413.28</ele>
        <time>2017-07-05T12:39:51Z</time>
      </trkpt>
      <trkpt lat="46.194612728431821" lon="11.904556984081864">
        <ele>1410.3900000000001</ele>
        <time>2017-07-05T12:40:07Z</time>
      </trkpt>
      <trkpt lat="46.19446218945086" lon="11.904642144218087">
        <ele>1407.99</ele>
        <time>2017-07-05T12:40:23Z</time>
      </trkpt>
      <trkpt lat="46.194335455074906" lon="11.904713893309236">
        <ele>1405.5799999999999</ele>
        <time>2017-07-05T12:40:35Z</time>
      </trkpt>
      <trkpt lat="46.194209977984428" lon="11.904797377064824">
        <ele>1403.1800000000001</ele>
        <time>2017-07-05T12:40:47Z</time>
      </trkpt>
      <trkpt lat="46.194097995758057" lon="11.904876166954637">
        <ele>1400.78</ele>
        <time>2017-07-05T12:40:58Z</time>
      </trkpt>
      <trkpt lat="46.193998921662569" lon="11.904963254928589">
        <ele>1399.3399999999999</ele>
        <time>2017-07-05T12:41:09Z</time>
      </trkpt>
      <trkpt lat="46.193858860060573" lon="11.905083702877164">
        <ele>1397.4100000000001</ele>
        <time>2017-07-05T12:41:22Z</time>
      </trkpt>
      <trkpt lat="46.193777220323682" lon="11.905162408947945">
        <ele>1395.97</ele>
        <time>2017-07-05T12:41:30Z</time>
      </trkpt>
      <trkpt lat="46.19360463693738" lon="11.905222926288843">
        <ele>1394.05</ele>
        <time>2017-07-05T12:41:44Z</time>
      </trkpt>
      <trkpt lat="46.193493325263262" lon="11.905324598774314">
        <ele>1392.1300000000001</ele>
        <time>2017-07-05T12:41:56Z</time>
      </trkpt>
      <trkpt lat="46.193383187055588" lon="11.905427612364292">
        <ele>1390.6800000000001</ele>
        <time>2017-07-05T12:42:07Z</time>
      </trkpt>
      <trkpt lat="46.193281263113022" lon="11.90549542196095">
        <ele>1389.72</ele>
        <time>2017-07-05T12:42:17Z</time>
      </trkpt>
      <trkpt lat="46.19324647821486" lon="11.905505647882819">
        <ele>1389.24</ele>
        <time>2017-07-05T12:42:20Z</time>
      </trkpt>
      <trkpt lat="46.193158384412527" lon="11.905473629012704">
        <ele>1388.28</ele>
        <time>2017-07-05T12:42:27Z</time>
      </trkpt>
      <trkpt lat="46.193115133792162" lon="11.905419146642089">
        <ele>1387.8</ele>
        <time>2017-07-05T12:42:31Z</time>
      </trkpt>
      <trkpt lat="46.193033577874303" lon="11.905231308192015">
        <ele>1387.8</ele>
        <time>2017-07-05T12:42:44Z</time>
      </trkpt>
      <trkpt lat="46.193019077181816" lon="11.905161654576659">
        <ele>1388.28</ele>
        <time>2017-07-05T12:42:49Z</time>
      </trkpt>
      <trkpt lat="46.193075906485319" lon="11.905021425336599">
        <ele>1388.28</ele>
        <time>2017-07-05T12:43:00Z</time>
      </trkpt>
      <trkpt lat="46.193110775202513" lon="11.904960656538606">
        <ele>1390.2</ele>
        <time>2017-07-05T12:43:08Z</time>
      </trkpt>
      <trkpt lat="46.193123515695333" lon="11.904941964894533">
        <ele>1390.2</ele>
        <time>2017-07-05T12:43:17Z</time>
      </trkpt>
      <trkpt lat="46.193125946447253" lon="11.904989406466484">
        <ele>1390.2</ele>
        <time>2017-07-05T12:43:28Z</time>
      </trkpt>
      <trkpt lat="46.193134915083647" lon="11.904996195808053">
        <ele>1389.72</ele>
        <time>2017-07-05T12:43:43Z</time>
      </trkpt>
      <trkpt lat="46.193127958104014" lon="11.904944060370326">
        <ele>1388.76</ele>
        <time>2017-07-05T12:43:55Z</time>
      </trkpt>
      <trkpt lat="46.193136340007186" lon="11.904949424788356">
        <ele>1388.76</ele>
        <time>2017-07-05T12:44:02Z</time>
      </trkpt>
      <trkpt lat="46.193115636706352" lon="11.904934840276837">
        <ele>1388.76</ele>
        <time>2017-07-05T12:44:14Z</time>
      </trkpt>
      <trkpt lat="46.193105913698673" lon="11.904926374554634">
        <ele>1388.76</ele>
        <time>2017-07-05T12:44:32Z</time>
      </trkpt>
      <trkpt lat="46.193110607564449" lon="11.90491296350956">
        <ele>1388.76</ele>
        <time>2017-07-05T12:44:51Z</time>
      </trkpt>
      <trkpt lat="46.193105494603515" lon="11.904891589656472">
        <ele>1388.76</ele>
        <time>2017-07-05T12:45:09Z</time>
      </trkpt>
      <trkpt lat="46.193101638928056" lon="11.904881196096539">
        <ele>1388.76</ele>
        <time>2017-07-05T12:45:22Z</time>
      </trkpt>
      <trkpt lat="46.193112451583147" lon="11.904864851385355">
        <ele>1388.76</ele>
        <time>2017-07-05T12:45:43Z</time>
      </trkpt>
      <trkpt lat="46.193096777424216" lon="11.904871892184019">
        <ele>1388.76</ele>
        <time>2017-07-05T12:46:07Z</time>
      </trkpt>
      <trkpt lat="46.193097615614533" lon="11.904882537201047">
        <ele>1389.72</ele>
        <time>2017-07-05T12:46:30Z</time>
      </trkpt>
      <trkpt lat="46.193105494603515" lon="11.904866946861148">
        <ele>1388.76</ele>
        <time>2017-07-05T12:46:53Z</time>
      </trkpt>
      <trkpt lat="46.193102896213531" lon="11.904941713437438">
        <ele>1389.24</ele>
        <time>2017-07-05T12:47:04Z</time>
      </trkpt>
      <trkpt lat="46.193100046366453" lon="11.904968032613397">
        <ele>1388.76</ele>
        <time>2017-07-05T12:47:21Z</time>
      </trkpt>
    </trkseg>
  </trk>

  <trk>
    <name>5-rif-cerede-rif-boz-2017-07-06</name>
    <extensions>
      <gpxx:TrackExtension>
        <gpxx:DisplayColor>Yellow</gpxx:DisplayColor>
      </gpxx:TrackExtension>
    </extensions>
    <trkseg>
      <trkpt lat="46.193139525130391" lon="11.904988484457135">
        <ele>1425.77</ele>
        <time>2017-07-06T05:36:57Z</time>
      </trkpt>
      <trkpt lat="46.193139273673296" lon="11.904990412294865">
        <ele>1425.77</ele>
        <time>2017-07-06T05:36:58Z</time>
      </trkpt>
      <trkpt lat="46.193129299208522" lon="11.904990328475833">
        <ele>1380.1099999999999</ele>
        <time>2017-07-06T05:37:02Z</time>
      </trkpt>
      <trkpt lat="46.193127706646919" lon="11.904992088675499">
        <ele>1380.1099999999999</ele>
        <time>2017-07-06T05:37:03Z</time>
      </trkpt>
      <trkpt lat="46.193113876506686" lon="11.904996698722243">
        <ele>1379.1500000000001</ele>
        <time>2017-07-06T05:37:26Z</time>
      </trkpt>
      <trkpt lat="46.193118318915367" lon="11.90501656383276">
        <ele>1379.1500000000001</ele>
        <time>2017-07-06T05:37:50Z</time>
      </trkpt>
      <trkpt lat="46.193127706646919" lon="11.905053528025746">
        <ele>1379.1500000000001</ele>
        <time>2017-07-06T05:38:18Z</time>
      </trkpt>
      <trkpt lat="46.193135669454932" lon="11.905026705935597">
        <ele>1379.1500000000001</ele>
        <time>2017-07-06T05:38:35Z</time>
      </trkpt>
      <trkpt lat="46.193117313086987" lon="11.905032321810722">
        <ele>1379.1500000000001</ele>
        <time>2017-07-06T05:38:53Z</time>
      </trkpt>
      <trkpt lat="46.193096861243248" lon="11.905044140294194">
        <ele>1380.1099999999999</ele>
        <time>2017-07-06T05:39:20Z</time>
      </trkpt>
      <trkpt lat="46.193100465461612" lon="11.905040116980672">
        <ele>1379.1500000000001</ele>
        <time>2017-07-06T05:39:38Z</time>
      </trkpt>
      <trkpt lat="46.193104404956102" lon="11.905022598803043">
        <ele>1380.5899999999999</ele>
        <time>2017-07-06T05:39:56Z</time>
      </trkpt>
      <trkpt lat="46.193095603957772" lon="11.905020335689187">
        <ele>1380.1099999999999</ele>
        <time>2017-07-06T05:40:04Z</time>
      </trkpt>
      <trkpt lat="46.19308914989233" lon="11.905005248263478">
        <ele>1380.1099999999999</ele>
        <time>2017-07-06T05:40:18Z</time>
      </trkpt>
      <trkpt lat="46.193094430491328" lon="11.904974486678839">
        <ele>1380.1099999999999</ele>
        <time>2017-07-06T05:40:36Z</time>
      </trkpt>
      <trkpt lat="46.193075319752097" lon="11.905046822503209">
        <ele>1379.6300000000001</ele>
        <time>2017-07-06T05:40:48Z</time>
      </trkpt>
      <trkpt lat="46.193054364994168" lon="11.905046654865146">
        <ele>1379.1500000000001</ele>
        <time>2017-07-06T05:40:56Z</time>
      </trkpt>
      <trkpt lat="46.193045228719711" lon="11.904998039826751">
        <ele>1379.1500000000001</ele>
        <time>2017-07-06T05:41:06Z</time>
      </trkpt>
      <trkpt lat="46.193086886778474" lon="11.905073560774326">
        <ele>1379.1500000000001</ele>
        <time>2017-07-06T05:41:19Z</time>
      </trkpt>
      <trkpt lat="46.193092754110694" lon="11.905053611844778">
        <ele>1379.1500000000001</ele>
        <time>2017-07-06T05:41:38Z</time>
      </trkpt>
      <trkpt lat="46.193086132407188" lon="11.905040284618735">
        <ele>1379.1500000000001</ele>
        <time>2017-07-06T05:41:53Z</time>
      </trkpt>
      <trkpt lat="46.193083114922047" lon="11.905014216899872">
        <ele>1379.1500000000001</ele>
        <time>2017-07-06T05:42:09Z</time>
      </trkpt>
      <trkpt lat="46.19307791814208" lon="11.905027125030756">
        <ele>1379.1500000000001</ele>
        <time>2017-07-06T05:42:24Z</time>
      </trkpt>
      <trkpt lat="46.193076074123383" lon="11.905040284618735">
        <ele>1379.1500000000001</ele>
        <time>2017-07-06T05:42:29Z</time>
      </trkpt>
      <trkpt lat="46.193069787696004" lon="11.905104238539934">
        <ele>1378.1900000000001</ele>
        <time>2017-07-06T05:42:40Z</time>
      </trkpt>
      <trkpt lat="46.193041289225221" lon="11.90508889965713">
        <ele>1378.1900000000001</ele>
        <time>2017-07-06T05:43:00Z</time>
      </trkpt>
      <trkpt lat="46.193027878180146" lon="11.905121169984341">
        <ele>1378.1900000000001</ele>
        <time>2017-07-06T05:43:24Z</time>
      </trkpt>
      <trkpt lat="46.193057717755437" lon="11.905130641534925">
        <ele>1378.6700000000001</ele>
        <time>2017-07-06T05:43:46Z</time>
      </trkpt>
      <trkpt lat="46.193080013617873" lon="11.90511966124177">
        <ele>1378.6700000000001</ele>
        <time>2017-07-06T05:44:06Z</time>
      </trkpt>
      <trkpt lat="46.19309158064425" lon="11.905143382027745">
        <ele>1378.6700000000001</ele>
        <time>2017-07-06T05:44:25Z</time>
      </trkpt>
      <trkpt lat="46.19307397864759" lon="11.905100466683507">
        <ele>1379.1500000000001</ele>
        <time>2017-07-06T05:44:34Z</time>
      </trkpt>
      <trkpt lat="46.193082947283983" lon="11.905078087002039">
        <ele>1379.6300000000001</ele>
        <time>2017-07-06T05:44:43Z</time>
      </trkpt>
      <trkpt lat="46.193087724968791" lon="11.905058054253459">
        <ele>1379.6300000000001</ele>
        <time>2017-07-06T05:44:55Z</time>
      </trkpt>
      <trkpt lat="46.193040115758777" lon="11.905061323195696">
        <ele>1379.6300000000001</ele>
        <time>2017-07-06T05:45:10Z</time>
      </trkpt>
      <trkpt lat="46.193025028333068" lon="11.905058305710554">
        <ele>1379.6300000000001</ele>
        <time>2017-07-06T05:45:12Z</time>
      </trkpt>
      <trkpt lat="46.192957134917378" lon="11.904958812519908">
        <ele>1379.6300000000001</ele>
        <time>2017-07-06T05:45:21Z</time>
      </trkpt>
      <trkpt lat="46.192959900945425" lon="11.904929308220744">
        <ele>1379.6300000000001</ele>
        <time>2017-07-06T05:45:23Z</time>
      </trkpt>
      <trkpt lat="46.192944562062621" lon="11.904842052608728">
        <ele>1379.6300000000001</ele>
        <time>2017-07-06T05:45:28Z</time>
      </trkpt>
      <trkpt lat="46.192917739972472" lon="11.904651448130608">
        <ele>1379.1500000000001</ele>
        <time>2017-07-06T05:45:40Z</time>
      </trkpt>
      <trkpt lat="46.192899383604527" lon="11.904525132849813">
        <ele>1378.6700000000001</ele>
        <time>2017-07-06T05:45:50Z</time>
      </trkpt>
      <trkpt lat="46.192897958680987" lon="11.904464531689882">
        <ele>1378.6700000000001</ele>
        <time>2017-07-06T05:45:54Z</time>
      </trkpt>
      <trkpt lat="46.192879853770137" lon="11.90444391220808">
        <ele>1378.6700000000001</ele>
        <time>2017-07-06T05:45:56Z</time>
      </trkpt>
      <trkpt lat="46.192860575392842" lon="11.904449192807078">
        <ele>1378.1900000000001</ele>
        <time>2017-07-06T05:45:58Z</time>
      </trkpt>
      <trkpt lat="46.192843392491341" lon="11.904504932463169">
        <ele>1378.1900000000001</ele>
        <time>2017-07-06T05:46:03Z</time>
      </trkpt>
      <trkpt lat="46.19283945299685" lon="11.904586739838123">
        <ele>1378.6700000000001</ele>
        <time>2017-07-06T05:46:08Z</time>
      </trkpt>
      <trkpt lat="46.192812295630574" lon="11.904739206656814">
        <ele>1379.1500000000001</ele>
        <time>2017-07-06T05:46:18Z</time>
      </trkpt>
      <trkpt lat="46.192783126607537" lon="11.904874239116907">
        <ele>1379.1500000000001</ele>
        <time>2017-07-06T05:46:30Z</time>
      </trkpt>
      <trkpt lat="46.192773403599858" lon="11.904980940744281">
        <ele>1380.1099999999999</ele>
        <time>2017-07-06T05:46:38Z</time>
      </trkpt>
      <trkpt lat="46.19274465367198" lon="11.905134497210383">
        <ele>1381.0699999999999</ele>
        <time>2017-07-06T05:46:49Z</time>
      </trkpt>
      <trkpt lat="46.19270995259285" lon="11.90529995597899">
        <ele>1382.03</ele>
        <time>2017-07-06T05:47:01Z</time>
      </trkpt>
      <trkpt lat="46.192676005885005" lon="11.905489470809698">
        <ele>1383.47</ele>
        <time>2017-07-06T05:47:15Z</time>
      </trkpt>
      <trkpt lat="46.192634431645274" lon="11.905651744455099">
        <ele>1384.4400000000001</ele>
        <time>2017-07-06T05:47:26Z</time>
      </trkpt>
      <trkpt lat="46.192624289542437" lon="11.905819633975625">
        <ele>1385.8800000000001</ele>
        <time>2017-07-06T05:47:38Z</time>
      </trkpt>
      <trkpt lat="46.192620098590851" lon="11.905997581779957">
        <ele>1386.8399999999999</ele>
        <time>2017-07-06T05:47:50Z</time>
      </trkpt>
      <trkpt lat="46.192624792456627" lon="11.906053991988301">
        <ele>1386.8399999999999</ele>
        <time>2017-07-06T05:47:54Z</time>
      </trkpt>
      <trkpt lat="46.192628983408213" lon="11.906066481024027">
        <ele>1387.8</ele>
        <time>2017-07-06T05:47:56Z</time>
      </trkpt>
      <trkpt lat="46.192624121904373" lon="11.906216097995639">
        <ele>1388.28</ele>
        <time>2017-07-06T05:48:08Z</time>
      </trkpt>
      <trkpt lat="46.192594366148114" lon="11.90637493506074">
        <ele>1389.72</ele>
        <time>2017-07-06T05:48:20Z</time>
      </trkpt>
      <trkpt lat="46.192467547953129" lon="11.906475182622671">
        <ele>1391.1700000000001</ele>
        <time>2017-07-06T05:48:34Z</time>
      </trkpt>
      <trkpt lat="46.192380040884018" lon="11.906536454334855">
        <ele>1391.6500000000001</ele>
        <time>2017-07-06T05:48:43Z</time>
      </trkpt>
      <trkpt lat="46.192240649834275" lon="11.906593702733517">
        <ele>1393.0899999999999</ele>
        <time>2017-07-06T05:48:59Z</time>
      </trkpt>
      <trkpt lat="46.19214216247201" lon="11.906624296680093">
        <ele>1394.53</ele>
        <time>2017-07-06T05:49:11Z</time>
      </trkpt>
      <trkpt lat="46.192035293206573" lon="11.906682047992945">
        <ele>1396.45</ele>
        <time>2017-07-06T05:49:23Z</time>
      </trkpt>
      <trkpt lat="46.191953904926777" lon="11.906726388260722">
        <ele>1397.4100000000001</ele>
        <time>2017-07-06T05:49:34Z</time>
      </trkpt>
      <trkpt lat="46.191857596859336" lon="11.906802915036678">
        <ele>1398.3699999999999</ele>
        <time>2017-07-06T05:49:46Z</time>
      </trkpt>
      <trkpt lat="46.191741088405252" lon="11.906890925019979">
        <ele>1399.8199999999999</ele>
        <time>2017-07-06T05:49:57Z</time>
      </trkpt>
      <trkpt lat="46.191695323213935" lon="11.906906934455037">
        <ele>1400.3</ele>
        <time>2017-07-06T05:50:02Z</time>
      </trkpt>
      <trkpt lat="46.191576048731804" lon="11.906948341056705">
        <ele>1401.74</ele>
        <time>2017-07-06T05:50:15Z</time>
      </trkpt>
      <trkpt lat="46.19148401543498" lon="11.907062754034996">
        <ele>1402.7</ele>
        <time>2017-07-06T05:50:27Z</time>
      </trkpt>
      <trkpt lat="46.191446715965867" lon="11.907225782051682">
        <ele>1403.1800000000001</ele>
        <time>2017-07-06T05:50:40Z</time>
      </trkpt>
      <trkpt lat="46.191405057907104" lon="11.907377745956182">
        <ele>1403.6600000000001</ele>
        <time>2017-07-06T05:50:51Z</time>
      </trkpt>
      <trkpt lat="46.191378319635987" lon="11.907469276338816">
        <ele>1403.6600000000001</ele>
        <time>2017-07-06T05:50:58Z</time>
      </trkpt>
      <trkpt lat="46.191379660740495" lon="11.907592490315437">
        <ele>1405.0999999999999</ele>
        <time>2017-07-06T05:51:10Z</time>
      </trkpt>
      <trkpt lat="46.19138041511178" lon="11.907542115077376">
        <ele>1404.6199999999999</ele>
        <time>2017-07-06T05:51:25Z</time>
      </trkpt>
      <trkpt lat="46.191373039036989" lon="11.907581510022283">
        <ele>1404.6199999999999</ele>
        <time>2017-07-06T05:51:37Z</time>
      </trkpt>
      <trkpt lat="46.191365327686071" lon="11.9076082482934">
        <ele>1404.6199999999999</ele>
        <time>2017-07-06T05:51:52Z</time>
      </trkpt>
      <trkpt lat="46.191348563879728" lon="11.907747471705079">
        <ele>1405.0999999999999</ele>
        <time>2017-07-06T05:52:03Z</time>
      </trkpt>
      <trkpt lat="46.191299865022302" lon="11.907909158617258">
        <ele>1405.0999999999999</ele>
        <time>2017-07-06T05:52:14Z</time>
      </trkpt>
      <trkpt lat="46.191279664635658" lon="11.907978812232614">
        <ele>1405.0999999999999</ele>
        <time>2017-07-06T05:52:18Z</time>
      </trkpt>
      <trkpt lat="46.191257368773222" lon="11.908017285168171">
        <ele>1405.0999999999999</ele>
        <time>2017-07-06T05:52:21Z</time>
      </trkpt>
      <trkpt lat="46.191239263862371" lon="11.908091548830271">
        <ele>1405.5799999999999</ele>
        <time>2017-07-06T05:52:26Z</time>
      </trkpt>
      <trkpt lat="46.191217470914125" lon="11.908286930993199">
        <ele>1405.5799999999999</ele>
        <time>2017-07-06T05:52:38Z</time>
      </trkpt>
      <trkpt lat="46.191210765391588" lon="11.908359853550792">
        <ele>1405.5799999999999</ele>
        <time>2017-07-06T05:52:49Z</time>
      </trkpt>
      <trkpt lat="46.191235492005944" lon="11.908441325649619">
        <ele>1405.5799999999999</ele>
        <time>2017-07-06T05:53:05Z</time>
      </trkpt>
      <trkpt lat="46.19127488695085" lon="11.908605946227908">
        <ele>1405.5799999999999</ele>
        <time>2017-07-06T05:53:17Z</time>
      </trkpt>
      <trkpt lat="46.191272959113121" lon="11.908656237646937">
        <ele>1405.5799999999999</ele>
        <time>2017-07-06T05:53:20Z</time>
      </trkpt>
      <trkpt lat="46.191221075132489" lon="11.908839717507362">
        <ele>1405.5799999999999</ele>
        <time>2017-07-06T05:53:33Z</time>
      </trkpt>
      <trkpt lat="46.19117614813149" lon="11.908910712227225">
        <ele>1405.5799999999999</ele>
        <time>2017-07-06T05:53:38Z</time>
      </trkpt>
      <trkpt lat="46.191004905849695" lon="11.909026466310024">
        <ele>1406.0699999999999</ele>
        <time>2017-07-06T05:53:52Z</time>
      </trkpt>
      <trkpt lat="46.190982861444354" lon="11.909045493230224">
        <ele>1405.5799999999999</ele>
        <time>2017-07-06T05:53:56Z</time>
      </trkpt>
      <trkpt lat="46.190969366580248" lon="11.909066028892994">
        <ele>1405.5799999999999</ele>
        <time>2017-07-06T05:53:58Z</time>
      </trkpt>
      <trkpt lat="46.190877165645361" lon="11.909295190125704">
        <ele>1405.5799999999999</ele>
        <time>2017-07-06T05:54:12Z</time>
      </trkpt>
      <trkpt lat="46.190808266401291" lon="11.909435587003827">
        <ele>1405.5799999999999</ele>
        <time>2017-07-06T05:54:21Z</time>
      </trkpt>
      <trkpt lat="46.190680442377925" lon="11.909563327208161">
        <ele>1405.0999999999999</ele>
        <time>2017-07-06T05:54:33Z</time>
      </trkpt>
      <trkpt lat="46.190657475963235" lon="11.909620994701982">
        <ele>1405.0999999999999</ele>
        <time>2017-07-06T05:54:37Z</time>
      </trkpt>
      <trkpt lat="46.190677089616656" lon="11.909692659974098">
        <ele>1405.0999999999999</ele>
        <time>2017-07-06T05:54:43Z</time>
      </trkpt>
      <trkpt lat="46.190706174820662" lon="11.909713447093964">
        <ele>1405.0999999999999</ele>
        <time>2017-07-06T05:54:46Z</time>
      </trkpt>
      <trkpt lat="46.190723609179258" lon="11.909739933907986">
        <ele>1405.0999999999999</ele>
        <time>2017-07-06T05:54:48Z</time>
      </trkpt>
      <trkpt lat="46.19079602882266" lon="11.909832386299968">
        <ele>1404.6199999999999</ele>
        <time>2017-07-06T05:54:58Z</time>
      </trkpt>
      <trkpt lat="46.190872807055712" lon="11.909893825650215">
        <ele>1405.0999999999999</ele>
        <time>2017-07-06T05:55:05Z</time>
      </trkpt>
      <trkpt lat="46.190904658287764" lon="11.910056183114648">
        <ele>1404.6199999999999</ele>
        <time>2017-07-06T05:55:14Z</time>
      </trkpt>
      <trkpt lat="46.190928127616644" lon="11.910286098718643">
        <ele>1404.6199999999999</ele>
        <time>2017-07-06T05:55:27Z</time>
      </trkpt>
      <trkpt lat="46.190969366580248" lon="11.910412330180407">
        <ele>1404.6199999999999</ele>
        <time>2017-07-06T05:55:35Z</time>
      </trkpt>
      <trkpt lat="46.190971378237009" lon="11.910479133948684">
        <ele>1404.6199999999999</ele>
        <time>2017-07-06T05:55:39Z</time>
      </trkpt>
      <trkpt lat="46.190953440964222" lon="11.91056789830327">
        <ele>1404.6199999999999</ele>
        <time>2017-07-06T05:55:45Z</time>
      </trkpt>
      <trkpt lat="46.190932905301452" lon="11.910680131986737">
        <ele>1404.1400000000001</ele>
        <time>2017-07-06T05:55:52Z</time>
      </trkpt>
      <trkpt lat="46.190946316346526" lon="11.910808878019452">
        <ele>1404.1400000000001</ele>
        <time>2017-07-06T05:56:03Z</time>
      </trkpt>
      <trkpt lat="46.190984454005957" lon="11.91093921661377">
        <ele>1404.1400000000001</ele>
        <time>2017-07-06T05:56:15Z</time>
      </trkpt>
      <trkpt lat="46.191002726554871" lon="11.911085899919271">
        <ele>1403.6600000000001</ele>
        <time>2017-07-06T05:56:25Z</time>
      </trkpt>
      <trkpt lat="46.190997445955873" lon="11.911113141104579">
        <ele>1403.6600000000001</ele>
        <time>2017-07-06T05:56:27Z</time>
      </trkpt>
      <trkpt lat="46.190979676321149" lon="11.911153960973024">
        <ele>1403.6600000000001</ele>
        <time>2017-07-06T05:56:30Z</time>
      </trkpt>
      <trkpt lat="46.190988142043352" lon="11.911303075030446">
        <ele>1403.1800000000001</ele>
        <time>2017-07-06T05:56:43Z</time>
      </trkpt>
      <trkpt lat="46.190998367965221" lon="11.911296620965004">
        <ele>1404.1400000000001</ele>
        <time>2017-07-06T05:56:53Z</time>
      </trkpt>
      <trkpt lat="46.191004905849695" lon="11.91125487908721">
        <ele>1404.1400000000001</ele>
        <time>2017-07-06T05:57:05Z</time>
      </trkpt>
      <trkpt lat="46.190993674099445" lon="11.911424277350307">
        <ele>1402.7</ele>
        <time>2017-07-06T05:57:16Z</time>
      </trkpt>
      <trkpt lat="46.190994679927826" lon="11.911627873778343">
        <ele>1400.78</ele>
        <time>2017-07-06T05:57:29Z</time>
      </trkpt>
      <trkpt lat="46.190996691584587" lon="11.911648996174335">
        <ele>1400.78</ele>
        <time>2017-07-06T05:57:30Z</time>
      </trkpt>
      <trkpt lat="46.191044300794601" lon="11.911876983940601">
        <ele>1397.8900000000001</ele>
        <time>2017-07-06T05:57:45Z</time>
      </trkpt>
      <trkpt lat="46.191143626347184" lon="11.912065073847771">
        <ele>1396.9300000000001</ele>
        <time>2017-07-06T05:58:00Z</time>
      </trkpt>
      <trkpt lat="46.191155109554529" lon="11.912100194022059">
        <ele>1396.9300000000001</ele>
        <time>2017-07-06T05:58:03Z</time>
      </trkpt>
      <trkpt lat="46.191189056262374" lon="11.912172194570303">
        <ele>1395.97</ele>
        <time>2017-07-06T05:58:09Z</time>
      </trkpt>
      <trkpt lat="46.191234402358532" lon="11.912274453788996">
        <ele>1394.53</ele>
        <time>2017-07-06T05:58:16Z</time>
      </trkpt>
      <trkpt lat="46.191247561946511" lon="11.912315776571631">
        <ele>1395.01</ele>
        <time>2017-07-06T05:58:19Z</time>
      </trkpt>
      <trkpt lat="46.191281592473388" lon="11.912440331652761">
        <ele>1394.05</ele>
        <time>2017-07-06T05:58:29Z</time>
      </trkpt>
      <trkpt lat="46.191305313259363" lon="11.912504872307181">
        <ele>1393.5699999999999</ele>
        <time>2017-07-06T05:58:34Z</time>
      </trkpt>
      <trkpt lat="46.191361723467708" lon="11.91268072463572">
        <ele>1392.6099999999999</ele>
        <time>2017-07-06T05:58:46Z</time>
      </trkpt>
      <trkpt lat="46.191380331292748" lon="11.912764795124531">
        <ele>1392.1300000000001</ele>
        <time>2017-07-06T05:58:51Z</time>
      </trkpt>
      <trkpt lat="46.191453924402595" lon="11.912940731272101">
        <ele>1391.6500000000001</ele>
        <time>2017-07-06T05:59:03Z</time>
      </trkpt>
      <trkpt lat="46.191466664895415" lon="11.913030417636037">
        <ele>1391.1700000000001</ele>
        <time>2017-07-06T05:59:09Z</time>
      </trkpt>
      <trkpt lat="46.191451661288738" lon="11.913244491443038">
        <ele>1391.1700000000001</ele>
        <time>2017-07-06T05:59:22Z</time>
      </trkpt>
      <trkpt lat="46.191447470337152" lon="11.913447249680758">
        <ele>1391.1700000000001</ele>
        <time>2017-07-06T05:59:33Z</time>
      </trkpt>
      <trkpt lat="46.191435819491744" lon="11.91350944340229">
        <ele>1390.6800000000001</ele>
        <time>2017-07-06T05:59:37Z</time>
      </trkpt>
      <trkpt lat="46.191477477550507" lon="11.913640620186925">
        <ele>1391.1700000000001</ele>
        <time>2017-07-06T05:59:49Z</time>
      </trkpt>
      <trkpt lat="46.191584849730134" lon="11.913660233840346">
        <ele>1392.1300000000001</ele>
        <time>2017-07-06T06:00:00Z</time>
      </trkpt>
      <trkpt lat="46.191645450890064" lon="11.913726199418306">
        <ele>1392.1300000000001</ele>
        <time>2017-07-06T06:00:06Z</time>
      </trkpt>
      <trkpt lat="46.191710913553834" lon="11.913956701755524">
        <ele>1392.6099999999999</ele>
        <time>2017-07-06T06:00:18Z</time>
      </trkpt>
      <trkpt lat="46.191726503893733" lon="11.914199190214276">
        <ele>1393.0899999999999</ele>
        <time>2017-07-06T06:00:31Z</time>
      </trkpt>
      <trkpt lat="46.191781908273697" lon="11.914387028664351">
        <ele>1393.5699999999999</ele>
        <time>2017-07-06T06:00:45Z</time>
      </trkpt>
      <trkpt lat="46.191861368715763" lon="11.914541842415929">
        <ele>1393.5699999999999</ele>
        <time>2017-07-06T06:00:56Z</time>
      </trkpt>
      <trkpt lat="46.191894980147481" lon="11.91468651406467">
        <ele>1393.5699999999999</ele>
        <time>2017-07-06T06:01:06Z</time>
      </trkpt>
      <trkpt lat="46.19195407256484" lon="11.914904695004225">
        <ele>1393.5699999999999</ele>
        <time>2017-07-06T06:01:20Z</time>
      </trkpt>
      <trkpt lat="46.191945020109415" lon="11.915110638365149">
        <ele>1393.5699999999999</ele>
        <time>2017-07-06T06:01:32Z</time>
      </trkpt>
      <trkpt lat="46.191966226324439" lon="11.915315994992852">
        <ele>1394.05</ele>
        <time>2017-07-06T06:01:45Z</time>
      </trkpt>
      <trkpt lat="46.191991120576859" lon="11.915544988587499">
        <ele>1394.53</ele>
        <time>2017-07-06T06:01:59Z</time>
      </trkpt>
      <trkpt lat="46.191988186910748" lon="11.91556409932673">
        <ele>1394.53</ele>
        <time>2017-07-06T06:02:00Z</time>
      </trkpt>
      <trkpt lat="46.191960861906409" lon="11.915752692148089">
        <ele>1394.53</ele>
        <time>2017-07-06T06:02:12Z</time>
      </trkpt>
      <trkpt lat="46.191946025937796" lon="11.915950924158096">
        <ele>1394.53</ele>
        <time>2017-07-06T06:02:23Z</time>
      </trkpt>
      <trkpt lat="46.191988689824939" lon="11.916099283844233">
        <ele>1395.01</ele>
        <time>2017-07-06T06:02:33Z</time>
      </trkpt>
      <trkpt lat="46.192018613219261" lon="11.916300030425191">
        <ele>1395.01</ele>
        <time>2017-07-06T06:02:46Z</time>
      </trkpt>
      <trkpt lat="46.192021295428276" lon="11.916317213326693">
        <ele>1395.49</ele>
        <time>2017-07-06T06:02:47Z</time>
      </trkpt>
      <trkpt lat="46.192022301256657" lon="11.91637085750699">
        <ele>1395.01</ele>
        <time>2017-07-06T06:02:50Z</time>
      </trkpt>
      <trkpt lat="46.192045183852315" lon="11.916552325710654">
        <ele>1395.01</ele>
        <time>2017-07-06T06:03:00Z</time>
      </trkpt>
      <trkpt lat="46.192037640139461" lon="11.916730357334018">
        <ele>1395.49</ele>
        <time>2017-07-06T06:03:11Z</time>
      </trkpt>
      <trkpt lat="46.192059265449643" lon="11.916928505524993">
        <ele>1395.49</ele>
        <time>2017-07-06T06:03:22Z</time>
      </trkpt>
      <trkpt lat="46.19206546805799" lon="11.91703587770462">
        <ele>1395.01</ele>
        <time>2017-07-06T06:03:29Z</time>
      </trkpt>
      <trkpt lat="46.192107880488038" lon="11.917194630950689">
        <ele>1395.49</ele>
        <time>2017-07-06T06:03:37Z</time>
      </trkpt>
      <trkpt lat="46.192133780568838" lon="11.917373752221465">
        <ele>1395.97</ele>
        <time>2017-07-06T06:03:47Z</time>
      </trkpt>
      <trkpt lat="46.192064713686705" lon="11.917537450790405">
        <ele>1395.97</ele>
        <time>2017-07-06T06:03:59Z</time>
      </trkpt>
      <trkpt lat="46.191960778087378" lon="11.917732832953334">
        <ele>1395.97</ele>
        <time>2017-07-06T06:04:13Z</time>
      </trkpt>
      <trkpt lat="46.191889448091388" lon="11.917870631441474">
        <ele>1395.97</ele>
        <time>2017-07-06T06:04:24Z</time>
      </trkpt>
      <trkpt lat="46.191914677619934" lon="11.917982613667846">
        <ele>1396.45</ele>
        <time>2017-07-06T06:04:32Z</time>
      </trkpt>
      <trkpt lat="46.191955078393221" lon="11.917996359989047">
        <ele>1396.45</ele>
        <time>2017-07-06T06:04:37Z</time>
      </trkpt>
      <trkpt lat="46.192100420594215" lon="11.918089315295219">
        <ele>1396.9300000000001</ele>
        <time>2017-07-06T06:04:51Z</time>
      </trkpt>
      <trkpt lat="46.192167978733778" lon="11.918289810419083">
        <ele>1397.4100000000001</ele>
        <time>2017-07-06T06:05:03Z</time>
      </trkpt>
      <trkpt lat="46.192199243232608" lon="11.918507991358638">
        <ele>1397.8900000000001</ele>
        <time>2017-07-06T06:05:16Z</time>
      </trkpt>
      <trkpt lat="46.192216174677014" lon="11.918672528117895">
        <ele>1397.8900000000001</ele>
        <time>2017-07-06T06:05:26Z</time>
      </trkpt>
      <trkpt lat="46.192266466096044" lon="11.91885257139802">
        <ele>1397.8900000000001</ele>
        <time>2017-07-06T06:05:37Z</time>
      </trkpt>
      <trkpt lat="46.192328911274672" lon="11.918977713212371">
        <ele>1398.3699999999999</ele>
        <time>2017-07-06T06:05:46Z</time>
      </trkpt>
      <trkpt lat="46.192331844940782" lon="11.919013168662786">
        <ele>1398.3699999999999</ele>
        <time>2017-07-06T06:05:48Z</time>
      </trkpt>
      <trkpt lat="46.192387668415904" lon="11.91916580311954">
        <ele>1398.8599999999999</ele>
        <time>2017-07-06T06:05:58Z</time>
      </trkpt>
      <trkpt lat="46.192420609295368" lon="11.919321538880467">
        <ele>1398.8599999999999</ele>
        <time>2017-07-06T06:06:08Z</time>
      </trkpt>
      <trkpt lat="46.192430919036269" lon="11.919355485588312">
        <ele>1398.8599999999999</ele>
        <time>2017-07-06T06:06:10Z</time>
      </trkpt>
      <trkpt lat="46.192475678399205" lon="11.919576097279787">
        <ele>1399.3399999999999</ele>
        <time>2017-07-06T06:06:23Z</time>
      </trkpt>
      <trkpt lat="46.19249302893877" lon="11.919783800840378">
        <ele>1399.3399999999999</ele>
        <time>2017-07-06T06:06:35Z</time>
      </trkpt>
      <trkpt lat="46.192504512146115" lon="11.919983038678765">
        <ele>1399.8199999999999</ele>
        <time>2017-07-06T06:06:47Z</time>
      </trkpt>
      <trkpt lat="46.192531669512391" lon="11.920177079737186">
        <ele>1400.78</ele>
        <time>2017-07-06T06:06:59Z</time>
      </trkpt>
      <trkpt lat="46.192547092214227" lon="11.920359721407294">
        <ele>1400.78</ele>
        <time>2017-07-06T06:07:10Z</time>
      </trkpt>
      <trkpt lat="46.192547595128417" lon="11.920395931228995">
        <ele>1400.78</ele>
        <time>2017-07-06T06:07:12Z</time>
      </trkpt>
      <trkpt lat="46.192568885162473" lon="11.920567089691758">
        <ele>1400.78</ele>
        <time>2017-07-06T06:07:22Z</time>
      </trkpt>
      <trkpt lat="46.192578356713057" lon="11.920604137703776">
        <ele>1400.78</ele>
        <time>2017-07-06T06:07:24Z</time>
      </trkpt>
      <trkpt lat="46.192625546827912" lon="11.920805722475052">
        <ele>1400.78</ele>
        <time>2017-07-06T06:07:36Z</time>
      </trkpt>
      <trkpt lat="46.192654715850949" lon="11.920977886766195">
        <ele>1401.26</ele>
        <time>2017-07-06T06:07:47Z</time>
      </trkpt>
      <trkpt lat="46.192687656730413" lon="11.921160779893398">
        <ele>1401.26</ele>
        <time>2017-07-06T06:07:58Z</time>
      </trkpt>
      <trkpt lat="46.19270115159452" lon="11.921322047710419">
        <ele>1400.78</ele>
        <time>2017-07-06T06:08:09Z</time>
      </trkpt>
      <trkpt lat="46.192691596224904" lon="11.921462863683701">
        <ele>1401.74</ele>
        <time>2017-07-06T06:08:19Z</time>
      </trkpt>
      <trkpt lat="46.192725962027907" lon="11.921663274988532">
        <ele>1401.74</ele>
        <time>2017-07-06T06:08:30Z</time>
      </trkpt>
      <trkpt lat="46.192746078595519" lon="11.921862177550793">
        <ele>1402.22</ele>
        <time>2017-07-06T06:08:41Z</time>
      </trkpt>
      <trkpt lat="46.192747419700027" lon="11.921966783702374">
        <ele>1401.74</ele>
        <time>2017-07-06T06:08:47Z</time>
      </trkpt>
      <trkpt lat="46.192748257890344" lon="11.922091674059629">
        <ele>1402.22</ele>
        <time>2017-07-06T06:08:53Z</time>
      </trkpt>
      <trkpt lat="46.192771308124065" lon="11.922331396490335">
        <ele>1402.7</ele>
        <time>2017-07-06T06:09:07Z</time>
      </trkpt>
      <trkpt lat="46.192783461883664" lon="11.922518061473966">
        <ele>1402.7</ele>
        <time>2017-07-06T06:09:18Z</time>
      </trkpt>
      <trkpt lat="46.192803410813212" lon="11.922723418101668">
        <ele>1403.1800000000001</ele>
        <time>2017-07-06T06:09:30Z</time>
      </trkpt>
      <trkpt lat="46.192806176841259" lon="11.92273716442287">
        <ele>1403.1800000000001</ele>
        <time>2017-07-06T06:09:31Z</time>
      </trkpt>
      <trkpt lat="46.192823108285666" lon="11.922816792502999">
        <ele>1403.1800000000001</ele>
        <time>2017-07-06T06:09:36Z</time>
      </trkpt>
      <trkpt lat="46.192848002538085" lon="11.923016784712672">
        <ele>1402.7</ele>
        <time>2017-07-06T06:09:47Z</time>
      </trkpt>
      <trkpt lat="46.1928282212466" lon="11.923229601234198">
        <ele>1403.1800000000001</ele>
        <time>2017-07-06T06:10:00Z</time>
      </trkpt>
      <trkpt lat="46.192878177389503" lon="11.92344811744988">
        <ele>1404.1400000000001</ele>
        <time>2017-07-06T06:10:12Z</time>
      </trkpt>
      <trkpt lat="46.192938191816211" lon="11.923625143244863">
        <ele>1404.1400000000001</ele>
        <time>2017-07-06T06:10:23Z</time>
      </trkpt>
      <trkpt lat="46.19294062256813" lon="11.923822872340679">
        <ele>1404.6199999999999</ele>
        <time>2017-07-06T06:10:35Z</time>
      </trkpt>
      <trkpt lat="46.192988818511367" lon="11.923979613929987">
        <ele>1405.0999999999999</ele>
        <time>2017-07-06T06:10:46Z</time>
      </trkpt>
      <trkpt lat="46.192987225949764" lon="11.924170386046171">
        <ele>1405.5799999999999</ele>
        <time>2017-07-06T06:10:58Z</time>
      </trkpt>
      <trkpt lat="46.192990830168128" lon="11.924202656373382">
        <ele>1405.0999999999999</ele>
        <time>2017-07-06T06:11:00Z</time>
      </trkpt>
      <trkpt lat="46.193001475185156" lon="11.924309944733977">
        <ele>1405.0999999999999</ele>
        <time>2017-07-06T06:11:06Z</time>
      </trkpt>
      <trkpt lat="46.193008599802852" lon="11.924440786242485">
        <ele>1405.5799999999999</ele>
        <time>2017-07-06T06:11:14Z</time>
      </trkpt>
      <trkpt lat="46.193049838766456" lon="11.92463499493897">
        <ele>1406.0699999999999</ele>
        <time>2017-07-06T06:11:27Z</time>
      </trkpt>
      <trkpt lat="46.193052101880312" lon="11.924652848392725">
        <ele>1406.0699999999999</ele>
        <time>2017-07-06T06:11:28Z</time>
      </trkpt>
      <trkpt lat="46.193089485168457" lon="11.924776062369347">
        <ele>1406.0699999999999</ele>
        <time>2017-07-06T06:11:38Z</time>
      </trkpt>
      <trkpt lat="46.193107925355434" lon="11.924964068457484">
        <ele>1406.55</ele>
        <time>2017-07-06T06:11:49Z</time>
      </trkpt>
      <trkpt lat="46.193095939233899" lon="11.925129359588027">
        <ele>1406.55</ele>
        <time>2017-07-06T06:11:59Z</time>
      </trkpt>
      <trkpt lat="46.193052437156439" lon="11.925303870812058">
        <ele>1407.03</ele>
        <time>2017-07-06T06:12:10Z</time>
      </trkpt>
      <trkpt lat="46.193101890385151" lon="11.925563290715218">
        <ele>1407.51</ele>
        <time>2017-07-06T06:12:23Z</time>
      </trkpt>
      <trkpt lat="46.193090239539742" lon="11.925738472491503">
        <ele>1407.51</ele>
        <time>2017-07-06T06:12:34Z</time>
      </trkpt>
      <trkpt lat="46.193123767152429" lon="11.925975261256099">
        <ele>1407.99</ele>
        <time>2017-07-06T06:12:48Z</time>
      </trkpt>
      <trkpt lat="46.193154025822878" lon="11.926170811057091">
        <ele>1408.47</ele>
        <time>2017-07-06T06:12:59Z</time>
      </trkpt>
      <trkpt lat="46.19315410964191" lon="11.926201991736889">
        <ele>1408.47</ele>
        <time>2017-07-06T06:13:01Z</time>
      </trkpt>
      <trkpt lat="46.193083617836237" lon="11.926285224035382">
        <ele>1409.4300000000001</ele>
        <time>2017-07-06T06:13:13Z</time>
      </trkpt>
      <trkpt lat="46.193077666684985" lon="11.926236189901829">
        <ele>1408.95</ele>
        <time>2017-07-06T06:13:25Z</time>
      </trkpt>
      <trkpt lat="46.193049252033234" lon="11.926284302026033">
        <ele>1409.4300000000001</ele>
        <time>2017-07-06T06:13:36Z</time>
      </trkpt>
      <trkpt lat="46.193030811846256" lon="11.926319589838386">
        <ele>1409.4300000000001</ele>
        <time>2017-07-06T06:13:51Z</time>
      </trkpt>
      <trkpt lat="46.193065429106355" lon="11.926298718899488">
        <ele>1409.4300000000001</ele>
        <time>2017-07-06T06:14:00Z</time>
      </trkpt>
      <trkpt lat="46.193060735240579" lon="11.926285475492477">
        <ele>1409.9100000000001</ele>
        <time>2017-07-06T06:14:16Z</time>
      </trkpt>
      <trkpt lat="46.193050090223551" lon="11.926302155479789">
        <ele>1408.95</ele>
        <time>2017-07-06T06:14:27Z</time>
      </trkpt>
      <trkpt lat="46.193049168214202" lon="11.92628363147378">
        <ele>1408.95</ele>
        <time>2017-07-06T06:14:44Z</time>
      </trkpt>
      <trkpt lat="46.193032823503017" lon="11.926400642842054">
        <ele>1408.47</ele>
        <time>2017-07-06T06:14:53Z</time>
      </trkpt>
      <trkpt lat="46.193004073575139" lon="11.926500806584954">
        <ele>1406.55</ele>
        <time>2017-07-06T06:15:07Z</time>
      </trkpt>
      <trkpt lat="46.192978257313371" lon="11.926619159057736">
        <ele>1404.6199999999999</ele>
        <time>2017-07-06T06:15:17Z</time>
      </trkpt>
      <trkpt lat="46.192939281463623" lon="11.926776403561234">
        <ele>1402.22</ele>
        <time>2017-07-06T06:15:28Z</time>
      </trkpt>
      <trkpt lat="46.192897958680987" lon="11.926871202886105">
        <ele>1399.8199999999999</ele>
        <time>2017-07-06T06:15:38Z</time>
      </trkpt>
      <trkpt lat="46.192885972559452" lon="11.926886457949877">
        <ele>1399.3399999999999</ele>
        <time>2017-07-06T06:15:40Z</time>
      </trkpt>
      <trkpt lat="46.192835094407201" lon="11.926918476819992">
        <ele>1397.8900000000001</ele>
        <time>2017-07-06T06:15:46Z</time>
      </trkpt>
      <trkpt lat="46.192832747474313" lon="11.927030375227332">
        <ele>1395.97</ele>
        <time>2017-07-06T06:15:57Z</time>
      </trkpt>
      <trkpt lat="46.192881111055613" lon="11.927068680524826">
        <ele>1393.5699999999999</ele>
        <time>2017-07-06T06:16:06Z</time>
      </trkpt>
      <trkpt lat="46.192950177937746" lon="11.927131209522486">
        <ele>1390.6800000000001</ele>
        <time>2017-07-06T06:16:17Z</time>
      </trkpt>
      <trkpt lat="46.193027878180146" lon="11.927251992747188">
        <ele>1388.28</ele>
        <time>2017-07-06T06:16:27Z</time>
      </trkpt>
      <trkpt lat="46.192950094118714" lon="11.927340673282743">
        <ele>1385.8800000000001</ele>
        <time>2017-07-06T06:16:38Z</time>
      </trkpt>
      <trkpt lat="46.192849930375814" lon="11.927401777356863">
        <ele>1382.99</ele>
        <time>2017-07-06T06:16:49Z</time>
      </trkpt>
      <trkpt lat="46.192758735269308" lon="11.927417619153857">
        <ele>1380.5899999999999</ele>
        <time>2017-07-06T06:16:59Z</time>
      </trkpt>
      <trkpt lat="46.192678855732083" lon="11.927397586405277">
        <ele>1379.1500000000001</ele>
        <time>2017-07-06T06:17:09Z</time>
      </trkpt>
      <trkpt lat="46.1926210206002" lon="11.927425330504775">
        <ele>1375.78</ele>
        <time>2017-07-06T06:17:16Z</time>
      </trkpt>
      <trkpt lat="46.192612638697028" lon="11.927426671609282">
        <ele>1375.78</ele>
        <time>2017-07-06T06:17:17Z</time>
      </trkpt>
      <trkpt lat="46.192530244588852" lon="11.927440501749516">
        <ele>1374.8199999999999</ele>
        <time>2017-07-06T06:17:27Z</time>
      </trkpt>
      <trkpt lat="46.192450365051627" lon="11.927467240020633">
        <ele>1372.9000000000001</ele>
        <time>2017-07-06T06:17:36Z</time>
      </trkpt>
      <trkpt lat="46.192449610680342" lon="11.927505545318127">
        <ele>1371.9400000000001</ele>
        <time>2017-07-06T06:17:42Z</time>
      </trkpt>
      <trkpt lat="46.192393116652966" lon="11.92756338045001">
        <ele>1369.05</ele>
        <time>2017-07-06T06:17:52Z</time>
      </trkpt>
      <trkpt lat="46.192303765565157" lon="11.92761761136353">
        <ele>1366.6500000000001</ele>
        <time>2017-07-06T06:18:02Z</time>
      </trkpt>
      <trkpt lat="46.192211229354143" lon="11.927664130926132">
        <ele>1364.25</ele>
        <time>2017-07-06T06:18:13Z</time>
      </trkpt>
      <trkpt lat="46.192180048674345" lon="11.927675027400255">
        <ele>1362.3299999999999</ele>
        <time>2017-07-06T06:18:18Z</time>
      </trkpt>
      <trkpt lat="46.19209329597652" lon="11.927679469808936">
        <ele>1360.8800000000001</ele>
        <time>2017-07-06T06:18:28Z</time>
      </trkpt>
      <trkpt lat="46.192055661231279" lon="11.927742250263691">
        <ele>1359.4400000000001</ele>
        <time>2017-07-06T06:18:40Z</time>
      </trkpt>
      <trkpt lat="46.191993970423937" lon="11.927833780646324">
        <ele>1356.0799999999999</ele>
        <time>2017-07-06T06:18:51Z</time>
      </trkpt>
      <trkpt lat="46.191934458911419" lon="11.927960012108088">
        <ele>1353.6700000000001</ele>
        <time>2017-07-06T06:19:02Z</time>
      </trkpt>
      <trkpt lat="46.191840581595898" lon="11.928064785897732">
        <ele>1350.3099999999999</ele>
        <time>2017-07-06T06:19:18Z</time>
      </trkpt>
      <trkpt lat="46.191759193316102" lon="11.928072581067681">
        <ele>1348.8699999999999</ele>
        <time>2017-07-06T06:19:30Z</time>
      </trkpt>
      <trkpt lat="46.191677050665021" lon="11.928077610209584">
        <ele>1346.9400000000001</ele>
        <time>2017-07-06T06:19:42Z</time>
      </trkpt>
      <trkpt lat="46.191671602427959" lon="11.928084567189217">
        <ele>1346.46</ele>
        <time>2017-07-06T06:19:43Z</time>
      </trkpt>
      <trkpt lat="46.191566744819283" lon="11.928152544423938">
        <ele>1344.54</ele>
        <time>2017-07-06T06:19:57Z</time>
      </trkpt>
      <trkpt lat="46.191494408994913" lon="11.928246337920427">
        <ele>1342.6199999999999</ele>
        <time>2017-07-06T06:20:08Z</time>
      </trkpt>
      <trkpt lat="46.191430035978556" lon="11.928336443379521">
        <ele>1339.73</ele>
        <time>2017-07-06T06:20:20Z</time>
      </trkpt>
      <trkpt lat="46.191338505595922" lon="11.928376341238618">
        <ele>1337.8099999999999</ele>
        <time>2017-07-06T06:20:30Z</time>
      </trkpt>
      <trkpt lat="46.191284526139498" lon="11.928410623222589">
        <ele>1334.9300000000001</ele>
        <time>2017-07-06T06:20:42Z</time>
      </trkpt>
      <trkpt lat="46.191196516156197" lon="11.928488239645958">
        <ele>1332.04</ele>
        <time>2017-07-06T06:20:56Z</time>
      </trkpt>
      <trkpt lat="46.191152930259705" lon="11.928483042865992">
        <ele>1332.04</ele>
        <time>2017-07-06T06:21:04Z</time>
      </trkpt>
      <trkpt lat="46.191092748194933" lon="11.928538614884019">
        <ele>1329.6400000000001</ele>
        <time>2017-07-06T06:21:15Z</time>
      </trkpt>
      <trkpt lat="46.191113702952862" lon="11.928593432530761">
        <ele>1327.24</ele>
        <time>2017-07-06T06:21:25Z</time>
      </trkpt>
      <trkpt lat="46.191174890846014" lon="11.928586391732097">
        <ele>1323.8699999999999</ele>
        <time>2017-07-06T06:21:34Z</time>
      </trkpt>
      <trkpt lat="46.191246556118131" lon="11.928695691749454">
        <ele>1322.9100000000001</ele>
        <time>2017-07-06T06:21:44Z</time>
      </trkpt>
      <trkpt lat="46.191288800910115" lon="11.928811278194189">
        <ele>1320.99</ele>
        <time>2017-07-06T06:21:56Z</time>
      </trkpt>
      <trkpt lat="46.191289639100432" lon="11.928796442225575">
        <ele>1321.47</ele>
        <time>2017-07-06T06:22:01Z</time>
      </trkpt>
      <trkpt lat="46.191296009346843" lon="11.9288245216012">
        <ele>1320.99</ele>
        <time>2017-07-06T06:22:03Z</time>
      </trkpt>
      <trkpt lat="46.191310258582234" lon="11.928985705599189">
        <ele>1317.1400000000001</ele>
        <time>2017-07-06T06:22:15Z</time>
      </trkpt>
      <trkpt lat="46.191335488110781" lon="11.929090563207865">
        <ele>1314.26</ele>
        <time>2017-07-06T06:22:24Z</time>
      </trkpt>
      <trkpt lat="46.191342025995255" lon="11.929201958701015">
        <ele>1310.9000000000001</ele>
        <time>2017-07-06T06:22:35Z</time>
      </trkpt>
      <trkpt lat="46.191269271075726" lon="11.929202545434237">
        <ele>1310.4100000000001</ele>
        <time>2017-07-06T06:22:47Z</time>
      </trkpt>
      <trkpt lat="46.191244125366211" lon="11.929118894040585">
        <ele>1310.4100000000001</ele>
        <time>2017-07-06T06:22:57Z</time>
      </trkpt>
      <trkpt lat="46.191201629117131" lon="11.92908888682723">
        <ele>1310.4100000000001</ele>
        <time>2017-07-06T06:23:09Z</time>
      </trkpt>
      <trkpt lat="46.191190732643008" lon="11.929081510752439">
        <ele>1309.9300000000001</ele>
        <time>2017-07-06T06:23:18Z</time>
      </trkpt>
      <trkpt lat="46.1911790817976" lon="11.929076984524727">
        <ele>1309.9300000000001</ele>
        <time>2017-07-06T06:23:26Z</time>
      </trkpt>
      <trkpt lat="46.191135495901108" lon="11.929083941504359">
        <ele>1309.45</ele>
        <time>2017-07-06T06:23:34Z</time>
      </trkpt>
      <trkpt lat="46.190998116508126" lon="11.928992494940758">
        <ele>1307.53</ele>
        <time>2017-07-06T06:23:46Z</time>
      </trkpt>
      <trkpt lat="46.190944472327828" lon="11.928974222391844">
        <ele>1307.05</ele>
        <time>2017-07-06T06:23:51Z</time>
      </trkpt>
      <trkpt lat="46.190867694094777" lon="11.928953938186169">
        <ele>1306.0899999999999</ele>
        <time>2017-07-06T06:24:02Z</time>
      </trkpt>
      <trkpt lat="46.190747665241361" lon="11.928903898224235">
        <ele>1305.6099999999999</ele>
        <time>2017-07-06T06:24:11Z</time>
      </trkpt>
      <trkpt lat="46.190621769055724" lon="11.928901970386505">
        <ele>1305.6099999999999</ele>
        <time>2017-07-06T06:24:22Z</time>
      </trkpt>
      <trkpt lat="46.190547589212656" lon="11.928991405293345">
        <ele>1305.1300000000001</ele>
        <time>2017-07-06T06:24:33Z</time>
      </trkpt>
      <trkpt lat="46.190532837063074" lon="11.928987465798855">
        <ele>1305.6099999999999</ele>
        <time>2017-07-06T06:24:46Z</time>
      </trkpt>
      <trkpt lat="46.190512720495462" lon="11.929139094427228">
        <ele>1306.5699999999999</ele>
        <time>2017-07-06T06:24:57Z</time>
      </trkpt>
      <trkpt lat="46.190518336370587" lon="11.929259207099676">
        <ele>1308.01</ele>
        <time>2017-07-06T06:25:07Z</time>
      </trkpt>
      <trkpt lat="46.190520180389285" lon="11.929352581501007">
        <ele>1308.49</ele>
        <time>2017-07-06T06:25:14Z</time>
      </trkpt>
      <trkpt lat="46.190516743808985" lon="11.929474286735058">
        <ele>1309.9300000000001</ele>
        <time>2017-07-06T06:25:24Z</time>
      </trkpt>
      <trkpt lat="46.190524622797966" lon="11.929632537066936">
        <ele>1309.9300000000001</ele>
        <time>2017-07-06T06:25:36Z</time>
      </trkpt>
      <trkpt lat="46.190519761294127" lon="11.929658269509673">
        <ele>1309.9300000000001</ele>
        <time>2017-07-06T06:25:38Z</time>
      </trkpt>
      <trkpt lat="46.190455555915833" lon="11.92976463586092">
        <ele>1309.45</ele>
        <time>2017-07-06T06:25:48Z</time>
      </trkpt>
      <trkpt lat="46.190446671098471" lon="11.929783327504992">
        <ele>1309.45</ele>
        <time>2017-07-06T06:25:50Z</time>
      </trkpt>
      <trkpt lat="46.190423117950559" lon="11.929917940869927">
        <ele>1308.97</ele>
        <time>2017-07-06T06:25:59Z</time>
      </trkpt>
      <trkpt lat="46.19036159478128" lon="11.93002313375473">
        <ele>1308.97</ele>
        <time>2017-07-06T06:26:05Z</time>
      </trkpt>
      <trkpt lat="46.190272159874439" lon="11.930202506482601">
        <ele>1307.53</ele>
        <time>2017-07-06T06:26:18Z</time>
      </trkpt>
      <trkpt lat="46.190176606178284" lon="11.930376598611474">
        <ele>1307.05</ele>
        <time>2017-07-06T06:26:31Z</time>
      </trkpt>
      <trkpt lat="46.190058002248406" lon="11.930549181997776">
        <ele>1307.05</ele>
        <time>2017-07-06T06:26:44Z</time>
      </trkpt>
      <trkpt lat="46.19000100530684" lon="11.930732913315296">
        <ele>1307.53</ele>
        <time>2017-07-06T06:26:57Z</time>
      </trkpt>
      <trkpt lat="46.189951384440064" lon="11.930855205282569">
        <ele>1309.9300000000001</ele>
        <time>2017-07-06T06:27:11Z</time>
      </trkpt>
      <trkpt lat="46.189849460497499" lon="11.930946819484234">
        <ele>1310.9000000000001</ele>
        <time>2017-07-06T06:27:23Z</time>
      </trkpt>
      <trkpt lat="46.189798749983311" lon="11.93098671734333">
        <ele>1311.3800000000001</ele>
        <time>2017-07-06T06:27:30Z</time>
      </trkpt>
      <trkpt lat="46.189679056406021" lon="11.931037427857518">
        <ele>1312.8199999999999</ele>
        <time>2017-07-06T06:27:41Z</time>
      </trkpt>
      <trkpt lat="46.189638152718544" lon="11.931065004318953">
        <ele>1312.8199999999999</ele>
        <time>2017-07-06T06:27:47Z</time>
      </trkpt>
      <trkpt lat="46.189589034765959" lon="11.931103309616446">
        <ele>1312.8199999999999</ele>
        <time>2017-07-06T06:27:53Z</time>
      </trkpt>
      <trkpt lat="46.189436819404364" lon="11.931111942976713">
        <ele>1313.3</ele>
        <time>2017-07-06T06:28:03Z</time>
      </trkpt>
      <trkpt lat="46.189327938482165" lon="11.93107757717371">
        <ele>1313.3</ele>
        <time>2017-07-06T06:28:12Z</time>
      </trkpt>
      <trkpt lat="46.189281418919563" lon="11.931063747033477">
        <ele>1313.3</ele>
        <time>2017-07-06T06:28:16Z</time>
      </trkpt>
      <trkpt lat="46.189169436693192" lon="11.930995183065534">
        <ele>1313.78</ele>
        <time>2017-07-06T06:28:27Z</time>
      </trkpt>
      <trkpt lat="46.189145632088184" lon="11.930999374017119">
        <ele>1313.78</ele>
        <time>2017-07-06T06:28:29Z</time>
      </trkpt>
      <trkpt lat="46.189106153324246" lon="11.930942460894585">
        <ele>1313.3</ele>
        <time>2017-07-06T06:28:34Z</time>
      </trkpt>
      <trkpt lat="46.18896265514195" lon="11.930917985737324">
        <ele>1313.3</ele>
        <time>2017-07-06T06:28:45Z</time>
      </trkpt>
      <trkpt lat="46.18890599347651" lon="11.930904407054186">
        <ele>1312.3399999999999</ele>
        <time>2017-07-06T06:28:50Z</time>
      </trkpt>
      <trkpt lat="46.188887972384691" lon="11.930904909968376">
        <ele>1311.8599999999999</ele>
        <time>2017-07-06T06:28:51Z</time>
      </trkpt>
      <trkpt lat="46.188833070918918" lon="11.930883871391416">
        <ele>1310.9000000000001</ele>
        <time>2017-07-06T06:29:01Z</time>
      </trkpt>
      <trkpt lat="46.188805410638452" lon="11.930872052907944">
        <ele>1310.4100000000001</ele>
        <time>2017-07-06T06:29:11Z</time>
      </trkpt>
      <trkpt lat="46.188797699287534" lon="11.930878339335322">
        <ele>1310.4100000000001</ele>
        <time>2017-07-06T06:29:22Z</time>
      </trkpt>
      <trkpt lat="46.18879065848887" lon="11.930878842249513">
        <ele>1310.4100000000001</ele>
        <time>2017-07-06T06:29:35Z</time>
      </trkpt>
      <trkpt lat="46.188801387324929" lon="11.930878674611449">
        <ele>1310.4100000000001</ele>
        <time>2017-07-06T06:29:55Z</time>
      </trkpt>
      <trkpt lat="46.188791999593377" lon="11.930915135890245">
        <ele>1310.9000000000001</ele>
        <time>2017-07-06T06:30:07Z</time>
      </trkpt>
      <trkpt lat="46.18877406232059" lon="11.93106290884316">
        <ele>1310.4100000000001</ele>
        <time>2017-07-06T06:30:18Z</time>
      </trkpt>
      <trkpt lat="46.188766099512577" lon="11.93124127574265">
        <ele>1310.9000000000001</ele>
        <time>2017-07-06T06:30:30Z</time>
      </trkpt>
      <trkpt lat="46.188757130876184" lon="11.931402292102575">
        <ele>1311.8599999999999</ele>
        <time>2017-07-06T06:30:41Z</time>
      </trkpt>
      <trkpt lat="46.188710276037455" lon="11.931556100025773">
        <ele>1311.3800000000001</ele>
        <time>2017-07-06T06:30:52Z</time>
      </trkpt>
      <trkpt lat="46.188646489754319" lon="11.931703789159656">
        <ele>1309.45</ele>
        <time>2017-07-06T06:31:03Z</time>
      </trkpt>
      <trkpt lat="46.188638443127275" lon="11.931834295392036">
        <ele>1309.9300000000001</ele>
        <time>2017-07-06T06:31:12Z</time>
      </trkpt>
      <trkpt lat="46.188638275489211" lon="11.931918198242784">
        <ele>1310.4100000000001</ele>
        <time>2017-07-06T06:31:17Z</time>
      </trkpt>
      <trkpt lat="46.18867389857769" lon="11.932093212381005">
        <ele>1311.3800000000001</ele>
        <time>2017-07-06T06:31:29Z</time>
      </trkpt>
      <trkpt lat="46.188693512231112" lon="11.93224442191422">
        <ele>1312.3399999999999</ele>
        <time>2017-07-06T06:31:40Z</time>
      </trkpt>
      <trkpt lat="46.188702397048473" lon="11.932338634505868">
        <ele>1313.3</ele>
        <time>2017-07-06T06:31:47Z</time>
      </trkpt>
      <trkpt lat="46.188695523887873" lon="11.932426979765296">
        <ele>1313.78</ele>
        <time>2017-07-06T06:31:55Z</time>
      </trkpt>
      <trkpt lat="46.18868169374764" lon="11.932478528469801">
        <ele>1313.78</ele>
        <time>2017-07-06T06:31:59Z</time>
      </trkpt>
      <trkpt lat="46.188672306016088" lon="11.932520940899849">
        <ele>1314.26</ele>
        <time>2017-07-06T06:32:02Z</time>
      </trkpt>
      <trkpt lat="46.188671719282866" lon="11.932566370815039">
        <ele>1314.26</ele>
        <time>2017-07-06T06:32:04Z</time>
      </trkpt>
      <trkpt lat="46.188632994890213" lon="11.932753119617701">
        <ele>1314.26</ele>
        <time>2017-07-06T06:32:16Z</time>
      </trkpt>
      <trkpt lat="46.188624864444137" lon="11.932888319715858">
        <ele>1313.78</ele>
        <time>2017-07-06T06:32:24Z</time>
      </trkpt>
      <trkpt lat="46.188601646572351" lon="11.932897036895156">
        <ele>1314.26</ele>
        <time>2017-07-06T06:32:36Z</time>
      </trkpt>
      <trkpt lat="46.18860550224781" lon="11.93292461335659">
        <ele>1314.26</ele>
        <time>2017-07-06T06:32:52Z</time>
      </trkpt>
      <trkpt lat="46.188614973798394" lon="11.933119157329202">
        <ele>1314.26</ele>
        <time>2017-07-06T06:33:02Z</time>
      </trkpt>
      <trkpt lat="46.188622685149312" lon="11.933315293863416">
        <ele>1313.78</ele>
        <time>2017-07-06T06:33:13Z</time>
      </trkpt>
      <trkpt lat="46.18863869458437" lon="11.933369776234031">
        <ele>1313.3</ele>
        <time>2017-07-06T06:33:16Z</time>
      </trkpt>
      <trkpt lat="46.188588654622436" lon="11.933577060699463">
        <ele>1311.8599999999999</ele>
        <time>2017-07-06T06:33:27Z</time>
      </trkpt>
      <trkpt lat="46.18858496658504" lon="11.93359550088644">
        <ele>1311.3800000000001</ele>
        <time>2017-07-06T06:33:28Z</time>
      </trkpt>
      <trkpt lat="46.188554791733623" lon="11.933832541108131">
        <ele>1309.9300000000001</ele>
        <time>2017-07-06T06:33:40Z</time>
      </trkpt>
      <trkpt lat="46.188555546104908" lon="11.933874115347862">
        <ele>1309.45</ele>
        <time>2017-07-06T06:33:42Z</time>
      </trkpt>
      <trkpt lat="46.188560742884874" lon="11.933892723172903">
        <ele>1309.45</ele>
        <time>2017-07-06T06:33:43Z</time>
      </trkpt>
      <trkpt lat="46.188554372638464" lon="11.933911079540849">
        <ele>1309.45</ele>
        <time>2017-07-06T06:33:44Z</time>
      </trkpt>
      <trkpt lat="46.188553450629115" lon="11.933932537212968">
        <ele>1308.97</ele>
        <time>2017-07-06T06:33:45Z</time>
      </trkpt>
      <trkpt lat="46.188565185293555" lon="11.933965813368559">
        <ele>1308.97</ele>
        <time>2017-07-06T06:33:47Z</time>
      </trkpt>
      <trkpt lat="46.188600054010749" lon="11.934008058160543">
        <ele>1308.01</ele>
        <time>2017-07-06T06:33:50Z</time>
      </trkpt>
      <trkpt lat="46.188639784231782" lon="11.934102941304445">
        <ele>1307.53</ele>
        <time>2017-07-06T06:34:01Z</time>
      </trkpt>
      <trkpt lat="46.188614973798394" lon="11.934147533029318">
        <ele>1307.53</ele>
        <time>2017-07-06T06:34:12Z</time>
      </trkpt>
      <trkpt lat="46.188618410378695" lon="11.934179048985243">
        <ele>1307.05</ele>
        <time>2017-07-06T06:34:14Z</time>
      </trkpt>
      <trkpt lat="46.188666941598058" lon="11.934481216594577">
        <ele>1306.0899999999999</ele>
        <time>2017-07-06T06:34:29Z</time>
      </trkpt>
      <trkpt lat="46.188690075650811" lon="11.934745078906417">
        <ele>1305.1300000000001</ele>
        <time>2017-07-06T06:34:42Z</time>
      </trkpt>
      <trkpt lat="46.188629809767008" lon="11.934899222105742">
        <ele>1304.6500000000001</ele>
        <time>2017-07-06T06:34:53Z</time>
      </trkpt>
      <trkpt lat="46.188557976856828" lon="11.934996536001563">
        <ele>1304.1700000000001</ele>
        <time>2017-07-06T06:35:01Z</time>
      </trkpt>
      <trkpt lat="46.188456052914262" lon="11.935093933716416">
        <ele>1304.1700000000001</ele>
        <time>2017-07-06T06:35:12Z</time>
      </trkpt>
      <trkpt lat="46.188363349065185" lon="11.935197114944458">
        <ele>1304.1700000000001</ele>
        <time>2017-07-06T06:35:23Z</time>
      </trkpt>
      <trkpt lat="46.188285816460848" lon="11.935293758288026">
        <ele>1304.1700000000001</ele>
        <time>2017-07-06T06:35:33Z</time>
      </trkpt>
      <trkpt lat="46.18827173486352" lon="11.935294764116406">
        <ele>1304.1700000000001</ele>
        <time>2017-07-06T06:35:35Z</time>
      </trkpt>
      <trkpt lat="46.18813837878406" lon="11.935351258143783">
        <ele>1304.1700000000001</ele>
        <time>2017-07-06T06:35:47Z</time>
      </trkpt>
      <trkpt lat="46.18808657862246" lon="11.935413535684347">
        <ele>1304.6500000000001</ele>
        <time>2017-07-06T06:35:57Z</time>
      </trkpt>
      <trkpt lat="46.187981050461531" lon="11.935477405786514">
        <ele>1305.1300000000001</ele>
        <time>2017-07-06T06:36:06Z</time>
      </trkpt>
      <trkpt lat="46.187794050201774" lon="11.935567511245608">
        <ele>1305.1300000000001</ele>
        <time>2017-07-06T06:36:18Z</time>
      </trkpt>
      <trkpt lat="46.187681565061212" lon="11.935577653348446">
        <ele>1304.6500000000001</ele>
        <time>2017-07-06T06:36:25Z</time>
      </trkpt>
      <trkpt lat="46.187571678310633" lon="11.935586538165808">
        <ele>1303.2</ele>
        <time>2017-07-06T06:36:35Z</time>
      </trkpt>
      <trkpt lat="46.187498588114977" lon="11.93567069247365">
        <ele>1301.76</ele>
        <time>2017-07-06T06:36:44Z</time>
      </trkpt>
      <trkpt lat="46.187514765188098" lon="11.935845371335745">
        <ele>1302.24</ele>
        <time>2017-07-06T06:36:55Z</time>
      </trkpt>
      <trkpt lat="46.187560698017478" lon="11.936015607789159">
        <ele>1302.24</ele>
        <time>2017-07-06T06:37:05Z</time>
      </trkpt>
      <trkpt lat="46.187614342197776" lon="11.936168577522039">
        <ele>1302.72</ele>
        <time>2017-07-06T06:37:15Z</time>
      </trkpt>
      <trkpt lat="46.187660861760378" lon="11.936311405152082">
        <ele>1302.24</ele>
        <time>2017-07-06T06:37:24Z</time>
      </trkpt>
      <trkpt lat="46.187657341361046" lon="11.936385417357087">
        <ele>1301.76</ele>
        <time>2017-07-06T06:37:28Z</time>
      </trkpt>
      <trkpt lat="46.187637308612466" lon="11.936462195590138">
        <ele>1301.76</ele>
        <time>2017-07-06T06:37:32Z</time>
      </trkpt>
      <trkpt lat="46.187561955302954" lon="11.936629079282284">
        <ele>1299.3599999999999</ele>
        <time>2017-07-06T06:37:42Z</time>
      </trkpt>
      <trkpt lat="46.187486769631505" lon="11.936763022094965">
        <ele>1298.4000000000001</ele>
        <time>2017-07-06T06:37:51Z</time>
      </trkpt>
      <trkpt lat="46.187416361644864" lon="11.936913393437862">
        <ele>1298.4000000000001</ele>
        <time>2017-07-06T06:38:01Z</time>
      </trkpt>
      <trkpt lat="46.187427509576082" lon="11.937150014564395">
        <ele>1297.4400000000001</ele>
        <time>2017-07-06T06:38:14Z</time>
      </trkpt>
      <trkpt lat="46.187458606436849" lon="11.937232911586761">
        <ele>1297.4400000000001</ele>
        <time>2017-07-06T06:38:19Z</time>
      </trkpt>
      <trkpt lat="46.187503198161721" lon="11.937333829700947">
        <ele>1297.9200000000001</ele>
        <time>2017-07-06T06:38:30Z</time>
      </trkpt>
      <trkpt lat="46.187455672770739" lon="11.937271803617477">
        <ele>1297.9200000000001</ele>
        <time>2017-07-06T06:38:40Z</time>
      </trkpt>
      <trkpt lat="46.187438992783427" lon="11.937245232984424">
        <ele>1297.9200000000001</ele>
        <time>2017-07-06T06:38:50Z</time>
      </trkpt>
      <trkpt lat="46.187463803216815" lon="11.937226373702288">
        <ele>1297.9200000000001</ele>
        <time>2017-07-06T06:39:03Z</time>
      </trkpt>
      <trkpt lat="46.187465144321322" lon="11.937263840809464">
        <ele>1297.9200000000001</ele>
        <time>2017-07-06T06:39:15Z</time>
      </trkpt>
      <trkpt lat="46.187457516789436" lon="11.937268450856209">
        <ele>1297.9200000000001</ele>
        <time>2017-07-06T06:39:16Z</time>
      </trkpt>
      <trkpt lat="46.18739414960146" lon="11.937329052016139">
        <ele>1298.4000000000001</ele>
        <time>2017-07-06T06:39:27Z</time>
      </trkpt>
      <trkpt lat="46.187407141551375" lon="11.937350425869226">
        <ele>1298.4000000000001</ele>
        <time>2017-07-06T06:39:38Z</time>
      </trkpt>
      <trkpt lat="46.187417702749372" lon="11.937367776408792">
        <ele>1297.9200000000001</ele>
        <time>2017-07-06T06:39:39Z</time>
      </trkpt>
      <trkpt lat="46.187448799610138" lon="11.937489900738001">
        <ele>1298.8800000000001</ele>
        <time>2017-07-06T06:39:48Z</time>
      </trkpt>
      <trkpt lat="46.187475034967065" lon="11.937673212960362">
        <ele>1300.3199999999999</ele>
        <time>2017-07-06T06:40:00Z</time>
      </trkpt>
      <trkpt lat="46.18746891617775" lon="11.937838923186064">
        <ele>1301.76</ele>
        <time>2017-07-06T06:40:11Z</time>
      </trkpt>
      <trkpt lat="46.187441507354379" lon="11.937976302579045">
        <ele>1302.72</ele>
        <time>2017-07-06T06:40:22Z</time>
      </trkpt>
      <trkpt lat="46.187438908964396" lon="11.93812508136034">
        <ele>1304.6500000000001</ele>
        <time>2017-07-06T06:40:34Z</time>
      </trkpt>
      <trkpt lat="46.187454918399453" lon="11.938263634219766">
        <ele>1306.0899999999999</ele>
        <time>2017-07-06T06:40:45Z</time>
      </trkpt>
      <trkpt lat="46.187433460727334" lon="11.938361283391714">
        <ele>1307.53</ele>
        <time>2017-07-06T06:40:54Z</time>
      </trkpt>
      <trkpt lat="46.187371434643865" lon="11.938420627266169">
        <ele>1308.97</ele>
        <time>2017-07-06T06:41:04Z</time>
      </trkpt>
      <trkpt lat="46.187347630038857" lon="11.938445186242461">
        <ele>1308.97</ele>
        <time>2017-07-06T06:41:08Z</time>
      </trkpt>
      <trkpt lat="46.187213687226176" lon="11.93852380849421">
        <ele>1310.9000000000001</ele>
        <time>2017-07-06T06:41:19Z</time>
      </trkpt>
      <trkpt lat="46.187071530148387" lon="11.938581056892872">
        <ele>1311.3800000000001</ele>
        <time>2017-07-06T06:41:30Z</time>
      </trkpt>
      <trkpt lat="46.186987292021513" lon="11.938585415482521">
        <ele>1311.3800000000001</ele>
        <time>2017-07-06T06:41:38Z</time>
      </trkpt>
      <trkpt lat="46.186873465776443" lon="11.938605448231101">
        <ele>1314.26</ele>
        <time>2017-07-06T06:41:50Z</time>
      </trkpt>
      <trkpt lat="46.186839435249567" lon="11.938589019700885">
        <ele>1315.7</ele>
        <time>2017-07-06T06:41:56Z</time>
      </trkpt>
      <trkpt lat="46.186763327568769" lon="11.938560605049133">
        <ele>1316.6600000000001</ele>
        <time>2017-07-06T06:42:06Z</time>
      </trkpt>
      <trkpt lat="46.186735248193145" lon="11.938555995002389">
        <ele>1317.1400000000001</ele>
        <time>2017-07-06T06:42:18Z</time>
      </trkpt>
      <trkpt lat="46.186694260686636" lon="11.93849204108119">
        <ele>1318.5899999999999</ele>
        <time>2017-07-06T06:42:31Z</time>
      </trkpt>
      <trkpt lat="46.186700044199824" lon="11.938382321968675">
        <ele>1319.55</ele>
        <time>2017-07-06T06:42:41Z</time>
      </trkpt>
      <trkpt lat="46.186643969267607" lon="11.938385171815753">
        <ele>1321.95</ele>
        <time>2017-07-06T06:42:51Z</time>
      </trkpt>
      <trkpt lat="46.186625026166439" lon="11.938329683616757">
        <ele>1323.3900000000001</ele>
        <time>2017-07-06T06:43:01Z</time>
      </trkpt>
      <trkpt lat="46.186590492725372" lon="11.938280733302236">
        <ele>1325.8</ele>
        <time>2017-07-06T06:43:13Z</time>
      </trkpt>
      <trkpt lat="46.186505667865276" lon="11.938184257596731">
        <ele>1328.2</ele>
        <time>2017-07-06T06:43:26Z</time>
      </trkpt>
      <trkpt lat="46.186446323990822" lon="11.938137821853161">
        <ele>1328.2</ele>
        <time>2017-07-06T06:43:35Z</time>
      </trkpt>
      <trkpt lat="46.186384465545416" lon="11.938097169622779">
        <ele>1329.6400000000001</ele>
        <time>2017-07-06T06:43:48Z</time>
      </trkpt>
      <trkpt lat="46.186348674818873" lon="11.938062803819776">
        <ele>1331.5599999999999</ele>
        <time>2017-07-06T06:44:00Z</time>
      </trkpt>
      <trkpt lat="46.186306346207857" lon="11.938065988942981">
        <ele>1333.01</ele>
        <time>2017-07-06T06:44:10Z</time>
      </trkpt>
      <trkpt lat="46.1861452460289" lon="11.938073029741645">
        <ele>1335.4100000000001</ele>
        <time>2017-07-06T06:44:27Z</time>
      </trkpt>
      <trkpt lat="46.186006609350443" lon="11.938022235408425">
        <ele>1337.8099999999999</ele>
        <time>2017-07-06T06:44:44Z</time>
      </trkpt>
      <trkpt lat="46.185925640165806" lon="11.938000861555338">
        <ele>1340.22</ele>
        <time>2017-07-06T06:44:58Z</time>
      </trkpt>
      <trkpt lat="46.185882641002536" lon="11.937928358092904">
        <ele>1342.1400000000001</ele>
        <time>2017-07-06T06:45:12Z</time>
      </trkpt>
      <trkpt lat="46.185847688466311" lon="11.937912683933973">
        <ele>1343.5799999999999</ele>
        <time>2017-07-06T06:45:24Z</time>
      </trkpt>
      <trkpt lat="46.18578901514411" lon="11.937907068058848">
        <ele>1344.0599999999999</ele>
        <time>2017-07-06T06:45:35Z</time>
      </trkpt>
      <trkpt lat="46.185738053172827" lon="11.937852585688233">
        <ele>1345.98</ele>
        <time>2017-07-06T06:45:48Z</time>
      </trkpt>
      <trkpt lat="46.185703435912728" lon="11.937786787748337">
        <ele>1346.9400000000001</ele>
        <time>2017-07-06T06:46:00Z</time>
      </trkpt>
      <trkpt lat="46.185695473104715" lon="11.937861973419785">
        <ele>1348.8699999999999</ele>
        <time>2017-07-06T06:46:10Z</time>
      </trkpt>
      <trkpt lat="46.185715086758137" lon="11.937931794673204">
        <ele>1349.8299999999999</ele>
        <time>2017-07-06T06:46:20Z</time>
      </trkpt>
      <trkpt lat="46.18568642064929" lon="11.938045704737306">
        <ele>1351.27</ele>
        <time>2017-07-06T06:46:29Z</time>
      </trkpt>
      <trkpt lat="46.185673596337438" lon="11.93814410828054">
        <ele>1352.23</ele>
        <time>2017-07-06T06:46:38Z</time>
      </trkpt>
      <trkpt lat="46.185668567195535" lon="11.93820278160274">
        <ele>1354.1500000000001</ele>
        <time>2017-07-06T06:46:50Z</time>
      </trkpt>
      <trkpt lat="46.185582987964153" lon="11.938325241208076">
        <ele>1356.0799999999999</ele>
        <time>2017-07-06T06:47:01Z</time>
      </trkpt>
      <trkpt lat="46.185573348775506" lon="11.938375532627106">
        <ele>1357.52</ele>
        <time>2017-07-06T06:47:09Z</time>
      </trkpt>
      <trkpt lat="46.185490367934108" lon="11.93838257342577">
        <ele>1359.4400000000001</ele>
        <time>2017-07-06T06:47:20Z</time>
      </trkpt>
      <trkpt lat="46.185436388477683" lon="11.938377879559994">
        <ele>1361.3599999999999</ele>
        <time>2017-07-06T06:47:32Z</time>
      </trkpt>
      <trkpt lat="46.185391880571842" lon="11.938332617282867">
        <ele>1362.8099999999999</ele>
        <time>2017-07-06T06:47:45Z</time>
      </trkpt>
      <trkpt lat="46.185340248048306" lon="11.938304202631116">
        <ele>1364.73</ele>
        <time>2017-07-06T06:47:57Z</time>
      </trkpt>
      <trkpt lat="46.185263469815254" lon="11.938285930082202">
        <ele>1367.1300000000001</ele>
        <time>2017-07-06T06:48:12Z</time>
      </trkpt>
      <trkpt lat="46.185184428468347" lon="11.938307890668511">
        <ele>1368.5699999999999</ele>
        <time>2017-07-06T06:48:26Z</time>
      </trkpt>
      <trkpt lat="46.185118211433291" lon="11.938267992809415">
        <ele>1369.05</ele>
        <time>2017-07-06T06:48:37Z</time>
      </trkpt>
      <trkpt lat="46.185041517019272" lon="11.93822281435132">
        <ele>1370.02</ele>
        <time>2017-07-06T06:48:49Z</time>
      </trkpt>
      <trkpt lat="46.184918135404587" lon="11.938298838213086">
        <ele>1370.02</ele>
        <time>2017-07-06T06:49:02Z</time>
      </trkpt>
      <trkpt lat="46.184828616678715" lon="11.938370000571012">
        <ele>1371.46</ele>
        <time>2017-07-06T06:49:16Z</time>
      </trkpt>
      <trkpt lat="46.18480640463531" lon="11.938426829874516">
        <ele>1370.5</ele>
        <time>2017-07-06T06:49:29Z</time>
      </trkpt>
      <trkpt lat="46.184736918658018" lon="11.938428757712245">
        <ele>1371.46</ele>
        <time>2017-07-06T06:49:37Z</time>
      </trkpt>
      <trkpt lat="46.184735829010606" lon="11.938439151272178">
        <ele>1372.4200000000001</ele>
        <time>2017-07-06T06:49:46Z</time>
      </trkpt>
      <trkpt lat="46.184699032455683" lon="11.938452813774347">
        <ele>1373.3800000000001</ele>
        <time>2017-07-06T06:49:54Z</time>
      </trkpt>
      <trkpt lat="46.184630636125803" lon="11.93852330558002">
        <ele>1374.3399999999999</ele>
        <time>2017-07-06T06:50:04Z</time>
      </trkpt>
      <trkpt lat="46.184570118784904" lon="11.938539734110236">
        <ele>1375.3</ele>
        <time>2017-07-06T06:50:13Z</time>
      </trkpt>
      <trkpt lat="46.184483701363206" lon="11.938579548150301">
        <ele>1373.3800000000001</ele>
        <time>2017-07-06T06:50:23Z</time>
      </trkpt>
      <trkpt lat="46.184478336945176" lon="11.93858927115798">
        <ele>1373.8599999999999</ele>
        <time>2017-07-06T06:50:24Z</time>
      </trkpt>
      <trkpt lat="46.184356883168221" lon="11.938690273091197">
        <ele>1371.9400000000001</ele>
        <time>2017-07-06T06:50:37Z</time>
      </trkpt>
      <trkpt lat="46.184293013066053" lon="11.938743162900209">
        <ele>1369.05</ele>
        <time>2017-07-06T06:50:48Z</time>
      </trkpt>
      <trkpt lat="46.184239871799946" lon="11.938739474862814">
        <ele>1368.0899999999999</ele>
        <time>2017-07-06T06:50:57Z</time>
      </trkpt>
      <trkpt lat="46.184230819344521" lon="11.938764452934265">
        <ele>1367.1300000000001</ele>
        <time>2017-07-06T06:51:03Z</time>
      </trkpt>
      <trkpt lat="46.184233333915472" lon="11.938795214518905">
        <ele>1367.6099999999999</ele>
        <time>2017-07-06T06:51:07Z</time>
      </trkpt>
      <trkpt lat="46.184200644493103" lon="11.938867550343275">
        <ele>1366.1700000000001</ele>
        <time>2017-07-06T06:51:15Z</time>
      </trkpt>
      <trkpt lat="46.184194106608629" lon="11.938951453194022">
        <ele>1364.73</ele>
        <time>2017-07-06T06:51:24Z</time>
      </trkpt>
      <trkpt lat="46.184191759675741" lon="11.939007695764303">
        <ele>1363.77</ele>
        <time>2017-07-06T06:51:32Z</time>
      </trkpt>
      <trkpt lat="46.184170888736844" lon="11.9391287304461">
        <ele>1362.8099999999999</ele>
        <time>2017-07-06T06:51:41Z</time>
      </trkpt>
      <trkpt lat="46.184170804917812" lon="11.939172735437751">
        <ele>1361.3599999999999</ele>
        <time>2017-07-06T06:51:49Z</time>
      </trkpt>
      <trkpt lat="46.184195028617978" lon="11.939232917502522">
        <ele>1359.9200000000001</ele>
        <time>2017-07-06T06:51:55Z</time>
      </trkpt>
      <trkpt lat="46.184171810746193" lon="11.939365603029728">
        <ele>1360.4000000000001</ele>
        <time>2017-07-06T06:52:07Z</time>
      </trkpt>
      <trkpt lat="46.184136690571904" lon="11.939433999359608">
        <ele>1358.96</ele>
        <time>2017-07-06T06:52:16Z</time>
      </trkpt>
      <trkpt lat="46.18415454402566" lon="11.939527541399002">
        <ele>1358.96</ele>
        <time>2017-07-06T06:52:26Z</time>
      </trkpt>
      <trkpt lat="46.184120262041688" lon="11.939600883051753">
        <ele>1358</ele>
        <time>2017-07-06T06:52:34Z</time>
      </trkpt>
      <trkpt lat="46.184141971170902" lon="11.939672296866775">
        <ele>1355.5999999999999</ele>
        <time>2017-07-06T06:52:45Z</time>
      </trkpt>
      <trkpt lat="46.184136606752872" lon="11.939738430082798">
        <ele>1353.1900000000001</ele>
        <time>2017-07-06T06:52:55Z</time>
      </trkpt>
      <trkpt lat="46.184101821854711" lon="11.939800707623363">
        <ele>1351.75</ele>
        <time>2017-07-06T06:53:05Z</time>
      </trkpt>
      <trkpt lat="46.184083633124828" lon="11.939846808090806">
        <ele>1351.75</ele>
        <time>2017-07-06T06:53:16Z</time>
      </trkpt>
      <trkpt lat="46.18411305360496" lon="11.939860554412007">
        <ele>1355.5999999999999</ele>
        <time>2017-07-06T06:54:04Z</time>
      </trkpt>
      <trkpt lat="46.184136439114809" lon="11.939874133095145">
        <ele>1356.0799999999999</ele>
        <time>2017-07-06T06:54:22Z</time>
      </trkpt>
      <trkpt lat="46.184197459369898" lon="11.939888801425695">
        <ele>1357.52</ele>
        <time>2017-07-06T06:54:37Z</time>
      </trkpt>
      <trkpt lat="46.184215480461717" lon="11.939894584938884">
        <ele>1359.9200000000001</ele>
        <time>2017-07-06T06:54:49Z</time>
      </trkpt>
      <trkpt lat="46.184243392199278" lon="11.939909840002656">
        <ele>1361.8399999999999</ele>
        <time>2017-07-06T06:55:00Z</time>
      </trkpt>
      <trkpt lat="46.184299802407622" lon="11.940029868856072">
        <ele>1363.77</ele>
        <time>2017-07-06T06:55:11Z</time>
      </trkpt>
      <trkpt lat="46.18435881100595" lon="11.940141599625349">
        <ele>1363.29</ele>
        <time>2017-07-06T06:55:21Z</time>
      </trkpt>
      <trkpt lat="46.184382364153862" lon="11.940251821652055">
        <ele>1363.29</ele>
        <time>2017-07-06T06:55:33Z</time>
      </trkpt>
      <trkpt lat="46.184416562318802" lon="11.940378053113818">
        <ele>1365.21</ele>
        <time>2017-07-06T06:55:46Z</time>
      </trkpt>
      <trkpt lat="46.184436343610287" lon="11.940499255433679">
        <ele>1366.6500000000001</ele>
        <time>2017-07-06T06:55:58Z</time>
      </trkpt>
      <trkpt lat="46.184497531503439" lon="11.940624732524157">
        <ele>1368.0899999999999</ele>
        <time>2017-07-06T06:56:09Z</time>
      </trkpt>
      <trkpt lat="46.184540949761868" lon="11.940751131623983">
        <ele>1370.02</ele>
        <time>2017-07-06T06:56:21Z</time>
      </trkpt>
      <trkpt lat="46.18453960865736" lon="11.940841656178236">
        <ele>1371.9400000000001</ele>
        <time>2017-07-06T06:56:34Z</time>
      </trkpt>
      <trkpt lat="46.184562994167209" lon="11.940888175740838">
        <ele>1371.9400000000001</ele>
        <time>2017-07-06T06:56:46Z</time>
      </trkpt>
      <trkpt lat="46.184559306129813" lon="11.94088339805603">
        <ele>1372.4200000000001</ele>
        <time>2017-07-06T06:56:55Z</time>
      </trkpt>
      <trkpt lat="46.184528963640332" lon="11.940875602886081">
        <ele>1372.4200000000001</ele>
        <time>2017-07-06T06:57:08Z</time>
      </trkpt>
      <trkpt lat="46.184510942548513" lon="11.9408521335572">
        <ele>1372.4200000000001</ele>
        <time>2017-07-06T06:57:27Z</time>
      </trkpt>
      <trkpt lat="46.184414131566882" lon="11.940803099423647">
        <ele>1374.8199999999999</ele>
        <time>2017-07-06T06:57:44Z</time>
      </trkpt>
      <trkpt lat="46.184414634481072" lon="11.940796645358205">
        <ele>1374.3399999999999</ele>
        <time>2017-07-06T06:57:45Z</time>
      </trkpt>
      <trkpt lat="46.184386555105448" lon="11.94081055931747">
        <ele>1375.78</ele>
        <time>2017-07-06T06:57:55Z</time>
      </trkpt>
      <trkpt lat="46.184348836541176" lon="11.940819192677736">
        <ele>1377.23</ele>
        <time>2017-07-06T06:58:05Z</time>
      </trkpt>
      <trkpt lat="46.184318577870727" lon="11.940816175192595">
        <ele>1379.1500000000001</ele>
        <time>2017-07-06T06:58:15Z</time>
      </trkpt>
      <trkpt lat="46.184284966439009" lon="11.940828831866384">
        <ele>1380.1099999999999</ele>
        <time>2017-07-06T06:58:27Z</time>
      </trkpt>
      <trkpt lat="46.184216570109129" lon="11.940786335617304">
        <ele>1381.55</ele>
        <time>2017-07-06T06:58:36Z</time>
      </trkpt>
      <trkpt lat="46.184143982827663" lon="11.940771248191595">
        <ele>1382.99</ele>
        <time>2017-07-06T06:58:47Z</time>
      </trkpt>
      <trkpt lat="46.184079861268401" lon="11.940740318968892">
        <ele>1383.96</ele>
        <time>2017-07-06T06:58:59Z</time>
      </trkpt>
      <trkpt lat="46.184033509343863" lon="11.940705785527825">
        <ele>1384.9200000000001</ele>
        <time>2017-07-06T06:59:09Z</time>
      </trkpt>
      <trkpt lat="46.183882048353553" lon="11.940683489665389">
        <ele>1386.3599999999999</ele>
        <time>2017-07-06T06:59:24Z</time>
      </trkpt>
      <trkpt lat="46.183846425265074" lon="11.940624313428998">
        <ele>1387.8</ele>
        <time>2017-07-06T06:59:31Z</time>
      </trkpt>
      <trkpt lat="46.183817675337195" lon="11.940601514652371">
        <ele>1389.72</ele>
        <time>2017-07-06T06:59:43Z</time>
      </trkpt>
      <trkpt lat="46.183812310919166" lon="11.940601263195276">
        <ele>1391.1700000000001</ele>
        <time>2017-07-06T06:59:45Z</time>
      </trkpt>
      <trkpt lat="46.183769982308149" lon="11.940598078072071">
        <ele>1391.6500000000001</ele>
        <time>2017-07-06T06:59:56Z</time>
      </trkpt>
      <trkpt lat="46.183777190744877" lon="11.940515013411641">
        <ele>1394.05</ele>
        <time>2017-07-06T07:00:09Z</time>
      </trkpt>
      <trkpt lat="46.18365665897727" lon="11.940538566559553">
        <ele>1396.45</ele>
        <time>2017-07-06T07:00:24Z</time>
      </trkpt>
      <trkpt lat="46.183566888794303" lon="11.940594641491771">
        <ele>1397.8900000000001</ele>
        <time>2017-07-06T07:00:34Z</time>
      </trkpt>
      <trkpt lat="46.183527829125524" lon="11.940599922090769">
        <ele>1399.3399999999999</ele>
        <time>2017-07-06T07:00:44Z</time>
      </trkpt>
      <trkpt lat="46.183466641232371" lon="11.940591707825661">
        <ele>1400.78</ele>
        <time>2017-07-06T07:00:58Z</time>
      </trkpt>
      <trkpt lat="46.183381145820022" lon="11.940603442490101">
        <ele>1403.1800000000001</ele>
        <time>2017-07-06T07:01:09Z</time>
      </trkpt>
      <trkpt lat="46.183335799723864" lon="11.940638311207294">
        <ele>1405.0999999999999</ele>
        <time>2017-07-06T07:01:23Z</time>
      </trkpt>
      <trkpt lat="46.18331853300333" lon="11.940661277621984">
        <ele>1407.03</ele>
        <time>2017-07-06T07:01:34Z</time>
      </trkpt>
      <trkpt lat="46.183386761695147" lon="11.940691201016307">
        <ele>1408.47</ele>
        <time>2017-07-06T07:01:45Z</time>
      </trkpt>
      <trkpt lat="46.18339916691184" lon="11.940713664516807">
        <ele>1409.4300000000001</ele>
        <time>2017-07-06T07:01:48Z</time>
      </trkpt>
      <trkpt lat="46.183324987068772" lon="11.940669994801283">
        <ele>1410.8699999999999</ele>
        <time>2017-07-06T07:01:58Z</time>
      </trkpt>
      <trkpt lat="46.183267822489142" lon="11.940601263195276">
        <ele>1411.8299999999999</ele>
        <time>2017-07-06T07:02:08Z</time>
      </trkpt>
      <trkpt lat="46.183246532455087" lon="11.940503530204296">
        <ele>1413.76</ele>
        <time>2017-07-06T07:02:20Z</time>
      </trkpt>
      <trkpt lat="46.183278383687139" lon="11.94040403701365">
        <ele>1415.6800000000001</ele>
        <time>2017-07-06T07:02:33Z</time>
      </trkpt>
      <trkpt lat="46.183248041197658" lon="11.940362546592951">
        <ele>1417.1199999999999</ele>
        <time>2017-07-06T07:02:42Z</time>
      </trkpt>
      <trkpt lat="46.183196241036057" lon="11.940413676202297">
        <ele>1419.04</ele>
        <time>2017-07-06T07:02:55Z</time>
      </trkpt>
      <trkpt lat="46.183129353448749" lon="11.94045047275722">
        <ele>1420.97</ele>
        <time>2017-07-06T07:03:06Z</time>
      </trkpt>
      <trkpt lat="46.183053916320205" lon="11.940439743921161">
        <ele>1421.45</ele>
        <time>2017-07-06T07:03:16Z</time>
      </trkpt>
      <trkpt lat="46.183018209412694" lon="11.940463548526168">
        <ele>1422.4100000000001</ele>
        <time>2017-07-06T07:03:24Z</time>
      </trkpt>
      <trkpt lat="46.183007815852761" lon="11.940463380888104">
        <ele>1423.8499999999999</ele>
        <time>2017-07-06T07:03:27Z</time>
      </trkpt>
      <trkpt lat="46.182975042611361" lon="11.940432200208306">
        <ele>1425.77</ele>
        <time>2017-07-06T07:03:37Z</time>
      </trkpt>
      <trkpt lat="46.182929947972298" lon="11.940422561019659">
        <ele>1426.73</ele>
        <time>2017-07-06T07:03:46Z</time>
      </trkpt>
      <trkpt lat="46.182860545814037" lon="11.940416106954217">
        <ele>1428.6600000000001</ele>
        <time>2017-07-06T07:04:00Z</time>
      </trkpt>
      <trkpt lat="46.182811763137579" lon="11.940392050892115">
        <ele>1430.0999999999999</ele>
        <time>2017-07-06T07:04:09Z</time>
      </trkpt>
      <trkpt lat="46.182793909683824" lon="11.940425075590611">
        <ele>1430.5799999999999</ele>
        <time>2017-07-06T07:04:11Z</time>
      </trkpt>
      <trkpt lat="46.182698607444763" lon="11.940451730042696">
        <ele>1431.54</ele>
        <time>2017-07-06T07:04:21Z</time>
      </trkpt>
      <trkpt lat="46.182642700150609" lon="11.940391296520829">
        <ele>1432.5</ele>
        <time>2017-07-06T07:04:34Z</time>
      </trkpt>
      <trkpt lat="46.182616632431746" lon="11.940374281257391">
        <ele>1434.4200000000001</ele>
        <time>2017-07-06T07:04:39Z</time>
      </trkpt>
      <trkpt lat="46.182551002129912" lon="11.940369168296456">
        <ele>1435.8699999999999</ele>
        <time>2017-07-06T07:04:51Z</time>
      </trkpt>
      <trkpt lat="46.182504901662469" lon="11.940337317064404">
        <ele>1437.3099999999999</ele>
        <time>2017-07-06T07:05:01Z</time>
      </trkpt>
      <trkpt lat="46.182467602193356" lon="11.940308567136526">
        <ele>1438.75</ele>
        <time>2017-07-06T07:05:11Z</time>
      </trkpt>
      <trkpt lat="46.182417813688517" lon="11.940232962369919">
        <ele>1439.23</ele>
        <time>2017-07-06T07:05:21Z</time>
      </trkpt>
      <trkpt lat="46.182327959686518" lon="11.94017194211483">
        <ele>1440.1900000000001</ele>
        <time>2017-07-06T07:05:32Z</time>
      </trkpt>
      <trkpt lat="46.182287978008389" lon="11.940228519961238">
        <ele>1441.1500000000001</ele>
        <time>2017-07-06T07:05:44Z</time>
      </trkpt>
      <trkpt lat="46.1821976210922" lon="11.940230447798967">
        <ele>1442.5999999999999</ele>
        <time>2017-07-06T07:05:54Z</time>
      </trkpt>
      <trkpt lat="46.182157304137945" lon="11.940180324018002">
        <ele>1443.5599999999999</ele>
        <time>2017-07-06T07:06:06Z</time>
      </trkpt>
      <trkpt lat="46.182143809273839" lon="11.940190466120839">
        <ele>1445.48</ele>
        <time>2017-07-06T07:06:18Z</time>
      </trkpt>
      <trkpt lat="46.182103995233774" lon="11.940204882994294">
        <ele>1446.9200000000001</ele>
        <time>2017-07-06T07:06:28Z</time>
      </trkpt>
      <trkpt lat="46.182002909481525" lon="11.940208654850721">
        <ele>1449.8099999999999</ele>
        <time>2017-07-06T07:06:42Z</time>
      </trkpt>
      <trkpt lat="46.181922778487206" lon="11.940220640972257">
        <ele>1451.25</ele>
        <time>2017-07-06T07:06:52Z</time>
      </trkpt>
      <trkpt lat="46.18185262195766" lon="11.940281325951219">
        <ele>1453.1700000000001</ele>
        <time>2017-07-06T07:07:02Z</time>
      </trkpt>
      <trkpt lat="46.181803587824106" lon="11.940298844128847">
        <ele>1455.5699999999999</ele>
        <time>2017-07-06T07:07:12Z</time>
      </trkpt>
      <trkpt lat="46.181781459599733" lon="11.940285600721836">
        <ele>1457.5</ele>
        <time>2017-07-06T07:07:25Z</time>
      </trkpt>
      <trkpt lat="46.181715074926615" lon="11.940281996503472">
        <ele>1459.9000000000001</ele>
        <time>2017-07-06T07:07:35Z</time>
      </trkpt>
      <trkpt lat="46.181663107126951" lon="11.940273027867079">
        <ele>1460.3800000000001</ele>
        <time>2017-07-06T07:07:44Z</time>
      </trkpt>
      <trkpt lat="46.181643912568688" lon="11.94026917219162">
        <ele>1462.3</ele>
        <time>2017-07-06T07:07:54Z</time>
      </trkpt>
      <trkpt lat="46.181618515402079" lon="11.940228436142206">
        <ele>1464.23</ele>
        <time>2017-07-06T07:08:06Z</time>
      </trkpt>
      <trkpt lat="46.181595297530293" lon="11.940231202170253">
        <ele>1465.6700000000001</ele>
        <time>2017-07-06T07:08:14Z</time>
      </trkpt>
      <trkpt lat="46.181539474055171" lon="11.940250480547547">
        <ele>1467.1099999999999</ele>
        <time>2017-07-06T07:08:25Z</time>
      </trkpt>
      <trkpt lat="46.181513657793403" lon="11.940259784460068">
        <ele>1468.55</ele>
        <time>2017-07-06T07:08:33Z</time>
      </trkpt>
      <trkpt lat="46.181495385244489" lon="11.940232794731855">
        <ele>1469.51</ele>
        <time>2017-07-06T07:08:43Z</time>
      </trkpt>
      <trkpt lat="46.181497313082218" lon="11.940249307081103">
        <ele>1471.4400000000001</ele>
        <time>2017-07-06T07:08:52Z</time>
      </trkpt>
      <trkpt lat="46.181472921743989" lon="11.940290797501802">
        <ele>1473.8399999999999</ele>
        <time>2017-07-06T07:09:02Z</time>
      </trkpt>
      <trkpt lat="46.181429419666529" lon="11.940328096970916">
        <ele>1474.8</ele>
        <time>2017-07-06T07:09:13Z</time>
      </trkpt>
      <trkpt lat="46.181398574262857" lon="11.940319715067744">
        <ele>1476.72</ele>
        <time>2017-07-06T07:09:24Z</time>
      </trkpt>
      <trkpt lat="46.181360939517617" lon="11.940330192446709">
        <ele>1478.1600000000001</ele>
        <time>2017-07-06T07:09:35Z</time>
      </trkpt>
      <trkpt lat="46.181330680847168" lon="11.940332790836692">
        <ele>1480.5699999999999</ele>
        <time>2017-07-06T07:09:45Z</time>
      </trkpt>
      <trkpt lat="46.181297991424799" lon="11.940311249345541">
        <ele>1482.01</ele>
        <time>2017-07-06T07:09:55Z</time>
      </trkpt>
      <trkpt lat="46.181257087737322" lon="11.940334131941199">
        <ele>1483.45</ele>
        <time>2017-07-06T07:10:05Z</time>
      </trkpt>
      <trkpt lat="46.181213920935988" lon="11.940356343984604">
        <ele>1485.3699999999999</ele>
        <time>2017-07-06T07:10:15Z</time>
      </trkpt>
      <trkpt lat="46.181203527376056" lon="11.940400935709476">
        <ele>1487.3</ele>
        <time>2017-07-06T07:10:26Z</time>
      </trkpt>
      <trkpt lat="46.180960200726986" lon="11.940452484413981">
        <ele>1488.74</ele>
        <time>2017-07-06T07:10:35Z</time>
      </trkpt>
      <trkpt lat="46.1808817461133" lon="11.940485425293446">
        <ele>1489.7</ele>
        <time>2017-07-06T07:10:46Z</time>
      </trkpt>
      <trkpt lat="46.180851738899946" lon="11.940547954291105">
        <ele>1491.1400000000001</ele>
        <time>2017-07-06T07:10:54Z</time>
      </trkpt>
      <trkpt lat="46.180839166045189" lon="11.940587181597948">
        <ele>1491.6199999999999</ele>
        <time>2017-07-06T07:10:58Z</time>
      </trkpt>
      <trkpt lat="46.180800776928663" lon="11.940635126084089">
        <ele>1492.5799999999999</ele>
        <time>2017-07-06T07:11:07Z</time>
      </trkpt>
      <trkpt lat="46.180814439430833" lon="11.940634455531836">
        <ele>1492.5799999999999</ele>
        <time>2017-07-06T07:11:18Z</time>
      </trkpt>
      <trkpt lat="46.180825168266892" lon="11.940636467188597">
        <ele>1493.0599999999999</ele>
        <time>2017-07-06T07:11:32Z</time>
      </trkpt>
      <trkpt lat="46.180868586525321" lon="11.940647615119815">
        <ele>1494.03</ele>
        <time>2017-07-06T07:11:51Z</time>
      </trkpt>
      <trkpt lat="46.18081578053534" lon="11.940627498552203">
        <ele>1493.0599999999999</ele>
        <time>2017-07-06T07:12:00Z</time>
      </trkpt>
      <trkpt lat="46.180819300934672" lon="11.940634958446026">
        <ele>1492.5799999999999</ele>
        <time>2017-07-06T07:12:22Z</time>
      </trkpt>
      <trkpt lat="46.180853415280581" lon="11.940637808293104">
        <ele>1493.0599999999999</ele>
        <time>2017-07-06T07:12:31Z</time>
      </trkpt>
      <trkpt lat="46.180885853245854" lon="11.940639987587929">
        <ele>1493.0599999999999</ele>
        <time>2017-07-06T07:12:46Z</time>
      </trkpt>
      <trkpt lat="46.180908400565386" lon="11.940626408904791">
        <ele>1493.0599999999999</ele>
        <time>2017-07-06T07:13:06Z</time>
      </trkpt>
      <trkpt lat="46.180928600952029" lon="11.940615847706795">
        <ele>1493.0599999999999</ele>
        <time>2017-07-06T07:13:22Z</time>
      </trkpt>
      <trkpt lat="46.18094083853066" lon="11.940603777766228">
        <ele>1493.0599999999999</ele>
        <time>2017-07-06T07:13:39Z</time>
      </trkpt>
      <trkpt lat="46.180959362536669" lon="11.940561532974243">
        <ele>1493.55</ele>
        <time>2017-07-06T07:13:53Z</time>
      </trkpt>
      <trkpt lat="46.180952740833163" lon="11.940590031445026">
        <ele>1493.0599999999999</ele>
        <time>2017-07-06T07:14:15Z</time>
      </trkpt>
      <trkpt lat="46.180899934843183" lon="11.940597323700786">
        <ele>1493.0599999999999</ele>
        <time>2017-07-06T07:14:29Z</time>
      </trkpt>
      <trkpt lat="46.180883506312966" lon="11.940600508823991">
        <ele>1493.0599999999999</ele>
        <time>2017-07-06T07:14:56Z</time>
      </trkpt>
      <trkpt lat="46.18087881244719" lon="11.940596485510468">
        <ele>1493.0599999999999</ele>
        <time>2017-07-06T07:15:16Z</time>
      </trkpt>
      <trkpt lat="46.180888200178742" lon="11.940584415569901">
        <ele>1493.55</ele>
        <time>2017-07-06T07:15:28Z</time>
      </trkpt>
      <trkpt lat="46.180856265127659" lon="11.940591037273407">
        <ele>1492.5799999999999</ele>
        <time>2017-07-06T07:15:38Z</time>
      </trkpt>
      <trkpt lat="46.18084067478776" lon="11.940564047545195">
        <ele>1493.55</ele>
        <time>2017-07-06T07:15:48Z</time>
      </trkpt>
      <trkpt lat="46.180826257914305" lon="11.940657338127494">
        <ele>1493.55</ele>
        <time>2017-07-06T07:16:00Z</time>
      </trkpt>
      <trkpt lat="46.180833466351032" lon="11.94063956849277">
        <ele>1493.55</ele>
        <time>2017-07-06T07:16:19Z</time>
      </trkpt>
      <trkpt lat="46.180798010900617" lon="11.940649291500449">
        <ele>1493.55</ele>
        <time>2017-07-06T07:16:39Z</time>
      </trkpt>
      <trkpt lat="46.180792646482587" lon="11.940657841041684">
        <ele>1493.55</ele>
        <time>2017-07-06T07:16:59Z</time>
      </trkpt>
      <trkpt lat="46.180774960666895" lon="11.940684244036674">
        <ele>1493.55</ele>
        <time>2017-07-06T07:17:32Z</time>
      </trkpt>
      <trkpt lat="46.180878896266222" lon="11.940640322864056">
        <ele>1493.0599999999999</ele>
        <time>2017-07-06T07:17:52Z</time>
      </trkpt>
      <trkpt lat="46.180879399180412" lon="11.940642753615975">
        <ele>1494.99</ele>
        <time>2017-07-06T07:17:54Z</time>
      </trkpt>
      <trkpt lat="46.180875543504953" lon="11.940641915425658">
        <ele>1493.55</ele>
        <time>2017-07-06T07:17:55Z</time>
      </trkpt>
      <trkpt lat="46.180853499099612" lon="11.940653398633003">
        <ele>1493.55</ele>
        <time>2017-07-06T07:18:27Z</time>
      </trkpt>
      <trkpt lat="46.180830951780081" lon="11.940654320642352">
        <ele>1493.55</ele>
        <time>2017-07-06T07:19:00Z</time>
      </trkpt>
      <trkpt lat="46.180737409740686" lon="11.940646274015307">
        <ele>1494.03</ele>
        <time>2017-07-06T07:19:26Z</time>
      </trkpt>
      <trkpt lat="46.180739337578416" lon="11.940645016729832">
        <ele>1484.4100000000001</ele>
        <time>2017-07-06T07:19:27Z</time>
      </trkpt>
      <trkpt lat="46.180742606520653" lon="11.940641663968563">
        <ele>1484.4100000000001</ele>
        <time>2017-07-06T07:19:28Z</time>
      </trkpt>
      <trkpt lat="46.180744618177414" lon="11.940640658140182">
        <ele>1492.0999999999999</ele>
        <time>2017-07-06T07:19:29Z</time>
      </trkpt>
      <trkpt lat="46.180745791643858" lon="11.940637724474072">
        <ele>1494.03</ele>
        <time>2017-07-06T07:19:30Z</time>
      </trkpt>
      <trkpt lat="46.180745456367731" lon="11.940634790807962">
        <ele>1495.47</ele>
        <time>2017-07-06T07:19:34Z</time>
      </trkpt>
      <trkpt lat="46.180744534358382" lon="11.940635293722153">
        <ele>1494.03</ele>
        <time>2017-07-06T07:19:37Z</time>
      </trkpt>
      <trkpt lat="46.180744618177414" lon="11.940632024779916">
        <ele>1492.0999999999999</ele>
        <time>2017-07-06T07:19:39Z</time>
      </trkpt>
      <trkpt lat="46.180728524923325" lon="11.940640239045024">
        <ele>1497.3900000000001</ele>
        <time>2017-07-06T07:19:40Z</time>
      </trkpt>
      <trkpt lat="46.180717293173075" lon="11.940643759444356">
        <ele>1494.03</ele>
        <time>2017-07-06T07:19:41Z</time>
      </trkpt>
      <trkpt lat="46.180773116648197" lon="11.940660774707794">
        <ele>1493.55</ele>
        <time>2017-07-06T07:20:13Z</time>
      </trkpt>
      <trkpt lat="46.180771943181753" lon="11.940660774707794">
        <ele>1493.0599999999999</ele>
        <time>2017-07-06T07:20:19Z</time>
      </trkpt>
      <trkpt lat="46.180767081677914" lon="11.940671755000949">
        <ele>1495.47</ele>
        <time>2017-07-06T07:20:26Z</time>
      </trkpt>
      <trkpt lat="46.180764231830835" lon="11.940673850476742">
        <ele>1493.55</ele>
        <time>2017-07-06T07:20:27Z</time>
      </trkpt>
      <trkpt lat="46.180772362276912" lon="11.940664630383253">
        <ele>1494.03</ele>
        <time>2017-07-06T07:20:50Z</time>
      </trkpt>
      <trkpt lat="46.180849056690931" lon="11.940664043650031">
        <ele>1494.03</ele>
        <time>2017-07-06T07:22:29Z</time>
      </trkpt>
      <trkpt lat="46.180829778313637" lon="11.940661361441016">
        <ele>1494.51</ele>
        <time>2017-07-06T07:22:39Z</time>
      </trkpt>
      <trkpt lat="46.180779738351703" lon="11.940672928467393">
        <ele>1494.03</ele>
        <time>2017-07-06T07:22:53Z</time>
      </trkpt>
      <trkpt lat="46.180760459974408" lon="11.940686171874404">
        <ele>1494.03</ele>
        <time>2017-07-06T07:23:04Z</time>
      </trkpt>
      <trkpt lat="46.180796837434173" lon="11.940623223781586">
        <ele>1494.51</ele>
        <time>2017-07-06T07:23:17Z</time>
      </trkpt>
      <trkpt lat="46.180766243487597" lon="11.94061953574419">
        <ele>1494.51</ele>
        <time>2017-07-06T07:23:29Z</time>
      </trkpt>
      <trkpt lat="46.180770602077246" lon="11.940646609291434">
        <ele>1494.51</ele>
        <time>2017-07-06T07:23:46Z</time>
      </trkpt>
      <trkpt lat="46.180762639269233" lon="11.940641244873405">
        <ele>1494.51</ele>
        <time>2017-07-06T07:23:58Z</time>
      </trkpt>
      <trkpt lat="46.180753838270903" lon="11.940655075013638">
        <ele>1494.51</ele>
        <time>2017-07-06T07:24:11Z</time>
      </trkpt>
      <trkpt lat="46.180720562115312" lon="11.940652225166559">
        <ele>1494.99</ele>
        <time>2017-07-06T07:24:26Z</time>
      </trkpt>
      <trkpt lat="46.180693907663226" lon="11.940650464966893">
        <ele>1496.4300000000001</ele>
        <time>2017-07-06T07:24:38Z</time>
      </trkpt>
      <trkpt lat="46.180675467476249" lon="11.940698828548193">
        <ele>1498.3499999999999</ele>
        <time>2017-07-06T07:24:52Z</time>
      </trkpt>
      <trkpt lat="46.180589888244867" lon="11.940690698102117">
        <ele>1501.24</ele>
        <time>2017-07-06T07:25:08Z</time>
      </trkpt>
      <trkpt lat="46.180556276813149" lon="11.940668318420649">
        <ele>1502.2</ele>
        <time>2017-07-06T07:25:23Z</time>
      </trkpt>
      <trkpt lat="46.180517636239529" lon="11.940633784979582">
        <ele>1503.1600000000001</ele>
        <time>2017-07-06T07:25:38Z</time>
      </trkpt>
      <trkpt lat="46.180500453338027" lon="11.940653063356876">
        <ele>1503.6400000000001</ele>
        <time>2017-07-06T07:25:48Z</time>
      </trkpt>
      <trkpt lat="46.180484611541033" lon="11.940662954002619">
        <ele>1504.5999999999999</ele>
        <time>2017-07-06T07:25:52Z</time>
      </trkpt>
      <trkpt lat="46.18042292073369" lon="11.940639149397612">
        <ele>1506.04</ele>
        <time>2017-07-06T07:26:04Z</time>
      </trkpt>
      <trkpt lat="46.180456699803472" lon="11.940659852698445">
        <ele>1505.5599999999999</ele>
        <time>2017-07-06T07:26:23Z</time>
      </trkpt>
      <trkpt lat="46.180438678711653" lon="11.940640909597278">
        <ele>1505.5599999999999</ele>
        <time>2017-07-06T07:26:36Z</time>
      </trkpt>
      <trkpt lat="46.180426441133022" lon="11.940652392804623">
        <ele>1506.52</ele>
        <time>2017-07-06T07:26:47Z</time>
      </trkpt>
      <trkpt lat="46.180405234917998" lon="11.940657505765557">
        <ele>1507</ele>
        <time>2017-07-06T07:27:01Z</time>
      </trkpt>
      <trkpt lat="46.180357458069921" lon="11.940662786364555">
        <ele>1509.4100000000001</ele>
        <time>2017-07-06T07:27:13Z</time>
      </trkpt>
      <trkpt lat="46.180302388966084" lon="11.940689105540514">
        <ele>1511.3299999999999</ele>
        <time>2017-07-06T07:27:26Z</time>
      </trkpt>
      <trkpt lat="46.180281601846218" lon="11.940755741670728">
        <ele>1513.73</ele>
        <time>2017-07-06T07:27:39Z</time>
      </trkpt>
      <trkpt lat="46.180284200236201" lon="11.940767057240009">
        <ele>1513.73</ele>
        <time>2017-07-06T07:27:57Z</time>
      </trkpt>
      <trkpt lat="46.180223096162081" lon="11.940749539062381">
        <ele>1515.6600000000001</ele>
        <time>2017-07-06T07:28:07Z</time>
      </trkpt>
      <trkpt lat="46.180172385647893" lon="11.940717604011297">
        <ele>1518.0599999999999</ele>
        <time>2017-07-06T07:28:19Z</time>
      </trkpt>
      <trkpt lat="46.180131314322352" lon="11.940683322027326">
        <ele>1519.98</ele>
        <time>2017-07-06T07:28:30Z</time>
      </trkpt>
      <trkpt lat="46.180110778659582" lon="11.940620457753539">
        <ele>1522.3900000000001</ele>
        <time>2017-07-06T07:28:43Z</time>
      </trkpt>
      <trkpt lat="46.180070964619517" lon="11.940576871857047">
        <ele>1524.3099999999999</ele>
        <time>2017-07-06T07:28:56Z</time>
      </trkpt>
      <trkpt lat="46.180013967677951" lon="11.94052523933351">
        <ele>1526.71</ele>
        <time>2017-07-06T07:29:09Z</time>
      </trkpt>
      <trkpt lat="46.179947080090642" lon="11.940460111945868">
        <ele>1528.6300000000001</ele>
        <time>2017-07-06T07:29:22Z</time>
      </trkpt>
      <trkpt lat="46.179899806156754" lon="11.940386351197958">
        <ele>1530.5599999999999</ele>
        <time>2017-07-06T07:29:36Z</time>
      </trkpt>
      <trkpt lat="46.179854879155755" lon="11.940338406711817">
        <ele>1532.96</ele>
        <time>2017-07-06T07:29:49Z</time>
      </trkpt>
      <trkpt lat="46.179815568029881" lon="11.940264729782939">
        <ele>1534.8800000000001</ele>
        <time>2017-07-06T07:30:02Z</time>
      </trkpt>
      <trkpt lat="46.179770221933722" lon="11.940211169421673">
        <ele>1536.3199999999999</ele>
        <time>2017-07-06T07:30:12Z</time>
      </trkpt>
      <trkpt lat="46.179729234427214" lon="11.940212259069085">
        <ele>1538.73</ele>
        <time>2017-07-06T07:30:26Z</time>
      </trkpt>
      <trkpt lat="46.179692102596164" lon="11.940211420878768">
        <ele>1540.6500000000001</ele>
        <time>2017-07-06T07:30:38Z</time>
      </trkpt>
      <trkpt lat="46.179649019613862" lon="11.940192813053727">
        <ele>1544.01</ele>
        <time>2017-07-06T07:30:52Z</time>
      </trkpt>
      <trkpt lat="46.179597722366452" lon="11.940186023712158">
        <ele>1545.9400000000001</ele>
        <time>2017-07-06T07:31:04Z</time>
      </trkpt>
      <trkpt lat="46.179515495896339" lon="11.940163224935532">
        <ele>1547.3800000000001</ele>
        <time>2017-07-06T07:31:14Z</time>
      </trkpt>
      <trkpt lat="46.179492026567459" lon="11.940157189965248">
        <ele>1548.8199999999999</ele>
        <time>2017-07-06T07:31:25Z</time>
      </trkpt>
      <trkpt lat="46.179479118436575" lon="11.940180910751224">
        <ele>1549.78</ele>
        <time>2017-07-06T07:31:36Z</time>
      </trkpt>
      <trkpt lat="46.179494289681315" lon="11.940210917964578">
        <ele>1551.22</ele>
        <time>2017-07-06T07:31:46Z</time>
      </trkpt>
      <trkpt lat="46.179498983547091" lon="11.94028627127409">
        <ele>1553.1500000000001</ele>
        <time>2017-07-06T07:31:58Z</time>
      </trkpt>
      <trkpt lat="46.179455146193504" lon="11.940276464447379">
        <ele>1555.0699999999999</ele>
        <time>2017-07-06T07:32:09Z</time>
      </trkpt>
      <trkpt lat="46.179416254162788" lon="11.940253665670753">
        <ele>1556.99</ele>
        <time>2017-07-06T07:32:22Z</time>
      </trkpt>
      <trkpt lat="46.179371243342757" lon="11.940237153321505">
        <ele>1558.4300000000001</ele>
        <time>2017-07-06T07:32:34Z</time>
      </trkpt>
      <trkpt lat="46.179337380453944" lon="11.940250312909484">
        <ele>1559.8800000000001</ele>
        <time>2017-07-06T07:32:44Z</time>
      </trkpt>
      <trkpt lat="46.179298991337419" lon="11.940234303474426">
        <ele>1561.3199999999999</ele>
        <time>2017-07-06T07:32:55Z</time>
      </trkpt>
      <trkpt lat="46.179257249459624" lon="11.940261796116829">
        <ele>1563.24</ele>
        <time>2017-07-06T07:33:08Z</time>
      </trkpt>
      <trkpt lat="46.179211484268308" lon="11.940262550488114">
        <ele>1564.6800000000001</ele>
        <time>2017-07-06T07:33:19Z</time>
      </trkpt>
      <trkpt lat="46.179177453741431" lon="11.940289372578263">
        <ele>1566.6099999999999</ele>
        <time>2017-07-06T07:33:30Z</time>
      </trkpt>
      <trkpt lat="46.179120540618896" lon="11.940309153869748">
        <ele>1568.53</ele>
        <time>2017-07-06T07:33:41Z</time>
      </trkpt>
      <trkpt lat="46.179140070453286" lon="11.9403410051018">
        <ele>1569.01</ele>
        <time>2017-07-06T07:33:52Z</time>
      </trkpt>
      <trkpt lat="46.179138561710715" lon="11.940338909626007">
        <ele>1569.49</ele>
        <time>2017-07-06T07:34:04Z</time>
      </trkpt>
      <trkpt lat="46.179166976362467" lon="11.940323319286108">
        <ele>1569.01</ele>
        <time>2017-07-06T07:34:20Z</time>
      </trkpt>
      <trkpt lat="46.179153816774487" lon="11.940338239073753">
        <ele>1569.01</ele>
        <time>2017-07-06T07:34:37Z</time>
      </trkpt>
      <trkpt lat="46.179123558104038" lon="11.940373694524169">
        <ele>1569.01</ele>
        <time>2017-07-06T07:34:53Z</time>
      </trkpt>
      <trkpt lat="46.17910017259419" lon="11.940373778343201">
        <ele>1569.01</ele>
        <time>2017-07-06T07:35:08Z</time>
      </trkpt>
      <trkpt lat="46.179109811782837" lon="11.940346956253052">
        <ele>1568.53</ele>
        <time>2017-07-06T07:35:26Z</time>
      </trkpt>
      <trkpt lat="46.179112158715725" lon="11.940351231023669">
        <ele>1569.01</ele>
        <time>2017-07-06T07:35:39Z</time>
      </trkpt>
      <trkpt lat="46.179087515920401" lon="11.94031267426908">
        <ele>1569.01</ele>
        <time>2017-07-06T07:36:21Z</time>
      </trkpt>
      <trkpt lat="46.179101681336761" lon="11.940393391996622">
        <ele>1569.97</ele>
        <time>2017-07-06T07:36:34Z</time>
      </trkpt>
      <trkpt lat="46.179090868681669" lon="11.940447119995952">
        <ele>1569.97</ele>
        <time>2017-07-06T07:36:47Z</time>
      </trkpt>
      <trkpt lat="46.179054323583841" lon="11.940534291788936">
        <ele>1570.45</ele>
        <time>2017-07-06T07:36:57Z</time>
      </trkpt>
      <trkpt lat="46.179020879790187" lon="11.940615512430668">
        <ele>1571.8900000000001</ele>
        <time>2017-07-06T07:37:08Z</time>
      </trkpt>
      <trkpt lat="46.178956506773829" lon="11.940675359219313">
        <ele>1574.78</ele>
        <time>2017-07-06T07:37:22Z</time>
      </trkpt>
      <trkpt lat="46.17891795001924" lon="11.940730344504118">
        <ele>1576.7</ele>
        <time>2017-07-06T07:37:36Z</time>
      </trkpt>
      <trkpt lat="46.178875789046288" lon="11.940795136615634">
        <ele>1579.0999999999999</ele>
        <time>2017-07-06T07:37:49Z</time>
      </trkpt>
      <trkpt lat="46.178824072703719" lon="11.940859090536833">
        <ele>1581.03</ele>
        <time>2017-07-06T07:38:00Z</time>
      </trkpt>
      <trkpt lat="46.178795071318746" lon="11.940909381955862">
        <ele>1582.95</ele>
        <time>2017-07-06T07:38:12Z</time>
      </trkpt>
      <trkpt lat="46.17876548320055" lon="11.940968139097095">
        <ele>1584.8699999999999</ele>
        <time>2017-07-06T07:38:26Z</time>
      </trkpt>
      <trkpt lat="46.178726255893707" lon="11.941027818247676">
        <ele>1586.3099999999999</ele>
        <time>2017-07-06T07:38:38Z</time>
      </trkpt>
      <trkpt lat="46.178694739937782" lon="11.941080121323466">
        <ele>1587.75</ele>
        <time>2017-07-06T07:38:49Z</time>
      </trkpt>
      <trkpt lat="46.178675126284361" lon="11.94111599586904">
        <ele>1589.2</ele>
        <time>2017-07-06T07:38:59Z</time>
      </trkpt>
      <trkpt lat="46.178659787401557" lon="11.941163269802928">
        <ele>1589.6800000000001</ele>
        <time>2017-07-06T07:39:07Z</time>
      </trkpt>
      <trkpt lat="46.178616369143128" lon="11.94119269028306">
        <ele>1591.5999999999999</ele>
        <time>2017-07-06T07:39:16Z</time>
      </trkpt>
      <trkpt lat="46.178591558709741" lon="11.941240048035979">
        <ele>1593.04</ele>
        <time>2017-07-06T07:39:26Z</time>
      </trkpt>
      <trkpt lat="46.178569095209241" lon="11.941288243979216">
        <ele>1594.48</ele>
        <time>2017-07-06T07:39:36Z</time>
      </trkpt>
      <trkpt lat="46.178533136844635" lon="11.94130701944232">
        <ele>1596.4100000000001</ele>
        <time>2017-07-06T07:39:47Z</time>
      </trkpt>
      <trkpt lat="46.178509751334786" lon="11.941333170980215">
        <ele>1598.3299999999999</ele>
        <time>2017-07-06T07:39:58Z</time>
      </trkpt>
      <trkpt lat="46.178508996963501" lon="11.941339876502752">
        <ele>1598.8099999999999</ele>
        <time>2017-07-06T07:40:12Z</time>
      </trkpt>
      <trkpt lat="46.178461890667677" lon="11.941379103809595">
        <ele>1600.73</ele>
        <time>2017-07-06T07:40:24Z</time>
      </trkpt>
      <trkpt lat="46.178410677239299" lon="11.941329315304756">
        <ele>1602.6600000000001</ele>
        <time>2017-07-06T07:40:36Z</time>
      </trkpt>
      <trkpt lat="46.17834965698421" lon="11.941310204565525">
        <ele>1604.5799999999999</ele>
        <time>2017-07-06T07:40:48Z</time>
      </trkpt>
      <trkpt lat="46.178340688347816" lon="11.941374326124787">
        <ele>1606.5</ele>
        <time>2017-07-06T07:40:59Z</time>
      </trkpt>
      <trkpt lat="46.178292073309422" lon="11.94137248210609">
        <ele>1608.4200000000001</ele>
        <time>2017-07-06T07:41:11Z</time>
      </trkpt>
      <trkpt lat="46.178265670314431" lon="11.941338116303086">
        <ele>1609.8599999999999</ele>
        <time>2017-07-06T07:41:20Z</time>
      </trkpt>
      <trkpt lat="46.178248068317771" lon="11.941377259790897">
        <ele>1611.79</ele>
        <time>2017-07-06T07:41:32Z</time>
      </trkpt>
      <trkpt lat="46.178189730271697" lon="11.941417073830962">
        <ele>1613.71</ele>
        <time>2017-07-06T07:41:44Z</time>
      </trkpt>
      <trkpt lat="46.17816248908639" lon="11.9414599891752">
        <ele>1615.6300000000001</ele>
        <time>2017-07-06T07:41:55Z</time>
      </trkpt>
      <trkpt lat="46.178129883483052" lon="11.941496953368187">
        <ele>1616.5899999999999</ele>
        <time>2017-07-06T07:42:04Z</time>
      </trkpt>
      <trkpt lat="46.178099624812603" lon="11.941522601991892">
        <ele>1618.52</ele>
        <time>2017-07-06T07:42:16Z</time>
      </trkpt>
      <trkpt lat="46.17810825817287" lon="11.941530564799905">
        <ele>1619.48</ele>
        <time>2017-07-06T07:42:26Z</time>
      </trkpt>
      <trkpt lat="46.17809216491878" lon="11.941545065492392">
        <ele>1619.48</ele>
        <time>2017-07-06T07:42:29Z</time>
      </trkpt>
      <trkpt lat="46.178078753873706" lon="11.941618155688047">
        <ele>1620.4400000000001</ele>
        <time>2017-07-06T07:42:38Z</time>
      </trkpt>
      <trkpt lat="46.178023517131805" lon="11.9416793435812">
        <ele>1621.8800000000001</ele>
        <time>2017-07-06T07:42:49Z</time>
      </trkpt>
      <trkpt lat="46.177968950942159" lon="11.941765174269676">
        <ele>1621.4000000000001</ele>
        <time>2017-07-06T07:42:59Z</time>
      </trkpt>
      <trkpt lat="46.177960149943829" lon="11.941774059087038">
        <ele>1621.4000000000001</ele>
        <time>2017-07-06T07:43:00Z</time>
      </trkpt>
      <trkpt lat="46.177868032827973" lon="11.941877491772175">
        <ele>1621.4000000000001</ele>
        <time>2017-07-06T07:43:13Z</time>
      </trkpt>
      <trkpt lat="46.177813047543168" lon="11.94189241155982">
        <ele>1622.3599999999999</ele>
        <time>2017-07-06T07:43:25Z</time>
      </trkpt>
      <trkpt lat="46.177773233503103" lon="11.941932141780853">
        <ele>1622.8399999999999</ele>
        <time>2017-07-06T07:43:37Z</time>
      </trkpt>
      <trkpt lat="46.177778765559196" lon="11.941950749605894">
        <ele>1620.9200000000001</ele>
        <time>2017-07-06T07:43:46Z</time>
      </trkpt>
      <trkpt lat="46.177754709497094" lon="11.941934237256646">
        <ele>1621.4000000000001</ele>
        <time>2017-07-06T07:43:58Z</time>
      </trkpt>
      <trkpt lat="46.177725791931152" lon="11.941922083497047">
        <ele>1621.4000000000001</ele>
        <time>2017-07-06T07:44:16Z</time>
      </trkpt>
      <trkpt lat="46.177709111943841" lon="11.94193247705698">
        <ele>1621.4000000000001</ele>
        <time>2017-07-06T07:44:31Z</time>
      </trkpt>
      <trkpt lat="46.177708357572556" lon="11.941947732120752">
        <ele>1620.9200000000001</ele>
        <time>2017-07-06T07:44:32Z</time>
      </trkpt>
      <trkpt lat="46.1776421405375" lon="11.942004812881351">
        <ele>1621.8800000000001</ele>
        <time>2017-07-06T07:44:42Z</time>
      </trkpt>
      <trkpt lat="46.177644403651357" lon="11.94206340238452">
        <ele>1620.4400000000001</ele>
        <time>2017-07-06T07:44:48Z</time>
      </trkpt>
      <trkpt lat="46.177612468600273" lon="11.942056026309729">
        <ele>1620.9200000000001</ele>
        <time>2017-07-06T07:44:58Z</time>
      </trkpt>
      <trkpt lat="46.177562177181244" lon="11.942046973854303">
        <ele>1621.4000000000001</ele>
        <time>2017-07-06T07:45:06Z</time>
      </trkpt>
      <trkpt lat="46.177515992894769" lon="11.942058792337775">
        <ele>1621.8800000000001</ele>
        <time>2017-07-06T07:45:15Z</time>
      </trkpt>
      <trkpt lat="46.177516411989927" lon="11.942066922783852">
        <ele>1622.8399999999999</ele>
        <time>2017-07-06T07:45:25Z</time>
      </trkpt>
      <trkpt lat="46.177468299865723" lon="11.942071700468659">
        <ele>1622.8399999999999</ele>
        <time>2017-07-06T07:45:37Z</time>
      </trkpt>
      <trkpt lat="46.177444746717811" lon="11.942114448174834">
        <ele>1622.8399999999999</ele>
        <time>2017-07-06T07:45:46Z</time>
      </trkpt>
      <trkpt lat="46.177427312359214" lon="11.942159626632929">
        <ele>1623.8</ele>
        <time>2017-07-06T07:45:54Z</time>
      </trkpt>
      <trkpt lat="46.177441477775574" lon="11.942142611369491">
        <ele>1623.8</ele>
        <time>2017-07-06T07:46:04Z</time>
      </trkpt>
      <trkpt lat="46.177442567422986" lon="11.942135067656636">
        <ele>1623.8</ele>
        <time>2017-07-06T07:46:13Z</time>
      </trkpt>
      <trkpt lat="46.177454805001616" lon="11.942150657996535">
        <ele>1622.8399999999999</ele>
        <time>2017-07-06T07:46:21Z</time>
      </trkpt>
      <trkpt lat="46.177485734224319" lon="11.942186029627919">
        <ele>1622.8399999999999</ele>
        <time>2017-07-06T07:46:31Z</time>
      </trkpt>
      <trkpt lat="46.177472742274404" lon="11.942199440672994">
        <ele>1622.3599999999999</ele>
        <time>2017-07-06T07:46:44Z</time>
      </trkpt>
      <trkpt lat="46.177453966811299" lon="11.942298095673323">
        <ele>1621.8800000000001</ele>
        <time>2017-07-06T07:46:54Z</time>
      </trkpt>
      <trkpt lat="46.177453296259046" lon="11.942305387929082">
        <ele>1621.4000000000001</ele>
        <time>2017-07-06T07:46:55Z</time>
      </trkpt>
      <trkpt lat="46.177439466118813" lon="11.942358696833253">
        <ele>1621.4000000000001</ele>
        <time>2017-07-06T07:46:59Z</time>
      </trkpt>
      <trkpt lat="46.177404094487429" lon="11.942447796463966">
        <ele>1620.4400000000001</ele>
        <time>2017-07-06T07:47:04Z</time>
      </trkpt>
      <trkpt lat="46.1773900128901" lon="11.942488951608539">
        <ele>1620.4400000000001</ele>
        <time>2017-07-06T07:47:11Z</time>
      </trkpt>
      <trkpt lat="46.177387246862054" lon="11.942598670721054">
        <ele>1620.4400000000001</ele>
        <time>2017-07-06T07:47:21Z</time>
      </trkpt>
      <trkpt lat="46.177376518025994" lon="11.942695816978812">
        <ele>1620.4400000000001</ele>
        <time>2017-07-06T07:47:30Z</time>
      </trkpt>
      <trkpt lat="46.177351623773575" lon="11.942769829183817">
        <ele>1621.4000000000001</ele>
        <time>2017-07-06T07:47:39Z</time>
      </trkpt>
      <trkpt lat="46.177362436428666" lon="11.942880554124713">
        <ele>1623.3199999999999</ele>
        <time>2017-07-06T07:47:51Z</time>
      </trkpt>
      <trkpt lat="46.177365956827998" lon="11.942986585199833">
        <ele>1624.77</ele>
        <time>2017-07-06T07:48:02Z</time>
      </trkpt>
      <trkpt lat="46.177372159436345" lon="11.943055232986808">
        <ele>1626.6900000000001</ele>
        <time>2017-07-06T07:48:13Z</time>
      </trkpt>
      <trkpt lat="46.177381547167897" lon="11.943131005391479">
        <ele>1628.6099999999999</ele>
        <time>2017-07-06T07:48:26Z</time>
      </trkpt>
      <trkpt lat="46.177381295710802" lon="11.943198312073946">
        <ele>1630.53</ele>
        <time>2017-07-06T07:48:39Z</time>
      </trkpt>
      <trkpt lat="46.177373835816979" lon="11.943246424198151">
        <ele>1631.98</ele>
        <time>2017-07-06T07:48:50Z</time>
      </trkpt>
      <trkpt lat="46.177366962656379" lon="11.943309791386127">
        <ele>1631.98</ele>
        <time>2017-07-06T07:49:01Z</time>
      </trkpt>
      <trkpt lat="46.177328322082758" lon="11.943416995927691">
        <ele>1633.4200000000001</ele>
        <time>2017-07-06T07:49:13Z</time>
      </trkpt>
      <trkpt lat="46.177322622388601" lon="11.943475250154734">
        <ele>1635.3399999999999</ele>
        <time>2017-07-06T07:49:23Z</time>
      </trkpt>
      <trkpt lat="46.177291190251708" lon="11.943534091114998">
        <ele>1636.3</ele>
        <time>2017-07-06T07:49:34Z</time>
      </trkpt>
      <trkpt lat="46.177265625447035" lon="11.943547250702977">
        <ele>1638.22</ele>
        <time>2017-07-06T07:49:46Z</time>
      </trkpt>
      <trkpt lat="46.177266715094447" lon="11.943584633991122">
        <ele>1640.1500000000001</ele>
        <time>2017-07-06T07:49:55Z</time>
      </trkpt>
      <trkpt lat="46.177247771993279" lon="11.943604834377766">
        <ele>1641.5899999999999</ele>
        <time>2017-07-06T07:50:05Z</time>
      </trkpt>
      <trkpt lat="46.17724341340363" lon="11.943610869348049">
        <ele>1642.0699999999999</ele>
        <time>2017-07-06T07:50:07Z</time>
      </trkpt>
      <trkpt lat="46.177232852205634" lon="11.943670632317662">
        <ele>1643.03</ele>
        <time>2017-07-06T07:50:16Z</time>
      </trkpt>
      <trkpt lat="46.177237713709474" lon="11.943671051412821">
        <ele>1645.4300000000001</ele>
        <time>2017-07-06T07:50:26Z</time>
      </trkpt>
      <trkpt lat="46.177205024287105" lon="11.943693095818162">
        <ele>1646.4000000000001</ele>
        <time>2017-07-06T07:50:34Z</time>
      </trkpt>
      <trkpt lat="46.177205359563231" lon="11.943731904029846">
        <ele>1648.3199999999999</ele>
        <time>2017-07-06T07:50:43Z</time>
      </trkpt>
      <trkpt lat="46.17717987857759" lon="11.943733664229512">
        <ele>1649.28</ele>
        <time>2017-07-06T07:50:52Z</time>
      </trkpt>
      <trkpt lat="46.177187506109476" lon="11.943751936778426">
        <ele>1649.76</ele>
        <time>2017-07-06T07:50:55Z</time>
      </trkpt>
      <trkpt lat="46.177124474197626" lon="11.94381220266223">
        <ele>1651.2</ele>
        <time>2017-07-06T07:51:07Z</time>
      </trkpt>
      <trkpt lat="46.177069656550884" lon="11.943894261494279">
        <ele>1653.1199999999999</ele>
        <time>2017-07-06T07:51:20Z</time>
      </trkpt>
      <trkpt lat="46.177101340144873" lon="11.943907923996449">
        <ele>1653.5999999999999</ele>
        <time>2017-07-06T07:51:29Z</time>
      </trkpt>
      <trkpt lat="46.177117265760899" lon="11.943953773006797">
        <ele>1654.0899999999999</ele>
        <time>2017-07-06T07:51:41Z</time>
      </trkpt>
      <trkpt lat="46.177130425348878" lon="11.944021331146359">
        <ele>1655.05</ele>
        <time>2017-07-06T07:51:50Z</time>
      </trkpt>
      <trkpt lat="46.1770860850811" lon="11.944045973941684">
        <ele>1656.49</ele>
        <time>2017-07-06T07:51:59Z</time>
      </trkpt>
      <trkpt lat="46.177114499732852" lon="11.944089392200112">
        <ele>1657.9300000000001</ele>
        <time>2017-07-06T07:52:08Z</time>
      </trkpt>
      <trkpt lat="46.177091700956225" lon="11.944118645042181">
        <ele>1659.3699999999999</ele>
        <time>2017-07-06T07:52:16Z</time>
      </trkpt>
      <trkpt lat="46.177089354023337" lon="11.944185784086585">
        <ele>1661.3</ele>
        <time>2017-07-06T07:52:28Z</time>
      </trkpt>
      <trkpt lat="46.177119025960565" lon="11.944214114919305">
        <ele>1662.26</ele>
        <time>2017-07-06T07:52:37Z</time>
      </trkpt>
      <trkpt lat="46.177148278802633" lon="11.944302879273891">
        <ele>1664.1800000000001</ele>
        <time>2017-07-06T07:52:52Z</time>
      </trkpt>
      <trkpt lat="46.177150206640363" lon="11.944346381351352">
        <ele>1665.6199999999999</ele>
        <time>2017-07-06T07:53:04Z</time>
      </trkpt>
      <trkpt lat="46.177126821130514" lon="11.944348225370049">
        <ele>1666.0999999999999</ele>
        <time>2017-07-06T07:53:12Z</time>
      </trkpt>
      <trkpt lat="46.177084995433688" lon="11.94435115903616">
        <ele>1668.02</ele>
        <time>2017-07-06T07:53:22Z</time>
      </trkpt>
      <trkpt lat="46.177060604095459" lon="11.944306902587414">
        <ele>1669.47</ele>
        <time>2017-07-06T07:53:32Z</time>
      </trkpt>
      <trkpt lat="46.177107794210315" lon="11.944357696920633">
        <ele>1670.4300000000001</ele>
        <time>2017-07-06T07:53:51Z</time>
      </trkpt>
      <trkpt lat="46.177092371508479" lon="11.94440346211195">
        <ele>1671.8699999999999</ele>
        <time>2017-07-06T07:54:00Z</time>
      </trkpt>
      <trkpt lat="46.177044594660401" lon="11.944409999996424">
        <ele>1675.23</ele>
        <time>2017-07-06T07:54:10Z</time>
      </trkpt>
      <trkpt lat="46.177031854167581" lon="11.944447970017791">
        <ele>1675.23</ele>
        <time>2017-07-06T07:54:19Z</time>
      </trkpt>
      <trkpt lat="46.176983574405313" lon="11.944455178454518">
        <ele>1676.6800000000001</ele>
        <time>2017-07-06T07:54:29Z</time>
      </trkpt>
      <trkpt lat="46.177009139209986" lon="11.944499351084232">
        <ele>1678.5999999999999</ele>
        <time>2017-07-06T07:54:39Z</time>
      </trkpt>
      <trkpt lat="46.177015593275428" lon="11.944560371339321">
        <ele>1680.52</ele>
        <time>2017-07-06T07:54:50Z</time>
      </trkpt>
      <trkpt lat="46.177022466436028" lon="11.944622900336981">
        <ele>1682.4400000000001</ele>
        <time>2017-07-06T07:55:05Z</time>
      </trkpt>
      <trkpt lat="46.177031015977263" lon="11.944640502333641">
        <ele>1683.4100000000001</ele>
        <time>2017-07-06T07:55:18Z</time>
      </trkpt>
      <trkpt lat="46.177042499184608" lon="11.944691296666861">
        <ele>1685.3299999999999</ele>
        <time>2017-07-06T07:55:32Z</time>
      </trkpt>
      <trkpt lat="46.177060771733522" lon="11.944743432104588">
        <ele>1687.25</ele>
        <time>2017-07-06T07:55:43Z</time>
      </trkpt>
      <trkpt lat="46.177012156695127" lon="11.944772601127625">
        <ele>1688.6900000000001</ele>
        <time>2017-07-06T07:55:54Z</time>
      </trkpt>
      <trkpt lat="46.176995309069753" lon="11.944798585027456">
        <ele>1691.0999999999999</ele>
        <time>2017-07-06T07:56:11Z</time>
      </trkpt>
      <trkpt lat="46.176991118118167" lon="11.944808308035135">
        <ele>1690.6199999999999</ele>
        <time>2017-07-06T07:56:20Z</time>
      </trkpt>
      <trkpt lat="46.176970163360238" lon="11.94483588449657">
        <ele>1693.98</ele>
        <time>2017-07-06T07:56:32Z</time>
      </trkpt>
      <trkpt lat="46.176946610212326" lon="11.94475919008255">
        <ele>1695.4200000000001</ele>
        <time>2017-07-06T07:56:42Z</time>
      </trkpt>
      <trkpt lat="46.176962619647384" lon="11.944743096828461">
        <ele>1695.9000000000001</ele>
        <time>2017-07-06T07:56:53Z</time>
      </trkpt>
      <trkpt lat="46.176976449787617" lon="11.944737397134304">
        <ele>1696.3800000000001</ele>
        <time>2017-07-06T07:57:03Z</time>
      </trkpt>
      <trkpt lat="46.176991872489452" lon="11.944722225889564">
        <ele>1696.8599999999999</ele>
        <time>2017-07-06T07:57:19Z</time>
      </trkpt>
      <trkpt lat="46.176969660446048" lon="11.944716777652502">
        <ele>1696.3800000000001</ele>
        <time>2017-07-06T07:57:38Z</time>
      </trkpt>
      <trkpt lat="46.176923140883446" lon="11.944713005796075">
        <ele>1698.79</ele>
        <time>2017-07-06T07:57:50Z</time>
      </trkpt>
      <trkpt lat="46.176941748708487" lon="11.944681238383055">
        <ele>1699.75</ele>
        <time>2017-07-06T07:58:00Z</time>
      </trkpt>
      <trkpt lat="46.176943341270089" lon="11.944662211462855">
        <ele>1698.3099999999999</ele>
        <time>2017-07-06T07:58:08Z</time>
      </trkpt>
      <trkpt lat="46.176925571635365" lon="11.944682244211435">
        <ele>1697.3399999999999</ele>
        <time>2017-07-06T07:58:18Z</time>
      </trkpt>
      <trkpt lat="46.17692188359797" lon="11.944683669134974">
        <ele>1698.79</ele>
        <time>2017-07-06T07:58:20Z</time>
      </trkpt>
      <trkpt lat="46.17687008343637" lon="11.944665228947997">
        <ele>1698.3099999999999</ele>
        <time>2017-07-06T07:58:44Z</time>
      </trkpt>
      <trkpt lat="46.176846530288458" lon="11.944617368280888">
        <ele>1698.3099999999999</ele>
        <time>2017-07-06T07:59:10Z</time>
      </trkpt>
      <trkpt lat="46.176805794239044" lon="11.944595910608768">
        <ele>1698.3099999999999</ele>
        <time>2017-07-06T07:59:34Z</time>
      </trkpt>
      <trkpt lat="46.176855750381947" lon="11.944662379100919">
        <ele>1698.3099999999999</ele>
        <time>2017-07-06T07:59:56Z</time>
      </trkpt>
      <trkpt lat="46.17689355276525" lon="11.944626169279218">
        <ele>1697.8299999999999</ele>
        <time>2017-07-06T08:00:23Z</time>
      </trkpt>
      <trkpt lat="46.176932360976934" lon="11.944685596972704">
        <ele>1698.3099999999999</ele>
        <time>2017-07-06T08:00:48Z</time>
      </trkpt>
      <trkpt lat="46.176912831142545" lon="11.944698002189398">
        <ele>1697.8299999999999</ele>
        <time>2017-07-06T08:01:15Z</time>
      </trkpt>
      <trkpt lat="46.17688818834722" lon="11.944672437384725">
        <ele>1697.8299999999999</ele>
        <time>2017-07-06T08:01:38Z</time>
      </trkpt>
      <trkpt lat="46.17686522193253" lon="11.94462776184082">
        <ele>1697.8299999999999</ele>
        <time>2017-07-06T08:02:02Z</time>
      </trkpt>
      <trkpt lat="46.176846697926521" lon="11.944608567282557">
        <ele>1697.8299999999999</ele>
        <time>2017-07-06T08:02:29Z</time>
      </trkpt>
      <trkpt lat="46.176848793402314" lon="11.944611668586731">
        <ele>1697.8299999999999</ele>
        <time>2017-07-06T08:02:56Z</time>
      </trkpt>
      <trkpt lat="46.176930265501142" lon="11.944568753242493">
        <ele>1697.8299999999999</ele>
        <time>2017-07-06T08:03:20Z</time>
      </trkpt>
      <trkpt lat="46.176894390955567" lon="11.944645363837481">
        <ele>1698.3099999999999</ele>
        <time>2017-07-06T08:03:47Z</time>
      </trkpt>
      <trkpt lat="46.176905622705817" lon="11.944655757397413">
        <ele>1698.3099999999999</ele>
        <time>2017-07-06T08:04:12Z</time>
      </trkpt>
      <trkpt lat="46.176951806992292" lon="11.944630024954677">
        <ele>1698.3099999999999</ele>
        <time>2017-07-06T08:04:40Z</time>
      </trkpt>
      <trkpt lat="46.176963709294796" lon="11.944551235064864">
        <ele>1698.3099999999999</ele>
        <time>2017-07-06T08:05:06Z</time>
      </trkpt>
      <trkpt lat="46.177007295191288" lon="11.944634299725294">
        <ele>1698.3099999999999</ele>
        <time>2017-07-06T08:05:28Z</time>
      </trkpt>
      <trkpt lat="46.176932277157903" lon="11.944588115438819">
        <ele>1698.79</ele>
        <time>2017-07-06T08:05:53Z</time>
      </trkpt>
      <trkpt lat="46.176906293258071" lon="11.944628683850169">
        <ele>1698.79</ele>
        <time>2017-07-06T08:06:19Z</time>
      </trkpt>
      <trkpt lat="46.176908053457737" lon="11.94468978792429">
        <ele>1699.27</ele>
        <time>2017-07-06T08:06:47Z</time>
      </trkpt>
      <trkpt lat="46.176891541108489" lon="11.944671850651503">
        <ele>1695.4200000000001</ele>
        <time>2017-07-06T08:06:54Z</time>
      </trkpt>
      <trkpt lat="46.17688961327076" lon="11.944668246433139">
        <ele>1700.23</ele>
        <time>2017-07-06T08:06:55Z</time>
      </trkpt>
      <trkpt lat="46.176886847242713" lon="11.944675706326962">
        <ele>1698.79</ele>
        <time>2017-07-06T08:06:58Z</time>
      </trkpt>
      <trkpt lat="46.176864802837372" lon="11.944575123488903">
        <ele>1698.79</ele>
        <time>2017-07-06T08:07:23Z</time>
      </trkpt>
      <trkpt lat="46.176948370411992" lon="11.944590797647834">
        <ele>1699.27</ele>
        <time>2017-07-06T08:07:47Z</time>
      </trkpt>
      <trkpt lat="46.176954321563244" lon="11.94466975517571">
        <ele>1699.27</ele>
        <time>2017-07-06T08:08:12Z</time>
      </trkpt>
      <trkpt lat="46.176888020709157" lon="11.944721387699246">
        <ele>1699.27</ele>
        <time>2017-07-06T08:08:38Z</time>
      </trkpt>
      <trkpt lat="46.176931271329522" lon="11.944601610302925">
        <ele>1699.27</ele>
        <time>2017-07-06T08:09:08Z</time>
      </trkpt>
      <trkpt lat="46.176937138661742" lon="11.944648046046495">
        <ele>1699.27</ele>
        <time>2017-07-06T08:09:25Z</time>
      </trkpt>
      <trkpt lat="46.176924146711826" lon="11.944746030494571">
        <ele>1699.27</ele>
        <time>2017-07-06T08:09:50Z</time>
      </trkpt>
      <trkpt lat="46.1769047845155" lon="11.944704540073872">
        <ele>1699.27</ele>
        <time>2017-07-06T08:10:18Z</time>
      </trkpt>
      <trkpt lat="46.176864886656404" lon="11.94463656283915">
        <ele>1699.27</ele>
        <time>2017-07-06T08:10:39Z</time>
      </trkpt>
      <trkpt lat="46.17693361826241" lon="11.944652572274208">
        <ele>1700.23</ele>
        <time>2017-07-06T08:11:00Z</time>
      </trkpt>
      <trkpt lat="46.176925152540207" lon="11.944666737690568">
        <ele>1699.27</ele>
        <time>2017-07-06T08:11:02Z</time>
      </trkpt>
      <trkpt lat="46.176910819485784" lon="11.944672605022788">
        <ele>1699.27</ele>
        <time>2017-07-06T08:11:04Z</time>
      </trkpt>
      <trkpt lat="46.176911406219006" lon="11.944666989147663">
        <ele>1700.23</ele>
        <time>2017-07-06T08:11:13Z</time>
      </trkpt>
      <trkpt lat="46.176902269944549" lon="11.944666234776378">
        <ele>1699.75</ele>
        <time>2017-07-06T08:11:24Z</time>
      </trkpt>
      <trkpt lat="46.176887601613998" lon="11.944652069360018">
        <ele>1700.71</ele>
        <time>2017-07-06T08:11:32Z</time>
      </trkpt>
      <trkpt lat="46.176927918568254" lon="11.944656763225794">
        <ele>1700.71</ele>
        <time>2017-07-06T08:11:44Z</time>
      </trkpt>
      <trkpt lat="46.176923979073763" lon="11.944663804024458">
        <ele>1700.71</ele>
        <time>2017-07-06T08:11:57Z</time>
      </trkpt>
      <trkpt lat="46.176918866112828" lon="11.944685848429799">
        <ele>1700.71</ele>
        <time>2017-07-06T08:12:14Z</time>
      </trkpt>
      <trkpt lat="46.176941245794296" lon="11.944678723812103">
        <ele>1700.71</ele>
        <time>2017-07-06T08:12:29Z</time>
      </trkpt>
      <trkpt lat="46.176955243572593" lon="11.944657098501921">
        <ele>1700.23</ele>
        <time>2017-07-06T08:12:36Z</time>
      </trkpt>
      <trkpt lat="46.176968403160572" lon="11.944679813459516">
        <ele>1699.27</ele>
        <time>2017-07-06T08:12:46Z</time>
      </trkpt>
      <trkpt lat="46.176962787285447" lon="11.94471032358706">
        <ele>1699.27</ele>
        <time>2017-07-06T08:13:03Z</time>
      </trkpt>
      <trkpt lat="46.176967145875096" lon="11.944699678570032">
        <ele>1699.27</ele>
        <time>2017-07-06T08:13:20Z</time>
      </trkpt>
      <trkpt lat="46.176965804770589" lon="11.944702863693237">
        <ele>1699.27</ele>
        <time>2017-07-06T08:13:32Z</time>
      </trkpt>
      <trkpt lat="46.176970414817333" lon="11.944696241989732">
        <ele>1699.75</ele>
        <time>2017-07-06T08:13:51Z</time>
      </trkpt>
      <trkpt lat="46.17695708759129" lon="11.944700935855508">
        <ele>1699.75</ele>
        <time>2017-07-06T08:14:11Z</time>
      </trkpt>
      <trkpt lat="46.176947616040707" lon="11.944682244211435">
        <ele>1699.75</ele>
        <time>2017-07-06T08:14:28Z</time>
      </trkpt>
      <trkpt lat="46.17695901542902" lon="11.944692889228463">
        <ele>1699.75</ele>
        <time>2017-07-06T08:14:40Z</time>
      </trkpt>
      <trkpt lat="46.176958680152893" lon="11.944698840379715">
        <ele>1699.75</ele>
        <time>2017-07-06T08:14:56Z</time>
      </trkpt>
      <trkpt lat="46.176921129226685" lon="11.944670844823122">
        <ele>1701.1900000000001</ele>
        <time>2017-07-06T08:15:09Z</time>
      </trkpt>
      <trkpt lat="46.176903359591961" lon="11.944675371050835">
        <ele>1702.1500000000001</ele>
        <time>2017-07-06T08:15:24Z</time>
      </trkpt>
      <trkpt lat="46.176879303529859" lon="11.944670425727963">
        <ele>1702.6300000000001</ele>
        <time>2017-07-06T08:15:35Z</time>
      </trkpt>
      <trkpt lat="46.176872178912163" lon="11.9446477945894">
        <ele>1703.1099999999999</ele>
        <time>2017-07-06T08:15:47Z</time>
      </trkpt>
      <trkpt lat="46.176872346550226" lon="11.944646704941988">
        <ele>1702.6300000000001</ele>
        <time>2017-07-06T08:16:01Z</time>
      </trkpt>
      <trkpt lat="46.176878549158573" lon="11.944649051874876">
        <ele>1703.1099999999999</ele>
        <time>2017-07-06T08:16:15Z</time>
      </trkpt>
      <trkpt lat="46.176855582743883" lon="11.944648213684559">
        <ele>1703.5899999999999</ele>
        <time>2017-07-06T08:16:25Z</time>
      </trkpt>
      <trkpt lat="46.17683588527143" lon="11.944653913378716">
        <ele>1704.55</ele>
        <time>2017-07-06T08:16:38Z</time>
      </trkpt>
      <trkpt lat="46.176816103979945" lon="11.944637149572372">
        <ele>1705.52</ele>
        <time>2017-07-06T08:16:50Z</time>
      </trkpt>
      <trkpt lat="46.176784252747893" lon="11.944627510383725">
        <ele>1706.48</ele>
        <time>2017-07-06T08:17:00Z</time>
      </trkpt>
      <trkpt lat="46.176799423992634" lon="11.944636227563024">
        <ele>1706.96</ele>
        <time>2017-07-06T08:17:19Z</time>
      </trkpt>
      <trkpt lat="46.176787437871099" lon="11.944666486233473">
        <ele>1707.9200000000001</ele>
        <time>2017-07-06T08:17:33Z</time>
      </trkpt>
      <trkpt lat="46.176766231656075" lon="11.944698756560683">
        <ele>1709.8399999999999</ele>
        <time>2017-07-06T08:17:51Z</time>
      </trkpt>
      <trkpt lat="46.176744187250733" lon="11.944704875349998">
        <ele>1709.8399999999999</ele>
        <time>2017-07-06T08:18:01Z</time>
      </trkpt>
      <trkpt lat="46.176723651587963" lon="11.944735553115606">
        <ele>1709.3599999999999</ele>
        <time>2017-07-06T08:18:12Z</time>
      </trkpt>
      <trkpt lat="46.176703032106161" lon="11.944738151505589">
        <ele>1708.4000000000001</ele>
        <time>2017-07-06T08:18:17Z</time>
      </trkpt>
      <trkpt lat="46.176635306328535" lon="11.944780731573701">
        <ele>1707.4400000000001</ele>
        <time>2017-07-06T08:18:27Z</time>
      </trkpt>
      <trkpt lat="46.176606975495815" lon="11.944786850363016">
        <ele>1706.96</ele>
        <time>2017-07-06T08:18:31Z</time>
      </trkpt>
      <trkpt lat="46.176519216969609" lon="11.944768158718944">
        <ele>1706.96</ele>
        <time>2017-07-06T08:18:41Z</time>
      </trkpt>
      <trkpt lat="46.176424333825707" lon="11.944714598357677">
        <ele>1709.3599999999999</ele>
        <time>2017-07-06T08:18:55Z</time>
      </trkpt>
      <trkpt lat="46.176380831748247" lon="11.944716526195407">
        <ele>1711.76</ele>
        <time>2017-07-06T08:19:07Z</time>
      </trkpt>
      <trkpt lat="46.176351998001337" lon="11.944708814844489">
        <ele>1712.73</ele>
        <time>2017-07-06T08:19:18Z</time>
      </trkpt>
      <trkpt lat="46.176324337720871" lon="11.944692051038146">
        <ele>1713.21</ele>
        <time>2017-07-06T08:19:31Z</time>
      </trkpt>
      <trkpt lat="46.176305562257767" lon="11.944726165384054">
        <ele>1712.25</ele>
        <time>2017-07-06T08:19:41Z</time>
      </trkpt>
      <trkpt lat="46.176282344385982" lon="11.944781569764018">
        <ele>1712.73</ele>
        <time>2017-07-06T08:19:53Z</time>
      </trkpt>
      <trkpt lat="46.176237249746919" lon="11.944858180359006">
        <ele>1713.21</ele>
        <time>2017-07-06T08:20:04Z</time>
      </trkpt>
      <trkpt lat="46.176211684942245" lon="11.944970497861505">
        <ele>1712.73</ele>
        <time>2017-07-06T08:20:13Z</time>
      </trkpt>
      <trkpt lat="46.176245044916868" lon="11.944962535053492">
        <ele>1712.73</ele>
        <time>2017-07-06T08:20:27Z</time>
      </trkpt>
      <trkpt lat="46.176234986633062" lon="11.944915261119604">
        <ele>1713.6900000000001</ele>
        <time>2017-07-06T08:20:37Z</time>
      </trkpt>
      <trkpt lat="46.176215289160609" lon="11.944910818710923">
        <ele>1714.6500000000001</ele>
        <time>2017-07-06T08:20:47Z</time>
      </trkpt>
      <trkpt lat="46.176183354109526" lon="11.944881230592728">
        <ele>1715.1300000000001</ele>
        <time>2017-07-06T08:20:59Z</time>
      </trkpt>
      <trkpt lat="46.17617036215961" lon="11.944888355210423">
        <ele>1716.0899999999999</ele>
        <time>2017-07-06T08:21:09Z</time>
      </trkpt>
      <trkpt lat="46.176157537847757" lon="11.944931522011757">
        <ele>1716.5699999999999</ele>
        <time>2017-07-06T08:21:22Z</time>
      </trkpt>
      <trkpt lat="46.176127949729562" lon="11.944934204220772">
        <ele>1717.05</ele>
        <time>2017-07-06T08:21:34Z</time>
      </trkpt>
      <trkpt lat="46.176107916980982" lon="11.944906292483211">
        <ele>1718.01</ele>
        <time>2017-07-06T08:21:46Z</time>
      </trkpt>
      <trkpt lat="46.176098110154271" lon="11.944865807890892">
        <ele>1718.49</ele>
        <time>2017-07-06T08:21:59Z</time>
      </trkpt>
      <trkpt lat="46.176072126254439" lon="11.944777881726623">
        <ele>1720.4200000000001</ele>
        <time>2017-07-06T08:22:10Z</time>
      </trkpt>
      <trkpt lat="46.176079837605357" lon="11.944798836484551">
        <ele>1719.9400000000001</ele>
        <time>2017-07-06T08:22:25Z</time>
      </trkpt>
      <trkpt lat="46.176045974716544" lon="11.944803949445486">
        <ele>1720.4200000000001</ele>
        <time>2017-07-06T08:22:35Z</time>
      </trkpt>
      <trkpt lat="46.176038347184658" lon="11.944791711866856">
        <ele>1720.4200000000001</ele>
        <time>2017-07-06T08:22:52Z</time>
      </trkpt>
      <trkpt lat="46.176041532307863" lon="11.944765308871865">
        <ele>1720.9000000000001</ele>
        <time>2017-07-06T08:23:02Z</time>
      </trkpt>
      <trkpt lat="46.176001550629735" lon="11.944791879504919">
        <ele>1720.4200000000001</ele>
        <time>2017-07-06T08:23:12Z</time>
      </trkpt>
      <trkpt lat="46.176003394648433" lon="11.944772182032466">
        <ele>1720.9000000000001</ele>
        <time>2017-07-06T08:23:26Z</time>
      </trkpt>
      <trkpt lat="46.175998449325562" lon="11.944780144840479">
        <ele>1721.3800000000001</ele>
        <time>2017-07-06T08:23:36Z</time>
      </trkpt>
      <trkpt lat="46.175984619185328" lon="11.944906627759337">
        <ele>1721.8599999999999</ele>
        <time>2017-07-06T08:23:46Z</time>
      </trkpt>
      <trkpt lat="46.175965676084161" lon="11.944937389343977">
        <ele>1722.3399999999999</ele>
        <time>2017-07-06T08:23:52Z</time>
      </trkpt>
      <trkpt lat="46.175919407978654" lon="11.944924732670188">
        <ele>1723.3</ele>
        <time>2017-07-06T08:24:00Z</time>
      </trkpt>
      <trkpt lat="46.175849502906203" lon="11.944943005219102">
        <ele>1725.7</ele>
        <time>2017-07-06T08:24:13Z</time>
      </trkpt>
      <trkpt lat="46.17580097168684" lon="11.944919200614095">
        <ele>1728.5899999999999</ele>
        <time>2017-07-06T08:24:27Z</time>
      </trkpt>
      <trkpt lat="46.175756882876158" lon="11.944894893094897">
        <ele>1729.55</ele>
        <time>2017-07-06T08:24:36Z</time>
      </trkpt>
      <trkpt lat="46.175731737166643" lon="11.94480512291193">
        <ele>1730.51</ele>
        <time>2017-07-06T08:24:44Z</time>
      </trkpt>
      <trkpt lat="46.17572276853025" lon="11.944667743518949">
        <ele>1730.99</ele>
        <time>2017-07-06T08:24:59Z</time>
      </trkpt>
      <trkpt lat="46.17566904053092" lon="11.944652153179049">
        <ele>1732.9100000000001</ele>
        <time>2017-07-06T08:25:11Z</time>
      </trkpt>
      <trkpt lat="46.175655042752624" lon="11.944689536467195">
        <ele>1733.8800000000001</ele>
        <time>2017-07-06T08:25:20Z</time>
      </trkpt>
      <trkpt lat="46.175640122964978" lon="11.944678472355008">
        <ele>1735.3199999999999</ele>
        <time>2017-07-06T08:25:32Z</time>
      </trkpt>
      <trkpt lat="46.17563677020371" lon="11.944634886458516">
        <ele>1735.8</ele>
        <time>2017-07-06T08:25:49Z</time>
      </trkpt>
      <trkpt lat="46.175647582858801" lon="11.944687608629465">
        <ele>1735.3199999999999</ele>
        <time>2017-07-06T08:26:01Z</time>
      </trkpt>
      <trkpt lat="46.175649929791689" lon="11.94469858892262">
        <ele>1735.8</ele>
        <time>2017-07-06T08:26:14Z</time>
      </trkpt>
      <trkpt lat="46.175638865679502" lon="11.94480218924582">
        <ele>1735.8</ele>
        <time>2017-07-06T08:26:30Z</time>
      </trkpt>
      <trkpt lat="46.175615396350622" lon="11.944774445146322">
        <ele>1736.28</ele>
        <time>2017-07-06T08:26:45Z</time>
      </trkpt>
      <trkpt lat="46.175607014447451" lon="11.944730523973703">
        <ele>1737.72</ele>
        <time>2017-07-06T08:26:57Z</time>
      </trkpt>
      <trkpt lat="46.175593351945281" lon="11.944700684398413">
        <ele>1738.2</ele>
        <time>2017-07-06T08:27:10Z</time>
      </trkpt>
      <trkpt lat="46.175591927021742" lon="11.944690877571702">
        <ele>1738.2</ele>
        <time>2017-07-06T08:27:12Z</time>
      </trkpt>
      <trkpt lat="46.175581533461809" lon="11.944639161229134">
        <ele>1738.6800000000001</ele>
        <time>2017-07-06T08:27:21Z</time>
      </trkpt>
      <trkpt lat="46.175602823495865" lon="11.944626001641154">
        <ele>1739.1600000000001</ele>
        <time>2017-07-06T08:27:37Z</time>
      </trkpt>
      <trkpt lat="46.175567954778671" lon="11.944626672193408">
        <ele>1740.1199999999999</ele>
        <time>2017-07-06T08:27:48Z</time>
      </trkpt>
      <trkpt lat="46.175556387752295" lon="11.944634551182389">
        <ele>1741.0799999999999</ele>
        <time>2017-07-06T08:28:05Z</time>
      </trkpt>
      <trkpt lat="46.175538618117571" lon="11.944641089066863">
        <ele>1742.05</ele>
        <time>2017-07-06T08:28:18Z</time>
      </trkpt>
      <trkpt lat="46.175532499328256" lon="11.944622648879886">
        <ele>1742.53</ele>
        <time>2017-07-06T08:28:34Z</time>
      </trkpt>
      <trkpt lat="46.175512298941612" lon="11.94462968967855">
        <ele>1743.01</ele>
        <time>2017-07-06T08:28:46Z</time>
      </trkpt>
      <trkpt lat="46.17548480629921" lon="11.944650979712605">
        <ele>1743.49</ele>
        <time>2017-07-06T08:29:01Z</time>
      </trkpt>
      <trkpt lat="46.175485979765654" lon="11.94462968967855">
        <ele>1744.45</ele>
        <time>2017-07-06T08:29:17Z</time>
      </trkpt>
      <trkpt lat="46.175453625619411" lon="11.944597000256181">
        <ele>1746.3699999999999</ele>
        <time>2017-07-06T08:29:25Z</time>
      </trkpt>
      <trkpt lat="46.175423953682184" lon="11.944588031619787">
        <ele>1748.29</ele>
        <time>2017-07-06T08:29:35Z</time>
      </trkpt>
      <trkpt lat="46.175390426069498" lon="11.94457646459341">
        <ele>1750.22</ele>
        <time>2017-07-06T08:29:48Z</time>
      </trkpt>
      <trkpt lat="46.175359496846795" lon="11.9445407576859">
        <ele>1751.6600000000001</ele>
        <time>2017-07-06T08:29:56Z</time>
      </trkpt>
      <trkpt lat="46.175360754132271" lon="11.944532543420792">
        <ele>1753.0999999999999</ele>
        <time>2017-07-06T08:30:04Z</time>
      </trkpt>
      <trkpt lat="46.175378942862153" lon="11.944558024406433">
        <ele>1753.0999999999999</ele>
        <time>2017-07-06T08:30:19Z</time>
      </trkpt>
      <trkpt lat="46.175366872921586" lon="11.944517288357019">
        <ele>1753.0999999999999</ele>
        <time>2017-07-06T08:30:41Z</time>
      </trkpt>
      <trkpt lat="46.175335440784693" lon="11.944534052163363">
        <ele>1754.54</ele>
        <time>2017-07-06T08:30:49Z</time>
      </trkpt>
      <trkpt lat="46.175318257883191" lon="11.944558108225465">
        <ele>1755.02</ele>
        <time>2017-07-06T08:30:55Z</time>
      </trkpt>
      <trkpt lat="46.175290094688535" lon="11.944557270035148">
        <ele>1755.99</ele>
        <time>2017-07-06T08:31:07Z</time>
      </trkpt>
      <trkpt lat="46.175284227356315" lon="11.944588534533978">
        <ele>1755.99</ele>
        <time>2017-07-06T08:31:14Z</time>
      </trkpt>
      <trkpt lat="46.175267966464162" lon="11.94461259059608">
        <ele>1756.95</ele>
        <time>2017-07-06T08:31:20Z</time>
      </trkpt>
      <trkpt lat="46.175257740542293" lon="11.944595323875546">
        <ele>1758.3900000000001</ele>
        <time>2017-07-06T08:31:27Z</time>
      </trkpt>
      <trkpt lat="46.175230080261827" lon="11.944583673030138">
        <ele>1759.8299999999999</ele>
        <time>2017-07-06T08:31:38Z</time>
      </trkpt>
      <trkpt lat="46.175213400274515" lon="11.944605549797416">
        <ele>1760.3099999999999</ele>
        <time>2017-07-06T08:31:47Z</time>
      </trkpt>
      <trkpt lat="46.175210969522595" lon="11.944631868973374">
        <ele>1760.79</ele>
        <time>2017-07-06T08:32:00Z</time>
      </trkpt>
      <trkpt lat="46.175180962309241" lon="11.944655841216445">
        <ele>1763.2</ele>
        <time>2017-07-06T08:32:11Z</time>
      </trkpt>
      <trkpt lat="46.17516185157001" lon="11.944696325808764">
        <ele>1763.6800000000001</ele>
        <time>2017-07-06T08:32:25Z</time>
      </trkpt>
      <trkpt lat="46.175160594284534" lon="11.944759022444487">
        <ele>1765.1199999999999</ele>
        <time>2017-07-06T08:32:36Z</time>
      </trkpt>
      <trkpt lat="46.175141651183367" lon="11.944758184254169">
        <ele>1766.5599999999999</ele>
        <time>2017-07-06T08:32:47Z</time>
      </trkpt>
      <trkpt lat="46.175130167976022" lon="11.94477628916502">
        <ele>1767.52</ele>
        <time>2017-07-06T08:32:57Z</time>
      </trkpt>
      <trkpt lat="46.175102423876524" lon="11.944674029946327">
        <ele>1767.52</ele>
        <time>2017-07-06T08:33:11Z</time>
      </trkpt>
      <trkpt lat="46.175082558766007" lon="11.944657685235143">
        <ele>1768.96</ele>
        <time>2017-07-06T08:33:23Z</time>
      </trkpt>
      <trkpt lat="46.175064370036125" lon="11.944727338850498">
        <ele>1771.3699999999999</ele>
        <time>2017-07-06T08:33:34Z</time>
      </trkpt>
      <trkpt lat="46.175061520189047" lon="11.94475868716836">
        <ele>1771.8499999999999</ele>
        <time>2017-07-06T08:33:45Z</time>
      </trkpt>
      <trkpt lat="46.175060011446476" lon="11.944812750443816">
        <ele>1772.3299999999999</ele>
        <time>2017-07-06T08:34:02Z</time>
      </trkpt>
      <trkpt lat="46.175080463290215" lon="11.944856839254498">
        <ele>1772.8099999999999</ele>
        <time>2017-07-06T08:34:14Z</time>
      </trkpt>
      <trkpt lat="46.17507635615766" lon="11.944832447916269">
        <ele>1774.25</ele>
        <time>2017-07-06T08:34:22Z</time>
      </trkpt>
      <trkpt lat="46.175059676170349" lon="11.944818031042814">
        <ele>1775.21</ele>
        <time>2017-07-06T08:34:31Z</time>
      </trkpt>
      <trkpt lat="46.175054060295224" lon="11.944867148995399">
        <ele>1775.21</ele>
        <time>2017-07-06T08:34:49Z</time>
      </trkpt>
      <trkpt lat="46.175043415278196" lon="11.94488181732595">
        <ele>1776.1700000000001</ele>
        <time>2017-07-06T08:34:57Z</time>
      </trkpt>
      <trkpt lat="46.175037799403071" lon="11.94488575682044">
        <ele>1777.1300000000001</ele>
        <time>2017-07-06T08:35:07Z</time>
      </trkpt>
      <trkpt lat="46.175020365044475" lon="11.944890785962343">
        <ele>1777.6099999999999</ele>
        <time>2017-07-06T08:35:18Z</time>
      </trkpt>
      <trkpt lat="46.174981305375695" lon="11.944853235036135">
        <ele>1777.6099999999999</ele>
        <time>2017-07-06T08:35:32Z</time>
      </trkpt>
      <trkpt lat="46.174991447478533" lon="11.944903191179037">
        <ele>1777.6099999999999</ele>
        <time>2017-07-06T08:35:55Z</time>
      </trkpt>
      <trkpt lat="46.174982395023108" lon="11.944934371858835">
        <ele>1778.0999999999999</ele>
        <time>2017-07-06T08:36:15Z</time>
      </trkpt>
      <trkpt lat="46.174962697550654" lon="11.944945603609085">
        <ele>1777.6099999999999</ele>
        <time>2017-07-06T08:36:35Z</time>
      </trkpt>
      <trkpt lat="46.174945430830121" lon="11.944899000227451">
        <ele>1780.02</ele>
        <time>2017-07-06T08:36:49Z</time>
      </trkpt>
      <trkpt lat="46.174976862967014" lon="11.94488282315433">
        <ele>1780.02</ele>
        <time>2017-07-06T08:37:03Z</time>
      </trkpt>
      <trkpt lat="46.174934199079871" lon="11.944906376302242">
        <ele>1780.98</ele>
        <time>2017-07-06T08:37:12Z</time>
      </trkpt>
      <trkpt lat="46.174920704215765" lon="11.944893216714263">
        <ele>1781.9400000000001</ele>
        <time>2017-07-06T08:37:16Z</time>
      </trkpt>
      <trkpt lat="46.174866557121277" lon="11.944895479828119">
        <ele>1782.9000000000001</ele>
        <time>2017-07-06T08:37:26Z</time>
      </trkpt>
      <trkpt lat="46.174822971224785" lon="11.944868322461843">
        <ele>1784.8199999999999</ele>
        <time>2017-07-06T08:37:37Z</time>
      </trkpt>
      <trkpt lat="46.174815176054835" lon="11.944897575303912">
        <ele>1785.79</ele>
        <time>2017-07-06T08:37:47Z</time>
      </trkpt>
      <trkpt lat="46.174803525209427" lon="11.944885002449155">
        <ele>1786.27</ele>
        <time>2017-07-06T08:37:56Z</time>
      </trkpt>
      <trkpt lat="46.174786007031798" lon="11.944896066561341">
        <ele>1787.71</ele>
        <time>2017-07-06T08:38:04Z</time>
      </trkpt>
      <trkpt lat="46.174763375893235" lon="11.944929677993059">
        <ele>1789.1500000000001</ele>
        <time>2017-07-06T08:38:14Z</time>
      </trkpt>
      <trkpt lat="46.174725322052836" lon="11.944963037967682">
        <ele>1790.5899999999999</ele>
        <time>2017-07-06T08:38:24Z</time>
      </trkpt>
      <trkpt lat="46.174723226577044" lon="11.944966223090887">
        <ele>1791.55</ele>
        <time>2017-07-06T08:38:34Z</time>
      </trkpt>
      <trkpt lat="46.174677880480886" lon="11.944939652457833">
        <ele>1793</ele>
        <time>2017-07-06T08:38:49Z</time>
      </trkpt>
      <trkpt lat="46.174660362303257" lon="11.944925403222442">
        <ele>1792.52</ele>
        <time>2017-07-06T08:39:07Z</time>
      </trkpt>
      <trkpt lat="46.174688944593072" lon="11.944949124008417">
        <ele>1792.52</ele>
        <time>2017-07-06T08:39:21Z</time>
      </trkpt>
      <trkpt lat="46.174620632082224" lon="11.944911740720272">
        <ele>1791.55</ele>
        <time>2017-07-06T08:39:32Z</time>
      </trkpt>
      <trkpt lat="46.174569251015782" lon="11.944849127903581">
        <ele>1789.6300000000001</ele>
        <time>2017-07-06T08:39:42Z</time>
      </trkpt>
      <trkpt lat="46.174564221873879" lon="11.944853821769357">
        <ele>1789.6300000000001</ele>
        <time>2017-07-06T08:39:43Z</time>
      </trkpt>
      <trkpt lat="46.174495322629809" lon="11.944795232266188">
        <ele>1789.1500000000001</ele>
        <time>2017-07-06T08:39:54Z</time>
      </trkpt>
      <trkpt lat="46.174478894099593" lon="11.944772517308593">
        <ele>1789.1500000000001</ele>
        <time>2017-07-06T08:40:04Z</time>
      </trkpt>
      <trkpt lat="46.174461375921965" lon="11.94477285258472">
        <ele>1789.1500000000001</ele>
        <time>2017-07-06T08:40:11Z</time>
      </trkpt>
      <trkpt lat="46.174430111423135" lon="11.944778803735971">
        <ele>1789.1500000000001</ele>
        <time>2017-07-06T08:40:19Z</time>
      </trkpt>
      <trkpt lat="46.174407480284572" lon="11.944829178974032">
        <ele>1789.1500000000001</ele>
        <time>2017-07-06T08:40:28Z</time>
      </trkpt>
      <trkpt lat="46.174382334575057" lon="11.9448515586555">
        <ele>1790.5899999999999</ele>
        <time>2017-07-06T08:40:38Z</time>
      </trkpt>
      <trkpt lat="46.174359284341335" lon="11.944816019386053">
        <ele>1791.55</ele>
        <time>2017-07-06T08:40:49Z</time>
      </trkpt>
      <trkpt lat="46.174384681507945" lon="11.944808643311262">
        <ele>1792.03</ele>
        <time>2017-07-06T08:40:57Z</time>
      </trkpt>
      <trkpt lat="46.174381664022803" lon="11.944844098761678">
        <ele>1792.52</ele>
        <time>2017-07-06T08:41:05Z</time>
      </trkpt>
      <trkpt lat="46.174343526363373" lon="11.9448256585747">
        <ele>1793.96</ele>
        <time>2017-07-06T08:41:17Z</time>
      </trkpt>
      <trkpt lat="46.174320224672556" lon="11.944840494543314">
        <ele>1794.9200000000001</ele>
        <time>2017-07-06T08:41:26Z</time>
      </trkpt>
      <trkpt lat="46.174283176660538" lon="11.944833789020777">
        <ele>1796.3599999999999</ele>
        <time>2017-07-06T08:41:37Z</time>
      </trkpt>
      <trkpt lat="46.174260377883911" lon="11.944831358268857">
        <ele>1797.3199999999999</ele>
        <time>2017-07-06T08:41:47Z</time>
      </trkpt>
      <trkpt lat="46.174247385933995" lon="11.944800261408091">
        <ele>1798.76</ele>
        <time>2017-07-06T08:41:56Z</time>
      </trkpt>
      <trkpt lat="46.174238165840507" lon="11.944849798455834">
        <ele>1799.24</ele>
        <time>2017-07-06T08:42:05Z</time>
      </trkpt>
      <trkpt lat="46.174249229952693" lon="11.944862538948655">
        <ele>1800.6900000000001</ele>
        <time>2017-07-06T08:42:15Z</time>
      </trkpt>
      <trkpt lat="46.174251828342676" lon="11.944893971085548">
        <ele>1801.6500000000001</ele>
        <time>2017-07-06T08:42:24Z</time>
      </trkpt>
      <trkpt lat="46.174229616299272" lon="11.944900676608086">
        <ele>1802.6099999999999</ele>
        <time>2017-07-06T08:42:35Z</time>
      </trkpt>
      <trkpt lat="46.174197178333998" lon="11.944940071552992">
        <ele>1803.0899999999999</ele>
        <time>2017-07-06T08:42:45Z</time>
      </trkpt>
      <trkpt lat="46.174178319051862" lon="11.944979717954993">
        <ele>1804.05</ele>
        <time>2017-07-06T08:42:54Z</time>
      </trkpt>
      <trkpt lat="46.174168596044183" lon="11.944970330223441">
        <ele>1805.01</ele>
        <time>2017-07-06T08:43:05Z</time>
      </trkpt>
      <trkpt lat="46.1741435341537" lon="11.944932192564011">
        <ele>1805.97</ele>
        <time>2017-07-06T08:43:18Z</time>
      </trkpt>
      <trkpt lat="46.174097266048193" lon="11.94489162415266">
        <ele>1806.9400000000001</ele>
        <time>2017-07-06T08:43:34Z</time>
      </trkpt>
      <trkpt lat="46.174096763134003" lon="11.944870753213763">
        <ele>1808.3800000000001</ele>
        <time>2017-07-06T08:43:49Z</time>
      </trkpt>
      <trkpt lat="46.174084777012467" lon="11.944862538948655">
        <ele>1809.8199999999999</ele>
        <time>2017-07-06T08:43:57Z</time>
      </trkpt>
      <trkpt lat="46.174108581617475" lon="11.94495071657002">
        <ele>1810.3</ele>
        <time>2017-07-06T08:44:06Z</time>
      </trkpt>
      <trkpt lat="46.174096763134003" lon="11.945008048787713">
        <ele>1811.74</ele>
        <time>2017-07-06T08:44:17Z</time>
      </trkpt>
      <trkpt lat="46.174088548868895" lon="11.94506504572928">
        <ele>1812.22</ele>
        <time>2017-07-06T08:44:28Z</time>
      </trkpt>
      <trkpt lat="46.174064492806792" lon="11.945071164518595">
        <ele>1813.6600000000001</ele>
        <time>2017-07-06T08:44:38Z</time>
      </trkpt>
      <trkpt lat="46.174052506685257" lon="11.945076445117593">
        <ele>1814.1500000000001</ele>
        <time>2017-07-06T08:44:47Z</time>
      </trkpt>
      <trkpt lat="46.174057284370065" lon="11.945074265822768">
        <ele>1814.1500000000001</ele>
        <time>2017-07-06T08:45:01Z</time>
      </trkpt>
      <trkpt lat="46.174038425087929" lon="11.945091197267175">
        <ele>1814.6300000000001</ele>
        <time>2017-07-06T08:45:11Z</time>
      </trkpt>
      <trkpt lat="46.174016129225492" lon="11.945085329934955">
        <ele>1815.5899999999999</ele>
        <time>2017-07-06T08:45:20Z</time>
      </trkpt>
      <trkpt lat="46.174011016264558" lon="11.94511441513896">
        <ele>1816.55</ele>
        <time>2017-07-06T08:45:29Z</time>
      </trkpt>
      <trkpt lat="46.174001460894942" lon="11.945157079026103">
        <ele>1817.51</ele>
        <time>2017-07-06T08:45:40Z</time>
      </trkpt>
      <trkpt lat="46.173991821706295" lon="11.945187924429774">
        <ele>1818.47</ele>
        <time>2017-07-06T08:45:48Z</time>
      </trkpt>
      <trkpt lat="46.174009339883924" lon="11.945229582488537">
        <ele>1818.95</ele>
        <time>2017-07-06T08:46:01Z</time>
      </trkpt>
      <trkpt lat="46.173997269943357" lon="11.945225642994046">
        <ele>1820.3900000000001</ele>
        <time>2017-07-06T08:46:10Z</time>
      </trkpt>
      <trkpt lat="46.173996850848198" lon="11.945201754570007">
        <ele>1822.3199999999999</ele>
        <time>2017-07-06T08:46:21Z</time>
      </trkpt>
      <trkpt lat="46.174000706523657" lon="11.945228073745966">
        <ele>1822.3199999999999</ele>
        <time>2017-07-06T08:46:29Z</time>
      </trkpt>
      <trkpt lat="46.173984026536345" lon="11.945256320759654">
        <ele>1823.28</ele>
        <time>2017-07-06T08:46:38Z</time>
      </trkpt>
      <trkpt lat="46.173967681825161" lon="11.945263361558318">
        <ele>1824.72</ele>
        <time>2017-07-06T08:46:47Z</time>
      </trkpt>
      <trkpt lat="46.173964748159051" lon="11.945276856422424">
        <ele>1825.2</ele>
        <time>2017-07-06T08:47:03Z</time>
      </trkpt>
      <trkpt lat="46.173971369862556" lon="11.94530988112092">
        <ele>1826.6400000000001</ele>
        <time>2017-07-06T08:47:11Z</time>
      </trkpt>
      <trkpt lat="46.17395200766623" lon="11.945329746231437">
        <ele>1827.1199999999999</ele>
        <time>2017-07-06T08:47:20Z</time>
      </trkpt>
      <trkpt lat="46.173908170312643" lon="11.945353550836444">
        <ele>1829.53</ele>
        <time>2017-07-06T08:47:29Z</time>
      </trkpt>
      <trkpt lat="46.173869445919991" lon="11.945306360721588">
        <ele>1829.05</ele>
        <time>2017-07-06T08:47:49Z</time>
      </trkpt>
      <trkpt lat="46.173873469233513" lon="11.945393783971667">
        <ele>1830.01</ele>
        <time>2017-07-06T08:48:04Z</time>
      </trkpt>
      <trkpt lat="46.173929376527667" lon="11.945426557213068">
        <ele>1830.97</ele>
        <time>2017-07-06T08:48:13Z</time>
      </trkpt>
      <trkpt lat="46.173928454518318" lon="11.94545648060739">
        <ele>1832.4100000000001</ele>
        <time>2017-07-06T08:48:21Z</time>
      </trkpt>
      <trkpt lat="46.173909427598119" lon="11.945502581074834">
        <ele>1834.3299999999999</ele>
        <time>2017-07-06T08:48:31Z</time>
      </trkpt>
      <trkpt lat="46.173877408728004" lon="11.945461425930262">
        <ele>1835.29</ele>
        <time>2017-07-06T08:48:38Z</time>
      </trkpt>
      <trkpt lat="46.173851760104299" lon="11.945478189736605">
        <ele>1835.77</ele>
        <time>2017-07-06T08:48:53Z</time>
      </trkpt>
      <trkpt lat="46.173830050975084" lon="11.945483470335603">
        <ele>1837.22</ele>
        <time>2017-07-06T08:49:05Z</time>
      </trkpt>
      <trkpt lat="46.173803061246872" lon="11.945496462285519">
        <ele>1837.22</ele>
        <time>2017-07-06T08:49:21Z</time>
      </trkpt>
      <trkpt lat="46.173787135630846" lon="11.945500820875168">
        <ele>1838.6600000000001</ele>
        <time>2017-07-06T08:49:26Z</time>
      </trkpt>
      <trkpt lat="46.173769701272249" lon="11.945565529167652">
        <ele>1841.0599999999999</ele>
        <time>2017-07-06T08:49:38Z</time>
      </trkpt>
      <trkpt lat="46.173761654645205" lon="11.94564851000905">
        <ele>1842.5</ele>
        <time>2017-07-06T08:49:50Z</time>
      </trkpt>
      <trkpt lat="46.173747237771749" lon="11.945672649890184">
        <ele>1842.98</ele>
        <time>2017-07-06T08:50:02Z</time>
      </trkpt>
      <trkpt lat="46.173720834776759" lon="11.945702321827412">
        <ele>1844.9100000000001</ele>
        <time>2017-07-06T08:50:13Z</time>
      </trkpt>
      <trkpt lat="46.17370868101716" lon="11.945715565234423">
        <ele>1846.3499999999999</ele>
        <time>2017-07-06T08:50:22Z</time>
      </trkpt>
      <trkpt lat="46.173710022121668" lon="11.945731155574322">
        <ele>1847.3099999999999</ele>
        <time>2017-07-06T08:50:33Z</time>
      </trkpt>
      <trkpt lat="46.17368571460247" lon="11.945739788934588">
        <ele>1848.75</ele>
        <time>2017-07-06T08:50:44Z</time>
      </trkpt>
      <trkpt lat="46.173687558621168" lon="11.945778848603368">
        <ele>1850.1900000000001</ele>
        <time>2017-07-06T08:50:55Z</time>
      </trkpt>
      <trkpt lat="46.173692168667912" lon="11.945797707885504">
        <ele>1850.1900000000001</ele>
        <time>2017-07-06T08:50:58Z</time>
      </trkpt>
      <trkpt lat="46.173654533922672" lon="11.945783207193017">
        <ele>1850.6800000000001</ele>
        <time>2017-07-06T08:51:08Z</time>
      </trkpt>
      <trkpt lat="46.173632405698299" lon="11.945793014019728">
        <ele>1851.1600000000001</ele>
        <time>2017-07-06T08:51:26Z</time>
      </trkpt>
      <trkpt lat="46.173645230010152" lon="11.945815728977323">
        <ele>1852.5999999999999</ele>
        <time>2017-07-06T08:51:36Z</time>
      </trkpt>
      <trkpt lat="46.173619581386447" lon="11.945808688178658">
        <ele>1852.5999999999999</ele>
        <time>2017-07-06T08:51:48Z</time>
      </trkpt>
      <trkpt lat="46.173595190048218" lon="11.945790750905871">
        <ele>1854.04</ele>
        <time>2017-07-06T08:51:57Z</time>
      </trkpt>
      <trkpt lat="46.173617234453559" lon="11.9457789324224">
        <ele>1855.48</ele>
        <time>2017-07-06T08:52:09Z</time>
      </trkpt>
      <trkpt lat="46.173634584993124" lon="11.945752361789346">
        <ele>1855.48</ele>
        <time>2017-07-06T08:52:27Z</time>
      </trkpt>
      <trkpt lat="46.173632321879268" lon="11.945770801976323">
        <ele>1855.96</ele>
        <time>2017-07-06T08:52:39Z</time>
      </trkpt>
      <trkpt lat="46.173583874478936" lon="11.945801479741931">
        <ele>1857.4000000000001</ele>
        <time>2017-07-06T08:52:51Z</time>
      </trkpt>
      <trkpt lat="46.173556884750724" lon="11.945802066475153">
        <ele>1859.3299999999999</ele>
        <time>2017-07-06T08:53:03Z</time>
      </trkpt>
      <trkpt lat="46.17357817478478" lon="11.94580533541739">
        <ele>1860.29</ele>
        <time>2017-07-06T08:53:13Z</time>
      </trkpt>
      <trkpt lat="46.173597285524011" lon="11.9458341691643">
        <ele>1860.77</ele>
        <time>2017-07-06T08:53:27Z</time>
      </trkpt>
      <trkpt lat="46.173560572788119" lon="11.945809191092849">
        <ele>1862.6900000000001</ele>
        <time>2017-07-06T08:53:37Z</time>
      </trkpt>
      <trkpt lat="46.17354791611433" lon="11.945779100060463">
        <ele>1862.21</ele>
        <time>2017-07-06T08:53:48Z</time>
      </trkpt>
      <trkpt lat="46.17351271212101" lon="11.945789493620396">
        <ele>1862.6900000000001</ele>
        <time>2017-07-06T08:53:59Z</time>
      </trkpt>
      <trkpt lat="46.173499552533031" lon="11.945772645995021">
        <ele>1862.6900000000001</ele>
        <time>2017-07-06T08:54:13Z</time>
      </trkpt>
      <trkpt lat="46.173519836738706" lon="11.94581707008183">
        <ele>1863.1700000000001</ele>
        <time>2017-07-06T08:54:28Z</time>
      </trkpt>
      <trkpt lat="46.173513047397137" lon="11.945797288790345">
        <ele>1863.1700000000001</ele>
        <time>2017-07-06T08:54:41Z</time>
      </trkpt>
      <trkpt lat="46.173488069325686" lon="11.945836348459125">
        <ele>1862.21</ele>
        <time>2017-07-06T08:54:53Z</time>
      </trkpt>
      <trkpt lat="46.173488153144717" lon="11.945881778374314">
        <ele>1860.77</ele>
        <time>2017-07-06T08:55:06Z</time>
      </trkpt>
      <trkpt lat="46.173448171466589" lon="11.945871468633413">
        <ele>1860.29</ele>
        <time>2017-07-06T08:55:16Z</time>
      </trkpt>
      <trkpt lat="46.173431994393468" lon="11.94591673091054">
        <ele>1860.77</ele>
        <time>2017-07-06T08:55:27Z</time>
      </trkpt>
      <trkpt lat="46.173419756814837" lon="11.945967106148601">
        <ele>1862.21</ele>
        <time>2017-07-06T08:55:35Z</time>
      </trkpt>
      <trkpt lat="46.173418834805489" lon="11.945916060358286">
        <ele>1862.21</ele>
        <time>2017-07-06T08:55:46Z</time>
      </trkpt>
      <trkpt lat="46.17341011762619" lon="11.945931818336248">
        <ele>1862.6900000000001</ele>
        <time>2017-07-06T08:56:00Z</time>
      </trkpt>
      <trkpt lat="46.173397544771433" lon="11.945910947397351">
        <ele>1863.1700000000001</ele>
        <time>2017-07-06T08:56:08Z</time>
      </trkpt>
      <trkpt lat="46.173379942774773" lon="11.945918407291174">
        <ele>1863.1700000000001</ele>
        <time>2017-07-06T08:56:23Z</time>
      </trkpt>
      <trkpt lat="46.173409614712" lon="11.945937434211373">
        <ele>1863.1700000000001</ele>
        <time>2017-07-06T08:56:38Z</time>
      </trkpt>
      <trkpt lat="46.17340475320816" lon="11.945941876620054">
        <ele>1863.1700000000001</ele>
        <time>2017-07-06T08:57:02Z</time>
      </trkpt>
      <trkpt lat="46.173403579741716" lon="11.945935757830739">
        <ele>1863.6500000000001</ele>
        <time>2017-07-06T08:57:26Z</time>
      </trkpt>
      <trkpt lat="46.173410955816507" lon="11.945964591577649">
        <ele>1863.6500000000001</ele>
        <time>2017-07-06T08:57:51Z</time>
      </trkpt>
      <trkpt lat="46.173416739329696" lon="11.945958388969302">
        <ele>1863.6500000000001</ele>
        <time>2017-07-06T08:58:09Z</time>
      </trkpt>
      <trkpt lat="46.173393437638879" lon="11.945940870791674">
        <ele>1863.6500000000001</ele>
        <time>2017-07-06T08:58:25Z</time>
      </trkpt>
      <trkpt lat="46.173395533114672" lon="11.945943050086498">
        <ele>1863.6500000000001</ele>
        <time>2017-07-06T08:58:37Z</time>
      </trkpt>
      <trkpt lat="46.173396036028862" lon="11.945954617112875">
        <ele>1864.1300000000001</ele>
        <time>2017-07-06T08:58:54Z</time>
      </trkpt>
      <trkpt lat="46.173405507579446" lon="11.945941708981991">
        <ele>1863.6500000000001</ele>
        <time>2017-07-06T08:59:18Z</time>
      </trkpt>
      <trkpt lat="46.173435933887959" lon="11.945906337350607">
        <ele>1864.1300000000001</ele>
        <time>2017-07-06T08:59:37Z</time>
      </trkpt>
      <trkpt lat="46.173449847847223" lon="11.945938859134912">
        <ele>1864.1300000000001</ele>
        <time>2017-07-06T08:59:58Z</time>
      </trkpt>
      <trkpt lat="46.173466946929693" lon="11.945943385362625">
        <ele>1864.6099999999999</ele>
        <time>2017-07-06T09:00:11Z</time>
      </trkpt>
      <trkpt lat="46.173426378518343" lon="11.945956712588668">
        <ele>1865.0899999999999</ele>
        <time>2017-07-06T09:00:20Z</time>
      </trkpt>
      <trkpt lat="46.173388240858912" lon="11.945980349555612">
        <ele>1865.0899999999999</ele>
        <time>2017-07-06T09:00:33Z</time>
      </trkpt>
      <trkpt lat="46.173354629427195" lon="11.946002058684826">
        <ele>1865.5799999999999</ele>
        <time>2017-07-06T09:00:42Z</time>
      </trkpt>
      <trkpt lat="46.173326466232538" lon="11.946025192737579">
        <ele>1866.0599999999999</ele>
        <time>2017-07-06T09:00:54Z</time>
      </trkpt>
      <trkpt lat="46.173330908641219" lon="11.946013206616044">
        <ele>1866.54</ele>
        <time>2017-07-06T09:01:07Z</time>
      </trkpt>
      <trkpt lat="46.173319760710001" lon="11.946043549105525">
        <ele>1865.5799999999999</ele>
        <time>2017-07-06T09:01:17Z</time>
      </trkpt>
      <trkpt lat="46.173460073769093" lon="11.945933327078819">
        <ele>1865.5799999999999</ele>
        <time>2017-07-06T09:01:31Z</time>
      </trkpt>
      <trkpt lat="46.173466192558408" lon="11.946131223812699">
        <ele>1865.0899999999999</ele>
        <time>2017-07-06T09:01:44Z</time>
      </trkpt>
      <trkpt lat="46.173464683815837" lon="11.946083111688495">
        <ele>1865.0899999999999</ele>
        <time>2017-07-06T09:01:48Z</time>
      </trkpt>
      <trkpt lat="46.173420259729028" lon="11.945986300706863">
        <ele>1864.6099999999999</ele>
        <time>2017-07-06T09:01:57Z</time>
      </trkpt>
      <trkpt lat="46.173356389626861" lon="11.945912539958954">
        <ele>1865.0899999999999</ele>
        <time>2017-07-06T09:02:10Z</time>
      </trkpt>
      <trkpt lat="46.173351528123021" lon="11.945923520252109">
        <ele>1864.6099999999999</ele>
        <time>2017-07-06T09:02:24Z</time>
      </trkpt>
      <trkpt lat="46.173347001895308" lon="11.945924526080489">
        <ele>1865.0899999999999</ele>
        <time>2017-07-06T09:02:38Z</time>
      </trkpt>
      <trkpt lat="46.173336692154408" lon="11.946090906858444">
        <ele>1864.6099999999999</ele>
        <time>2017-07-06T09:02:52Z</time>
      </trkpt>
      <trkpt lat="46.173270307481289" lon="11.946189645677805">
        <ele>1864.6099999999999</ele>
        <time>2017-07-06T09:03:09Z</time>
      </trkpt>
      <trkpt lat="46.173202246427536" lon="11.946176066994667">
        <ele>1866.0599999999999</ele>
        <time>2017-07-06T09:03:19Z</time>
      </trkpt>
      <trkpt lat="46.173170814290643" lon="11.946209007874131">
        <ele>1866.0599999999999</ele>
        <time>2017-07-06T09:03:35Z</time>
      </trkpt>
      <trkpt lat="46.17309445515275" lon="11.94623532705009">
        <ele>1867.02</ele>
        <time>2017-07-06T09:03:48Z</time>
      </trkpt>
      <trkpt lat="46.173013569787145" lon="11.946307746693492">
        <ele>1867.98</ele>
        <time>2017-07-06T09:03:59Z</time>
      </trkpt>
      <trkpt lat="46.172946263104677" lon="11.946334065869451">
        <ele>1867.98</ele>
        <time>2017-07-06T09:04:04Z</time>
      </trkpt>
      <trkpt lat="46.172842914238572" lon="11.946353847160935">
        <ele>1867.98</ele>
        <time>2017-07-06T09:04:05Z</time>
      </trkpt>
      <trkpt lat="46.172757586464286" lon="11.946406485512853">
        <ele>1868.9400000000001</ele>
        <time>2017-07-06T09:04:13Z</time>
      </trkpt>
      <trkpt lat="46.172667732462287" lon="11.946426266804338">
        <ele>1870.3800000000001</ele>
        <time>2017-07-06T09:04:24Z</time>
      </trkpt>
      <trkpt lat="46.172552900388837" lon="11.94642542861402">
        <ele>1905.47</ele>
        <time>2017-07-06T09:15:09Z</time>
      </trkpt>
      <trkpt lat="46.172558683902025" lon="11.946441689506173">
        <ele>1905.47</ele>
        <time>2017-07-06T09:15:19Z</time>
      </trkpt>
      <trkpt lat="46.172543177381158" lon="11.946449233219028">
        <ele>1904.99</ele>
        <time>2017-07-06T09:15:27Z</time>
      </trkpt>
      <trkpt lat="46.172531694173813" lon="11.946490723639727">
        <ele>1904.51</ele>
        <time>2017-07-06T09:15:30Z</time>
      </trkpt>
      <trkpt lat="46.172539573162794" lon="11.946557275950909">
        <ele>1904.99</ele>
        <time>2017-07-06T09:15:35Z</time>
      </trkpt>
      <trkpt lat="46.172549212351441" lon="11.946620643138885">
        <ele>1905.47</ele>
        <time>2017-07-06T09:15:42Z</time>
      </trkpt>
      <trkpt lat="46.172540998086333" lon="11.946625085547566">
        <ele>1904.51</ele>
        <time>2017-07-06T09:15:52Z</time>
      </trkpt>
      <trkpt lat="46.172560276463628" lon="11.946640927344561">
        <ele>1904.51</ele>
        <time>2017-07-06T09:16:03Z</time>
      </trkpt>
      <trkpt lat="46.172545859590173" lon="11.946643944829702">
        <ele>1904.03</ele>
        <time>2017-07-06T09:16:15Z</time>
      </trkpt>
      <trkpt lat="46.172475032508373" lon="11.946654170751572">
        <ele>1905.95</ele>
        <time>2017-07-06T09:16:24Z</time>
      </trkpt>
      <trkpt lat="46.172476625069976" lon="11.946711000055075">
        <ele>1907.3900000000001</ele>
        <time>2017-07-06T09:16:31Z</time>
      </trkpt>
      <trkpt lat="46.172458939254284" lon="11.946757351979613">
        <ele>1908.8299999999999</ele>
        <time>2017-07-06T09:16:40Z</time>
      </trkpt>
      <trkpt lat="46.172465644776821" lon="11.946810996159911">
        <ele>1909.3199999999999</ele>
        <time>2017-07-06T09:16:48Z</time>
      </trkpt>
      <trkpt lat="46.172501435503364" lon="11.946846367791295">
        <ele>1910.28</ele>
        <time>2017-07-06T09:17:01Z</time>
      </trkpt>
      <trkpt lat="46.172501435503364" lon="11.946914009749889">
        <ele>1912.2</ele>
        <time>2017-07-06T09:17:12Z</time>
      </trkpt>
      <trkpt lat="46.172511577606201" lon="11.946993386372924">
        <ele>1911.72</ele>
        <time>2017-07-06T09:17:22Z</time>
      </trkpt>
      <trkpt lat="46.172534627839923" lon="11.947051305323839">
        <ele>1913.6400000000001</ele>
        <time>2017-07-06T09:17:34Z</time>
      </trkpt>
      <trkpt lat="46.172541752457619" lon="11.947098411619663">
        <ele>1914.5999999999999</ele>
        <time>2017-07-06T09:17:44Z</time>
      </trkpt>
      <trkpt lat="46.172539992257953" lon="11.94712514989078">
        <ele>1916.53</ele>
        <time>2017-07-06T09:17:54Z</time>
      </trkpt>
      <trkpt lat="46.17254083044827" lon="11.947169238701463">
        <ele>1917.97</ele>
        <time>2017-07-06T09:18:07Z</time>
      </trkpt>
      <trkpt lat="46.172545524314046" lon="11.947214668616652">
        <ele>1919.4100000000001</ele>
        <time>2017-07-06T09:18:16Z</time>
      </trkpt>
      <trkpt lat="46.172542925924063" lon="11.947229085490108">
        <ele>1920.8499999999999</ele>
        <time>2017-07-06T09:18:26Z</time>
      </trkpt>
      <trkpt lat="46.172537645325065" lon="11.947258254513144">
        <ele>1921.8099999999999</ele>
        <time>2017-07-06T09:18:34Z</time>
      </trkpt>
      <trkpt lat="46.172514678910375" lon="11.947299744933844">
        <ele>1923.25</ele>
        <time>2017-07-06T09:18:44Z</time>
      </trkpt>
      <trkpt lat="46.172492802143097" lon="11.947361268103123">
        <ele>1923.74</ele>
        <time>2017-07-06T09:18:53Z</time>
      </trkpt>
      <trkpt lat="46.172501100227237" lon="11.947388341650367">
        <ele>1924.7</ele>
        <time>2017-07-06T09:19:03Z</time>
      </trkpt>
      <trkpt lat="46.172500010579824" lon="11.947416504845023">
        <ele>1925.6600000000001</ele>
        <time>2017-07-06T09:19:11Z</time>
      </trkpt>
      <trkpt lat="46.172488695010543" lon="11.947435112670064">
        <ele>1926.6199999999999</ele>
        <time>2017-07-06T09:19:21Z</time>
      </trkpt>
      <trkpt lat="46.172494729980826" lon="11.947447936981916">
        <ele>1927.0999999999999</ele>
        <time>2017-07-06T09:19:31Z</time>
      </trkpt>
      <trkpt lat="46.172460783272982" lon="11.947520775720477">
        <ele>1929.02</ele>
        <time>2017-07-06T09:19:42Z</time>
      </trkpt>
      <trkpt lat="46.172456424683332" lon="11.947525721043348">
        <ele>1929.98</ele>
        <time>2017-07-06T09:19:52Z</time>
      </trkpt>
      <trkpt lat="46.172431278973818" lon="11.947524379938841">
        <ele>1930.46</ele>
        <time>2017-07-06T09:20:03Z</time>
      </trkpt>
      <trkpt lat="46.172435469925404" lon="11.947535863146186">
        <ele>1930.95</ele>
        <time>2017-07-06T09:20:16Z</time>
      </trkpt>
      <trkpt lat="46.172431446611881" lon="11.947566792368889">
        <ele>1931.9100000000001</ele>
        <time>2017-07-06T09:20:24Z</time>
      </trkpt>
      <trkpt lat="46.172424489632249" lon="11.947590513154864">
        <ele>1932.8699999999999</ele>
        <time>2017-07-06T09:20:30Z</time>
      </trkpt>
      <trkpt lat="46.172411749139428" lon="11.947618843987584">
        <ele>1934.3099999999999</ele>
        <time>2017-07-06T09:20:39Z</time>
      </trkpt>
      <trkpt lat="46.17243873886764" lon="11.947667794302106">
        <ele>1935.27</ele>
        <time>2017-07-06T09:20:50Z</time>
      </trkpt>
      <trkpt lat="46.17244653403759" lon="11.947660082951188">
        <ele>1935.75</ele>
        <time>2017-07-06T09:21:02Z</time>
      </trkpt>
      <trkpt lat="46.172441001981497" lon="11.947681959718466">
        <ele>1936.71</ele>
        <time>2017-07-06T09:21:14Z</time>
      </trkpt>
      <trkpt lat="46.172430776059628" lon="11.947698388248682">
        <ele>1937.6700000000001</ele>
        <time>2017-07-06T09:21:22Z</time>
      </trkpt>
      <trkpt lat="46.17243773303926" lon="11.947718588635325">
        <ele>1938.6400000000001</ele>
        <time>2017-07-06T09:21:32Z</time>
      </trkpt>
      <trkpt lat="46.172466399148107" lon="11.947745494544506">
        <ele>1939.1199999999999</ele>
        <time>2017-07-06T09:21:42Z</time>
      </trkpt>
      <trkpt lat="46.172514427453279" lon="11.947756558656693">
        <ele>1940.5599999999999</ele>
        <time>2017-07-06T09:21:53Z</time>
      </trkpt>
      <trkpt lat="46.172556756064296" lon="11.947781788185239">
        <ele>1941.52</ele>
        <time>2017-07-06T09:21:58Z</time>
      </trkpt>
      <trkpt lat="46.172591876238585" lon="11.947828978300095">
        <ele>1942</ele>
        <time>2017-07-06T09:22:07Z</time>
      </trkpt>
      <trkpt lat="46.172594055533409" lon="11.947786984965205">
        <ele>1942</ele>
        <time>2017-07-06T09:22:18Z</time>
      </trkpt>
      <trkpt lat="46.172632277011871" lon="11.947813639417291">
        <ele>1942.48</ele>
        <time>2017-07-06T09:22:34Z</time>
      </trkpt>
      <trkpt lat="46.172614675015211" lon="11.947933835908771">
        <ele>1942.96</ele>
        <time>2017-07-06T09:22:43Z</time>
      </trkpt>
      <trkpt lat="46.17261316627264" lon="11.947962585836649">
        <ele>1942.96</ele>
        <time>2017-07-06T09:22:46Z</time>
      </trkpt>
      <trkpt lat="46.172628253698349" lon="11.948070377111435">
        <ele>1942.48</ele>
        <time>2017-07-06T09:22:57Z</time>
      </trkpt>
      <trkpt lat="46.172610651701689" lon="11.948126200586557">
        <ele>1942.96</ele>
        <time>2017-07-06T09:23:06Z</time>
      </trkpt>
      <trkpt lat="46.172591960057616" lon="11.94815075956285">
        <ele>1943.4400000000001</ele>
        <time>2017-07-06T09:23:13Z</time>
      </trkpt>
      <trkpt lat="46.172556420788169" lon="11.948187807574868">
        <ele>1943.4400000000001</ele>
        <time>2017-07-06T09:23:22Z</time>
      </trkpt>
      <trkpt lat="46.172557342797518" lon="11.948194764554501">
        <ele>1943.9200000000001</ele>
        <time>2017-07-06T09:23:27Z</time>
      </trkpt>
      <trkpt lat="46.172543680295348" lon="11.948193842545152">
        <ele>1943.9200000000001</ele>
        <time>2017-07-06T09:23:29Z</time>
      </trkpt>
      <trkpt lat="46.172540662810206" lon="11.948209181427956">
        <ele>1945.3599999999999</ele>
        <time>2017-07-06T09:23:37Z</time>
      </trkpt>
      <trkpt lat="46.172588439658284" lon="11.948286211118102">
        <ele>1946.3299999999999</ele>
        <time>2017-07-06T09:23:49Z</time>
      </trkpt>
      <trkpt lat="46.172596570104361" lon="11.948375981301069">
        <ele>1947.77</ele>
        <time>2017-07-06T09:24:00Z</time>
      </trkpt>
      <trkpt lat="46.172606376931071" lon="11.948448736220598">
        <ele>1948.73</ele>
        <time>2017-07-06T09:24:13Z</time>
      </trkpt>
      <trkpt lat="46.172573352232575" lon="11.948489723727107">
        <ele>1950.1700000000001</ele>
        <time>2017-07-06T09:24:23Z</time>
      </trkpt>
      <trkpt lat="46.172546446323395" lon="11.948518892750144">
        <ele>1951.1300000000001</ele>
        <time>2017-07-06T09:24:32Z</time>
      </trkpt>
      <trkpt lat="46.17256136611104" lon="11.94856021553278">
        <ele>1953.0599999999999</ele>
        <time>2017-07-06T09:24:43Z</time>
      </trkpt>
      <trkpt lat="46.172550385817885" lon="11.948636909946799">
        <ele>1953.54</ele>
        <time>2017-07-06T09:24:54Z</time>
      </trkpt>
      <trkpt lat="46.172529766336083" lon="11.948700025677681">
        <ele>1954.98</ele>
        <time>2017-07-06T09:25:07Z</time>
      </trkpt>
      <trkpt lat="46.172509230673313" lon="11.948743192479014">
        <ele>1956.4200000000001</ele>
        <time>2017-07-06T09:25:19Z</time>
      </trkpt>
      <trkpt lat="46.172504452988505" lon="11.948768254369497">
        <ele>1957.8599999999999</ele>
        <time>2017-07-06T09:25:30Z</time>
      </trkpt>
      <trkpt lat="46.172496238723397" lon="11.94880647584796">
        <ele>1958.3399999999999</ele>
        <time>2017-07-06T09:25:39Z</time>
      </trkpt>
      <trkpt lat="46.172493640333414" lon="11.948864730075002">
        <ele>1960.75</ele>
        <time>2017-07-06T09:25:54Z</time>
      </trkpt>
      <trkpt lat="46.172461956739426" lon="11.948832208290696">
        <ele>1961.71</ele>
        <time>2017-07-06T09:26:04Z</time>
      </trkpt>
      <trkpt lat="46.172437062487006" lon="11.948839500546455">
        <ele>1962.6700000000001</ele>
        <time>2017-07-06T09:26:15Z</time>
      </trkpt>
      <trkpt lat="46.172412671148777" lon="11.948824245482683">
        <ele>1964.1099999999999</ele>
        <time>2017-07-06T09:26:24Z</time>
      </trkpt>
      <trkpt lat="46.172311585396528" lon="11.948768589645624">
        <ele>1965.0699999999999</ele>
        <time>2017-07-06T09:26:35Z</time>
      </trkpt>
      <trkpt lat="46.172291468828917" lon="11.948704048991203">
        <ele>1966.99</ele>
        <time>2017-07-06T09:26:47Z</time>
      </trkpt>
      <trkpt lat="46.172257103025913" lon="11.948678651824594">
        <ele>1967.96</ele>
        <time>2017-07-06T09:27:01Z</time>
      </trkpt>
      <trkpt lat="46.172248553484678" lon="11.948657026514411">
        <ele>1969.4000000000001</ele>
        <time>2017-07-06T09:27:11Z</time>
      </trkpt>
      <trkpt lat="46.172216199338436" lon="11.948613692075014">
        <ele>1970.8399999999999</ele>
        <time>2017-07-06T09:27:23Z</time>
      </trkpt>
      <trkpt lat="46.172206895425916" lon="11.948586702346802">
        <ele>1970.8399999999999</ele>
        <time>2017-07-06T09:27:36Z</time>
      </trkpt>
      <trkpt lat="46.172208655625582" lon="11.948592318221927">
        <ele>1971.3199999999999</ele>
        <time>2017-07-06T09:27:52Z</time>
      </trkpt>
      <trkpt lat="46.172179151326418" lon="11.948546636849642">
        <ele>1972.28</ele>
        <time>2017-07-06T09:28:04Z</time>
      </trkpt>
      <trkpt lat="46.172177558764815" lon="11.948477402329445">
        <ele>1974.2</ele>
        <time>2017-07-06T09:28:20Z</time>
      </trkpt>
      <trkpt lat="46.172187449410558" lon="11.948467344045639">
        <ele>1975.6500000000001</ele>
        <time>2017-07-06T09:28:30Z</time>
      </trkpt>
      <trkpt lat="46.172191808000207" lon="11.948488969355822">
        <ele>1976.1300000000001</ele>
        <time>2017-07-06T09:28:46Z</time>
      </trkpt>
      <trkpt lat="46.172185270115733" lon="11.948487292975187">
        <ele>1975.6500000000001</ele>
        <time>2017-07-06T09:28:49Z</time>
      </trkpt>
      <trkpt lat="46.172176217660308" lon="11.948501877486706">
        <ele>1978.05</ele>
        <time>2017-07-06T09:28:58Z</time>
      </trkpt>
      <trkpt lat="46.172151155769825" lon="11.948535069823265">
        <ele>1979.01</ele>
        <time>2017-07-06T09:29:09Z</time>
      </trkpt>
      <trkpt lat="46.172130117192864" lon="11.948504224419594">
        <ele>1979.49</ele>
        <time>2017-07-06T09:29:21Z</time>
      </trkpt>
      <trkpt lat="46.172105222940445" lon="11.948498273268342">
        <ele>1980.45</ele>
        <time>2017-07-06T09:29:32Z</time>
      </trkpt>
      <trkpt lat="46.172064654529095" lon="11.948495926335454">
        <ele>1982.3800000000001</ele>
        <time>2017-07-06T09:29:43Z</time>
      </trkpt>
      <trkpt lat="46.172050656750798" lon="11.948508163914084">
        <ele>1983.3399999999999</ele>
        <time>2017-07-06T09:29:52Z</time>
      </trkpt>
      <trkpt lat="46.172045124694705" lon="11.948542948812246">
        <ele>1985.26</ele>
        <time>2017-07-06T09:30:02Z</time>
      </trkpt>
      <trkpt lat="46.17202777415514" lon="11.948511432856321">
        <ele>1985.26</ele>
        <time>2017-07-06T09:30:14Z</time>
      </trkpt>
      <trkpt lat="46.17199114523828" lon="11.94848058745265">
        <ele>1986.22</ele>
        <time>2017-07-06T09:30:28Z</time>
      </trkpt>
      <trkpt lat="46.171960299834609" lon="11.948495171964169">
        <ele>1987.1800000000001</ele>
        <time>2017-07-06T09:30:38Z</time>
      </trkpt>
      <trkpt lat="46.171957449987531" lon="11.948523167520761">
        <ele>1989.0999999999999</ele>
        <time>2017-07-06T09:30:53Z</time>
      </trkpt>
      <trkpt lat="46.171921072527766" lon="11.948516797274351">
        <ele>1991.03</ele>
        <time>2017-07-06T09:31:05Z</time>
      </trkpt>
      <trkpt lat="46.171930376440287" lon="11.948547977954149">
        <ele>1992.47</ele>
        <time>2017-07-06T09:31:17Z</time>
      </trkpt>
      <trkpt lat="46.171912858262658" lon="11.948563233017921">
        <ele>1992.47</ele>
        <time>2017-07-06T09:31:29Z</time>
      </trkpt>
      <trkpt lat="46.171905566006899" lon="11.948552755638957">
        <ele>1991.99</ele>
        <time>2017-07-06T09:31:39Z</time>
      </trkpt>
      <trkpt lat="46.171889975667" lon="11.948484443128109">
        <ele>1991.99</ele>
        <time>2017-07-06T09:31:50Z</time>
      </trkpt>
      <trkpt lat="46.171885281801224" lon="11.948493327945471">
        <ele>1992.95</ele>
        <time>2017-07-06T09:32:00Z</time>
      </trkpt>
      <trkpt lat="46.171915456652641" lon="11.94853724911809">
        <ele>1993.9100000000001</ele>
        <time>2017-07-06T09:32:08Z</time>
      </trkpt>
      <trkpt lat="46.171897016465664" lon="11.94858125410974">
        <ele>1995.3499999999999</ele>
        <time>2017-07-06T09:32:19Z</time>
      </trkpt>
      <trkpt lat="46.171853933483362" lon="11.948582176119089">
        <ele>1996.8</ele>
        <time>2017-07-06T09:32:29Z</time>
      </trkpt>
      <trkpt lat="46.171843875199556" lon="11.948606316000223">
        <ele>1997.28</ele>
        <time>2017-07-06T09:32:38Z</time>
      </trkpt>
      <trkpt lat="46.171843539923429" lon="11.948630204424262">
        <ele>1998.24</ele>
        <time>2017-07-06T09:32:49Z</time>
      </trkpt>
      <trkpt lat="46.171861980110407" lon="11.948684602975845">
        <ele>2000.1600000000001</ele>
        <time>2017-07-06T09:33:00Z</time>
      </trkpt>
      <trkpt lat="46.171848149970174" lon="11.948699606582522">
        <ele>2001.1199999999999</ele>
        <time>2017-07-06T09:33:14Z</time>
      </trkpt>
      <trkpt lat="46.17180204950273" lon="11.948693403974175">
        <ele>2002.5599999999999</ele>
        <time>2017-07-06T09:33:25Z</time>
      </trkpt>
      <trkpt lat="46.171763744205236" lon="11.948697930201888">
        <ele>2004.01</ele>
        <time>2017-07-06T09:33:34Z</time>
      </trkpt>
      <trkpt lat="46.171729126945138" lon="11.948694325983524">
        <ele>2004.97</ele>
        <time>2017-07-06T09:33:44Z</time>
      </trkpt>
      <trkpt lat="46.171738179400563" lon="11.948730200529099">
        <ele>2005.9300000000001</ele>
        <time>2017-07-06T09:33:53Z</time>
      </trkpt>
      <trkpt lat="46.17170138284564" lon="11.948696505278349">
        <ele>2010.25</ele>
        <time>2017-07-06T09:34:27Z</time>
      </trkpt>
      <trkpt lat="46.171673638746142" lon="11.948741851374507">
        <ele>2011.22</ele>
        <time>2017-07-06T09:34:40Z</time>
      </trkpt>
      <trkpt lat="46.171665927395225" lon="11.948736403137445">
        <ele>2011.7</ele>
        <time>2017-07-06T09:34:42Z</time>
      </trkpt>
      <trkpt lat="46.171621754765511" lon="11.948769176378846">
        <ele>2013.6199999999999</ele>
        <time>2017-07-06T09:34:51Z</time>
      </trkpt>
      <trkpt lat="46.17165151052177" lon="11.948814522475004">
        <ele>2014.5799999999999</ele>
        <time>2017-07-06T09:35:02Z</time>
      </trkpt>
      <trkpt lat="46.171625694260001" lon="11.948824413120747">
        <ele>2016.02</ele>
        <time>2017-07-06T09:35:13Z</time>
      </trkpt>
      <trkpt lat="46.171584203839302" lon="11.94880940951407">
        <ele>2017.46</ele>
        <time>2017-07-06T09:35:22Z</time>
      </trkpt>
      <trkpt lat="46.171541372314095" lon="11.948761967942119">
        <ele>2018.9100000000001</ele>
        <time>2017-07-06T09:35:33Z</time>
      </trkpt>
      <trkpt lat="46.171516142785549" lon="11.948742270469666">
        <ele>2020.8299999999999</ele>
        <time>2017-07-06T09:35:45Z</time>
      </trkpt>
      <trkpt lat="46.171500217169523" lon="11.948742941021919">
        <ele>2022.27</ele>
        <time>2017-07-06T09:35:58Z</time>
      </trkpt>
      <trkpt lat="46.17147808894515" lon="11.948733134195209">
        <ele>2023.23</ele>
        <time>2017-07-06T09:36:09Z</time>
      </trkpt>
      <trkpt lat="46.17144581861794" lon="11.948716873303056">
        <ele>2024.1900000000001</ele>
        <time>2017-07-06T09:36:17Z</time>
      </trkpt>
      <trkpt lat="46.17142821662128" lon="11.948741264641285">
        <ele>2025.6400000000001</ele>
        <time>2017-07-06T09:36:28Z</time>
      </trkpt>
      <trkpt lat="46.171392593532801" lon="11.94872047752142">
        <ele>2027.5599999999999</ele>
        <time>2017-07-06T09:36:39Z</time>
      </trkpt>
      <trkpt lat="46.171375242993236" lon="11.948733972385526">
        <ele>2028.52</ele>
        <time>2017-07-06T09:36:51Z</time>
      </trkpt>
      <trkpt lat="46.171346325427294" lon="11.948746293783188">
        <ele>2030.4400000000001</ele>
        <time>2017-07-06T09:37:03Z</time>
      </trkpt>
      <trkpt lat="46.171373818069696" lon="11.948788287118077">
        <ele>2031.4000000000001</ele>
        <time>2017-07-06T09:37:15Z</time>
      </trkpt>
      <trkpt lat="46.171372309327126" lon="11.948819048702717">
        <ele>2032.3599999999999</ele>
        <time>2017-07-06T09:37:25Z</time>
      </trkpt>
      <trkpt lat="46.171380188316107" lon="11.948854839429259">
        <ele>2034.77</ele>
        <time>2017-07-06T09:37:37Z</time>
      </trkpt>
      <trkpt lat="46.171343056485057" lon="11.94887101650238">
        <ele>2035.25</ele>
        <time>2017-07-06T09:37:46Z</time>
      </trkpt>
      <trkpt lat="46.171341128647327" lon="11.948848972097039">
        <ele>2034.29</ele>
        <time>2017-07-06T09:38:01Z</time>
      </trkpt>
      <trkpt lat="46.171350348740816" lon="11.948847798630595">
        <ele>2034.77</ele>
        <time>2017-07-06T09:38:19Z</time>
      </trkpt>
      <trkpt lat="46.171360658481717" lon="11.948823742568493">
        <ele>2034.77</ele>
        <time>2017-07-06T09:38:37Z</time>
      </trkpt>
      <trkpt lat="46.171340541914105" lon="11.948856012895703">
        <ele>2035.25</ele>
        <time>2017-07-06T09:38:58Z</time>
      </trkpt>
      <trkpt lat="46.171292597427964" lon="11.948897251859307">
        <ele>2035.25</ele>
        <time>2017-07-06T09:39:16Z</time>
      </trkpt>
      <trkpt lat="46.171324867755175" lon="11.948864813894033">
        <ele>2035.25</ele>
        <time>2017-07-06T09:39:34Z</time>
      </trkpt>
      <trkpt lat="46.171329477801919" lon="11.948858024552464">
        <ele>2035.25</ele>
        <time>2017-07-06T09:39:51Z</time>
      </trkpt>
      <trkpt lat="46.171300141140819" lon="11.948893312364817">
        <ele>2036.6900000000001</ele>
        <time>2017-07-06T09:40:02Z</time>
      </trkpt>
      <trkpt lat="46.171271642670035" lon="11.948910998180509">
        <ele>2038.6099999999999</ele>
        <time>2017-07-06T09:40:12Z</time>
      </trkpt>
      <trkpt lat="46.171251526102424" lon="11.94893111474812">
        <ele>2040.05</ele>
        <time>2017-07-06T09:40:20Z</time>
      </trkpt>
      <trkpt lat="46.171213304623961" lon="11.948896497488022">
        <ele>2041.5</ele>
        <time>2017-07-06T09:40:33Z</time>
      </trkpt>
      <trkpt lat="46.171195032075047" lon="11.948899682611227">
        <ele>2042.9400000000001</ele>
        <time>2017-07-06T09:40:42Z</time>
      </trkpt>
      <trkpt lat="46.171210957691073" lon="11.948879230767488">
        <ele>2043.9000000000001</ele>
        <time>2017-07-06T09:40:54Z</time>
      </trkpt>
      <trkpt lat="46.171207185834646" lon="11.948896246030927">
        <ele>2043.4200000000001</ele>
        <time>2017-07-06T09:41:09Z</time>
      </trkpt>
      <trkpt lat="46.171143399551511" lon="11.948865819722414">
        <ele>2044.3800000000001</ele>
        <time>2017-07-06T09:41:21Z</time>
      </trkpt>
      <trkpt lat="46.17108765989542" lon="11.948738666251302">
        <ele>2045.8199999999999</ele>
        <time>2017-07-06T09:41:39Z</time>
      </trkpt>
      <trkpt lat="46.17107248865068" lon="11.948683094233274">
        <ele>2046.78</ele>
        <time>2017-07-06T09:41:53Z</time>
      </trkpt>
      <trkpt lat="46.17110182531178" lon="11.948719136416912">
        <ele>2048.23</ele>
        <time>2017-07-06T09:42:11Z</time>
      </trkpt>
      <trkpt lat="46.171031836420298" lon="11.948664402589202">
        <ele>2050.1500000000001</ele>
        <time>2017-07-06T09:42:27Z</time>
      </trkpt>
      <trkpt lat="46.170976012945175" lon="11.948674879968166">
        <ele>2051.1100000000001</ele>
        <time>2017-07-06T09:42:36Z</time>
      </trkpt>
      <trkpt lat="46.171025047078729" lon="11.948704216629267">
        <ele>2051.5900000000001</ele>
        <time>2017-07-06T09:42:45Z</time>
      </trkpt>
      <trkpt lat="46.171023370698094" lon="11.94870195351541">
        <ele>2053.0300000000002</ele>
        <time>2017-07-06T09:42:52Z</time>
      </trkpt>
      <trkpt lat="46.170996800065041" lon="11.948698768392205">
        <ele>2053.9899999999998</ele>
        <time>2017-07-06T09:43:00Z</time>
      </trkpt>
      <trkpt lat="46.17097919806838" lon="11.948710083961487">
        <ele>2054.96</ele>
        <time>2017-07-06T09:43:11Z</time>
      </trkpt>
      <trkpt lat="46.170956818386912" lon="11.948737492784858">
        <ele>2055.9200000000001</ele>
        <time>2017-07-06T09:43:21Z</time>
      </trkpt>
      <trkpt lat="46.170926811173558" lon="11.948736486956477">
        <ele>2056.8800000000001</ele>
        <time>2017-07-06T09:43:31Z</time>
      </trkpt>
      <trkpt lat="46.170909879729152" lon="11.948733553290367">
        <ele>2057.8400000000001</ele>
        <time>2017-07-06T09:43:41Z</time>
      </trkpt>
      <trkpt lat="46.170904096215963" lon="11.948731373995543">
        <ele>2059.2800000000002</ele>
        <time>2017-07-06T09:43:50Z</time>
      </trkpt>
      <trkpt lat="46.17090342566371" lon="11.948732044547796">
        <ele>2059.7600000000002</ele>
        <time>2017-07-06T09:44:00Z</time>
      </trkpt>
      <trkpt lat="46.170912394300103" lon="11.948743192479014">
        <ele>2060.7199999999998</ele>
        <time>2017-07-06T09:44:07Z</time>
      </trkpt>
      <trkpt lat="46.17091566324234" lon="11.948756938800216">
        <ele>2061.1999999999998</ele>
        <time>2017-07-06T09:44:15Z</time>
      </trkpt>
      <trkpt lat="46.170899653807282" lon="11.948766661807895">
        <ele>2062.6500000000001</ele>
        <time>2017-07-06T09:44:24Z</time>
      </trkpt>
      <trkpt lat="46.170891271904111" lon="11.948778815567493">
        <ele>2063.1300000000001</ele>
        <time>2017-07-06T09:44:35Z</time>
      </trkpt>
      <trkpt lat="46.170884734019637" lon="11.948797758668661">
        <ele>2064.0900000000001</ele>
        <time>2017-07-06T09:44:44Z</time>
      </trkpt>
      <trkpt lat="46.170897977426648" lon="11.948840590193868">
        <ele>2065.5300000000002</ele>
        <time>2017-07-06T09:44:57Z</time>
      </trkpt>
      <trkpt lat="46.170895881950855" lon="11.948878057301044">
        <ele>2066.9699999999998</ele>
        <time>2017-07-06T09:45:06Z</time>
      </trkpt>
      <trkpt lat="46.170878950506449" lon="11.948911417275667">
        <ele>2068.4099999999999</ele>
        <time>2017-07-06T09:45:17Z</time>
      </trkpt>
      <trkpt lat="46.170862102881074" lon="11.948929857462645">
        <ele>2069.3800000000001</ele>
        <time>2017-07-06T09:45:26Z</time>
      </trkpt>
      <trkpt lat="46.170844584703445" lon="11.94893061183393">
        <ele>2069.8600000000001</ele>
        <time>2017-07-06T09:45:30Z</time>
      </trkpt>
      <trkpt lat="46.170777529478073" lon="11.948908064514399">
        <ele>2071.7800000000002</ele>
        <time>2017-07-06T09:45:42Z</time>
      </trkpt>
      <trkpt lat="46.170742074027658" lon="11.948903454467654">
        <ele>2072.7399999999998</ele>
        <time>2017-07-06T09:45:52Z</time>
      </trkpt>
      <trkpt lat="46.170715754851699" lon="11.948895659297705">
        <ele>2073.2199999999998</ele>
        <time>2017-07-06T09:45:57Z</time>
      </trkpt>
      <trkpt lat="46.17068650200963" lon="11.948922229930758">
        <ele>2074.1799999999998</ele>
        <time>2017-07-06T09:46:06Z</time>
      </trkpt>
      <trkpt lat="46.170663284137845" lon="11.948928432539105">
        <ele>2074.6599999999999</ele>
        <time>2017-07-06T09:46:15Z</time>
      </trkpt>
      <trkpt lat="46.170638641342521" lon="11.948925331234932">
        <ele>2076.0999999999999</ele>
        <time>2017-07-06T09:46:29Z</time>
      </trkpt>
      <trkpt lat="46.170619195327163" lon="11.948915021494031">
        <ele>2076.5900000000001</ele>
        <time>2017-07-06T09:46:45Z</time>
      </trkpt>
      <trkpt lat="46.170615591108799" lon="11.948913261294365">
        <ele>2077.0700000000002</ele>
        <time>2017-07-06T09:46:59Z</time>
      </trkpt>
      <trkpt lat="46.170629588887095" lon="11.948929354548454">
        <ele>2078.0300000000002</ele>
        <time>2017-07-06T09:47:09Z</time>
      </trkpt>
      <trkpt lat="46.170647609978914" lon="11.94895994849503">
        <ele>2078.5100000000002</ele>
        <time>2017-07-06T09:47:18Z</time>
      </trkpt>
      <trkpt lat="46.170623553916812" lon="11.948960199952126">
        <ele>2079.4699999999998</ele>
        <time>2017-07-06T09:47:27Z</time>
      </trkpt>
      <trkpt lat="46.170616932213306" lon="11.948944609612226">
        <ele>2080.9099999999999</ele>
        <time>2017-07-06T09:47:37Z</time>
      </trkpt>
      <trkpt lat="46.170627409592271" lon="11.94896187633276">
        <ele>2081.3899999999999</ele>
        <time>2017-07-06T09:47:49Z</time>
      </trkpt>
      <trkpt lat="46.170626822859049" lon="11.948995320126414">
        <ele>2081.8699999999999</ele>
        <time>2017-07-06T09:47:58Z</time>
      </trkpt>
      <trkpt lat="46.17061709985137" lon="11.948994901031256">
        <ele>2082.8299999999999</ele>
        <time>2017-07-06T09:48:10Z</time>
      </trkpt>
      <trkpt lat="46.170599414035678" lon="11.948984088376164">
        <ele>2083.79</ele>
        <time>2017-07-06T09:48:18Z</time>
      </trkpt>
      <trkpt lat="46.170591786503792" lon="11.948984926566482">
        <ele>2084.7600000000002</ele>
        <time>2017-07-06T09:48:26Z</time>
      </trkpt>
      <trkpt lat="46.17059363052249" lon="11.949002277106047">
        <ele>2085.2399999999998</ele>
        <time>2017-07-06T09:48:37Z</time>
      </trkpt>
      <trkpt lat="46.170585751533508" lon="11.949032032862306">
        <ele>2086.1999999999998</ele>
        <time>2017-07-06T09:48:45Z</time>
      </trkpt>
      <trkpt lat="46.170566892251372" lon="11.949031865224242">
        <ele>2088.1199999999999</ele>
        <time>2017-07-06T09:48:57Z</time>
      </trkpt>
      <trkpt lat="46.170570077374578" lon="11.949006132781506">
        <ele>2087.6399999999999</ele>
        <time>2017-07-06T09:49:09Z</time>
      </trkpt>
      <trkpt lat="46.170553062111139" lon="11.94906891323626">
        <ele>2089.0799999999999</ele>
        <time>2017-07-06T09:49:19Z</time>
      </trkpt>
      <trkpt lat="46.170526659116149" lon="11.949075032025576">
        <ele>2090.52</ele>
        <time>2017-07-06T09:49:28Z</time>
      </trkpt>
      <trkpt lat="46.170523054897785" lon="11.949108811095357">
        <ele>2091</ele>
        <time>2017-07-06T09:49:36Z</time>
      </trkpt>
      <trkpt lat="46.17050226777792" lon="11.949102189391851">
        <ele>2091.9699999999998</ele>
        <time>2017-07-06T09:49:45Z</time>
      </trkpt>
      <trkpt lat="46.170501010492444" lon="11.949075283482671">
        <ele>2092.9299999999998</ele>
        <time>2017-07-06T09:49:57Z</time>
      </trkpt>
      <trkpt lat="46.17048759944737" lon="11.949082408100367">
        <ele>2093.8899999999999</ele>
        <time>2017-07-06T09:50:13Z</time>
      </trkpt>
      <trkpt lat="46.170470165088773" lon="11.949067655950785">
        <ele>2094.8499999999999</ele>
        <time>2017-07-06T09:50:26Z</time>
      </trkpt>
      <trkpt lat="46.170433787629008" lon="11.949062123894691">
        <ele>2095.8099999999999</ele>
        <time>2017-07-06T09:50:37Z</time>
      </trkpt>
      <trkpt lat="46.170439822599292" lon="11.949075283482671">
        <ele>2096.77</ele>
        <time>2017-07-06T09:50:41Z</time>
      </trkpt>
      <trkpt lat="46.170447617769241" lon="11.949158431962132">
        <ele>2097.73</ele>
        <time>2017-07-06T09:50:52Z</time>
      </trkpt>
      <trkpt lat="46.170404618605971" lon="11.949163796380162">
        <ele>2098.21</ele>
        <time>2017-07-06T09:51:00Z</time>
      </trkpt>
      <trkpt lat="46.170387184247375" lon="11.949138231575489">
        <ele>2097.73</ele>
        <time>2017-07-06T09:51:13Z</time>
      </trkpt>
      <trkpt lat="46.17037670686841" lon="11.949149463325739">
        <ele>2098.21</ele>
        <time>2017-07-06T09:51:23Z</time>
      </trkpt>
      <trkpt lat="46.170354159548879" lon="11.949144518002868">
        <ele>2097.73</ele>
        <time>2017-07-06T09:51:43Z</time>
      </trkpt>
      <trkpt lat="46.170364134013653" lon="11.949143595993519">
        <ele>2098.21</ele>
        <time>2017-07-06T09:52:01Z</time>
      </trkpt>
      <trkpt lat="46.170377293601632" lon="11.949182823300362">
        <ele>2098.6999999999998</ele>
        <time>2017-07-06T09:52:14Z</time>
      </trkpt>
      <trkpt lat="46.170343095436692" lon="11.949167484417558">
        <ele>2101.0999999999999</ele>
        <time>2017-07-06T09:52:26Z</time>
      </trkpt>
      <trkpt lat="46.170319374650717" lon="11.949183493852615">
        <ele>2102.54</ele>
        <time>2017-07-06T09:52:35Z</time>
      </trkpt>
      <trkpt lat="46.17031903937459" lon="11.949200509116054">
        <ele>2103.02</ele>
        <time>2017-07-06T09:52:38Z</time>
      </trkpt>
      <trkpt lat="46.17031417787075" lon="11.949206041172147">
        <ele>2103.5</ele>
        <time>2017-07-06T09:52:47Z</time>
      </trkpt>
      <trkpt lat="46.170305628329515" lon="11.949184248223901">
        <ele>2104.46</ele>
        <time>2017-07-06T09:52:58Z</time>
      </trkpt>
      <trkpt lat="46.170285679399967" lon="11.949225571006536">
        <ele>2105.9099999999999</ele>
        <time>2017-07-06T09:53:08Z</time>
      </trkpt>
      <trkpt lat="46.170259276404977" lon="11.949213333427906">
        <ele>2107.8299999999999</ele>
        <time>2017-07-06T09:53:24Z</time>
      </trkpt>
      <trkpt lat="46.170242512598634" lon="11.949217272922397">
        <ele>2109.27</ele>
        <time>2017-07-06T09:53:37Z</time>
      </trkpt>
      <trkpt lat="46.17020764388144" lon="11.949205119162798">
        <ele>2110.23</ele>
        <time>2017-07-06T09:53:46Z</time>
      </trkpt>
      <trkpt lat="46.170171601697803" lon="11.949201179668307">
        <ele>2111.1900000000001</ele>
        <time>2017-07-06T09:53:57Z</time>
      </trkpt>
      <trkpt lat="46.170153832063079" lon="11.949217105284333">
        <ele>2112.6300000000001</ele>
        <time>2017-07-06T09:54:07Z</time>
      </trkpt>
      <trkpt lat="46.170136230066419" lon="11.949247783049941">
        <ele>2114.0799999999999</ele>
        <time>2017-07-06T09:54:16Z</time>
      </trkpt>
      <trkpt lat="46.170102367177606" lon="11.949266474694014">
        <ele>2115.52</ele>
        <time>2017-07-06T09:54:26Z</time>
      </trkpt>
      <trkpt lat="46.1700991820544" lon="11.949295056983829">
        <ele>2116.48</ele>
        <time>2017-07-06T09:54:35Z</time>
      </trkpt>
      <trkpt lat="46.170085687190294" lon="11.949350796639919">
        <ele>2117.4400000000001</ele>
        <time>2017-07-06T09:54:44Z</time>
      </trkpt>
      <trkpt lat="46.170076802372932" lon="11.949398489668965">
        <ele>2119.3600000000001</ele>
        <time>2017-07-06T09:54:57Z</time>
      </trkpt>
      <trkpt lat="46.170047633349895" lon="11.949460348114371">
        <ele>2120.8099999999999</ele>
        <time>2017-07-06T09:55:11Z</time>
      </trkpt>
      <trkpt lat="46.170048387721181" lon="11.949448361992836">
        <ele>2122.25</ele>
        <time>2017-07-06T09:55:27Z</time>
      </trkpt>
      <trkpt lat="46.169988205656409" lon="11.949393544346094">
        <ele>2122.73</ele>
        <time>2017-07-06T09:55:38Z</time>
      </trkpt>
      <trkpt lat="46.169980494305491" lon="11.949394633993506">
        <ele>2123.21</ele>
        <time>2017-07-06T09:55:49Z</time>
      </trkpt>
      <trkpt lat="46.169953336939216" lon="11.949414918199182">
        <ele>2123.6900000000001</ele>
        <time>2017-07-06T09:56:01Z</time>
      </trkpt>
      <trkpt lat="46.169941937550902" lon="11.949437549337745">
        <ele>2124.6500000000001</ele>
        <time>2017-07-06T09:56:11Z</time>
      </trkpt>
      <trkpt lat="46.169931208714843" lon="11.949476357549429">
        <ele>2125.1300000000001</ele>
        <time>2017-07-06T09:56:21Z</time>
      </trkpt>
      <trkpt lat="46.169931963086128" lon="11.949482895433903">
        <ele>2124.6500000000001</ele>
        <time>2017-07-06T09:56:34Z</time>
      </trkpt>
      <trkpt lat="46.169918049126863" lon="11.949488678947091">
        <ele>2124.6500000000001</ele>
        <time>2017-07-06T09:56:43Z</time>
      </trkpt>
      <trkpt lat="46.169905895367265" lon="11.949517177417874">
        <ele>2125.1300000000001</ele>
        <time>2017-07-06T09:56:54Z</time>
      </trkpt>
      <trkpt lat="46.16988024674356" lon="11.949521955102682">
        <ele>2127.0500000000002</ele>
        <time>2017-07-06T09:57:05Z</time>
      </trkpt>
      <trkpt lat="46.169849066063762" lon="11.949519943445921">
        <ele>2127.0500000000002</ele>
        <time>2017-07-06T09:57:14Z</time>
      </trkpt>
      <trkpt lat="46.16986851207912" lon="11.949514914304018">
        <ele>2128.5</ele>
        <time>2017-07-06T09:57:26Z</time>
      </trkpt>
      <trkpt lat="46.169875301420689" lon="11.949525894597173">
        <ele>2128.02</ele>
        <time>2017-07-06T09:57:30Z</time>
      </trkpt>
      <trkpt lat="46.169878989458084" lon="11.949542155489326">
        <ele>2128.02</ele>
        <time>2017-07-06T09:57:39Z</time>
      </trkpt>
      <trkpt lat="46.169874714687467" lon="11.949546597898006">
        <ele>2128.02</ele>
        <time>2017-07-06T09:57:49Z</time>
      </trkpt>
      <trkpt lat="46.169862225651741" lon="11.949518602341413">
        <ele>2127.5300000000002</ele>
        <time>2017-07-06T09:58:00Z</time>
      </trkpt>
      <trkpt lat="46.169847305864096" lon="11.949519356712699">
        <ele>2127.5300000000002</ele>
        <time>2017-07-06T09:58:12Z</time>
      </trkpt>
      <trkpt lat="46.169865829870105" lon="11.949517009779811">
        <ele>2128.02</ele>
        <time>2017-07-06T09:58:24Z</time>
      </trkpt>
      <trkpt lat="46.169846383854747" lon="11.949523212388158">
        <ele>2127.0500000000002</ele>
        <time>2017-07-06T09:58:35Z</time>
      </trkpt>
      <trkpt lat="46.16989734582603" lon="11.949546681717038">
        <ele>2128.5</ele>
        <time>2017-07-06T09:58:50Z</time>
      </trkpt>
      <trkpt lat="46.169892987236381" lon="11.949519691988826">
        <ele>2128.5</ele>
        <time>2017-07-06T09:59:09Z</time>
      </trkpt>
      <trkpt lat="46.16987831890583" lon="11.949520697817206">
        <ele>2128.02</ele>
        <time>2017-07-06T09:59:23Z</time>
      </trkpt>
      <trkpt lat="46.169879492372274" lon="11.949519440531731">
        <ele>2128.5</ele>
        <time>2017-07-06T09:59:35Z</time>
      </trkpt>
      <trkpt lat="46.169847641140223" lon="11.949451379477978">
        <ele>2127.5300000000002</ele>
        <time>2017-07-06T09:59:53Z</time>
      </trkpt>
      <trkpt lat="46.169824171811342" lon="11.949351048097014">
        <ele>2126.5700000000002</ele>
        <time>2017-07-06T10:00:05Z</time>
      </trkpt>
      <trkpt lat="46.169832469895482" lon="11.949290446937084">
        <ele>2126.0900000000001</ele>
        <time>2017-07-06T10:00:10Z</time>
      </trkpt>
      <trkpt lat="46.169825177639723" lon="11.949180895462632">
        <ele>2126.0900000000001</ele>
        <time>2017-07-06T10:00:21Z</time>
      </trkpt>
      <trkpt lat="46.169781256467104" lon="11.94912607781589">
        <ele>2126.0900000000001</ele>
        <time>2017-07-06T10:00:34Z</time>
      </trkpt>
      <trkpt lat="46.16977371275425" lon="11.949123898521066">
        <ele>2125.6100000000001</ele>
        <time>2017-07-06T10:00:53Z</time>
      </trkpt>
      <trkpt lat="46.169771701097488" lon="11.949123479425907">
        <ele>2125.6100000000001</ele>
        <time>2017-07-06T10:01:03Z</time>
      </trkpt>
      <trkpt lat="46.169774383306503" lon="11.949079306796193">
        <ele>2125.6100000000001</ele>
        <time>2017-07-06T10:01:12Z</time>
      </trkpt>
      <trkpt lat="46.169761056080461" lon="11.949067655950785">
        <ele>2125.1300000000001</ele>
        <time>2017-07-06T10:01:25Z</time>
      </trkpt>
      <trkpt lat="46.169732892885804" lon="11.949024656787515">
        <ele>2124.1700000000001</ele>
        <time>2017-07-06T10:01:38Z</time>
      </trkpt>
      <trkpt lat="46.16973121650517" lon="11.949020298197865">
        <ele>2124.6500000000001</ele>
        <time>2017-07-06T10:01:39Z</time>
      </trkpt>
      <trkpt lat="46.169664664193988" lon="11.94898140616715">
        <ele>2123.6900000000001</ele>
        <time>2017-07-06T10:01:50Z</time>
      </trkpt>
      <trkpt lat="46.169611774384975" lon="11.948969252407551">
        <ele>2122.73</ele>
        <time>2017-07-06T10:01:59Z</time>
      </trkpt>
      <trkpt lat="46.16957975551486" lon="11.948924995958805">
        <ele>2123.21</ele>
        <time>2017-07-06T10:02:09Z</time>
      </trkpt>
      <trkpt lat="46.16959098726511" lon="11.948917619884014">
        <ele>2123.6900000000001</ele>
        <time>2017-07-06T10:02:19Z</time>
      </trkpt>
      <trkpt lat="46.169574894011021" lon="11.948872609063983">
        <ele>2122.73</ele>
        <time>2017-07-06T10:02:29Z</time>
      </trkpt>
      <trkpt lat="46.169569697231054" lon="11.948863724246621">
        <ele>2122.73</ele>
        <time>2017-07-06T10:02:30Z</time>
      </trkpt>
      <trkpt lat="46.169517645612359" lon="11.948775630444288">
        <ele>2121.77</ele>
        <time>2017-07-06T10:02:40Z</time>
      </trkpt>
      <trkpt lat="46.16944438777864" lon="11.9486696831882">
        <ele>2121.77</ele>
        <time>2017-07-06T10:02:51Z</time>
      </trkpt>
      <trkpt lat="46.169425025582314" lon="11.948579158633947">
        <ele>2122.25</ele>
        <time>2017-07-06T10:03:04Z</time>
      </trkpt>
      <trkpt lat="46.16942142136395" lon="11.948571614921093">
        <ele>2121.77</ele>
        <time>2017-07-06T10:03:16Z</time>
      </trkpt>
      <trkpt lat="46.169417817145586" lon="11.948577566072345">
        <ele>2121.29</ele>
        <time>2017-07-06T10:03:33Z</time>
      </trkpt>
      <trkpt lat="46.169421840459108" lon="11.948568010702729">
        <ele>2121.77</ele>
        <time>2017-07-06T10:03:49Z</time>
      </trkpt>
      <trkpt lat="46.169419242069125" lon="11.948567507788539">
        <ele>2121.77</ele>
        <time>2017-07-06T10:04:05Z</time>
      </trkpt>
      <trkpt lat="46.169427372515202" lon="11.948570860549808">
        <ele>2121.77</ele>
        <time>2017-07-06T10:04:17Z</time>
      </trkpt>
      <trkpt lat="46.169392671436071" lon="11.948552168905735">
        <ele>2121.29</ele>
        <time>2017-07-06T10:04:29Z</time>
      </trkpt>
      <trkpt lat="46.169395102187991" lon="11.948509337380528">
        <ele>2119.3600000000001</ele>
        <time>2017-07-06T10:04:38Z</time>
      </trkpt>
      <trkpt lat="46.169378338381648" lon="11.948471032083035">
        <ele>2118.4000000000001</ele>
        <time>2017-07-06T10:04:44Z</time>
      </trkpt>
      <trkpt lat="46.169318491593003" lon="11.948354858905077">
        <ele>2116.48</ele>
        <time>2017-07-06T10:04:56Z</time>
      </trkpt>
      <trkpt lat="46.169316647574306" lon="11.948274057358503">
        <ele>2114.5599999999999</ele>
        <time>2017-07-06T10:05:05Z</time>
      </trkpt>
      <trkpt lat="46.169307259842753" lon="11.948238937184215">
        <ele>2113.1199999999999</ele>
        <time>2017-07-06T10:05:09Z</time>
      </trkpt>
      <trkpt lat="46.169289071112871" lon="11.948217814788222">
        <ele>2111.6700000000001</ele>
        <time>2017-07-06T10:05:13Z</time>
      </trkpt>
      <trkpt lat="46.169258980080485" lon="11.948164002969861">
        <ele>2110.71</ele>
        <time>2017-07-06T10:05:18Z</time>
      </trkpt>
      <trkpt lat="46.169204330071807" lon="11.948054116219282">
        <ele>2110.23</ele>
        <time>2017-07-06T10:05:29Z</time>
      </trkpt>
      <trkpt lat="46.169225452467799" lon="11.947959149256349">
        <ele>2111.6700000000001</ele>
        <time>2017-07-06T10:05:40Z</time>
      </trkpt>
      <trkpt lat="46.169250179082155" lon="11.947959149256349">
        <ele>2112.6300000000001</ele>
        <time>2017-07-06T10:05:48Z</time>
      </trkpt>
      <trkpt lat="46.169257638975978" lon="11.947953449562192">
        <ele>2113.1199999999999</ele>
        <time>2017-07-06T10:06:00Z</time>
      </trkpt>
      <trkpt lat="46.169259650632739" lon="11.947971303015947">
        <ele>2111.6700000000001</ele>
        <time>2017-07-06T10:06:09Z</time>
      </trkpt>
      <trkpt lat="46.1692616622895" lon="11.947960406541824">
        <ele>2112.1500000000001</ele>
        <time>2017-07-06T10:06:23Z</time>
      </trkpt>
      <trkpt lat="46.169262919574976" lon="11.947967447340488">
        <ele>2111.6700000000001</ele>
        <time>2017-07-06T10:06:40Z</time>
      </trkpt>
      <trkpt lat="46.169267613440752" lon="11.9479616638273">
        <ele>2111.6700000000001</ele>
        <time>2017-07-06T10:07:02Z</time>
      </trkpt>
      <trkpt lat="46.169261913746595" lon="11.947967698797584">
        <ele>2112.1500000000001</ele>
        <time>2017-07-06T10:07:18Z</time>
      </trkpt>
      <trkpt lat="46.169240456074476" lon="11.947972727939487">
        <ele>2111.6700000000001</ele>
        <time>2017-07-06T10:07:28Z</time>
      </trkpt>
      <trkpt lat="46.169234253466129" lon="11.947963256388903">
        <ele>2111.6700000000001</ele>
        <time>2017-07-06T10:07:50Z</time>
      </trkpt>
      <trkpt lat="46.169232493266463" lon="11.947957975789905">
        <ele>2111.6700000000001</ele>
        <time>2017-07-06T10:08:21Z</time>
      </trkpt>
      <trkpt lat="46.169231487438083" lon="11.947961412370205">
        <ele>2115.04</ele>
        <time>2017-07-06T10:08:30Z</time>
      </trkpt>
      <trkpt lat="46.169231319800019" lon="11.9479616638273">
        <ele>2113.5999999999999</ele>
        <time>2017-07-06T10:08:31Z</time>
      </trkpt>
      <trkpt lat="46.169246071949601" lon="11.947956886142492">
        <ele>2112.6300000000001</ele>
        <time>2017-07-06T10:09:00Z</time>
      </trkpt>
      <trkpt lat="46.169263003394008" lon="11.947947246953845">
        <ele>2112.1500000000001</ele>
        <time>2017-07-06T10:09:34Z</time>
      </trkpt>
      <trkpt lat="46.169251520186663" lon="11.947944900020957">
        <ele>2112.1500000000001</ele>
        <time>2017-07-06T10:10:14Z</time>
      </trkpt>
      <trkpt lat="46.169257303699851" lon="11.947943726554513">
        <ele>2112.1500000000001</ele>
        <time>2017-07-06T10:10:51Z</time>
      </trkpt>
      <trkpt lat="46.169249508529902" lon="11.947951940819621">
        <ele>2112.1500000000001</ele>
        <time>2017-07-06T10:11:19Z</time>
      </trkpt>
      <trkpt lat="46.16924992762506" lon="11.947951689362526">
        <ele>2112.6300000000001</ele>
        <time>2017-07-06T10:11:52Z</time>
      </trkpt>
      <trkpt lat="46.169251687824726" lon="11.947947163134813">
        <ele>2112.6300000000001</ele>
        <time>2017-07-06T10:12:29Z</time>
      </trkpt>
      <trkpt lat="46.169254118576646" lon="11.947945319116116">
        <ele>2112.6300000000001</ele>
        <time>2017-07-06T10:13:06Z</time>
      </trkpt>
      <trkpt lat="46.169252106919885" lon="11.947943223640323">
        <ele>2112.6300000000001</ele>
        <time>2017-07-06T10:13:34Z</time>
      </trkpt>
      <trkpt lat="46.169249173253775" lon="11.947948252782226">
        <ele>2112.6300000000001</ele>
        <time>2017-07-06T10:14:13Z</time>
      </trkpt>
      <trkpt lat="46.16925579495728" lon="11.947948755696416">
        <ele>2112.6300000000001</ele>
        <time>2017-07-06T10:14:45Z</time>
      </trkpt>
      <trkpt lat="46.169246910139918" lon="11.947941714897752">
        <ele>2112.6300000000001</ele>
        <time>2017-07-06T10:15:20Z</time>
      </trkpt>
      <trkpt lat="46.169247413054109" lon="11.947941882535815">
        <ele>2113.1199999999999</ele>
        <time>2017-07-06T10:15:59Z</time>
      </trkpt>
      <trkpt lat="46.169247161597013" lon="11.94793526083231">
        <ele>2113.1199999999999</ele>
        <time>2017-07-06T10:16:36Z</time>
      </trkpt>
      <trkpt lat="46.169249089434743" lon="11.947938026860356">
        <ele>2113.1199999999999</ele>
        <time>2017-07-06T10:17:17Z</time>
      </trkpt>
      <trkpt lat="46.169243305921555" lon="11.947937104851007">
        <ele>2113.5999999999999</ele>
        <time>2017-07-06T10:17:57Z</time>
      </trkpt>
      <trkpt lat="46.169242216274142" lon="11.947937523946166">
        <ele>2113.5999999999999</ele>
        <time>2017-07-06T10:18:24Z</time>
      </trkpt>
      <trkpt lat="46.169235510751605" lon="11.947932410985231">
        <ele>2113.5999999999999</ele>
        <time>2017-07-06T10:19:01Z</time>
      </trkpt>
      <trkpt lat="46.16923182271421" lon="11.947935847565532">
        <ele>2113.5999999999999</ele>
        <time>2017-07-06T10:19:35Z</time>
      </trkpt>
      <trkpt lat="46.169244395568967" lon="11.947936769574881">
        <ele>2113.5999999999999</ele>
        <time>2017-07-06T10:20:02Z</time>
      </trkpt>
      <trkpt lat="46.169239450246096" lon="11.947932243347168">
        <ele>2113.5999999999999</ele>
        <time>2017-07-06T10:20:41Z</time>
      </trkpt>
      <trkpt lat="46.169236516579986" lon="11.947933416813612">
        <ele>2114.0799999999999</ele>
        <time>2017-07-06T10:21:18Z</time>
      </trkpt>
      <trkpt lat="46.169234337285161" lon="11.947931824252009">
        <ele>2114.0799999999999</ele>
        <time>2017-07-06T10:21:49Z</time>
      </trkpt>
      <trkpt lat="46.169235175475478" lon="11.947930902242661">
        <ele>2114.0799999999999</ele>
        <time>2017-07-06T10:22:20Z</time>
      </trkpt>
      <trkpt lat="46.16923869587481" lon="11.947934590280056">
        <ele>2114.5599999999999</ele>
        <time>2017-07-06T10:22:52Z</time>
      </trkpt>
      <trkpt lat="46.1692357622087" lon="11.947934506461024">
        <ele>2114.0799999999999</ele>
        <time>2017-07-06T10:23:20Z</time>
      </trkpt>
      <trkpt lat="46.169248670339584" lon="11.947940038517118">
        <ele>2114.0799999999999</ele>
        <time>2017-07-06T10:23:54Z</time>
      </trkpt>
      <trkpt lat="46.169251101091504" lon="11.947952695190907">
        <ele>2114.5599999999999</ele>
        <time>2017-07-06T10:24:05Z</time>
      </trkpt>
      <trkpt lat="46.169264009222388" lon="11.947946241125464">
        <ele>2114.5599999999999</ele>
        <time>2017-07-06T10:24:15Z</time>
      </trkpt>
      <trkpt lat="46.169274151325226" lon="11.94796702824533">
        <ele>2114.5599999999999</ele>
        <time>2017-07-06T10:24:38Z</time>
      </trkpt>
      <trkpt lat="46.169272810220718" lon="11.947968369349837">
        <ele>2114.5599999999999</ele>
        <time>2017-07-06T10:25:00Z</time>
      </trkpt>
      <trkpt lat="46.169271552935243" lon="11.947972308844328">
        <ele>2115.04</ele>
        <time>2017-07-06T10:25:22Z</time>
      </trkpt>
      <trkpt lat="46.169274235144258" lon="11.94796702824533">
        <ele>2114.5599999999999</ele>
        <time>2017-07-06T10:25:45Z</time>
      </trkpt>
      <trkpt lat="46.169272558763623" lon="11.9479616638273">
        <ele>2115.04</ele>
        <time>2017-07-06T10:25:53Z</time>
      </trkpt>
      <trkpt lat="46.169270966202021" lon="11.947973817586899">
        <ele>2114.5599999999999</ele>
        <time>2017-07-06T10:26:15Z</time>
      </trkpt>
      <trkpt lat="46.169263171032071" lon="11.94797633215785">
        <ele>2114.5599999999999</ele>
        <time>2017-07-06T10:26:41Z</time>
      </trkpt>
      <trkpt lat="46.169262500479817" lon="11.947968453168869">
        <ele>2115.04</ele>
        <time>2017-07-06T10:27:07Z</time>
      </trkpt>
      <trkpt lat="46.169258393347263" lon="11.94796753115952">
        <ele>2115.04</ele>
        <time>2017-07-06T10:27:34Z</time>
      </trkpt>
      <trkpt lat="46.169268786907196" lon="11.947964429855347">
        <ele>2115.04</ele>
        <time>2017-07-06T10:28:08Z</time>
      </trkpt>
      <trkpt lat="46.169272474944592" lon="11.947960909456015">
        <ele>2115.04</ele>
        <time>2017-07-06T10:28:34Z</time>
      </trkpt>
      <trkpt lat="46.169280353933573" lon="11.947970381006598">
        <ele>2115.04</ele>
        <time>2017-07-06T10:28:54Z</time>
      </trkpt>
      <trkpt lat="46.169271301478148" lon="11.947968620806932">
        <ele>2115.04</ele>
        <time>2017-07-06T10:29:16Z</time>
      </trkpt>
      <trkpt lat="46.169271133840084" lon="11.947969375178218">
        <ele>2115.04</ele>
        <time>2017-07-06T10:29:45Z</time>
      </trkpt>
      <trkpt lat="46.16926702670753" lon="11.947961580008268">
        <ele>2115.04</ele>
        <time>2017-07-06T10:30:15Z</time>
      </trkpt>
      <trkpt lat="46.16925336420536" lon="11.947959819808602">
        <ele>2115.04</ele>
        <time>2017-07-06T10:30:37Z</time>
      </trkpt>
      <trkpt lat="46.169266104698181" lon="11.947957975789905">
        <ele>2115.04</ele>
        <time>2017-07-06T10:30:57Z</time>
      </trkpt>
      <trkpt lat="46.169270798563957" lon="11.947946660220623">
        <ele>2115.04</ele>
        <time>2017-07-06T10:31:18Z</time>
      </trkpt>
      <trkpt lat="46.169265098869801" lon="11.947944648563862">
        <ele>2115.04</ele>
        <time>2017-07-06T10:31:37Z</time>
      </trkpt>
      <trkpt lat="46.169263841584325" lon="11.947943475097418">
        <ele>2115.04</ele>
        <time>2017-07-06T10:32:00Z</time>
      </trkpt>
      <trkpt lat="46.169270966202021" lon="11.947943056002259">
        <ele>2115.04</ele>
        <time>2017-07-06T10:32:22Z</time>
      </trkpt>
      <trkpt lat="46.169269289821386" lon="11.947951521724463">
        <ele>2115.04</ele>
        <time>2017-07-06T10:32:49Z</time>
      </trkpt>
      <trkpt lat="46.169266607612371" lon="11.947954539209604">
        <ele>2115.04</ele>
        <time>2017-07-06T10:33:25Z</time>
      </trkpt>
      <trkpt lat="46.169271301478148" lon="11.947957891970873">
        <ele>2115.04</ele>
        <time>2017-07-06T10:33:46Z</time>
      </trkpt>
      <trkpt lat="46.169271217659116" lon="11.947957137599587">
        <ele>2115.04</ele>
        <time>2017-07-06T10:34:20Z</time>
      </trkpt>
      <trkpt lat="46.169274738058448" lon="11.947945989668369">
        <ele>2115.04</ele>
        <time>2017-07-06T10:34:50Z</time>
      </trkpt>
      <trkpt lat="46.169271217659116" lon="11.947943056002259">
        <ele>2115.04</ele>
        <time>2017-07-06T10:35:15Z</time>
      </trkpt>
      <trkpt lat="46.16927188821137" lon="11.947944480925798">
        <ele>2115.04</ele>
        <time>2017-07-06T10:35:48Z</time>
      </trkpt>
      <trkpt lat="46.169271552935243" lon="11.947945486754179">
        <ele>2115.04</ele>
        <time>2017-07-06T10:36:11Z</time>
      </trkpt>
      <trkpt lat="46.169275911524892" lon="11.947933919727802">
        <ele>2115.52</ele>
        <time>2017-07-06T10:36:24Z</time>
      </trkpt>
      <trkpt lat="46.169281527400017" lon="11.947948085144162">
        <ele>2115.52</ele>
        <time>2017-07-06T10:36:33Z</time>
      </trkpt>
      <trkpt lat="46.169282952323556" lon="11.947958227247">
        <ele>2115.04</ele>
        <time>2017-07-06T10:36:42Z</time>
      </trkpt>
      <trkpt lat="46.169282197952271" lon="11.947959316894412">
        <ele>2114.5599999999999</ele>
        <time>2017-07-06T10:36:43Z</time>
      </trkpt>
      <trkpt lat="46.169274486601353" lon="11.947943475097418">
        <ele>2115.52</ele>
        <time>2017-07-06T10:36:51Z</time>
      </trkpt>
      <trkpt lat="46.169289238750935" lon="11.947933752089739">
        <ele>2116</ele>
        <time>2017-07-06T10:37:06Z</time>
      </trkpt>
      <trkpt lat="46.169288484379649" lon="11.947933500632644">
        <ele>2116</ele>
        <time>2017-07-06T10:37:21Z</time>
      </trkpt>
      <trkpt lat="46.16926996037364" lon="11.947944145649672">
        <ele>2116</ele>
        <time>2017-07-06T10:37:35Z</time>
      </trkpt>
      <trkpt lat="46.169261578470469" lon="11.947966944426298">
        <ele>2116</ele>
        <time>2017-07-06T10:37:43Z</time>
      </trkpt>
      <trkpt lat="46.169249005615711" lon="11.947975745424628">
        <ele>2116</ele>
        <time>2017-07-06T10:38:01Z</time>
      </trkpt>
      <trkpt lat="46.16927188821137" lon="11.947988485917449">
        <ele>2116.48</ele>
        <time>2017-07-06T10:38:15Z</time>
      </trkpt>
      <trkpt lat="46.169283539056778" lon="11.947987731546164">
        <ele>2116.48</ele>
        <time>2017-07-06T10:38:28Z</time>
      </trkpt>
      <trkpt lat="46.169265853241086" lon="11.947985049337149">
        <ele>2116.48</ele>
        <time>2017-07-06T10:38:43Z</time>
      </trkpt>
      <trkpt lat="46.169264009222388" lon="11.947998041287065">
        <ele>2116.48</ele>
        <time>2017-07-06T10:38:59Z</time>
      </trkpt>
      <trkpt lat="46.169244730845094" lon="11.948004495352507">
        <ele>2115.52</ele>
        <time>2017-07-06T10:39:12Z</time>
      </trkpt>
      <trkpt lat="46.169222015887499" lon="11.948051853105426">
        <ele>2113.5999999999999</ele>
        <time>2017-07-06T10:39:20Z</time>
      </trkpt>
      <trkpt lat="46.169217992573977" lon="11.948086889460683">
        <ele>2113.1199999999999</ele>
        <time>2017-07-06T10:39:28Z</time>
      </trkpt>
      <trkpt lat="46.169197540730238" lon="11.948050176724792">
        <ele>2111.6700000000001</ele>
        <time>2017-07-06T10:39:39Z</time>
      </trkpt>
      <trkpt lat="46.169156469404697" lon="11.948030143976212">
        <ele>2109.75</ele>
        <time>2017-07-06T10:39:50Z</time>
      </trkpt>
      <trkpt lat="46.169123444706202" lon="11.948013212531805">
        <ele>2108.3099999999999</ele>
        <time>2017-07-06T10:40:00Z</time>
      </trkpt>
      <trkpt lat="46.169119421392679" lon="11.947987144812942">
        <ele>2107.8299999999999</ele>
        <time>2017-07-06T10:40:13Z</time>
      </trkpt>
      <trkpt lat="46.169111961498857" lon="11.947983289137483">
        <ele>2107.8299999999999</ele>
        <time>2017-07-06T10:40:28Z</time>
      </trkpt>
      <trkpt lat="46.16910676471889" lon="11.94794992916286">
        <ele>2106.8699999999999</ele>
        <time>2017-07-06T10:40:41Z</time>
      </trkpt>
      <trkpt lat="46.169105255976319" lon="11.947932578623295">
        <ele>2106.8699999999999</ele>
        <time>2017-07-06T10:40:54Z</time>
      </trkpt>
      <trkpt lat="46.16909746080637" lon="11.94788102991879">
        <ele>2104.9400000000001</ele>
        <time>2017-07-06T10:41:04Z</time>
      </trkpt>
      <trkpt lat="46.169083379209042" lon="11.947762006893754">
        <ele>2102.0599999999999</ele>
        <time>2017-07-06T10:41:17Z</time>
      </trkpt>
      <trkpt lat="46.169102573767304" lon="11.947625046595931">
        <ele>2099.1799999999998</ele>
        <time>2017-07-06T10:41:29Z</time>
      </trkpt>
      <trkpt lat="46.169118667021394" lon="11.947532845661044">
        <ele>2098.21</ele>
        <time>2017-07-06T10:41:40Z</time>
      </trkpt>
      <trkpt lat="46.169127719476819" lon="11.947451122105122">
        <ele>2096.77</ele>
        <time>2017-07-06T10:41:51Z</time>
      </trkpt>
      <trkpt lat="46.169143225997686" lon="11.9473279081285">
        <ele>2093.4099999999999</ele>
        <time>2017-07-06T10:42:04Z</time>
      </trkpt>
      <trkpt lat="46.169150350615382" lon="11.947262864559889">
        <ele>2091.4899999999998</ele>
        <time>2017-07-06T10:42:12Z</time>
      </trkpt>
      <trkpt lat="46.169172059744596" lon="11.947172088548541">
        <ele>2089.5599999999999</ele>
        <time>2017-07-06T10:42:22Z</time>
      </trkpt>
      <trkpt lat="46.169175244867802" lon="11.947102518752217">
        <ele>2088.5999999999999</ele>
        <time>2017-07-06T10:42:32Z</time>
      </trkpt>
      <trkpt lat="46.169168120250106" lon="11.947047198191285">
        <ele>2087.1599999999999</ele>
        <time>2017-07-06T10:42:42Z</time>
      </trkpt>
      <trkpt lat="46.169164348393679" lon="11.947025405243039">
        <ele>2086.6799999999998</ele>
        <time>2017-07-06T10:42:45Z</time>
      </trkpt>
      <trkpt lat="46.169170383363962" lon="11.946951393038034">
        <ele>2084.7600000000002</ele>
        <time>2017-07-06T10:42:54Z</time>
      </trkpt>
      <trkpt lat="46.169162839651108" lon="11.946872603148222">
        <ele>2081.8699999999999</ele>
        <time>2017-07-06T10:43:04Z</time>
      </trkpt>
      <trkpt lat="46.169213801622391" lon="11.94678551517427">
        <ele>2079.9499999999998</ele>
        <time>2017-07-06T10:43:15Z</time>
      </trkpt>
      <trkpt lat="46.169214807450771" lon="11.946752239018679">
        <ele>2078.9899999999998</ele>
        <time>2017-07-06T10:43:20Z</time>
      </trkpt>
      <trkpt lat="46.169193601235747" lon="11.946714436635375">
        <ele>2078.0300000000002</ele>
        <time>2017-07-06T10:43:32Z</time>
      </trkpt>
      <trkpt lat="46.169180944561958" lon="11.946657858788967">
        <ele>2075.6199999999999</ele>
        <time>2017-07-06T10:43:42Z</time>
      </trkpt>
      <trkpt lat="46.169188152998686" lon="11.946590216830373">
        <ele>2073.6999999999998</ele>
        <time>2017-07-06T10:43:52Z</time>
      </trkpt>
      <trkpt lat="46.169140879064798" lon="11.946548810228705">
        <ele>2072.2600000000002</ele>
        <time>2017-07-06T10:44:02Z</time>
      </trkpt>
      <trkpt lat="46.169137693941593" lon="11.946540679782629">
        <ele>2071.7800000000002</ele>
        <time>2017-07-06T10:44:03Z</time>
      </trkpt>
      <trkpt lat="46.169115817174315" lon="11.946426099166274">
        <ele>2070.3400000000001</ele>
        <time>2017-07-06T10:44:12Z</time>
      </trkpt>
      <trkpt lat="46.16912730038166" lon="11.946288384497166">
        <ele>2068.8899999999999</ele>
        <time>2017-07-06T10:44:21Z</time>
      </trkpt>
      <trkpt lat="46.169157894328237" lon="11.946164919063449">
        <ele>2066.9699999999998</ele>
        <time>2017-07-06T10:44:31Z</time>
      </trkpt>
      <trkpt lat="46.169181615114212" lon="11.946091493591666">
        <ele>2066.4899999999998</ele>
        <time>2017-07-06T10:44:42Z</time>
      </trkpt>
      <trkpt lat="46.169199300929904" lon="11.946015721186996">
        <ele>2065.0500000000002</ele>
        <time>2017-07-06T10:44:52Z</time>
      </trkpt>
      <trkpt lat="46.169166276231408" lon="11.945997197180986">
        <ele>2064.5700000000002</ele>
        <time>2017-07-06T10:45:02Z</time>
      </trkpt>
      <trkpt lat="46.169160073623061" lon="11.945902984589338">
        <ele>2064.5700000000002</ele>
        <time>2017-07-06T10:45:12Z</time>
      </trkpt>
      <trkpt lat="46.169138113036752" lon="11.945868115872145">
        <ele>2064.5700000000002</ele>
        <time>2017-07-06T10:45:18Z</time>
      </trkpt>
      <trkpt lat="46.169097544625401" lon="11.945775914937258">
        <ele>2064.0900000000001</ele>
        <time>2017-07-06T10:45:29Z</time>
      </trkpt>
      <trkpt lat="46.169084468856454" lon="11.945739034563303">
        <ele>2063.6100000000001</ele>
        <time>2017-07-06T10:45:40Z</time>
      </trkpt>
      <trkpt lat="46.169062675908208" lon="11.945734675973654">
        <ele>2064.0900000000001</ele>
        <time>2017-07-06T10:45:50Z</time>
      </trkpt>
      <trkpt lat="46.169038703665137" lon="11.945742890238762">
        <ele>2064.0900000000001</ele>
        <time>2017-07-06T10:46:03Z</time>
      </trkpt>
      <trkpt lat="46.169005762785673" lon="11.945724952965975">
        <ele>2065.5300000000002</ele>
        <time>2017-07-06T10:46:15Z</time>
      </trkpt>
      <trkpt lat="46.168981287628412" lon="11.94564800709486">
        <ele>2066.0100000000002</ele>
        <time>2017-07-06T10:46:24Z</time>
      </trkpt>
      <trkpt lat="46.168988915160298" lon="11.945607019588351">
        <ele>2065.5300000000002</ele>
        <time>2017-07-06T10:46:37Z</time>
      </trkpt>
      <trkpt lat="46.169002829119563" lon="11.945532588288188">
        <ele>2065.0500000000002</ele>
        <time>2017-07-06T10:46:47Z</time>
      </trkpt>
      <trkpt lat="46.168984221294522" lon="11.945538874715567">
        <ele>2065.0500000000002</ele>
        <time>2017-07-06T10:47:01Z</time>
      </trkpt>
      <trkpt lat="46.168993944302201" lon="11.945486320182681">
        <ele>2065.0500000000002</ele>
        <time>2017-07-06T10:47:11Z</time>
      </trkpt>
      <trkpt lat="46.168999392539263" lon="11.945414654910564">
        <ele>2062.6500000000001</ele>
        <time>2017-07-06T10:47:24Z</time>
      </trkpt>
      <trkpt lat="46.169046331197023" lon="11.945399316027761">
        <ele>2061.1999999999998</ele>
        <time>2017-07-06T10:47:32Z</time>
      </trkpt>
      <trkpt lat="46.169058568775654" lon="11.945382216945291">
        <ele>2059.2800000000002</ele>
        <time>2017-07-06T10:47:44Z</time>
      </trkpt>
      <trkpt lat="46.169079439714551" lon="11.945342235267162">
        <ele>2058.8000000000002</ele>
        <time>2017-07-06T10:47:56Z</time>
      </trkpt>
      <trkpt lat="46.169105339795351" lon="11.945319855585694">
        <ele>2057.8400000000001</ele>
        <time>2017-07-06T10:48:06Z</time>
      </trkpt>
      <trkpt lat="46.16911849938333" lon="11.945318263024092">
        <ele>2056.8800000000001</ele>
        <time>2017-07-06T10:48:16Z</time>
      </trkpt>
      <trkpt lat="46.169113470241427" lon="11.945284986868501">
        <ele>2054.96</ele>
        <time>2017-07-06T10:48:26Z</time>
      </trkpt>
      <trkpt lat="46.169100813567638" lon="11.945251291617751">
        <ele>2053.0300000000002</ele>
        <time>2017-07-06T10:48:37Z</time>
      </trkpt>
      <trkpt lat="46.169110788032413" lon="11.945245508104563">
        <ele>2053.0300000000002</ele>
        <time>2017-07-06T10:48:39Z</time>
      </trkpt>
      <trkpt lat="46.169130736961961" lon="11.945232767611742">
        <ele>2052.5500000000002</ele>
        <time>2017-07-06T10:48:46Z</time>
      </trkpt>
      <trkpt lat="46.169184381142259" lon="11.945197647437453">
        <ele>2051.5900000000001</ele>
        <time>2017-07-06T10:48:58Z</time>
      </trkpt>
      <trkpt lat="46.169202486053109" lon="11.945194881409407">
        <ele>2050.6300000000001</ele>
        <time>2017-07-06T10:49:06Z</time>
      </trkpt>
      <trkpt lat="46.169188320636749" lon="11.945170741528273">
        <ele>2048.71</ele>
        <time>2017-07-06T10:49:16Z</time>
      </trkpt>
      <trkpt lat="46.169179938733578" lon="11.945193875581026">
        <ele>2047.26</ele>
        <time>2017-07-06T10:49:27Z</time>
      </trkpt>
      <trkpt lat="46.169166276231408" lon="11.9451745133847">
        <ele>2047.26</ele>
        <time>2017-07-06T10:49:41Z</time>
      </trkpt>
      <trkpt lat="46.16918689571321" lon="11.945173004642129">
        <ele>2048.23</ele>
        <time>2017-07-06T10:49:55Z</time>
      </trkpt>
      <trkpt lat="46.169201647862792" lon="11.945142494514585">
        <ele>2047.26</ele>
        <time>2017-07-06T10:50:03Z</time>
      </trkpt>
      <trkpt lat="46.169207263737917" lon="11.945120869204402">
        <ele>2045.3399999999999</ele>
        <time>2017-07-06T10:50:12Z</time>
      </trkpt>
      <trkpt lat="46.169206760823727" lon="11.945080049335957">
        <ele>2044.3800000000001</ele>
        <time>2017-07-06T10:50:20Z</time>
      </trkpt>
      <trkpt lat="46.169230313971639" lon="11.945010563358665">
        <ele>2042.46</ele>
        <time>2017-07-06T10:50:29Z</time>
      </trkpt>
      <trkpt lat="46.169239869341254" lon="11.94502891972661">
        <ele>2041.5</ele>
        <time>2017-07-06T10:50:38Z</time>
      </trkpt>
      <trkpt lat="46.169235846027732" lon="11.945050796493888">
        <ele>2041.02</ele>
        <time>2017-07-06T10:50:46Z</time>
      </trkpt>
      <trkpt lat="46.169237606227398" lon="11.945073092356324">
        <ele>2040.05</ele>
        <time>2017-07-06T10:50:55Z</time>
      </trkpt>
      <trkpt lat="46.169220004230738" lon="11.945080049335957">
        <ele>2039.5699999999999</ele>
        <time>2017-07-06T10:51:04Z</time>
      </trkpt>
      <trkpt lat="46.169211454689503" lon="11.945089856162667">
        <ele>2039.5699999999999</ele>
        <time>2017-07-06T10:51:16Z</time>
      </trkpt>
      <trkpt lat="46.169248335063457" lon="11.9450968131423">
        <ele>2039.0899999999999</ele>
        <time>2017-07-06T10:51:24Z</time>
      </trkpt>
      <trkpt lat="46.169262165203691" lon="11.945071332156658">
        <ele>2038.1300000000001</ele>
        <time>2017-07-06T10:51:30Z</time>
      </trkpt>
      <trkpt lat="46.16925336420536" lon="11.94504945538938">
        <ele>2037.6500000000001</ele>
        <time>2017-07-06T10:51:32Z</time>
      </trkpt>
      <trkpt lat="46.169227883219719" lon="11.944986172020435">
        <ele>2036.21</ele>
        <time>2017-07-06T10:51:43Z</time>
      </trkpt>
      <trkpt lat="46.169245233759284" lon="11.944988016039133">
        <ele>2035.73</ele>
        <time>2017-07-06T10:51:49Z</time>
      </trkpt>
      <trkpt lat="46.169290244579315" lon="11.945029674097896">
        <ele>2035.25</ele>
        <time>2017-07-06T10:51:57Z</time>
      </trkpt>
      <trkpt lat="46.169330310076475" lon="11.945002768188715">
        <ele>2034.29</ele>
        <time>2017-07-06T10:52:05Z</time>
      </trkpt>
      <trkpt lat="46.169372890144587" lon="11.944981142878532">
        <ele>2032.8399999999999</ele>
        <time>2017-07-06T10:52:15Z</time>
      </trkpt>
      <trkpt lat="46.169367106631398" lon="11.944938311353326">
        <ele>2031.8800000000001</ele>
        <time>2017-07-06T10:52:25Z</time>
      </trkpt>
      <trkpt lat="46.169366938993335" lon="11.944911573082209">
        <ele>2030.9200000000001</ele>
        <time>2017-07-06T10:52:34Z</time>
      </trkpt>
      <trkpt lat="46.169324861839414" lon="11.944940574467182">
        <ele>2029.48</ele>
        <time>2017-07-06T10:52:44Z</time>
      </trkpt>
      <trkpt lat="46.169331399723887" lon="11.944906208664179">
        <ele>2029</ele>
        <time>2017-07-06T10:52:52Z</time>
      </trkpt>
      <trkpt lat="46.169339194893837" lon="11.944883661344647">
        <ele>2028.52</ele>
        <time>2017-07-06T10:53:01Z</time>
      </trkpt>
      <trkpt lat="46.169375739991665" lon="11.944903945550323">
        <ele>2028.52</ele>
        <time>2017-07-06T10:53:08Z</time>
      </trkpt>
      <trkpt lat="46.169352186843753" lon="11.944878967478871">
        <ele>2028.04</ele>
        <time>2017-07-06T10:53:19Z</time>
      </trkpt>
      <trkpt lat="46.169324778020382" lon="11.944842422381043">
        <ele>2026.5999999999999</ele>
        <time>2017-07-06T10:53:28Z</time>
      </trkpt>
      <trkpt lat="46.16927775554359" lon="11.944786766543984">
        <ele>2023.71</ele>
        <time>2017-07-06T10:53:39Z</time>
      </trkpt>
      <trkpt lat="46.169291920959949" lon="11.944785760715604">
        <ele>2023.23</ele>
        <time>2017-07-06T10:53:51Z</time>
      </trkpt>
      <trkpt lat="46.169328046962619" lon="11.944800345227122">
        <ele>2022.27</ele>
        <time>2017-07-06T10:53:59Z</time>
      </trkpt>
      <trkpt lat="46.169368280097842" lon="11.944816941395402">
        <ele>2020.8299999999999</ele>
        <time>2017-07-06T10:54:06Z</time>
      </trkpt>
      <trkpt lat="46.169384038075805" lon="11.944794226437807">
        <ele>2019.8699999999999</ele>
        <time>2017-07-06T10:54:16Z</time>
      </trkpt>
      <trkpt lat="46.169399125501513" lon="11.944806212559342">
        <ele>2019.8699999999999</ele>
        <time>2017-07-06T10:54:26Z</time>
      </trkpt>
      <trkpt lat="46.169418403878808" lon="11.944813001900911">
        <ele>2019.3900000000001</ele>
        <time>2017-07-06T10:54:35Z</time>
      </trkpt>
      <trkpt lat="46.169440615922213" lon="11.94482465274632">
        <ele>2018.9100000000001</ele>
        <time>2017-07-06T10:54:46Z</time>
      </trkpt>
      <trkpt lat="46.16944145411253" lon="11.944793639704585">
        <ele>2018.4300000000001</ele>
        <time>2017-07-06T10:54:56Z</time>
      </trkpt>
      <trkpt lat="46.169451512396336" lon="11.944772684946656">
        <ele>2017.9400000000001</ele>
        <time>2017-07-06T10:55:07Z</time>
      </trkpt>
      <trkpt lat="46.169466683641076" lon="11.944729518145323">
        <ele>2016.98</ele>
        <time>2017-07-06T10:55:14Z</time>
      </trkpt>
      <trkpt lat="46.169508341699839" lon="11.944688279181719">
        <ele>2017.46</ele>
        <time>2017-07-06T10:55:23Z</time>
      </trkpt>
      <trkpt lat="46.169493673369288" lon="11.94470982067287">
        <ele>2017.9400000000001</ele>
        <time>2017-07-06T10:55:33Z</time>
      </trkpt>
      <trkpt lat="46.169512281194329" lon="11.94466246291995">
        <ele>2017.46</ele>
        <time>2017-07-06T10:55:47Z</time>
      </trkpt>
      <trkpt lat="46.169505575671792" lon="11.944700181484222">
        <ele>2017.46</ele>
        <time>2017-07-06T10:56:07Z</time>
      </trkpt>
      <trkpt lat="46.169544467702508" lon="11.944652572274208">
        <ele>2016.5</ele>
        <time>2017-07-06T10:56:13Z</time>
      </trkpt>
      <trkpt lat="46.169567434117198" lon="11.944576967507601">
        <ele>2015.0599999999999</ele>
        <time>2017-07-06T10:56:22Z</time>
      </trkpt>
      <trkpt lat="46.169563746079803" lon="11.944549977779388">
        <ele>2013.6199999999999</ele>
        <time>2017-07-06T10:56:27Z</time>
      </trkpt>
      <trkpt lat="46.169605236500502" lon="11.944470265880227">
        <ele>2010.73</ele>
        <time>2017-07-06T10:56:38Z</time>
      </trkpt>
      <trkpt lat="46.16956751793623" lon="11.944455010816455">
        <ele>2009.77</ele>
        <time>2017-07-06T10:56:48Z</time>
      </trkpt>
      <trkpt lat="46.169570200145245" lon="11.944416034966707">
        <ele>2008.3299999999999</ele>
        <time>2017-07-06T10:56:55Z</time>
      </trkpt>
      <trkpt lat="46.169595932587981" lon="11.944376891478896">
        <ele>2007.8499999999999</ele>
        <time>2017-07-06T10:57:07Z</time>
      </trkpt>
      <trkpt lat="46.16960322484374" lon="11.944368593394756">
        <ele>2006.8900000000001</ele>
        <time>2017-07-06T10:57:15Z</time>
      </trkpt>
      <trkpt lat="46.169671704992652" lon="11.944327605888247">
        <ele>2004.97</ele>
        <time>2017-07-06T10:57:25Z</time>
      </trkpt>
      <trkpt lat="46.16970825009048" lon="11.94427446462214">
        <ele>2004.01</ele>
        <time>2017-07-06T10:57:35Z</time>
      </trkpt>
      <trkpt lat="46.169716715812683" lon="11.944209169596434">
        <ele>2003.04</ele>
        <time>2017-07-06T10:57:44Z</time>
      </trkpt>
      <trkpt lat="46.169706238433719" lon="11.944124344736338">
        <ele>2002.0799999999999</ele>
        <time>2017-07-06T10:57:54Z</time>
      </trkpt>
      <trkpt lat="46.169746639207006" lon="11.944068940356374">
        <ele>2000.1600000000001</ele>
        <time>2017-07-06T10:58:06Z</time>
      </trkpt>
      <trkpt lat="46.169753763824701" lon="11.94404773414135">
        <ele>1999.6800000000001</ele>
        <time>2017-07-06T10:58:08Z</time>
      </trkpt>
      <trkpt lat="46.169765749946237" lon="11.944016385823488">
        <ele>1998.24</ele>
        <time>2017-07-06T10:58:16Z</time>
      </trkpt>
      <trkpt lat="46.169738508760929" lon="11.94402233697474">
        <ele>1997.28</ele>
        <time>2017-07-06T10:58:21Z</time>
      </trkpt>
      <trkpt lat="46.16971462033689" lon="11.944021917879581">
        <ele>1996.8</ele>
        <time>2017-07-06T10:58:23Z</time>
      </trkpt>
      <trkpt lat="46.169664580374956" lon="11.943974057212472">
        <ele>1993.9100000000001</ele>
        <time>2017-07-06T10:58:33Z</time>
      </trkpt>
      <trkpt lat="46.169704645872116" lon="11.943926364183426">
        <ele>1993.4300000000001</ele>
        <time>2017-07-06T10:58:44Z</time>
      </trkpt>
      <trkpt lat="46.16968771442771" lon="11.943874480202794">
        <ele>1990.0699999999999</ele>
        <time>2017-07-06T10:58:51Z</time>
      </trkpt>
      <trkpt lat="46.16969115100801" lon="11.943865427747369">
        <ele>1990.0699999999999</ele>
        <time>2017-07-06T10:58:52Z</time>
      </trkpt>
      <trkpt lat="46.169698527082801" lon="11.943821255117655">
        <ele>1987.6600000000001</ele>
        <time>2017-07-06T10:59:02Z</time>
      </trkpt>
      <trkpt lat="46.169705567881465" lon="11.943768952041864">
        <ele>1985.74</ele>
        <time>2017-07-06T10:59:11Z</time>
      </trkpt>
      <trkpt lat="46.169687965884805" lon="11.943753194063902">
        <ele>1984.3</ele>
        <time>2017-07-06T10:59:20Z</time>
      </trkpt>
      <trkpt lat="46.169668436050415" lon="11.943780770525336">
        <ele>1984.3</ele>
        <time>2017-07-06T10:59:39Z</time>
      </trkpt>
      <trkpt lat="46.169621413573623" lon="11.943760821595788">
        <ele>1981.9000000000001</ele>
        <time>2017-07-06T10:59:49Z</time>
      </trkpt>
      <trkpt lat="46.169661479070783" lon="11.943692257627845">
        <ele>1980.9300000000001</ele>
        <time>2017-07-06T11:00:00Z</time>
      </trkpt>
      <trkpt lat="46.169682098552585" lon="11.94366610608995">
        <ele>1979.97</ele>
        <time>2017-07-06T11:00:10Z</time>
      </trkpt>
      <trkpt lat="46.16961881518364" lon="11.943657221272588">
        <ele>1976.6099999999999</ele>
        <time>2017-07-06T11:00:21Z</time>
      </trkpt>
      <trkpt lat="46.169671537354589" lon="11.943553537130356">
        <ele>1974.2</ele>
        <time>2017-07-06T11:00:34Z</time>
      </trkpt>
      <trkpt lat="46.169675728306174" lon="11.943508358672261">
        <ele>1972.28</ele>
        <time>2017-07-06T11:00:44Z</time>
      </trkpt>
      <trkpt lat="46.169634824618697" lon="11.943502072244883">
        <ele>1970.8399999999999</ele>
        <time>2017-07-06T11:00:55Z</time>
      </trkpt>
      <trkpt lat="46.169639015570283" lon="11.943500731140375">
        <ele>1969.4000000000001</ele>
        <time>2017-07-06T11:00:58Z</time>
      </trkpt>
      <trkpt lat="46.169678075239062" lon="11.943459827452898">
        <ele>1969.4000000000001</ele>
        <time>2017-07-06T11:01:13Z</time>
      </trkpt>
      <trkpt lat="46.169673465192318" lon="11.943401573225856">
        <ele>1966.99</ele>
        <time>2017-07-06T11:01:23Z</time>
      </trkpt>
      <trkpt lat="46.169684529304504" lon="11.943349773064256">
        <ele>1965.0699999999999</ele>
        <time>2017-07-06T11:01:33Z</time>
      </trkpt>
      <trkpt lat="46.169676231220365" lon="11.943307528272271">
        <ele>1963.6300000000001</ele>
        <time>2017-07-06T11:01:43Z</time>
      </trkpt>
      <trkpt lat="46.169671285897493" lon="11.943285400047898">
        <ele>1962.1900000000001</ele>
        <time>2017-07-06T11:01:58Z</time>
      </trkpt>
      <trkpt lat="46.169636081904173" lon="11.943241646513343">
        <ele>1959.78</ele>
        <time>2017-07-06T11:02:08Z</time>
      </trkpt>
      <trkpt lat="46.169629208743572" lon="11.943201664835215">
        <ele>1958.3399999999999</ele>
        <time>2017-07-06T11:02:18Z</time>
      </trkpt>
      <trkpt lat="46.169640775769949" lon="11.94315355271101">
        <ele>1955.9400000000001</ele>
        <time>2017-07-06T11:02:26Z</time>
      </trkpt>
      <trkpt lat="46.169600039720535" lon="11.943152211606503">
        <ele>1954.5</ele>
        <time>2017-07-06T11:02:35Z</time>
      </trkpt>
      <trkpt lat="46.169590149074793" lon="11.94314181804657">
        <ele>1953.0599999999999</ele>
        <time>2017-07-06T11:02:43Z</time>
      </trkpt>
      <trkpt lat="46.169605571776628" lon="11.943055903539062">
        <ele>1949.6900000000001</ele>
        <time>2017-07-06T11:02:58Z</time>
      </trkpt>
      <trkpt lat="46.169618396088481" lon="11.942960182204843">
        <ele>1946.8099999999999</ele>
        <time>2017-07-06T11:03:10Z</time>
      </trkpt>
      <trkpt lat="46.169594004750252" lon="11.942995470017195">
        <ele>1947.29</ele>
        <time>2017-07-06T11:03:20Z</time>
      </trkpt>
      <trkpt lat="46.169612696394324" lon="11.942934785038233">
        <ele>1944.8800000000001</ele>
        <time>2017-07-06T11:03:30Z</time>
      </trkpt>
      <trkpt lat="46.169638009741902" lon="11.94288432598114">
        <ele>1942.96</ele>
        <time>2017-07-06T11:03:38Z</time>
      </trkpt>
      <trkpt lat="46.169613115489483" lon="11.942833447828889">
        <ele>1940.5599999999999</ele>
        <time>2017-07-06T11:03:47Z</time>
      </trkpt>
      <trkpt lat="46.16959735751152" lon="11.942796818912029">
        <ele>1938.1600000000001</ele>
        <time>2017-07-06T11:03:57Z</time>
      </trkpt>
      <trkpt lat="46.16959392093122" lon="11.94279195740819">
        <ele>1938.1600000000001</ele>
        <time>2017-07-06T11:03:58Z</time>
      </trkpt>
      <trkpt lat="46.169595764949918" lon="11.942734122276306">
        <ele>1936.23</ele>
        <time>2017-07-06T11:04:07Z</time>
      </trkpt>
      <trkpt lat="46.169605404138565" lon="11.942682322114706">
        <ele>1934.79</ele>
        <time>2017-07-06T11:04:16Z</time>
      </trkpt>
      <trkpt lat="46.169601213186979" lon="11.942657511681318">
        <ele>1932.8699999999999</ele>
        <time>2017-07-06T11:04:26Z</time>
      </trkpt>
      <trkpt lat="46.169581431895494" lon="11.942619290202856">
        <ele>1930.95</ele>
        <time>2017-07-06T11:04:35Z</time>
      </trkpt>
      <trkpt lat="46.169582353904843" lon="11.942592635750771">
        <ele>1929.98</ele>
        <time>2017-07-06T11:04:39Z</time>
      </trkpt>
      <trkpt lat="46.169524015858769" lon="11.942541673779488">
        <ele>1928.0599999999999</ele>
        <time>2017-07-06T11:04:49Z</time>
      </trkpt>
      <trkpt lat="46.169479256495833" lon="11.942464392632246">
        <ele>1925.6600000000001</ele>
        <time>2017-07-06T11:04:59Z</time>
      </trkpt>
      <trkpt lat="46.169471964240074" lon="11.942407479509711">
        <ele>1924.7</ele>
        <time>2017-07-06T11:05:09Z</time>
      </trkpt>
      <trkpt lat="46.169458217918873" lon="11.942408150061965">
        <ele>1924.7</ele>
        <time>2017-07-06T11:05:11Z</time>
      </trkpt>
      <trkpt lat="46.16941119544208" lon="11.942408485338092">
        <ele>1924.22</ele>
        <time>2017-07-06T11:05:15Z</time>
      </trkpt>
      <trkpt lat="46.169296698644757" lon="11.942296670749784">
        <ele>1922.29</ele>
        <time>2017-07-06T11:05:28Z</time>
      </trkpt>
      <trkpt lat="46.169265182688832" lon="11.942272363230586">
        <ele>1921.8099999999999</ele>
        <time>2017-07-06T11:05:32Z</time>
      </trkpt>
      <trkpt lat="46.169241042807698" lon="11.942248474806547">
        <ele>1921.3299999999999</ele>
        <time>2017-07-06T11:05:35Z</time>
      </trkpt>
      <trkpt lat="46.169228050857782" lon="11.942167924717069">
        <ele>1919.8900000000001</ele>
        <time>2017-07-06T11:05:41Z</time>
      </trkpt>
      <trkpt lat="46.16925185546279" lon="11.942128445953131">
        <ele>1918.9300000000001</ele>
        <time>2017-07-06T11:05:44Z</time>
      </trkpt>
      <trkpt lat="46.169218076393008" lon="11.942061055451632">
        <ele>1918.45</ele>
        <time>2017-07-06T11:05:50Z</time>
      </trkpt>
      <trkpt lat="46.169091342017055" lon="11.941989054903388">
        <ele>1916.04</ele>
        <time>2017-07-06T11:06:03Z</time>
      </trkpt>
      <trkpt lat="46.169021604582667" lon="11.941917892545462">
        <ele>1915.0799999999999</ele>
        <time>2017-07-06T11:06:14Z</time>
      </trkpt>
      <trkpt lat="46.169024202972651" lon="11.941915210336447">
        <ele>1914.1199999999999</ele>
        <time>2017-07-06T11:06:26Z</time>
      </trkpt>
      <trkpt lat="46.168984724208713" lon="11.941853603348136">
        <ele>1914.1199999999999</ele>
        <time>2017-07-06T11:06:38Z</time>
      </trkpt>
      <trkpt lat="46.16892303340137" lon="11.941791158169508">
        <ele>1913.6400000000001</ele>
        <time>2017-07-06T11:06:50Z</time>
      </trkpt>
      <trkpt lat="46.168887661769986" lon="11.941672973334789">
        <ele>1912.2</ele>
        <time>2017-07-06T11:07:02Z</time>
      </trkpt>
      <trkpt lat="46.168790934607387" lon="11.941559314727783">
        <ele>1911.72</ele>
        <time>2017-07-06T11:07:15Z</time>
      </trkpt>
      <trkpt lat="46.168762352317572" lon="11.941425204277039">
        <ele>1911.24</ele>
        <time>2017-07-06T11:07:24Z</time>
      </trkpt>
      <trkpt lat="46.1687539704144" lon="11.94130408577621">
        <ele>1909.8</ele>
        <time>2017-07-06T11:07:31Z</time>
      </trkpt>
      <trkpt lat="46.168763441964984" lon="11.941240634769201">
        <ele>1910.28</ele>
        <time>2017-07-06T11:07:35Z</time>
      </trkpt>
      <trkpt lat="46.168693201616406" lon="11.941128149628639">
        <ele>1908.8299999999999</ele>
        <time>2017-07-06T11:07:48Z</time>
      </trkpt>
      <trkpt lat="46.168645173311234" lon="11.941017676144838">
        <ele>1910.28</ele>
        <time>2017-07-06T11:08:00Z</time>
      </trkpt>
      <trkpt lat="46.168595971539617" lon="11.940922541543841">
        <ele>1910.76</ele>
        <time>2017-07-06T11:08:10Z</time>
      </trkpt>
      <trkpt lat="46.16853947751224" lon="11.940795471891761">
        <ele>1911.24</ele>
        <time>2017-07-06T11:08:21Z</time>
      </trkpt>
      <trkpt lat="46.168525563552976" lon="11.940720789134502">
        <ele>1910.76</ele>
        <time>2017-07-06T11:08:27Z</time>
      </trkpt>
      <trkpt lat="46.168473763391376" lon="11.94061266258359">
        <ele>1910.76</ele>
        <time>2017-07-06T11:08:37Z</time>
      </trkpt>
      <trkpt lat="46.168454485014081" lon="11.940591875463724">
        <ele>1911.24</ele>
        <time>2017-07-06T11:08:41Z</time>
      </trkpt>
      <trkpt lat="46.168401008471847" lon="11.940481569617987">
        <ele>1910.76</ele>
        <time>2017-07-06T11:08:52Z</time>
      </trkpt>
      <trkpt lat="46.168368402868509" lon="11.940464889630675">
        <ele>1911.24</ele>
        <time>2017-07-06T11:08:59Z</time>
      </trkpt>
      <trkpt lat="46.16834937594831" lon="11.940437396988273">
        <ele>1911.72</ele>
        <time>2017-07-06T11:09:08Z</time>
      </trkpt>
      <trkpt lat="46.168307801708579" lon="11.940420465543866">
        <ele>1912.2</ele>
        <time>2017-07-06T11:09:18Z</time>
      </trkpt>
      <trkpt lat="46.168302521109581" lon="11.940441252663732">
        <ele>1912.2</ele>
        <time>2017-07-06T11:09:33Z</time>
      </trkpt>
      <trkpt lat="46.168298246338964" lon="11.940395319834352">
        <ele>1912.2</ele>
        <time>2017-07-06T11:09:43Z</time>
      </trkpt>
      <trkpt lat="46.168288355693221" lon="11.940257186070085">
        <ele>1914.1199999999999</ele>
        <time>2017-07-06T11:09:56Z</time>
      </trkpt>
      <trkpt lat="46.16826438345015" lon="11.940120561048388">
        <ele>1916.04</ele>
        <time>2017-07-06T11:10:10Z</time>
      </trkpt>
      <trkpt lat="46.168245524168015" lon="11.940054344013333">
        <ele>1917.49</ele>
        <time>2017-07-06T11:10:21Z</time>
      </trkpt>
      <trkpt lat="46.168246865272522" lon="11.939967926591635">
        <ele>1918.9300000000001</ele>
        <time>2017-07-06T11:10:33Z</time>
      </trkpt>
      <trkpt lat="46.168244937434793" lon="11.939864996820688">
        <ele>1920.8499999999999</ele>
        <time>2017-07-06T11:10:44Z</time>
      </trkpt>
      <trkpt lat="46.168261952698231" lon="11.939730970188975">
        <ele>1922.77</ele>
        <time>2017-07-06T11:10:58Z</time>
      </trkpt>
      <trkpt lat="46.16825507953763" lon="11.939608259126544">
        <ele>1924.7</ele>
        <time>2017-07-06T11:11:13Z</time>
      </trkpt>
      <trkpt lat="46.168239237740636" lon="11.939519746229053">
        <ele>1925.6600000000001</ele>
        <time>2017-07-06T11:11:23Z</time>
      </trkpt>
      <trkpt lat="46.168228760361671" lon="11.939495271071792">
        <ele>1926.1400000000001</ele>
        <time>2017-07-06T11:11:33Z</time>
      </trkpt>
      <trkpt lat="46.168253570795059" lon="11.939447829499841">
        <ele>1926.1400000000001</ele>
        <time>2017-07-06T11:11:44Z</time>
      </trkpt>
      <trkpt lat="46.168276621028781" lon="11.939421929419041">
        <ele>1925.6600000000001</ele>
        <time>2017-07-06T11:11:47Z</time>
      </trkpt>
      <trkpt lat="46.168365553021431" lon="11.939374404028058">
        <ele>1926.6199999999999</ele>
        <time>2017-07-06T11:11:56Z</time>
      </trkpt>
      <trkpt lat="46.168352477252483" lon="11.939378930255771">
        <ele>1925.1800000000001</ele>
        <time>2017-07-06T11:12:07Z</time>
      </trkpt>
      <trkpt lat="46.168353734537959" lon="11.939368955790997">
        <ele>1925.6600000000001</ele>
        <time>2017-07-06T11:12:28Z</time>
      </trkpt>
      <trkpt lat="46.168342167511582" lon="11.939366944134235">
        <ele>1925.6600000000001</ele>
        <time>2017-07-06T11:12:57Z</time>
      </trkpt>
      <trkpt lat="46.168306125327945" lon="11.939369961619377">
        <ele>1925.1800000000001</ele>
        <time>2017-07-06T11:13:25Z</time>
      </trkpt>
      <trkpt lat="46.168282404541969" lon="11.939383456483483">
        <ele>1925.1800000000001</ele>
        <time>2017-07-06T11:13:48Z</time>
      </trkpt>
      <trkpt lat="46.168303275480866" lon="11.939375912770629">
        <ele>1925.1800000000001</ele>
        <time>2017-07-06T11:14:16Z</time>
      </trkpt>
      <trkpt lat="46.168303024023771" lon="11.939370883628726">
        <ele>1925.1800000000001</ele>
        <time>2017-07-06T11:14:42Z</time>
      </trkpt>
      <trkpt lat="46.168325403705239" lon="11.939385551959276">
        <ele>1924.7</ele>
        <time>2017-07-06T11:15:10Z</time>
      </trkpt>
      <trkpt lat="46.168306628242135" lon="11.939379181712866">
        <ele>1924.7</ele>
        <time>2017-07-06T11:15:37Z</time>
      </trkpt>
      <trkpt lat="46.168297659605742" lon="11.939385049045086">
        <ele>1924.7</ele>
        <time>2017-07-06T11:15:55Z</time>
      </trkpt>
      <trkpt lat="46.168287517502904" lon="11.939394688233733">
        <ele>1924.7</ele>
        <time>2017-07-06T11:16:17Z</time>
      </trkpt>
      <trkpt lat="46.168290032073855" lon="11.93938622251153">
        <ele>1924.7</ele>
        <time>2017-07-06T11:16:33Z</time>
      </trkpt>
      <trkpt lat="46.168287349864841" lon="11.939379684627056">
        <ele>1924.22</ele>
        <time>2017-07-06T11:16:59Z</time>
      </trkpt>
      <trkpt lat="46.16832590661943" lon="11.939357472583652">
        <ele>1924.22</ele>
        <time>2017-07-06T11:17:27Z</time>
      </trkpt>
      <trkpt lat="46.168321715667844" lon="11.939364010468125">
        <ele>1924.22</ele>
        <time>2017-07-06T11:17:55Z</time>
      </trkpt>
      <trkpt lat="46.168334539979696" lon="11.939374152570963">
        <ele>1924.22</ele>
        <time>2017-07-06T11:18:22Z</time>
      </trkpt>
      <trkpt lat="46.16831568069756" lon="11.93936325609684">
        <ele>1924.22</ele>
        <time>2017-07-06T11:18:48Z</time>
      </trkpt>
      <trkpt lat="46.168325319886208" lon="11.939363172277808">
        <ele>1923.74</ele>
        <time>2017-07-06T11:19:14Z</time>
      </trkpt>
      <trkpt lat="46.168314758688211" lon="11.939396029338241">
        <ele>1923.74</ele>
        <time>2017-07-06T11:19:33Z</time>
      </trkpt>
      <trkpt lat="46.168333534151316" lon="11.939403740689158">
        <ele>1923.74</ele>
        <time>2017-07-06T11:19:53Z</time>
      </trkpt>
      <trkpt lat="46.168331019580364" lon="11.939383121207356">
        <ele>1924.22</ele>
        <time>2017-07-06T11:20:17Z</time>
      </trkpt>
      <trkpt lat="46.168324565514922" lon="11.939393766224384">
        <ele>1923.74</ele>
        <time>2017-07-06T11:20:38Z</time>
      </trkpt>
      <trkpt lat="46.168306209146976" lon="11.939399968832731">
        <ele>1923.25</ele>
        <time>2017-07-06T11:21:10Z</time>
      </trkpt>
      <trkpt lat="46.168330851942301" lon="11.939388485625386">
        <ele>1923.25</ele>
        <time>2017-07-06T11:21:33Z</time>
      </trkpt>
      <trkpt lat="46.168316770344973" lon="11.939377002418041">
        <ele>1923.25</ele>
        <time>2017-07-06T11:21:57Z</time>
      </trkpt>
      <trkpt lat="46.168312411755323" lon="11.939367027953267">
        <ele>1923.25</ele>
        <time>2017-07-06T11:22:26Z</time>
      </trkpt>
      <trkpt lat="46.168316267430782" lon="11.939354287460446">
        <ele>1923.25</ele>
        <time>2017-07-06T11:22:54Z</time>
      </trkpt>
      <trkpt lat="46.168328085914254" lon="11.939370799809694">
        <ele>1922.77</ele>
        <time>2017-07-06T11:23:29Z</time>
      </trkpt>
      <trkpt lat="46.168325571343303" lon="11.939388569444418">
        <ele>1923.25</ele>
        <time>2017-07-06T11:24:01Z</time>
      </trkpt>
      <trkpt lat="46.168327331542969" lon="11.93939795717597">
        <ele>1922.29</ele>
        <time>2017-07-06T11:24:29Z</time>
      </trkpt>
      <trkpt lat="46.168318446725607" lon="11.939391670748591">
        <ele>1922.29</ele>
        <time>2017-07-06T11:24:46Z</time>
      </trkpt>
      <trkpt lat="46.168314423412085" lon="11.939373062923551">
        <ele>1923.25</ele>
        <time>2017-07-06T11:24:52Z</time>
      </trkpt>
      <trkpt lat="46.168334539979696" lon="11.939332913607359">
        <ele>1923.74</ele>
        <time>2017-07-06T11:25:01Z</time>
      </trkpt>
      <trkpt lat="46.168334037065506" lon="11.939338194206357">
        <ele>1923.25</ele>
        <time>2017-07-06T11:25:10Z</time>
      </trkpt>
      <trkpt lat="46.168312914669514" lon="11.939386641606688">
        <ele>1923.25</ele>
        <time>2017-07-06T11:25:23Z</time>
      </trkpt>
      <trkpt lat="46.168316686525941" lon="11.939374320209026">
        <ele>1923.74</ele>
        <time>2017-07-06T11:25:36Z</time>
      </trkpt>
      <trkpt lat="46.168319284915924" lon="11.939356382936239">
        <ele>1923.74</ele>
        <time>2017-07-06T11:25:48Z</time>
      </trkpt>
      <trkpt lat="46.168325152248144" lon="11.93941161967814">
        <ele>1922.77</ele>
        <time>2017-07-06T11:26:05Z</time>
      </trkpt>
      <trkpt lat="46.168299755081534" lon="11.939411116763949">
        <ele>1922.77</ele>
        <time>2017-07-06T11:26:18Z</time>
      </trkpt>
      <trkpt lat="46.168248960748315" lon="11.939433580264449">
        <ele>1923.74</ele>
        <time>2017-07-06T11:26:28Z</time>
      </trkpt>
      <trkpt lat="46.168225659057498" lon="11.939451266080141">
        <ele>1923.74</ele>
        <time>2017-07-06T11:26:40Z</time>
      </trkpt>
      <trkpt lat="46.168221971020103" lon="11.939438944682479">
        <ele>1923.25</ele>
        <time>2017-07-06T11:26:56Z</time>
      </trkpt>
      <trkpt lat="46.168224317952991" lon="11.939428886398673">
        <ele>1922.77</ele>
        <time>2017-07-06T11:27:13Z</time>
      </trkpt>
      <trkpt lat="46.168218785896897" lon="11.939430562779307">
        <ele>1923.25</ele>
        <time>2017-07-06T11:27:28Z</time>
      </trkpt>
      <trkpt lat="46.168217025697231" lon="11.939436597749591">
        <ele>1922.77</ele>
        <time>2017-07-06T11:27:43Z</time>
      </trkpt>
      <trkpt lat="46.168183833360672" lon="11.939416145905852">
        <ele>1920.8499999999999</ele>
        <time>2017-07-06T11:27:53Z</time>
      </trkpt>
      <trkpt lat="46.168089620769024" lon="11.93931388668716">
        <ele>1921.3299999999999</ele>
        <time>2017-07-06T11:28:06Z</time>
      </trkpt>
      <trkpt lat="46.168042682111263" lon="11.939304666593671">
        <ele>1921.3299999999999</ele>
        <time>2017-07-06T11:28:11Z</time>
      </trkpt>
      <trkpt lat="46.167987948283553" lon="11.939287735149264">
        <ele>1922.29</ele>
        <time>2017-07-06T11:28:19Z</time>
      </trkpt>
      <trkpt lat="46.167885521426797" lon="11.939241969957948">
        <ele>1920.3699999999999</ele>
        <time>2017-07-06T11:28:29Z</time>
      </trkpt>
      <trkpt lat="46.16786272265017" lon="11.939231744036078">
        <ele>1920.8499999999999</ele>
        <time>2017-07-06T11:28:32Z</time>
      </trkpt>
      <trkpt lat="46.16782215423882" lon="11.939233001321554">
        <ele>1920.3699999999999</ele>
        <time>2017-07-06T11:28:36Z</time>
      </trkpt>
      <trkpt lat="46.167772868648171" lon="11.93920492194593">
        <ele>1919.8900000000001</ele>
        <time>2017-07-06T11:28:48Z</time>
      </trkpt>
      <trkpt lat="46.16770732216537" lon="11.939150523394346">
        <ele>1921.3299999999999</ele>
        <time>2017-07-06T11:28:59Z</time>
      </trkpt>
      <trkpt lat="46.167686954140663" lon="11.939146751537919">
        <ele>1920.3699999999999</ele>
        <time>2017-07-06T11:29:01Z</time>
      </trkpt>
      <trkpt lat="46.167602883651853" lon="11.939052036032081">
        <ele>1920.3699999999999</ele>
        <time>2017-07-06T11:29:11Z</time>
      </trkpt>
      <trkpt lat="46.167560890316963" lon="11.938874088227749">
        <ele>1917.97</ele>
        <time>2017-07-06T11:29:25Z</time>
      </trkpt>
      <trkpt lat="46.167534571141005" lon="11.938805440440774">
        <ele>1916.53</ele>
        <time>2017-07-06T11:29:34Z</time>
      </trkpt>
      <trkpt lat="46.167514957487583" lon="11.938665462657809">
        <ele>1913.6400000000001</ele>
        <time>2017-07-06T11:29:45Z</time>
      </trkpt>
      <trkpt lat="46.167485034093261" lon="11.938595389947295">
        <ele>1911.72</ele>
        <time>2017-07-06T11:29:54Z</time>
      </trkpt>
      <trkpt lat="46.167443376034498" lon="11.938541494309902">
        <ele>1909.8</ele>
        <time>2017-07-06T11:30:01Z</time>
      </trkpt>
      <trkpt lat="46.167358132079244" lon="11.938570998609066">
        <ele>1907.8699999999999</ele>
        <time>2017-07-06T11:30:11Z</time>
      </trkpt>
      <trkpt lat="46.167345978319645" lon="11.93854384124279">
        <ele>1906.9100000000001</ele>
        <time>2017-07-06T11:30:20Z</time>
      </trkpt>
      <trkpt lat="46.167288310825825" lon="11.938524143770337">
        <ele>1904.99</ele>
        <time>2017-07-06T11:30:29Z</time>
      </trkpt>
      <trkpt lat="46.167249167338014" lon="11.938523389399052">
        <ele>1903.0699999999999</ele>
        <time>2017-07-06T11:30:37Z</time>
      </trkpt>
      <trkpt lat="46.167253358289599" lon="11.938564712181687">
        <ele>1902.1099999999999</ele>
        <time>2017-07-06T11:30:46Z</time>
      </trkpt>
      <trkpt lat="46.167220501229167" lon="11.938541494309902">
        <ele>1899.7</ele>
        <time>2017-07-06T11:30:54Z</time>
      </trkpt>
      <trkpt lat="46.167154451832175" lon="11.938537806272507">
        <ele>1897.3</ele>
        <time>2017-07-06T11:31:04Z</time>
      </trkpt>
      <trkpt lat="46.167120169848204" lon="11.938484497368336">
        <ele>1895.8599999999999</ele>
        <time>2017-07-06T11:31:13Z</time>
      </trkpt>
      <trkpt lat="46.167083121836185" lon="11.938488269224763">
        <ele>1893.9300000000001</ele>
        <time>2017-07-06T11:31:23Z</time>
      </trkpt>
      <trkpt lat="46.167086055502295" lon="11.938494220376015">
        <ele>1893.45</ele>
        <time>2017-07-06T11:31:34Z</time>
      </trkpt>
      <trkpt lat="46.167089492082596" lon="11.938543254509568">
        <ele>1892.49</ele>
        <time>2017-07-06T11:31:43Z</time>
      </trkpt>
      <trkpt lat="46.16705596446991" lon="11.938634868711233">
        <ele>1890.5699999999999</ele>
        <time>2017-07-06T11:31:53Z</time>
      </trkpt>
      <trkpt lat="46.167030148208141" lon="11.938700247555971">
        <ele>1888.6500000000001</ele>
        <time>2017-07-06T11:32:03Z</time>
      </trkpt>
      <trkpt lat="46.167002404108644" lon="11.938656913116574">
        <ele>1886.24</ele>
        <time>2017-07-06T11:32:13Z</time>
      </trkpt>
      <trkpt lat="46.166957896202803" lon="11.938732350245118">
        <ele>1883.8399999999999</ele>
        <time>2017-07-06T11:32:25Z</time>
      </trkpt>
      <trkpt lat="46.166952196508646" lon="11.938742492347956">
        <ele>1883.3599999999999</ele>
        <time>2017-07-06T11:32:26Z</time>
      </trkpt>
      <trkpt lat="46.166934510692954" lon="11.938704270869493">
        <ele>1882.4000000000001</ele>
        <time>2017-07-06T11:32:33Z</time>
      </trkpt>
      <trkpt lat="46.16693333722651" lon="11.938705695793033">
        <ele>1881.9200000000001</ele>
        <time>2017-07-06T11:32:34Z</time>
      </trkpt>
      <trkpt lat="46.166909616440535" lon="11.938684405758977">
        <ele>1880</ele>
        <time>2017-07-06T11:32:43Z</time>
      </trkpt>
      <trkpt lat="46.166908275336027" lon="11.938673341646791">
        <ele>1880</ele>
        <time>2017-07-06T11:32:44Z</time>
      </trkpt>
      <trkpt lat="46.166859827935696" lon="11.938665378838778">
        <ele>1878.0699999999999</ele>
        <time>2017-07-06T11:32:53Z</time>
      </trkpt>
      <trkpt lat="46.16680484265089" lon="11.938690273091197">
        <ele>1876.1500000000001</ele>
        <time>2017-07-06T11:33:01Z</time>
      </trkpt>
      <trkpt lat="46.166778858751059" lon="11.938621122390032">
        <ele>1874.71</ele>
        <time>2017-07-06T11:33:07Z</time>
      </trkpt>
      <trkpt lat="46.166759580373764" lon="11.938487514853477">
        <ele>1871.8199999999999</ele>
        <time>2017-07-06T11:33:18Z</time>
      </trkpt>
      <trkpt lat="46.166758490726352" lon="11.9383879378438">
        <ele>1870.3800000000001</ele>
        <time>2017-07-06T11:33:27Z</time>
      </trkpt>
      <trkpt lat="46.166771985590458" lon="11.938310237601399">
        <ele>1869.4200000000001</ele>
        <time>2017-07-06T11:33:37Z</time>
      </trkpt>
      <trkpt lat="46.16679310798645" lon="11.938330857083201">
        <ele>1869.9000000000001</ele>
        <time>2017-07-06T11:33:49Z</time>
      </trkpt>
      <trkpt lat="46.166803585365415" lon="11.938293557614088">
        <ele>1867.02</ele>
        <time>2017-07-06T11:34:03Z</time>
      </trkpt>
      <trkpt lat="46.16676620207727" lon="11.938218288123608">
        <ele>1865.0899999999999</ele>
        <time>2017-07-06T11:34:14Z</time>
      </trkpt>
      <trkpt lat="46.166742565110326" lon="11.938176546245813">
        <ele>1864.1300000000001</ele>
        <time>2017-07-06T11:34:22Z</time>
      </trkpt>
      <trkpt lat="46.166741475462914" lon="11.938161375001073">
        <ele>1863.1700000000001</ele>
        <time>2017-07-06T11:34:32Z</time>
      </trkpt>
      <trkpt lat="46.166753126308322" lon="11.938219545409083">
        <ele>1863.6500000000001</ele>
        <time>2017-07-06T11:34:45Z</time>
      </trkpt>
      <trkpt lat="46.166746839880943" lon="11.938161207363009">
        <ele>1863.1700000000001</ele>
        <time>2017-07-06T11:34:56Z</time>
      </trkpt>
      <trkpt lat="46.166767375543714" lon="11.938201189041138">
        <ele>1863.1700000000001</ele>
        <time>2017-07-06T11:35:07Z</time>
      </trkpt>
      <trkpt lat="46.166768046095967" lon="11.938253911212087">
        <ele>1863.6500000000001</ele>
        <time>2017-07-06T11:35:19Z</time>
      </trkpt>
      <trkpt lat="46.166771315038204" lon="11.938294228166342">
        <ele>1863.6500000000001</ele>
        <time>2017-07-06T11:35:31Z</time>
      </trkpt>
      <trkpt lat="46.166743068024516" lon="11.938276458531618">
        <ele>1864.1300000000001</ele>
        <time>2017-07-06T11:35:45Z</time>
      </trkpt>
      <trkpt lat="46.166737703606486" lon="11.938274027779698">
        <ele>1864.1300000000001</ele>
        <time>2017-07-06T11:35:57Z</time>
      </trkpt>
      <trkpt lat="46.166717000305653" lon="11.938304705545306">
        <ele>1864.1300000000001</ele>
        <time>2017-07-06T11:36:06Z</time>
      </trkpt>
      <trkpt lat="46.166728734970093" lon="11.938309818506241">
        <ele>1863.6500000000001</ele>
        <time>2017-07-06T11:36:21Z</time>
      </trkpt>
      <trkpt lat="46.166708283126354" lon="11.938291545957327">
        <ele>1863.1700000000001</ele>
        <time>2017-07-06T11:36:34Z</time>
      </trkpt>
      <trkpt lat="46.166705600917339" lon="11.938317697495222">
        <ele>1862.6900000000001</ele>
        <time>2017-07-06T11:36:46Z</time>
      </trkpt>
      <trkpt lat="46.166673833504319" lon="11.938312165439129">
        <ele>1862.6900000000001</ele>
        <time>2017-07-06T11:37:00Z</time>
      </trkpt>
      <trkpt lat="46.166648101061583" lon="11.938319709151983">
        <ele>1862.6900000000001</ele>
        <time>2017-07-06T11:37:16Z</time>
      </trkpt>
      <trkpt lat="46.166633181273937" lon="11.938290875405073">
        <ele>1863.6500000000001</ele>
        <time>2017-07-06T11:37:25Z</time>
      </trkpt>
      <trkpt lat="46.166660338640213" lon="11.938264053314924">
        <ele>1864.1300000000001</ele>
        <time>2017-07-06T11:37:36Z</time>
      </trkpt>
      <trkpt lat="46.166616668924689" lon="11.938341250643134">
        <ele>1864.6099999999999</ele>
        <time>2017-07-06T11:37:49Z</time>
      </trkpt>
      <trkpt lat="46.166616752743721" lon="11.938372012227774">
        <ele>1864.6099999999999</ele>
        <time>2017-07-06T11:37:57Z</time>
      </trkpt>
      <trkpt lat="46.166638797149062" lon="11.938286684453487">
        <ele>1864.6099999999999</ele>
        <time>2017-07-06T11:38:13Z</time>
      </trkpt>
      <trkpt lat="46.166650364175439" lon="11.938228933140635">
        <ele>1864.6099999999999</ele>
        <time>2017-07-06T11:38:28Z</time>
      </trkpt>
      <trkpt lat="46.166657824069262" lon="11.938242008909583">
        <ele>1863.6500000000001</ele>
        <time>2017-07-06T11:38:39Z</time>
      </trkpt>
      <trkpt lat="46.166645921766758" lon="11.938234213739634">
        <ele>1864.6099999999999</ele>
        <time>2017-07-06T11:38:54Z</time>
      </trkpt>
      <trkpt lat="46.166627900674939" lon="11.938320966437459">
        <ele>1865.0899999999999</ele>
        <time>2017-07-06T11:39:03Z</time>
      </trkpt>
      <trkpt lat="46.166633935645223" lon="11.938299341127276">
        <ele>1864.6099999999999</ele>
        <time>2017-07-06T11:39:11Z</time>
      </trkpt>
      <trkpt lat="46.166667714715004" lon="11.93822231143713">
        <ele>1864.6099999999999</ele>
        <time>2017-07-06T11:39:24Z</time>
      </trkpt>
      <trkpt lat="46.166681963950396" lon="11.938196830451488">
        <ele>1864.6099999999999</ele>
        <time>2017-07-06T11:39:35Z</time>
      </trkpt>
      <trkpt lat="46.166676348075271" lon="11.938186017796397">
        <ele>1864.6099999999999</ele>
        <time>2017-07-06T11:39:49Z</time>
      </trkpt>
      <trkpt lat="46.166679700836539" lon="11.938207224011421">
        <ele>1865.0899999999999</ele>
        <time>2017-07-06T11:40:03Z</time>
      </trkpt>
      <trkpt lat="46.166683472692966" lon="11.938308225944638">
        <ele>1864.6099999999999</ele>
        <time>2017-07-06T11:40:21Z</time>
      </trkpt>
      <trkpt lat="46.166706020012498" lon="11.938361702486873">
        <ele>1864.6099999999999</ele>
        <time>2017-07-06T11:40:40Z</time>
      </trkpt>
      <trkpt lat="46.166714234277606" lon="11.938396152108908">
        <ele>1865.0899999999999</ele>
        <time>2017-07-06T11:40:54Z</time>
      </trkpt>
      <trkpt lat="46.166665619239211" lon="11.938328761607409">
        <ele>1865.5799999999999</ele>
        <time>2017-07-06T11:41:06Z</time>
      </trkpt>
      <trkpt lat="46.166656315326691" lon="11.938266400247812">
        <ele>1865.0899999999999</ele>
        <time>2017-07-06T11:41:28Z</time>
      </trkpt>
      <trkpt lat="46.166684729978442" lon="11.93827603943646">
        <ele>1865.0899999999999</ele>
        <time>2017-07-06T11:41:46Z</time>
      </trkpt>
      <trkpt lat="46.166687160730362" lon="11.938213258981705">
        <ele>1865.0899999999999</ele>
        <time>2017-07-06T11:42:07Z</time>
      </trkpt>
      <trkpt lat="46.166688250377774" lon="11.938199177384377">
        <ele>1865.0899999999999</ele>
        <time>2017-07-06T11:42:21Z</time>
      </trkpt>
      <trkpt lat="46.166677018627524" lon="11.938253240659833">
        <ele>1865.0899999999999</ele>
        <time>2017-07-06T11:42:34Z</time>
      </trkpt>
      <trkpt lat="46.166642820462584" lon="11.938256593421102">
        <ele>1865.0899999999999</ele>
        <time>2017-07-06T11:42:51Z</time>
      </trkpt>
      <trkpt lat="46.166660590097308" lon="11.938274195417762">
        <ele>1865.5799999999999</ele>
        <time>2017-07-06T11:43:03Z</time>
      </trkpt>
      <trkpt lat="46.166687663644552" lon="11.938231196254492">
        <ele>1866.0599999999999</ele>
        <time>2017-07-06T11:43:22Z</time>
      </trkpt>
      <trkpt lat="46.166693698614836" lon="11.938211247324944">
        <ele>1866.0599999999999</ele>
        <time>2017-07-06T11:43:35Z</time>
      </trkpt>
      <trkpt lat="46.166707696393132" lon="11.938189119100571">
        <ele>1865.0899999999999</ele>
        <time>2017-07-06T11:43:54Z</time>
      </trkpt>
      <trkpt lat="46.166693447157741" lon="11.938211247324944">
        <ele>1864.6099999999999</ele>
        <time>2017-07-06T11:44:04Z</time>
      </trkpt>
      <trkpt lat="46.16668070666492" lon="11.938234884291887">
        <ele>1863.1700000000001</ele>
        <time>2017-07-06T11:44:14Z</time>
      </trkpt>
      <trkpt lat="46.166660590097308" lon="11.938271010294557">
        <ele>1864.1300000000001</ele>
        <time>2017-07-06T11:44:24Z</time>
      </trkpt>
      <trkpt lat="46.166659165173769" lon="11.938284924253821">
        <ele>1865.0899999999999</ele>
        <time>2017-07-06T11:44:32Z</time>
      </trkpt>
      <trkpt lat="46.166649274528027" lon="11.938295904546976">
        <ele>1865.5799999999999</ele>
        <time>2017-07-06T11:44:42Z</time>
      </trkpt>
      <trkpt lat="46.166634690016508" lon="11.938319457694888">
        <ele>1865.0899999999999</ele>
        <time>2017-07-06T11:44:52Z</time>
      </trkpt>
      <trkpt lat="46.166626308113337" lon="11.938312333077192">
        <ele>1865.0899999999999</ele>
        <time>2017-07-06T11:44:54Z</time>
      </trkpt>
      <trkpt lat="46.166605018079281" lon="11.93833127617836">
        <ele>1865.0899999999999</ele>
        <time>2017-07-06T11:44:57Z</time>
      </trkpt>
      <trkpt lat="46.166557827964425" lon="11.938362959772348">
        <ele>1864.6099999999999</ele>
        <time>2017-07-06T11:45:04Z</time>
      </trkpt>
      <trkpt lat="46.166493454948068" lon="11.93832834251225">
        <ele>1864.6099999999999</ele>
        <time>2017-07-06T11:45:15Z</time>
      </trkpt>
      <trkpt lat="46.166457077488303" lon="11.938317194581032">
        <ele>1864.1300000000001</ele>
        <time>2017-07-06T11:45:25Z</time>
      </trkpt>
      <trkpt lat="46.166439224034548" lon="11.938341921195388">
        <ele>1862.6900000000001</ele>
        <time>2017-07-06T11:45:34Z</time>
      </trkpt>
      <trkpt lat="46.166398655623198" lon="11.938360277563334">
        <ele>1861.25</ele>
        <time>2017-07-06T11:45:44Z</time>
      </trkpt>
      <trkpt lat="46.166368061676621" lon="11.938365139067173">
        <ele>1860.29</ele>
        <time>2017-07-06T11:45:53Z</time>
      </trkpt>
      <trkpt lat="46.16634551435709" lon="11.938357427716255">
        <ele>1860.29</ele>
        <time>2017-07-06T11:46:05Z</time>
      </trkpt>
      <trkpt lat="46.166320703923702" lon="11.938360445201397">
        <ele>1859.3299999999999</ele>
        <time>2017-07-06T11:46:16Z</time>
      </trkpt>
      <trkpt lat="46.166266975924373" lon="11.938390117138624">
        <ele>1856.9200000000001</ele>
        <time>2017-07-06T11:46:25Z</time>
      </trkpt>
      <trkpt lat="46.16623948328197" lon="11.938403360545635">
        <ele>1855.96</ele>
        <time>2017-07-06T11:46:35Z</time>
      </trkpt>
      <trkpt lat="46.166217941790819" lon="11.938422052189708">
        <ele>1855</ele>
        <time>2017-07-06T11:46:44Z</time>
      </trkpt>
      <trkpt lat="46.166204446926713" lon="11.938421130180359">
        <ele>1855</ele>
        <time>2017-07-06T11:46:47Z</time>
      </trkpt>
      <trkpt lat="46.166166476905346" lon="11.938387518748641">
        <ele>1855</ele>
        <time>2017-07-06T11:46:51Z</time>
      </trkpt>
      <trkpt lat="46.166129177436233" lon="11.938389362767339">
        <ele>1854.52</ele>
        <time>2017-07-06T11:47:00Z</time>
      </trkpt>
      <trkpt lat="46.16606111638248" lon="11.938416520133615">
        <ele>1852.1199999999999</ele>
        <time>2017-07-06T11:47:09Z</time>
      </trkpt>
      <trkpt lat="46.165964975953102" lon="11.938430014997721">
        <ele>1849.71</ele>
        <time>2017-07-06T11:47:21Z</time>
      </trkpt>
      <trkpt lat="46.165913594886661" lon="11.938388692215085">
        <ele>1850.6800000000001</ele>
        <time>2017-07-06T11:47:29Z</time>
      </trkpt>
      <trkpt lat="46.165870344266295" lon="11.938381316140294">
        <ele>1852.1199999999999</ele>
        <time>2017-07-06T11:47:38Z</time>
      </trkpt>
      <trkpt lat="46.165811084210873" lon="11.938432361930609">
        <ele>1850.1900000000001</ele>
        <time>2017-07-06T11:47:47Z</time>
      </trkpt>
      <trkpt lat="46.165763894096017" lon="11.938419956713915">
        <ele>1850.1900000000001</ele>
        <time>2017-07-06T11:47:55Z</time>
      </trkpt>
      <trkpt lat="46.165724415332079" lon="11.938400510698557">
        <ele>1850.1900000000001</ele>
        <time>2017-07-06T11:48:00Z</time>
      </trkpt>
      <trkpt lat="46.16565752774477" lon="11.938374694436789">
        <ele>1849.23</ele>
        <time>2017-07-06T11:48:12Z</time>
      </trkpt>
      <trkpt lat="46.165594747290015" lon="11.938350303098559">
        <ele>1849.23</ele>
        <time>2017-07-06T11:48:22Z</time>
      </trkpt>
      <trkpt lat="46.165540181100368" lon="11.938352901488543">
        <ele>1849.71</ele>
        <time>2017-07-06T11:48:33Z</time>
      </trkpt>
      <trkpt lat="46.165471533313394" lon="11.938356589525938">
        <ele>1852.1199999999999</ele>
        <time>2017-07-06T11:48:45Z</time>
      </trkpt>
      <trkpt lat="46.165380924940109" lon="11.938294814899564">
        <ele>1851.1600000000001</ele>
        <time>2017-07-06T11:48:57Z</time>
      </trkpt>
      <trkpt lat="46.165328621864319" lon="11.938263131305575">
        <ele>1851.1600000000001</ele>
        <time>2017-07-06T11:49:07Z</time>
      </trkpt>
      <trkpt lat="46.165288807824254" lon="11.938215270638466">
        <ele>1851.6400000000001</ele>
        <time>2017-07-06T11:49:15Z</time>
      </trkpt>
      <trkpt lat="46.165262153372169" lon="11.938177384436131">
        <ele>1851.6400000000001</ele>
        <time>2017-07-06T11:49:20Z</time>
      </trkpt>
      <trkpt lat="46.165214711800218" lon="11.93812457844615">
        <ele>1851.6400000000001</ele>
        <time>2017-07-06T11:49:30Z</time>
      </trkpt>
      <trkpt lat="46.165140280500054" lon="11.938097504898906">
        <ele>1850.6800000000001</ele>
        <time>2017-07-06T11:49:39Z</time>
      </trkpt>
      <trkpt lat="46.165022179484367" lon="11.938027096912265">
        <ele>1850.1900000000001</ele>
        <time>2017-07-06T11:49:52Z</time>
      </trkpt>
      <trkpt lat="46.164939114823937" lon="11.937986863777041">
        <ele>1848.27</ele>
        <time>2017-07-06T11:50:05Z</time>
      </trkpt>
      <trkpt lat="46.164948251098394" lon="11.938005052506924">
        <ele>1848.27</ele>
        <time>2017-07-06T11:50:17Z</time>
      </trkpt>
      <trkpt lat="46.164947832003236" lon="11.93800387904048">
        <ele>1848.27</ele>
        <time>2017-07-06T11:50:32Z</time>
      </trkpt>
      <trkpt lat="46.164931738749146" lon="11.937971021980047">
        <ele>1847.79</ele>
        <time>2017-07-06T11:50:45Z</time>
      </trkpt>
      <trkpt lat="46.164906593039632" lon="11.937953755259514">
        <ele>1847.79</ele>
        <time>2017-07-06T11:50:48Z</time>
      </trkpt>
      <trkpt lat="46.164838867262006" lon="11.937878150492907">
        <ele>1845.8699999999999</ele>
        <time>2017-07-06T11:51:00Z</time>
      </trkpt>
      <trkpt lat="46.164752366021276" lon="11.937834983691573">
        <ele>1843.95</ele>
        <time>2017-07-06T11:51:10Z</time>
      </trkpt>
      <trkpt lat="46.164635941386223" lon="11.937799863517284">
        <ele>1843.95</ele>
        <time>2017-07-06T11:51:21Z</time>
      </trkpt>
      <trkpt lat="46.164607359096408" lon="11.937789218500257">
        <ele>1842.98</ele>
        <time>2017-07-06T11:51:24Z</time>
      </trkpt>
      <trkpt lat="46.164501076564193" lon="11.937727360054851">
        <ele>1842.02</ele>
        <time>2017-07-06T11:51:36Z</time>
      </trkpt>
      <trkpt lat="46.164474338293076" lon="11.937708165496588">
        <ele>1841.54</ele>
        <time>2017-07-06T11:51:40Z</time>
      </trkpt>
      <trkpt lat="46.164444666355848" lon="11.937732137739658">
        <ele>1841.54</ele>
        <time>2017-07-06T11:51:43Z</time>
      </trkpt>
      <trkpt lat="46.164343664422631" lon="11.937720654532313">
        <ele>1840.5799999999999</ele>
        <time>2017-07-06T11:51:54Z</time>
      </trkpt>
      <trkpt lat="46.164274513721466" lon="11.937714871019125">
        <ele>1839.6199999999999</ele>
        <time>2017-07-06T11:52:03Z</time>
      </trkpt>
      <trkpt lat="46.164243081584573" lon="11.937704645097256">
        <ele>1839.1400000000001</ele>
        <time>2017-07-06T11:52:07Z</time>
      </trkpt>
      <trkpt lat="46.164192706346512" lon="11.937657287344337">
        <ele>1839.1400000000001</ele>
        <time>2017-07-06T11:52:14Z</time>
      </trkpt>
      <trkpt lat="46.164137553423643" lon="11.937612444162369">
        <ele>1838.6600000000001</ele>
        <time>2017-07-06T11:52:23Z</time>
      </trkpt>
      <trkpt lat="46.164097571745515" lon="11.937569109722972">
        <ele>1838.6600000000001</ele>
        <time>2017-07-06T11:52:29Z</time>
      </trkpt>
      <trkpt lat="46.164046945050359" lon="11.93747078999877">
        <ele>1839.1400000000001</ele>
        <time>2017-07-06T11:52:38Z</time>
      </trkpt>
      <trkpt lat="46.163980476558208" lon="11.937384959310293">
        <ele>1839.1400000000001</ele>
        <time>2017-07-06T11:52:49Z</time>
      </trkpt>
      <trkpt lat="46.163943009451032" lon="11.937337350100279">
        <ele>1838.6600000000001</ele>
        <time>2017-07-06T11:52:55Z</time>
      </trkpt>
      <trkpt lat="46.163851395249367" lon="11.937232241034508">
        <ele>1838.1800000000001</ele>
        <time>2017-07-06T11:53:07Z</time>
      </trkpt>
      <trkpt lat="46.163783082738519" lon="11.937151104211807">
        <ele>1836.74</ele>
        <time>2017-07-06T11:53:18Z</time>
      </trkpt>
      <trkpt lat="46.163760032504797" lon="11.937173819169402">
        <ele>1836.26</ele>
        <time>2017-07-06T11:53:22Z</time>
      </trkpt>
      <trkpt lat="46.163735222071409" lon="11.937200641259551">
        <ele>1835.29</ele>
        <time>2017-07-06T11:53:25Z</time>
      </trkpt>
      <trkpt lat="46.163705214858055" lon="11.937214387580752">
        <ele>1833.8499999999999</ele>
        <time>2017-07-06T11:53:28Z</time>
      </trkpt>
      <trkpt lat="46.163654504343867" lon="11.937228469178081">
        <ele>1832.8900000000001</ele>
        <time>2017-07-06T11:53:36Z</time>
      </trkpt>
      <trkpt lat="46.163565488532186" lon="11.937241796404123">
        <ele>1830.97</ele>
        <time>2017-07-06T11:53:46Z</time>
      </trkpt>
      <trkpt lat="46.163514358922839" lon="11.937267696484923">
        <ele>1830.01</ele>
        <time>2017-07-06T11:53:56Z</time>
      </trkpt>
      <trkpt lat="46.163476640358567" lon="11.937272390350699">
        <ele>1828.5599999999999</ele>
        <time>2017-07-06T11:54:08Z</time>
      </trkpt>
      <trkpt lat="46.16344646550715" lon="11.937253447249532">
        <ele>1828.0799999999999</ele>
        <time>2017-07-06T11:54:20Z</time>
      </trkpt>
      <trkpt lat="46.16344059817493" lon="11.937255878001451">
        <ele>1827.5999999999999</ele>
        <time>2017-07-06T11:54:21Z</time>
      </trkpt>
      <trkpt lat="46.163402460515499" lon="11.937274485826492">
        <ele>1825.6800000000001</ele>
        <time>2017-07-06T11:54:31Z</time>
      </trkpt>
      <trkpt lat="46.163378320634365" lon="11.93721380084753">
        <ele>1823.76</ele>
        <time>2017-07-06T11:54:40Z</time>
      </trkpt>
      <trkpt lat="46.163363652303815" lon="11.93719913251698">
        <ele>1824.24</ele>
        <time>2017-07-06T11:54:49Z</time>
      </trkpt>
      <trkpt lat="46.163373040035367" lon="11.937158480286598">
        <ele>1824.24</ele>
        <time>2017-07-06T11:55:01Z</time>
      </trkpt>
      <trkpt lat="46.163371615111828" lon="11.937121096998453">
        <ele>1823.76</ele>
        <time>2017-07-06T11:55:10Z</time>
      </trkpt>
      <trkpt lat="46.163368597626686" lon="11.937130568549037">
        <ele>1824.72</ele>
        <time>2017-07-06T11:55:23Z</time>
      </trkpt>
      <trkpt lat="46.163373040035367" lon="11.937107518315315">
        <ele>1823.76</ele>
        <time>2017-07-06T11:55:32Z</time>
      </trkpt>
      <trkpt lat="46.163370609283447" lon="11.937117911875248">
        <ele>1822.8</ele>
        <time>2017-07-06T11:55:41Z</time>
      </trkpt>
      <trkpt lat="46.163381673395634" lon="11.937125287950039">
        <ele>1822.3199999999999</ele>
        <time>2017-07-06T11:55:55Z</time>
      </trkpt>
      <trkpt lat="46.163377230986953" lon="11.937116654589772">
        <ele>1822.3199999999999</ele>
        <time>2017-07-06T11:56:20Z</time>
      </trkpt>
      <trkpt lat="46.163368849083781" lon="11.937089497223496">
        <ele>1822.3199999999999</ele>
        <time>2017-07-06T11:56:49Z</time>
      </trkpt>
      <trkpt lat="46.163382343947887" lon="11.937076924368739">
        <ele>1822.3199999999999</ele>
        <time>2017-07-06T11:57:21Z</time>
      </trkpt>
      <trkpt lat="46.163388965651393" lon="11.937078600749373">
        <ele>1822.3199999999999</ele>
        <time>2017-07-06T11:57:55Z</time>
      </trkpt>
      <trkpt lat="46.163389887660742" lon="11.937086815014482">
        <ele>1821.8399999999999</ele>
        <time>2017-07-06T11:58:24Z</time>
      </trkpt>
      <trkpt lat="46.163382930681109" lon="11.937088072299957">
        <ele>1821.8399999999999</ele>
        <time>2017-07-06T11:58:48Z</time>
      </trkpt>
      <trkpt lat="46.163379745557904" lon="11.937076924368739">
        <ele>1822.8</ele>
        <time>2017-07-06T11:58:58Z</time>
      </trkpt>
      <trkpt lat="46.163388295099139" lon="11.937078014016151">
        <ele>1822.8</ele>
        <time>2017-07-06T11:59:09Z</time>
      </trkpt>
      <trkpt lat="46.163373962044716" lon="11.937094358727336">
        <ele>1822.3199999999999</ele>
        <time>2017-07-06T11:59:23Z</time>
      </trkpt>
      <trkpt lat="46.163342362269759" lon="11.937140040099621">
        <ele>1822.8</ele>
        <time>2017-07-06T11:59:34Z</time>
      </trkpt>
      <trkpt lat="46.163350995630026" lon="11.937136352062225">
        <ele>1822.8</ele>
        <time>2017-07-06T11:59:44Z</time>
      </trkpt>
      <trkpt lat="46.163313109427691" lon="11.93710433319211">
        <ele>1823.76</ele>
        <time>2017-07-06T11:59:55Z</time>
      </trkpt>
      <trkpt lat="46.163305565714836" lon="11.937141884118319">
        <ele>1824.72</ele>
        <time>2017-07-06T11:59:59Z</time>
      </trkpt>
      <trkpt lat="46.163283102214336" lon="11.937231402844191">
        <ele>1825.6800000000001</ele>
        <time>2017-07-06T12:00:10Z</time>
      </trkpt>
      <trkpt lat="46.163219483569264" lon="11.937214387580752">
        <ele>1827.5999999999999</ele>
        <time>2017-07-06T12:00:23Z</time>
      </trkpt>
      <trkpt lat="46.163172964006662" lon="11.937170969322324">
        <ele>1829.53</ele>
        <time>2017-07-06T12:00:35Z</time>
      </trkpt>
      <trkpt lat="46.163138430565596" lon="11.937158731743693">
        <ele>1831.45</ele>
        <time>2017-07-06T12:00:46Z</time>
      </trkpt>
      <trkpt lat="46.163086965680122" lon="11.93711313419044">
        <ele>1833.3699999999999</ele>
        <time>2017-07-06T12:00:59Z</time>
      </trkpt>
      <trkpt lat="46.163061652332544" lon="11.937145739793777">
        <ele>1833.3699999999999</ele>
        <time>2017-07-06T12:01:11Z</time>
      </trkpt>
      <trkpt lat="46.163039105013013" lon="11.937165018171072">
        <ele>1832.4100000000001</ele>
        <time>2017-07-06T12:01:22Z</time>
      </trkpt>
      <trkpt lat="46.163022257387638" lon="11.937157977372408">
        <ele>1831.9300000000001</ele>
        <time>2017-07-06T12:01:24Z</time>
      </trkpt>
      <trkpt lat="46.162929721176624" lon="11.937124030664563">
        <ele>1830.01</ele>
        <time>2017-07-06T12:01:34Z</time>
      </trkpt>
      <trkpt lat="46.162921926006675" lon="11.937118666246533">
        <ele>1830.01</ele>
        <time>2017-07-06T12:01:35Z</time>
      </trkpt>
      <trkpt lat="46.162859061732888" lon="11.936998721212149">
        <ele>1830.49</ele>
        <time>2017-07-06T12:01:47Z</time>
      </trkpt>
      <trkpt lat="46.162854703143239" lon="11.937008947134018">
        <ele>1830.97</ele>
        <time>2017-07-06T12:01:55Z</time>
      </trkpt>
      <trkpt lat="46.162792593240738" lon="11.936980532482266">
        <ele>1830.01</ele>
        <time>2017-07-06T12:02:02Z</time>
      </trkpt>
      <trkpt lat="46.162772225216031" lon="11.936984723433852">
        <ele>1829.53</ele>
        <time>2017-07-06T12:02:04Z</time>
      </trkpt>
      <trkpt lat="46.162659572437406" lon="11.936947926878929">
        <ele>1828.5599999999999</ele>
        <time>2017-07-06T12:02:17Z</time>
      </trkpt>
      <trkpt lat="46.162574496120214" lon="11.936927558854222">
        <ele>1829.05</ele>
        <time>2017-07-06T12:02:28Z</time>
      </trkpt>
      <trkpt lat="46.162532418966293" lon="11.936916997656226">
        <ele>1830.97</ele>
        <time>2017-07-06T12:02:38Z</time>
      </trkpt>
      <trkpt lat="46.16250878199935" lon="11.936835190281272">
        <ele>1832.8900000000001</ele>
        <time>2017-07-06T12:02:49Z</time>
      </trkpt>
      <trkpt lat="46.162483049556613" lon="11.936809625476599">
        <ele>1834.8099999999999</ele>
        <time>2017-07-06T12:03:02Z</time>
      </trkpt>
      <trkpt lat="46.162451282143593" lon="11.936755897477269">
        <ele>1836.74</ele>
        <time>2017-07-06T12:03:14Z</time>
      </trkpt>
      <trkpt lat="46.162425801157951" lon="11.936712143942714">
        <ele>1839.1400000000001</ele>
        <time>2017-07-06T12:03:25Z</time>
      </trkpt>
      <trkpt lat="46.16237735375762" lon="11.936672162264585">
        <ele>1840.5799999999999</ele>
        <time>2017-07-06T12:03:38Z</time>
      </trkpt>
      <trkpt lat="46.162340054288507" lon="11.936673251911998">
        <ele>1841.0599999999999</ele>
        <time>2017-07-06T12:03:46Z</time>
      </trkpt>
      <trkpt lat="46.162315495312214" lon="11.936658583581448">
        <ele>1841.54</ele>
        <time>2017-07-06T12:03:56Z</time>
      </trkpt>
      <trkpt lat="46.162287667393684" lon="11.936651207506657">
        <ele>1841.54</ele>
        <time>2017-07-06T12:04:05Z</time>
      </trkpt>
      <trkpt lat="46.162276268005371" lon="11.936654476448894">
        <ele>1841.54</ele>
        <time>2017-07-06T12:04:25Z</time>
      </trkpt>
      <trkpt lat="46.162223881110549" lon="11.936679454520345">
        <ele>1840.5799999999999</ele>
        <time>2017-07-06T12:04:31Z</time>
      </trkpt>
      <trkpt lat="46.162180211395025" lon="11.936661852523685">
        <ele>1840.5799999999999</ele>
        <time>2017-07-06T12:04:40Z</time>
      </trkpt>
      <trkpt lat="46.162143666297197" lon="11.936642741784453">
        <ele>1840.5799999999999</ele>
        <time>2017-07-06T12:04:50Z</time>
      </trkpt>
      <trkpt lat="46.162133021280169" lon="11.93663477897644">
        <ele>1841.0599999999999</ele>
        <time>2017-07-06T12:04:53Z</time>
      </trkpt>
      <trkpt lat="46.162092620506883" lon="11.936611728742719">
        <ele>1842.02</ele>
        <time>2017-07-06T12:05:03Z</time>
      </trkpt>
      <trkpt lat="46.16205682978034" lon="11.936617260798812">
        <ele>1842.02</ele>
        <time>2017-07-06T12:05:12Z</time>
      </trkpt>
      <trkpt lat="46.162057081237435" lon="11.936598736792803">
        <ele>1841.54</ele>
        <time>2017-07-06T12:05:23Z</time>
      </trkpt>
      <trkpt lat="46.162045933306217" lon="11.936632096767426">
        <ele>1842.02</ele>
        <time>2017-07-06T12:05:48Z</time>
      </trkpt>
      <trkpt lat="46.161993462592363" lon="11.936620697379112">
        <ele>1844.4300000000001</ele>
        <time>2017-07-06T12:05:58Z</time>
      </trkpt>
      <trkpt lat="46.161940740421414" lon="11.936649866402149">
        <ele>1844.9100000000001</ele>
        <time>2017-07-06T12:06:10Z</time>
      </trkpt>
      <trkpt lat="46.161922132596374" lon="11.936596222221851">
        <ele>1846.3499999999999</ele>
        <time>2017-07-06T12:06:19Z</time>
      </trkpt>
      <trkpt lat="46.161906123161316" lon="11.936673503369093">
        <ele>1846.3499999999999</ele>
        <time>2017-07-06T12:06:29Z</time>
      </trkpt>
      <trkpt lat="46.161860190331936" lon="11.936695380136371">
        <ele>1848.75</ele>
        <time>2017-07-06T12:06:39Z</time>
      </trkpt>
      <trkpt lat="46.161811407655478" lon="11.936709294095635">
        <ele>1849.23</ele>
        <time>2017-07-06T12:06:50Z</time>
      </trkpt>
      <trkpt lat="46.161750555038452" lon="11.936772912740707">
        <ele>1851.6400000000001</ele>
        <time>2017-07-06T12:07:03Z</time>
      </trkpt>
      <trkpt lat="46.161758350208402" lon="11.936762938275933">
        <ele>1851.1600000000001</ele>
        <time>2017-07-06T12:07:22Z</time>
      </trkpt>
      <trkpt lat="46.161751728504896" lon="11.936768805608153">
        <ele>1851.6400000000001</ele>
        <time>2017-07-06T12:07:36Z</time>
      </trkpt>
      <trkpt lat="46.161772683262825" lon="11.936771906912327">
        <ele>1851.6400000000001</ele>
        <time>2017-07-06T12:07:47Z</time>
      </trkpt>
      <trkpt lat="46.161696156486869" lon="11.936827898025513">
        <ele>1851.6400000000001</ele>
        <time>2017-07-06T12:07:55Z</time>
      </trkpt>
      <trkpt lat="46.16163169965148" lon="11.936867879703641">
        <ele>1853.5599999999999</ele>
        <time>2017-07-06T12:08:04Z</time>
      </trkpt>
      <trkpt lat="46.161607475951314" lon="11.936888750642538">
        <ele>1854.04</ele>
        <time>2017-07-06T12:08:08Z</time>
      </trkpt>
      <trkpt lat="46.161583000794053" lon="11.936902832239866">
        <ele>1854.52</ele>
        <time>2017-07-06T12:08:11Z</time>
      </trkpt>
      <trkpt lat="46.161533044651151" lon="11.936947926878929">
        <ele>1855.48</ele>
        <time>2017-07-06T12:08:19Z</time>
      </trkpt>
      <trkpt lat="46.161491386592388" lon="11.936998721212149">
        <ele>1857.4000000000001</ele>
        <time>2017-07-06T12:08:29Z</time>
      </trkpt>
      <trkpt lat="46.161470683291554" lon="11.937053790315986">
        <ele>1858.8499999999999</ele>
        <time>2017-07-06T12:08:38Z</time>
      </trkpt>
      <trkpt lat="46.161479316651821" lon="11.937073571607471">
        <ele>1859.3299999999999</ele>
        <time>2017-07-06T12:08:49Z</time>
      </trkpt>
      <trkpt lat="46.161485686898232" lon="11.937035769224167">
        <ele>1858.8499999999999</ele>
        <time>2017-07-06T12:09:02Z</time>
      </trkpt>
      <trkpt lat="46.16145777516067" lon="11.937137441709638">
        <ele>1859.8099999999999</ele>
        <time>2017-07-06T12:09:10Z</time>
      </trkpt>
      <trkpt lat="46.161389965564013" lon="11.937213633209467">
        <ele>1861.25</ele>
        <time>2017-07-06T12:09:21Z</time>
      </trkpt>
      <trkpt lat="46.161337662488222" lon="11.937221344560385">
        <ele>1860.29</ele>
        <time>2017-07-06T12:09:30Z</time>
      </trkpt>
      <trkpt lat="46.161312852054834" lon="11.937240371480584">
        <ele>1858.8499999999999</ele>
        <time>2017-07-06T12:09:33Z</time>
      </trkpt>
      <trkpt lat="46.161323245614767" lon="11.937236012890935">
        <ele>1858.8499999999999</ele>
        <time>2017-07-06T12:09:41Z</time>
      </trkpt>
      <trkpt lat="46.161315031349659" lon="11.937269624322653">
        <ele>1858.3699999999999</ele>
        <time>2017-07-06T12:09:45Z</time>
      </trkpt>
      <trkpt lat="46.161265326663852" lon="11.937432819977403">
        <ele>1856.4400000000001</ele>
        <time>2017-07-06T12:09:58Z</time>
      </trkpt>
      <trkpt lat="46.161244120448828" lon="11.937464755028486">
        <ele>1855.96</ele>
        <time>2017-07-06T12:10:01Z</time>
      </trkpt>
      <trkpt lat="46.161189302802086" lon="11.937645301222801">
        <ele>1854.04</ele>
        <time>2017-07-06T12:10:15Z</time>
      </trkpt>
      <trkpt lat="46.161187794059515" lon="11.937632393091917">
        <ele>1854.52</ele>
        <time>2017-07-06T12:10:18Z</time>
      </trkpt>
      <trkpt lat="46.161183435469866" lon="11.93765795789659">
        <ele>1854.04</ele>
        <time>2017-07-06T12:10:20Z</time>
      </trkpt>
      <trkpt lat="46.161132473498583" lon="11.937834313139319">
        <ele>1852.5999999999999</ele>
        <time>2017-07-06T12:10:33Z</time>
      </trkpt>
      <trkpt lat="46.16110104136169" lon="11.937942020595074">
        <ele>1851.6400000000001</ele>
        <time>2017-07-06T12:10:41Z</time>
      </trkpt>
      <trkpt lat="46.16100188344717" lon="11.938110161572695">
        <ele>1850.6800000000001</ele>
        <time>2017-07-06T12:10:56Z</time>
      </trkpt>
      <trkpt lat="46.160934660583735" lon="11.938277296721935">
        <ele>1848.75</ele>
        <time>2017-07-06T12:11:10Z</time>
      </trkpt>
      <trkpt lat="46.160894511267543" lon="11.938351979479194">
        <ele>1848.27</ele>
        <time>2017-07-06T12:11:20Z</time>
      </trkpt>
      <trkpt lat="46.160858301445842" lon="11.938376370817423">
        <ele>1848.27</ele>
        <time>2017-07-06T12:11:24Z</time>
      </trkpt>
      <trkpt lat="46.160879759117961" lon="11.938402187079191">
        <ele>1847.3099999999999</ele>
        <time>2017-07-06T12:11:32Z</time>
      </trkpt>
      <trkpt lat="46.160873137414455" lon="11.938426410779357">
        <ele>1845.8699999999999</ele>
        <time>2017-07-06T12:11:35Z</time>
      </trkpt>
      <trkpt lat="46.160857295617461" lon="11.938494136556983">
        <ele>1845.8699999999999</ele>
        <time>2017-07-06T12:11:45Z</time>
      </trkpt>
      <trkpt lat="46.160834664478898" lon="11.938562532886863">
        <ele>1845.3900000000001</ele>
        <time>2017-07-06T12:11:52Z</time>
      </trkpt>
      <trkpt lat="46.16081764921546" lon="11.938656829297543">
        <ele>1843.95</ele>
        <time>2017-07-06T12:12:03Z</time>
      </trkpt>
      <trkpt lat="46.160781774669886" lon="11.938740564510226">
        <ele>1842.5</ele>
        <time>2017-07-06T12:12:10Z</time>
      </trkpt>
      <trkpt lat="46.160782026126981" lon="11.938854139298201">
        <ele>1839.1400000000001</ele>
        <time>2017-07-06T12:12:21Z</time>
      </trkpt>
      <trkpt lat="46.160775991156697" lon="11.938888002187014">
        <ele>1838.6600000000001</ele>
        <time>2017-07-06T12:12:25Z</time>
      </trkpt>
      <trkpt lat="46.160748498514295" lon="11.938971821218729">
        <ele>1836.74</ele>
        <time>2017-07-06T12:12:35Z</time>
      </trkpt>
      <trkpt lat="46.160741373896599" lon="11.939025800675154">
        <ele>1834.3299999999999</ele>
        <time>2017-07-06T12:12:44Z</time>
      </trkpt>
      <trkpt lat="46.160742631182075" lon="11.939120097085834">
        <ele>1833.3699999999999</ele>
        <time>2017-07-06T12:12:54Z</time>
      </trkpt>
      <trkpt lat="46.160738859325647" lon="11.939141470938921">
        <ele>1833.3699999999999</ele>
        <time>2017-07-06T12:12:56Z</time>
      </trkpt>
      <trkpt lat="46.160744391381741" lon="11.939203999936581">
        <ele>1834.3299999999999</ele>
        <time>2017-07-06T12:13:05Z</time>
      </trkpt>
      <trkpt lat="46.160747827962041" lon="11.939192935824394">
        <ele>1834.8099999999999</ele>
        <time>2017-07-06T12:13:08Z</time>
      </trkpt>
      <trkpt lat="46.160738859325647" lon="11.939250268042088">
        <ele>1834.8099999999999</ele>
        <time>2017-07-06T12:13:16Z</time>
      </trkpt>
      <trkpt lat="46.160735674202442" lon="11.939270300790668">
        <ele>1834.8099999999999</ele>
        <time>2017-07-06T12:13:29Z</time>
      </trkpt>
      <trkpt lat="46.160727459937334" lon="11.939251106232405">
        <ele>1834.8099999999999</ele>
        <time>2017-07-06T12:13:39Z</time>
      </trkpt>
      <trkpt lat="46.16073802113533" lon="11.939230989664793">
        <ele>1834.8099999999999</ele>
        <time>2017-07-06T12:13:54Z</time>
      </trkpt>
      <trkpt lat="46.160727376118302" lon="11.93928019143641">
        <ele>1834.8099999999999</ele>
        <time>2017-07-06T12:14:05Z</time>
      </trkpt>
      <trkpt lat="46.160710360854864" lon="11.93929485976696">
        <ele>1834.3299999999999</ele>
        <time>2017-07-06T12:14:07Z</time>
      </trkpt>
      <trkpt lat="46.160707762464881" lon="11.939375577494502">
        <ele>1833.3699999999999</ele>
        <time>2017-07-06T12:14:17Z</time>
      </trkpt>
      <trkpt lat="46.160680018365383" lon="11.939422432333231">
        <ele>1832.4100000000001</ele>
        <time>2017-07-06T12:14:26Z</time>
      </trkpt>
      <trkpt lat="46.160685466602445" lon="11.939461659640074">
        <ele>1831.45</ele>
        <time>2017-07-06T12:14:35Z</time>
      </trkpt>
      <trkpt lat="46.16068521514535" lon="11.939507927745581">
        <ele>1829.53</ele>
        <time>2017-07-06T12:14:44Z</time>
      </trkpt>
      <trkpt lat="46.160665098577738" lon="11.939486470073462">
        <ele>1829.05</ele>
        <time>2017-07-06T12:14:54Z</time>
      </trkpt>
      <trkpt lat="46.160659566521645" lon="11.939486553892493">
        <ele>1829.05</ele>
        <time>2017-07-06T12:15:08Z</time>
      </trkpt>
      <trkpt lat="46.16068965755403" lon="11.9394585583359">
        <ele>1828.0799999999999</ele>
        <time>2017-07-06T12:15:15Z</time>
      </trkpt>
      <trkpt lat="46.160680018365383" lon="11.939512537792325">
        <ele>1827.1199999999999</ele>
        <time>2017-07-06T12:15:22Z</time>
      </trkpt>
      <trkpt lat="46.160657973960042" lon="11.939504742622375">
        <ele>1827.5999999999999</ele>
        <time>2017-07-06T12:15:35Z</time>
      </trkpt>
      <trkpt lat="46.160666858777404" lon="11.939555201679468">
        <ele>1827.1199999999999</ele>
        <time>2017-07-06T12:15:45Z</time>
      </trkpt>
      <trkpt lat="46.160668702796102" lon="11.93952058441937">
        <ele>1827.5999999999999</ele>
        <time>2017-07-06T12:15:59Z</time>
      </trkpt>
      <trkpt lat="46.160664428025484" lon="11.939529469236732">
        <ele>1827.5999999999999</ele>
        <time>2017-07-06T12:16:19Z</time>
      </trkpt>
      <trkpt lat="46.160671468824148" lon="11.939537348225713">
        <ele>1827.5999999999999</ele>
        <time>2017-07-06T12:16:36Z</time>
      </trkpt>
      <trkpt lat="46.16066669113934" lon="11.939554614946246">
        <ele>1827.1199999999999</ele>
        <time>2017-07-06T12:16:46Z</time>
      </trkpt>
      <trkpt lat="46.160645904019475" lon="11.939579928293824">
        <ele>1825.6800000000001</ele>
        <time>2017-07-06T12:16:55Z</time>
      </trkpt>
      <trkpt lat="46.160619333386421" lon="11.939596273005009">
        <ele>1824.24</ele>
        <time>2017-07-06T12:17:05Z</time>
      </trkpt>
      <trkpt lat="46.160612795501947" lon="11.939620915800333">
        <ele>1822.8</ele>
        <time>2017-07-06T12:17:16Z</time>
      </trkpt>
      <trkpt lat="46.160615896806121" lon="11.939621083438396">
        <ele>1822.8</ele>
        <time>2017-07-06T12:17:29Z</time>
      </trkpt>
      <trkpt lat="46.160597624257207" lon="11.939656287431717">
        <ele>1822.3199999999999</ele>
        <time>2017-07-06T12:17:38Z</time>
      </trkpt>
      <trkpt lat="46.16059091873467" lon="11.939658047631383">
        <ele>1821.3499999999999</ele>
        <time>2017-07-06T12:17:48Z</time>
      </trkpt>
      <trkpt lat="46.16057968698442" lon="11.939663663506508">
        <ele>1819.9100000000001</ele>
        <time>2017-07-06T12:18:00Z</time>
      </trkpt>
      <trkpt lat="46.160556804388762" lon="11.939661735668778">
        <ele>1819.4300000000001</ele>
        <time>2017-07-06T12:18:10Z</time>
      </trkpt>
      <trkpt lat="46.160561330616474" lon="11.939671542495489">
        <ele>1818.95</ele>
        <time>2017-07-06T12:18:14Z</time>
      </trkpt>
      <trkpt lat="46.160547751933336" lon="11.939669698476791">
        <ele>1817.99</ele>
        <time>2017-07-06T12:18:22Z</time>
      </trkpt>
      <trkpt lat="46.160516571253538" lon="11.939683947712183">
        <ele>1817.99</ele>
        <time>2017-07-06T12:18:32Z</time>
      </trkpt>
      <trkpt lat="46.160498717799783" lon="11.939744045957923">
        <ele>1816.55</ele>
        <time>2017-07-06T12:18:42Z</time>
      </trkpt>
      <trkpt lat="46.160475416108966" lon="11.939772628247738">
        <ele>1815.5899999999999</ele>
        <time>2017-07-06T12:18:53Z</time>
      </trkpt>
      <trkpt lat="46.160445157438517" lon="11.939687468111515">
        <ele>1817.99</ele>
        <time>2017-07-06T12:19:02Z</time>
      </trkpt>
      <trkpt lat="46.160391680896282" lon="11.93970968015492">
        <ele>1818.95</ele>
        <time>2017-07-06T12:19:11Z</time>
      </trkpt>
      <trkpt lat="46.16037935949862" lon="11.939723342657089">
        <ele>1818.47</ele>
        <time>2017-07-06T12:19:23Z</time>
      </trkpt>
      <trkpt lat="46.160342898219824" lon="11.939706662669778">
        <ele>1818.95</ele>
        <time>2017-07-06T12:19:40Z</time>
      </trkpt>
      <trkpt lat="46.160317249596119" lon="11.939752763137221">
        <ele>1820.8699999999999</ele>
        <time>2017-07-06T12:19:50Z</time>
      </trkpt>
      <trkpt lat="46.160290343686938" lon="11.939825769513845">
        <ele>1822.3199999999999</ele>
        <time>2017-07-06T12:19:59Z</time>
      </trkpt>
      <trkpt lat="46.160268299281597" lon="11.939884778112173">
        <ele>1822.8</ele>
        <time>2017-07-06T12:20:06Z</time>
      </trkpt>
      <trkpt lat="46.160233095288277" lon="11.93987924605608">
        <ele>1823.76</ele>
        <time>2017-07-06T12:20:14Z</time>
      </trkpt>
      <trkpt lat="46.160170817747712" lon="11.939937081187963">
        <ele>1823.76</ele>
        <time>2017-07-06T12:20:25Z</time>
      </trkpt>
      <trkpt lat="46.160154640674591" lon="11.939950492233038">
        <ele>1822.8</ele>
        <time>2017-07-06T12:20:34Z</time>
      </trkpt>
      <trkpt lat="46.16016193293035" lon="11.939943367615342">
        <ele>1821.3499999999999</ele>
        <time>2017-07-06T12:20:43Z</time>
      </trkpt>
      <trkpt lat="46.160146594047546" lon="11.93997697904706">
        <ele>1820.8699999999999</ele>
        <time>2017-07-06T12:20:54Z</time>
      </trkpt>
      <trkpt lat="46.160137373954058" lon="11.939993659034371">
        <ele>1820.3900000000001</ele>
        <time>2017-07-06T12:21:05Z</time>
      </trkpt>
      <trkpt lat="46.160085154697299" lon="11.940010255202651">
        <ele>1819.9100000000001</ele>
        <time>2017-07-06T12:21:14Z</time>
      </trkpt>
      <trkpt lat="46.159991947934031" lon="11.940024588257074">
        <ele>1819.4300000000001</ele>
        <time>2017-07-06T12:21:25Z</time>
      </trkpt>
      <trkpt lat="46.159971915185452" lon="11.940054930746555">
        <ele>1819.4300000000001</ele>
        <time>2017-07-06T12:21:31Z</time>
      </trkpt>
      <trkpt lat="46.159926233813167" lon="11.940050823614001">
        <ele>1821.3499999999999</ele>
        <time>2017-07-06T12:21:40Z</time>
      </trkpt>
      <trkpt lat="46.159889940172434" lon="11.940036322921515">
        <ele>1823.28</ele>
        <time>2017-07-06T12:21:49Z</time>
      </trkpt>
      <trkpt lat="46.159851215779781" lon="11.940012350678444">
        <ele>1824.24</ele>
        <time>2017-07-06T12:22:03Z</time>
      </trkpt>
      <trkpt lat="46.159821292385459" lon="11.940010925754905">
        <ele>1823.76</ele>
        <time>2017-07-06T12:22:07Z</time>
      </trkpt>
      <trkpt lat="46.15980377420783" lon="11.94003070704639">
        <ele>1824.24</ele>
        <time>2017-07-06T12:22:19Z</time>
      </trkpt>
      <trkpt lat="46.159758176654577" lon="11.940065575763583">
        <ele>1824.72</ele>
        <time>2017-07-06T12:22:29Z</time>
      </trkpt>
      <trkpt lat="46.159702017903328" lon="11.940098097547889">
        <ele>1825.6800000000001</ele>
        <time>2017-07-06T12:22:37Z</time>
      </trkpt>
      <trkpt lat="46.159681733697653" lon="11.940092062577605">
        <ele>1826.1600000000001</ele>
        <time>2017-07-06T12:22:39Z</time>
      </trkpt>
      <trkpt lat="46.15959707647562" lon="11.940104467794299">
        <ele>1824.72</ele>
        <time>2017-07-06T12:22:51Z</time>
      </trkpt>
      <trkpt lat="46.159582240507007" lon="11.94009667262435">
        <ele>1824.72</ele>
        <time>2017-07-06T12:23:02Z</time>
      </trkpt>
      <trkpt lat="46.159588107839227" lon="11.940092481672764">
        <ele>1824.72</ele>
        <time>2017-07-06T12:23:19Z</time>
      </trkpt>
      <trkpt lat="46.159578803926706" lon="11.940102623775601">
        <ele>1824.24</ele>
        <time>2017-07-06T12:23:33Z</time>
      </trkpt>
      <trkpt lat="46.159517532214522" lon="11.940117292106152">
        <ele>1824.24</ele>
        <time>2017-07-06T12:23:42Z</time>
      </trkpt>
      <trkpt lat="46.159500600770116" lon="11.940114526078105">
        <ele>1824.72</ele>
        <time>2017-07-06T12:23:45Z</time>
      </trkpt>
      <trkpt lat="46.159477382898331" lon="11.940210666507483">
        <ele>1824.24</ele>
        <time>2017-07-06T12:23:53Z</time>
      </trkpt>
      <trkpt lat="46.15944804623723" lon="11.940264143049717">
        <ele>1824.72</ele>
        <time>2017-07-06T12:24:02Z</time>
      </trkpt>
      <trkpt lat="46.159447291865945" lon="11.940252408385277">
        <ele>1825.2</ele>
        <time>2017-07-06T12:24:15Z</time>
      </trkpt>
      <trkpt lat="46.159394904971123" lon="11.940332371741533">
        <ele>1826.1600000000001</ele>
        <time>2017-07-06T12:24:25Z</time>
      </trkpt>
      <trkpt lat="46.159338662400842" lon="11.940379897132516">
        <ele>1827.1199999999999</ele>
        <time>2017-07-06T12:24:36Z</time>
      </trkpt>
      <trkpt lat="46.159267080947757" lon="11.940443264320493">
        <ele>1828.0799999999999</ele>
        <time>2017-07-06T12:24:49Z</time>
      </trkpt>
      <trkpt lat="46.159227853640914" lon="11.940480479970574">
        <ele>1828.0799999999999</ele>
        <time>2017-07-06T12:25:00Z</time>
      </trkpt>
      <trkpt lat="46.159228943288326" lon="11.940496740862727">
        <ele>1830.49</ele>
        <time>2017-07-06T12:25:02Z</time>
      </trkpt>
      <trkpt lat="46.159234726801515" lon="11.940560946241021">
        <ele>1831.9300000000001</ele>
        <time>2017-07-06T12:25:13Z</time>
      </trkpt>
      <trkpt lat="46.159218214452267" lon="11.940595395863056">
        <ele>1832.4100000000001</ele>
        <time>2017-07-06T12:25:17Z</time>
      </trkpt>
      <trkpt lat="46.159169180318713" lon="11.94061953574419">
        <ele>1834.8099999999999</ele>
        <time>2017-07-06T12:25:27Z</time>
      </trkpt>
      <trkpt lat="46.159146968275309" lon="11.940609393641353">
        <ele>1836.26</ele>
        <time>2017-07-06T12:25:36Z</time>
      </trkpt>
      <trkpt lat="46.159097263589501" lon="11.940649962052703">
        <ele>1837.7</ele>
        <time>2017-07-06T12:25:46Z</time>
      </trkpt>
      <trkpt lat="46.159092150628567" lon="11.940652895718813">
        <ele>1838.1800000000001</ele>
        <time>2017-07-06T12:25:47Z</time>
      </trkpt>
      <trkpt lat="46.159052336588502" lon="11.940690195187926">
        <ele>1839.1400000000001</ele>
        <time>2017-07-06T12:25:58Z</time>
      </trkpt>
      <trkpt lat="46.15905468352139" lon="11.940644178539515">
        <ele>1839.1400000000001</ele>
        <time>2017-07-06T12:26:09Z</time>
      </trkpt>
      <trkpt lat="46.159064322710037" lon="11.940615428611636">
        <ele>1839.1400000000001</ele>
        <time>2017-07-06T12:26:26Z</time>
      </trkpt>
      <trkpt lat="46.159070609137416" lon="11.940608220174909">
        <ele>1839.1400000000001</ele>
        <time>2017-07-06T12:26:42Z</time>
      </trkpt>
      <trkpt lat="46.158999027684331" lon="11.94065909832716">
        <ele>1840.5799999999999</ele>
        <time>2017-07-06T12:26:52Z</time>
      </trkpt>
      <trkpt lat="46.158951837569475" lon="11.940682819113135">
        <ele>1842.02</ele>
        <time>2017-07-06T12:27:04Z</time>
      </trkpt>
      <trkpt lat="46.158929038792849" lon="11.940739816054702">
        <ele>1843.47</ele>
        <time>2017-07-06T12:27:14Z</time>
      </trkpt>
      <trkpt lat="46.158926356583834" lon="11.940812906250358">
        <ele>1845.8699999999999</ele>
        <time>2017-07-06T12:27:26Z</time>
      </trkpt>
      <trkpt lat="46.158892661333084" lon="11.940868645906448">
        <ele>1847.3099999999999</ele>
        <time>2017-07-06T12:27:36Z</time>
      </trkpt>
      <trkpt lat="46.158863827586174" lon="11.940967384725809">
        <ele>1849.71</ele>
        <time>2017-07-06T12:27:51Z</time>
      </trkpt>
      <trkpt lat="46.158835915848613" lon="11.940948693081737">
        <ele>1851.1600000000001</ele>
        <time>2017-07-06T12:28:00Z</time>
      </trkpt>
      <trkpt lat="46.158807668834925" lon="11.940863532945514">
        <ele>1852.5999999999999</ele>
        <time>2017-07-06T12:28:12Z</time>
      </trkpt>
      <trkpt lat="46.158771710470319" lon="11.940847858786583">
        <ele>1854.52</ele>
        <time>2017-07-06T12:28:21Z</time>
      </trkpt>
      <trkpt lat="46.158744469285011" lon="11.940936036407948">
        <ele>1856.4400000000001</ele>
        <time>2017-07-06T12:28:35Z</time>
      </trkpt>
      <trkpt lat="46.158711444586515" lon="11.940955650061369">
        <ele>1858.3699999999999</ele>
        <time>2017-07-06T12:28:47Z</time>
      </trkpt>
      <trkpt lat="46.158722760155797" lon="11.940894713625312">
        <ele>1859.3299999999999</ele>
        <time>2017-07-06T12:28:57Z</time>
      </trkpt>
      <trkpt lat="46.158693674951792" lon="11.940832938998938">
        <ele>1861.25</ele>
        <time>2017-07-06T12:29:12Z</time>
      </trkpt>
      <trkpt lat="46.158685712143779" lon="11.940863113850355">
        <ele>1863.1700000000001</ele>
        <time>2017-07-06T12:29:25Z</time>
      </trkpt>
      <trkpt lat="46.158628799021244" lon="11.940864874050021">
        <ele>1867.02</ele>
        <time>2017-07-06T12:29:39Z</time>
      </trkpt>
      <trkpt lat="46.158611280843616" lon="11.940871328115463">
        <ele>1866.0599999999999</ele>
        <time>2017-07-06T12:29:50Z</time>
      </trkpt>
      <trkpt lat="46.158554619178176" lon="11.940888427197933">
        <ele>1867.98</ele>
        <time>2017-07-06T12:30:02Z</time>
      </trkpt>
      <trkpt lat="46.15855386480689" lon="11.940786922350526">
        <ele>1870.3800000000001</ele>
        <time>2017-07-06T12:30:16Z</time>
      </trkpt>
      <trkpt lat="46.158517487347126" lon="11.94068256765604">
        <ele>1872.79</ele>
        <time>2017-07-06T12:30:31Z</time>
      </trkpt>
      <trkpt lat="46.158503573387861" lon="11.940722046419978">
        <ele>1874.23</ele>
        <time>2017-07-06T12:30:41Z</time>
      </trkpt>
      <trkpt lat="46.158466190099716" lon="11.940742833539844">
        <ele>1875.1900000000001</ele>
        <time>2017-07-06T12:30:52Z</time>
      </trkpt>
      <trkpt lat="46.158431908115745" lon="11.940751299262047">
        <ele>1877.1099999999999</ele>
        <time>2017-07-06T12:31:03Z</time>
      </trkpt>
      <trkpt lat="46.15839603357017" lon="11.940774684771895">
        <ele>1879.03</ele>
        <time>2017-07-06T12:31:15Z</time>
      </trkpt>
      <trkpt lat="46.158356722444296" lon="11.940755071118474">
        <ele>1880.96</ele>
        <time>2017-07-06T12:31:28Z</time>
      </trkpt>
      <trkpt lat="46.158383376896381" lon="11.940763369202614">
        <ele>1880.96</ele>
        <time>2017-07-06T12:31:43Z</time>
      </trkpt>
      <trkpt lat="46.158352196216583" lon="11.940726153552532">
        <ele>1881.4400000000001</ele>
        <time>2017-07-06T12:31:58Z</time>
      </trkpt>
      <trkpt lat="46.158345825970173" lon="11.94068742915988">
        <ele>1882.4000000000001</ele>
        <time>2017-07-06T12:32:08Z</time>
      </trkpt>
      <trkpt lat="46.158314058557153" lon="11.940740486606956">
        <ele>1884.8</ele>
        <time>2017-07-06T12:32:20Z</time>
      </trkpt>
      <trkpt lat="46.15827776491642" lon="11.940745348110795">
        <ele>1887.21</ele>
        <time>2017-07-06T12:32:30Z</time>
      </trkpt>
      <trkpt lat="46.15829142741859" lon="11.94075440056622">
        <ele>1887.6900000000001</ele>
        <time>2017-07-06T12:32:40Z</time>
      </trkpt>
      <trkpt lat="46.158254630863667" lon="11.940769320353866">
        <ele>1888.6500000000001</ele>
        <time>2017-07-06T12:32:48Z</time>
      </trkpt>
      <trkpt lat="46.158206686377525" lon="11.940813241526484">
        <ele>1890.0899999999999</ele>
        <time>2017-07-06T12:32:59Z</time>
      </trkpt>
      <trkpt lat="46.158139295876026" lon="11.940843751654029">
        <ele>1892.97</ele>
        <time>2017-07-06T12:33:14Z</time>
      </trkpt>
      <trkpt lat="46.158086825162172" lon="11.940853223204613">
        <ele>1893.9300000000001</ele>
        <time>2017-07-06T12:33:23Z</time>
      </trkpt>
      <trkpt lat="46.158039383590221" lon="11.940900916233659">
        <ele>1896.3399999999999</ele>
        <time>2017-07-06T12:33:39Z</time>
      </trkpt>
      <trkpt lat="46.158013818785548" lon="11.940900832414627">
        <ele>1897.78</ele>
        <time>2017-07-06T12:33:53Z</time>
      </trkpt>
      <trkpt lat="46.157978782430291" lon="11.940939305350184">
        <ele>1898.74</ele>
        <time>2017-07-06T12:34:09Z</time>
      </trkpt>
      <trkpt lat="46.15800216794014" lon="11.940917763859034">
        <ele>1898.74</ele>
        <time>2017-07-06T12:34:21Z</time>
      </trkpt>
      <trkpt lat="46.158007783815265" lon="11.940920613706112">
        <ele>1899.22</ele>
        <time>2017-07-06T12:34:41Z</time>
      </trkpt>
      <trkpt lat="46.1580163333565" lon="11.940912399441004">
        <ele>1899.22</ele>
        <time>2017-07-06T12:35:00Z</time>
      </trkpt>
      <trkpt lat="46.15798850543797" lon="11.94095766171813">
        <ele>1900.1800000000001</ele>
        <time>2017-07-06T12:35:16Z</time>
      </trkpt>
      <trkpt lat="46.157948523759842" lon="11.941009294241667">
        <ele>1901.6300000000001</ele>
        <time>2017-07-06T12:35:25Z</time>
      </trkpt>
      <trkpt lat="46.157950032502413" lon="11.941063441336155">
        <ele>1903.0699999999999</ele>
        <time>2017-07-06T12:35:35Z</time>
      </trkpt>
      <trkpt lat="46.157939555123448" lon="11.941158073022962">
        <ele>1904.99</ele>
        <time>2017-07-06T12:35:47Z</time>
      </trkpt>
      <trkpt lat="46.15792597644031" lon="11.941263349726796">
        <ele>1905.95</ele>
        <time>2017-07-06T12:35:59Z</time>
      </trkpt>
      <trkpt lat="46.157942153513432" lon="11.941386396065354">
        <ele>1906.9100000000001</ele>
        <time>2017-07-06T12:36:12Z</time>
      </trkpt>
      <trkpt lat="46.157953971996903" lon="11.941389078274369">
        <ele>1908.3499999999999</ele>
        <time>2017-07-06T12:36:21Z</time>
      </trkpt>
      <trkpt lat="46.157967215403914" lon="11.941379606723785">
        <ele>1908.3499999999999</ele>
        <time>2017-07-06T12:36:36Z</time>
      </trkpt>
      <trkpt lat="46.158002587035298" lon="11.941458899527788">
        <ele>1908.8299999999999</ele>
        <time>2017-07-06T12:36:43Z</time>
      </trkpt>
      <trkpt lat="46.158014824613929" lon="11.941608265042305">
        <ele>1908.3499999999999</ele>
        <time>2017-07-06T12:36:54Z</time>
      </trkpt>
      <trkpt lat="46.15800610743463" lon="11.941702477633953">
        <ele>1910.28</ele>
        <time>2017-07-06T12:37:02Z</time>
      </trkpt>
      <trkpt lat="46.157999066635966" lon="11.941786464303732">
        <ele>1911.24</ele>
        <time>2017-07-06T12:37:12Z</time>
      </trkpt>
      <trkpt lat="46.157971657812595" lon="11.941849328577518">
        <ele>1913.1600000000001</ele>
        <time>2017-07-06T12:37:22Z</time>
      </trkpt>
      <trkpt lat="46.157879792153835" lon="11.941843377426267">
        <ele>1914.5999999999999</ele>
        <time>2017-07-06T12:37:32Z</time>
      </trkpt>
      <trkpt lat="46.157824639230967" lon="11.941842790693045">
        <ele>1915.5599999999999</ele>
        <time>2017-07-06T12:37:41Z</time>
      </trkpt>
      <trkpt lat="46.157761439681053" lon="11.941813034936786">
        <ele>1917.49</ele>
        <time>2017-07-06T12:37:54Z</time>
      </trkpt>
      <trkpt lat="46.157712321728468" lon="11.941825523972511">
        <ele>1918.9300000000001</ele>
        <time>2017-07-06T12:38:06Z</time>
      </trkpt>
      <trkpt lat="46.157649457454681" lon="11.941815717145801">
        <ele>1921.3299999999999</ele>
        <time>2017-07-06T12:38:17Z</time>
      </trkpt>
      <trkpt lat="46.157618276774883" lon="11.941811023280025">
        <ele>1922.77</ele>
        <time>2017-07-06T12:38:28Z</time>
      </trkpt>
      <trkpt lat="46.157567230984569" lon="11.941806580871344">
        <ele>1924.7</ele>
        <time>2017-07-06T12:38:40Z</time>
      </trkpt>
      <trkpt lat="46.157525992020965" lon="11.941833654418588">
        <ele>1926.1400000000001</ele>
        <time>2017-07-06T12:38:51Z</time>
      </trkpt>
      <trkpt lat="46.157483411952853" lon="11.941820327192545">
        <ele>1928.0599999999999</ele>
        <time>2017-07-06T12:39:03Z</time>
      </trkpt>
      <trkpt lat="46.15743001922965" lon="11.941781518980861">
        <ele>1929.5</ele>
        <time>2017-07-06T12:39:17Z</time>
      </trkpt>
      <trkpt lat="46.157374028116465" lon="11.94173214957118">
        <ele>1930.95</ele>
        <time>2017-07-06T12:39:30Z</time>
      </trkpt>
      <trkpt lat="46.157328933477402" lon="11.941693592816591">
        <ele>1932.3900000000001</ele>
        <time>2017-07-06T12:39:42Z</time>
      </trkpt>
      <trkpt lat="46.157283084467053" lon="11.941630644723773">
        <ele>1934.3099999999999</ele>
        <time>2017-07-06T12:39:56Z</time>
      </trkpt>
      <trkpt lat="46.157248970121145" lon="11.941583538427949">
        <ele>1935.75</ele>
        <time>2017-07-06T12:40:06Z</time>
      </trkpt>
      <trkpt lat="46.157257435843349" lon="11.941558979451656">
        <ele>1936.23</ele>
        <time>2017-07-06T12:40:18Z</time>
      </trkpt>
      <trkpt lat="46.157210748642683" lon="11.941486643627286">
        <ele>1938.1600000000001</ele>
        <time>2017-07-06T12:40:31Z</time>
      </trkpt>
      <trkpt lat="46.157153164967895" lon="11.941436603665352">
        <ele>1940.5599999999999</ele>
        <time>2017-07-06T12:40:43Z</time>
      </trkpt>
      <trkpt lat="46.15713631734252" lon="11.941390503197908">
        <ele>1942.96</ele>
        <time>2017-07-06T12:40:56Z</time>
      </trkpt>
      <trkpt lat="46.157121732831001" lon="11.941302744671702">
        <ele>1945.3599999999999</ele>
        <time>2017-07-06T12:41:09Z</time>
      </trkpt>
      <trkpt lat="46.157127600163221" lon="11.941226301714778">
        <ele>1947.29</ele>
        <time>2017-07-06T12:41:21Z</time>
      </trkpt>
      <trkpt lat="46.157156014814973" lon="11.941218171268702">
        <ele>1948.73</ele>
        <time>2017-07-06T12:41:32Z</time>
      </trkpt>
      <trkpt lat="46.157157523557544" lon="11.941211884841323">
        <ele>1948.73</ele>
        <time>2017-07-06T12:41:44Z</time>
      </trkpt>
      <trkpt lat="46.157131036743522" lon="11.941173244267702">
        <ele>1950.6500000000001</ele>
        <time>2017-07-06T12:41:54Z</time>
      </trkpt>
      <trkpt lat="46.15713682025671" lon="11.941132759675384">
        <ele>1952.0899999999999</ele>
        <time>2017-07-06T12:42:02Z</time>
      </trkpt>
      <trkpt lat="46.157152578234673" lon="11.941092694178224">
        <ele>1954.02</ele>
        <time>2017-07-06T12:42:11Z</time>
      </trkpt>
      <trkpt lat="46.157173784449697" lon="11.941060088574886">
        <ele>1955.46</ele>
        <time>2017-07-06T12:42:20Z</time>
      </trkpt>
      <trkpt lat="46.157193398103118" lon="11.940987417474389">
        <ele>1957.8599999999999</ele>
        <time>2017-07-06T12:42:35Z</time>
      </trkpt>
      <trkpt lat="46.157178478315473" lon="11.94096252322197">
        <ele>1958.3399999999999</ele>
        <time>2017-07-06T12:42:47Z</time>
      </trkpt>
      <trkpt lat="46.157121397554874" lon="11.940896054729819">
        <ele>1960.75</ele>
        <time>2017-07-06T12:43:01Z</time>
      </trkpt>
      <trkpt lat="46.157063981518149" lon="11.940932935103774">
        <ele>1962.6700000000001</ele>
        <time>2017-07-06T12:43:11Z</time>
      </trkpt>
      <trkpt lat="46.157054509967566" lon="11.940889935940504">
        <ele>1964.1099999999999</ele>
        <time>2017-07-06T12:43:24Z</time>
      </trkpt>
      <trkpt lat="46.157058700919151" lon="11.940813828259706">
        <ele>1966.03</ele>
        <time>2017-07-06T12:43:35Z</time>
      </trkpt>
      <trkpt lat="46.157069178298116" lon="11.940781055018306">
        <ele>1967.96</ele>
        <time>2017-07-06T12:43:46Z</time>
      </trkpt>
      <trkpt lat="46.1570855230093" lon="11.940770745277405">
        <ele>1967.96</ele>
        <time>2017-07-06T12:43:55Z</time>
      </trkpt>
      <trkpt lat="46.157090635970235" lon="11.94071140140295">
        <ele>1969.4000000000001</ele>
        <time>2017-07-06T12:44:07Z</time>
      </trkpt>
      <trkpt lat="46.157132461667061" lon="11.940657673403621">
        <ele>1971.8</ele>
        <time>2017-07-06T12:44:19Z</time>
      </trkpt>
      <trkpt lat="46.157158110290766" lon="11.940581565722823">
        <ele>1973.24</ele>
        <time>2017-07-06T12:44:32Z</time>
      </trkpt>
      <trkpt lat="46.157183675095439" lon="11.940529681742191">
        <ele>1974.6900000000001</ele>
        <time>2017-07-06T12:44:44Z</time>
      </trkpt>
      <trkpt lat="46.157205551862717" lon="11.940537979826331">
        <ele>1975.1700000000001</ele>
        <time>2017-07-06T12:44:58Z</time>
      </trkpt>
      <trkpt lat="46.15721644833684" lon="11.940498584881425">
        <ele>1975.6500000000001</ele>
        <time>2017-07-06T12:45:08Z</time>
      </trkpt>
      <trkpt lat="46.157226674258709" lon="11.94049833342433">
        <ele>1976.1300000000001</ele>
        <time>2017-07-06T12:45:25Z</time>
      </trkpt>
      <trkpt lat="46.157224830240011" lon="11.940456926822662">
        <ele>1977.0899999999999</ele>
        <time>2017-07-06T12:45:36Z</time>
      </trkpt>
      <trkpt lat="46.157246623188257" lon="11.940387943759561">
        <ele>1979.49</ele>
        <time>2017-07-06T12:45:49Z</time>
      </trkpt>
      <trkpt lat="46.157218543812633" lon="11.940293982625008">
        <ele>1981.9000000000001</ele>
        <time>2017-07-06T12:46:02Z</time>
      </trkpt>
      <trkpt lat="46.157185351476073" lon="11.94020563736558">
        <ele>1984.3</ele>
        <time>2017-07-06T12:46:14Z</time>
      </trkpt>
      <trkpt lat="46.157154757529497" lon="11.940145622938871">
        <ele>1985.26</ele>
        <time>2017-07-06T12:46:26Z</time>
      </trkpt>
      <trkpt lat="46.157156182453036" lon="11.940136235207319">
        <ele>1985.26</ele>
        <time>2017-07-06T12:46:44Z</time>
      </trkpt>
      <trkpt lat="46.157104801386595" lon="11.940120561048388">
        <ele>1986.7</ele>
        <time>2017-07-06T12:46:56Z</time>
      </trkpt>
      <trkpt lat="46.15711335092783" lon="11.940129026770592">
        <ele>1986.7</ele>
        <time>2017-07-06T12:47:09Z</time>
      </trkpt>
      <trkpt lat="46.157082673162222" lon="11.940055433660746">
        <ele>1987.6600000000001</ele>
        <time>2017-07-06T12:47:18Z</time>
      </trkpt>
      <trkpt lat="46.157043613493443" lon="11.939977062866092">
        <ele>1988.6199999999999</ele>
        <time>2017-07-06T12:47:29Z</time>
      </trkpt>
      <trkpt lat="46.157018719241023" lon="11.93991394713521">
        <ele>1990.55</ele>
        <time>2017-07-06T12:47:41Z</time>
      </trkpt>
      <trkpt lat="46.1569594591856" lon="11.939857872202992">
        <ele>1992.95</ele>
        <time>2017-07-06T12:47:53Z</time>
      </trkpt>
      <trkpt lat="46.156897936016321" lon="11.939825685694814">
        <ele>1994.8699999999999</ele>
        <time>2017-07-06T12:48:05Z</time>
      </trkpt>
      <trkpt lat="46.156887374818325" lon="11.939827278256416">
        <ele>1994.3900000000001</ele>
        <time>2017-07-06T12:48:18Z</time>
      </trkpt>
      <trkpt lat="46.156887710094452" lon="11.939800372347236">
        <ele>1994.3900000000001</ele>
        <time>2017-07-06T12:48:24Z</time>
      </trkpt>
      <trkpt lat="46.156858038157225" lon="11.939742369577289">
        <ele>1995.8299999999999</ele>
        <time>2017-07-06T12:48:34Z</time>
      </trkpt>
      <trkpt lat="46.156863821670413" lon="11.939718145877123">
        <ele>1995.3499999999999</ele>
        <time>2017-07-06T12:48:44Z</time>
      </trkpt>
      <trkpt lat="46.156856613233685" lon="11.939617311581969">
        <ele>1994.3900000000001</ele>
        <time>2017-07-06T12:48:52Z</time>
      </trkpt>
      <trkpt lat="46.156835909932852" lon="11.939590405672789">
        <ele>1993.9100000000001</ele>
        <time>2017-07-06T12:48:55Z</time>
      </trkpt>
      <trkpt lat="46.156790228560567" lon="11.939459815621376">
        <ele>1995.3499999999999</ele>
        <time>2017-07-06T12:49:08Z</time>
      </trkpt>
      <trkpt lat="46.156783103942871" lon="11.939456965774298">
        <ele>1995.8299999999999</ele>
        <time>2017-07-06T12:49:09Z</time>
      </trkpt>
      <trkpt lat="46.156716467812657" lon="11.939393766224384">
        <ele>1996.8</ele>
        <time>2017-07-06T12:49:22Z</time>
      </trkpt>
      <trkpt lat="46.156721580773592" lon="11.939377170056105">
        <ele>1996.8</ele>
        <time>2017-07-06T12:49:42Z</time>
      </trkpt>
      <trkpt lat="46.156734237447381" lon="11.939363172277808">
        <ele>1996.3199999999999</ele>
        <time>2017-07-06T12:50:00Z</time>
      </trkpt>
      <trkpt lat="46.156736332923174" lon="11.939350767061114">
        <ele>1996.3199999999999</ele>
        <time>2017-07-06T12:50:26Z</time>
      </trkpt>
      <trkpt lat="46.156745888292789" lon="11.939351856708527">
        <ele>1996.3199999999999</ele>
        <time>2017-07-06T12:50:35Z</time>
      </trkpt>
      <trkpt lat="46.156729711219668" lon="11.93935738876462">
        <ele>1996.8</ele>
        <time>2017-07-06T12:50:53Z</time>
      </trkpt>
      <trkpt lat="46.156727196648717" lon="11.939306678250432">
        <ele>1995.3499999999999</ele>
        <time>2017-07-06T12:51:05Z</time>
      </trkpt>
      <trkpt lat="46.156770866364241" lon="11.939354287460446">
        <ele>1996.8</ele>
        <time>2017-07-06T12:51:18Z</time>
      </trkpt>
      <trkpt lat="46.156753012910485" lon="11.939336350187659">
        <ele>1995.8299999999999</ele>
        <time>2017-07-06T12:51:28Z</time>
      </trkpt>
      <trkpt lat="46.156746139749885" lon="11.939368033781648">
        <ele>1995.8299999999999</ele>
        <time>2017-07-06T12:51:42Z</time>
      </trkpt>
      <trkpt lat="46.156763155013323" lon="11.939371470361948">
        <ele>1995.8299999999999</ele>
        <time>2017-07-06T12:52:00Z</time>
      </trkpt>
      <trkpt lat="46.156767094507813" lon="11.939370967447758">
        <ele>1995.8299999999999</ele>
        <time>2017-07-06T12:52:28Z</time>
      </trkpt>
      <trkpt lat="46.15676692686975" lon="11.939372308552265">
        <ele>1995.8299999999999</ele>
        <time>2017-07-06T12:52:52Z</time>
      </trkpt>
      <trkpt lat="46.156760388985276" lon="11.939371721819043">
        <ele>1995.8299999999999</ele>
        <time>2017-07-06T12:53:13Z</time>
      </trkpt>
      <trkpt lat="46.156765753403306" lon="11.939372979104519">
        <ele>1995.8299999999999</ele>
        <time>2017-07-06T12:53:36Z</time>
      </trkpt>
      <trkpt lat="46.156765418127179" lon="11.939380941912532">
        <ele>1995.8299999999999</ele>
        <time>2017-07-06T12:54:05Z</time>
      </trkpt>
      <trkpt lat="46.156758544966578" lon="11.9393842946738">
        <ele>1995.8299999999999</ele>
        <time>2017-07-06T12:54:30Z</time>
      </trkpt>
      <trkpt lat="46.156748905777931" lon="11.939369374886155">
        <ele>1995.8299999999999</ele>
        <time>2017-07-06T12:54:41Z</time>
      </trkpt>
      <trkpt lat="46.156766172498465" lon="11.939371470361948">
        <ele>1995.8299999999999</ele>
        <time>2017-07-06T12:55:10Z</time>
      </trkpt>
      <trkpt lat="46.156762652099133" lon="11.939379181712866">
        <ele>1995.8299999999999</ele>
        <time>2017-07-06T12:55:35Z</time>
      </trkpt>
      <trkpt lat="46.156760137528181" lon="11.939388737082481">
        <ele>1995.8299999999999</ele>
        <time>2017-07-06T12:56:02Z</time>
      </trkpt>
      <trkpt lat="46.156755527481437" lon="11.939388317987323">
        <ele>1996.3199999999999</ele>
        <time>2017-07-06T12:56:32Z</time>
      </trkpt>
      <trkpt lat="46.156755359843373" lon="11.93938571959734">
        <ele>1996.3199999999999</ele>
        <time>2017-07-06T12:56:56Z</time>
      </trkpt>
      <trkpt lat="46.156754773110151" lon="11.939381193369627">
        <ele>1996.8</ele>
        <time>2017-07-06T12:57:11Z</time>
      </trkpt>
      <trkpt lat="46.156735997647047" lon="11.93938915617764">
        <ele>1996.8</ele>
        <time>2017-07-06T12:57:41Z</time>
      </trkpt>
      <trkpt lat="46.156728118658066" lon="11.939377589151263">
        <ele>1996.8</ele>
        <time>2017-07-06T12:58:11Z</time>
      </trkpt>
      <trkpt lat="46.156748402863741" lon="11.939364932477474">
        <ele>1997.28</ele>
        <time>2017-07-06T12:58:25Z</time>
      </trkpt>
      <trkpt lat="46.156757371500134" lon="11.939379265531898">
        <ele>1997.28</ele>
        <time>2017-07-06T12:58:49Z</time>
      </trkpt>
      <trkpt lat="46.156768938526511" lon="11.939362920820713">
        <ele>1997.28</ele>
        <time>2017-07-06T12:59:17Z</time>
      </trkpt>
      <trkpt lat="46.156765166670084" lon="11.93937549367547">
        <ele>1997.28</ele>
        <time>2017-07-06T12:59:41Z</time>
      </trkpt>
      <trkpt lat="46.156767765060067" lon="11.939361998811364">
        <ele>1997.28</ele>
        <time>2017-07-06T13:00:08Z</time>
      </trkpt>
      <trkpt lat="46.156762316823006" lon="11.939365519210696">
        <ele>1997.28</ele>
        <time>2017-07-06T13:00:44Z</time>
      </trkpt>
      <trkpt lat="46.156769106164575" lon="11.939369207248092">
        <ele>1996.8</ele>
        <time>2017-07-06T13:01:15Z</time>
      </trkpt>
      <trkpt lat="46.156764831393957" lon="11.939348001033068">
        <ele>1997.28</ele>
        <time>2017-07-06T13:01:35Z</time>
      </trkpt>
      <trkpt lat="46.156768938526511" lon="11.93935546092689">
        <ele>1997.76</ele>
        <time>2017-07-06T13:01:47Z</time>
      </trkpt>
      <trkpt lat="46.156777488067746" lon="11.939364178106189">
        <ele>1997.76</ele>
        <time>2017-07-06T13:02:02Z</time>
      </trkpt>
      <trkpt lat="46.156752677634358" lon="11.939351102337241">
        <ele>1997.76</ele>
        <time>2017-07-06T13:02:16Z</time>
      </trkpt>
      <trkpt lat="46.156742200255394" lon="11.939357221126556">
        <ele>1997.28</ele>
        <time>2017-07-06T13:02:35Z</time>
      </trkpt>
      <trkpt lat="46.156729543581605" lon="11.939338026568294">
        <ele>1996.8</ele>
        <time>2017-07-06T13:02:50Z</time>
      </trkpt>
      <trkpt lat="46.156732896342874" lon="11.939277425408363">
        <ele>1995.3499999999999</ele>
        <time>2017-07-06T13:02:58Z</time>
      </trkpt>
      <trkpt lat="46.156712528318167" lon="11.939153373241425">
        <ele>1991.99</ele>
        <time>2017-07-06T13:03:09Z</time>
      </trkpt>
      <trkpt lat="46.156706996262074" lon="11.939062681049109">
        <ele>1989.5899999999999</ele>
        <time>2017-07-06T13:03:20Z</time>
      </trkpt>
      <trkpt lat="46.156695429235697" lon="11.938963942229748">
        <ele>1987.1800000000001</ele>
        <time>2017-07-06T13:03:31Z</time>
      </trkpt>
      <trkpt lat="46.156701212748885" lon="11.938874339684844">
        <ele>1984.78</ele>
        <time>2017-07-06T13:03:40Z</time>
      </trkpt>
      <trkpt lat="46.156694674864411" lon="11.938759842887521">
        <ele>1983.3399999999999</ele>
        <time>2017-07-06T13:03:51Z</time>
      </trkpt>
      <trkpt lat="46.156689561903477" lon="11.938757915049791">
        <ele>1983.3399999999999</ele>
        <time>2017-07-06T13:03:52Z</time>
      </trkpt>
      <trkpt lat="46.156682185828686" lon="11.938695050776005">
        <ele>1981.9000000000001</ele>
        <time>2017-07-06T13:04:01Z</time>
      </trkpt>
      <trkpt lat="46.156682102009654" lon="11.938614249229431">
        <ele>1981.4100000000001</ele>
        <time>2017-07-06T13:04:06Z</time>
      </trkpt>
      <trkpt lat="46.156659303233027" lon="11.938448203727603">
        <ele>1979.01</ele>
        <time>2017-07-06T13:04:17Z</time>
      </trkpt>
      <trkpt lat="46.15665452554822" lon="11.938386261463165">
        <ele>1978.53</ele>
        <time>2017-07-06T13:04:22Z</time>
      </trkpt>
      <trkpt lat="46.156637761741877" lon="11.938354829326272">
        <ele>1978.05</ele>
        <time>2017-07-06T13:04:25Z</time>
      </trkpt>
      <trkpt lat="46.156621668487787" lon="11.938236644491553">
        <ele>1977.0899999999999</ele>
        <time>2017-07-06T13:04:34Z</time>
      </trkpt>
      <trkpt lat="46.156614208593965" lon="11.938185347244143">
        <ele>1976.6099999999999</ele>
        <time>2017-07-06T13:04:38Z</time>
      </trkpt>
      <trkpt lat="46.156603647395968" lon="11.938054338097572">
        <ele>1976.1300000000001</ele>
        <time>2017-07-06T13:04:48Z</time>
      </trkpt>
      <trkpt lat="46.156568359583616" lon="11.937954844906926">
        <ele>1975.6500000000001</ele>
        <time>2017-07-06T13:04:58Z</time>
      </trkpt>
      <trkpt lat="46.156523767858744" lon="11.937832636758685">
        <ele>1975.1700000000001</ele>
        <time>2017-07-06T13:05:08Z</time>
      </trkpt>
      <trkpt lat="46.156519241631031" lon="11.937825009226799">
        <ele>1975.6500000000001</ele>
        <time>2017-07-06T13:05:09Z</time>
      </trkpt>
      <trkpt lat="46.156458975747228" lon="11.937713027000427">
        <ele>1975.1700000000001</ele>
        <time>2017-07-06T13:05:20Z</time>
      </trkpt>
      <trkpt lat="46.156406002119184" lon="11.937613114714622">
        <ele>1973.72</ele>
        <time>2017-07-06T13:05:29Z</time>
      </trkpt>
      <trkpt lat="46.156444391235709" lon="11.937441201880574">
        <ele>1970.8399999999999</ele>
        <time>2017-07-06T13:05:42Z</time>
      </trkpt>
      <trkpt lat="46.156472135335207" lon="11.937363334000111">
        <ele>1969.4000000000001</ele>
        <time>2017-07-06T13:05:53Z</time>
      </trkpt>
      <trkpt lat="46.156495939940214" lon="11.937272222712636">
        <ele>1966.99</ele>
        <time>2017-07-06T13:06:04Z</time>
      </trkpt>
      <trkpt lat="46.156502058729529" lon="11.937233917415142">
        <ele>1966.03</ele>
        <time>2017-07-06T13:06:08Z</time>
      </trkpt>
      <trkpt lat="46.156531143933535" lon="11.937128556892276">
        <ele>1964.5899999999999</ele>
        <time>2017-07-06T13:06:18Z</time>
      </trkpt>
      <trkpt lat="46.156537178903818" lon="11.937066111713648">
        <ele>1963.1500000000001</ele>
        <time>2017-07-06T13:06:24Z</time>
      </trkpt>
      <trkpt lat="46.156518068164587" lon="11.936950273811817">
        <ele>1960.75</ele>
        <time>2017-07-06T13:06:32Z</time>
      </trkpt>
      <trkpt lat="46.156505327671766" lon="11.936801243573427">
        <ele>1960.75</ele>
        <time>2017-07-06T13:06:42Z</time>
      </trkpt>
      <trkpt lat="46.156525947153568" lon="11.936616506427526">
        <ele>1958.8199999999999</ele>
        <time>2017-07-06T13:06:54Z</time>
      </trkpt>
      <trkpt lat="46.156564252451062" lon="11.936534950509667">
        <ele>1958.3399999999999</ele>
        <time>2017-07-06T13:07:01Z</time>
      </trkpt>
      <trkpt lat="46.156586883589625" lon="11.936444845050573">
        <ele>1958.8199999999999</ele>
        <time>2017-07-06T13:07:10Z</time>
      </trkpt>
      <trkpt lat="46.156628038734198" lon="11.936331270262599">
        <ele>1957.8599999999999</ele>
        <time>2017-07-06T13:07:20Z</time>
      </trkpt>
      <trkpt lat="46.156637258827686" lon="11.936325570568442">
        <ele>1957.3800000000001</ele>
        <time>2017-07-06T13:07:21Z</time>
      </trkpt>
      <trkpt lat="46.156715042889118" lon="11.936248959973454">
        <ele>1955.9400000000001</ele>
        <time>2017-07-06T13:07:33Z</time>
      </trkpt>
      <trkpt lat="46.156719317659736" lon="11.936221215873957">
        <ele>1954.98</ele>
        <time>2017-07-06T13:07:37Z</time>
      </trkpt>
      <trkpt lat="46.156754856929183" lon="11.936151310801506">
        <ele>1953.0599999999999</ele>
        <time>2017-07-06T13:07:48Z</time>
      </trkpt>
      <trkpt lat="46.156776566058397" lon="11.936104288324714">
        <ele>1952.0899999999999</ele>
        <time>2017-07-06T13:07:56Z</time>
      </trkpt>
      <trkpt lat="46.156784361228347" lon="11.936074364930391">
        <ele>1950.1700000000001</ele>
        <time>2017-07-06T13:08:07Z</time>
      </trkpt>
      <trkpt lat="46.15679282695055" lon="11.936055673286319">
        <ele>1948.73</ele>
        <time>2017-07-06T13:08:16Z</time>
      </trkpt>
      <trkpt lat="46.156795676797628" lon="11.936024911701679">
        <ele>1946.8099999999999</ele>
        <time>2017-07-06T13:08:24Z</time>
      </trkpt>
      <trkpt lat="46.15682065486908" lon="11.935946624726057">
        <ele>1944.8800000000001</ele>
        <time>2017-07-06T13:08:35Z</time>
      </trkpt>
      <trkpt lat="46.156848147511482" lon="11.935890298336744">
        <ele>1942.96</ele>
        <time>2017-07-06T13:08:44Z</time>
      </trkpt>
      <trkpt lat="46.156880501657724" lon="11.935856519266963">
        <ele>1942.48</ele>
        <time>2017-07-06T13:08:48Z</time>
      </trkpt>
      <trkpt lat="46.156990891322494" lon="11.935813184827566">
        <ele>1942.48</ele>
        <time>2017-07-06T13:09:00Z</time>
      </trkpt>
      <trkpt lat="46.157002625986934" lon="11.93574202246964">
        <ele>1941.04</ele>
        <time>2017-07-06T13:09:09Z</time>
      </trkpt>
      <trkpt lat="46.157030621543527" lon="11.935719391331077">
        <ele>1941.52</ele>
        <time>2017-07-06T13:09:12Z</time>
      </trkpt>
      <trkpt lat="46.157048223540187" lon="11.935686198994517">
        <ele>1940.5599999999999</ele>
        <time>2017-07-06T13:09:16Z</time>
      </trkpt>
      <trkpt lat="46.157070267945528" lon="11.935588885098696">
        <ele>1941.04</ele>
        <time>2017-07-06T13:09:25Z</time>
      </trkpt>
      <trkpt lat="46.157099520787597" lon="11.935509089380503">
        <ele>1941.52</ele>
        <time>2017-07-06T13:09:31Z</time>
      </trkpt>
      <trkpt lat="46.157104885205626" lon="11.935467263683677">
        <ele>1941.04</ele>
        <time>2017-07-06T13:09:34Z</time>
      </trkpt>
      <trkpt lat="46.157166408374906" lon="11.935404315590858">
        <ele>1942</ele>
        <time>2017-07-06T13:09:42Z</time>
      </trkpt>
      <trkpt lat="46.157196667045355" lon="11.935325358062983">
        <ele>1942.96</ele>
        <time>2017-07-06T13:09:50Z</time>
      </trkpt>
      <trkpt lat="46.157201444730163" lon="11.935276910662651">
        <ele>1942</ele>
        <time>2017-07-06T13:10:00Z</time>
      </trkpt>
      <trkpt lat="46.157241929322481" lon="11.935235671699047">
        <ele>1942.96</ele>
        <time>2017-07-06T13:10:09Z</time>
      </trkpt>
      <trkpt lat="46.157297249883413" lon="11.935194516554475">
        <ele>1941.52</ele>
        <time>2017-07-06T13:10:19Z</time>
      </trkpt>
      <trkpt lat="46.157304877415299" lon="11.935165179893374">
        <ele>1940.5599999999999</ele>
        <time>2017-07-06T13:10:29Z</time>
      </trkpt>
      <trkpt lat="46.15730931982398" lon="11.935110613703728">
        <ele>1939.5999999999999</ele>
        <time>2017-07-06T13:10:37Z</time>
      </trkpt>
      <trkpt lat="46.157304793596268" lon="11.935082785785198">
        <ele>1938.6400000000001</ele>
        <time>2017-07-06T13:10:40Z</time>
      </trkpt>
      <trkpt lat="46.157319461926818" lon="11.93489721044898">
        <ele>1937.6700000000001</ele>
        <time>2017-07-06T13:10:53Z</time>
      </trkpt>
      <trkpt lat="46.157296914607286" lon="11.934792017564178">
        <ele>1939.5999999999999</ele>
        <time>2017-07-06T13:11:05Z</time>
      </trkpt>
      <trkpt lat="46.15734645165503" lon="11.93480777554214">
        <ele>1942</ele>
        <time>2017-07-06T13:11:16Z</time>
      </trkpt>
      <trkpt lat="46.157355168834329" lon="11.934765111654997">
        <ele>1944.4000000000001</ele>
        <time>2017-07-06T13:11:29Z</time>
      </trkpt>
      <trkpt lat="46.157364388927817" lon="11.934704342857003">
        <ele>1945.8499999999999</ele>
        <time>2017-07-06T13:11:41Z</time>
      </trkpt>
      <trkpt lat="46.157385092228651" lon="11.9347252137959">
        <ele>1946.8099999999999</ele>
        <time>2017-07-06T13:11:46Z</time>
      </trkpt>
      <trkpt lat="46.157406466081738" lon="11.934765530750155">
        <ele>1949.21</ele>
        <time>2017-07-06T13:11:55Z</time>
      </trkpt>
      <trkpt lat="46.157404035329819" lon="11.934757400304079">
        <ele>1949.21</ele>
        <time>2017-07-06T13:11:56Z</time>
      </trkpt>
      <trkpt lat="46.1574119143188" lon="11.934712221845984">
        <ele>1950.1700000000001</ele>
        <time>2017-07-06T13:12:05Z</time>
      </trkpt>
      <trkpt lat="46.157414009794593" lon="11.934634521603584">
        <ele>1951.1300000000001</ele>
        <time>2017-07-06T13:12:15Z</time>
      </trkpt>
      <trkpt lat="46.157406466081738" lon="11.934543158859015">
        <ele>1952.0899999999999</ele>
        <time>2017-07-06T13:12:25Z</time>
      </trkpt>
      <trkpt lat="46.157387522980571" lon="11.93449504673481">
        <ele>1950.6500000000001</ele>
        <time>2017-07-06T13:12:35Z</time>
      </trkpt>
      <trkpt lat="46.157369669526815" lon="11.934531508013606">
        <ele>1948.73</ele>
        <time>2017-07-06T13:12:46Z</time>
      </trkpt>
      <trkpt lat="46.157365730032325" lon="11.934537794440985">
        <ele>1948.25</ele>
        <time>2017-07-06T13:12:53Z</time>
      </trkpt>
      <trkpt lat="46.157347457483411" lon="11.934477360919118">
        <ele>1946.8099999999999</ele>
        <time>2017-07-06T13:13:03Z</time>
      </trkpt>
      <trkpt lat="46.157321892678738" lon="11.934475935995579">
        <ele>1944.4000000000001</ele>
        <time>2017-07-06T13:13:13Z</time>
      </trkpt>
      <trkpt lat="46.157322311773896" lon="11.934486581012607">
        <ele>1943.9200000000001</ele>
        <time>2017-07-06T13:13:21Z</time>
      </trkpt>
      <trkpt lat="46.157303284853697" lon="11.93447258323431">
        <ele>1942.96</ele>
        <time>2017-07-06T13:13:34Z</time>
      </trkpt>
      <trkpt lat="46.157266069203615" lon="11.934409886598587">
        <ele>1941.04</ele>
        <time>2017-07-06T13:13:50Z</time>
      </trkpt>
      <trkpt lat="46.1572374869138" lon="11.934451796114445">
        <ele>1940.0799999999999</ele>
        <time>2017-07-06T13:13:59Z</time>
      </trkpt>
      <trkpt lat="46.157219549641013" lon="11.934445174410939">
        <ele>1937.6700000000001</ele>
        <time>2017-07-06T13:14:11Z</time>
      </trkpt>
      <trkpt lat="46.157193146646023" lon="11.934359762817621">
        <ele>1935.75</ele>
        <time>2017-07-06T13:14:21Z</time>
      </trkpt>
      <trkpt lat="46.15716171450913" lon="11.934365797787905">
        <ele>1932.8699999999999</ele>
        <time>2017-07-06T13:14:31Z</time>
      </trkpt>
      <trkpt lat="46.157151153311133" lon="11.934298072010279">
        <ele>1930.95</ele>
        <time>2017-07-06T13:14:40Z</time>
      </trkpt>
      <trkpt lat="46.157149476930499" lon="11.934279380366206">
        <ele>1930.46</ele>
        <time>2017-07-06T13:14:51Z</time>
      </trkpt>
      <trkpt lat="46.157130533829331" lon="11.934265298768878">
        <ele>1929.02</ele>
        <time>2017-07-06T13:15:02Z</time>
      </trkpt>
      <trkpt lat="46.157122319564223" lon="11.934225400909781">
        <ele>1927.0999999999999</ele>
        <time>2017-07-06T13:15:12Z</time>
      </trkpt>
      <trkpt lat="46.157107064500451" lon="11.934199752286077">
        <ele>1926.6199999999999</ele>
        <time>2017-07-06T13:15:22Z</time>
      </trkpt>
      <trkpt lat="46.157094240188599" lon="11.934135379269719">
        <ele>1924.7</ele>
        <time>2017-07-06T13:15:33Z</time>
      </trkpt>
      <trkpt lat="46.15707429125905" lon="11.934132194146514">
        <ele>1924.22</ele>
        <time>2017-07-06T13:15:44Z</time>
      </trkpt>
      <trkpt lat="46.157073536887765" lon="11.934062875807285">
        <ele>1923.74</ele>
        <time>2017-07-06T13:15:53Z</time>
      </trkpt>
      <trkpt lat="46.157064065337181" lon="11.934012249112129">
        <ele>1922.29</ele>
        <time>2017-07-06T13:15:58Z</time>
      </trkpt>
      <trkpt lat="46.157068591564894" lon="11.933974698185921">
        <ele>1921.8099999999999</ele>
        <time>2017-07-06T13:16:03Z</time>
      </trkpt>
      <trkpt lat="46.157049480825663" lon="11.934087099507451">
        <ele>1920.3699999999999</ele>
        <time>2017-07-06T13:16:09Z</time>
      </trkpt>
      <trkpt lat="46.157032968476415" lon="11.93410755135119">
        <ele>1919.4100000000001</ele>
        <time>2017-07-06T13:16:12Z</time>
      </trkpt>
      <trkpt lat="46.157028861343861" lon="11.934131272137165">
        <ele>1918.9300000000001</ele>
        <time>2017-07-06T13:16:14Z</time>
      </trkpt>
      <trkpt lat="46.157016875222325" lon="11.934215007349849">
        <ele>1917.49</ele>
        <time>2017-07-06T13:16:21Z</time>
      </trkpt>
      <trkpt lat="46.156961470842361" lon="11.934254569932818">
        <ele>1916.04</ele>
        <time>2017-07-06T13:16:29Z</time>
      </trkpt>
      <trkpt lat="46.156923249363899" lon="11.934288432821631">
        <ele>1914.5999999999999</ele>
        <time>2017-07-06T13:16:34Z</time>
      </trkpt>
      <trkpt lat="46.156896762549877" lon="11.934310980141163">
        <ele>1913.6400000000001</ele>
        <time>2017-07-06T13:16:44Z</time>
      </trkpt>
      <trkpt lat="46.156872538849711" lon="11.934284577146173">
        <ele>1912.2</ele>
        <time>2017-07-06T13:16:52Z</time>
      </trkpt>
      <trkpt lat="46.156893828883767" lon="11.934158513322473">
        <ele>1910.28</ele>
        <time>2017-07-06T13:17:01Z</time>
      </trkpt>
      <trkpt lat="46.156848901882768" lon="11.934085758402944">
        <ele>1908.8299999999999</ele>
        <time>2017-07-06T13:17:10Z</time>
      </trkpt>
      <trkpt lat="46.156848398968577" lon="11.934078801423311">
        <ele>1908.3499999999999</ele>
        <time>2017-07-06T13:17:11Z</time>
      </trkpt>
      <trkpt lat="46.156817050650716" lon="11.933980397880077">
        <ele>1906.9100000000001</ele>
        <time>2017-07-06T13:17:21Z</time>
      </trkpt>
      <trkpt lat="46.156814536079764" lon="11.933908648788929">
        <ele>1905.95</ele>
        <time>2017-07-06T13:17:29Z</time>
      </trkpt>
      <trkpt lat="46.156855272129178" lon="11.933829775080085">
        <ele>1903.55</ele>
        <time>2017-07-06T13:17:39Z</time>
      </trkpt>
      <trkpt lat="46.156800538301468" lon="11.933823069557548">
        <ele>1901.6300000000001</ele>
        <time>2017-07-06T13:17:48Z</time>
      </trkpt>
      <trkpt lat="46.156756449490786" lon="11.933841845020652">
        <ele>1900.6600000000001</ele>
        <time>2017-07-06T13:17:57Z</time>
      </trkpt>
      <trkpt lat="46.15674152970314" lon="11.933849304914474">
        <ele>1900.1800000000001</ele>
        <time>2017-07-06T13:18:06Z</time>
      </trkpt>
      <trkpt lat="46.156691489741206" lon="11.933898758143187">
        <ele>1898.74</ele>
        <time>2017-07-06T13:18:12Z</time>
      </trkpt>
      <trkpt lat="46.156676318496466" lon="11.933972518891096">
        <ele>1897.78</ele>
        <time>2017-07-06T13:18:17Z</time>
      </trkpt>
      <trkpt lat="46.156633570790291" lon="11.934033371508121">
        <ele>1894.9000000000001</ele>
        <time>2017-07-06T13:18:29Z</time>
      </trkpt>
      <trkpt lat="46.156577998772264" lon="11.933897836133838">
        <ele>1892.49</ele>
        <time>2017-07-06T13:18:40Z</time>
      </trkpt>
      <trkpt lat="46.156540447846055" lon="11.93376749753952">
        <ele>1889.6099999999999</ele>
        <time>2017-07-06T13:18:51Z</time>
      </trkpt>
      <trkpt lat="46.156484792008996" lon="11.933602122589946">
        <ele>1887.21</ele>
        <time>2017-07-06T13:19:03Z</time>
      </trkpt>
      <trkpt lat="46.156438859179616" lon="11.933486117050052">
        <ele>1884.3199999999999</ele>
        <time>2017-07-06T13:19:14Z</time>
      </trkpt>
      <trkpt lat="46.156426118686795" lon="11.933448733761907">
        <ele>1884.3199999999999</ele>
        <time>2017-07-06T13:19:28Z</time>
      </trkpt>
      <trkpt lat="46.156352777034044" lon="11.933449655771255">
        <ele>1881.9200000000001</ele>
        <time>2017-07-06T13:19:39Z</time>
      </trkpt>
      <trkpt lat="46.156325535848737" lon="11.933533810079098">
        <ele>1880</ele>
        <time>2017-07-06T13:19:46Z</time>
      </trkpt>
      <trkpt lat="46.156337019056082" lon="11.933657946065068">
        <ele>1877.1099999999999</ele>
        <time>2017-07-06T13:19:56Z</time>
      </trkpt>
      <trkpt lat="46.156341964378953" lon="11.933751823380589">
        <ele>1877.1099999999999</ele>
        <time>2017-07-06T13:20:02Z</time>
      </trkpt>
      <trkpt lat="46.156328301876783" lon="11.933899596333504">
        <ele>1873.75</ele>
        <time>2017-07-06T13:20:13Z</time>
      </trkpt>
      <trkpt lat="46.156296953558922" lon="11.933873360976577">
        <ele>1872.3</ele>
        <time>2017-07-06T13:20:20Z</time>
      </trkpt>
      <trkpt lat="46.156239537522197" lon="11.933701783418655">
        <ele>1869.4200000000001</ele>
        <time>2017-07-06T13:20:33Z</time>
      </trkpt>
      <trkpt lat="46.156210117042065" lon="11.933647887781262">
        <ele>1867.98</ele>
        <time>2017-07-06T13:20:38Z</time>
      </trkpt>
      <trkpt lat="46.1561927665025" lon="11.933603966608644">
        <ele>1867.5</ele>
        <time>2017-07-06T13:20:42Z</time>
      </trkpt>
      <trkpt lat="46.156133590266109" lon="11.933506233617663">
        <ele>1865.0899999999999</ele>
        <time>2017-07-06T13:20:53Z</time>
      </trkpt>
      <trkpt lat="46.156113306060433" lon="11.933474130928516">
        <ele>1864.6099999999999</ele>
        <time>2017-07-06T13:20:56Z</time>
      </trkpt>
      <trkpt lat="46.156083382666111" lon="11.933436328545213">
        <ele>1863.1700000000001</ele>
        <time>2017-07-06T13:21:00Z</time>
      </trkpt>
      <trkpt lat="46.156088579446077" lon="11.933343959972262">
        <ele>1862.6900000000001</ele>
        <time>2017-07-06T13:21:07Z</time>
      </trkpt>
      <trkpt lat="46.156106684356928" lon="11.933301044628024">
        <ele>1862.21</ele>
        <time>2017-07-06T13:21:10Z</time>
      </trkpt>
      <trkpt lat="46.156111964955926" lon="11.933271205052733">
        <ele>1861.25</ele>
        <time>2017-07-06T13:21:12Z</time>
      </trkpt>
      <trkpt lat="46.156125292181969" lon="11.933229966089129">
        <ele>1860.77</ele>
        <time>2017-07-06T13:21:15Z</time>
      </trkpt>
      <trkpt lat="46.15615270100534" lon="11.933129047974944">
        <ele>1859.8099999999999</ele>
        <time>2017-07-06T13:21:23Z</time>
      </trkpt>
      <trkpt lat="46.156160663813353" lon="11.933051850646734">
        <ele>1856.9200000000001</ele>
        <time>2017-07-06T13:21:33Z</time>
      </trkpt>
      <trkpt lat="46.156183294951916" lon="11.932994183152914">
        <ele>1855.48</ele>
        <time>2017-07-06T13:21:44Z</time>
      </trkpt>
      <trkpt lat="46.156192515045404" lon="11.932939868420362">
        <ele>1855</ele>
        <time>2017-07-06T13:21:54Z</time>
      </trkpt>
      <trkpt lat="46.156218163669109" lon="11.932877926155925">
        <ele>1854.52</ele>
        <time>2017-07-06T13:22:00Z</time>
      </trkpt>
      <trkpt lat="46.156305335462093" lon="11.932868119329214">
        <ele>1853.0799999999999</ele>
        <time>2017-07-06T13:22:10Z</time>
      </trkpt>
      <trkpt lat="46.156363505870104" lon="11.932883122935891">
        <ele>1851.6400000000001</ele>
        <time>2017-07-06T13:22:19Z</time>
      </trkpt>
      <trkpt lat="46.156402314081788" lon="11.932868454605341">
        <ele>1850.1900000000001</ele>
        <time>2017-07-06T13:22:26Z</time>
      </trkpt>
      <trkpt lat="46.156401643529534" lon="11.932839620858431">
        <ele>1849.71</ele>
        <time>2017-07-06T13:22:34Z</time>
      </trkpt>
      <trkpt lat="46.15642343647778" lon="11.932803997769952">
        <ele>1848.75</ele>
        <time>2017-07-06T13:22:43Z</time>
      </trkpt>
      <trkpt lat="46.156478589400649" lon="11.932769129052758">
        <ele>1848.75</ele>
        <time>2017-07-06T13:22:50Z</time>
      </trkpt>
      <trkpt lat="46.15652653388679" lon="11.932695368304849">
        <ele>1846.3499999999999</ele>
        <time>2017-07-06T13:23:01Z</time>
      </trkpt>
      <trkpt lat="46.156559307128191" lon="11.932682795450091">
        <ele>1845.3900000000001</ele>
        <time>2017-07-06T13:23:12Z</time>
      </trkpt>
      <trkpt lat="46.156554277986288" lon="11.932707522064447">
        <ele>1846.3499999999999</ele>
        <time>2017-07-06T13:23:23Z</time>
      </trkpt>
      <trkpt lat="46.156567605212331" lon="11.932713473215699">
        <ele>1845.3900000000001</ele>
        <time>2017-07-06T13:23:38Z</time>
      </trkpt>
      <trkpt lat="46.156546650454402" lon="11.932681035250425">
        <ele>1845.3900000000001</ele>
        <time>2017-07-06T13:23:57Z</time>
      </trkpt>
      <trkpt lat="46.156603563576937" lon="11.932635437697172">
        <ele>1843.95</ele>
        <time>2017-07-06T13:24:09Z</time>
      </trkpt>
      <trkpt lat="46.156624853610992" lon="11.932621942833066">
        <ele>1843.47</ele>
        <time>2017-07-06T13:24:13Z</time>
      </trkpt>
      <trkpt lat="46.156704062595963" lon="11.9326460827142">
        <ele>1842.02</ele>
        <time>2017-07-06T13:24:22Z</time>
      </trkpt>
      <trkpt lat="46.156771536916494" lon="11.932682208716869">
        <ele>1841.54</ele>
        <time>2017-07-06T13:24:32Z</time>
      </trkpt>
      <trkpt lat="46.156791988760233" lon="11.932695200666785">
        <ele>1841.0599999999999</ele>
        <time>2017-07-06T13:24:44Z</time>
      </trkpt>
      <trkpt lat="46.156828533858061" lon="11.932719005271792">
        <ele>1840.5799999999999</ele>
        <time>2017-07-06T13:24:54Z</time>
      </trkpt>
      <trkpt lat="46.156854266300797" lon="11.932672066614032">
        <ele>1839.1400000000001</ele>
        <time>2017-07-06T13:25:06Z</time>
      </trkpt>
      <trkpt lat="46.1568524222821" lon="11.932630240917206">
        <ele>1838.6600000000001</ele>
        <time>2017-07-06T13:25:17Z</time>
      </trkpt>
      <trkpt lat="46.156870275735855" lon="11.932594450190663">
        <ele>1839.1400000000001</ele>
        <time>2017-07-06T13:25:27Z</time>
      </trkpt>
      <trkpt lat="46.156901707872748" lon="11.932512810453773">
        <ele>1837.7</ele>
        <time>2017-07-06T13:25:39Z</time>
      </trkpt>
      <trkpt lat="46.156898606568575" lon="11.932413736358285">
        <ele>1836.26</ele>
        <time>2017-07-06T13:25:49Z</time>
      </trkpt>
      <trkpt lat="46.156947640702128" lon="11.932330755516887">
        <ele>1833.8499999999999</ele>
        <time>2017-07-06T13:25:59Z</time>
      </trkpt>
      <trkpt lat="46.156941102817655" lon="11.932281469926238">
        <ele>1832.4100000000001</ele>
        <time>2017-07-06T13:26:08Z</time>
      </trkpt>
      <trkpt lat="46.156925596296787" lon="11.932260263711214">
        <ele>1831.45</ele>
        <time>2017-07-06T13:26:17Z</time>
      </trkpt>
      <trkpt lat="46.156894164159894" lon="11.932221287861466">
        <ele>1829.53</ele>
        <time>2017-07-06T13:26:28Z</time>
      </trkpt>
      <trkpt lat="46.156871952116489" lon="11.932160770520568">
        <ele>1828.5599999999999</ele>
        <time>2017-07-06T13:26:38Z</time>
      </trkpt>
      <trkpt lat="46.156863486394286" lon="11.93211056292057">
        <ele>1829.05</ele>
        <time>2017-07-06T13:26:48Z</time>
      </trkpt>
      <trkpt lat="46.156888883560896" lon="11.932054404169321">
        <ele>1828.0799999999999</ele>
        <time>2017-07-06T13:27:00Z</time>
      </trkpt>
      <trkpt lat="46.156936576589942" lon="11.931944601237774">
        <ele>1826.1600000000001</ele>
        <time>2017-07-06T13:27:12Z</time>
      </trkpt>
      <trkpt lat="46.156958285719156" lon="11.931932782754302">
        <ele>1827.1199999999999</ele>
        <time>2017-07-06T13:27:24Z</time>
      </trkpt>
      <trkpt lat="46.15695845335722" lon="11.931884167715907">
        <ele>1826.1600000000001</ele>
        <time>2017-07-06T13:27:33Z</time>
      </trkpt>
      <trkpt lat="46.156974462792277" lon="11.931851394474506">
        <ele>1826.1600000000001</ele>
        <time>2017-07-06T13:27:42Z</time>
      </trkpt>
      <trkpt lat="46.156991645693779" lon="11.931828679516912">
        <ele>1826.1600000000001</ele>
        <time>2017-07-06T13:27:47Z</time>
      </trkpt>
      <trkpt lat="46.156995752826333" lon="11.931820968165994">
        <ele>1825.6800000000001</ele>
        <time>2017-07-06T13:27:57Z</time>
      </trkpt>
      <trkpt lat="46.157053420320153" lon="11.931801689788699">
        <ele>1825.6800000000001</ele>
        <time>2017-07-06T13:28:07Z</time>
      </trkpt>
      <trkpt lat="46.15709574893117" lon="11.931741004809737">
        <ele>1825.2</ele>
        <time>2017-07-06T13:28:17Z</time>
      </trkpt>
      <trkpt lat="46.157084684818983" lon="11.93167369812727">
        <ele>1824.24</ele>
        <time>2017-07-06T13:28:28Z</time>
      </trkpt>
      <trkpt lat="46.157073620706797" lon="11.931623574346304">
        <ele>1822.8</ele>
        <time>2017-07-06T13:28:43Z</time>
      </trkpt>
      <trkpt lat="46.157083343714476" lon="11.931594405323267">
        <ele>1821.3499999999999</ele>
        <time>2017-07-06T13:28:53Z</time>
      </trkpt>
      <trkpt lat="46.157131874933839" lon="11.931577892974019">
        <ele>1821.8399999999999</ele>
        <time>2017-07-06T13:29:07Z</time>
      </trkpt>
      <trkpt lat="46.157128354534507" lon="11.931489463895559">
        <ele>1820.3900000000001</ele>
        <time>2017-07-06T13:29:20Z</time>
      </trkpt>
      <trkpt lat="46.157110081985593" lon="11.93143623881042">
        <ele>1819.9100000000001</ele>
        <time>2017-07-06T13:29:27Z</time>
      </trkpt>
      <trkpt lat="46.157071609050035" lon="11.931401956826448">
        <ele>1818.95</ele>
        <time>2017-07-06T13:29:32Z</time>
      </trkpt>
      <trkpt lat="46.156997764483094" lon="11.931309001520276">
        <ele>1817.03</ele>
        <time>2017-07-06T13:29:42Z</time>
      </trkpt>
      <trkpt lat="46.156955771148205" lon="11.931218225508928">
        <ele>1815.1099999999999</ele>
        <time>2017-07-06T13:29:53Z</time>
      </trkpt>
      <trkpt lat="46.157006816938519" lon="11.931101297959685">
        <ele>1812.7</ele>
        <time>2017-07-06T13:30:04Z</time>
      </trkpt>
      <trkpt lat="46.157008074223995" lon="11.931066177785397">
        <ele>1812.7</ele>
        <time>2017-07-06T13:30:09Z</time>
      </trkpt>
      <trkpt lat="46.156955268234015" lon="11.930937012657523">
        <ele>1811.74</ele>
        <time>2017-07-06T13:30:20Z</time>
      </trkpt>
      <trkpt lat="46.156946467235684" lon="11.930930139496922">
        <ele>1811.74</ele>
        <time>2017-07-06T13:30:25Z</time>
      </trkpt>
      <trkpt lat="46.15691646002233" lon="11.930914968252182">
        <ele>1811.26</ele>
        <time>2017-07-06T13:30:35Z</time>
      </trkpt>
      <trkpt lat="46.156905815005302" lon="11.930843219161034">
        <ele>1810.78</ele>
        <time>2017-07-06T13:30:51Z</time>
      </trkpt>
      <trkpt lat="46.156906401738524" lon="11.930830478668213">
        <ele>1810.78</ele>
        <time>2017-07-06T13:30:52Z</time>
      </trkpt>
      <trkpt lat="46.156894583255053" lon="11.93075705319643">
        <ele>1809.8199999999999</ele>
        <time>2017-07-06T13:31:05Z</time>
      </trkpt>
      <trkpt lat="46.156881675124168" lon="11.930728638544679">
        <ele>1808.8599999999999</ele>
        <time>2017-07-06T13:31:13Z</time>
      </trkpt>
      <trkpt lat="46.156854936853051" lon="11.930630905553699">
        <ele>1807.4200000000001</ele>
        <time>2017-07-06T13:31:29Z</time>
      </trkpt>
      <trkpt lat="46.156836664304137" lon="11.930469134822488">
        <ele>1806.45</ele>
        <time>2017-07-06T13:31:39Z</time>
      </trkpt>
      <trkpt lat="46.156842866912484" lon="11.930453041568398">
        <ele>1806.45</ele>
        <time>2017-07-06T13:31:40Z</time>
      </trkpt>
      <trkpt lat="46.156879495829344" lon="11.930332174524665">
        <ele>1805.01</ele>
        <time>2017-07-06T13:31:51Z</time>
      </trkpt>
      <trkpt lat="46.156888464465737" lon="11.930328654125333">
        <ele>1805.49</ele>
        <time>2017-07-06T13:32:17Z</time>
      </trkpt>
      <trkpt lat="46.156912771984935" lon="11.930340053513646">
        <ele>1805.49</ele>
        <time>2017-07-06T13:32:47Z</time>
      </trkpt>
      <trkpt lat="46.156911179423332" lon="11.930354470387101">
        <ele>1805.49</ele>
        <time>2017-07-06T13:33:16Z</time>
      </trkpt>
      <trkpt lat="46.156908329576254" lon="11.930293869227171">
        <ele>1805.01</ele>
        <time>2017-07-06T13:33:46Z</time>
      </trkpt>
      <trkpt lat="46.156882764771581" lon="11.93033292889595">
        <ele>1805.01</ele>
        <time>2017-07-06T13:34:12Z</time>
      </trkpt>
      <trkpt lat="46.156899277120829" lon="11.930347764864564">
        <ele>1805.01</ele>
        <time>2017-07-06T13:34:36Z</time>
      </trkpt>
      <trkpt lat="46.156908329576254" lon="11.93033192306757">
        <ele>1804.53</ele>
        <time>2017-07-06T13:34:59Z</time>
      </trkpt>
      <trkpt lat="46.156894667074084" lon="11.930331839248538">
        <ele>1804.53</ele>
        <time>2017-07-06T13:35:03Z</time>
      </trkpt>
      <trkpt lat="46.156867006793618" lon="11.930251372978091">
        <ele>1803.5699999999999</ele>
        <time>2017-07-06T13:35:08Z</time>
      </trkpt>
      <trkpt lat="46.156871281564236" lon="11.930138552561402">
        <ele>1803.0899999999999</ele>
        <time>2017-07-06T13:35:17Z</time>
      </trkpt>
      <trkpt lat="46.156865246593952" lon="11.930106449872255">
        <ele>1803.0899999999999</ele>
        <time>2017-07-06T13:35:20Z</time>
      </trkpt>
      <trkpt lat="46.156971110031009" lon="11.929962448775768">
        <ele>1801.6500000000001</ele>
        <time>2017-07-06T13:35:32Z</time>
      </trkpt>
      <trkpt lat="46.157027939334512" lon="11.929857339709997">
        <ele>1800.6900000000001</ele>
        <time>2017-07-06T13:35:40Z</time>
      </trkpt>
      <trkpt lat="46.157108824700117" lon="11.929810149595141">
        <ele>1800.21</ele>
        <time>2017-07-06T13:35:50Z</time>
      </trkpt>
      <trkpt lat="46.15718325600028" lon="11.929711578413844">
        <ele>1799.24</ele>
        <time>2017-07-06T13:35:59Z</time>
      </trkpt>
      <trkpt lat="46.157222483307123" lon="11.929521560668945">
        <ele>1799.24</ele>
        <time>2017-07-06T13:36:10Z</time>
      </trkpt>
      <trkpt lat="46.157304877415299" lon="11.929447213187814">
        <ele>1797.8</ele>
        <time>2017-07-06T13:36:18Z</time>
      </trkpt>
      <trkpt lat="46.157320970669389" lon="11.929450817406178">
        <ele>1797.3199999999999</ele>
        <time>2017-07-06T13:36:20Z</time>
      </trkpt>
      <trkpt lat="46.157356007024646" lon="11.929401615634561">
        <ele>1797.8</ele>
        <time>2017-07-06T13:36:31Z</time>
      </trkpt>
      <trkpt lat="46.157405292615294" lon="11.929308576509356">
        <ele>1798.28</ele>
        <time>2017-07-06T13:36:43Z</time>
      </trkpt>
      <trkpt lat="46.157423984259367" lon="11.929231127724051">
        <ele>1798.28</ele>
        <time>2017-07-06T13:36:49Z</time>
      </trkpt>
      <trkpt lat="46.15745491348207" lon="11.929174298420548">
        <ele>1797.8</ele>
        <time>2017-07-06T13:36:53Z</time>
      </trkpt>
      <trkpt lat="46.157568404451013" lon="11.929104393348098">
        <ele>1797.8</ele>
        <time>2017-07-06T13:37:04Z</time>
      </trkpt>
      <trkpt lat="46.157616851851344" lon="11.929069608449936">
        <ele>1796.3599999999999</ele>
        <time>2017-07-06T13:37:13Z</time>
      </trkpt>
      <trkpt lat="46.157621880993247" lon="11.929056867957115">
        <ele>1796.3599999999999</ele>
        <time>2017-07-06T13:37:15Z</time>
      </trkpt>
      <trkpt lat="46.157665466889739" lon="11.929034404456615">
        <ele>1797.8</ele>
        <time>2017-07-06T13:37:22Z</time>
      </trkpt>
      <trkpt lat="46.157683907076716" lon="11.928973384201527">
        <ele>1797.3199999999999</ele>
        <time>2017-07-06T13:37:27Z</time>
      </trkpt>
      <trkpt lat="46.157687176018953" lon="11.928874729201198">
        <ele>1796.8399999999999</ele>
        <time>2017-07-06T13:37:33Z</time>
      </trkpt>
      <trkpt lat="46.157772084698081" lon="11.928723771125078">
        <ele>1795.4000000000001</ele>
        <time>2017-07-06T13:37:45Z</time>
      </trkpt>
      <trkpt lat="46.15786193870008" lon="11.928681610152125">
        <ele>1793.96</ele>
        <time>2017-07-06T13:37:56Z</time>
      </trkpt>
      <trkpt lat="46.157881636172533" lon="11.928665684536099">
        <ele>1793.48</ele>
        <time>2017-07-06T13:37:59Z</time>
      </trkpt>
      <trkpt lat="46.157938968390226" lon="11.928531993180513">
        <ele>1794.4400000000001</ele>
        <time>2017-07-06T13:38:11Z</time>
      </trkpt>
      <trkpt lat="46.157980458810925" lon="11.928422022610903">
        <ele>1794.9200000000001</ele>
        <time>2017-07-06T13:38:24Z</time>
      </trkpt>
      <trkpt lat="46.158022871240973" lon="11.928329570218921">
        <ele>1794.9200000000001</ele>
        <time>2017-07-06T13:38:37Z</time>
      </trkpt>
      <trkpt lat="46.158027648925781" lon="11.928289672359824">
        <ele>1797.8</ele>
        <time>2017-07-06T13:38:43Z</time>
      </trkpt>
      <trkpt lat="46.158059751614928" lon="11.92818783223629">
        <ele>1799.24</ele>
        <time>2017-07-06T13:38:55Z</time>
      </trkpt>
      <trkpt lat="46.158112389966846" lon="11.928152376785874">
        <ele>1800.6900000000001</ele>
        <time>2017-07-06T13:39:09Z</time>
      </trkpt>
      <trkpt lat="46.158187910914421" lon="11.928157154470682">
        <ele>1801.6500000000001</ele>
        <time>2017-07-06T13:39:23Z</time>
      </trkpt>
      <trkpt lat="46.158254882320762" lon="11.92815413698554">
        <ele>1803.5699999999999</ele>
        <time>2017-07-06T13:39:35Z</time>
      </trkpt>
      <trkpt lat="46.158270388841629" lon="11.928064869716763">
        <ele>1805.01</ele>
        <time>2017-07-06T13:39:47Z</time>
      </trkpt>
      <trkpt lat="46.158274244517088" lon="11.928055565804243">
        <ele>1805.01</ele>
        <time>2017-07-06T13:39:48Z</time>
      </trkpt>
      <trkpt lat="46.158262006938457" lon="11.927967723459005">
        <ele>1805.01</ele>
        <time>2017-07-06T13:39:57Z</time>
      </trkpt>
      <trkpt lat="46.158242728561163" lon="11.927889436483383">
        <ele>1804.53</ele>
        <time>2017-07-06T13:40:07Z</time>
      </trkpt>
      <trkpt lat="46.1582269705832" lon="11.927838306874037">
        <ele>1805.49</ele>
        <time>2017-07-06T13:40:17Z</time>
      </trkpt>
      <trkpt lat="46.158224456012249" lon="11.927835121750832">
        <ele>1805.01</ele>
        <time>2017-07-06T13:40:18Z</time>
      </trkpt>
      <trkpt lat="46.158219678327441" lon="11.927774688228965">
        <ele>1805.49</ele>
        <time>2017-07-06T13:40:26Z</time>
      </trkpt>
      <trkpt lat="46.158196208998561" lon="11.927697323262691">
        <ele>1806.9400000000001</ele>
        <time>2017-07-06T13:40:36Z</time>
      </trkpt>
      <trkpt lat="46.15817952901125" lon="11.927681816741824">
        <ele>1806.9400000000001</ele>
        <time>2017-07-06T13:40:39Z</time>
      </trkpt>
      <trkpt lat="46.158114233985543" lon="11.927686091512442">
        <ele>1806.9400000000001</ele>
        <time>2017-07-06T13:40:46Z</time>
      </trkpt>
      <trkpt lat="46.158045921474695" lon="11.927663208916783">
        <ele>1807.4200000000001</ele>
        <time>2017-07-06T13:40:54Z</time>
      </trkpt>
      <trkpt lat="46.15801683627069" lon="11.927604367956519">
        <ele>1808.3800000000001</ele>
        <time>2017-07-06T13:40:58Z</time>
      </trkpt>
      <trkpt lat="46.15804759785533" lon="11.927458606660366">
        <ele>1809.8199999999999</ele>
        <time>2017-07-06T13:41:10Z</time>
      </trkpt>
      <trkpt lat="46.158044999465346" lon="11.927350647747517">
        <ele>1810.78</ele>
        <time>2017-07-06T13:41:21Z</time>
      </trkpt>
      <trkpt lat="46.158029492944479" lon="11.927264900878072">
        <ele>1811.74</ele>
        <time>2017-07-06T13:41:33Z</time>
      </trkpt>
      <trkpt lat="46.158075174316764" lon="11.927159121260047">
        <ele>1813.1800000000001</ele>
        <time>2017-07-06T13:41:44Z</time>
      </trkpt>
      <trkpt lat="46.158110043033957" lon="11.927069602534175">
        <ele>1814.1500000000001</ele>
        <time>2017-07-06T13:41:56Z</time>
      </trkpt>
      <trkpt lat="46.158118508756161" lon="11.927043199539185">
        <ele>1814.6300000000001</ele>
        <time>2017-07-06T13:42:07Z</time>
      </trkpt>
      <trkpt lat="46.158127393573523" lon="11.927081253379583">
        <ele>1813.6600000000001</ele>
        <time>2017-07-06T13:42:15Z</time>
      </trkpt>
      <trkpt lat="46.158112054690719" lon="11.927072368562222">
        <ele>1813.6600000000001</ele>
        <time>2017-07-06T13:42:37Z</time>
      </trkpt>
      <trkpt lat="46.158132590353489" lon="11.927074044942856">
        <ele>1814.1500000000001</ele>
        <time>2017-07-06T13:42:46Z</time>
      </trkpt>
      <trkpt lat="46.158093614503741" lon="11.927067087963223">
        <ele>1813.6600000000001</ele>
        <time>2017-07-06T13:43:00Z</time>
      </trkpt>
      <trkpt lat="46.158096380531788" lon="11.927094077691436">
        <ele>1814.1500000000001</ele>
        <time>2017-07-06T13:43:19Z</time>
      </trkpt>
      <trkpt lat="46.158138792961836" lon="11.927090724930167">
        <ele>1814.1500000000001</ele>
        <time>2017-07-06T13:43:36Z</time>
      </trkpt>
      <trkpt lat="46.158125465735793" lon="11.927080079913139">
        <ele>1814.1500000000001</ele>
        <time>2017-07-06T13:43:50Z</time>
      </trkpt>
      <trkpt lat="46.15812337026" lon="11.927067926153541">
        <ele>1814.1500000000001</ele>
        <time>2017-07-06T13:44:11Z</time>
      </trkpt>
      <trkpt lat="46.158109959214926" lon="11.927080918103456">
        <ele>1814.1500000000001</ele>
        <time>2017-07-06T13:44:19Z</time>
      </trkpt>
      <trkpt lat="46.158113814890385" lon="11.927083600312471">
        <ele>1814.6300000000001</ele>
        <time>2017-07-06T13:44:26Z</time>
      </trkpt>
      <trkpt lat="46.158124711364508" lon="11.927058035507798">
        <ele>1815.1099999999999</ele>
        <time>2017-07-06T13:44:35Z</time>
      </trkpt>
      <trkpt lat="46.15814533084631" lon="11.926966421306133">
        <ele>1816.0699999999999</ele>
        <time>2017-07-06T13:44:44Z</time>
      </trkpt>
      <trkpt lat="46.158109456300735" lon="11.926809512078762">
        <ele>1817.03</ele>
        <time>2017-07-06T13:45:02Z</time>
      </trkpt>
      <trkpt lat="46.158027900382876" lon="11.926686968654394">
        <ele>1819.4300000000001</ele>
        <time>2017-07-06T13:45:23Z</time>
      </trkpt>
      <trkpt lat="46.158009292557836" lon="11.926493849605322">
        <ele>1821.8399999999999</ele>
        <time>2017-07-06T13:45:44Z</time>
      </trkpt>
      <trkpt lat="46.158027900382876" lon="11.926393015310168">
        <ele>1822.3199999999999</ele>
        <time>2017-07-06T13:46:03Z</time>
      </trkpt>
      <trkpt lat="46.157892700284719" lon="11.926206769421697">
        <ele>1822.8</ele>
        <time>2017-07-06T13:46:18Z</time>
      </trkpt>
      <trkpt lat="46.157876942306757" lon="11.926159663125873">
        <ele>1824.24</ele>
        <time>2017-07-06T13:46:25Z</time>
      </trkpt>
      <trkpt lat="46.157847940921783" lon="11.926095876842737">
        <ele>1825.2</ele>
        <time>2017-07-06T13:46:37Z</time>
      </trkpt>
      <trkpt lat="46.157721374183893" lon="11.925948271527886">
        <ele>1827.1199999999999</ele>
        <time>2017-07-06T13:46:55Z</time>
      </trkpt>
      <trkpt lat="46.157657587900758" lon="11.925860848277807">
        <ele>1828.0799999999999</ele>
        <time>2017-07-06T13:47:12Z</time>
      </trkpt>
      <trkpt lat="46.157560693100095" lon="11.925855316221714">
        <ele>1829.05</ele>
        <time>2017-07-06T13:47:26Z</time>
      </trkpt>
      <trkpt lat="46.157423313707113" lon="11.925785830244422">
        <ele>1830.49</ele>
        <time>2017-07-06T13:47:45Z</time>
      </trkpt>
      <trkpt lat="46.15735474973917" lon="11.925719361752272">
        <ele>1832.8900000000001</ele>
        <time>2017-07-06T13:48:05Z</time>
      </trkpt>
      <trkpt lat="46.157256010919809" lon="11.92557318136096">
        <ele>1834.8099999999999</ele>
        <time>2017-07-06T13:48:25Z</time>
      </trkpt>
      <trkpt lat="46.157081918790936" lon="11.925457594916224">
        <ele>1836.74</ele>
        <time>2017-07-06T13:48:43Z</time>
      </trkpt>
      <trkpt lat="46.156928278505802" lon="11.925328513607383">
        <ele>1838.1800000000001</ele>
        <time>2017-07-06T13:49:05Z</time>
      </trkpt>
      <trkpt lat="46.156771872192621" lon="11.925359945744276">
        <ele>1839.6199999999999</ele>
        <time>2017-07-06T13:49:24Z</time>
      </trkpt>
      <trkpt lat="46.156664248555899" lon="11.925297249108553">
        <ele>1841.54</ele>
        <time>2017-07-06T13:49:45Z</time>
      </trkpt>
      <trkpt lat="46.156650502234697" lon="11.925032464787364">
        <ele>1842.5</ele>
        <time>2017-07-06T13:50:04Z</time>
      </trkpt>
      <trkpt lat="46.156694926321507" lon="11.924897432327271">
        <ele>1843.95</ele>
        <time>2017-07-06T13:50:22Z</time>
      </trkpt>
      <trkpt lat="46.156725771725178" lon="11.924676736816764">
        <ele>1845.8699999999999</ele>
        <time>2017-07-06T13:50:41Z</time>
      </trkpt>
      <trkpt lat="46.156760891899467" lon="11.924602724611759">
        <ele>1845.8699999999999</ele>
        <time>2017-07-06T13:50:54Z</time>
      </trkpt>
      <trkpt lat="46.156748738139868" lon="11.924592163413763">
        <ele>1845.8699999999999</ele>
        <time>2017-07-06T13:51:07Z</time>
      </trkpt>
      <trkpt lat="46.15671169012785" lon="11.924583362415433">
        <ele>1845.8699999999999</ele>
        <time>2017-07-06T13:51:19Z</time>
      </trkpt>
      <trkpt lat="46.156652346253395" lon="11.92448353394866">
        <ele>1846.8299999999999</ele>
        <time>2017-07-06T13:51:32Z</time>
      </trkpt>
      <trkpt lat="46.156581183895469" lon="11.924377167597413">
        <ele>1847.79</ele>
        <time>2017-07-06T13:51:46Z</time>
      </trkpt>
      <trkpt lat="46.156560983508825" lon="11.924265520647168">
        <ele>1847.79</ele>
        <time>2017-07-06T13:51:57Z</time>
      </trkpt>
      <trkpt lat="46.156546650454402" lon="11.924178181216121">
        <ele>1848.27</ele>
        <time>2017-07-06T13:52:05Z</time>
      </trkpt>
      <trkpt lat="46.156498035416007" lon="11.923998054116964">
        <ele>1849.23</ele>
        <time>2017-07-06T13:52:20Z</time>
      </trkpt>
      <trkpt lat="46.15646836347878" lon="11.92390501499176">
        <ele>1848.27</ele>
        <time>2017-07-06T13:52:31Z</time>
      </trkpt>
      <trkpt lat="46.156406924128532" lon="11.923828572034836">
        <ele>1849.71</ele>
        <time>2017-07-06T13:52:45Z</time>
      </trkpt>
      <trkpt lat="46.156347747892141" lon="11.923747099936008">
        <ele>1851.1600000000001</ele>
        <time>2017-07-06T13:52:58Z</time>
      </trkpt>
      <trkpt lat="46.156322937458754" lon="11.923617850989103">
        <ele>1851.6400000000001</ele>
        <time>2017-07-06T13:53:10Z</time>
      </trkpt>
      <trkpt lat="46.156318495050073" lon="11.923466809093952">
        <ele>1853.0799999999999</ele>
        <time>2017-07-06T13:53:23Z</time>
      </trkpt>
      <trkpt lat="46.156289828941226" lon="11.923390198498964">
        <ele>1853.5599999999999</ele>
        <time>2017-07-06T13:53:33Z</time>
      </trkpt>
      <trkpt lat="46.156260324642062" lon="11.923347702249885">
        <ele>1854.52</ele>
        <time>2017-07-06T13:53:42Z</time>
      </trkpt>
      <trkpt lat="46.156254038214684" lon="11.923344936221838">
        <ele>1854.52</ele>
        <time>2017-07-06T13:53:43Z</time>
      </trkpt>
      <trkpt lat="46.156180026009679" lon="11.923346696421504">
        <ele>1855</ele>
        <time>2017-07-06T13:53:54Z</time>
      </trkpt>
      <trkpt lat="46.156185138970613" lon="11.92334258928895">
        <ele>1854.04</ele>
        <time>2017-07-06T13:54:02Z</time>
      </trkpt>
      <trkpt lat="46.156209697946906" lon="11.923352815210819">
        <ele>1853.5599999999999</ele>
        <time>2017-07-06T13:54:30Z</time>
      </trkpt>
      <trkpt lat="46.156198214739561" lon="11.923316018655896">
        <ele>1853.5599999999999</ele>
        <time>2017-07-06T13:54:55Z</time>
      </trkpt>
      <trkpt lat="46.156202321872115" lon="11.923348288983107">
        <ele>1854.52</ele>
        <time>2017-07-06T13:55:14Z</time>
      </trkpt>
      <trkpt lat="46.156178517267108" lon="11.92334795370698">
        <ele>1854.04</ele>
        <time>2017-07-06T13:55:22Z</time>
      </trkpt>
      <trkpt lat="46.15611900575459" lon="11.923219375312328">
        <ele>1855.96</ele>
        <time>2017-07-06T13:55:34Z</time>
      </trkpt>
      <trkpt lat="46.156085394322872" lon="11.923167575150728">
        <ele>1856.9200000000001</ele>
        <time>2017-07-06T13:55:42Z</time>
      </trkpt>
      <trkpt lat="46.156053794547915" lon="11.923129940405488">
        <ele>1858.3699999999999</ele>
        <time>2017-07-06T13:55:48Z</time>
      </trkpt>
      <trkpt lat="46.156033426523209" lon="11.923126168549061">
        <ele>1858.3699999999999</ele>
        <time>2017-07-06T13:55:50Z</time>
      </trkpt>
      <trkpt lat="46.155996881425381" lon="11.923085935413837">
        <ele>1858.3699999999999</ele>
        <time>2017-07-06T13:55:54Z</time>
      </trkpt>
      <trkpt lat="46.155960168689489" lon="11.923015611246228">
        <ele>1859.3299999999999</ele>
        <time>2017-07-06T13:56:05Z</time>
      </trkpt>
      <trkpt lat="46.155960084870458" lon="11.923003038391471">
        <ele>1859.3299999999999</ele>
        <time>2017-07-06T13:56:13Z</time>
      </trkpt>
      <trkpt lat="46.155942482873797" lon="11.922957608476281">
        <ele>1859.3299999999999</ele>
        <time>2017-07-06T13:56:18Z</time>
      </trkpt>
      <trkpt lat="46.155903423205018" lon="11.922857780009508">
        <ele>1860.77</ele>
        <time>2017-07-06T13:56:28Z</time>
      </trkpt>
      <trkpt lat="46.155848689377308" lon="11.922757448628545">
        <ele>1862.6900000000001</ele>
        <time>2017-07-06T13:56:39Z</time>
      </trkpt>
      <trkpt lat="46.155787417665124" lon="11.922672539949417">
        <ele>1862.6900000000001</ele>
        <time>2017-07-06T13:56:48Z</time>
      </trkpt>
      <trkpt lat="46.155726984143257" lon="11.92253683693707">
        <ele>1862.6900000000001</ele>
        <time>2017-07-06T13:57:00Z</time>
      </trkpt>
      <trkpt lat="46.155725223943591" lon="11.922414125874639">
        <ele>1861.25</ele>
        <time>2017-07-06T13:57:11Z</time>
      </trkpt>
      <trkpt lat="46.155705526471138" lon="11.922392835840583">
        <ele>1861.25</ele>
        <time>2017-07-06T13:57:24Z</time>
      </trkpt>
      <trkpt lat="46.155678872019053" lon="11.9223902374506">
        <ele>1861.73</ele>
        <time>2017-07-06T13:57:43Z</time>
      </trkpt>
      <trkpt lat="46.155675854533911" lon="11.922358889132738">
        <ele>1861.73</ele>
        <time>2017-07-06T13:57:55Z</time>
      </trkpt>
      <trkpt lat="46.155672334134579" lon="11.922266772016883">
        <ele>1861.25</ele>
        <time>2017-07-06T13:58:01Z</time>
      </trkpt>
      <trkpt lat="46.155656324699521" lon="11.922238022089005">
        <ele>1860.77</ele>
        <time>2017-07-06T13:58:04Z</time>
      </trkpt>
      <trkpt lat="46.1556694842875" lon="11.922290157526731">
        <ele>1859.8099999999999</ele>
        <time>2017-07-06T13:58:10Z</time>
      </trkpt>
      <trkpt lat="46.155668813735247" lon="11.922291414812207">
        <ele>1859.8099999999999</ele>
        <time>2017-07-06T13:58:18Z</time>
      </trkpt>
      <trkpt lat="46.155683062970638" lon="11.922297198325396">
        <ele>1859.8099999999999</ele>
        <time>2017-07-06T13:58:36Z</time>
      </trkpt>
      <trkpt lat="46.155675183981657" lon="11.922266269102693">
        <ele>1859.8099999999999</ele>
        <time>2017-07-06T13:58:52Z</time>
      </trkpt>
      <trkpt lat="46.155682895332575" lon="11.922269118949771">
        <ele>1859.8099999999999</ele>
        <time>2017-07-06T13:59:03Z</time>
      </trkpt>
      <trkpt lat="46.155673004686832" lon="11.922269035130739">
        <ele>1859.8099999999999</ele>
        <time>2017-07-06T13:59:19Z</time>
      </trkpt>
      <trkpt lat="46.155686415731907" lon="11.922259144484997">
        <ele>1859.3299999999999</ele>
        <time>2017-07-06T13:59:33Z</time>
      </trkpt>
      <trkpt lat="46.155695300549269" lon="11.922251433134079">
        <ele>1859.8099999999999</ele>
        <time>2017-07-06T13:59:48Z</time>
      </trkpt>
      <trkpt lat="46.155674094334245" lon="11.922254282981157">
        <ele>1859.8099999999999</ele>
        <time>2017-07-06T14:00:04Z</time>
      </trkpt>
      <trkpt lat="46.155673004686832" lon="11.922262497246265">
        <ele>1860.77</ele>
        <time>2017-07-06T14:00:20Z</time>
      </trkpt>
      <trkpt lat="46.1556626111269" lon="11.922251600772142">
        <ele>1859.8099999999999</ele>
        <time>2017-07-06T14:00:31Z</time>
      </trkpt>
      <trkpt lat="46.155670490115881" lon="11.922251181676984">
        <ele>1859.3299999999999</ele>
        <time>2017-07-06T14:00:45Z</time>
      </trkpt>
      <trkpt lat="46.155655402690172" lon="11.922243470326066">
        <ele>1859.3299999999999</ele>
        <time>2017-07-06T14:01:06Z</time>
      </trkpt>
      <trkpt lat="46.155650038272142" lon="11.922255791723728">
        <ele>1858.8499999999999</ele>
        <time>2017-07-06T14:01:22Z</time>
      </trkpt>
      <trkpt lat="46.1556694842875" lon="11.92226123996079">
        <ele>1858.3699999999999</ele>
        <time>2017-07-06T14:01:35Z</time>
      </trkpt>
      <trkpt lat="46.155671663582325" lon="11.922297868877649">
        <ele>1857.8900000000001</ele>
        <time>2017-07-06T14:01:47Z</time>
      </trkpt>
      <trkpt lat="46.155675938352942" lon="11.922303233295679">
        <ele>1857.4000000000001</ele>
        <time>2017-07-06T14:01:58Z</time>
      </trkpt>
      <trkpt lat="46.155659258365631" lon="11.922441367059946">
        <ele>1859.8099999999999</ele>
        <time>2017-07-06T14:02:11Z</time>
      </trkpt>
      <trkpt lat="46.15554878488183" lon="11.922287810593843">
        <ele>1860.29</ele>
        <time>2017-07-06T14:02:20Z</time>
      </trkpt>
      <trkpt lat="46.155454404652119" lon="11.922158896923065">
        <ele>1859.3299999999999</ele>
        <time>2017-07-06T14:02:33Z</time>
      </trkpt>
      <trkpt lat="46.155440742149949" lon="11.922144899144769">
        <ele>1859.3299999999999</ele>
        <time>2017-07-06T14:02:37Z</time>
      </trkpt>
      <trkpt lat="46.155394809320569" lon="11.922071306034923">
        <ele>1859.3299999999999</ele>
        <time>2017-07-06T14:02:47Z</time>
      </trkpt>
      <trkpt lat="46.155392462387681" lon="11.922024535015225">
        <ele>1859.3299999999999</ele>
        <time>2017-07-06T14:02:56Z</time>
      </trkpt>
      <trkpt lat="46.155359940603375" lon="11.922021433711052">
        <ele>1857.8900000000001</ele>
        <time>2017-07-06T14:03:09Z</time>
      </trkpt>
      <trkpt lat="46.155367568135262" lon="11.922036185860634">
        <ele>1857.4000000000001</ele>
        <time>2017-07-06T14:03:17Z</time>
      </trkpt>
      <trkpt lat="46.155377291142941" lon="11.922025959938765">
        <ele>1856.9200000000001</ele>
        <time>2017-07-06T14:03:30Z</time>
      </trkpt>
      <trkpt lat="46.155350049957633" lon="11.922021014615893">
        <ele>1855.96</ele>
        <time>2017-07-06T14:03:44Z</time>
      </trkpt>
      <trkpt lat="46.155350049957633" lon="11.922035599127412">
        <ele>1855.96</ele>
        <time>2017-07-06T14:04:02Z</time>
      </trkpt>
      <trkpt lat="46.155334459617734" lon="11.922052446752787">
        <ele>1855.96</ele>
        <time>2017-07-06T14:04:17Z</time>
      </trkpt>
      <trkpt lat="46.155328592285514" lon="11.922067953273654">
        <ele>1855.48</ele>
        <time>2017-07-06T14:04:32Z</time>
      </trkpt>
      <trkpt lat="46.15533672273159" lon="11.922073904424906">
        <ele>1855.48</ele>
        <time>2017-07-06T14:04:50Z</time>
      </trkpt>
      <trkpt lat="46.155340159311891" lon="11.922024954110384">
        <ele>1854.52</ele>
        <time>2017-07-06T14:05:07Z</time>
      </trkpt>
      <trkpt lat="46.15532155148685" lon="11.922026881948113">
        <ele>1854.04</ele>
        <time>2017-07-06T14:05:18Z</time>
      </trkpt>
      <trkpt lat="46.155350469052792" lon="11.922045322135091">
        <ele>1853.5599999999999</ele>
        <time>2017-07-06T14:05:30Z</time>
      </trkpt>
      <trkpt lat="46.155338231474161" lon="11.92204331047833">
        <ele>1853.0799999999999</ele>
        <time>2017-07-06T14:05:40Z</time>
      </trkpt>
      <trkpt lat="46.155326412990689" lon="11.922015817835927">
        <ele>1852.5999999999999</ele>
        <time>2017-07-06T14:05:44Z</time>
      </trkpt>
      <trkpt lat="46.155283665284514" lon="11.922001736238599">
        <ele>1852.5999999999999</ele>
        <time>2017-07-06T14:05:54Z</time>
      </trkpt>
      <trkpt lat="46.155264470726252" lon="11.921988325193524">
        <ele>1853.5599999999999</ele>
        <time>2017-07-06T14:06:02Z</time>
      </trkpt>
      <trkpt lat="46.155247623100877" lon="11.921988995745778">
        <ele>1854.04</ele>
        <time>2017-07-06T14:06:10Z</time>
      </trkpt>
      <trkpt lat="46.155206551775336" lon="11.92198907956481">
        <ele>1854.52</ele>
        <time>2017-07-06T14:06:19Z</time>
      </trkpt>
      <trkpt lat="46.155177718028426" lon="11.921964939683676">
        <ele>1855.96</ele>
        <time>2017-07-06T14:06:29Z</time>
      </trkpt>
      <trkpt lat="46.155150812119246" lon="11.921956641599536">
        <ele>1857.4000000000001</ele>
        <time>2017-07-06T14:06:41Z</time>
      </trkpt>
      <trkpt lat="46.155122984200716" lon="11.921976339071989">
        <ele>1859.3299999999999</ele>
        <time>2017-07-06T14:06:51Z</time>
      </trkpt>
      <trkpt lat="46.155100101605058" lon="11.921973992139101">
        <ele>1860.77</ele>
        <time>2017-07-06T14:07:06Z</time>
      </trkpt>
      <trkpt lat="46.15508115850389" lon="11.921956725418568">
        <ele>1861.73</ele>
        <time>2017-07-06T14:07:18Z</time>
      </trkpt>
      <trkpt lat="46.155060119926929" lon="11.92197298631072">
        <ele>1863.6500000000001</ele>
        <time>2017-07-06T14:07:28Z</time>
      </trkpt>
      <trkpt lat="46.155041763558984" lon="11.92201841622591">
        <ele>1865.0899999999999</ele>
        <time>2017-07-06T14:07:39Z</time>
      </trkpt>
      <trkpt lat="46.155036399140954" lon="11.922047333791852">
        <ele>1866.0599999999999</ele>
        <time>2017-07-06T14:07:47Z</time>
      </trkpt>
      <trkpt lat="46.154967751353979" lon="11.922118496149778">
        <ele>1866.0599999999999</ele>
        <time>2017-07-06T14:07:57Z</time>
      </trkpt>
      <trkpt lat="46.154936319217086" lon="11.922157974913716">
        <ele>1866.0599999999999</ele>
        <time>2017-07-06T14:08:11Z</time>
      </trkpt>
      <trkpt lat="46.154873371124268" lon="11.922223856672645">
        <ele>1866.54</ele>
        <time>2017-07-06T14:08:14Z</time>
      </trkpt>
      <trkpt lat="46.1547836009413" lon="11.922269957140088">
        <ele>1867.02</ele>
        <time>2017-07-06T14:08:23Z</time>
      </trkpt>
      <trkpt lat="46.154756611213088" lon="11.922296276316047">
        <ele>1868.46</ele>
        <time>2017-07-06T14:08:32Z</time>
      </trkpt>
      <trkpt lat="46.154737416654825" lon="11.922347573563457">
        <ele>1871.3399999999999</ele>
        <time>2017-07-06T14:09:20Z</time>
      </trkpt>
      <trkpt lat="46.154681425541639" lon="11.922284290194511">
        <ele>1872.3</ele>
        <time>2017-07-06T14:09:33Z</time>
      </trkpt>
      <trkpt lat="46.154634403064847" lon="11.922226622700691">
        <ele>1872.79</ele>
        <time>2017-07-06T14:09:44Z</time>
      </trkpt>
      <trkpt lat="46.154566677287221" lon="11.922177672386169">
        <ele>1873.27</ele>
        <time>2017-07-06T14:09:56Z</time>
      </trkpt>
      <trkpt lat="46.154532479122281" lon="11.922196950763464">
        <ele>1873.75</ele>
        <time>2017-07-06T14:10:06Z</time>
      </trkpt>
      <trkpt lat="46.154521415010095" lon="11.922208769246936">
        <ele>1873.27</ele>
        <time>2017-07-06T14:10:18Z</time>
      </trkpt>
      <trkpt lat="46.154481936246157" lon="11.922260569408536">
        <ele>1873.27</ele>
        <time>2017-07-06T14:10:29Z</time>
      </trkpt>
      <trkpt lat="46.15440247580409" lon="11.922326115891337">
        <ele>1874.71</ele>
        <time>2017-07-06T14:10:40Z</time>
      </trkpt>
      <trkpt lat="46.154362997040153" lon="11.922367019578815">
        <ele>1876.1500000000001</ele>
        <time>2017-07-06T14:10:49Z</time>
      </trkpt>
      <trkpt lat="46.154325613752007" lon="11.922389315441251">
        <ele>1877.1099999999999</ele>
        <time>2017-07-06T14:10:58Z</time>
      </trkpt>
      <trkpt lat="46.154286973178387" lon="11.922423429787159">
        <ele>1877.5899999999999</ele>
        <time>2017-07-06T14:11:07Z</time>
      </trkpt>
      <trkpt lat="46.154227294027805" lon="11.922449329867959">
        <ele>1878.55</ele>
        <time>2017-07-06T14:11:16Z</time>
      </trkpt>
      <trkpt lat="46.154161160811782" lon="11.922472966834903">
        <ele>1880</ele>
        <time>2017-07-06T14:11:27Z</time>
      </trkpt>
      <trkpt lat="46.154085304588079" lon="11.922459220513701">
        <ele>1881.4400000000001</ele>
        <time>2017-07-06T14:11:39Z</time>
      </trkpt>
      <trkpt lat="46.154050435870886" lon="11.922466093674302">
        <ele>1881.9200000000001</ele>
        <time>2017-07-06T14:11:48Z</time>
      </trkpt>
      <trkpt lat="46.153989667072892" lon="11.922489143908024">
        <ele>1883.3599999999999</ele>
        <time>2017-07-06T14:12:00Z</time>
      </trkpt>
      <trkpt lat="46.153950439766049" lon="11.922519570216537">
        <ele>1884.3199999999999</ele>
        <time>2017-07-06T14:12:12Z</time>
      </trkpt>
      <trkpt lat="46.153911631554365" lon="11.922552594915032">
        <ele>1885.28</ele>
        <time>2017-07-06T14:12:23Z</time>
      </trkpt>
      <trkpt lat="46.153860921040177" lon="11.922614369541407">
        <ele>1886.72</ele>
        <time>2017-07-06T14:12:37Z</time>
      </trkpt>
      <trkpt lat="46.153819849714637" lon="11.922664241865277">
        <ele>1888.1700000000001</ele>
        <time>2017-07-06T14:12:47Z</time>
      </trkpt>
      <trkpt lat="46.153761092573404" lon="11.922672456130385">
        <ele>1888.6500000000001</ele>
        <time>2017-07-06T14:12:56Z</time>
      </trkpt>
      <trkpt lat="46.153738042339683" lon="11.922538429498672">
        <ele>1888.6500000000001</ele>
        <time>2017-07-06T14:13:10Z</time>
      </trkpt>
      <trkpt lat="46.153720105066895" lon="11.922491239383817">
        <ele>1888.6500000000001</ele>
        <time>2017-07-06T14:13:20Z</time>
      </trkpt>
      <trkpt lat="46.15369688719511" lon="11.922433320432901">
        <ele>1888.6500000000001</ele>
        <time>2017-07-06T14:13:33Z</time>
      </trkpt>
      <trkpt lat="46.153685236349702" lon="11.922393506392837">
        <ele>1888.1700000000001</ele>
        <time>2017-07-06T14:13:42Z</time>
      </trkpt>
      <trkpt lat="46.153681548312306" lon="11.922381184995174">
        <ele>1888.1700000000001</ele>
        <time>2017-07-06T14:13:47Z</time>
      </trkpt>
      <trkpt lat="46.153657743707299" lon="11.922375988215208">
        <ele>1888.1700000000001</ele>
        <time>2017-07-06T14:13:50Z</time>
      </trkpt>
      <trkpt lat="46.153612146154046" lon="11.922331228852272">
        <ele>1887.6900000000001</ele>
        <time>2017-07-06T14:14:02Z</time>
      </trkpt>
      <trkpt lat="46.153607117012143" lon="11.922332234680653">
        <ele>1887.21</ele>
        <time>2017-07-06T14:14:07Z</time>
      </trkpt>
      <trkpt lat="46.15357518196106" lon="11.922168871387839">
        <ele>1886.72</ele>
        <time>2017-07-06T14:14:20Z</time>
      </trkpt>
      <trkpt lat="46.153568644076586" lon="11.922139702364802">
        <ele>1886.24</ele>
        <time>2017-07-06T14:14:22Z</time>
      </trkpt>
      <trkpt lat="46.153521789237857" lon="11.92196317948401">
        <ele>1885.28</ele>
        <time>2017-07-06T14:14:34Z</time>
      </trkpt>
      <trkpt lat="46.153514245525002" lon="11.921877264976501">
        <ele>1885.28</ele>
        <time>2017-07-06T14:14:40Z</time>
      </trkpt>
      <trkpt lat="46.153419865295291" lon="11.921841306611896">
        <ele>1882.8800000000001</ele>
        <time>2017-07-06T14:14:51Z</time>
      </trkpt>
      <trkpt lat="46.153354989364743" lon="11.92179512232542">
        <ele>1881.9200000000001</ele>
        <time>2017-07-06T14:14:58Z</time>
      </trkpt>
      <trkpt lat="46.153264716267586" lon="11.921632178127766">
        <ele>1881.4400000000001</ele>
        <time>2017-07-06T14:15:10Z</time>
      </trkpt>
      <trkpt lat="46.153224315494299" lon="11.921528996899724">
        <ele>1881.4400000000001</ele>
        <time>2017-07-06T14:15:17Z</time>
      </trkpt>
      <trkpt lat="46.153210233896971" lon="11.921447776257992">
        <ele>1881.4400000000001</ele>
        <time>2017-07-06T14:15:26Z</time>
      </trkpt>
      <trkpt lat="46.153217693790793" lon="11.921446938067675">
        <ele>1880.96</ele>
        <time>2017-07-06T14:15:38Z</time>
      </trkpt>
      <trkpt lat="46.153204785659909" lon="11.921450793743134">
        <ele>1880.96</ele>
        <time>2017-07-06T14:15:50Z</time>
      </trkpt>
      <trkpt lat="46.153195565566421" lon="11.921406872570515">
        <ele>1880.96</ele>
        <time>2017-07-06T14:16:09Z</time>
      </trkpt>
      <trkpt lat="46.153203779831529" lon="11.92140812985599">
        <ele>1881.4400000000001</ele>
        <time>2017-07-06T14:16:21Z</time>
      </trkpt>
      <trkpt lat="46.153196906670928" lon="11.921417769044638">
        <ele>1881.4400000000001</ele>
        <time>2017-07-06T14:16:23Z</time>
      </trkpt>
      <trkpt lat="46.153178969398141" lon="11.921368986368179">
        <ele>1880.96</ele>
        <time>2017-07-06T14:16:33Z</time>
      </trkpt>
      <trkpt lat="46.153119122609496" lon="11.921234037727118">
        <ele>1879.51</ele>
        <time>2017-07-06T14:16:46Z</time>
      </trkpt>
      <trkpt lat="46.153091294690967" lon="11.921155834570527">
        <ele>1880</ele>
        <time>2017-07-06T14:16:55Z</time>
      </trkpt>
      <trkpt lat="46.153032621368766" lon="11.921153990551829">
        <ele>1879.51</ele>
        <time>2017-07-06T14:17:05Z</time>
      </trkpt>
      <trkpt lat="46.152960201725364" lon="11.921151978895068">
        <ele>1879.51</ele>
        <time>2017-07-06T14:17:18Z</time>
      </trkpt>
      <trkpt lat="46.152868419885635" lon="11.921165473759174">
        <ele>1880</ele>
        <time>2017-07-06T14:17:32Z</time>
      </trkpt>
      <trkpt lat="46.152817122638226" lon="11.921265050768852">
        <ele>1880.48</ele>
        <time>2017-07-06T14:17:44Z</time>
      </trkpt>
      <trkpt lat="46.152758952230215" lon="11.921314923092723">
        <ele>1880.48</ele>
        <time>2017-07-06T14:17:55Z</time>
      </trkpt>
      <trkpt lat="46.152683263644576" lon="11.921335039660335">
        <ele>1881.4400000000001</ele>
        <time>2017-07-06T14:18:05Z</time>
      </trkpt>
      <trkpt lat="46.152610760182142" lon="11.921360688284039">
        <ele>1880.48</ele>
        <time>2017-07-06T14:18:16Z</time>
      </trkpt>
      <trkpt lat="46.152550997212529" lon="11.92139002494514">
        <ele>1880.96</ele>
        <time>2017-07-06T14:18:27Z</time>
      </trkpt>
      <trkpt lat="46.15249584428966" lon="11.921359430998564">
        <ele>1881.4400000000001</ele>
        <time>2017-07-06T14:18:37Z</time>
      </trkpt>
      <trkpt lat="46.152493078261614" lon="11.921356162056327">
        <ele>1881.4400000000001</ele>
        <time>2017-07-06T14:18:40Z</time>
      </trkpt>
      <trkpt lat="46.152427112683654" lon="11.921290531754494">
        <ele>1881.4400000000001</ele>
        <time>2017-07-06T14:18:52Z</time>
      </trkpt>
      <trkpt lat="46.152389729395509" lon="11.921219285577536">
        <ele>1880.96</ele>
        <time>2017-07-06T14:19:02Z</time>
      </trkpt>
      <trkpt lat="46.152350837364793" lon="11.921203611418605">
        <ele>1881.9200000000001</ele>
        <time>2017-07-06T14:19:13Z</time>
      </trkpt>
      <trkpt lat="46.152316890656948" lon="11.921137226745486">
        <ele>1882.4000000000001</ele>
        <time>2017-07-06T14:19:21Z</time>
      </trkpt>
      <trkpt lat="46.152263665571809" lon="11.921031698584557">
        <ele>1881.4400000000001</ele>
        <time>2017-07-06T14:19:32Z</time>
      </trkpt>
      <trkpt lat="46.152207590639591" lon="11.92095709964633">
        <ele>1881.4400000000001</ele>
        <time>2017-07-06T14:19:42Z</time>
      </trkpt>
      <trkpt lat="46.15219141356647" lon="11.920949807390571">
        <ele>1881.4400000000001</ele>
        <time>2017-07-06T14:19:51Z</time>
      </trkpt>
      <trkpt lat="46.152172889560461" lon="11.920931953936815">
        <ele>1881.4400000000001</ele>
        <time>2017-07-06T14:19:55Z</time>
      </trkpt>
      <trkpt lat="46.152104493230581" lon="11.920850984752178">
        <ele>1881.4400000000001</ele>
        <time>2017-07-06T14:20:06Z</time>
      </trkpt>
      <trkpt lat="46.152020841836929" lon="11.920765992254019">
        <ele>1881.4400000000001</ele>
        <time>2017-07-06T14:20:18Z</time>
      </trkpt>
      <trkpt lat="46.15200131200254" lon="11.920731039717793">
        <ele>1881.4400000000001</ele>
        <time>2017-07-06T14:20:23Z</time>
      </trkpt>
      <trkpt lat="46.151979519054294" lon="11.920646550133824">
        <ele>1880.96</ele>
        <time>2017-07-06T14:20:32Z</time>
      </trkpt>
      <trkpt lat="46.151922689750791" lon="11.920551750808954">
        <ele>1880.96</ele>
        <time>2017-07-06T14:20:43Z</time>
      </trkpt>
      <trkpt lat="46.151869548484683" lon="11.920508332550526">
        <ele>1880.48</ele>
        <time>2017-07-06T14:20:53Z</time>
      </trkpt>
      <trkpt lat="46.151897627860308" lon="11.920522833243012">
        <ele>1880.48</ele>
        <time>2017-07-06T14:21:05Z</time>
      </trkpt>
      <trkpt lat="46.151873739436269" lon="11.920466423034668">
        <ele>1880.96</ele>
        <time>2017-07-06T14:21:25Z</time>
      </trkpt>
      <trkpt lat="46.151858987286687" lon="11.920466674491763">
        <ele>1880.48</ele>
        <time>2017-07-06T14:21:27Z</time>
      </trkpt>
      <trkpt lat="46.151794530451298" lon="11.920467093586922">
        <ele>1879.51</ele>
        <time>2017-07-06T14:21:37Z</time>
      </trkpt>
      <trkpt lat="46.151758907362819" lon="11.920495424419641">
        <ele>1880</ele>
        <time>2017-07-06T14:21:47Z</time>
      </trkpt>
      <trkpt lat="46.151745412498713" lon="11.920532388612628">
        <ele>1880</ele>
        <time>2017-07-06T14:21:52Z</time>
      </trkpt>
      <trkpt lat="46.151675339788198" lon="11.920625092461705">
        <ele>1880.48</ele>
        <time>2017-07-06T14:22:04Z</time>
      </trkpt>
      <trkpt lat="46.151608200743794" lon="11.920696590095758">
        <ele>1879.03</ele>
        <time>2017-07-06T14:22:16Z</time>
      </trkpt>
      <trkpt lat="46.151520693674684" lon="11.92072844132781">
        <ele>1877.1099999999999</ele>
        <time>2017-07-06T14:22:28Z</time>
      </trkpt>
      <trkpt lat="46.151404101401567" lon="11.920714695006609">
        <ele>1878.55</ele>
        <time>2017-07-06T14:22:44Z</time>
      </trkpt>
      <trkpt lat="46.151373591274023" lon="11.920740930363536">
        <ele>1877.1099999999999</ele>
        <time>2017-07-06T14:22:51Z</time>
      </trkpt>
      <trkpt lat="46.151298321783543" lon="11.920766495168209">
        <ele>1877.1099999999999</ele>
        <time>2017-07-06T14:23:01Z</time>
      </trkpt>
      <trkpt lat="46.151281977072358" lon="11.920773535966873">
        <ele>1877.5899999999999</ele>
        <time>2017-07-06T14:23:03Z</time>
      </trkpt>
      <trkpt lat="46.151200840249658" lon="11.920799938961864">
        <ele>1877.1099999999999</ele>
        <time>2017-07-06T14:23:12Z</time>
      </trkpt>
      <trkpt lat="46.151140909641981" lon="11.920834388583899">
        <ele>1876.6300000000001</ele>
        <time>2017-07-06T14:23:20Z</time>
      </trkpt>
      <trkpt lat="46.151071842759848" lon="11.92089457064867">
        <ele>1876.1500000000001</ele>
        <time>2017-07-06T14:23:31Z</time>
      </trkpt>
      <trkpt lat="46.151013085618615" lon="11.920968079939485">
        <ele>1875.6700000000001</ele>
        <time>2017-07-06T14:23:42Z</time>
      </trkpt>
      <trkpt lat="46.150923734530807" lon="11.921086851507425">
        <ele>1874.71</ele>
        <time>2017-07-06T14:23:56Z</time>
      </trkpt>
      <trkpt lat="46.150891464203596" lon="11.921147704124451">
        <ele>1874.23</ele>
        <time>2017-07-06T14:24:07Z</time>
      </trkpt>
      <trkpt lat="46.150890290737152" lon="11.921150553971529">
        <ele>1874.23</ele>
        <time>2017-07-06T14:24:25Z</time>
      </trkpt>
      <trkpt lat="46.15087310783565" lon="11.921178130432963">
        <ele>1874.23</ele>
        <time>2017-07-06T14:24:38Z</time>
      </trkpt>
      <trkpt lat="46.150823989883065" lon="11.921277455985546">
        <ele>1873.27</ele>
        <time>2017-07-06T14:24:48Z</time>
      </trkpt>
      <trkpt lat="46.150819212198257" lon="11.921285083517432">
        <ele>1873.27</ele>
        <time>2017-07-06T14:24:49Z</time>
      </trkpt>
      <trkpt lat="46.150764897465706" lon="11.921364879235625">
        <ele>1872.79</ele>
        <time>2017-07-06T14:25:00Z</time>
      </trkpt>
      <trkpt lat="46.150712678208947" lon="11.921411482617259">
        <ele>1872.79</ele>
        <time>2017-07-06T14:25:09Z</time>
      </trkpt>
      <trkpt lat="46.150649646297097" lon="11.921480046585202">
        <ele>1871.8199999999999</ele>
        <time>2017-07-06T14:25:20Z</time>
      </trkpt>
      <trkpt lat="46.150565324351192" lon="11.921544671058655">
        <ele>1871.3399999999999</ele>
        <time>2017-07-06T14:25:32Z</time>
      </trkpt>
      <trkpt lat="46.150443954393268" lon="11.921626981347799">
        <ele>1870.8599999999999</ele>
        <time>2017-07-06T14:25:46Z</time>
      </trkpt>
      <trkpt lat="46.150378240272403" lon="11.921623377129436">
        <ele>1871.8199999999999</ele>
        <time>2017-07-06T14:25:56Z</time>
      </trkpt>
      <trkpt lat="46.150333480909467" lon="11.921637039631605">
        <ele>1871.8199999999999</ele>
        <time>2017-07-06T14:26:01Z</time>
      </trkpt>
      <trkpt lat="46.150321494787931" lon="11.92157912068069">
        <ele>1870.8599999999999</ele>
        <time>2017-07-06T14:26:11Z</time>
      </trkpt>
      <trkpt lat="46.150333732366562" lon="11.921583898365498">
        <ele>1870.8599999999999</ele>
        <time>2017-07-06T14:26:27Z</time>
      </trkpt>
      <trkpt lat="46.150320656597614" lon="11.9215371273458">
        <ele>1870.3800000000001</ele>
        <time>2017-07-06T14:26:37Z</time>
      </trkpt>
      <trkpt lat="46.150345718488097" lon="11.92162555642426">
        <ele>1871.3399999999999</ele>
        <time>2017-07-06T14:26:48Z</time>
      </trkpt>
      <trkpt lat="46.15034781396389" lon="11.921670231968164">
        <ele>1871.8199999999999</ele>
        <time>2017-07-06T14:26:52Z</time>
      </trkpt>
      <trkpt lat="46.150329457595944" lon="11.921712644398212">
        <ele>1871.8199999999999</ele>
        <time>2017-07-06T14:27:00Z</time>
      </trkpt>
      <trkpt lat="46.150329289957881" lon="11.921672997996211">
        <ele>1871.8199999999999</ele>
        <time>2017-07-06T14:27:04Z</time>
      </trkpt>
      <trkpt lat="46.150345047935843" lon="11.92162505351007">
        <ele>1871.8199999999999</ele>
        <time>2017-07-06T14:27:08Z</time>
      </trkpt>
      <trkpt lat="46.150358794257045" lon="11.921609211713076">
        <ele>1871.8199999999999</ele>
        <time>2017-07-06T14:27:18Z</time>
      </trkpt>
      <trkpt lat="46.15035125054419" lon="11.921606613323092">
        <ele>1872.3</ele>
        <time>2017-07-06T14:27:31Z</time>
      </trkpt>
      <trkpt lat="46.15037270821631" lon="11.921611139550805">
        <ele>1872.3</ele>
        <time>2017-07-06T14:27:45Z</time>
      </trkpt>
      <trkpt lat="46.150362649932504" lon="11.921605356037617">
        <ele>1872.3</ele>
        <time>2017-07-06T14:28:00Z</time>
      </trkpt>
      <trkpt lat="46.150349322706461" lon="11.921604685485363">
        <ele>1872.3</ele>
        <time>2017-07-06T14:28:10Z</time>
      </trkpt>
      <trkpt lat="46.150349238887429" lon="11.921606697142124">
        <ele>1872.3</ele>
        <time>2017-07-06T14:28:28Z</time>
      </trkpt>
      <trkpt lat="46.150346640497446" lon="11.921608038246632">
        <ele>1872.3</ele>
        <time>2017-07-06T14:28:46Z</time>
      </trkpt>
      <trkpt lat="46.150343120098114" lon="11.921611474826932">
        <ele>1872.3</ele>
        <time>2017-07-06T14:28:59Z</time>
      </trkpt>
      <trkpt lat="46.150327865034342" lon="11.921584568917751">
        <ele>1871.8199999999999</ele>
        <time>2017-07-06T14:29:13Z</time>
      </trkpt>
      <trkpt lat="46.150274388492107" lon="11.921577947214246">
        <ele>1870.8599999999999</ele>
        <time>2017-07-06T14:29:21Z</time>
      </trkpt>
      <trkpt lat="46.150219822302461" lon="11.921566715463996">
        <ele>1870.3800000000001</ele>
        <time>2017-07-06T14:29:29Z</time>
      </trkpt>
      <trkpt lat="46.150093171745539" lon="11.9215043541044">
        <ele>1868.9400000000001</ele>
        <time>2017-07-06T14:29:41Z</time>
      </trkpt>
      <trkpt lat="46.150000132620335" lon="11.921455822885036">
        <ele>1868.46</ele>
        <time>2017-07-06T14:29:50Z</time>
      </trkpt>
      <trkpt lat="46.149896532297134" lon="11.921376949176192">
        <ele>1868.46</ele>
        <time>2017-07-06T14:30:03Z</time>
      </trkpt>
      <trkpt lat="46.149789076298475" lon="11.921270834282041">
        <ele>1867.98</ele>
        <time>2017-07-06T14:30:15Z</time>
      </trkpt>
      <trkpt lat="46.149705592542887" lon="11.921185925602913">
        <ele>1866.54</ele>
        <time>2017-07-06T14:30:25Z</time>
      </trkpt>
      <trkpt lat="46.14959679543972" lon="11.921082241460681">
        <ele>1866.54</ele>
        <time>2017-07-06T14:30:37Z</time>
      </trkpt>
      <trkpt lat="46.149526806548238" lon="11.920999512076378">
        <ele>1866.54</ele>
        <time>2017-07-06T14:30:46Z</time>
      </trkpt>
      <trkpt lat="46.149400491267443" lon="11.920921225100756">
        <ele>1865.5799999999999</ele>
        <time>2017-07-06T14:31:00Z</time>
      </trkpt>
      <trkpt lat="46.149334944784641" lon="11.920877220109105">
        <ele>1864.1300000000001</ele>
        <time>2017-07-06T14:31:10Z</time>
      </trkpt>
      <trkpt lat="46.149309044703841" lon="11.920788874849677">
        <ele>1862.21</ele>
        <time>2017-07-06T14:31:21Z</time>
      </trkpt>
      <trkpt lat="46.149295382201672" lon="11.92069323733449">
        <ele>1859.8099999999999</ele>
        <time>2017-07-06T14:31:31Z</time>
      </trkpt>
      <trkpt lat="46.149266632273793" lon="11.920664571225643">
        <ele>1858.3699999999999</ele>
        <time>2017-07-06T14:31:40Z</time>
      </trkpt>
      <trkpt lat="46.149227237328887" lon="11.92061604000628">
        <ele>1855.96</ele>
        <time>2017-07-06T14:31:50Z</time>
      </trkpt>
      <trkpt lat="46.149218184873462" lon="11.920527946203947">
        <ele>1854.52</ele>
        <time>2017-07-06T14:32:00Z</time>
      </trkpt>
      <trkpt lat="46.149224722757936" lon="11.920458041131496">
        <ele>1852.5999999999999</ele>
        <time>2017-07-06T14:32:10Z</time>
      </trkpt>
      <trkpt lat="46.149239055812359" lon="11.920379837974906">
        <ele>1851.1600000000001</ele>
        <time>2017-07-06T14:32:20Z</time>
      </trkpt>
      <trkpt lat="46.149243246763945" lon="11.920312279835343">
        <ele>1849.23</ele>
        <time>2017-07-06T14:32:30Z</time>
      </trkpt>
      <trkpt lat="46.149238552898169" lon="11.92027791403234">
        <ele>1847.79</ele>
        <time>2017-07-06T14:32:38Z</time>
      </trkpt>
      <trkpt lat="46.149213574826717" lon="11.920234328135848">
        <ele>1846.8299999999999</ele>
        <time>2017-07-06T14:32:49Z</time>
      </trkpt>
      <trkpt lat="46.149184321984649" lon="11.920148329809308">
        <ele>1843.95</ele>
        <time>2017-07-06T14:33:01Z</time>
      </trkpt>
      <trkpt lat="46.149168480187654" lon="11.920068617910147">
        <ele>1841.54</ele>
        <time>2017-07-06T14:33:13Z</time>
      </trkpt>
      <trkpt lat="46.149129085242748" lon="11.92003115080297">
        <ele>1839.6199999999999</ele>
        <time>2017-07-06T14:33:22Z</time>
      </trkpt>
      <trkpt lat="46.149098156020045" lon="11.919977255165577">
        <ele>1837.22</ele>
        <time>2017-07-06T14:33:33Z</time>
      </trkpt>
      <trkpt lat="46.149078207090497" lon="11.919876672327518">
        <ele>1834.8099999999999</ele>
        <time>2017-07-06T14:33:45Z</time>
      </trkpt>
      <trkpt lat="46.149067645892501" lon="11.919789500534534">
        <ele>1833.3699999999999</ele>
        <time>2017-07-06T14:33:54Z</time>
      </trkpt>
      <trkpt lat="46.149063538759947" lon="11.919670728966594">
        <ele>1830.97</ele>
        <time>2017-07-06T14:34:06Z</time>
      </trkpt>
      <trkpt lat="46.149002350866795" lon="11.919604344293475">
        <ele>1828.0799999999999</ele>
        <time>2017-07-06T14:34:17Z</time>
      </trkpt>
      <trkpt lat="46.14900603890419" lon="11.919565871357918">
        <ele>1826.6400000000001</ele>
        <time>2017-07-06T14:34:25Z</time>
      </trkpt>
      <trkpt lat="46.148950718343258" lon="11.919526979327202">
        <ele>1825.2</ele>
        <time>2017-07-06T14:34:34Z</time>
      </trkpt>
      <trkpt lat="46.148918531835079" lon="11.919442322105169">
        <ele>1823.28</ele>
        <time>2017-07-06T14:34:44Z</time>
      </trkpt>
      <trkpt lat="46.148908557370305" lon="11.919416505843401">
        <ele>1822.3199999999999</ele>
        <time>2017-07-06T14:34:52Z</time>
      </trkpt>
      <trkpt lat="46.148868575692177" lon="11.919428994879127">
        <ele>1820.3900000000001</ele>
        <time>2017-07-06T14:35:00Z</time>
      </trkpt>
      <trkpt lat="46.148852482438087" lon="11.91939982585609">
        <ele>1818.95</ele>
        <time>2017-07-06T14:35:08Z</time>
      </trkpt>
      <trkpt lat="46.148860026150942" lon="11.919324640184641">
        <ele>1817.51</ele>
        <time>2017-07-06T14:35:18Z</time>
      </trkpt>
      <trkpt lat="46.148832617327571" lon="11.919321622699499">
        <ele>1816.0699999999999</ele>
        <time>2017-07-06T14:35:28Z</time>
      </trkpt>
      <trkpt lat="46.148808980360627" lon="11.91926890052855">
        <ele>1814.6300000000001</ele>
        <time>2017-07-06T14:35:36Z</time>
      </trkpt>
      <trkpt lat="46.14877000451088" lon="11.919233780354261">
        <ele>1812.22</ele>
        <time>2017-07-06T14:35:46Z</time>
      </trkpt>
      <trkpt lat="46.14869674667716" lon="11.919232942163944">
        <ele>1809.3399999999999</ele>
        <time>2017-07-06T14:35:57Z</time>
      </trkpt>
      <trkpt lat="46.148686353117228" lon="11.91912766546011">
        <ele>1807.4200000000001</ele>
        <time>2017-07-06T14:36:08Z</time>
      </trkpt>
      <trkpt lat="46.148658022284508" lon="11.919045187532902">
        <ele>1805.49</ele>
        <time>2017-07-06T14:36:17Z</time>
      </trkpt>
      <trkpt lat="46.148655172437429" lon="11.919034877792001">
        <ele>1805.01</ele>
        <time>2017-07-06T14:36:18Z</time>
      </trkpt>
      <trkpt lat="46.148663805797696" lon="11.918955333530903">
        <ele>1804.05</ele>
        <time>2017-07-06T14:36:26Z</time>
      </trkpt>
      <trkpt lat="46.148611754179001" lon="11.918932367116213">
        <ele>1802.1300000000001</ele>
        <time>2017-07-06T14:36:36Z</time>
      </trkpt>
      <trkpt lat="46.148583088070154" lon="11.918848128989339">
        <ele>1800.6900000000001</ele>
        <time>2017-07-06T14:36:45Z</time>
      </trkpt>
      <trkpt lat="46.148554589599371" lon="11.918808231130242">
        <ele>1798.28</ele>
        <time>2017-07-06T14:36:55Z</time>
      </trkpt>
      <trkpt lat="46.14852424710989" lon="11.9187465403229">
        <ele>1796.8399999999999</ele>
        <time>2017-07-06T14:37:06Z</time>
      </trkpt>
      <trkpt lat="46.148495581001043" lon="11.918718293309212">
        <ele>1795.4000000000001</ele>
        <time>2017-07-06T14:37:16Z</time>
      </trkpt>
      <trkpt lat="46.148456772789359" lon="11.91876757889986">
        <ele>1793.96</ele>
        <time>2017-07-06T14:37:26Z</time>
      </trkpt>
      <trkpt lat="46.148436237126589" lon="11.918810997158289">
        <ele>1793</ele>
        <time>2017-07-06T14:37:35Z</time>
      </trkpt>
      <trkpt lat="46.14844998344779" lon="11.918764393776655">
        <ele>1792.52</ele>
        <time>2017-07-06T14:37:45Z</time>
      </trkpt>
      <trkpt lat="46.148437410593033" lon="11.918693399056792">
        <ele>1790.1099999999999</ele>
        <time>2017-07-06T14:37:56Z</time>
      </trkpt>
      <trkpt lat="46.148390974849463" lon="11.918711923062801">
        <ele>1788.6700000000001</ele>
        <time>2017-07-06T14:38:08Z</time>
      </trkpt>
      <trkpt lat="46.14835568703711" lon="11.918690633028746">
        <ele>1786.75</ele>
        <time>2017-07-06T14:38:18Z</time>
      </trkpt>
      <trkpt lat="46.148317800834775" lon="11.918724915012717">
        <ele>1784.8199999999999</ele>
        <time>2017-07-06T14:38:30Z</time>
      </trkpt>
      <trkpt lat="46.14828092046082" lon="11.918693566694856">
        <ele>1782.4200000000001</ele>
        <time>2017-07-06T14:38:39Z</time>
      </trkpt>
      <trkpt lat="46.148249739781022" lon="11.918678311631083">
        <ele>1781.46</ele>
        <time>2017-07-06T14:38:48Z</time>
      </trkpt>
      <trkpt lat="46.148201124742627" lon="11.918648220598698">
        <ele>1779.54</ele>
        <time>2017-07-06T14:38:57Z</time>
      </trkpt>
      <trkpt lat="46.148143960162997" lon="11.918635312467813">
        <ele>1777.6099999999999</ele>
        <time>2017-07-06T14:39:06Z</time>
      </trkpt>
      <trkpt lat="46.148127447813749" lon="11.918630367144942">
        <ele>1777.6099999999999</ele>
        <time>2017-07-06T14:39:08Z</time>
      </trkpt>
      <trkpt lat="46.148047316819429" lon="11.918560629710555">
        <ele>1775.6900000000001</ele>
        <time>2017-07-06T14:39:17Z</time>
      </trkpt>
      <trkpt lat="46.147995432838798" lon="11.918462980538607">
        <ele>1775.6900000000001</ele>
        <time>2017-07-06T14:39:25Z</time>
      </trkpt>
      <trkpt lat="46.147912703454494" lon="11.918414365500212">
        <ele>1775.21</ele>
        <time>2017-07-06T14:39:34Z</time>
      </trkpt>
      <trkpt lat="46.147840367630124" lon="11.918338676914573">
        <ele>1773.29</ele>
        <time>2017-07-06T14:39:48Z</time>
      </trkpt>
      <trkpt lat="46.147772306576371" lon="11.918297773227096">
        <ele>1770.8900000000001</ele>
        <time>2017-07-06T14:39:59Z</time>
      </trkpt>
      <trkpt lat="46.147726373746991" lon="11.918292660266161">
        <ele>1768.96</ele>
        <time>2017-07-06T14:40:09Z</time>
      </trkpt>
      <trkpt lat="46.147666107863188" lon="11.918255612254143">
        <ele>1766.5599999999999</ele>
        <time>2017-07-06T14:40:19Z</time>
      </trkpt>
      <trkpt lat="46.147674070671201" lon="11.918174223974347">
        <ele>1765.1199999999999</ele>
        <time>2017-07-06T14:40:28Z</time>
      </trkpt>
      <trkpt lat="46.147616989910603" lon="11.918178666383028">
        <ele>1763.6800000000001</ele>
        <time>2017-07-06T14:40:37Z</time>
      </trkpt>
      <trkpt lat="46.147556221112609" lon="11.918230718001723">
        <ele>1761.75</ele>
        <time>2017-07-06T14:40:46Z</time>
      </trkpt>
      <trkpt lat="46.147496877238154" lon="11.918226024135947">
        <ele>1759.3499999999999</ele>
        <time>2017-07-06T14:40:56Z</time>
      </trkpt>
      <trkpt lat="46.147483885288239" lon="11.91824471578002">
        <ele>1757.4300000000001</ele>
        <time>2017-07-06T14:41:07Z</time>
      </trkpt>
      <trkpt lat="46.14747860468924" lon="11.91832291893661">
        <ele>1755.5</ele>
        <time>2017-07-06T14:41:16Z</time>
      </trkpt>
      <trkpt lat="46.147437198087573" lon="11.918305568397045">
        <ele>1755.02</ele>
        <time>2017-07-06T14:41:26Z</time>
      </trkpt>
      <trkpt lat="46.147409453988075" lon="11.918286038562655">
        <ele>1753.5799999999999</ele>
        <time>2017-07-06T14:41:34Z</time>
      </trkpt>
      <trkpt lat="46.14737986586988" lon="11.918278662487864">
        <ele>1753.5799999999999</ele>
        <time>2017-07-06T14:41:41Z</time>
      </trkpt>
      <trkpt lat="46.147370142862201" lon="11.918174894526601">
        <ele>1751.6600000000001</ele>
        <time>2017-07-06T14:41:51Z</time>
      </trkpt>
      <trkpt lat="46.147368969395757" lon="11.918130051344633">
        <ele>1750.7</ele>
        <time>2017-07-06T14:41:55Z</time>
      </trkpt>
      <trkpt lat="46.147363856434822" lon="11.918030055239797">
        <ele>1749.26</ele>
        <time>2017-07-06T14:42:04Z</time>
      </trkpt>
      <trkpt lat="46.147336028516293" lon="11.918001808226109">
        <ele>1748.78</ele>
        <time>2017-07-06T14:42:08Z</time>
      </trkpt>
      <trkpt lat="46.14730216562748" lon="11.917935842648149">
        <ele>1747.3299999999999</ele>
        <time>2017-07-06T14:42:17Z</time>
      </trkpt>
      <trkpt lat="46.147225806489587" lon="11.917837271466851">
        <ele>1746.3699999999999</ele>
        <time>2017-07-06T14:42:28Z</time>
      </trkpt>
      <trkpt lat="46.14716830663383" lon="11.917753620073199">
        <ele>1746.8499999999999</ele>
        <time>2017-07-06T14:42:36Z</time>
      </trkpt>
      <trkpt lat="46.147119859233499" lon="11.917657731100917">
        <ele>1745.8900000000001</ele>
        <time>2017-07-06T14:42:45Z</time>
      </trkpt>
      <trkpt lat="46.147046014666557" lon="11.917547844350338">
        <ele>1744.9300000000001</ele>
        <time>2017-07-06T14:42:56Z</time>
      </trkpt>
      <trkpt lat="46.147012319415808" lon="11.917405603453517">
        <ele>1743.49</ele>
        <time>2017-07-06T14:43:08Z</time>
      </trkpt>
      <trkpt lat="46.147007290273905" lon="11.917391689494252">
        <ele>1743.97</ele>
        <time>2017-07-06T14:43:17Z</time>
      </trkpt>
      <trkpt lat="46.146987425163388" lon="11.917360927909613">
        <ele>1743.97</ele>
        <time>2017-07-06T14:43:23Z</time>
      </trkpt>
      <trkpt lat="46.146924560889602" lon="11.917241234332323">
        <ele>1743.01</ele>
        <time>2017-07-06T14:43:34Z</time>
      </trkpt>
      <trkpt lat="46.146907713264227" lon="11.917179543524981">
        <ele>1742.53</ele>
        <time>2017-07-06T14:43:44Z</time>
      </trkpt>
      <trkpt lat="46.146902265027165" lon="11.917161857709289">
        <ele>1742.05</ele>
        <time>2017-07-06T14:43:48Z</time>
      </trkpt>
      <trkpt lat="46.146888518705964" lon="11.917105279862881">
        <ele>1740.5999999999999</ele>
        <time>2017-07-06T14:43:57Z</time>
      </trkpt>
      <trkpt lat="46.146877957507968" lon="11.917069489136338">
        <ele>1740.5999999999999</ele>
        <time>2017-07-06T14:44:01Z</time>
      </trkpt>
      <trkpt lat="46.146828923374414" lon="11.916929595172405">
        <ele>1739.6400000000001</ele>
        <time>2017-07-06T14:44:13Z</time>
      </trkpt>
      <trkpt lat="46.14682774990797" lon="11.916914591565728">
        <ele>1739.1600000000001</ele>
        <time>2017-07-06T14:44:14Z</time>
      </trkpt>
      <trkpt lat="46.146815428510308" lon="11.916885422542691">
        <ele>1738.6800000000001</ele>
        <time>2017-07-06T14:44:17Z</time>
      </trkpt>
      <trkpt lat="46.146808303892612" lon="11.916866730898619">
        <ele>1738.2</ele>
        <time>2017-07-06T14:44:19Z</time>
      </trkpt>
      <trkpt lat="46.146746529266238" lon="11.916873017325997">
        <ele>1735.3199999999999</ele>
        <time>2017-07-06T14:44:29Z</time>
      </trkpt>
      <trkpt lat="46.146719958633184" lon="11.916839322075248">
        <ele>1734.8399999999999</ele>
        <time>2017-07-06T14:44:33Z</time>
      </trkpt>
      <trkpt lat="46.146677630022168" lon="11.91674318164587">
        <ele>1732.9100000000001</ele>
        <time>2017-07-06T14:44:42Z</time>
      </trkpt>
      <trkpt lat="46.146603533998132" lon="11.916756257414818">
        <ele>1730.99</ele>
        <time>2017-07-06T14:44:50Z</time>
      </trkpt>
      <trkpt lat="46.14650571718812" lon="11.916802106425166">
        <ele>1730.51</ele>
        <time>2017-07-06T14:44:59Z</time>
      </trkpt>
      <trkpt lat="46.146477134898305" lon="11.916805962100625">
        <ele>1730.51</ele>
        <time>2017-07-06T14:45:09Z</time>
      </trkpt>
      <trkpt lat="46.146482666954398" lon="11.916797580197453">
        <ele>1730.51</ele>
        <time>2017-07-06T14:45:10Z</time>
      </trkpt>
      <trkpt lat="46.14652038551867" lon="11.916749635711312">
        <ele>1730.51</ele>
        <time>2017-07-06T14:45:19Z</time>
      </trkpt>
      <trkpt lat="46.146516026929021" lon="11.916719544678926">
        <ele>1730.03</ele>
        <time>2017-07-06T14:45:21Z</time>
      </trkpt>
      <trkpt lat="46.146527426317334" lon="11.916639748960733">
        <ele>1731.47</ele>
        <time>2017-07-06T14:45:27Z</time>
      </trkpt>
      <trkpt lat="46.146490797400475" lon="11.916546877473593">
        <ele>1730.51</ele>
        <time>2017-07-06T14:45:39Z</time>
      </trkpt>
      <trkpt lat="46.146485013887286" lon="11.916560959070921">
        <ele>1730.51</ele>
        <time>2017-07-06T14:45:48Z</time>
      </trkpt>
      <trkpt lat="46.146498592570424" lon="11.916560707613826">
        <ele>1730.51</ele>
        <time>2017-07-06T14:45:57Z</time>
      </trkpt>
    </trkseg>
  </trk>

  <trk>
    <name>6-rif-boz-rif-dal-piaz-2017-07-07</name>
    <extensions>
      <gpxx:TrackExtension>
        <gpxx:DisplayColor>Yellow</gpxx:DisplayColor>
      </gpxx:TrackExtension>
    </extensions>
    <trkseg>
      <trkpt lat="46.146516026929021" lon="11.916759358718991">
        <ele>1724.26</ele>
        <time>2017-07-07T05:37:33Z</time>
      </trkpt>
      <trkpt lat="46.146516529843211" lon="11.916769836097956">
        <ele>1724.26</ele>
        <time>2017-07-07T05:37:34Z</time>
      </trkpt>
      <trkpt lat="46.146538658067584" lon="11.916901180520654">
        <ele>1723.78</ele>
        <time>2017-07-07T05:37:45Z</time>
      </trkpt>
      <trkpt lat="46.146567156538367" lon="11.91709547303617">
        <ele>1722.8199999999999</ele>
        <time>2017-07-07T05:37:59Z</time>
      </trkpt>
      <trkpt lat="46.146566402167082" lon="11.917117852717638">
        <ele>1723.78</ele>
        <time>2017-07-07T05:38:01Z</time>
      </trkpt>
      <trkpt lat="46.146564893424511" lon="11.917156912386417">
        <ele>1723.3</ele>
        <time>2017-07-07T05:38:04Z</time>
      </trkpt>
      <trkpt lat="46.146529773250222" lon="11.917295381426811">
        <ele>1723.3</ele>
        <time>2017-07-07T05:38:16Z</time>
      </trkpt>
      <trkpt lat="46.14651502110064" lon="11.91736226901412">
        <ele>1723.78</ele>
        <time>2017-07-07T05:38:22Z</time>
      </trkpt>
      <trkpt lat="46.146482666954398" lon="11.917418008670211">
        <ele>1723.78</ele>
        <time>2017-07-07T05:38:28Z</time>
      </trkpt>
      <trkpt lat="46.14639189094305" lon="11.91750199533999">
        <ele>1723.78</ele>
        <time>2017-07-07T05:38:39Z</time>
      </trkpt>
      <trkpt lat="46.146313520148396" lon="11.917620850726962">
        <ele>1723.3</ele>
        <time>2017-07-07T05:38:50Z</time>
      </trkpt>
      <trkpt lat="46.146297510713339" lon="11.917630070820451">
        <ele>1723.78</ele>
        <time>2017-07-07T05:38:52Z</time>
      </trkpt>
      <trkpt lat="46.14618469029665" lon="11.917664352804422">
        <ele>1723.78</ele>
        <time>2017-07-07T05:39:02Z</time>
      </trkpt>
      <trkpt lat="46.146105397492647" lon="11.917690169066191">
        <ele>1724.26</ele>
        <time>2017-07-07T05:39:11Z</time>
      </trkpt>
      <trkpt lat="46.146029457449913" lon="11.917681870982051">
        <ele>1724.26</ele>
        <time>2017-07-07T05:39:24Z</time>
      </trkpt>
      <trkpt lat="46.146011184900999" lon="11.917669549584389">
        <ele>1724.26</ele>
        <time>2017-07-07T05:39:34Z</time>
      </trkpt>
      <trkpt lat="46.145947985351086" lon="11.917677680030465">
        <ele>1724.26</ele>
        <time>2017-07-07T05:39:43Z</time>
      </trkpt>
      <trkpt lat="46.145918145775795" lon="11.917678182944655">
        <ele>1724.26</ele>
        <time>2017-07-07T05:39:46Z</time>
      </trkpt>
      <trkpt lat="46.145809516310692" lon="11.917613307014108">
        <ele>1723.78</ele>
        <time>2017-07-07T05:39:57Z</time>
      </trkpt>
      <trkpt lat="46.145733408629894" lon="11.917559830471873">
        <ele>1723.78</ele>
        <time>2017-07-07T05:40:09Z</time>
      </trkpt>
      <trkpt lat="46.145630059763789" lon="11.917485063895583">
        <ele>1723.78</ele>
        <time>2017-07-07T05:40:21Z</time>
      </trkpt>
      <trkpt lat="46.145565938204527" lon="11.917434521019459">
        <ele>1723.3</ele>
        <time>2017-07-07T05:40:30Z</time>
      </trkpt>
      <trkpt lat="46.145547665655613" lon="11.917429575696588">
        <ele>1723.3</ele>
        <time>2017-07-07T05:40:32Z</time>
      </trkpt>
      <trkpt lat="46.145515060052276" lon="11.917395042255521">
        <ele>1723.3</ele>
        <time>2017-07-07T05:40:36Z</time>
      </trkpt>
      <trkpt lat="46.145377345383167" lon="11.917347433045506">
        <ele>1722.3399999999999</ele>
        <time>2017-07-07T05:40:50Z</time>
      </trkpt>
      <trkpt lat="46.145324539393187" lon="11.917249616235495">
        <ele>1721.3800000000001</ele>
        <time>2017-07-07T05:41:00Z</time>
      </trkpt>
      <trkpt lat="46.145280366763473" lon="11.917281048372388">
        <ele>1719.46</ele>
        <time>2017-07-07T05:41:10Z</time>
      </trkpt>
      <trkpt lat="46.145186824724078" lon="11.917205275967717">
        <ele>1717.05</ele>
        <time>2017-07-07T05:41:22Z</time>
      </trkpt>
      <trkpt lat="46.145132929086685" lon="11.917156493291259">
        <ele>1715.1300000000001</ele>
        <time>2017-07-07T05:41:31Z</time>
      </trkpt>
      <trkpt lat="46.145068472251296" lon="11.917058592662215">
        <ele>1713.21</ele>
        <time>2017-07-07T05:41:43Z</time>
      </trkpt>
      <trkpt lat="46.145040225237608" lon="11.916956836357713">
        <ele>1711.76</ele>
        <time>2017-07-07T05:41:55Z</time>
      </trkpt>
      <trkpt lat="46.14497828297317" lon="11.916863964870572">
        <ele>1708.8800000000001</ele>
        <time>2017-07-07T05:42:08Z</time>
      </trkpt>
      <trkpt lat="46.144929584115744" lon="11.916765980422497">
        <ele>1706.96</ele>
        <time>2017-07-07T05:42:20Z</time>
      </trkpt>
      <trkpt lat="46.144892955198884" lon="11.916670426726341">
        <ele>1705.52</ele>
        <time>2017-07-07T05:42:30Z</time>
      </trkpt>
      <trkpt lat="46.144843753427267" lon="11.916545368731022">
        <ele>1702.6300000000001</ele>
        <time>2017-07-07T05:42:44Z</time>
      </trkpt>
      <trkpt lat="46.144783487543464" lon="11.916464902460575">
        <ele>1700.23</ele>
        <time>2017-07-07T05:42:57Z</time>
      </trkpt>
      <trkpt lat="46.144753312692046" lon="11.916522150859237">
        <ele>1697.8299999999999</ele>
        <time>2017-07-07T05:43:06Z</time>
      </trkpt>
      <trkpt lat="46.144662871956825" lon="11.916497591882944">
        <ele>1696.3800000000001</ele>
        <time>2017-07-07T05:43:17Z</time>
      </trkpt>
      <trkpt lat="46.144631439819932" lon="11.916436068713665">
        <ele>1695.4200000000001</ele>
        <time>2017-07-07T05:43:27Z</time>
      </trkpt>
      <trkpt lat="46.144583160057664" lon="11.916375299915671">
        <ele>1695.4200000000001</ele>
        <time>2017-07-07T05:43:35Z</time>
      </trkpt>
      <trkpt lat="46.14456145092845" lon="11.916349064558744">
        <ele>1695.4200000000001</ele>
        <time>2017-07-07T05:43:38Z</time>
      </trkpt>
      <trkpt lat="46.144480649381876" lon="11.916237166151404">
        <ele>1694.46</ele>
        <time>2017-07-07T05:43:49Z</time>
      </trkpt>
      <trkpt lat="46.144425915554166" lon="11.916143205016851">
        <ele>1693.5</ele>
        <time>2017-07-07T05:43:57Z</time>
      </trkpt>
      <trkpt lat="46.14437629468739" lon="11.91604832187295">
        <ele>1692.0599999999999</ele>
        <time>2017-07-07T05:44:08Z</time>
      </trkpt>
      <trkpt lat="46.14433036185801" lon="11.915976069867611">
        <ele>1690.6199999999999</ele>
        <time>2017-07-07T05:44:20Z</time>
      </trkpt>
      <trkpt lat="46.144310832023621" lon="11.915945056825876">
        <ele>1690.1400000000001</ele>
        <time>2017-07-07T05:44:24Z</time>
      </trkpt>
      <trkpt lat="46.144261965528131" lon="11.915924521163106">
        <ele>1688.6900000000001</ele>
        <time>2017-07-07T05:44:33Z</time>
      </trkpt>
      <trkpt lat="46.144222402945161" lon="11.91594279371202">
        <ele>1689.1700000000001</ele>
        <time>2017-07-07T05:44:47Z</time>
      </trkpt>
      <trkpt lat="46.144183343276381" lon="11.91595503129065">
        <ele>1689.1700000000001</ele>
        <time>2017-07-07T05:44:58Z</time>
      </trkpt>
      <trkpt lat="46.144148726016283" lon="11.915950337424874">
        <ele>1688.21</ele>
        <time>2017-07-07T05:45:08Z</time>
      </trkpt>
      <trkpt lat="46.144130537286401" lon="11.915982943028212">
        <ele>1689.1700000000001</ele>
        <time>2017-07-07T05:45:20Z</time>
      </trkpt>
      <trkpt lat="46.144144870340824" lon="11.916052093729377">
        <ele>1689.6500000000001</ele>
        <time>2017-07-07T05:45:41Z</time>
      </trkpt>
      <trkpt lat="46.144159790128469" lon="11.916173798963428">
        <ele>1688.6900000000001</ele>
        <time>2017-07-07T05:45:52Z</time>
      </trkpt>
      <trkpt lat="46.144124921411276" lon="11.916259881108999">
        <ele>1686.77</ele>
        <time>2017-07-07T05:46:03Z</time>
      </trkpt>
      <trkpt lat="46.144122323021293" lon="11.916347807273269">
        <ele>1686.29</ele>
        <time>2017-07-07T05:46:16Z</time>
      </trkpt>
      <trkpt lat="46.144097344949841" lon="11.916394997388124">
        <ele>1685.3299999999999</ele>
        <time>2017-07-07T05:46:29Z</time>
      </trkpt>
      <trkpt lat="46.144047891721129" lon="11.916305813938379">
        <ele>1684.8499999999999</ele>
        <time>2017-07-07T05:46:40Z</time>
      </trkpt>
      <trkpt lat="46.1439751368016" lon="11.916191903874278">
        <ele>1684.8499999999999</ele>
        <time>2017-07-07T05:46:52Z</time>
      </trkpt>
      <trkpt lat="46.143938591703773" lon="11.916181510314345">
        <ele>1684.8499999999999</ele>
        <time>2017-07-07T05:47:01Z</time>
      </trkpt>
      <trkpt lat="46.143872793763876" lon="11.916116885840893">
        <ele>1683.4100000000001</ele>
        <time>2017-07-07T05:47:13Z</time>
      </trkpt>
      <trkpt lat="46.143820406869054" lon="11.916077826172113">
        <ele>1682.4400000000001</ele>
        <time>2017-07-07T05:47:26Z</time>
      </trkpt>
      <trkpt lat="46.143780844286084" lon="11.916028959676623">
        <ele>1681.48</ele>
        <time>2017-07-07T05:47:40Z</time>
      </trkpt>
      <trkpt lat="46.14372979849577" lon="11.915956372395158">
        <ele>1680.04</ele>
        <time>2017-07-07T05:47:49Z</time>
      </trkpt>
      <trkpt lat="46.143631897866726" lon="11.91586316563189">
        <ele>1678.1199999999999</ele>
        <time>2017-07-07T05:48:00Z</time>
      </trkpt>
      <trkpt lat="46.14357347600162" lon="11.915810024365783">
        <ele>1676.6800000000001</ele>
        <time>2017-07-07T05:48:11Z</time>
      </trkpt>
      <trkpt lat="46.14354757592082" lon="11.915764007717371">
        <ele>1676.2</ele>
        <time>2017-07-07T05:48:25Z</time>
      </trkpt>
      <trkpt lat="46.143470294773579" lon="11.915718158707023">
        <ele>1674.75</ele>
        <time>2017-07-07T05:48:36Z</time>
      </trkpt>
      <trkpt lat="46.143431151285768" lon="11.915620425716043">
        <ele>1672.3499999999999</ele>
        <time>2017-07-07T05:48:46Z</time>
      </trkpt>
      <trkpt lat="46.143422098830342" lon="11.915586059913039">
        <ele>1672.3499999999999</ele>
        <time>2017-07-07T05:48:48Z</time>
      </trkpt>
      <trkpt lat="46.143338195979595" lon="11.915486734360456">
        <ele>1670.4300000000001</ele>
        <time>2017-07-07T05:48:59Z</time>
      </trkpt>
      <trkpt lat="46.143310200423002" lon="11.915391348302364">
        <ele>1669.95</ele>
        <time>2017-07-07T05:49:08Z</time>
      </trkpt>
      <trkpt lat="46.143254796043038" lon="11.915283557027578">
        <ele>1669.47</ele>
        <time>2017-07-07T05:49:18Z</time>
      </trkpt>
      <trkpt lat="46.14324951544404" lon="11.915164366364479">
        <ele>1668.99</ele>
        <time>2017-07-07T05:49:29Z</time>
      </trkpt>
      <trkpt lat="46.143232751637697" lon="11.91509647294879">
        <ele>1668.99</ele>
        <time>2017-07-07T05:49:41Z</time>
      </trkpt>
      <trkpt lat="46.143231326714158" lon="11.915070991963148">
        <ele>1669.47</ele>
        <time>2017-07-07T05:49:53Z</time>
      </trkpt>
      <trkpt lat="46.143184052780271" lon="11.915030842646956">
        <ele>1670.4300000000001</ele>
        <time>2017-07-07T05:50:05Z</time>
      </trkpt>
      <trkpt lat="46.143156895413995" lon="11.914984406903386">
        <ele>1670.9100000000001</ele>
        <time>2017-07-07T05:50:15Z</time>
      </trkpt>
      <trkpt lat="46.143145663663745" lon="11.914993626996875">
        <ele>1671.8699999999999</ele>
        <time>2017-07-07T05:50:28Z</time>
      </trkpt>
      <trkpt lat="46.143100652843714" lon="11.915027070790529">
        <ele>1673.3099999999999</ele>
        <time>2017-07-07T05:50:41Z</time>
      </trkpt>
      <trkpt lat="46.143029155209661" lon="11.914987759664655">
        <ele>1674.27</ele>
        <time>2017-07-07T05:50:51Z</time>
      </trkpt>
      <trkpt lat="46.143006104975939" lon="11.914937803521752">
        <ele>1674.27</ele>
        <time>2017-07-07T05:50:55Z</time>
      </trkpt>
      <trkpt lat="46.14294265396893" lon="11.914849290624261">
        <ele>1671.3900000000001</ele>
        <time>2017-07-07T05:51:07Z</time>
      </trkpt>
      <trkpt lat="46.142837712541223" lon="11.914776200428605">
        <ele>1671.3900000000001</ele>
        <time>2017-07-07T05:51:20Z</time>
      </trkpt>
      <trkpt lat="46.142780380323529" lon="11.914686430245638">
        <ele>1670.4300000000001</ele>
        <time>2017-07-07T05:51:30Z</time>
      </trkpt>
      <trkpt lat="46.142778703942895" lon="11.914651142433286">
        <ele>1670.4300000000001</ele>
        <time>2017-07-07T05:51:32Z</time>
      </trkpt>
      <trkpt lat="46.1427041888237" lon="11.914607891812921">
        <ele>1668.51</ele>
        <time>2017-07-07T05:51:40Z</time>
      </trkpt>
      <trkpt lat="46.14262355491519" lon="11.914560534060001">
        <ele>1668.02</ele>
        <time>2017-07-07T05:51:49Z</time>
      </trkpt>
      <trkpt lat="46.142544681206346" lon="11.914599342271686">
        <ele>1667.54</ele>
        <time>2017-07-07T05:52:01Z</time>
      </trkpt>
      <trkpt lat="46.142473015934229" lon="11.914719706401229">
        <ele>1666.5799999999999</ele>
        <time>2017-07-07T05:52:13Z</time>
      </trkpt>
      <trkpt lat="46.142444182187319" lon="11.914820792153478">
        <ele>1664.1800000000001</ele>
        <time>2017-07-07T05:52:23Z</time>
      </trkpt>
      <trkpt lat="46.142401434481144" lon="11.914929170161486">
        <ele>1663.22</ele>
        <time>2017-07-07T05:52:34Z</time>
      </trkpt>
      <trkpt lat="46.142341671511531" lon="11.914926320314407">
        <ele>1663.22</ele>
        <time>2017-07-07T05:52:43Z</time>
      </trkpt>
      <trkpt lat="46.14227662794292" lon="11.914897570386529">
        <ele>1664.1800000000001</ele>
        <time>2017-07-07T05:52:54Z</time>
      </trkpt>
      <trkpt lat="46.142208147794008" lon="11.914909472689033">
        <ele>1664.6600000000001</ele>
        <time>2017-07-07T05:53:04Z</time>
      </trkpt>
      <trkpt lat="46.142108654603362" lon="11.914891786873341">
        <ele>1666.0999999999999</ele>
        <time>2017-07-07T05:53:14Z</time>
      </trkpt>
      <trkpt lat="46.142054507508874" lon="11.914845686405897">
        <ele>1665.6199999999999</ele>
        <time>2017-07-07T05:53:24Z</time>
      </trkpt>
      <trkpt lat="46.142028942704201" lon="11.914833448827267">
        <ele>1666.0999999999999</ele>
        <time>2017-07-07T05:53:37Z</time>
      </trkpt>
      <trkpt lat="46.141979238018394" lon="11.914830012246966">
        <ele>1666.5799999999999</ele>
        <time>2017-07-07T05:53:50Z</time>
      </trkpt>
      <trkpt lat="46.141925593838096" lon="11.91484191454947">
        <ele>1666.5799999999999</ele>
        <time>2017-07-07T05:54:02Z</time>
      </trkpt>
      <trkpt lat="46.141886534169316" lon="11.914842501282692">
        <ele>1666.5799999999999</ele>
        <time>2017-07-07T05:54:14Z</time>
      </trkpt>
      <trkpt lat="46.141804475337267" lon="11.914878459647298">
        <ele>1666.0999999999999</ele>
        <time>2017-07-07T05:54:26Z</time>
      </trkpt>
      <trkpt lat="46.141754267737269" lon="11.914910394698381">
        <ele>1667.0599999999999</ele>
        <time>2017-07-07T05:54:35Z</time>
      </trkpt>
      <trkpt lat="46.141709927469492" lon="11.914836633950472">
        <ele>1667.0599999999999</ele>
        <time>2017-07-07T05:54:46Z</time>
      </trkpt>
      <trkpt lat="46.141661563888192" lon="11.914774859324098">
        <ele>1668.51</ele>
        <time>2017-07-07T05:54:57Z</time>
      </trkpt>
      <trkpt lat="46.141571793705225" lon="11.914726914837956">
        <ele>1668.51</ele>
        <time>2017-07-07T05:55:10Z</time>
      </trkpt>
      <trkpt lat="46.14147087559104" lon="11.914769494906068">
        <ele>1666.5799999999999</ele>
        <time>2017-07-07T05:55:24Z</time>
      </trkpt>
      <trkpt lat="46.141393091529608" lon="11.914812326431274">
        <ele>1664.6600000000001</ele>
        <time>2017-07-07T05:55:37Z</time>
      </trkpt>
      <trkpt lat="46.141317235305905" lon="11.914832191541791">
        <ele>1663.22</ele>
        <time>2017-07-07T05:55:48Z</time>
      </trkpt>
      <trkpt lat="46.14130818285048" lon="11.914836466312408">
        <ele>1663.22</ele>
        <time>2017-07-07T05:55:49Z</time>
      </trkpt>
      <trkpt lat="46.141219083219767" lon="11.914965799078345">
        <ele>1662.74</ele>
        <time>2017-07-07T05:56:02Z</time>
      </trkpt>
      <trkpt lat="46.141112465411425" lon="11.915072668343782">
        <ele>1661.78</ele>
        <time>2017-07-07T05:56:15Z</time>
      </trkpt>
      <trkpt lat="46.141074579209089" lon="11.9151512067765">
        <ele>1661.78</ele>
        <time>2017-07-07T05:56:22Z</time>
      </trkpt>
      <trkpt lat="46.140970643609762" lon="11.915119020268321">
        <ele>1662.74</ele>
        <time>2017-07-07T05:56:33Z</time>
      </trkpt>
      <trkpt lat="46.140915406867862" lon="11.915065795183182">
        <ele>1663.22</ele>
        <time>2017-07-07T05:56:41Z</time>
      </trkpt>
      <trkpt lat="46.140876263380051" lon="11.914932355284691">
        <ele>1662.26</ele>
        <time>2017-07-07T05:56:51Z</time>
      </trkpt>
      <trkpt lat="46.140818931162357" lon="11.914866473525763">
        <ele>1661.78</ele>
        <time>2017-07-07T05:57:00Z</time>
      </trkpt>
      <trkpt lat="46.140728993341327" lon="11.914708390831947">
        <ele>1660.8099999999999</ele>
        <time>2017-07-07T05:57:11Z</time>
      </trkpt>
      <trkpt lat="46.140637127682567" lon="11.914525330066681">
        <ele>1660.3299999999999</ele>
        <time>2017-07-07T05:57:25Z</time>
      </trkpt>
      <trkpt lat="46.140583734959364" lon="11.914413264021277">
        <ele>1660.8099999999999</ele>
        <time>2017-07-07T05:57:36Z</time>
      </trkpt>
      <trkpt lat="46.140542244538665" lon="11.914315111935139">
        <ele>1661.78</ele>
        <time>2017-07-07T05:57:47Z</time>
      </trkpt>
      <trkpt lat="46.140448367223144" lon="11.914144707843661">
        <ele>1662.26</ele>
        <time>2017-07-07T05:58:03Z</time>
      </trkpt>
      <trkpt lat="46.140367984771729" lon="11.914050579071045">
        <ele>1663.7</ele>
        <time>2017-07-07T05:58:16Z</time>
      </trkpt>
      <trkpt lat="46.140303611755371" lon="11.914012944325805">
        <ele>1665.1400000000001</ele>
        <time>2017-07-07T05:58:27Z</time>
      </trkpt>
      <trkpt lat="46.140199508517981" lon="11.913944631814957">
        <ele>1667.0599999999999</ele>
        <time>2017-07-07T05:58:41Z</time>
      </trkpt>
      <trkpt lat="46.140117952600121" lon="11.913868775591254">
        <ele>1668.02</ele>
        <time>2017-07-07T05:58:53Z</time>
      </trkpt>
      <trkpt lat="46.140033463016152" lon="11.913807168602943">
        <ele>1668.51</ele>
        <time>2017-07-07T05:59:04Z</time>
      </trkpt>
      <trkpt lat="46.139973951503634" lon="11.913777580484748">
        <ele>1668.02</ele>
        <time>2017-07-07T05:59:14Z</time>
      </trkpt>
      <trkpt lat="46.13993807695806" lon="11.913779927417636">
        <ele>1669.47</ele>
        <time>2017-07-07T05:59:27Z</time>
      </trkpt>
      <trkpt lat="46.139844199642539" lon="11.913737431168556">
        <ele>1669.95</ele>
        <time>2017-07-07T05:59:39Z</time>
      </trkpt>
      <trkpt lat="46.139773707836866" lon="11.913698706775904">
        <ele>1670.4300000000001</ele>
        <time>2017-07-07T05:59:50Z</time>
      </trkpt>
      <trkpt lat="46.139714950695634" lon="11.913705663755536">
        <ele>1672.3499999999999</ele>
        <time>2017-07-07T05:59:58Z</time>
      </trkpt>
      <trkpt lat="46.139589222148061" lon="11.913689570501447">
        <ele>1673.3099999999999</ele>
        <time>2017-07-07T06:00:10Z</time>
      </trkpt>
      <trkpt lat="46.139521580189466" lon="11.913712369278073">
        <ele>1674.27</ele>
        <time>2017-07-07T06:00:18Z</time>
      </trkpt>
      <trkpt lat="46.139409765601158" lon="11.913755452260375">
        <ele>1675.23</ele>
        <time>2017-07-07T06:00:33Z</time>
      </trkpt>
      <trkpt lat="46.139316977933049" lon="11.913823680952191">
        <ele>1677.6400000000001</ele>
        <time>2017-07-07T06:00:45Z</time>
      </trkpt>
      <trkpt lat="46.139243887737393" lon="11.91386659629643">
        <ele>1676.6800000000001</ele>
        <time>2017-07-07T06:00:57Z</time>
      </trkpt>
      <trkpt lat="46.139163253828883" lon="11.913807420060039">
        <ele>1677.6400000000001</ele>
        <time>2017-07-07T06:01:08Z</time>
      </trkpt>
      <trkpt lat="46.139092426747084" lon="11.913720918819308">
        <ele>1678.5999999999999</ele>
        <time>2017-07-07T06:01:21Z</time>
      </trkpt>
      <trkpt lat="46.139034675434232" lon="11.913625365123153">
        <ele>1679.5599999999999</ele>
        <time>2017-07-07T06:01:32Z</time>
      </trkpt>
      <trkpt lat="46.13902822136879" lon="11.913616061210632">
        <ele>1679.5599999999999</ele>
        <time>2017-07-07T06:01:33Z</time>
      </trkpt>
      <trkpt lat="46.138984803110361" lon="11.913477508351207">
        <ele>1679.5599999999999</ele>
        <time>2017-07-07T06:01:45Z</time>
      </trkpt>
      <trkpt lat="46.138938786461949" lon="11.913407854735851">
        <ele>1681</ele>
        <time>2017-07-07T06:01:56Z</time>
      </trkpt>
      <trkpt lat="46.13888505846262" lon="11.913343397900462">
        <ele>1682.4400000000001</ele>
        <time>2017-07-07T06:02:08Z</time>
      </trkpt>
      <trkpt lat="46.138805262744427" lon="11.913406597450376">
        <ele>1683.4100000000001</ele>
        <time>2017-07-07T06:02:20Z</time>
      </trkpt>
      <trkpt lat="46.138761593028903" lon="11.913474574685097">
        <ele>1684.8499999999999</ele>
        <time>2017-07-07T06:02:33Z</time>
      </trkpt>
      <trkpt lat="46.138680372387171" lon="11.913417326286435">
        <ele>1684.8499999999999</ele>
        <time>2017-07-07T06:02:44Z</time>
      </trkpt>
      <trkpt lat="46.1386339366436" lon="11.913431156426668">
        <ele>1685.8099999999999</ele>
        <time>2017-07-07T06:02:55Z</time>
      </trkpt>
      <trkpt lat="46.138578448444605" lon="11.913378266617656">
        <ele>1687.25</ele>
        <time>2017-07-07T06:03:06Z</time>
      </trkpt>
      <trkpt lat="46.138515751808882" lon="11.913355803117156">
        <ele>1688.21</ele>
        <time>2017-07-07T06:03:16Z</time>
      </trkpt>
      <trkpt lat="46.138451714068651" lon="11.913333004340529">
        <ele>1688.6900000000001</ele>
        <time>2017-07-07T06:03:28Z</time>
      </trkpt>
      <trkpt lat="46.13833436742425" lon="11.913380529731512">
        <ele>1688.6900000000001</ele>
        <time>2017-07-07T06:03:40Z</time>
      </trkpt>
      <trkpt lat="46.138289105147123" lon="11.913398634642363">
        <ele>1690.1400000000001</ele>
        <time>2017-07-07T06:03:49Z</time>
      </trkpt>
      <trkpt lat="46.13823713734746" lon="11.913397461175919">
        <ele>1690.6199999999999</ele>
        <time>2017-07-07T06:03:56Z</time>
      </trkpt>
      <trkpt lat="46.13814921118319" lon="11.913374830037355">
        <ele>1691.0999999999999</ele>
        <time>2017-07-07T06:04:07Z</time>
      </trkpt>
      <trkpt lat="46.138069331645966" lon="11.913365023210645">
        <ele>1692.0599999999999</ele>
        <time>2017-07-07T06:04:17Z</time>
      </trkpt>
      <trkpt lat="46.138009484857321" lon="11.913392683491111">
        <ele>1693.02</ele>
        <time>2017-07-07T06:04:27Z</time>
      </trkpt>
      <trkpt lat="46.137973861768842" lon="11.913401149213314">
        <ele>1693.5</ele>
        <time>2017-07-07T06:04:33Z</time>
      </trkpt>
      <trkpt lat="46.137895742431283" lon="11.913376925513148">
        <ele>1693.98</ele>
        <time>2017-07-07T06:04:44Z</time>
      </trkpt>
      <trkpt lat="46.137819550931454" lon="11.913380697369576">
        <ele>1694.9400000000001</ele>
        <time>2017-07-07T06:04:54Z</time>
      </trkpt>
      <trkpt lat="46.137682422995567" lon="11.913365609943867">
        <ele>1694.46</ele>
        <time>2017-07-07T06:05:07Z</time>
      </trkpt>
      <trkpt lat="46.13762735389173" lon="11.913383714854717">
        <ele>1695.9000000000001</ele>
        <time>2017-07-07T06:05:18Z</time>
      </trkpt>
      <trkpt lat="46.137520149350166" lon="11.91332177259028">
        <ele>1696.8599999999999</ele>
        <time>2017-07-07T06:05:31Z</time>
      </trkpt>
      <trkpt lat="46.137442784383893" lon="11.913337195292115">
        <ele>1697.8299999999999</ele>
        <time>2017-07-07T06:05:43Z</time>
      </trkpt>
      <trkpt lat="46.137372041121125" lon="11.913350019603968">
        <ele>1699.27</ele>
        <time>2017-07-07T06:05:54Z</time>
      </trkpt>
      <trkpt lat="46.137278918176889" lon="11.913361083716154">
        <ele>1700.71</ele>
        <time>2017-07-07T06:06:06Z</time>
      </trkpt>
      <trkpt lat="46.137213790789247" lon="11.913379020988941">
        <ele>1702.1500000000001</ele>
        <time>2017-07-07T06:06:17Z</time>
      </trkpt>
      <trkpt lat="46.13718462176621" lon="11.913369381800294">
        <ele>1702.6300000000001</ele>
        <time>2017-07-07T06:06:26Z</time>
      </trkpt>
      <trkpt lat="46.137138269841671" lon="11.913301907479763">
        <ele>1703.1099999999999</ele>
        <time>2017-07-07T06:06:37Z</time>
      </trkpt>
      <trkpt lat="46.137121506035328" lon="11.913244491443038">
        <ele>1703.5899999999999</ele>
        <time>2017-07-07T06:06:47Z</time>
      </trkpt>
      <trkpt lat="46.137117147445679" lon="11.913206186145544">
        <ele>1702.6300000000001</ele>
        <time>2017-07-07T06:06:57Z</time>
      </trkpt>
      <trkpt lat="46.137115554884076" lon="11.913155475631356">
        <ele>1704.0699999999999</ele>
        <time>2017-07-07T06:07:07Z</time>
      </trkpt>
      <trkpt lat="46.137076243758202" lon="11.913108872249722">
        <ele>1705.52</ele>
        <time>2017-07-07T06:07:16Z</time>
      </trkpt>
      <trkpt lat="46.137025281786919" lon="11.913079619407654">
        <ele>1706</ele>
        <time>2017-07-07T06:07:26Z</time>
      </trkpt>
      <trkpt lat="46.137001058086753" lon="11.912984233349562">
        <ele>1707.4400000000001</ele>
        <time>2017-07-07T06:07:38Z</time>
      </trkpt>
      <trkpt lat="46.136986473575234" lon="11.912974175065756">
        <ele>1707.4400000000001</ele>
        <time>2017-07-07T06:07:41Z</time>
      </trkpt>
      <trkpt lat="46.136928806081414" lon="11.912907287478447">
        <ele>1708.4000000000001</ele>
        <time>2017-07-07T06:07:52Z</time>
      </trkpt>
      <trkpt lat="46.136925620958209" lon="11.912899240851402">
        <ele>1708.4000000000001</ele>
        <time>2017-07-07T06:07:53Z</time>
      </trkpt>
      <trkpt lat="46.136860493570566" lon="11.912775188684464">
        <ele>1709.3599999999999</ele>
        <time>2017-07-07T06:08:08Z</time>
      </trkpt>
      <trkpt lat="46.136833755299449" lon="11.912669744342566">
        <ele>1709.8399999999999</ele>
        <time>2017-07-07T06:08:20Z</time>
      </trkpt>
      <trkpt lat="46.136825541034341" lon="11.912630349397659">
        <ele>1711.76</ele>
        <time>2017-07-07T06:08:31Z</time>
      </trkpt>
      <trkpt lat="46.136807603761554" lon="11.912595229223371">
        <ele>1713.21</ele>
        <time>2017-07-07T06:08:43Z</time>
      </trkpt>
      <trkpt lat="46.13676737062633" lon="11.912578297778964">
        <ele>1715.1300000000001</ele>
        <time>2017-07-07T06:08:56Z</time>
      </trkpt>
      <trkpt lat="46.136746583506465" lon="11.912516187876463">
        <ele>1716.5699999999999</ele>
        <time>2017-07-07T06:09:07Z</time>
      </trkpt>
      <trkpt lat="46.136704841628671" lon="11.91238702274859">
        <ele>1717.53</ele>
        <time>2017-07-07T06:09:20Z</time>
      </trkpt>
      <trkpt lat="46.136659663170576" lon="11.912328349426389">
        <ele>1718.97</ele>
        <time>2017-07-07T06:09:31Z</time>
      </trkpt>
      <trkpt lat="46.136644827201962" lon="11.912262132391334">
        <ele>1720.4200000000001</ele>
        <time>2017-07-07T06:09:44Z</time>
      </trkpt>
      <trkpt lat="46.136613478884101" lon="11.912218043580651">
        <ele>1721.3800000000001</ele>
        <time>2017-07-07T06:09:56Z</time>
      </trkpt>
      <trkpt lat="46.13659244030714" lon="11.912161968648434">
        <ele>1722.8199999999999</ele>
        <time>2017-07-07T06:10:07Z</time>
      </trkpt>
      <trkpt lat="46.136560253798962" lon="11.912076221778989">
        <ele>1724.26</ele>
        <time>2017-07-07T06:10:21Z</time>
      </trkpt>
      <trkpt lat="46.136524798348546" lon="11.911990391090512">
        <ele>1725.7</ele>
        <time>2017-07-07T06:10:34Z</time>
      </trkpt>
      <trkpt lat="46.136530330404639" lon="11.9120117649436">
        <ele>1725.7</ele>
        <time>2017-07-07T06:10:53Z</time>
      </trkpt>
      <trkpt lat="46.136508788913488" lon="11.912047052755952">
        <ele>1724.74</ele>
        <time>2017-07-07T06:11:11Z</time>
      </trkpt>
      <trkpt lat="46.136519433930516" lon="11.912010088562965">
        <ele>1725.22</ele>
        <time>2017-07-07T06:11:27Z</time>
      </trkpt>
      <trkpt lat="46.136524043977261" lon="11.912008496001363">
        <ele>1725.7</ele>
        <time>2017-07-07T06:11:42Z</time>
      </trkpt>
      <trkpt lat="46.136544328182936" lon="11.912018889561296">
        <ele>1725.22</ele>
        <time>2017-07-07T06:12:02Z</time>
      </trkpt>
      <trkpt lat="46.136551285162568" lon="11.911993492394686">
        <ele>1725.7</ele>
        <time>2017-07-07T06:12:13Z</time>
      </trkpt>
      <trkpt lat="46.136560253798962" lon="11.911936327815056">
        <ele>1725.7</ele>
        <time>2017-07-07T06:12:39Z</time>
      </trkpt>
      <trkpt lat="46.136563774198294" lon="11.911947056651115">
        <ele>1726.1800000000001</ele>
        <time>2017-07-07T06:13:02Z</time>
      </trkpt>
      <trkpt lat="46.136547010391951" lon="11.9120152015239">
        <ele>1726.6700000000001</ele>
        <time>2017-07-07T06:13:15Z</time>
      </trkpt>
      <trkpt lat="46.136553464457393" lon="11.911981254816055">
        <ele>1726.6700000000001</ele>
        <time>2017-07-07T06:13:28Z</time>
      </trkpt>
      <trkpt lat="46.136543909087777" lon="11.911972872912884">
        <ele>1726.6700000000001</ele>
        <time>2017-07-07T06:13:48Z</time>
      </trkpt>
      <trkpt lat="46.136551452800632" lon="11.911879163235426">
        <ele>1727.1500000000001</ele>
        <time>2017-07-07T06:13:59Z</time>
      </trkpt>
      <trkpt lat="46.136549776419997" lon="11.911853346973658">
        <ele>1727.1500000000001</ele>
        <time>2017-07-07T06:14:16Z</time>
      </trkpt>
      <trkpt lat="46.136512476950884" lon="11.911831805482507">
        <ele>1727.6300000000001</ele>
        <time>2017-07-07T06:14:29Z</time>
      </trkpt>
      <trkpt lat="46.136514991521835" lon="11.911831134930253">
        <ele>1727.6300000000001</ele>
        <time>2017-07-07T06:14:43Z</time>
      </trkpt>
      <trkpt lat="46.136477272957563" lon="11.911728540435433">
        <ele>1729.0699999999999</ele>
        <time>2017-07-07T06:14:57Z</time>
      </trkpt>
      <trkpt lat="46.136447601020336" lon="11.911742286756635">
        <ele>1730.51</ele>
        <time>2017-07-07T06:15:10Z</time>
      </trkpt>
      <trkpt lat="46.136457324028015" lon="11.911822585389018">
        <ele>1731.95</ele>
        <time>2017-07-07T06:15:20Z</time>
      </trkpt>
      <trkpt lat="46.136410301551223" lon="11.91183440387249">
        <ele>1732.9100000000001</ele>
        <time>2017-07-07T06:15:31Z</time>
      </trkpt>
      <trkpt lat="46.136385658755898" lon="11.911857621744275">
        <ele>1733.8800000000001</ele>
        <time>2017-07-07T06:15:41Z</time>
      </trkpt>
      <trkpt lat="46.136356070637703" lon="11.911923084408045">
        <ele>1735.3199999999999</ele>
        <time>2017-07-07T06:15:53Z</time>
      </trkpt>
      <trkpt lat="46.136336205527186" lon="11.9120152015239">
        <ele>1736.28</ele>
        <time>2017-07-07T06:16:03Z</time>
      </trkpt>
      <trkpt lat="46.136287841945887" lon="11.911983685567975">
        <ele>1737.72</ele>
        <time>2017-07-07T06:16:13Z</time>
      </trkpt>
      <trkpt lat="46.136257415637374" lon="11.911833649501204">
        <ele>1739.6400000000001</ele>
        <time>2017-07-07T06:16:27Z</time>
      </trkpt>
      <trkpt lat="46.136249201372266" lon="11.911695851013064">
        <ele>1740.1199999999999</ele>
        <time>2017-07-07T06:16:39Z</time>
      </trkpt>
      <trkpt lat="46.136268815025687" lon="11.911608343943954">
        <ele>1741.0799999999999</ele>
        <time>2017-07-07T06:16:50Z</time>
      </trkpt>
      <trkpt lat="46.136289685964584" lon="11.911495188251138">
        <ele>1743.01</ele>
        <time>2017-07-07T06:17:04Z</time>
      </trkpt>
      <trkpt lat="46.136328326538205" lon="11.91137021407485">
        <ele>1744.45</ele>
        <time>2017-07-07T06:17:17Z</time>
      </trkpt>
      <trkpt lat="46.136338301002979" lon="11.91125781275332">
        <ele>1746.3699999999999</ele>
        <time>2017-07-07T06:17:31Z</time>
      </trkpt>
      <trkpt lat="46.136338049545884" lon="11.911142896860838">
        <ele>1747.3299999999999</ele>
        <time>2017-07-07T06:17:42Z</time>
      </trkpt>
      <trkpt lat="46.136333774775267" lon="11.911054886877537">
        <ele>1749.26</ele>
        <time>2017-07-07T06:17:56Z</time>
      </trkpt>
      <trkpt lat="46.136322123929858" lon="11.91094265319407">
        <ele>1750.7</ele>
        <time>2017-07-07T06:18:08Z</time>
      </trkpt>
      <trkpt lat="46.136320866644382" lon="11.910840393975377">
        <ele>1752.1400000000001</ele>
        <time>2017-07-07T06:18:20Z</time>
      </trkpt>
      <trkpt lat="46.136316508054733" lon="11.910789096727967">
        <ele>1752.6199999999999</ele>
        <time>2017-07-07T06:18:26Z</time>
      </trkpt>
      <trkpt lat="46.136276694014668" lon="11.910678455606103">
        <ele>1753.0999999999999</ele>
        <time>2017-07-07T06:18:37Z</time>
      </trkpt>
      <trkpt lat="46.13627091050148" lon="11.910547446459532">
        <ele>1754.0599999999999</ele>
        <time>2017-07-07T06:18:49Z</time>
      </trkpt>
      <trkpt lat="46.13625624217093" lon="11.910419622436166">
        <ele>1755.02</ele>
        <time>2017-07-07T06:19:01Z</time>
      </trkpt>
      <trkpt lat="46.136249536648393" lon="11.910394141450524">
        <ele>1755.02</ele>
        <time>2017-07-07T06:19:05Z</time>
      </trkpt>
      <trkpt lat="46.136263785883784" lon="11.910281907767057">
        <ele>1756.47</ele>
        <time>2017-07-07T06:19:15Z</time>
      </trkpt>
      <trkpt lat="46.136282309889793" lon="11.910241674631834">
        <ele>1756.95</ele>
        <time>2017-07-07T06:19:25Z</time>
      </trkpt>
      <trkpt lat="46.136313574388623" lon="11.910181744024158">
        <ele>1756.47</ele>
        <time>2017-07-07T06:19:30Z</time>
      </trkpt>
      <trkpt lat="46.136303935199976" lon="11.910108653828502">
        <ele>1756.95</ele>
        <time>2017-07-07T06:19:42Z</time>
      </trkpt>
      <trkpt lat="46.136288680136204" lon="11.910012345761061">
        <ele>1758.3900000000001</ele>
        <time>2017-07-07T06:19:53Z</time>
      </trkpt>
      <trkpt lat="46.136276358738542" lon="11.909893993288279">
        <ele>1757.4300000000001</ele>
        <time>2017-07-07T06:20:05Z</time>
      </trkpt>
      <trkpt lat="46.136242747306824" lon="11.909795757383108">
        <ele>1757.9100000000001</ele>
        <time>2017-07-07T06:20:16Z</time>
      </trkpt>
      <trkpt lat="46.136191701516509" lon="11.909737922251225">
        <ele>1759.3499999999999</ele>
        <time>2017-07-07T06:20:27Z</time>
      </trkpt>
      <trkpt lat="46.136154485866427" lon="11.909694923087955">
        <ele>1761.27</ele>
        <time>2017-07-07T06:20:38Z</time>
      </trkpt>
      <trkpt lat="46.136089023202658" lon="11.909641530364752">
        <ele>1764.6400000000001</ele>
        <time>2017-07-07T06:20:55Z</time>
      </trkpt>
      <trkpt lat="46.136079551652074" lon="11.909639099612832">
        <ele>1763.6800000000001</ele>
        <time>2017-07-07T06:20:57Z</time>
      </trkpt>
      <trkpt lat="46.1359918769449" lon="11.909645302221179">
        <ele>1764.6400000000001</ele>
        <time>2017-07-07T06:21:09Z</time>
      </trkpt>
      <trkpt lat="46.135930605232716" lon="11.909640273079276">
        <ele>1766.0799999999999</ele>
        <time>2017-07-07T06:21:21Z</time>
      </trkpt>
      <trkpt lat="46.135870590806007" lon="11.909621665254235">
        <ele>1767.04</ele>
        <time>2017-07-07T06:21:31Z</time>
      </trkpt>
      <trkpt lat="46.135795824229717" lon="11.909547401592135">
        <ele>1768.48</ele>
        <time>2017-07-07T06:21:46Z</time>
      </trkpt>
      <trkpt lat="46.135740503668785" lon="11.909506833180785">
        <ele>1769.4400000000001</ele>
        <time>2017-07-07T06:21:58Z</time>
      </trkpt>
      <trkpt lat="46.135675711557269" lon="11.909448662772775">
        <ele>1770.8900000000001</ele>
        <time>2017-07-07T06:22:10Z</time>
      </trkpt>
      <trkpt lat="46.135625671595335" lon="11.909409184008837">
        <ele>1772.3299999999999</ele>
        <time>2017-07-07T06:22:24Z</time>
      </trkpt>
      <trkpt lat="46.13558585755527" lon="11.909376746043563">
        <ele>1773.77</ele>
        <time>2017-07-07T06:22:37Z</time>
      </trkpt>
      <trkpt lat="46.135565070435405" lon="11.909365514293313">
        <ele>1774.25</ele>
        <time>2017-07-07T06:22:54Z</time>
      </trkpt>
      <trkpt lat="46.135568171739578" lon="11.909354701638222">
        <ele>1773.77</ele>
        <time>2017-07-07T06:23:06Z</time>
      </trkpt>
      <trkpt lat="46.135515617206693" lon="11.909374985843897">
        <ele>1774.73</ele>
        <time>2017-07-07T06:23:18Z</time>
      </trkpt>
      <trkpt lat="46.135479491204023" lon="11.909372722730041">
        <ele>1773.29</ele>
        <time>2017-07-07T06:23:27Z</time>
      </trkpt>
      <trkpt lat="46.135451328009367" lon="11.909362496808171">
        <ele>1772.3299999999999</ele>
        <time>2017-07-07T06:23:37Z</time>
      </trkpt>
      <trkpt lat="46.135443449020386" lon="11.909337434917688">
        <ele>1772.3299999999999</ele>
        <time>2017-07-07T06:23:51Z</time>
      </trkpt>
      <trkpt lat="46.135449148714542" lon="11.909345481544733">
        <ele>1772.3299999999999</ele>
        <time>2017-07-07T06:24:05Z</time>
      </trkpt>
      <trkpt lat="46.13544512540102" lon="11.90933802165091">
        <ele>1772.8099999999999</ele>
        <time>2017-07-07T06:24:20Z</time>
      </trkpt>
      <trkpt lat="46.135447137057781" lon="11.90934338606894">
        <ele>1772.3299999999999</ele>
        <time>2017-07-07T06:24:34Z</time>
      </trkpt>
      <trkpt lat="46.135439593344927" lon="11.909349337220192">
        <ele>1772.8099999999999</ele>
        <time>2017-07-07T06:24:53Z</time>
      </trkpt>
      <trkpt lat="46.135444454848766" lon="11.909319749101996">
        <ele>1772.8099999999999</ele>
        <time>2017-07-07T06:25:09Z</time>
      </trkpt>
      <trkpt lat="46.135448142886162" lon="11.909334333613515">
        <ele>1772.8099999999999</ele>
        <time>2017-07-07T06:25:25Z</time>
      </trkpt>
      <trkpt lat="46.135425260290504" lon="11.90928278490901">
        <ele>1772.3299999999999</ele>
        <time>2017-07-07T06:25:37Z</time>
      </trkpt>
      <trkpt lat="46.135420482605696" lon="11.909272558987141">
        <ele>1772.3299999999999</ele>
        <time>2017-07-07T06:25:38Z</time>
      </trkpt>
      <trkpt lat="46.135411597788334" lon="11.909228302538395">
        <ele>1772.3299999999999</ele>
        <time>2017-07-07T06:25:49Z</time>
      </trkpt>
      <trkpt lat="46.135354433208704" lon="11.909146998077631">
        <ele>1770.8900000000001</ele>
        <time>2017-07-07T06:25:59Z</time>
      </trkpt>
      <trkpt lat="46.135316547006369" lon="11.90906586125493">
        <ele>1768.96</ele>
        <time>2017-07-07T06:26:11Z</time>
      </trkpt>
      <trkpt lat="46.135294670239091" lon="11.909031914547086">
        <ele>1767.52</ele>
        <time>2017-07-07T06:26:16Z</time>
      </trkpt>
      <trkpt lat="46.135228788480163" lon="11.908961171284318">
        <ele>1765.1199999999999</ele>
        <time>2017-07-07T06:26:28Z</time>
      </trkpt>
      <trkpt lat="46.135165505111217" lon="11.908812895417213">
        <ele>1764.1600000000001</ele>
        <time>2017-07-07T06:26:40Z</time>
      </trkpt>
      <trkpt lat="46.135136587545276" lon="11.908655483275652">
        <ele>1764.6400000000001</ele>
        <time>2017-07-07T06:26:52Z</time>
      </trkpt>
      <trkpt lat="46.13512996584177" lon="11.908542830497026">
        <ele>1765.1199999999999</ele>
        <time>2017-07-07T06:27:05Z</time>
      </trkpt>
      <trkpt lat="46.135112196207047" lon="11.908493712544441">
        <ele>1764.6400000000001</ele>
        <time>2017-07-07T06:27:16Z</time>
      </trkpt>
      <trkpt lat="46.135109011083841" lon="11.908459849655628">
        <ele>1763.6800000000001</ele>
        <time>2017-07-07T06:27:21Z</time>
      </trkpt>
      <trkpt lat="46.135095348581672" lon="11.9083905313164">
        <ele>1762.71</ele>
        <time>2017-07-07T06:27:26Z</time>
      </trkpt>
      <trkpt lat="46.135069113224745" lon="11.90829916857183">
        <ele>1762.23</ele>
        <time>2017-07-07T06:27:37Z</time>
      </trkpt>
      <trkpt lat="46.135021168738604" lon="11.908243093639612">
        <ele>1760.3099999999999</ele>
        <time>2017-07-07T06:27:50Z</time>
      </trkpt>
      <trkpt lat="46.134994849562645" lon="11.908176457509398">
        <ele>1758.8699999999999</ele>
        <time>2017-07-07T06:27:59Z</time>
      </trkpt>
      <trkpt lat="46.134953526780009" lon="11.908150389790535">
        <ele>1756.95</ele>
        <time>2017-07-07T06:28:12Z</time>
      </trkpt>
      <trkpt lat="46.134930141270161" lon="11.908110911026597">
        <ele>1755.99</ele>
        <time>2017-07-07T06:28:23Z</time>
      </trkpt>
      <trkpt lat="46.134954448789358" lon="11.9080900400877">
        <ele>1757.4300000000001</ele>
        <time>2017-07-07T06:28:35Z</time>
      </trkpt>
      <trkpt lat="46.134990239515901" lon="11.90809297375381">
        <ele>1759.3499999999999</ele>
        <time>2017-07-07T06:28:44Z</time>
      </trkpt>
      <trkpt lat="46.135022845119238" lon="11.908106887713075">
        <ele>1760.3099999999999</ele>
        <time>2017-07-07T06:28:55Z</time>
      </trkpt>
      <trkpt lat="46.13500147126615" lon="11.908081155270338">
        <ele>1761.75</ele>
        <time>2017-07-07T06:29:04Z</time>
      </trkpt>
      <trkpt lat="46.134936343878508" lon="11.907994486391544">
        <ele>1763.2</ele>
        <time>2017-07-07T06:29:17Z</time>
      </trkpt>
      <trkpt lat="46.134918155148625" lon="11.907851826399565">
        <ele>1764.6400000000001</ele>
        <time>2017-07-07T06:29:29Z</time>
      </trkpt>
      <trkpt lat="46.134927123785019" lon="11.907787788659334">
        <ele>1764.1600000000001</ele>
        <time>2017-07-07T06:29:41Z</time>
      </trkpt>
      <trkpt lat="46.134953359141946" lon="11.907821148633957">
        <ele>1766.5599999999999</ele>
        <time>2017-07-07T06:29:51Z</time>
      </trkpt>
      <trkpt lat="46.134954113513231" lon="11.907778484746814">
        <ele>1768</ele>
        <time>2017-07-07T06:30:03Z</time>
      </trkpt>
      <trkpt lat="46.13494279794395" lon="11.907711513340473">
        <ele>1769.9200000000001</ele>
        <time>2017-07-07T06:30:14Z</time>
      </trkpt>
      <trkpt lat="46.134923184290528" lon="11.90763465128839">
        <ele>1771.3699999999999</ele>
        <time>2017-07-07T06:30:26Z</time>
      </trkpt>
      <trkpt lat="46.134931230917573" lon="11.907547898590565">
        <ele>1774.25</ele>
        <time>2017-07-07T06:30:41Z</time>
      </trkpt>
      <trkpt lat="46.134938690811396" lon="11.90747095271945">
        <ele>1776.1700000000001</ele>
        <time>2017-07-07T06:30:53Z</time>
      </trkpt>
      <trkpt lat="46.134931147098541" lon="11.907382858917117">
        <ele>1777.6099999999999</ele>
        <time>2017-07-07T06:31:04Z</time>
      </trkpt>
      <trkpt lat="46.134909354150295" lon="11.907298117876053">
        <ele>1779.0599999999999</ele>
        <time>2017-07-07T06:31:16Z</time>
      </trkpt>
      <trkpt lat="46.134894602000713" lon="11.907226117327809">
        <ele>1780.98</ele>
        <time>2017-07-07T06:31:28Z</time>
      </trkpt>
      <trkpt lat="46.134849423542619" lon="11.907132240012288">
        <ele>1782.9000000000001</ele>
        <time>2017-07-07T06:31:42Z</time>
      </trkpt>
      <trkpt lat="46.134839281439781" lon="11.907085720449686">
        <ele>1783.8599999999999</ele>
        <time>2017-07-07T06:31:55Z</time>
      </trkpt>
      <trkpt lat="46.134832156822085" lon="11.907040877267718">
        <ele>1785.79</ele>
        <time>2017-07-07T06:32:06Z</time>
      </trkpt>
      <trkpt lat="46.134820338338614" lon="11.907001901417971">
        <ele>1787.23</ele>
        <time>2017-07-07T06:32:18Z</time>
      </trkpt>
      <trkpt lat="46.134820338338614" lon="11.906881537288427">
        <ele>1788.6700000000001</ele>
        <time>2017-07-07T06:32:30Z</time>
      </trkpt>
      <trkpt lat="46.134811704978347" lon="11.906789252534509">
        <ele>1789.1500000000001</ele>
        <time>2017-07-07T06:32:41Z</time>
      </trkpt>
      <trkpt lat="46.134805418550968" lon="11.906719179823995">
        <ele>1789.6300000000001</ele>
        <time>2017-07-07T06:32:52Z</time>
      </trkpt>
      <trkpt lat="46.134817907586694" lon="11.906700739637017">
        <ele>1789.6300000000001</ele>
        <time>2017-07-07T06:33:03Z</time>
      </trkpt>
      <trkpt lat="46.134835509583354" lon="11.9066964648664">
        <ele>1790.1099999999999</ele>
        <time>2017-07-07T06:33:08Z</time>
      </trkpt>
      <trkpt lat="46.134861409664154" lon="11.906652543693781">
        <ele>1790.1099999999999</ele>
        <time>2017-07-07T06:33:19Z</time>
      </trkpt>
      <trkpt lat="46.134857553988695" lon="11.906646089628339">
        <ele>1790.1099999999999</ele>
        <time>2017-07-07T06:33:30Z</time>
      </trkpt>
      <trkpt lat="46.13484020344913" lon="11.906614825129509">
        <ele>1789.6300000000001</ele>
        <time>2017-07-07T06:33:39Z</time>
      </trkpt>
      <trkpt lat="46.134842801839113" lon="11.906581213697791">
        <ele>1789.6300000000001</ele>
        <time>2017-07-07T06:33:41Z</time>
      </trkpt>
      <trkpt lat="46.134851267561316" lon="11.906440649181604">
        <ele>1790.1099999999999</ele>
        <time>2017-07-07T06:33:51Z</time>
      </trkpt>
      <trkpt lat="46.134858811274171" lon="11.906357584521174">
        <ele>1791.55</ele>
        <time>2017-07-07T06:34:00Z</time>
      </trkpt>
      <trkpt lat="46.134844562038779" lon="11.906280219554901">
        <ele>1793.48</ele>
        <time>2017-07-07T06:34:12Z</time>
      </trkpt>
      <trkpt lat="46.134824361652136" lon="11.906207967549562">
        <ele>1796.3599999999999</ele>
        <time>2017-07-07T06:34:24Z</time>
      </trkpt>
      <trkpt lat="46.134837437421083" lon="11.906140996143222">
        <ele>1798.28</ele>
        <time>2017-07-07T06:34:35Z</time>
      </trkpt>
      <trkpt lat="46.134811118245125" lon="11.906122304499149">
        <ele>1799.24</ele>
        <time>2017-07-07T06:34:45Z</time>
      </trkpt>
      <trkpt lat="46.134784044697881" lon="11.906102020293474">
        <ele>1801.1700000000001</ele>
        <time>2017-07-07T06:34:58Z</time>
      </trkpt>
      <trkpt lat="46.134733501821756" lon="11.906102439388633">
        <ele>1802.6099999999999</ele>
        <time>2017-07-07T06:35:12Z</time>
      </trkpt>
      <trkpt lat="46.134731154888868" lon="11.906079389154911">
        <ele>1804.05</ele>
        <time>2017-07-07T06:35:23Z</time>
      </trkpt>
      <trkpt lat="46.134734759107232" lon="11.906081736087799">
        <ele>1804.05</ele>
        <time>2017-07-07T06:35:33Z</time>
      </trkpt>
      <trkpt lat="46.134645491838455" lon="11.90610034391284">
        <ele>1805.49</ele>
        <time>2017-07-07T06:35:45Z</time>
      </trkpt>
      <trkpt lat="46.134563684463501" lon="11.906063379719853">
        <ele>1806.9400000000001</ele>
        <time>2017-07-07T06:35:56Z</time>
      </trkpt>
      <trkpt lat="46.134516578167677" lon="11.906054327264428">
        <ele>1805.97</ele>
        <time>2017-07-07T06:36:03Z</time>
      </trkpt>
      <trkpt lat="46.134419599547982" lon="11.906060110777617">
        <ele>1804.05</ele>
        <time>2017-07-07T06:36:16Z</time>
      </trkpt>
      <trkpt lat="46.134382635354996" lon="11.906063295900822">
        <ele>1803.0899999999999</ele>
        <time>2017-07-07T06:36:26Z</time>
      </trkpt>
      <trkpt lat="46.134326728060842" lon="11.906116437166929">
        <ele>1801.6500000000001</ele>
        <time>2017-07-07T06:36:35Z</time>
      </trkpt>
      <trkpt lat="46.134285824373364" lon="11.906161280348897">
        <ele>1800.6900000000001</ele>
        <time>2017-07-07T06:36:45Z</time>
      </trkpt>
      <trkpt lat="46.134244333952665" lon="11.906167231500149">
        <ele>1800.6900000000001</ele>
        <time>2017-07-07T06:36:55Z</time>
      </trkpt>
      <trkpt lat="46.134162778034806" lon="11.90616731531918">
        <ele>1799.73</ele>
        <time>2017-07-07T06:37:06Z</time>
      </trkpt>
      <trkpt lat="46.134087927639484" lon="11.906195897608995">
        <ele>1797.8</ele>
        <time>2017-07-07T06:37:17Z</time>
      </trkpt>
      <trkpt lat="46.134019196033478" lon="11.906200004741549">
        <ele>1796.3599999999999</ele>
        <time>2017-07-07T06:37:25Z</time>
      </trkpt>
      <trkpt lat="46.133912075310946" lon="11.906194137409329">
        <ele>1794.4400000000001</ele>
        <time>2017-07-07T06:37:38Z</time>
      </trkpt>
      <trkpt lat="46.133828004822135" lon="11.906192293390632">
        <ele>1793</ele>
        <time>2017-07-07T06:37:48Z</time>
      </trkpt>
      <trkpt lat="46.133811492472887" lon="11.90617997199297">
        <ele>1793</ele>
        <time>2017-07-07T06:37:51Z</time>
      </trkpt>
      <trkpt lat="46.133788777515292" lon="11.906177122145891">
        <ele>1792.52</ele>
        <time>2017-07-07T06:37:57Z</time>
      </trkpt>
      <trkpt lat="46.133753154426813" lon="11.906208973377943">
        <ele>1792.03</ele>
        <time>2017-07-07T06:38:06Z</time>
      </trkpt>
      <trkpt lat="46.133698504418135" lon="11.906212996691465">
        <ele>1791.0699999999999</ele>
        <time>2017-07-07T06:38:15Z</time>
      </trkpt>
      <trkpt lat="46.13364452496171" lon="11.906192293390632">
        <ele>1790.1099999999999</ele>
        <time>2017-07-07T06:38:24Z</time>
      </trkpt>
      <trkpt lat="46.133632035925984" lon="11.906196735799313">
        <ele>1789.6300000000001</ele>
        <time>2017-07-07T06:38:26Z</time>
      </trkpt>
      <trkpt lat="46.133561376482248" lon="11.90618684515357">
        <ele>1788.1900000000001</ele>
        <time>2017-07-07T06:38:37Z</time>
      </trkpt>
      <trkpt lat="46.133533380925655" lon="11.90619857981801">
        <ele>1788.1900000000001</ele>
        <time>2017-07-07T06:38:47Z</time>
      </trkpt>
      <trkpt lat="46.133531285449862" lon="11.906195227056742">
        <ele>1788.1900000000001</ele>
        <time>2017-07-07T06:39:03Z</time>
      </trkpt>
      <trkpt lat="46.13352726213634" lon="11.906206458806992">
        <ele>1788.1900000000001</ele>
        <time>2017-07-07T06:39:22Z</time>
      </trkpt>
      <trkpt lat="46.133511755615473" lon="11.906241662800312">
        <ele>1787.71</ele>
        <time>2017-07-07T06:39:37Z</time>
      </trkpt>
      <trkpt lat="46.133505553007126" lon="11.90619807690382">
        <ele>1787.71</ele>
        <time>2017-07-07T06:40:02Z</time>
      </trkpt>
      <trkpt lat="46.133491974323988" lon="11.906230514869094">
        <ele>1787.23</ele>
        <time>2017-07-07T06:40:30Z</time>
      </trkpt>
      <trkpt lat="46.133456351235509" lon="11.906242836266756">
        <ele>1787.71</ele>
        <time>2017-07-07T06:40:54Z</time>
      </trkpt>
      <trkpt lat="46.133419051766396" lon="11.906272675842047">
        <ele>1786.27</ele>
        <time>2017-07-07T06:41:07Z</time>
      </trkpt>
      <trkpt lat="46.133386278524995" lon="11.906293127685785">
        <ele>1784.8199999999999</ele>
        <time>2017-07-07T06:41:18Z</time>
      </trkpt>
      <trkpt lat="46.13333280198276" lon="11.906310645863414">
        <ele>1782.9000000000001</ele>
        <time>2017-07-07T06:41:29Z</time>
      </trkpt>
      <trkpt lat="46.133250324055552" lon="11.906300419941545">
        <ele>1780.5</ele>
        <time>2017-07-07T06:41:40Z</time>
      </trkpt>
      <trkpt lat="46.133203385397792" lon="11.906293295323849">
        <ele>1779.54</ele>
        <time>2017-07-07T06:41:48Z</time>
      </trkpt>
      <trkpt lat="46.133104059845209" lon="11.906298492103815">
        <ele>1777.1300000000001</ele>
        <time>2017-07-07T06:42:00Z</time>
      </trkpt>
      <trkpt lat="46.133033568039536" lon="11.906342497095466">
        <ele>1774.25</ele>
        <time>2017-07-07T06:42:13Z</time>
      </trkpt>
      <trkpt lat="46.133013870567083" lon="11.906400164589286">
        <ele>1773.29</ele>
        <time>2017-07-07T06:42:22Z</time>
      </trkpt>
      <trkpt lat="46.132989814504981" lon="11.906453976407647">
        <ele>1771.8499999999999</ele>
        <time>2017-07-07T06:42:32Z</time>
      </trkpt>
      <trkpt lat="46.132951593026519" lon="11.906458754092455">
        <ele>1770.4100000000001</ele>
        <time>2017-07-07T06:42:43Z</time>
      </trkpt>
      <trkpt lat="46.13289400935173" lon="11.906439810991287">
        <ele>1768</ele>
        <time>2017-07-07T06:42:58Z</time>
      </trkpt>
      <trkpt lat="46.132861906662583" lon="11.906455988064408">
        <ele>1766.5599999999999</ele>
        <time>2017-07-07T06:43:08Z</time>
      </trkpt>
      <trkpt lat="46.132819494232535" lon="11.906469985842705">
        <ele>1764.6400000000001</ele>
        <time>2017-07-07T06:43:19Z</time>
      </trkpt>
      <trkpt lat="46.132792923599482" lon="11.906498065218329">
        <ele>1763.2</ele>
        <time>2017-07-07T06:43:30Z</time>
      </trkpt>
      <trkpt lat="46.132746990770102" lon="11.906442074105144">
        <ele>1760.79</ele>
        <time>2017-07-07T06:43:42Z</time>
      </trkpt>
      <trkpt lat="46.132698878645897" lon="11.906439056620002">
        <ele>1758.3900000000001</ele>
        <time>2017-07-07T06:43:54Z</time>
      </trkpt>
      <trkpt lat="46.132652778178453" lon="11.906491778790951">
        <ele>1756.47</ele>
        <time>2017-07-07T06:44:06Z</time>
      </trkpt>
      <trkpt lat="46.132645234465599" lon="11.906527066603303">
        <ele>1754.54</ele>
        <time>2017-07-07T06:44:19Z</time>
      </trkpt>
      <trkpt lat="46.132670631632209" lon="11.906507704406977">
        <ele>1753.0999999999999</ele>
        <time>2017-07-07T06:44:29Z</time>
      </trkpt>
      <trkpt lat="46.132734166458249" lon="11.906534694135189">
        <ele>1750.22</ele>
        <time>2017-07-07T06:44:41Z</time>
      </trkpt>
      <trkpt lat="46.132757468149066" lon="11.906600575894117">
        <ele>1747.8099999999999</ele>
        <time>2017-07-07T06:44:52Z</time>
      </trkpt>
      <trkpt lat="46.132690748199821" lon="11.906617926433682">
        <ele>1745.8900000000001</ele>
        <time>2017-07-07T06:45:05Z</time>
      </trkpt>
      <trkpt lat="46.132620507851243" lon="11.906642401590943">
        <ele>1743.49</ele>
        <time>2017-07-07T06:45:14Z</time>
      </trkpt>
      <trkpt lat="46.132559739053249" lon="11.906538885086775">
        <ele>1743.49</ele>
        <time>2017-07-07T06:45:25Z</time>
      </trkpt>
      <trkpt lat="46.132509866729379" lon="11.906484067440033">
        <ele>1743.97</ele>
        <time>2017-07-07T06:45:33Z</time>
      </trkpt>
      <trkpt lat="46.132423700764775" lon="11.906440649181604">
        <ele>1744.45</ele>
        <time>2017-07-07T06:45:45Z</time>
      </trkpt>
      <trkpt lat="46.13241515122354" lon="11.906439643353224">
        <ele>1744.9300000000001</ele>
        <time>2017-07-07T06:45:46Z</time>
      </trkpt>
      <trkpt lat="46.132293781265616" lon="11.9063666369766">
        <ele>1744.9300000000001</ele>
        <time>2017-07-07T06:46:00Z</time>
      </trkpt>
      <trkpt lat="46.1322514526546" lon="11.906276363879442">
        <ele>1745.4100000000001</ele>
        <time>2017-07-07T06:46:10Z</time>
      </trkpt>
      <trkpt lat="46.132187666371465" lon="11.906188270077109">
        <ele>1743.97</ele>
        <time>2017-07-07T06:46:25Z</time>
      </trkpt>
      <trkpt lat="46.132165538147092" lon="11.906160693615675">
        <ele>1743.97</ele>
        <time>2017-07-07T06:46:28Z</time>
      </trkpt>
      <trkpt lat="46.132110804319382" lon="11.906073773279786">
        <ele>1743.49</ele>
        <time>2017-07-07T06:46:40Z</time>
      </trkpt>
      <trkpt lat="46.132092028856277" lon="11.90600898116827">
        <ele>1743.01</ele>
        <time>2017-07-07T06:46:52Z</time>
      </trkpt>
      <trkpt lat="46.13209018483758" lon="11.906016357243061">
        <ele>1742.05</ele>
        <time>2017-07-07T06:47:00Z</time>
      </trkpt>
      <trkpt lat="46.132079875096679" lon="11.905995486304164">
        <ele>1742.05</ele>
        <time>2017-07-07T06:47:04Z</time>
      </trkpt>
      <trkpt lat="46.132025141268969" lon="11.905899178236723">
        <ele>1740.5999999999999</ele>
        <time>2017-07-07T06:47:12Z</time>
      </trkpt>
      <trkpt lat="46.131996810436249" lon="11.905750650912523">
        <ele>1740.1199999999999</ele>
        <time>2017-07-07T06:47:23Z</time>
      </trkpt>
      <trkpt lat="46.131974766030908" lon="11.905609499663115">
        <ele>1741.0799999999999</ele>
        <time>2017-07-07T06:47:33Z</time>
      </trkpt>
      <trkpt lat="46.131952973082662" lon="11.905485279858112">
        <ele>1741.0799999999999</ele>
        <time>2017-07-07T06:47:43Z</time>
      </trkpt>
      <trkpt lat="46.131948949769139" lon="11.905477317050099">
        <ele>1740.1199999999999</ele>
        <time>2017-07-07T06:47:44Z</time>
      </trkpt>
      <trkpt lat="46.131918858736753" lon="11.905355611816049">
        <ele>1740.1199999999999</ele>
        <time>2017-07-07T06:47:55Z</time>
      </trkpt>
      <trkpt lat="46.131882229819894" lon="11.905230302363634">
        <ele>1740.1199999999999</ele>
        <time>2017-07-07T06:48:07Z</time>
      </trkpt>
      <trkpt lat="46.131841242313385" lon="11.905144639313221">
        <ele>1741.5699999999999</ele>
        <time>2017-07-07T06:48:20Z</time>
      </trkpt>
      <trkpt lat="46.131796650588512" lon="11.905021844431758">
        <ele>1740.5999999999999</ele>
        <time>2017-07-07T06:48:33Z</time>
      </trkpt>
      <trkpt lat="46.131731858476996" lon="11.904933163896203">
        <ele>1740.1199999999999</ele>
        <time>2017-07-07T06:48:45Z</time>
      </trkpt>
      <trkpt lat="46.131708305329084" lon="11.904908269643784">
        <ele>1740.1199999999999</ele>
        <time>2017-07-07T06:49:00Z</time>
      </trkpt>
      <trkpt lat="46.131681902334094" lon="11.904884716495872">
        <ele>1739.1600000000001</ele>
        <time>2017-07-07T06:49:11Z</time>
      </trkpt>
      <trkpt lat="46.131644183769822" lon="11.904875747859478">
        <ele>1737.72</ele>
        <time>2017-07-07T06:49:23Z</time>
      </trkpt>
      <trkpt lat="46.131653403863311" lon="11.904872562736273">
        <ele>1738.2</ele>
        <time>2017-07-07T06:49:33Z</time>
      </trkpt>
      <trkpt lat="46.131661701947451" lon="11.904841884970665">
        <ele>1737.72</ele>
        <time>2017-07-07T06:49:42Z</time>
      </trkpt>
      <trkpt lat="46.131678884848952" lon="11.90482260659337">
        <ele>1737.72</ele>
        <time>2017-07-07T06:49:55Z</time>
      </trkpt>
      <trkpt lat="46.131683830171824" lon="11.904775584116578">
        <ele>1737.72</ele>
        <time>2017-07-07T06:50:10Z</time>
      </trkpt>
      <trkpt lat="46.131639825180173" lon="11.904751863330603">
        <ele>1736.76</ele>
        <time>2017-07-07T06:50:24Z</time>
      </trkpt>
      <trkpt lat="46.131609650328755" lon="11.904676761478186">
        <ele>1735.8</ele>
        <time>2017-07-07T06:50:34Z</time>
      </trkpt>
      <trkpt lat="46.131590288132429" lon="11.904636695981026">
        <ele>1736.76</ele>
        <time>2017-07-07T06:50:43Z</time>
      </trkpt>
      <trkpt lat="46.131564471870661" lon="11.904530497267842">
        <ele>1736.76</ele>
        <time>2017-07-07T06:50:54Z</time>
      </trkpt>
      <trkpt lat="46.131524238735437" lon="11.904521360993385">
        <ele>1736.28</ele>
        <time>2017-07-07T06:51:03Z</time>
      </trkpt>
      <trkpt lat="46.131506385281682" lon="11.904536113142967">
        <ele>1736.76</ele>
        <time>2017-07-07T06:51:12Z</time>
      </trkpt>
      <trkpt lat="46.131416112184525" lon="11.904565365985036">
        <ele>1736.28</ele>
        <time>2017-07-07T06:51:22Z</time>
      </trkpt>
      <trkpt lat="46.131340591236949" lon="11.904566120356321">
        <ele>1737.24</ele>
        <time>2017-07-07T06:51:33Z</time>
      </trkpt>
      <trkpt lat="46.131320307031274" lon="11.904552038758993">
        <ele>1736.76</ele>
        <time>2017-07-07T06:51:36Z</time>
      </trkpt>
      <trkpt lat="46.131269512698054" lon="11.904487330466509">
        <ele>1737.24</ele>
        <time>2017-07-07T06:51:45Z</time>
      </trkpt>
      <trkpt lat="46.131233302876353" lon="11.904451623558998">
        <ele>1738.2</ele>
        <time>2017-07-07T06:51:51Z</time>
      </trkpt>
      <trkpt lat="46.131164571270347" lon="11.904410300776362">
        <ele>1738.6800000000001</ele>
        <time>2017-07-07T06:52:03Z</time>
      </trkpt>
      <trkpt lat="46.131103299558163" lon="11.90436813980341">
        <ele>1739.1600000000001</ele>
        <time>2017-07-07T06:52:13Z</time>
      </trkpt>
      <trkpt lat="46.131078070029616" lon="11.904403762891889">
        <ele>1740.1199999999999</ele>
        <time>2017-07-07T06:52:23Z</time>
      </trkpt>
      <trkpt lat="46.131071113049984" lon="11.904445756226778">
        <ele>1740.5999999999999</ele>
        <time>2017-07-07T06:52:31Z</time>
      </trkpt>
      <trkpt lat="46.131036076694727" lon="11.904455563053489">
        <ele>1740.5999999999999</ele>
        <time>2017-07-07T06:52:43Z</time>
      </trkpt>
      <trkpt lat="46.131014870479703" lon="11.904506022110581">
        <ele>1740.5999999999999</ele>
        <time>2017-07-07T06:52:54Z</time>
      </trkpt>
      <trkpt lat="46.130976565182209" lon="11.904453719034791">
        <ele>1742.05</ele>
        <time>2017-07-07T06:53:05Z</time>
      </trkpt>
      <trkpt lat="46.13096927292645" lon="11.904412899166346">
        <ele>1744.45</ele>
        <time>2017-07-07T06:53:20Z</time>
      </trkpt>
      <trkpt lat="46.130941277369857" lon="11.904371157288551">
        <ele>1744.9300000000001</ele>
        <time>2017-07-07T06:53:31Z</time>
      </trkpt>
      <trkpt lat="46.130915964022279" lon="11.904295720160007">
        <ele>1746.3699999999999</ele>
        <time>2017-07-07T06:53:41Z</time>
      </trkpt>
      <trkpt lat="46.130888219922781" lon="11.904264288023114">
        <ele>1748.29</ele>
        <time>2017-07-07T06:53:50Z</time>
      </trkpt>
      <trkpt lat="46.130838263779879" lon="11.904247356578708">
        <ele>1749.74</ele>
        <time>2017-07-07T06:54:03Z</time>
      </trkpt>
      <trkpt lat="46.130796270444989" lon="11.904206536710262">
        <ele>1752.1400000000001</ele>
        <time>2017-07-07T06:54:14Z</time>
      </trkpt>
      <trkpt lat="46.130785625427961" lon="11.904125399887562">
        <ele>1754.0599999999999</ele>
        <time>2017-07-07T06:54:26Z</time>
      </trkpt>
      <trkpt lat="46.130774058401585" lon="11.904073180630803">
        <ele>1755.02</ele>
        <time>2017-07-07T06:54:37Z</time>
      </trkpt>
      <trkpt lat="46.130767771974206" lon="11.904029175639153">
        <ele>1756.47</ele>
        <time>2017-07-07T06:54:46Z</time>
      </trkpt>
      <trkpt lat="46.130760060623288" lon="11.903990870341659">
        <ele>1756.47</ele>
        <time>2017-07-07T06:54:56Z</time>
      </trkpt>
      <trkpt lat="46.130751427263021" lon="11.904017189517617">
        <ele>1756.95</ele>
        <time>2017-07-07T06:55:06Z</time>
      </trkpt>
      <trkpt lat="46.130752684548497" lon="11.903916019946337">
        <ele>1757.9100000000001</ele>
        <time>2017-07-07T06:55:17Z</time>
      </trkpt>
      <trkpt lat="46.13074111752212" lon="11.903823986649513">
        <ele>1759.3499999999999</ele>
        <time>2017-07-07T06:55:27Z</time>
      </trkpt>
      <trkpt lat="46.130752684548497" lon="11.903829267248511">
        <ele>1759.3499999999999</ele>
        <time>2017-07-07T06:55:38Z</time>
      </trkpt>
      <trkpt lat="46.130723599344492" lon="11.903761876747012">
        <ele>1760.3099999999999</ele>
        <time>2017-07-07T06:55:48Z</time>
      </trkpt>
      <trkpt lat="46.130713960155845" lon="11.903753075748682">
        <ele>1760.79</ele>
        <time>2017-07-07T06:56:03Z</time>
      </trkpt>
      <trkpt lat="46.130707003176212" lon="11.903718374669552">
        <ele>1760.79</ele>
        <time>2017-07-07T06:56:19Z</time>
      </trkpt>
      <trkpt lat="46.130661992356181" lon="11.903675459325314">
        <ele>1761.75</ele>
        <time>2017-07-07T06:56:26Z</time>
      </trkpt>
      <trkpt lat="46.130599295720458" lon="11.903639836236835">
        <ele>1762.23</ele>
        <time>2017-07-07T06:56:36Z</time>
      </trkpt>
      <trkpt lat="46.130554871633649" lon="11.90362592227757">
        <ele>1763.6800000000001</ele>
        <time>2017-07-07T06:56:44Z</time>
      </trkpt>
      <trkpt lat="46.130485888570547" lon="11.903607146814466">
        <ele>1764.6400000000001</ele>
        <time>2017-07-07T06:56:54Z</time>
      </trkpt>
      <trkpt lat="46.130417995154858" lon="11.903571607545018">
        <ele>1766.5599999999999</ele>
        <time>2017-07-07T06:57:06Z</time>
      </trkpt>
      <trkpt lat="46.130354879423976" lon="11.903539504855871">
        <ele>1768</ele>
        <time>2017-07-07T06:57:19Z</time>
      </trkpt>
      <trkpt lat="46.13028522580862" lon="11.90351402387023">
        <ele>1769.4400000000001</ele>
        <time>2017-07-07T06:57:30Z</time>
      </trkpt>
      <trkpt lat="46.130237951874733" lon="11.903521483764052">
        <ele>1770.8900000000001</ele>
        <time>2017-07-07T06:57:42Z</time>
      </trkpt>
      <trkpt lat="46.130173411220312" lon="11.903518717736006">
        <ele>1771.3699999999999</ele>
        <time>2017-07-07T06:57:53Z</time>
      </trkpt>
      <trkpt lat="46.130137452855706" lon="11.903481250628829">
        <ele>1772.8099999999999</ele>
        <time>2017-07-07T06:58:03Z</time>
      </trkpt>
      <trkpt lat="46.130090430378914" lon="11.90345099195838">
        <ele>1774.25</ele>
        <time>2017-07-07T06:58:14Z</time>
      </trkpt>
      <trkpt lat="46.130031086504459" lon="11.90344856120646">
        <ele>1775.6900000000001</ele>
        <time>2017-07-07T06:58:26Z</time>
      </trkpt>
      <trkpt lat="46.129983393475413" lon="11.903422828763723">
        <ele>1777.6099999999999</ele>
        <time>2017-07-07T06:58:38Z</time>
      </trkpt>
      <trkpt lat="46.129926731809974" lon="11.903430121019483">
        <ele>1779.0599999999999</ele>
        <time>2017-07-07T06:58:50Z</time>
      </trkpt>
      <trkpt lat="46.129882475361228" lon="11.903410088270903">
        <ele>1780.02</ele>
        <time>2017-07-07T06:59:02Z</time>
      </trkpt>
      <trkpt lat="46.129890019074082" lon="11.903384691104293">
        <ele>1780.02</ele>
        <time>2017-07-07T06:59:19Z</time>
      </trkpt>
      <trkpt lat="46.129888091236353" lon="11.903385948389769">
        <ele>1780.02</ele>
        <time>2017-07-07T06:59:32Z</time>
      </trkpt>
      <trkpt lat="46.12989672459662" lon="11.903407406061888">
        <ele>1780.02</ele>
        <time>2017-07-07T06:59:44Z</time>
      </trkpt>
      <trkpt lat="46.129890270531178" lon="11.903406400233507">
        <ele>1779.54</ele>
        <time>2017-07-07T06:59:55Z</time>
      </trkpt>
      <trkpt lat="46.129886582493782" lon="11.90339919179678">
        <ele>1779.0599999999999</ele>
        <time>2017-07-07T07:00:04Z</time>
      </trkpt>
      <trkpt lat="46.129875183105469" lon="11.90340019762516">
        <ele>1779.0599999999999</ele>
        <time>2017-07-07T07:00:25Z</time>
      </trkpt>
      <trkpt lat="46.129877613857388" lon="11.903404053300619">
        <ele>1779.0599999999999</ele>
        <time>2017-07-07T07:00:50Z</time>
      </trkpt>
      <trkpt lat="46.129882140085101" lon="11.903405478224158">
        <ele>1779.0599999999999</ele>
        <time>2017-07-07T07:01:19Z</time>
      </trkpt>
      <trkpt lat="46.129870321601629" lon="11.903396425768733">
        <ele>1779.0599999999999</ele>
        <time>2017-07-07T07:01:49Z</time>
      </trkpt>
      <trkpt lat="46.129863448441029" lon="11.903386451303959">
        <ele>1779.0599999999999</ele>
        <time>2017-07-07T07:02:09Z</time>
      </trkpt>
      <trkpt lat="46.129861017689109" lon="11.903375471010804">
        <ele>1779.54</ele>
        <time>2017-07-07T07:02:33Z</time>
      </trkpt>
      <trkpt lat="46.129871914163232" lon="11.903371782973409">
        <ele>1779.0599999999999</ele>
        <time>2017-07-07T07:02:56Z</time>
      </trkpt>
      <trkpt lat="46.1298683937639" lon="11.903388630598783">
        <ele>1779.54</ele>
        <time>2017-07-07T07:03:22Z</time>
      </trkpt>
      <trkpt lat="46.129883984103799" lon="11.903439927846193">
        <ele>1780.02</ele>
        <time>2017-07-07T07:03:34Z</time>
      </trkpt>
      <trkpt lat="46.129879038780928" lon="11.903421152383089">
        <ele>1779.54</ele>
        <time>2017-07-07T07:03:46Z</time>
      </trkpt>
      <trkpt lat="46.12986789084971" lon="11.903450069949031">
        <ele>1779.54</ele>
        <time>2017-07-07T07:04:15Z</time>
      </trkpt>
      <trkpt lat="46.12988599576056" lon="11.903423080220819">
        <ele>1779.54</ele>
        <time>2017-07-07T07:04:44Z</time>
      </trkpt>
      <trkpt lat="46.129880715161562" lon="11.903418386355042">
        <ele>1779.54</ele>
        <time>2017-07-07T07:05:10Z</time>
      </trkpt>
      <trkpt lat="46.129868309944868" lon="11.903405142948031">
        <ele>1779.54</ele>
        <time>2017-07-07T07:05:42Z</time>
      </trkpt>
      <trkpt lat="46.129872668534517" lon="11.903406316414475">
        <ele>1779.54</ele>
        <time>2017-07-07T07:06:08Z</time>
      </trkpt>
      <trkpt lat="46.129881637170911" lon="11.903407657518983">
        <ele>1779.54</ele>
        <time>2017-07-07T07:06:33Z</time>
      </trkpt>
      <trkpt lat="46.129892617464066" lon="11.903407406061888">
        <ele>1779.54</ele>
        <time>2017-07-07T07:07:11Z</time>
      </trkpt>
      <trkpt lat="46.129884738475084" lon="11.903408076614141">
        <ele>1779.54</ele>
        <time>2017-07-07T07:07:44Z</time>
      </trkpt>
      <trkpt lat="46.129886414855719" lon="11.903416207060218">
        <ele>1779.54</ele>
        <time>2017-07-07T07:08:00Z</time>
      </trkpt>
      <trkpt lat="46.129887085407972" lon="11.903415117412806">
        <ele>1780.02</ele>
        <time>2017-07-07T07:08:23Z</time>
      </trkpt>
      <trkpt lat="46.129896892234683" lon="11.903447471559048">
        <ele>1780.5</ele>
        <time>2017-07-07T07:08:32Z</time>
      </trkpt>
      <trkpt lat="46.129864957183599" lon="11.903422242030501">
        <ele>1780.5</ele>
        <time>2017-07-07T07:08:51Z</time>
      </trkpt>
      <trkpt lat="46.129870656877756" lon="11.903442945331335">
        <ele>1780.98</ele>
        <time>2017-07-07T07:09:07Z</time>
      </trkpt>
      <trkpt lat="46.129861520603299" lon="11.903448393568397">
        <ele>1780.98</ele>
        <time>2017-07-07T07:09:24Z</time>
      </trkpt>
      <trkpt lat="46.129875015467405" lon="11.903424086049199">
        <ele>1780.98</ele>
        <time>2017-07-07T07:09:44Z</time>
      </trkpt>
      <trkpt lat="46.129868142306805" lon="11.903445292264223">
        <ele>1780.98</ele>
        <time>2017-07-07T07:10:04Z</time>
      </trkpt>
      <trkpt lat="46.129876105114818" lon="11.903428947553039">
        <ele>1780.98</ele>
        <time>2017-07-07T07:10:18Z</time>
      </trkpt>
      <trkpt lat="46.129880212247372" lon="11.903429953381419">
        <ele>1780.98</ele>
        <time>2017-07-07T07:10:33Z</time>
      </trkpt>
      <trkpt lat="46.129865711554885" lon="11.903438251465559">
        <ele>1780.98</ele>
        <time>2017-07-07T07:10:47Z</time>
      </trkpt>
      <trkpt lat="46.129894629120827" lon="11.903444789350033">
        <ele>1780.98</ele>
        <time>2017-07-07T07:11:02Z</time>
      </trkpt>
      <trkpt lat="46.129905357956886" lon="11.903439424932003">
        <ele>1782.4200000000001</ele>
        <time>2017-07-07T07:11:19Z</time>
      </trkpt>
      <trkpt lat="46.129897730425" lon="11.903443448245525">
        <ele>1780.98</ele>
        <time>2017-07-07T07:11:32Z</time>
      </trkpt>
      <trkpt lat="46.129884570837021" lon="11.903378656134009">
        <ele>1781.46</ele>
        <time>2017-07-07T07:11:46Z</time>
      </trkpt>
      <trkpt lat="46.129869064316154" lon="11.903326436877251">
        <ele>1781.46</ele>
        <time>2017-07-07T07:11:57Z</time>
      </trkpt>
      <trkpt lat="46.129870573058724" lon="11.903305314481258">
        <ele>1782.4200000000001</ele>
        <time>2017-07-07T07:12:09Z</time>
      </trkpt>
      <trkpt lat="46.129866214469075" lon="11.903289975598454">
        <ele>1782.9000000000001</ele>
        <time>2017-07-07T07:12:21Z</time>
      </trkpt>
      <trkpt lat="46.1298718303442" lon="11.903214873746037">
        <ele>1783.3800000000001</ele>
        <time>2017-07-07T07:12:35Z</time>
      </trkpt>
      <trkpt lat="46.129867052659392" lon="11.903147986158729">
        <ele>1784.3399999999999</ele>
        <time>2017-07-07T07:12:45Z</time>
      </trkpt>
      <trkpt lat="46.129858754575253" lon="11.903045643121004">
        <ele>1785.79</ele>
        <time>2017-07-07T07:12:57Z</time>
      </trkpt>
      <trkpt lat="46.129859844222665" lon="11.902943635359406">
        <ele>1787.71</ele>
        <time>2017-07-07T07:13:09Z</time>
      </trkpt>
      <trkpt lat="46.129880379885435" lon="11.902873143553734">
        <ele>1788.6700000000001</ele>
        <time>2017-07-07T07:13:21Z</time>
      </trkpt>
      <trkpt lat="46.129884487017989" lon="11.902789156883955">
        <ele>1789.6300000000001</ele>
        <time>2017-07-07T07:13:32Z</time>
      </trkpt>
      <trkpt lat="46.129892114549875" lon="11.902702152729034">
        <ele>1791.55</ele>
        <time>2017-07-07T07:13:44Z</time>
      </trkpt>
      <trkpt lat="46.12990896217525" lon="11.902601905167103">
        <ele>1793</ele>
        <time>2017-07-07T07:13:57Z</time>
      </trkpt>
      <trkpt lat="46.12989136017859" lon="11.902556642889977">
        <ele>1794.9200000000001</ele>
        <time>2017-07-07T07:14:09Z</time>
      </trkpt>
      <trkpt lat="46.1298424936831" lon="11.902482379227877">
        <ele>1795.8800000000001</ele>
        <time>2017-07-07T07:14:23Z</time>
      </trkpt>
      <trkpt lat="46.12981709651649" lon="11.90238724462688">
        <ele>1797.3199999999999</ele>
        <time>2017-07-07T07:14:35Z</time>
      </trkpt>
      <trkpt lat="46.129788514226675" lon="11.902282889932394">
        <ele>1799.24</ele>
        <time>2017-07-07T07:14:49Z</time>
      </trkpt>
      <trkpt lat="46.129757249727845" lon="11.902198400348425">
        <ele>1800.6900000000001</ele>
        <time>2017-07-07T07:15:01Z</time>
      </trkpt>
      <trkpt lat="46.12969446927309" lon="11.902132770046592">
        <ele>1803.0899999999999</ele>
        <time>2017-07-07T07:15:18Z</time>
      </trkpt>
      <trkpt lat="46.129685752093792" lon="11.902056243270636">
        <ele>1804.53</ele>
        <time>2017-07-07T07:15:29Z</time>
      </trkpt>
      <trkpt lat="46.129704359918833" lon="11.902019362896681">
        <ele>1804.53</ele>
        <time>2017-07-07T07:15:40Z</time>
      </trkpt>
      <trkpt lat="46.129704192280769" lon="11.901875697076321">
        <ele>1804.53</ele>
        <time>2017-07-07T07:15:52Z</time>
      </trkpt>
      <trkpt lat="46.129711400717497" lon="11.901725074276328">
        <ele>1804.53</ele>
        <time>2017-07-07T07:16:05Z</time>
      </trkpt>
      <trkpt lat="46.129711400717497" lon="11.901577301323414">
        <ele>1804.53</ele>
        <time>2017-07-07T07:16:18Z</time>
      </trkpt>
      <trkpt lat="46.129699246957898" lon="11.901521729305387">
        <ele>1803.5699999999999</ele>
        <time>2017-07-07T07:16:24Z</time>
      </trkpt>
      <trkpt lat="46.129652392119169" lon="11.901376722380519">
        <ele>1803.5699999999999</ele>
        <time>2017-07-07T07:16:38Z</time>
      </trkpt>
      <trkpt lat="46.129614841192961" lon="11.901280665770173">
        <ele>1804.05</ele>
        <time>2017-07-07T07:16:49Z</time>
      </trkpt>
      <trkpt lat="46.129548875615001" lon="11.901195254176855">
        <ele>1803.5699999999999</ele>
        <time>2017-07-07T07:17:01Z</time>
      </trkpt>
      <trkpt lat="46.129446448758245" lon="11.901142364367843">
        <ele>1803.0899999999999</ele>
        <time>2017-07-07T07:17:13Z</time>
      </trkpt>
      <trkpt lat="46.129439575597644" lon="11.901133395731449">
        <ele>1803.5699999999999</ele>
        <time>2017-07-07T07:17:14Z</time>
      </trkpt>
      <trkpt lat="46.129334047436714" lon="11.900992495939136">
        <ele>1803.0899999999999</ele>
        <time>2017-07-07T07:17:29Z</time>
      </trkpt>
      <trkpt lat="46.129245618358254" lon="11.900903061032295">
        <ele>1802.6099999999999</ele>
        <time>2017-07-07T07:17:39Z</time>
      </trkpt>
      <trkpt lat="46.129149058833718" lon="11.900857212021947">
        <ele>1804.05</ele>
        <time>2017-07-07T07:17:50Z</time>
      </trkpt>
      <trkpt lat="46.129133552312851" lon="11.900818822905421">
        <ele>1804.53</ele>
        <time>2017-07-07T07:17:53Z</time>
      </trkpt>
      <trkpt lat="46.129135563969612" lon="11.900621764361858">
        <ele>1804.53</ele>
        <time>2017-07-07T07:18:05Z</time>
      </trkpt>
      <trkpt lat="46.129153836518526" lon="11.900524450466037">
        <ele>1805.49</ele>
        <time>2017-07-07T07:18:16Z</time>
      </trkpt>
      <trkpt lat="46.129169510677457" lon="11.900417162105441">
        <ele>1805.49</ele>
        <time>2017-07-07T07:18:27Z</time>
      </trkpt>
      <trkpt lat="46.129205049946904" lon="11.900326637551188">
        <ele>1806.45</ele>
        <time>2017-07-07T07:18:36Z</time>
      </trkpt>
      <trkpt lat="46.129211839288473" lon="11.900235190987587">
        <ele>1806.9400000000001</ele>
        <time>2017-07-07T07:18:44Z</time>
      </trkpt>
      <trkpt lat="46.129129528999329" lon="11.900227898731828">
        <ele>1807.4200000000001</ele>
        <time>2017-07-07T07:18:55Z</time>
      </trkpt>
      <trkpt lat="46.129065658897161" lon="11.900209290906787">
        <ele>1807.4200000000001</ele>
        <time>2017-07-07T07:19:03Z</time>
      </trkpt>
      <trkpt lat="46.12895174883306" lon="11.900139804929495">
        <ele>1807.4200000000001</ele>
        <time>2017-07-07T07:19:16Z</time>
      </trkpt>
      <trkpt lat="46.128922495990992" lon="11.899974178522825">
        <ele>1807.9000000000001</ele>
        <time>2017-07-07T07:19:29Z</time>
      </trkpt>
      <trkpt lat="46.128896428272128" lon="11.899823388084769">
        <ele>1809.3399999999999</ele>
        <time>2017-07-07T07:19:42Z</time>
      </trkpt>
      <trkpt lat="46.128956358879805" lon="11.899698162451386">
        <ele>1810.3</ele>
        <time>2017-07-07T07:19:54Z</time>
      </trkpt>
      <trkpt lat="46.12902064807713" lon="11.899617193266749">
        <ele>1810.78</ele>
        <time>2017-07-07T07:20:05Z</time>
      </trkpt>
      <trkpt lat="46.129020228981972" lon="11.899582827463746">
        <ele>1810.78</ele>
        <time>2017-07-07T07:20:08Z</time>
      </trkpt>
      <trkpt lat="46.128974799066782" lon="11.899442598223686">
        <ele>1809.8199999999999</ele>
        <time>2017-07-07T07:20:19Z</time>
      </trkpt>
      <trkpt lat="46.128940181806684" lon="11.899362467229366">
        <ele>1809.8199999999999</ele>
        <time>2017-07-07T07:20:26Z</time>
      </trkpt>
      <trkpt lat="46.128872204571962" lon="11.899233972653747">
        <ele>1809.8199999999999</ele>
        <time>2017-07-07T07:20:39Z</time>
      </trkpt>
      <trkpt lat="46.128823505714536" lon="11.899155015125871">
        <ele>1809.3399999999999</ele>
        <time>2017-07-07T07:20:51Z</time>
      </trkpt>
      <trkpt lat="46.128812860697508" lon="11.899083098396659">
        <ele>1809.8199999999999</ele>
        <time>2017-07-07T07:20:59Z</time>
      </trkpt>
      <trkpt lat="46.128760138526559" lon="11.899022413417697">
        <ele>1809.3399999999999</ele>
        <time>2017-07-07T07:21:08Z</time>
      </trkpt>
      <trkpt lat="46.128718480467796" lon="11.898997686803341">
        <ele>1809.3399999999999</ele>
        <time>2017-07-07T07:21:14Z</time>
      </trkpt>
      <trkpt lat="46.128698196262121" lon="11.89893557690084">
        <ele>1809.3399999999999</ele>
        <time>2017-07-07T07:21:19Z</time>
      </trkpt>
      <trkpt lat="46.128660058602691" lon="11.898783948272467">
        <ele>1809.8199999999999</ele>
        <time>2017-07-07T07:21:31Z</time>
      </trkpt>
      <trkpt lat="46.128626363351941" lon="11.898673223331571">
        <ele>1810.78</ele>
        <time>2017-07-07T07:21:41Z</time>
      </trkpt>
      <trkpt lat="46.128555033355951" lon="11.898573562502861">
        <ele>1811.26</ele>
        <time>2017-07-07T07:21:52Z</time>
      </trkpt>
      <trkpt lat="46.128478003665805" lon="11.898503405973315">
        <ele>1811.74</ele>
        <time>2017-07-07T07:22:02Z</time>
      </trkpt>
      <trkpt lat="46.128405667841434" lon="11.898439032956958">
        <ele>1813.6600000000001</ele>
        <time>2017-07-07T07:22:14Z</time>
      </trkpt>
      <trkpt lat="46.128311203792691" lon="11.898379940539598">
        <ele>1813.1800000000001</ele>
        <time>2017-07-07T07:22:26Z</time>
      </trkpt>
      <trkpt lat="46.128296535462141" lon="11.898319507017732">
        <ele>1813.6600000000001</ele>
        <time>2017-07-07T07:22:38Z</time>
      </trkpt>
      <trkpt lat="46.128295194357634" lon="11.898296875879169">
        <ele>1813.6600000000001</ele>
        <time>2017-07-07T07:22:47Z</time>
      </trkpt>
      <trkpt lat="46.128248423337936" lon="11.89826468937099">
        <ele>1814.1500000000001</ele>
        <time>2017-07-07T07:23:00Z</time>
      </trkpt>
      <trkpt lat="46.128249512985349" lon="11.898221857845783">
        <ele>1814.1500000000001</ele>
        <time>2017-07-07T07:23:14Z</time>
      </trkpt>
      <trkpt lat="46.128243310377002" lon="11.898215655237436">
        <ele>1814.1500000000001</ele>
        <time>2017-07-07T07:23:29Z</time>
      </trkpt>
      <trkpt lat="46.12823098897934" lon="11.898214733228087">
        <ele>1814.6300000000001</ele>
        <time>2017-07-07T07:23:43Z</time>
      </trkpt>
      <trkpt lat="46.128242136910558" lon="11.898127729073167">
        <ele>1814.6300000000001</ele>
        <time>2017-07-07T07:23:52Z</time>
      </trkpt>
      <trkpt lat="46.128244148567319" lon="11.898040138185024">
        <ele>1814.1500000000001</ele>
        <time>2017-07-07T07:24:02Z</time>
      </trkpt>
      <trkpt lat="46.128241550177336" lon="11.898054135963321">
        <ele>1814.1500000000001</ele>
        <time>2017-07-07T07:24:14Z</time>
      </trkpt>
      <trkpt lat="46.128239538520575" lon="11.898062853142619">
        <ele>1814.1500000000001</ele>
        <time>2017-07-07T07:24:24Z</time>
      </trkpt>
      <trkpt lat="46.128212716430426" lon="11.898089507594705">
        <ele>1814.1500000000001</ele>
        <time>2017-07-07T07:24:32Z</time>
      </trkpt>
      <trkpt lat="46.128183715045452" lon="11.898046256974339">
        <ele>1814.1500000000001</ele>
        <time>2017-07-07T07:24:52Z</time>
      </trkpt>
      <trkpt lat="46.128179272636771" lon="11.898088585585356">
        <ele>1813.6600000000001</ele>
        <time>2017-07-07T07:25:03Z</time>
      </trkpt>
      <trkpt lat="46.128161000087857" lon="11.898006945848465">
        <ele>1814.1500000000001</ele>
        <time>2017-07-07T07:25:22Z</time>
      </trkpt>
      <trkpt lat="46.128173992037773" lon="11.897965874522924">
        <ele>1814.6300000000001</ele>
        <time>2017-07-07T07:25:33Z</time>
      </trkpt>
      <trkpt lat="46.128139039501548" lon="11.897991439327598">
        <ele>1814.1500000000001</ele>
        <time>2017-07-07T07:25:44Z</time>
      </trkpt>
      <trkpt lat="46.128074079751968" lon="11.89790996722877">
        <ele>1814.6300000000001</ele>
        <time>2017-07-07T07:26:07Z</time>
      </trkpt>
      <trkpt lat="46.128112971782684" lon="11.897997474297881">
        <ele>1814.6300000000001</ele>
        <time>2017-07-07T07:26:32Z</time>
      </trkpt>
      <trkpt lat="46.128101237118244" lon="11.898121777921915">
        <ele>1814.6300000000001</ele>
        <time>2017-07-07T07:27:01Z</time>
      </trkpt>
      <trkpt lat="46.128120850771666" lon="11.898117838427424">
        <ele>1815.1099999999999</ele>
        <time>2017-07-07T07:27:26Z</time>
      </trkpt>
      <trkpt lat="46.128112049773335" lon="11.898024715483189">
        <ele>1815.1099999999999</ele>
        <time>2017-07-07T07:28:00Z</time>
      </trkpt>
      <trkpt lat="46.128083132207394" lon="11.897979537025094">
        <ele>1815.1099999999999</ele>
        <time>2017-07-07T07:28:30Z</time>
      </trkpt>
      <trkpt lat="46.128104254603386" lon="11.898025637492537">
        <ele>1815.1099999999999</ele>
        <time>2017-07-07T07:28:59Z</time>
      </trkpt>
      <trkpt lat="46.128116408362985" lon="11.897947015240788">
        <ele>1815.1099999999999</ele>
        <time>2017-07-07T07:29:31Z</time>
      </trkpt>
      <trkpt lat="46.128073744475842" lon="11.897989511489868">
        <ele>1815.1099999999999</ele>
        <time>2017-07-07T07:30:02Z</time>
      </trkpt>
      <trkpt lat="46.128052370622754" lon="11.898239962756634">
        <ele>1815.1099999999999</ele>
        <time>2017-07-07T07:30:40Z</time>
      </trkpt>
      <trkpt lat="46.128075923770666" lon="11.898225294426084">
        <ele>1815.1099999999999</ele>
        <time>2017-07-07T07:31:18Z</time>
      </trkpt>
      <trkpt lat="46.128091430291533" lon="11.898007784038782">
        <ele>1815.1099999999999</ele>
        <time>2017-07-07T07:31:48Z</time>
      </trkpt>
      <trkpt lat="46.128070978447795" lon="11.898099146783352">
        <ele>1815.1099999999999</ele>
        <time>2017-07-07T07:32:14Z</time>
      </trkpt>
      <trkpt lat="46.128067877143621" lon="11.898140469565988">
        <ele>1815.5899999999999</ele>
        <time>2017-07-07T07:32:48Z</time>
      </trkpt>
      <trkpt lat="46.128190420567989" lon="11.897919606417418">
        <ele>1815.5899999999999</ele>
        <time>2017-07-07T07:33:11Z</time>
      </trkpt>
      <trkpt lat="46.128222858533263" lon="11.897864369675517">
        <ele>1815.5899999999999</ele>
        <time>2017-07-07T07:33:36Z</time>
      </trkpt>
      <trkpt lat="46.128190755844116" lon="11.897884989157319">
        <ele>1815.5899999999999</ele>
        <time>2017-07-07T07:33:56Z</time>
      </trkpt>
      <trkpt lat="46.128116324543953" lon="11.897948104888201">
        <ele>1815.1099999999999</ele>
        <time>2017-07-07T07:36:26Z</time>
      </trkpt>
      <trkpt lat="46.128195282071829" lon="11.898054806515574">
        <ele>1815.1099999999999</ele>
        <time>2017-07-07T07:36:41Z</time>
      </trkpt>
      <trkpt lat="46.128295194357634" lon="11.898145750164986">
        <ele>1815.1099999999999</ele>
        <time>2017-07-07T07:37:05Z</time>
      </trkpt>
      <trkpt lat="46.128300810232759" lon="11.898150276392698">
        <ele>1815.5899999999999</ele>
        <time>2017-07-07T07:37:28Z</time>
      </trkpt>
      <trkpt lat="46.128296703100204" lon="11.89812395721674">
        <ele>1815.5899999999999</ele>
        <time>2017-07-07T07:37:45Z</time>
      </trkpt>
      <trkpt lat="46.128297206014395" lon="11.898115575313568">
        <ele>1815.5899999999999</ele>
        <time>2017-07-07T07:38:01Z</time>
      </trkpt>
      <trkpt lat="46.128283459693193" lon="11.898104511201382">
        <ele>1816.0699999999999</ele>
        <time>2017-07-07T07:38:23Z</time>
      </trkpt>
      <trkpt lat="46.128283962607384" lon="11.898102248087525">
        <ele>1816.0699999999999</ele>
        <time>2017-07-07T07:38:41Z</time>
      </trkpt>
      <trkpt lat="46.128284633159637" lon="11.898101074621081">
        <ele>1816.0699999999999</ele>
        <time>2017-07-07T07:39:04Z</time>
      </trkpt>
      <trkpt lat="46.128303073346615" lon="11.898084729909897">
        <ele>1817.51</ele>
        <time>2017-07-07T07:39:21Z</time>
      </trkpt>
      <trkpt lat="46.128271305933595" lon="11.89807509072125">
        <ele>1817.51</ele>
        <time>2017-07-07T07:39:32Z</time>
      </trkpt>
      <trkpt lat="46.128180362284184" lon="11.897867638617754">
        <ele>1817.51</ele>
        <time>2017-07-07T07:39:42Z</time>
      </trkpt>
      <trkpt lat="46.128175584599376" lon="11.897762613371015">
        <ele>1818.95</ele>
        <time>2017-07-07T07:39:55Z</time>
      </trkpt>
      <trkpt lat="46.128226211294532" lon="11.897696396335959">
        <ele>1821.8399999999999</ele>
        <time>2017-07-07T07:40:06Z</time>
      </trkpt>
      <trkpt lat="46.128244902938604" lon="11.897660521790385">
        <ele>1823.76</ele>
        <time>2017-07-07T07:40:17Z</time>
      </trkpt>
      <trkpt lat="46.128195784986019" lon="11.897560944780707">
        <ele>1825.6800000000001</ele>
        <time>2017-07-07T07:40:28Z</time>
      </trkpt>
      <trkpt lat="46.128205424174666" lon="11.897538146004081">
        <ele>1827.5999999999999</ele>
        <time>2017-07-07T07:40:38Z</time>
      </trkpt>
      <trkpt lat="46.128267785534263" lon="11.897628335282207">
        <ele>1829.53</ele>
        <time>2017-07-07T07:40:50Z</time>
      </trkpt>
      <trkpt lat="46.128282621502876" lon="11.897660018876195">
        <ele>1831.45</ele>
        <time>2017-07-07T07:41:01Z</time>
      </trkpt>
      <trkpt lat="46.128201233223081" lon="11.897547617554665">
        <ele>1833.3699999999999</ele>
        <time>2017-07-07T07:41:12Z</time>
      </trkpt>
      <trkpt lat="46.128135016188025" lon="11.897504618391395">
        <ele>1833.8499999999999</ele>
        <time>2017-07-07T07:41:20Z</time>
      </trkpt>
      <trkpt lat="46.128082042559981" lon="11.89744820818305">
        <ele>1835.29</ele>
        <time>2017-07-07T07:41:30Z</time>
      </trkpt>
      <trkpt lat="46.128021692857146" lon="11.897467905655503">
        <ele>1836.26</ele>
        <time>2017-07-07T07:41:40Z</time>
      </trkpt>
      <trkpt lat="46.127971652895212" lon="11.897480813786387">
        <ele>1837.7</ele>
        <time>2017-07-07T07:41:49Z</time>
      </trkpt>
      <trkpt lat="46.127920188009739" lon="11.897532027214766">
        <ele>1840.0999999999999</ele>
        <time>2017-07-07T07:42:02Z</time>
      </trkpt>
      <trkpt lat="46.127922954037786" lon="11.897583156824112">
        <ele>1840.5799999999999</ele>
        <time>2017-07-07T07:42:12Z</time>
      </trkpt>
      <trkpt lat="46.127931335940957" lon="11.897598495706916">
        <ele>1839.6199999999999</ele>
        <time>2017-07-07T07:42:22Z</time>
      </trkpt>
      <trkpt lat="46.127945082262158" lon="11.897618612274528">
        <ele>1839.6199999999999</ele>
        <time>2017-07-07T07:42:38Z</time>
      </trkpt>
      <trkpt lat="46.127918846905231" lon="11.89761090092361">
        <ele>1840.5799999999999</ele>
        <time>2017-07-07T07:42:48Z</time>
      </trkpt>
      <trkpt lat="46.127872662618756" lon="11.897622551769018">
        <ele>1841.54</ele>
        <time>2017-07-07T07:43:00Z</time>
      </trkpt>
      <trkpt lat="46.127850450575352" lon="11.897668819874525">
        <ele>1842.5</ele>
        <time>2017-07-07T07:43:08Z</time>
      </trkpt>
      <trkpt lat="46.127839973196387" lon="11.897659515962005">
        <ele>1842.98</ele>
        <time>2017-07-07T07:43:18Z</time>
      </trkpt>
      <trkpt lat="46.127794794738293" lon="11.897591706365347">
        <ele>1842.98</ele>
        <time>2017-07-07T07:43:30Z</time>
      </trkpt>
      <trkpt lat="46.127744922414422" lon="11.897548791021109">
        <ele>1844.4300000000001</ele>
        <time>2017-07-07T07:43:42Z</time>
      </trkpt>
      <trkpt lat="46.127738552168012" lon="11.897541247308254">
        <ele>1844.9100000000001</ele>
        <time>2017-07-07T07:43:54Z</time>
      </trkpt>
      <trkpt lat="46.12772380001843" lon="11.897540744394064">
        <ele>1845.3900000000001</ele>
        <time>2017-07-07T07:44:09Z</time>
      </trkpt>
      <trkpt lat="46.12771206535399" lon="11.897545773535967">
        <ele>1845.3900000000001</ele>
        <time>2017-07-07T07:44:21Z</time>
      </trkpt>
      <trkpt lat="46.127723045647144" lon="11.897538062185049">
        <ele>1845.3900000000001</ele>
        <time>2017-07-07T07:44:32Z</time>
      </trkpt>
      <trkpt lat="46.127737797796726" lon="11.897531524300575">
        <ele>1845.8699999999999</ele>
        <time>2017-07-07T07:44:42Z</time>
      </trkpt>
      <trkpt lat="46.127724889665842" lon="11.897526746615767">
        <ele>1845.8699999999999</ele>
        <time>2017-07-07T07:44:59Z</time>
      </trkpt>
      <trkpt lat="46.127705024555326" lon="11.897502606734633">
        <ele>1846.3499999999999</ele>
        <time>2017-07-07T07:45:16Z</time>
      </trkpt>
      <trkpt lat="46.127696475014091" lon="11.897497745230794">
        <ele>1847.3099999999999</ele>
        <time>2017-07-07T07:45:26Z</time>
      </trkpt>
      <trkpt lat="46.127755148336291" lon="11.897432785481215">
        <ele>1848.27</ele>
        <time>2017-07-07T07:45:35Z</time>
      </trkpt>
      <trkpt lat="46.127769984304905" lon="11.897405460476875">
        <ele>1849.23</ele>
        <time>2017-07-07T07:45:45Z</time>
      </trkpt>
      <trkpt lat="46.127760177478194" lon="11.897359611466527">
        <ele>1851.1600000000001</ele>
        <time>2017-07-07T07:45:55Z</time>
      </trkpt>
      <trkpt lat="46.127775013446808" lon="11.897320132702589">
        <ele>1852.5999999999999</ele>
        <time>2017-07-07T07:46:06Z</time>
      </trkpt>
      <trkpt lat="46.127800745889544" lon="11.897346954792738">
        <ele>1852.5999999999999</ele>
        <time>2017-07-07T07:46:18Z</time>
      </trkpt>
      <trkpt lat="46.127814659848809" lon="11.897309236228466">
        <ele>1854.04</ele>
        <time>2017-07-07T07:46:28Z</time>
      </trkpt>
      <trkpt lat="46.127803428098559" lon="11.897288113832474">
        <ele>1855</ele>
        <time>2017-07-07T07:46:40Z</time>
      </trkpt>
      <trkpt lat="46.127755315974355" lon="11.897314852103591">
        <ele>1857.4000000000001</ele>
        <time>2017-07-07T07:46:50Z</time>
      </trkpt>
      <trkpt lat="46.127711646258831" lon="11.897312421351671">
        <ele>1858.8499999999999</ele>
        <time>2017-07-07T07:46:59Z</time>
      </trkpt>
      <trkpt lat="46.12766470760107" lon="11.897364892065525">
        <ele>1860.77</ele>
        <time>2017-07-07T07:47:12Z</time>
      </trkpt>
      <trkpt lat="46.127604944631457" lon="11.897374195978045">
        <ele>1862.6900000000001</ele>
        <time>2017-07-07T07:47:23Z</time>
      </trkpt>
      <trkpt lat="46.127598155289888" lon="11.897375620901585">
        <ele>1863.1700000000001</ele>
        <time>2017-07-07T07:47:31Z</time>
      </trkpt>
      <trkpt lat="46.127570746466517" lon="11.89737344160676">
        <ele>1862.6900000000001</ele>
        <time>2017-07-07T07:47:40Z</time>
      </trkpt>
      <trkpt lat="46.12758164294064" lon="11.897375704720616">
        <ele>1862.21</ele>
        <time>2017-07-07T07:48:05Z</time>
      </trkpt>
      <trkpt lat="46.127579966560006" lon="11.897394983097911">
        <ele>1862.6900000000001</ele>
        <time>2017-07-07T07:48:27Z</time>
      </trkpt>
      <trkpt lat="46.127587258815765" lon="11.897412417456508">
        <ele>1862.21</ele>
        <time>2017-07-07T07:48:48Z</time>
      </trkpt>
      <trkpt lat="46.127594299614429" lon="11.897449297830462">
        <ele>1862.21</ele>
        <time>2017-07-07T07:49:09Z</time>
      </trkpt>
      <trkpt lat="46.127610225230455" lon="11.897459523752332">
        <ele>1862.6900000000001</ele>
        <time>2017-07-07T07:49:34Z</time>
      </trkpt>
      <trkpt lat="46.127593796700239" lon="11.897430690005422">
        <ele>1863.1700000000001</ele>
        <time>2017-07-07T07:50:00Z</time>
      </trkpt>
      <trkpt lat="46.127592539414763" lon="11.89742130227387">
        <ele>1863.1700000000001</ele>
        <time>2017-07-07T07:50:19Z</time>
      </trkpt>
      <trkpt lat="46.127596227452159" lon="11.897422056645155">
        <ele>1863.1700000000001</ele>
        <time>2017-07-07T07:50:41Z</time>
      </trkpt>
      <trkpt lat="46.127586336806417" lon="11.897403197363019">
        <ele>1864.1300000000001</ele>
        <time>2017-07-07T07:50:59Z</time>
      </trkpt>
      <trkpt lat="46.127583235502243" lon="11.897367406636477">
        <ele>1864.6099999999999</ele>
        <time>2017-07-07T07:51:06Z</time>
      </trkpt>
      <trkpt lat="46.127609638497233" lon="11.897332035005093">
        <ele>1864.6099999999999</ele>
        <time>2017-07-07T07:51:20Z</time>
      </trkpt>
      <trkpt lat="46.127571333199739" lon="11.897375117987394">
        <ele>1864.1300000000001</ele>
        <time>2017-07-07T07:51:35Z</time>
      </trkpt>
      <trkpt lat="46.127547780051827" lon="11.897363718599081">
        <ele>1865.0899999999999</ele>
        <time>2017-07-07T07:51:44Z</time>
      </trkpt>
      <trkpt lat="46.127534285187721" lon="11.897367825731635">
        <ele>1865.5799999999999</ele>
        <time>2017-07-07T07:51:48Z</time>
      </trkpt>
      <trkpt lat="46.127480557188392" lon="11.897384757176042">
        <ele>1867.5</ele>
        <time>2017-07-07T07:51:59Z</time>
      </trkpt>
      <trkpt lat="46.127435714006424" lon="11.897386014461517">
        <ele>1869.4200000000001</ele>
        <time>2017-07-07T07:52:08Z</time>
      </trkpt>
      <trkpt lat="46.127407802268863" lon="11.897359443828464">
        <ele>1871.3399999999999</ele>
        <time>2017-07-07T07:52:16Z</time>
      </trkpt>
      <trkpt lat="46.127382321283221" lon="11.897339494898915">
        <ele>1872.79</ele>
        <time>2017-07-07T07:52:25Z</time>
      </trkpt>
      <trkpt lat="46.127340327948332" lon="11.897333627566695">
        <ele>1873.75</ele>
        <time>2017-07-07T07:52:34Z</time>
      </trkpt>
      <trkpt lat="46.127303196117282" lon="11.897315438836813">
        <ele>1875.1900000000001</ele>
        <time>2017-07-07T07:52:42Z</time>
      </trkpt>
      <trkpt lat="46.127268159762025" lon="11.897283000871539">
        <ele>1876.6300000000001</ele>
        <time>2017-07-07T07:52:55Z</time>
      </trkpt>
      <trkpt lat="46.127213090658188" lon="11.897270930930972">
        <ele>1877.5899999999999</ele>
        <time>2017-07-07T07:53:06Z</time>
      </trkpt>
      <trkpt lat="46.127173444256186" lon="11.897250730544329">
        <ele>1877.1099999999999</ele>
        <time>2017-07-07T07:53:18Z</time>
      </trkpt>
      <trkpt lat="46.127157686278224" lon="11.897276965901256">
        <ele>1876.6300000000001</ele>
        <time>2017-07-07T07:53:27Z</time>
      </trkpt>
      <trkpt lat="46.127136312425137" lon="11.897322060540318">
        <ele>1875.1900000000001</ele>
        <time>2017-07-07T07:53:36Z</time>
      </trkpt>
      <trkpt lat="46.127137402072549" lon="11.89732750877738">
        <ele>1874.23</ele>
        <time>2017-07-07T07:53:42Z</time>
      </trkpt>
      <trkpt lat="46.127074034884572" lon="11.897330274805427">
        <ele>1874.23</ele>
        <time>2017-07-07T07:53:49Z</time>
      </trkpt>
      <trkpt lat="46.126995664089918" lon="11.897386852651834">
        <ele>1874.71</ele>
        <time>2017-07-07T07:54:01Z</time>
      </trkpt>
      <trkpt lat="46.12699817866087" lon="11.897402191534638">
        <ele>1874.71</ele>
        <time>2017-07-07T07:54:18Z</time>
      </trkpt>
      <trkpt lat="46.126998513936996" lon="11.897452734410763">
        <ele>1874.23</ele>
        <time>2017-07-07T07:54:40Z</time>
      </trkpt>
      <trkpt lat="46.126945959404111" lon="11.89744183793664">
        <ele>1874.23</ele>
        <time>2017-07-07T07:54:53Z</time>
      </trkpt>
      <trkpt lat="46.126901702955365" lon="11.897361539304256">
        <ele>1875.6700000000001</ele>
        <time>2017-07-07T07:55:05Z</time>
      </trkpt>
      <trkpt lat="46.126847388222814" lon="11.897330358624458">
        <ele>1877.5899999999999</ele>
        <time>2017-07-07T07:55:18Z</time>
      </trkpt>
      <trkpt lat="46.126808915287256" lon="11.897300602868199">
        <ele>1879.51</ele>
        <time>2017-07-07T07:55:33Z</time>
      </trkpt>
      <trkpt lat="46.126790307462215" lon="11.897286018356681">
        <ele>1882.4000000000001</ele>
        <time>2017-07-07T07:55:43Z</time>
      </trkpt>
      <trkpt lat="46.126789133995771" lon="11.897284844890237">
        <ele>1883.8399999999999</ele>
        <time>2017-07-07T07:55:50Z</time>
      </trkpt>
      <trkpt lat="46.12679542042315" lon="11.897282917052507">
        <ele>1884.3199999999999</ele>
        <time>2017-07-07T07:55:59Z</time>
      </trkpt>
      <trkpt lat="46.126799024641514" lon="11.897292053326964">
        <ele>1885.28</ele>
        <time>2017-07-07T07:56:08Z</time>
      </trkpt>
      <trkpt lat="46.126797934994102" lon="11.897266572341323">
        <ele>1884.8</ele>
        <time>2017-07-07T07:56:18Z</time>
      </trkpt>
      <trkpt lat="46.12679885700345" lon="11.897267661988735">
        <ele>1884.8</ele>
        <time>2017-07-07T07:56:31Z</time>
      </trkpt>
      <trkpt lat="46.126828445121646" lon="11.897265482693911">
        <ele>1884.8</ele>
        <time>2017-07-07T07:56:51Z</time>
      </trkpt>
      <trkpt lat="46.126834647729993" lon="11.897253328934312">
        <ele>1883.8399999999999</ele>
        <time>2017-07-07T07:57:02Z</time>
      </trkpt>
      <trkpt lat="46.126843951642513" lon="11.897257352247834">
        <ele>1883.8399999999999</ele>
        <time>2017-07-07T07:57:18Z</time>
      </trkpt>
      <trkpt lat="46.126811932772398" lon="11.897277804091573">
        <ele>1883.8399999999999</ele>
        <time>2017-07-07T07:57:34Z</time>
      </trkpt>
      <trkpt lat="46.126832887530327" lon="11.897278390824795">
        <ele>1883.8399999999999</ele>
        <time>2017-07-07T07:57:50Z</time>
      </trkpt>
      <trkpt lat="46.126846466213465" lon="11.897254167124629">
        <ele>1883.8399999999999</ele>
        <time>2017-07-07T07:58:04Z</time>
      </trkpt>
      <trkpt lat="46.126839090138674" lon="11.897247126325965">
        <ele>1883.8399999999999</ele>
        <time>2017-07-07T07:58:20Z</time>
      </trkpt>
      <trkpt lat="46.126800701022148" lon="11.897301357239485">
        <ele>1884.8</ele>
        <time>2017-07-07T07:58:38Z</time>
      </trkpt>
      <trkpt lat="46.126789301633835" lon="11.897298004478216">
        <ele>1886.24</ele>
        <time>2017-07-07T07:58:47Z</time>
      </trkpt>
      <trkpt lat="46.126763569191098" lon="11.897325245663524">
        <ele>1886.24</ele>
        <time>2017-07-07T07:59:00Z</time>
      </trkpt>
      <trkpt lat="46.126719061285257" lon="11.89739590510726">
        <ele>1887.21</ele>
        <time>2017-07-07T07:59:10Z</time>
      </trkpt>
      <trkpt lat="46.126713864505291" lon="11.897418033331633">
        <ele>1887.6900000000001</ele>
        <time>2017-07-07T07:59:23Z</time>
      </trkpt>
      <trkpt lat="46.126711601391435" lon="11.89745357260108">
        <ele>1887.6900000000001</ele>
        <time>2017-07-07T07:59:44Z</time>
      </trkpt>
      <trkpt lat="46.126713277772069" lon="11.897453237324953">
        <ele>1887.21</ele>
        <time>2017-07-07T08:00:01Z</time>
      </trkpt>
      <trkpt lat="46.126717803999782" lon="11.897438066080213">
        <ele>1887.6900000000001</ele>
        <time>2017-07-07T08:00:15Z</time>
      </trkpt>
      <trkpt lat="46.126682432368398" lon="11.89748726785183">
        <ele>1888.1700000000001</ele>
        <time>2017-07-07T08:00:30Z</time>
      </trkpt>
      <trkpt lat="46.126645468175411" lon="11.897505037486553">
        <ele>1888.1700000000001</ele>
        <time>2017-07-07T08:00:41Z</time>
      </trkpt>
      <trkpt lat="46.126602217555046" lon="11.897498499602079">
        <ele>1889.1300000000001</ele>
        <time>2017-07-07T08:00:52Z</time>
      </trkpt>
      <trkpt lat="46.126567265018821" lon="11.897515682503581">
        <ele>1890.0899999999999</ele>
        <time>2017-07-07T08:01:02Z</time>
      </trkpt>
      <trkpt lat="46.126514123752713" lon="11.897507132962346">
        <ele>1891.05</ele>
        <time>2017-07-07T08:01:13Z</time>
      </trkpt>
      <trkpt lat="46.126497946679592" lon="11.89748584292829">
        <ele>1892.97</ele>
        <time>2017-07-07T08:01:18Z</time>
      </trkpt>
      <trkpt lat="46.126478919759393" lon="11.897504199296236">
        <ele>1893.45</ele>
        <time>2017-07-07T08:01:29Z</time>
      </trkpt>
      <trkpt lat="46.126493755728006" lon="11.897411076352">
        <ele>1895.3800000000001</ele>
        <time>2017-07-07T08:01:39Z</time>
      </trkpt>
      <trkpt lat="46.126522086560726" lon="11.897363383322954">
        <ele>1896.8199999999999</ele>
        <time>2017-07-07T08:01:51Z</time>
      </trkpt>
      <trkpt lat="46.126507166773081" lon="11.897360784932971">
        <ele>1898.74</ele>
        <time>2017-07-07T08:02:02Z</time>
      </trkpt>
      <trkpt lat="46.126462575048208" lon="11.897398419678211">
        <ele>1900.6600000000001</ele>
        <time>2017-07-07T08:02:13Z</time>
      </trkpt>
      <trkpt lat="46.126431142911315" lon="11.89742473885417">
        <ele>1902.5899999999999</ele>
        <time>2017-07-07T08:02:24Z</time>
      </trkpt>
      <trkpt lat="46.126387808471918" lon="11.897448040544987">
        <ele>1904.03</ele>
        <time>2017-07-07T08:02:35Z</time>
      </trkpt>
      <trkpt lat="46.126359645277262" lon="11.89745164476335">
        <ele>1904.51</ele>
        <time>2017-07-07T08:02:42Z</time>
      </trkpt>
      <trkpt lat="46.126279346644878" lon="11.897446615621448">
        <ele>1904.51</ele>
        <time>2017-07-07T08:02:51Z</time>
      </trkpt>
      <trkpt lat="46.126234252005816" lon="11.897429181262851">
        <ele>1904.99</ele>
        <time>2017-07-07T08:03:04Z</time>
      </trkpt>
      <trkpt lat="46.126158814877272" lon="11.897398419678211">
        <ele>1904.99</ele>
        <time>2017-07-07T08:03:14Z</time>
      </trkpt>
      <trkpt lat="46.126152025535703" lon="11.897404873743653">
        <ele>1904.99</ele>
        <time>2017-07-07T08:03:15Z</time>
      </trkpt>
      <trkpt lat="46.126125957816839" lon="11.897412082180381">
        <ele>1904.99</ele>
        <time>2017-07-07T08:03:18Z</time>
      </trkpt>
      <trkpt lat="46.126070888713002" lon="11.897434294223785">
        <ele>1905.47</ele>
        <time>2017-07-07T08:03:27Z</time>
      </trkpt>
      <trkpt lat="46.126066613942385" lon="11.89744284376502">
        <ele>1905.95</ele>
        <time>2017-07-07T08:03:28Z</time>
      </trkpt>
      <trkpt lat="46.125990506261587" lon="11.897511910647154">
        <ele>1905.95</ele>
        <time>2017-07-07T08:03:38Z</time>
      </trkpt>
      <trkpt lat="46.125904927030206" lon="11.897584246471524">
        <ele>1906.4300000000001</ele>
        <time>2017-07-07T08:03:49Z</time>
      </trkpt>
      <trkpt lat="46.125887241214514" lon="11.89758600667119">
        <ele>1906.9100000000001</ele>
        <time>2017-07-07T08:03:51Z</time>
      </trkpt>
      <trkpt lat="46.125825215131044" lon="11.897582402452826">
        <ele>1907.8699999999999</ele>
        <time>2017-07-07T08:04:00Z</time>
      </trkpt>
      <trkpt lat="46.12575707025826" lon="11.897630849853158">
        <ele>1908.3499999999999</ele>
        <time>2017-07-07T08:04:12Z</time>
      </trkpt>
      <trkpt lat="46.125694373622537" lon="11.89767393283546">
        <ele>1909.3199999999999</ele>
        <time>2017-07-07T08:04:23Z</time>
      </trkpt>
      <trkpt lat="46.125696385279298" lon="11.89757720567286">
        <ele>1910.76</ele>
        <time>2017-07-07T08:04:32Z</time>
      </trkpt>
      <trkpt lat="46.125712897628546" lon="11.897518867626786">
        <ele>1911.72</ele>
        <time>2017-07-07T08:04:45Z</time>
      </trkpt>
      <trkpt lat="46.125704767182469" lon="11.897494811564684">
        <ele>1913.1600000000001</ele>
        <time>2017-07-07T08:04:57Z</time>
      </trkpt>
      <trkpt lat="46.125645590946078" lon="11.897519705817103">
        <ele>1915.5599999999999</ele>
        <time>2017-07-07T08:05:10Z</time>
      </trkpt>
      <trkpt lat="46.125627737492323" lon="11.897512413561344">
        <ele>1917.01</ele>
        <time>2017-07-07T08:05:20Z</time>
      </trkpt>
      <trkpt lat="46.125668892636895" lon="11.897446280345321">
        <ele>1918.9300000000001</ele>
        <time>2017-07-07T08:05:32Z</time>
      </trkpt>
      <trkpt lat="46.125628827139735" lon="11.897443262860179">
        <ele>1920.3699999999999</ele>
        <time>2017-07-07T08:05:44Z</time>
      </trkpt>
      <trkpt lat="46.125566298142076" lon="11.897460529580712">
        <ele>1921.8099999999999</ele>
        <time>2017-07-07T08:05:56Z</time>
      </trkpt>
      <trkpt lat="46.125519275665283" lon="11.897462792694569">
        <ele>1923.25</ele>
        <time>2017-07-07T08:06:08Z</time>
      </trkpt>
      <trkpt lat="46.125491699203849" lon="11.897483244538307">
        <ele>1923.74</ele>
        <time>2017-07-07T08:06:23Z</time>
      </trkpt>
      <trkpt lat="46.125505026429892" lon="11.897396659478545">
        <ele>1924.7</ele>
        <time>2017-07-07T08:06:33Z</time>
      </trkpt>
      <trkpt lat="46.125539895147085" lon="11.897337902337313">
        <ele>1926.6199999999999</ele>
        <time>2017-07-07T08:06:45Z</time>
      </trkpt>
      <trkpt lat="46.125582978129387" lon="11.897328346967697">
        <ele>1927.5799999999999</ele>
        <time>2017-07-07T08:06:55Z</time>
      </trkpt>
      <trkpt lat="46.125599909573793" lon="11.897317282855511">
        <ele>1928.0599999999999</ele>
        <time>2017-07-07T08:07:06Z</time>
      </trkpt>
      <trkpt lat="46.125559927895665" lon="11.897333040833473">
        <ele>1929.5</ele>
        <time>2017-07-07T08:07:15Z</time>
      </trkpt>
      <trkpt lat="46.125501673668623" lon="11.897353157401085">
        <ele>1930.95</ele>
        <time>2017-07-07T08:07:27Z</time>
      </trkpt>
      <trkpt lat="46.125427158549428" lon="11.897391714155674">
        <ele>1931.9100000000001</ele>
        <time>2017-07-07T08:07:39Z</time>
      </trkpt>
      <trkpt lat="46.125393882393837" lon="11.897363215684891">
        <ele>1933.8299999999999</ele>
        <time>2017-07-07T08:07:51Z</time>
      </trkpt>
      <trkpt lat="46.125442329794168" lon="11.897271936759353">
        <ele>1934.79</ele>
        <time>2017-07-07T08:08:04Z</time>
      </trkpt>
      <trkpt lat="46.12535834312439" lon="11.897289035841823">
        <ele>1937.6700000000001</ele>
        <time>2017-07-07T08:08:19Z</time>
      </trkpt>
      <trkpt lat="46.125365719199181" lon="11.897297501564026">
        <ele>1938.1600000000001</ele>
        <time>2017-07-07T08:08:30Z</time>
      </trkpt>
      <trkpt lat="46.125325653702021" lon="11.897308314219117">
        <ele>1939.1199999999999</ele>
        <time>2017-07-07T08:08:40Z</time>
      </trkpt>
      <trkpt lat="46.125343423336744" lon="11.897246707230806">
        <ele>1940.5599999999999</ele>
        <time>2017-07-07T08:08:49Z</time>
      </trkpt>
      <trkpt lat="46.125355577096343" lon="11.897189039736986">
        <ele>1941.52</ele>
        <time>2017-07-07T08:08:58Z</time>
      </trkpt>
      <trkpt lat="46.125341495499015" lon="11.897194320335984">
        <ele>1942.96</ele>
        <time>2017-07-07T08:09:07Z</time>
      </trkpt>
      <trkpt lat="46.125310901552439" lon="11.89723907969892">
        <ele>1944.4000000000001</ele>
        <time>2017-07-07T08:09:17Z</time>
      </trkpt>
      <trkpt lat="46.125297825783491" lon="11.897170348092914">
        <ele>1945.8499999999999</ele>
        <time>2017-07-07T08:09:29Z</time>
      </trkpt>
      <trkpt lat="46.125326743349433" lon="11.897116117179394">
        <ele>1947.77</ele>
        <time>2017-07-07T08:09:40Z</time>
      </trkpt>
      <trkpt lat="46.125282235443592" lon="11.897134892642498">
        <ele>1949.21</ele>
        <time>2017-07-07T08:09:57Z</time>
      </trkpt>
      <trkpt lat="46.125253569334745" lon="11.897142603993416">
        <ele>1950.1700000000001</ele>
        <time>2017-07-07T08:10:05Z</time>
      </trkpt>
      <trkpt lat="46.125189615413547" lon="11.89717898145318">
        <ele>1951.1300000000001</ele>
        <time>2017-07-07T08:10:16Z</time>
      </trkpt>
      <trkpt lat="46.125138150528073" lon="11.897185686975718">
        <ele>1953.0599999999999</ele>
        <time>2017-07-07T08:10:31Z</time>
      </trkpt>
      <trkpt lat="46.125126918777823" lon="11.897189039736986">
        <ele>1953.54</ele>
        <time>2017-07-07T08:10:41Z</time>
      </trkpt>
      <trkpt lat="46.125111663714051" lon="11.897204462438822">
        <ele>1954.5</ele>
        <time>2017-07-07T08:10:51Z</time>
      </trkpt>
      <trkpt lat="46.125102108344436" lon="11.897156769409776">
        <ele>1956.9000000000001</ele>
        <time>2017-07-07T08:11:01Z</time>
      </trkpt>
      <trkpt lat="46.125087775290012" lon="11.89717261120677">
        <ele>1957.8599999999999</ele>
        <time>2017-07-07T08:11:11Z</time>
      </trkpt>
      <trkpt lat="46.125079980120063" lon="11.897141095250845">
        <ele>1959.78</ele>
        <time>2017-07-07T08:11:21Z</time>
      </trkpt>
      <trkpt lat="46.125061456114054" lon="11.897152075544">
        <ele>1960.27</ele>
        <time>2017-07-07T08:11:29Z</time>
      </trkpt>
      <trkpt lat="46.125025162473321" lon="11.897156182676554">
        <ele>1962.1900000000001</ele>
        <time>2017-07-07T08:11:40Z</time>
      </trkpt>
      <trkpt lat="46.12500261515379" lon="11.897126510739326">
        <ele>1963.6300000000001</ele>
        <time>2017-07-07T08:11:51Z</time>
      </trkpt>
      <trkpt lat="46.125011751428246" lon="11.897120224311948">
        <ele>1963.6300000000001</ele>
        <time>2017-07-07T08:12:01Z</time>
      </trkpt>
      <trkpt lat="46.125025833025575" lon="11.897085942327976">
        <ele>1964.1099999999999</ele>
        <time>2017-07-07T08:12:11Z</time>
      </trkpt>
      <trkpt lat="46.125016780570149" lon="11.897057024762034">
        <ele>1965.55</ele>
        <time>2017-07-07T08:12:21Z</time>
      </trkpt>
      <trkpt lat="46.124986605718732" lon="11.897070100530982">
        <ele>1966.99</ele>
        <time>2017-07-07T08:12:31Z</time>
      </trkpt>
      <trkpt lat="46.124973194673657" lon="11.897078733891249">
        <ele>1967.96</ele>
        <time>2017-07-07T08:12:44Z</time>
      </trkpt>
      <trkpt lat="46.124944947659969" lon="11.897070519626141">
        <ele>1968.9200000000001</ele>
        <time>2017-07-07T08:12:58Z</time>
      </trkpt>
      <trkpt lat="46.124915443360806" lon="11.897096084430814">
        <ele>1970.3599999999999</ele>
        <time>2017-07-07T08:13:08Z</time>
      </trkpt>
      <trkpt lat="46.124911336228251" lon="11.897088959813118">
        <ele>1970.8399999999999</ele>
        <time>2017-07-07T08:13:09Z</time>
      </trkpt>
      <trkpt lat="46.124882502481341" lon="11.897056018933654">
        <ele>1971.8</ele>
        <time>2017-07-07T08:13:19Z</time>
      </trkpt>
      <trkpt lat="46.124846963211894" lon="11.897090887650847">
        <ele>1972.76</ele>
        <time>2017-07-07T08:13:29Z</time>
      </trkpt>
      <trkpt lat="46.124835396185517" lon="11.897042691707611">
        <ele>1972.76</ele>
        <time>2017-07-07T08:13:38Z</time>
      </trkpt>
      <trkpt lat="46.124827852472663" lon="11.897058198228478">
        <ele>1972.76</ele>
        <time>2017-07-07T08:14:00Z</time>
      </trkpt>
      <trkpt lat="46.124855177477002" lon="11.897011259570718">
        <ele>1973.72</ele>
        <time>2017-07-07T08:14:10Z</time>
      </trkpt>
      <trkpt lat="46.124825421720743" lon="11.897019054740667">
        <ele>1976.1300000000001</ele>
        <time>2017-07-07T08:14:21Z</time>
      </trkpt>
      <trkpt lat="46.124816369265318" lon="11.896999944001436">
        <ele>1977.0899999999999</ele>
        <time>2017-07-07T08:14:24Z</time>
      </trkpt>
      <trkpt lat="46.124792313203216" lon="11.896960297599435">
        <ele>1978.53</ele>
        <time>2017-07-07T08:14:34Z</time>
      </trkpt>
      <trkpt lat="46.124779488891363" lon="11.8969483114779">
        <ele>1979.97</ele>
        <time>2017-07-07T08:14:44Z</time>
      </trkpt>
      <trkpt lat="46.12475048750639" lon="11.896943114697933">
        <ele>1981.4100000000001</ele>
        <time>2017-07-07T08:14:56Z</time>
      </trkpt>
      <trkpt lat="46.124716456979513" lon="11.896947473287582">
        <ele>1982.3800000000001</ele>
        <time>2017-07-07T08:15:07Z</time>
      </trkpt>
      <trkpt lat="46.124728778377175" lon="11.896893493831158">
        <ele>1984.3</ele>
        <time>2017-07-07T08:15:18Z</time>
      </trkpt>
      <trkpt lat="46.124700112268329" lon="11.896896008402109">
        <ele>1985.74</ele>
        <time>2017-07-07T08:15:31Z</time>
      </trkpt>
      <trkpt lat="46.124681923538446" lon="11.896894248202443">
        <ele>1986.7</ele>
        <time>2017-07-07T08:15:42Z</time>
      </trkpt>
      <trkpt lat="46.124652335420251" lon="11.896878406405449">
        <ele>1988.6199999999999</ele>
        <time>2017-07-07T08:15:53Z</time>
      </trkpt>
      <trkpt lat="46.124617718160152" lon="11.896881675347686">
        <ele>1989.5899999999999</ele>
        <time>2017-07-07T08:16:04Z</time>
      </trkpt>
      <trkpt lat="46.124600786715746" lon="11.896895589306951">
        <ele>1991.03</ele>
        <time>2017-07-07T08:16:15Z</time>
      </trkpt>
      <trkpt lat="46.124590309336782" lon="11.8969033844769">
        <ele>1991.99</ele>
        <time>2017-07-07T08:16:25Z</time>
      </trkpt>
      <trkpt lat="46.124583687633276" lon="11.896872706711292">
        <ele>1992.47</ele>
        <time>2017-07-07T08:16:42Z</time>
      </trkpt>
      <trkpt lat="46.124554015696049" lon="11.896870024502277">
        <ele>1993.4300000000001</ele>
        <time>2017-07-07T08:16:57Z</time>
      </trkpt>
      <trkpt lat="46.124546555802226" lon="11.896830042824149">
        <ele>1994.3900000000001</ele>
        <time>2017-07-07T08:17:08Z</time>
      </trkpt>
      <trkpt lat="46.124569103121758" lon="11.896817134693265">
        <ele>1994.8699999999999</ele>
        <time>2017-07-07T08:17:17Z</time>
      </trkpt>
      <trkpt lat="46.124574299901724" lon="11.896812105551362">
        <ele>1994.8699999999999</ele>
        <time>2017-07-07T08:17:32Z</time>
      </trkpt>
      <trkpt lat="46.1245755571872" lon="11.896782433614135">
        <ele>1995.3499999999999</ele>
        <time>2017-07-07T08:17:49Z</time>
      </trkpt>
      <trkpt lat="46.124539766460657" lon="11.896767010912299">
        <ele>1998.24</ele>
        <time>2017-07-07T08:18:02Z</time>
      </trkpt>
      <trkpt lat="46.12450665794313" lon="11.896760556846857">
        <ele>2000.6400000000001</ele>
        <time>2017-07-07T08:18:13Z</time>
      </trkpt>
      <trkpt lat="46.124492660164833" lon="11.896741949021816">
        <ele>2002.0799999999999</ele>
        <time>2017-07-07T08:18:23Z</time>
      </trkpt>
      <trkpt lat="46.124493079259992" lon="11.896750750020146">
        <ele>2002.0799999999999</ele>
        <time>2017-07-07T08:18:28Z</time>
      </trkpt>
      <trkpt lat="46.124514117836952" lon="11.896783439442515">
        <ele>2001.5999999999999</ele>
        <time>2017-07-07T08:18:35Z</time>
      </trkpt>
      <trkpt lat="46.124523421749473" lon="11.896781260147691">
        <ele>2001.1199999999999</ele>
        <time>2017-07-07T08:18:53Z</time>
      </trkpt>
      <trkpt lat="46.124523757025599" lon="11.896773464977741">
        <ele>2001.5999999999999</ele>
        <time>2017-07-07T08:19:18Z</time>
      </trkpt>
      <trkpt lat="46.12451889552176" lon="11.896749660372734">
        <ele>2001.5999999999999</ele>
        <time>2017-07-07T08:19:46Z</time>
      </trkpt>
      <trkpt lat="46.124515207484365" lon="11.896731639280915">
        <ele>2001.5999999999999</ele>
        <time>2017-07-07T08:20:09Z</time>
      </trkpt>
      <trkpt lat="46.124513866379857" lon="11.896711187437177">
        <ele>2001.5999999999999</ele>
        <time>2017-07-07T08:20:31Z</time>
      </trkpt>
      <trkpt lat="46.12451302818954" lon="11.896726274862885">
        <ele>2002.0799999999999</ele>
        <time>2017-07-07T08:20:54Z</time>
      </trkpt>
      <trkpt lat="46.124500120058656" lon="11.896757204085588">
        <ele>2002.0799999999999</ele>
        <time>2017-07-07T08:21:12Z</time>
      </trkpt>
      <trkpt lat="46.12449006177485" lon="11.896758126094937">
        <ele>2002.5599999999999</ele>
        <time>2017-07-07T08:21:26Z</time>
      </trkpt>
      <trkpt lat="46.124469358474016" lon="11.896740524098277">
        <ele>2003.52</ele>
        <time>2017-07-07T08:21:37Z</time>
      </trkpt>
      <trkpt lat="46.124452007934451" lon="11.896721832454205">
        <ele>2004.49</ele>
        <time>2017-07-07T08:21:50Z</time>
      </trkpt>
      <trkpt lat="46.124440357089043" lon="11.896706242114305">
        <ele>2005.9300000000001</ele>
        <time>2017-07-07T08:22:02Z</time>
      </trkpt>
      <trkpt lat="46.124430717900395" lon="11.896713702008128">
        <ele>2005.9300000000001</ele>
        <time>2017-07-07T08:22:17Z</time>
      </trkpt>
      <trkpt lat="46.124434908851981" lon="11.896678833290935">
        <ele>2007.3699999999999</ele>
        <time>2017-07-07T08:22:30Z</time>
      </trkpt>
      <trkpt lat="46.1244494933635" lon="11.896656872704625">
        <ele>2008.3299999999999</ele>
        <time>2017-07-07T08:22:44Z</time>
      </trkpt>
      <trkpt lat="46.124425772577524" lon="11.896652849391103">
        <ele>2010.25</ele>
        <time>2017-07-07T08:22:54Z</time>
      </trkpt>
      <trkpt lat="46.124435579404235" lon="11.896677743643522">
        <ele>2010.25</ele>
        <time>2017-07-07T08:23:06Z</time>
      </trkpt>
      <trkpt lat="46.124446392059326" lon="11.896659135818481">
        <ele>2010.25</ele>
        <time>2017-07-07T08:23:24Z</time>
      </trkpt>
      <trkpt lat="46.124456534162164" lon="11.896652346476912">
        <ele>2010.25</ele>
        <time>2017-07-07T08:23:36Z</time>
      </trkpt>
      <trkpt lat="46.124449577182531" lon="11.896658213809133">
        <ele>2010.73</ele>
        <time>2017-07-07T08:23:56Z</time>
      </trkpt>
      <trkpt lat="46.124445805326104" lon="11.896658465266228">
        <ele>2011.22</ele>
        <time>2017-07-07T08:23:57Z</time>
      </trkpt>
      <trkpt lat="46.124440524727106" lon="11.896630302071571">
        <ele>2011.7</ele>
        <time>2017-07-07T08:24:07Z</time>
      </trkpt>
      <trkpt lat="46.12440406344831" lon="11.896641533821821">
        <ele>2012.1800000000001</ele>
        <time>2017-07-07T08:24:23Z</time>
      </trkpt>
      <trkpt lat="46.124336924403906" lon="11.896626194939017">
        <ele>2014.5799999999999</ele>
        <time>2017-07-07T08:24:34Z</time>
      </trkpt>
      <trkpt lat="46.124309347942472" lon="11.896614041179419">
        <ele>2016.02</ele>
        <time>2017-07-07T08:24:46Z</time>
      </trkpt>
      <trkpt lat="46.124307084828615" lon="11.89658772200346">
        <ele>2017.46</ele>
        <time>2017-07-07T08:24:59Z</time>
      </trkpt>
      <trkpt lat="46.124306079000235" lon="11.896595098078251">
        <ele>2017.9400000000001</ele>
        <time>2017-07-07T08:25:07Z</time>
      </trkpt>
      <trkpt lat="46.124362405389547" lon="11.896568275988102">
        <ele>2016.98</ele>
        <time>2017-07-07T08:25:18Z</time>
      </trkpt>
      <trkpt lat="46.124377408996224" lon="11.896540028974414">
        <ele>2017.9400000000001</ele>
        <time>2017-07-07T08:25:26Z</time>
      </trkpt>
      <trkpt lat="46.124368775635958" lon="11.89652125351131">
        <ele>2018.9100000000001</ele>
        <time>2017-07-07T08:25:35Z</time>
      </trkpt>
      <trkpt lat="46.12436450086534" lon="11.896520415320992">
        <ele>2018.9100000000001</ele>
        <time>2017-07-07T08:25:45Z</time>
      </trkpt>
      <trkpt lat="46.124347485601902" lon="11.896495437249541">
        <ele>2020.3499999999999</ele>
        <time>2017-07-07T08:25:58Z</time>
      </trkpt>
      <trkpt lat="46.12432929687202" lon="11.896465597674251">
        <ele>2021.79</ele>
        <time>2017-07-07T08:26:09Z</time>
      </trkpt>
      <trkpt lat="46.124327620491385" lon="11.89645042642951">
        <ele>2023.23</ele>
        <time>2017-07-07T08:26:20Z</time>
      </trkpt>
      <trkpt lat="46.124334577471018" lon="11.896418323740363">
        <ele>2023.23</ele>
        <time>2017-07-07T08:26:34Z</time>
      </trkpt>
      <trkpt lat="46.124333906918764" lon="11.896439446136355">
        <ele>2023.23</ele>
        <time>2017-07-07T08:26:50Z</time>
      </trkpt>
      <trkpt lat="46.124316472560167" lon="11.896446403115988">
        <ele>2023.23</ele>
        <time>2017-07-07T08:27:05Z</time>
      </trkpt>
      <trkpt lat="46.124296355992556" lon="11.896402398124337">
        <ele>2025.1500000000001</ele>
        <time>2017-07-07T08:27:22Z</time>
      </trkpt>
      <trkpt lat="46.124276490882039" lon="11.896368451416492">
        <ele>2026.1199999999999</ele>
        <time>2017-07-07T08:27:33Z</time>
      </trkpt>
      <trkpt lat="46.124266348779202" lon="11.896342299878597">
        <ele>2027.0799999999999</ele>
        <time>2017-07-07T08:27:46Z</time>
      </trkpt>
      <trkpt lat="46.124276239424944" lon="11.896379264071584">
        <ele>2028.52</ele>
        <time>2017-07-07T08:27:56Z</time>
      </trkpt>
      <trkpt lat="46.124293925240636" lon="11.896347664296627">
        <ele>2028.52</ele>
        <time>2017-07-07T08:28:07Z</time>
      </trkpt>
      <trkpt lat="46.124232737347484" lon="11.896355878561735">
        <ele>2029.96</ele>
        <time>2017-07-07T08:28:19Z</time>
      </trkpt>
      <trkpt lat="46.124202227219939" lon="11.896313382312655">
        <ele>2031.8800000000001</ele>
        <time>2017-07-07T08:28:30Z</time>
      </trkpt>
      <trkpt lat="46.124177165329456" lon="11.896307431161404">
        <ele>2033.3299999999999</ele>
        <time>2017-07-07T08:28:39Z</time>
      </trkpt>
      <trkpt lat="46.124182026833296" lon="11.896360237151384">
        <ele>2034.77</ele>
        <time>2017-07-07T08:28:49Z</time>
      </trkpt>
      <trkpt lat="46.124169453978539" lon="11.896409941837192">
        <ele>2036.21</ele>
        <time>2017-07-07T08:29:00Z</time>
      </trkpt>
      <trkpt lat="46.124173728749156" lon="11.896428046748042">
        <ele>2037.1700000000001</ele>
        <time>2017-07-07T08:29:11Z</time>
      </trkpt>
      <trkpt lat="46.124170375987887" lon="11.896442379802465">
        <ele>2037.1700000000001</ele>
        <time>2017-07-07T08:29:25Z</time>
      </trkpt>
      <trkpt lat="46.12416610121727" lon="11.896466435864568">
        <ele>2037.6500000000001</ele>
        <time>2017-07-07T08:29:40Z</time>
      </trkpt>
      <trkpt lat="46.124154618009925" lon="11.896508177742362">
        <ele>2038.6099999999999</ele>
        <time>2017-07-07T08:29:50Z</time>
      </trkpt>
      <trkpt lat="46.124107176437974" lon="11.896522007882595">
        <ele>2041.02</ele>
        <time>2017-07-07T08:30:00Z</time>
      </trkpt>
      <trkpt lat="46.124038612470031" lon="11.896507004275918">
        <ele>2041.98</ele>
        <time>2017-07-07T08:30:12Z</time>
      </trkpt>
      <trkpt lat="46.123991757631302" lon="11.896491497755051">
        <ele>2043.9000000000001</ele>
        <time>2017-07-07T08:30:25Z</time>
      </trkpt>
      <trkpt lat="46.12394230440259" lon="11.896431734785438">
        <ele>2045.8199999999999</ele>
        <time>2017-07-07T08:30:38Z</time>
      </trkpt>
      <trkpt lat="46.123918164521456" lon="11.896374318748713">
        <ele>2047.75</ele>
        <time>2017-07-07T08:30:52Z</time>
      </trkpt>
      <trkpt lat="46.12389100715518" lon="11.896325871348381">
        <ele>2048.71</ele>
        <time>2017-07-07T08:31:05Z</time>
      </trkpt>
      <trkpt lat="46.123848343268037" lon="11.896300977095962">
        <ele>2049.6700000000001</ele>
        <time>2017-07-07T08:31:23Z</time>
      </trkpt>
      <trkpt lat="46.12381431274116" lon="11.896332493051887">
        <ele>2050.1500000000001</ele>
        <time>2017-07-07T08:31:31Z</time>
      </trkpt>
      <trkpt lat="46.123789837583899" lon="11.896316735073924">
        <ele>2050.6300000000001</ele>
        <time>2017-07-07T08:31:34Z</time>
      </trkpt>
      <trkpt lat="46.123747592791915" lon="11.896248506382108">
        <ele>2050.6300000000001</ele>
        <time>2017-07-07T08:31:46Z</time>
      </trkpt>
      <trkpt lat="46.123729152604938" lon="11.89618312753737">
        <ele>2051.5900000000001</ele>
        <time>2017-07-07T08:31:57Z</time>
      </trkpt>
      <trkpt lat="46.123702917248011" lon="11.896170554682612">
        <ele>2050.1500000000001</ele>
        <time>2017-07-07T08:32:06Z</time>
      </trkpt>
      <trkpt lat="46.12371121533215" lon="11.896189413964748">
        <ele>2050.1500000000001</ele>
        <time>2017-07-07T08:32:20Z</time>
      </trkpt>
      <trkpt lat="46.123710628598928" lon="11.89621489495039">
        <ele>2048.71</ele>
        <time>2017-07-07T08:32:32Z</time>
      </trkpt>
      <trkpt lat="46.123641729354858" lon="11.896196287125349">
        <ele>2048.23</ele>
        <time>2017-07-07T08:32:45Z</time>
      </trkpt>
      <trkpt lat="46.123643657192588" lon="11.896163513883948">
        <ele>2047.75</ele>
        <time>2017-07-07T08:32:57Z</time>
      </trkpt>
      <trkpt lat="46.123663354665041" lon="11.896142140030861">
        <ele>2047.75</ele>
        <time>2017-07-07T08:33:12Z</time>
      </trkpt>
      <trkpt lat="46.123662013560534" lon="11.896153204143047">
        <ele>2047.75</ele>
        <time>2017-07-07T08:33:26Z</time>
      </trkpt>
      <trkpt lat="46.123678190633655" lon="11.89615236595273">
        <ele>2048.23</ele>
        <time>2017-07-07T08:33:43Z</time>
      </trkpt>
      <trkpt lat="46.123691350221634" lon="11.896154461428523">
        <ele>2047.75</ele>
        <time>2017-07-07T08:33:55Z</time>
      </trkpt>
      <trkpt lat="46.123659750446677" lon="11.896177846938372">
        <ele>2048.71</ele>
        <time>2017-07-07T08:34:05Z</time>
      </trkpt>
      <trkpt lat="46.123646590858698" lon="11.896160077303648">
        <ele>2048.71</ele>
        <time>2017-07-07T08:34:19Z</time>
      </trkpt>
      <trkpt lat="46.123627061024308" lon="11.896194946020842">
        <ele>2049.1900000000001</ele>
        <time>2017-07-07T08:34:33Z</time>
      </trkpt>
      <trkpt lat="46.123598897829652" lon="11.896214224398136">
        <ele>2050.1500000000001</ele>
        <time>2017-07-07T08:34:44Z</time>
      </trkpt>
      <trkpt lat="46.123559670522809" lon="11.896219504997134">
        <ele>2052.0700000000002</ele>
        <time>2017-07-07T08:34:54Z</time>
      </trkpt>
      <trkpt lat="46.123510468751192" lon="11.896237274631858">
        <ele>2053.5100000000002</ele>
        <time>2017-07-07T08:35:05Z</time>
      </trkpt>
      <trkpt lat="46.123465541750193" lon="11.89621833153069">
        <ele>2054.96</ele>
        <time>2017-07-07T08:35:17Z</time>
      </trkpt>
      <trkpt lat="46.123399743810296" lon="11.896203914657235">
        <ele>2057.3600000000001</ele>
        <time>2017-07-07T08:35:31Z</time>
      </trkpt>
      <trkpt lat="46.123329252004623" lon="11.896244566887617">
        <ele>2057.3600000000001</ele>
        <time>2017-07-07T08:35:44Z</time>
      </trkpt>
      <trkpt lat="46.123325983062387" lon="11.896251691505313">
        <ele>2057.3600000000001</ele>
        <time>2017-07-07T08:35:45Z</time>
      </trkpt>
      <trkpt lat="46.12325725145638" lon="11.89627742394805">
        <ele>2058.3200000000002</ele>
        <time>2017-07-07T08:35:56Z</time>
      </trkpt>
      <trkpt lat="46.123255994170904" lon="11.896266611292958">
        <ele>2058.3200000000002</ele>
        <time>2017-07-07T08:36:04Z</time>
      </trkpt>
      <trkpt lat="46.123263034969568" lon="11.896263677626848">
        <ele>2053.9899999999998</ele>
        <time>2017-07-07T08:36:12Z</time>
      </trkpt>
      <trkpt lat="46.123258424922824" lon="11.896264599636197">
        <ele>2059.2800000000002</ele>
        <time>2017-07-07T08:36:13Z</time>
      </trkpt>
      <trkpt lat="46.123270662501454" lon="11.896241717040539">
        <ele>2056.8800000000001</ele>
        <time>2017-07-07T08:36:25Z</time>
      </trkpt>
      <trkpt lat="46.123258424922824" lon="11.89625546336174">
        <ele>2057.3600000000001</ele>
        <time>2017-07-07T08:36:40Z</time>
      </trkpt>
      <trkpt lat="46.123245097696781" lon="11.896285973489285">
        <ele>2057.3600000000001</ele>
        <time>2017-07-07T08:36:58Z</time>
      </trkpt>
      <trkpt lat="46.123267896473408" lon="11.896270802244544">
        <ele>2057.3600000000001</ele>
        <time>2017-07-07T08:37:26Z</time>
      </trkpt>
      <trkpt lat="46.123267812654376" lon="11.896250518038869">
        <ele>2057.3600000000001</ele>
        <time>2017-07-07T08:37:46Z</time>
      </trkpt>
      <trkpt lat="46.123266387730837" lon="11.896280189976096">
        <ele>2057.3600000000001</ele>
        <time>2017-07-07T08:38:09Z</time>
      </trkpt>
      <trkpt lat="46.123258005827665" lon="11.896263929083943">
        <ele>2057.8400000000001</ele>
        <time>2017-07-07T08:38:34Z</time>
      </trkpt>
      <trkpt lat="46.123238727450371" lon="11.896295947954059">
        <ele>2057.8400000000001</ele>
        <time>2017-07-07T08:38:57Z</time>
      </trkpt>
      <trkpt lat="46.123223640024662" lon="11.896285554394126">
        <ele>2057.8400000000001</ele>
        <time>2017-07-07T08:39:06Z</time>
      </trkpt>
      <trkpt lat="46.123239817097783" lon="11.896251775324345">
        <ele>2057.3600000000001</ele>
        <time>2017-07-07T08:39:29Z</time>
      </trkpt>
      <trkpt lat="46.123226741328835" lon="11.896266276016831">
        <ele>2057.8400000000001</ele>
        <time>2017-07-07T08:39:57Z</time>
      </trkpt>
      <trkpt lat="46.123224478214979" lon="11.896259319037199">
        <ele>2057.8400000000001</ele>
        <time>2017-07-07T08:40:23Z</time>
      </trkpt>
      <trkpt lat="46.123202685266733" lon="11.89626912586391">
        <ele>2057.8400000000001</ele>
        <time>2017-07-07T08:40:44Z</time>
      </trkpt>
      <trkpt lat="46.12322062253952" lon="11.89627449028194">
        <ele>2057.8400000000001</ele>
        <time>2017-07-07T08:41:10Z</time>
      </trkpt>
      <trkpt lat="46.123243421316147" lon="11.896272981539369">
        <ele>2058.3200000000002</ele>
        <time>2017-07-07T08:41:38Z</time>
      </trkpt>
      <trkpt lat="46.123213581740856" lon="11.896293936297297">
        <ele>2058.3200000000002</ele>
        <time>2017-07-07T08:41:58Z</time>
      </trkpt>
      <trkpt lat="46.123243253678083" lon="11.896281614899635">
        <ele>2058.3200000000002</ele>
        <time>2017-07-07T08:42:21Z</time>
      </trkpt>
      <trkpt lat="46.123246857896447" lon="11.896258564665914">
        <ele>2058.3200000000002</ele>
        <time>2017-07-07T08:42:45Z</time>
      </trkpt>
      <trkpt lat="46.123233027756214" lon="11.896240459755063">
        <ele>2058.8000000000002</ele>
        <time>2017-07-07T08:43:10Z</time>
      </trkpt>
      <trkpt lat="46.123235374689102" lon="11.896233921870589">
        <ele>2058.8000000000002</ele>
        <time>2017-07-07T08:43:39Z</time>
      </trkpt>
      <trkpt lat="46.12329388037324" lon="11.896119425073266">
        <ele>2033.3299999999999</ele>
        <time>2017-07-07T08:47:36Z</time>
      </trkpt>
      <trkpt lat="46.123267142102122" lon="11.896253535524011">
        <ele>2036.21</ele>
        <time>2017-07-07T08:47:47Z</time>
      </trkpt>
      <trkpt lat="46.123269656673074" lon="11.896255882456899">
        <ele>2039.5699999999999</ele>
        <time>2017-07-07T08:47:52Z</time>
      </trkpt>
      <trkpt lat="46.123272255063057" lon="11.896253786981106">
        <ele>2042.9400000000001</ele>
        <time>2017-07-07T08:47:58Z</time>
      </trkpt>
      <trkpt lat="46.123268818482757" lon="11.896259570494294">
        <ele>2045.8199999999999</ele>
        <time>2017-07-07T08:48:04Z</time>
      </trkpt>
      <trkpt lat="46.123270830139518" lon="11.896248674020171">
        <ele>2049.1900000000001</ele>
        <time>2017-07-07T08:48:13Z</time>
      </trkpt>
      <trkpt lat="46.123269656673074" lon="11.896242722868919">
        <ele>2052.0700000000002</ele>
        <time>2017-07-07T08:48:24Z</time>
      </trkpt>
      <trkpt lat="46.123267561197281" lon="11.896256972104311">
        <ele>2055.4400000000001</ele>
        <time>2017-07-07T08:48:38Z</time>
      </trkpt>
      <trkpt lat="46.123262280598283" lon="11.896219840273261">
        <ele>2058.8000000000002</ele>
        <time>2017-07-07T08:48:53Z</time>
      </trkpt>
      <trkpt lat="46.123256329447031" lon="11.896224282681942">
        <ele>2058.3200000000002</ele>
        <time>2017-07-07T08:48:54Z</time>
      </trkpt>
      <trkpt lat="46.123249791562557" lon="11.896255044266582">
        <ele>2058.8000000000002</ele>
        <time>2017-07-07T08:49:06Z</time>
      </trkpt>
      <trkpt lat="46.123234704136848" lon="11.896279938519001">
        <ele>2060.2399999999998</ele>
        <time>2017-07-07T08:49:26Z</time>
      </trkpt>
      <trkpt lat="46.12324845045805" lon="11.89625839702785">
        <ele>2060.7199999999998</ele>
        <time>2017-07-07T08:49:47Z</time>
      </trkpt>
      <trkpt lat="46.123236631974578" lon="11.896259905770421">
        <ele>2060.2399999999998</ele>
        <time>2017-07-07T08:50:16Z</time>
      </trkpt>
      <trkpt lat="46.123245935887098" lon="11.896276418119669">
        <ele>2060.2399999999998</ele>
        <time>2017-07-07T08:50:41Z</time>
      </trkpt>
      <trkpt lat="46.12324601970613" lon="11.896262587979436">
        <ele>2060.2399999999998</ele>
        <time>2017-07-07T08:51:13Z</time>
      </trkpt>
      <trkpt lat="46.123250545933843" lon="11.896279519423842">
        <ele>2060.2399999999998</ele>
        <time>2017-07-07T08:51:39Z</time>
      </trkpt>
      <trkpt lat="46.123262448236346" lon="11.896238615736365">
        <ele>2060.7199999999998</ele>
        <time>2017-07-07T08:52:02Z</time>
      </trkpt>
      <trkpt lat="46.123261190950871" lon="11.896238280460238">
        <ele>2060.7199999999998</ele>
        <time>2017-07-07T08:52:30Z</time>
      </trkpt>
      <trkpt lat="46.123262699693441" lon="11.896239286288619">
        <ele>2060.2399999999998</ele>
        <time>2017-07-07T08:52:56Z</time>
      </trkpt>
      <trkpt lat="46.123274099081755" lon="11.89623543061316">
        <ele>2060.2399999999998</ele>
        <time>2017-07-07T08:53:20Z</time>
      </trkpt>
      <trkpt lat="46.123263202607632" lon="11.896239789202809">
        <ele>2060.2399999999998</ele>
        <time>2017-07-07T08:53:49Z</time>
      </trkpt>
      <trkpt lat="46.123278122395277" lon="11.896231574937701">
        <ele>2060.2399999999998</ele>
        <time>2017-07-07T08:54:13Z</time>
      </trkpt>
      <trkpt lat="46.123289354145527" lon="11.896225539967418">
        <ele>2060.2399999999998</ele>
        <time>2017-07-07T08:54:42Z</time>
      </trkpt>
      <trkpt lat="46.123267393559217" lon="11.896229730919003">
        <ele>2060.2399999999998</ele>
        <time>2017-07-07T08:55:19Z</time>
      </trkpt>
      <trkpt lat="46.123274937272072" lon="11.89622906036675">
        <ele>2060.2399999999998</ele>
        <time>2017-07-07T08:55:49Z</time>
      </trkpt>
      <trkpt lat="46.123259766027331" lon="11.896235179156065">
        <ele>2059.7600000000002</ele>
        <time>2017-07-07T08:56:18Z</time>
      </trkpt>
      <trkpt lat="46.123285917565227" lon="11.896221935749054">
        <ele>2059.7600000000002</ele>
        <time>2017-07-07T08:56:44Z</time>
      </trkpt>
      <trkpt lat="46.123289354145527" lon="11.896225707605481">
        <ele>2059.7600000000002</ele>
        <time>2017-07-07T08:57:09Z</time>
      </trkpt>
      <trkpt lat="46.12327971495688" lon="11.89621489495039">
        <ele>2060.7199999999998</ele>
        <time>2017-07-07T08:57:34Z</time>
      </trkpt>
      <trkpt lat="46.123279547318816" lon="11.89623006619513">
        <ele>2059.7600000000002</ele>
        <time>2017-07-07T08:57:58Z</time>
      </trkpt>
      <trkpt lat="46.123278541490436" lon="11.896228976547718">
        <ele>2059.7600000000002</ele>
        <time>2017-07-07T08:58:26Z</time>
      </trkpt>
      <trkpt lat="46.123264459893107" lon="11.896250182762742">
        <ele>2059.7600000000002</ele>
        <time>2017-07-07T08:58:47Z</time>
      </trkpt>
      <trkpt lat="46.123285833746195" lon="11.896222941577435">
        <ele>2059.7600000000002</ele>
        <time>2017-07-07T08:59:13Z</time>
      </trkpt>
      <trkpt lat="46.123272757977247" lon="11.896241633221507">
        <ele>2059.2800000000002</ele>
        <time>2017-07-07T08:59:46Z</time>
      </trkpt>
      <trkpt lat="46.123258089646697" lon="11.896233418956399">
        <ele>2059.2800000000002</ele>
        <time>2017-07-07T09:00:15Z</time>
      </trkpt>
      <trkpt lat="46.12326898612082" lon="11.89623886719346">
        <ele>2059.7600000000002</ele>
        <time>2017-07-07T09:00:43Z</time>
      </trkpt>
      <trkpt lat="46.123267142102122" lon="11.896250350400805">
        <ele>2059.7600000000002</ele>
        <time>2017-07-07T09:01:10Z</time>
      </trkpt>
      <trkpt lat="46.123269991949201" lon="11.896230652928352">
        <ele>2059.2800000000002</ele>
        <time>2017-07-07T09:01:38Z</time>
      </trkpt>
      <trkpt lat="46.123258592560887" lon="11.896274155005813">
        <ele>2059.2800000000002</ele>
        <time>2017-07-07T09:02:02Z</time>
      </trkpt>
      <trkpt lat="46.123248199000955" lon="11.896271388977766">
        <ele>2059.2800000000002</ele>
        <time>2017-07-07T09:02:31Z</time>
      </trkpt>
      <trkpt lat="46.123255742713809" lon="11.896245907992125">
        <ele>2059.7600000000002</ele>
        <time>2017-07-07T09:02:52Z</time>
      </trkpt>
      <trkpt lat="46.12326605245471" lon="11.896230485290289">
        <ele>2059.2800000000002</ele>
        <time>2017-07-07T09:03:00Z</time>
      </trkpt>
      <trkpt lat="46.123277619481087" lon="11.89624129794538">
        <ele>2060.2399999999998</ele>
        <time>2017-07-07T09:03:08Z</time>
      </trkpt>
      <trkpt lat="46.123276529833674" lon="11.896266527473927">
        <ele>2060.2399999999998</ele>
        <time>2017-07-07T09:03:19Z</time>
      </trkpt>
      <trkpt lat="46.123266471549869" lon="11.896262755617499">
        <ele>2060.2399999999998</ele>
        <time>2017-07-07T09:03:32Z</time>
      </trkpt>
      <trkpt lat="46.1232596822083" lon="11.896273316815495">
        <ele>2060.7199999999998</ele>
        <time>2017-07-07T09:03:43Z</time>
      </trkpt>
      <trkpt lat="46.123261526226997" lon="11.89625596627593">
        <ele>2060.7199999999998</ele>
        <time>2017-07-07T09:03:52Z</time>
      </trkpt>
      <trkpt lat="46.123272674158216" lon="11.896214308217168">
        <ele>2060.7199999999998</ele>
        <time>2017-07-07T09:04:09Z</time>
      </trkpt>
      <trkpt lat="46.123279044404626" lon="11.8961694650352">
        <ele>2061.1999999999998</ele>
        <time>2017-07-07T09:04:29Z</time>
      </trkpt>
      <trkpt lat="46.123320870101452" lon="11.896236268803477">
        <ele>2059.7600000000002</ele>
        <time>2017-07-07T09:04:42Z</time>
      </trkpt>
      <trkpt lat="46.123333107680082" lon="11.896195281296968">
        <ele>2059.2800000000002</ele>
        <time>2017-07-07T09:04:56Z</time>
      </trkpt>
      <trkpt lat="46.123327491804957" lon="11.896184971556067">
        <ele>2059.2800000000002</ele>
        <time>2017-07-07T09:05:08Z</time>
      </trkpt>
      <trkpt lat="46.123313913121819" lon="11.896207518875599">
        <ele>2059.2800000000002</ele>
        <time>2017-07-07T09:05:21Z</time>
      </trkpt>
      <trkpt lat="46.123311230912805" lon="11.896197879686952">
        <ele>2059.2800000000002</ele>
        <time>2017-07-07T09:05:35Z</time>
      </trkpt>
      <trkpt lat="46.123265800997615" lon="11.896125879138708">
        <ele>2058.8000000000002</ele>
        <time>2017-07-07T09:05:47Z</time>
      </trkpt>
      <trkpt lat="46.12319958396256" lon="11.896101236343384">
        <ele>2058.8000000000002</ele>
        <time>2017-07-07T09:05:58Z</time>
      </trkpt>
      <trkpt lat="46.123164128512144" lon="11.896091010421515">
        <ele>2058.3200000000002</ele>
        <time>2017-07-07T09:06:08Z</time>
      </trkpt>
      <trkpt lat="46.123183071613312" lon="11.896138703450561">
        <ele>2056.8800000000001</ele>
        <time>2017-07-07T09:06:19Z</time>
      </trkpt>
      <trkpt lat="46.123184328898787" lon="11.896149599924684">
        <ele>2056.4000000000001</ele>
        <time>2017-07-07T09:06:20Z</time>
      </trkpt>
      <trkpt lat="46.123193465173244" lon="11.896176086738706">
        <ele>2055.9200000000001</ele>
        <time>2017-07-07T09:06:22Z</time>
      </trkpt>
      <trkpt lat="46.123176198452711" lon="11.89629745669663">
        <ele>2054.4699999999998</ele>
        <time>2017-07-07T09:06:32Z</time>
      </trkpt>
      <trkpt lat="46.123097743839025" lon="11.896351268514991">
        <ele>2052.0700000000002</ele>
        <time>2017-07-07T09:06:44Z</time>
      </trkpt>
      <trkpt lat="46.123092882335186" lon="11.896360823884606">
        <ele>2052.0700000000002</ele>
        <time>2017-07-07T09:06:45Z</time>
      </trkpt>
      <trkpt lat="46.123078214004636" lon="11.896465513855219">
        <ele>2051.5900000000001</ele>
        <time>2017-07-07T09:06:53Z</time>
      </trkpt>
      <trkpt lat="46.123124398291111" lon="11.896547488868237">
        <ele>2050.6300000000001</ele>
        <time>2017-07-07T09:07:02Z</time>
      </trkpt>
      <trkpt lat="46.123156836256385" lon="11.896662656217813">
        <ele>2048.23</ele>
        <time>2017-07-07T09:07:13Z</time>
      </trkpt>
      <trkpt lat="46.123138982802629" lon="11.896748235449195">
        <ele>2045.8199999999999</ele>
        <time>2017-07-07T09:07:26Z</time>
      </trkpt>
      <trkpt lat="46.123041165992618" lon="11.896730130538344">
        <ele>2043.4200000000001</ele>
        <time>2017-07-07T09:07:38Z</time>
      </trkpt>
      <trkpt lat="46.122959023341537" lon="11.89670255407691">
        <ele>2041.5</ele>
        <time>2017-07-07T09:07:51Z</time>
      </trkpt>
      <trkpt lat="46.122888447716832" lon="11.896724430844188">
        <ele>2039.0899999999999</ele>
        <time>2017-07-07T09:08:03Z</time>
      </trkpt>
      <trkpt lat="46.122849974781275" lon="11.896773129701614">
        <ele>2037.1700000000001</ele>
        <time>2017-07-07T09:08:16Z</time>
      </trkpt>
      <trkpt lat="46.122798090800643" lon="11.896818391978741">
        <ele>2034.77</ele>
        <time>2017-07-07T09:08:28Z</time>
      </trkpt>
      <trkpt lat="46.122763892635703" lon="11.896862061694264">
        <ele>2033.3299999999999</ele>
        <time>2017-07-07T09:08:39Z</time>
      </trkpt>
      <trkpt lat="46.122693568468094" lon="11.896909587085247">
        <ele>2030.9200000000001</ele>
        <time>2017-07-07T09:08:51Z</time>
      </trkpt>
      <trkpt lat="46.122628692537546" lon="11.896835239604115">
        <ele>2028.52</ele>
        <time>2017-07-07T09:09:04Z</time>
      </trkpt>
      <trkpt lat="46.122613102197647" lon="11.896807076409459">
        <ele>2028.04</ele>
        <time>2017-07-07T09:09:08Z</time>
      </trkpt>
      <trkpt lat="46.122544789686799" lon="11.89673138782382">
        <ele>2026.1199999999999</ele>
        <time>2017-07-07T09:09:20Z</time>
      </trkpt>
      <trkpt lat="46.122489888221025" lon="11.896698782220483">
        <ele>2025.1500000000001</ele>
        <time>2017-07-07T09:09:31Z</time>
      </trkpt>
      <trkpt lat="46.122427526861429" lon="11.896690567955375">
        <ele>2023.23</ele>
        <time>2017-07-07T09:09:41Z</time>
      </trkpt>
      <trkpt lat="46.122404057532549" lon="11.896663997322321">
        <ele>2022.75</ele>
        <time>2017-07-07T09:09:44Z</time>
      </trkpt>
      <trkpt lat="46.122376313433051" lon="11.896521924063563">
        <ele>2022.75</ele>
        <time>2017-07-07T09:09:56Z</time>
      </trkpt>
      <trkpt lat="46.122350413352251" lon="11.896449588239193">
        <ele>2022.75</ele>
        <time>2017-07-07T09:10:05Z</time>
      </trkpt>
      <trkpt lat="46.122303642332554" lon="11.896364763379097">
        <ele>2021.79</ele>
        <time>2017-07-07T09:10:15Z</time>
      </trkpt>
      <trkpt lat="46.122223511338234" lon="11.896292930468917">
        <ele>2019.3900000000001</ele>
        <time>2017-07-07T09:10:26Z</time>
      </trkpt>
      <trkpt lat="46.122188810259104" lon="11.896264431998134">
        <ele>2018.9100000000001</ele>
        <time>2017-07-07T09:10:39Z</time>
      </trkpt>
      <trkpt lat="46.122126951813698" lon="11.896222606301308">
        <ele>2017.46</ele>
        <time>2017-07-07T09:10:53Z</time>
      </trkpt>
      <trkpt lat="46.122079091146588" lon="11.896171309053898">
        <ele>2016.02</ele>
        <time>2017-07-07T09:11:03Z</time>
      </trkpt>
      <trkpt lat="46.122020501643419" lon="11.896097464486957">
        <ele>2014.0999999999999</ele>
        <time>2017-07-07T09:11:16Z</time>
      </trkpt>
      <trkpt lat="46.121968701481819" lon="11.896038372069597">
        <ele>2012.1800000000001</ele>
        <time>2017-07-07T09:11:29Z</time>
      </trkpt>
      <trkpt lat="46.121976748108864" lon="11.896080281585455">
        <ele>2010.73</ele>
        <time>2017-07-07T09:11:38Z</time>
      </trkpt>
      <trkpt lat="46.121960319578648" lon="11.896117497235537">
        <ele>2010.73</ele>
        <time>2017-07-07T09:11:46Z</time>
      </trkpt>
      <trkpt lat="46.121919499710202" lon="11.896081706508994">
        <ele>2009.29</ele>
        <time>2017-07-07T09:11:57Z</time>
      </trkpt>
      <trkpt lat="46.121907513588667" lon="11.896083047613502">
        <ele>2009.29</ele>
        <time>2017-07-07T09:12:14Z</time>
      </trkpt>
      <trkpt lat="46.121837189421058" lon="11.896016160026193">
        <ele>2006.8900000000001</ele>
        <time>2017-07-07T09:12:26Z</time>
      </trkpt>
      <trkpt lat="46.121785389259458" lon="11.895982716232538">
        <ele>2004.97</ele>
        <time>2017-07-07T09:12:36Z</time>
      </trkpt>
      <trkpt lat="46.121738869696856" lon="11.895967042073607">
        <ele>2003.52</ele>
        <time>2017-07-07T09:12:46Z</time>
      </trkpt>
      <trkpt lat="46.121688997372985" lon="11.895946338772774">
        <ele>2002.5599999999999</ele>
        <time>2017-07-07T09:12:55Z</time>
      </trkpt>
      <trkpt lat="46.121650859713554" lon="11.895927898585796">
        <ele>2001.5999999999999</ele>
        <time>2017-07-07T09:13:04Z</time>
      </trkpt>
      <trkpt lat="46.121625043451786" lon="11.895910045132041">
        <ele>2000.1600000000001</ele>
        <time>2017-07-07T09:13:13Z</time>
      </trkpt>
      <trkpt lat="46.121589504182339" lon="11.895907782018185">
        <ele>1999.2</ele>
        <time>2017-07-07T09:13:24Z</time>
      </trkpt>
      <trkpt lat="46.12160031683743" lon="11.895920103415847">
        <ele>1998.24</ele>
        <time>2017-07-07T09:13:32Z</time>
      </trkpt>
      <trkpt lat="46.121777929365635" lon="11.895872913300991">
        <ele>1997.76</ele>
        <time>2017-07-07T09:13:43Z</time>
      </trkpt>
      <trkpt lat="46.121804164722562" lon="11.89588506706059">
        <ele>1996.3199999999999</ele>
        <time>2017-07-07T09:13:52Z</time>
      </trkpt>
      <trkpt lat="46.121820844709873" lon="11.895903926342726">
        <ele>1995.8299999999999</ele>
        <time>2017-07-07T09:14:05Z</time>
      </trkpt>
      <trkpt lat="46.121839284896851" lon="11.895950948819518">
        <ele>1994.3900000000001</ele>
        <time>2017-07-07T09:14:16Z</time>
      </trkpt>
      <trkpt lat="46.121848672628403" lon="11.895950697362423">
        <ele>1994.3900000000001</ele>
        <time>2017-07-07T09:14:27Z</time>
      </trkpt>
      <trkpt lat="46.121850935742259" lon="11.895968550816178">
        <ele>1994.3900000000001</ele>
        <time>2017-07-07T09:14:37Z</time>
      </trkpt>
      <trkpt lat="46.121781868860126" lon="11.895968802273273">
        <ele>1992.95</ele>
        <time>2017-07-07T09:14:48Z</time>
      </trkpt>
      <trkpt lat="46.121740713715553" lon="11.895983554422855">
        <ele>1991.99</ele>
        <time>2017-07-07T09:14:58Z</time>
      </trkpt>
      <trkpt lat="46.12172587774694" lon="11.895986320450902">
        <ele>1991.51</ele>
        <time>2017-07-07T09:15:02Z</time>
      </trkpt>
      <trkpt lat="46.121680196374655" lon="11.895973160862923">
        <ele>1990.55</ele>
        <time>2017-07-07T09:15:10Z</time>
      </trkpt>
      <trkpt lat="46.121641807258129" lon="11.895959917455912">
        <ele>1989.5899999999999</ele>
        <time>2017-07-07T09:15:23Z</time>
      </trkpt>
      <trkpt lat="46.121605178341269" lon="11.895945249125361">
        <ele>1989.0999999999999</ele>
        <time>2017-07-07T09:15:32Z</time>
      </trkpt>
      <trkpt lat="46.121677933260798" lon="11.895952122285962">
        <ele>1988.6199999999999</ele>
        <time>2017-07-07T09:15:42Z</time>
      </trkpt>
      <trkpt lat="46.121700732037425" lon="11.895975172519684">
        <ele>1987.6600000000001</ele>
        <time>2017-07-07T09:15:52Z</time>
      </trkpt>
      <trkpt lat="46.121689835563302" lon="11.895982129499316">
        <ele>1987.1800000000001</ele>
        <time>2017-07-07T09:16:01Z</time>
      </trkpt>
      <trkpt lat="46.121672736480832" lon="11.895993361249566">
        <ele>1986.7</ele>
        <time>2017-07-07T09:16:09Z</time>
      </trkpt>
      <trkpt lat="46.121684303507209" lon="11.896001407876611">
        <ele>1986.22</ele>
        <time>2017-07-07T09:16:20Z</time>
      </trkpt>
      <trkpt lat="46.121695786714554" lon="11.896013896912336">
        <ele>1985.26</ele>
        <time>2017-07-07T09:16:33Z</time>
      </trkpt>
      <trkpt lat="46.121695870533586" lon="11.896042311564088">
        <ele>1984.3</ele>
        <time>2017-07-07T09:16:41Z</time>
      </trkpt>
      <trkpt lat="46.121682124212384" lon="11.896048430353403">
        <ele>1983.8199999999999</ele>
        <time>2017-07-07T09:16:50Z</time>
      </trkpt>
      <trkpt lat="46.121681202203035" lon="11.896070474758744">
        <ele>1983.3399999999999</ele>
        <time>2017-07-07T09:17:04Z</time>
      </trkpt>
      <trkpt lat="46.121692433953285" lon="11.896100733429193">
        <ele>1983.8199999999999</ele>
        <time>2017-07-07T09:17:22Z</time>
      </trkpt>
      <trkpt lat="46.121707856655121" lon="11.89610886387527">
        <ele>1984.78</ele>
        <time>2017-07-07T09:17:33Z</time>
      </trkpt>
      <trkpt lat="46.121721435338259" lon="11.896108193323016">
        <ele>1984.3</ele>
        <time>2017-07-07T09:17:46Z</time>
      </trkpt>
      <trkpt lat="46.121722357347608" lon="11.896115904673934">
        <ele>1984.78</ele>
        <time>2017-07-07T09:17:58Z</time>
      </trkpt>
      <trkpt lat="46.121727889403701" lon="11.896110875532031">
        <ele>1985.26</ele>
        <time>2017-07-07T09:18:12Z</time>
      </trkpt>
      <trkpt lat="46.121739372611046" lon="11.896075922995806">
        <ele>1986.22</ele>
        <time>2017-07-07T09:18:23Z</time>
      </trkpt>
      <trkpt lat="46.121769463643432" lon="11.896091513335705">
        <ele>1984.78</ele>
        <time>2017-07-07T09:18:39Z</time>
      </trkpt>
      <trkpt lat="46.121776588261127" lon="11.896098805591464">
        <ele>1984.78</ele>
        <time>2017-07-07T09:18:54Z</time>
      </trkpt>
      <trkpt lat="46.121795447543263" lon="11.896047759801149">
        <ele>1985.26</ele>
        <time>2017-07-07T09:19:17Z</time>
      </trkpt>
      <trkpt lat="46.121776755899191" lon="11.896044155582786">
        <ele>1985.26</ele>
        <time>2017-07-07T09:19:36Z</time>
      </trkpt>
      <trkpt lat="46.121765272691846" lon="11.896092435345054">
        <ele>1985.26</ele>
        <time>2017-07-07T09:20:01Z</time>
      </trkpt>
      <trkpt lat="46.121723530814052" lon="11.896131495013833">
        <ele>1984.3</ele>
        <time>2017-07-07T09:20:10Z</time>
      </trkpt>
      <trkpt lat="46.121728476136923" lon="11.896115150302649">
        <ele>1983.8199999999999</ele>
        <time>2017-07-07T09:20:23Z</time>
      </trkpt>
      <trkpt lat="46.121739624068141" lon="11.896092435345054">
        <ele>1983.8199999999999</ele>
        <time>2017-07-07T09:20:41Z</time>
      </trkpt>
      <trkpt lat="46.121740629896522" lon="11.896108025684953">
        <ele>1982.8599999999999</ele>
        <time>2017-07-07T09:20:53Z</time>
      </trkpt>
      <trkpt lat="46.121717160567641" lon="11.896115737035871">
        <ele>1982.3800000000001</ele>
        <time>2017-07-07T09:21:02Z</time>
      </trkpt>
      <trkpt lat="46.121722524985671" lon="11.896149348467588">
        <ele>1981.4100000000001</ele>
        <time>2017-07-07T09:21:12Z</time>
      </trkpt>
      <trkpt lat="46.121729481965303" lon="11.896161586046219">
        <ele>1980.45</ele>
        <time>2017-07-07T09:21:24Z</time>
      </trkpt>
      <trkpt lat="46.121717328205705" lon="11.896167453378439">
        <ele>1979.49</ele>
        <time>2017-07-07T09:21:37Z</time>
      </trkpt>
      <trkpt lat="46.12167701125145" lon="11.896174410358071">
        <ele>1978.53</ele>
        <time>2017-07-07T09:21:47Z</time>
      </trkpt>
      <trkpt lat="46.121598472818732" lon="11.89619486220181">
        <ele>1976.1300000000001</ele>
        <time>2017-07-07T09:21:55Z</time>
      </trkpt>
      <trkpt lat="46.12159444950521" lon="11.896200310438871">
        <ele>1975.1700000000001</ele>
        <time>2017-07-07T09:21:57Z</time>
      </trkpt>
      <trkpt lat="46.121566202491522" lon="11.896203914657235">
        <ele>1975.1700000000001</ele>
        <time>2017-07-07T09:22:00Z</time>
      </trkpt>
      <trkpt lat="46.121482383459806" lon="11.896227635443211">
        <ele>1972.76</ele>
        <time>2017-07-07T09:22:11Z</time>
      </trkpt>
      <trkpt lat="46.121410131454468" lon="11.896173236891627">
        <ele>1970.3599999999999</ele>
        <time>2017-07-07T09:22:22Z</time>
      </trkpt>
      <trkpt lat="46.121362689882517" lon="11.896116742864251">
        <ele>1968.9200000000001</ele>
        <time>2017-07-07T09:22:32Z</time>
      </trkpt>
      <trkpt lat="46.121288258582354" lon="11.896083299070597">
        <ele>1966.03</ele>
        <time>2017-07-07T09:22:45Z</time>
      </trkpt>
      <trkpt lat="46.121224472299218" lon="11.896097883582115">
        <ele>1964.1099999999999</ele>
        <time>2017-07-07T09:22:54Z</time>
      </trkpt>
      <trkpt lat="46.121195470914245" lon="11.896065613254905">
        <ele>1961.71</ele>
        <time>2017-07-07T09:23:04Z</time>
      </trkpt>
      <trkpt lat="46.121198320761323" lon="11.896046418696642">
        <ele>1958.3399999999999</ele>
        <time>2017-07-07T09:24:18Z</time>
      </trkpt>
      <trkpt lat="46.121201422065496" lon="11.896046921610832">
        <ele>1957.8599999999999</ele>
        <time>2017-07-07T09:24:32Z</time>
      </trkpt>
      <trkpt lat="46.121184322983027" lon="11.89608396962285">
        <ele>1957.8599999999999</ele>
        <time>2017-07-07T09:25:00Z</time>
      </trkpt>
      <trkpt lat="46.121254982426763" lon="11.896175416186452">
        <ele>1957.3800000000001</ele>
        <time>2017-07-07T09:25:15Z</time>
      </trkpt>
      <trkpt lat="46.121287839487195" lon="11.896251272410154">
        <ele>1956.9000000000001</ele>
        <time>2017-07-07T09:25:31Z</time>
      </trkpt>
      <trkpt lat="46.121297897771001" lon="11.896279351785779">
        <ele>1956.4200000000001</ele>
        <time>2017-07-07T09:25:46Z</time>
      </trkpt>
      <trkpt lat="46.121305357664824" lon="11.89636199735105">
        <ele>1955.46</ele>
        <time>2017-07-07T09:25:57Z</time>
      </trkpt>
      <trkpt lat="46.121279206126928" lon="11.896339617669582">
        <ele>1953.0599999999999</ele>
        <time>2017-07-07T09:26:28Z</time>
      </trkpt>
      <trkpt lat="46.121045770123601" lon="11.896131914108992">
        <ele>1950.6500000000001</ele>
        <time>2017-07-07T09:26:39Z</time>
      </trkpt>
      <trkpt lat="46.121050547808409" lon="11.896142978221178">
        <ele>1949.6900000000001</ele>
        <time>2017-07-07T09:26:48Z</time>
      </trkpt>
      <trkpt lat="46.121022049337626" lon="11.896170889958739">
        <ele>1949.21</ele>
        <time>2017-07-07T09:27:01Z</time>
      </trkpt>
      <trkpt lat="46.121015679091215" lon="11.896168543025851">
        <ele>1948.73</ele>
        <time>2017-07-07T09:27:10Z</time>
      </trkpt>
      <trkpt lat="46.121001848950982" lon="11.896160244941711">
        <ele>1948.25</ele>
        <time>2017-07-07T09:27:26Z</time>
      </trkpt>
      <trkpt lat="46.1209611967206" lon="11.896180026233196">
        <ele>1948.73</ele>
        <time>2017-07-07T09:27:47Z</time>
      </trkpt>
      <trkpt lat="46.12094895914197" lon="11.896179104223847">
        <ele>1948.25</ele>
        <time>2017-07-07T09:28:02Z</time>
      </trkpt>
      <trkpt lat="46.120943510904908" lon="11.896171141415834">
        <ele>1948.25</ele>
        <time>2017-07-07T09:28:21Z</time>
      </trkpt>
      <trkpt lat="46.120947450399399" lon="11.896181954070926">
        <ele>1948.25</ele>
        <time>2017-07-07T09:28:38Z</time>
      </trkpt>
      <trkpt lat="46.120928339660168" lon="11.896210284903646">
        <ele>1948.25</ele>
        <time>2017-07-07T09:28:54Z</time>
      </trkpt>
      <trkpt lat="46.120909312739968" lon="11.896181451156735">
        <ele>1948.25</ele>
        <time>2017-07-07T09:29:17Z</time>
      </trkpt>
      <trkpt lat="46.120923478156328" lon="11.896189078688622">
        <ele>1947.77</ele>
        <time>2017-07-07T09:29:33Z</time>
      </trkpt>
      <trkpt lat="46.120921047404408" lon="11.896210787817836">
        <ele>1947.77</ele>
        <time>2017-07-07T09:29:45Z</time>
      </trkpt>
      <trkpt lat="46.120926076546311" lon="11.896216403692961">
        <ele>1947.29</ele>
        <time>2017-07-07T09:29:57Z</time>
      </trkpt>
      <trkpt lat="46.120919119566679" lon="11.896174410358071">
        <ele>1946.3299999999999</ele>
        <time>2017-07-07T09:30:11Z</time>
      </trkpt>
      <trkpt lat="46.12089766189456" lon="11.896239034831524">
        <ele>1944.4000000000001</ele>
        <time>2017-07-07T09:30:21Z</time>
      </trkpt>
      <trkpt lat="46.120885843411088" lon="11.896308185532689">
        <ele>1942.48</ele>
        <time>2017-07-07T09:30:29Z</time>
      </trkpt>
      <trkpt lat="46.120845023542643" lon="11.896280692890286">
        <ele>1941.04</ele>
        <time>2017-07-07T09:30:37Z</time>
      </trkpt>
      <trkpt lat="46.120786936953664" lon="11.896246494725347">
        <ele>1938.6400000000001</ele>
        <time>2017-07-07T09:30:50Z</time>
      </trkpt>
      <trkpt lat="46.120784841477871" lon="11.896255882456899">
        <ele>1938.6400000000001</ele>
        <time>2017-07-07T09:31:01Z</time>
      </trkpt>
      <trkpt lat="46.120778722688556" lon="11.896276082843542">
        <ele>1939.1199999999999</ele>
        <time>2017-07-07T09:31:15Z</time>
      </trkpt>
      <trkpt lat="46.120760450139642" lon="11.896276669576764">
        <ele>1939.1199999999999</ele>
        <time>2017-07-07T09:31:25Z</time>
      </trkpt>
      <trkpt lat="46.120734633877873" lon="11.896275077015162">
        <ele>1937.6700000000001</ele>
        <time>2017-07-07T09:31:36Z</time>
      </trkpt>
      <trkpt lat="46.120732873678207" lon="11.896267281845212">
        <ele>1938.1600000000001</ele>
        <time>2017-07-07T09:31:47Z</time>
      </trkpt>
      <trkpt lat="46.120729437097907" lon="11.896269209682941">
        <ele>1939.1199999999999</ele>
        <time>2017-07-07T09:31:51Z</time>
      </trkpt>
      <trkpt lat="46.120741842314601" lon="11.896267952397466">
        <ele>1937.6700000000001</ele>
        <time>2017-07-07T09:32:02Z</time>
      </trkpt>
      <trkpt lat="46.12071979790926" lon="11.896270215511322">
        <ele>1938.1600000000001</ele>
        <time>2017-07-07T09:32:08Z</time>
      </trkpt>
      <trkpt lat="46.120717786252499" lon="11.896268287673593">
        <ele>1938.1600000000001</ele>
        <time>2017-07-07T09:32:23Z</time>
      </trkpt>
      <trkpt lat="46.12073983065784" lon="11.896306341513991">
        <ele>1937.6700000000001</ele>
        <time>2017-07-07T09:32:41Z</time>
      </trkpt>
      <trkpt lat="46.120735807344317" lon="11.896299719810486">
        <ele>1937.6700000000001</ele>
        <time>2017-07-07T09:32:55Z</time>
      </trkpt>
      <trkpt lat="46.120726503431797" lon="11.896304497495294">
        <ele>1937.6700000000001</ele>
        <time>2017-07-07T09:33:07Z</time>
      </trkpt>
      <trkpt lat="46.120721306651831" lon="11.896309023723006">
        <ele>1937.6700000000001</ele>
        <time>2017-07-07T09:33:21Z</time>
      </trkpt>
      <trkpt lat="46.120728431269526" lon="11.896291840821505">
        <ele>1937.6700000000001</ele>
        <time>2017-07-07T09:33:33Z</time>
      </trkpt>
      <trkpt lat="46.12074226140976" lon="11.896306006237864">
        <ele>1937.6700000000001</ele>
        <time>2017-07-07T09:33:47Z</time>
      </trkpt>
      <trkpt lat="46.120744524523616" lon="11.896311705932021">
        <ele>1938.6400000000001</ele>
        <time>2017-07-07T09:33:52Z</time>
      </trkpt>
      <trkpt lat="46.120742009952664" lon="11.896330062299967">
        <ele>1937.6700000000001</ele>
        <time>2017-07-07T09:34:10Z</time>
      </trkpt>
      <trkpt lat="46.120735974982381" lon="11.896355543285608">
        <ele>1937.1900000000001</ele>
        <time>2017-07-07T09:34:23Z</time>
      </trkpt>
      <trkpt lat="46.120733711868525" lon="11.896400302648544">
        <ele>1936.23</ele>
        <time>2017-07-07T09:34:27Z</time>
      </trkpt>
      <trkpt lat="46.120678978040814" lon="11.896491330116987">
        <ele>1933.8299999999999</ele>
        <time>2017-07-07T09:34:37Z</time>
      </trkpt>
      <trkpt lat="46.120671099051833" lon="11.896540531888604">
        <ele>1932.8699999999999</ele>
        <time>2017-07-07T09:34:42Z</time>
      </trkpt>
      <trkpt lat="46.120624244213104" lon="11.896569365635514">
        <ele>1930.95</ele>
        <time>2017-07-07T09:34:51Z</time>
      </trkpt>
      <trkpt lat="46.120581077411771" lon="11.896529383957386">
        <ele>1930.95</ele>
        <time>2017-07-07T09:35:03Z</time>
      </trkpt>
      <trkpt lat="46.120393741875887" lon="11.896640779450536">
        <ele>1929.02</ele>
        <time>2017-07-07T09:35:18Z</time>
      </trkpt>
      <trkpt lat="46.120357951149344" lon="11.89667128957808">
        <ele>1927.5799999999999</ele>
        <time>2017-07-07T09:35:25Z</time>
      </trkpt>
      <trkpt lat="46.120287962257862" lon="11.896646395325661">
        <ele>1925.6600000000001</ele>
        <time>2017-07-07T09:35:34Z</time>
      </trkpt>
      <trkpt lat="46.120289387181401" lon="11.896597528830171">
        <ele>1924.22</ele>
        <time>2017-07-07T09:35:44Z</time>
      </trkpt>
      <trkpt lat="46.120250495150685" lon="11.896607670933008">
        <ele>1924.22</ele>
        <time>2017-07-07T09:35:56Z</time>
      </trkpt>
      <trkpt lat="46.120285363867879" lon="11.8965769931674">
        <ele>1911.24</ele>
        <time>2017-07-07T09:39:35Z</time>
      </trkpt>
      <trkpt lat="46.120283855125308" lon="11.896673468872905">
        <ele>1908.3499999999999</ele>
        <time>2017-07-07T09:39:46Z</time>
      </trkpt>
      <trkpt lat="46.120263654738665" lon="11.896731806918979">
        <ele>1908.3499999999999</ele>
        <time>2017-07-07T09:39:54Z</time>
      </trkpt>
      <trkpt lat="46.120236497372389" lon="11.896768184378743">
        <ele>1908.3499999999999</ele>
        <time>2017-07-07T09:40:04Z</time>
      </trkpt>
      <trkpt lat="46.120177488774061" lon="11.896772878244519">
        <ele>1907.3900000000001</ele>
        <time>2017-07-07T09:40:13Z</time>
      </trkpt>
      <trkpt lat="46.120152594521642" lon="11.896798443049192">
        <ele>1907.3900000000001</ele>
        <time>2017-07-07T09:40:17Z</time>
      </trkpt>
      <trkpt lat="46.120166089385748" lon="11.896866587921977">
        <ele>1906.4300000000001</ele>
        <time>2017-07-07T09:40:26Z</time>
      </trkpt>
      <trkpt lat="46.120165670290589" lon="11.896970272064209">
        <ele>1905.47</ele>
        <time>2017-07-07T09:40:36Z</time>
      </trkpt>
      <trkpt lat="46.120169525966048" lon="11.897010337561369">
        <ele>1904.99</ele>
        <time>2017-07-07T09:40:46Z</time>
      </trkpt>
      <trkpt lat="46.120157456025481" lon="11.897024586796761">
        <ele>1904.99</ele>
        <time>2017-07-07T09:40:58Z</time>
      </trkpt>
      <trkpt lat="46.120162988081574" lon="11.897026430815458">
        <ele>1904.03</ele>
        <time>2017-07-07T09:41:10Z</time>
      </trkpt>
      <trkpt lat="46.120171705260873" lon="11.89703581854701">
        <ele>1904.03</ele>
        <time>2017-07-07T09:41:25Z</time>
      </trkpt>
      <trkpt lat="46.120184529572725" lon="11.897101029753685">
        <ele>1904.03</ele>
        <time>2017-07-07T09:41:38Z</time>
      </trkpt>
      <trkpt lat="46.120170867070556" lon="11.897099018096924">
        <ele>1902.5899999999999</ele>
        <time>2017-07-07T09:41:47Z</time>
      </trkpt>
      <trkpt lat="46.120175812393427" lon="11.897072028368711">
        <ele>1902.5899999999999</ele>
        <time>2017-07-07T09:42:15Z</time>
      </trkpt>
      <trkpt lat="46.120147313922644" lon="11.897070771083236">
        <ele>1902.1099999999999</ele>
        <time>2017-07-07T09:42:40Z</time>
      </trkpt>
      <trkpt lat="46.12011487595737" lon="11.897072028368711">
        <ele>1902.5899999999999</ele>
        <time>2017-07-07T09:42:58Z</time>
      </trkpt>
      <trkpt lat="46.120107332244515" lon="11.897098599001765">
        <ele>1902.5899999999999</ele>
        <time>2017-07-07T09:43:11Z</time>
      </trkpt>
      <trkpt lat="46.120094675570726" lon="11.897067250683904">
        <ele>1902.5899999999999</ele>
        <time>2017-07-07T09:43:25Z</time>
      </trkpt>
      <trkpt lat="46.120116887614131" lon="11.897056521847844">
        <ele>1902.1099999999999</ele>
        <time>2017-07-07T09:44:19Z</time>
      </trkpt>
      <trkpt lat="46.120116636157036" lon="11.897028610110283">
        <ele>1902.1099999999999</ele>
        <time>2017-07-07T09:44:35Z</time>
      </trkpt>
      <trkpt lat="46.120093669742346" lon="11.897003632038832">
        <ele>1902.1099999999999</ele>
        <time>2017-07-07T09:44:49Z</time>
      </trkpt>
      <trkpt lat="46.120092747732997" lon="11.897108573466539">
        <ele>1901.6300000000001</ele>
        <time>2017-07-07T09:45:04Z</time>
      </trkpt>
      <trkpt lat="46.12007724121213" lon="11.897140257060528">
        <ele>1901.6300000000001</ele>
        <time>2017-07-07T09:45:13Z</time>
      </trkpt>
      <trkpt lat="46.120060393586755" lon="11.897172527387738">
        <ele>1901.1400000000001</ele>
        <time>2017-07-07T09:45:16Z</time>
      </trkpt>
      <trkpt lat="46.120034912601113" lon="11.897179987281561">
        <ele>1901.1400000000001</ele>
        <time>2017-07-07T09:45:19Z</time>
      </trkpt>
      <trkpt lat="46.120012868195772" lon="11.897229859605432">
        <ele>1901.6300000000001</ele>
        <time>2017-07-07T09:45:24Z</time>
      </trkpt>
      <trkpt lat="46.119993925094604" lon="11.89727520570159">
        <ele>1900.6600000000001</ele>
        <time>2017-07-07T09:45:29Z</time>
      </trkpt>
      <trkpt lat="46.119923181831837" lon="11.897431612014771">
        <ele>1899.7</ele>
        <time>2017-07-07T09:45:42Z</time>
      </trkpt>
      <trkpt lat="46.119914129376411" lon="11.897441251203418">
        <ele>1899.22</ele>
        <time>2017-07-07T09:45:43Z</time>
      </trkpt>
      <trkpt lat="46.119815725833178" lon="11.89739934168756">
        <ele>1898.74</ele>
        <time>2017-07-07T09:45:54Z</time>
      </trkpt>
      <trkpt lat="46.119809355586767" lon="11.897402107715607">
        <ele>1898.26</ele>
        <time>2017-07-07T09:45:55Z</time>
      </trkpt>
      <trkpt lat="46.119755627587438" lon="11.897418200969696">
        <ele>1897.78</ele>
        <time>2017-07-07T09:46:03Z</time>
      </trkpt>
      <trkpt lat="46.119731990620494" lon="11.897448627278209">
        <ele>1898.26</ele>
        <time>2017-07-07T09:46:07Z</time>
      </trkpt>
      <trkpt lat="46.119731487706304" lon="11.89748777076602">
        <ele>1897.78</ele>
        <time>2017-07-07T09:46:10Z</time>
      </trkpt>
      <trkpt lat="46.119713047519326" lon="11.897517526522279">
        <ele>1898.26</ele>
        <time>2017-07-07T09:46:13Z</time>
      </trkpt>
      <trkpt lat="46.119683543220162" lon="11.897543510422111">
        <ele>1897.78</ele>
        <time>2017-07-07T09:46:16Z</time>
      </trkpt>
      <trkpt lat="46.119637694209814" lon="11.897604782134295">
        <ele>1898.26</ele>
        <time>2017-07-07T09:46:25Z</time>
      </trkpt>
      <trkpt lat="46.11959402449429" lon="11.89765390008688">
        <ele>1897.78</ele>
        <time>2017-07-07T09:46:35Z</time>
      </trkpt>
      <trkpt lat="46.119529902935028" lon="11.897695641964674">
        <ele>1897.78</ele>
        <time>2017-07-07T09:46:45Z</time>
      </trkpt>
      <trkpt lat="46.119510540738702" lon="11.897715423256159">
        <ele>1897.78</ele>
        <time>2017-07-07T09:46:48Z</time>
      </trkpt>
      <trkpt lat="46.119421357288957" lon="11.897747442126274">
        <ele>1898.26</ele>
        <time>2017-07-07T09:46:59Z</time>
      </trkpt>
      <trkpt lat="46.119334017857909" lon="11.897717854008079">
        <ele>1898.26</ele>
        <time>2017-07-07T09:47:10Z</time>
      </trkpt>
      <trkpt lat="46.119253886863589" lon="11.897767307236791">
        <ele>1898.74</ele>
        <time>2017-07-07T09:47:23Z</time>
      </trkpt>
      <trkpt lat="46.119178868830204" lon="11.897816760465503">
        <ele>1899.22</ele>
        <time>2017-07-07T09:47:33Z</time>
      </trkpt>
      <trkpt lat="46.119147269055247" lon="11.897822041064501">
        <ele>1899.22</ele>
        <time>2017-07-07T09:47:37Z</time>
      </trkpt>
      <trkpt lat="46.119076022878289" lon="11.897833105176687">
        <ele>1898.74</ele>
        <time>2017-07-07T09:47:43Z</time>
      </trkpt>
      <trkpt lat="46.119008883833885" lon="11.897766888141632">
        <ele>1900.6600000000001</ele>
        <time>2017-07-07T09:47:53Z</time>
      </trkpt>
      <trkpt lat="46.119000837206841" lon="11.897767642512918">
        <ele>1900.6600000000001</ele>
        <time>2017-07-07T09:47:55Z</time>
      </trkpt>
      <trkpt lat="46.118985749781132" lon="11.897796057164669">
        <ele>1901.6300000000001</ele>
        <time>2017-07-07T09:47:59Z</time>
      </trkpt>
      <trkpt lat="46.118929339572787" lon="11.897914744913578">
        <ele>1900.6600000000001</ele>
        <time>2017-07-07T09:48:10Z</time>
      </trkpt>
      <trkpt lat="46.118826158344746" lon="11.897976519539952">
        <ele>1900.1800000000001</ele>
        <time>2017-07-07T09:48:21Z</time>
      </trkpt>
      <trkpt lat="46.118723060935736" lon="11.8979446683079">
        <ele>1899.22</ele>
        <time>2017-07-07T09:48:32Z</time>
      </trkpt>
      <trkpt lat="46.118680145591497" lon="11.897999402135611">
        <ele>1900.1800000000001</ele>
        <time>2017-07-07T09:48:45Z</time>
      </trkpt>
      <trkpt lat="46.118624489754438" lon="11.898096716031432">
        <ele>1900.1800000000001</ele>
        <time>2017-07-07T09:48:56Z</time>
      </trkpt>
      <trkpt lat="46.118622729554772" lon="11.898110546171665">
        <ele>1900.1800000000001</ele>
        <time>2017-07-07T09:48:57Z</time>
      </trkpt>
      <trkpt lat="46.118557099252939" lon="11.898243566974998">
        <ele>1899.22</ele>
        <time>2017-07-07T09:49:08Z</time>
      </trkpt>
      <trkpt lat="46.118458779528737" lon="11.898300480097532">
        <ele>1898.26</ele>
        <time>2017-07-07T09:49:20Z</time>
      </trkpt>
      <trkpt lat="46.118442267179489" lon="11.89829109236598">
        <ele>1897.78</ele>
        <time>2017-07-07T09:49:27Z</time>
      </trkpt>
      <trkpt lat="46.118437573313713" lon="11.898297714069486">
        <ele>1897.78</ele>
        <time>2017-07-07T09:49:33Z</time>
      </trkpt>
      <trkpt lat="46.118342019617558" lon="11.898362170904875">
        <ele>1897.3</ele>
        <time>2017-07-07T09:49:44Z</time>
      </trkpt>
      <trkpt lat="46.118269516155124" lon="11.898432830348611">
        <ele>1896.3399999999999</ele>
        <time>2017-07-07T09:49:53Z</time>
      </trkpt>
      <trkpt lat="46.118224840611219" lon="11.89848362468183">
        <ele>1895.8599999999999</ele>
        <time>2017-07-07T09:49:59Z</time>
      </trkpt>
      <trkpt lat="46.118150744587183" lon="11.898564258590341">
        <ele>1894.9000000000001</ele>
        <time>2017-07-07T09:50:09Z</time>
      </trkpt>
      <trkpt lat="46.118095926940441" lon="11.898584123700857">
        <ele>1895.8599999999999</ele>
        <time>2017-07-07T09:50:17Z</time>
      </trkpt>
      <trkpt lat="46.118015125393867" lon="11.898636091500521">
        <ele>1895.8599999999999</ele>
        <time>2017-07-07T09:50:26Z</time>
      </trkpt>
      <trkpt lat="46.11795418895781" lon="11.898689232766628">
        <ele>1894.9000000000001</ele>
        <time>2017-07-07T09:50:37Z</time>
      </trkpt>
      <trkpt lat="46.117908423766494" lon="11.898763328790665">
        <ele>1893.45</ele>
        <time>2017-07-07T09:50:45Z</time>
      </trkpt>
      <trkpt lat="46.117864083498716" lon="11.898800963535905">
        <ele>1893.45</ele>
        <time>2017-07-07T09:50:52Z</time>
      </trkpt>
      <trkpt lat="46.117833992466331" lon="11.898881597444415">
        <ele>1893.45</ele>
        <time>2017-07-07T09:51:00Z</time>
      </trkpt>
      <trkpt lat="46.117794597521424" lon="11.89892090857029">
        <ele>1892.97</ele>
        <time>2017-07-07T09:51:04Z</time>
      </trkpt>
      <trkpt lat="46.117749167606235" lon="11.898946724832058">
        <ele>1892.49</ele>
        <time>2017-07-07T09:51:09Z</time>
      </trkpt>
      <trkpt lat="46.117684962227941" lon="11.898966757580638">
        <ele>1892.01</ele>
        <time>2017-07-07T09:51:18Z</time>
      </trkpt>
      <trkpt lat="46.117664091289043" lon="11.898956364020705">
        <ele>1892.01</ele>
        <time>2017-07-07T09:51:31Z</time>
      </trkpt>
      <trkpt lat="46.117609357461333" lon="11.898834491148591">
        <ele>1891.53</ele>
        <time>2017-07-07T09:51:42Z</time>
      </trkpt>
      <trkpt lat="46.117581697180867" lon="11.89876894466579">
        <ele>1892.49</ele>
        <time>2017-07-07T09:51:50Z</time>
      </trkpt>
      <trkpt lat="46.117535596713424" lon="11.898751426488161">
        <ele>1892.49</ele>
        <time>2017-07-07T09:51:56Z</time>
      </trkpt>
      <trkpt lat="46.117496956139803" lon="11.898736925795674">
        <ele>1892.01</ele>
        <time>2017-07-07T09:52:00Z</time>
      </trkpt>
      <trkpt lat="46.117425793781877" lon="11.898656375706196">
        <ele>1892.97</ele>
        <time>2017-07-07T09:52:11Z</time>
      </trkpt>
      <trkpt lat="46.117376843467355" lon="11.898628631606698">
        <ele>1894.4200000000001</ele>
        <time>2017-07-07T09:52:21Z</time>
      </trkpt>
      <trkpt lat="46.117349350824952" lon="11.898553445935249">
        <ele>1895.3800000000001</ele>
        <time>2017-07-07T09:52:29Z</time>
      </trkpt>
      <trkpt lat="46.117330575361848" lon="11.89848949201405">
        <ele>1894.4200000000001</ele>
        <time>2017-07-07T09:52:35Z</time>
      </trkpt>
      <trkpt lat="46.117290845140815" lon="11.898386394605041">
        <ele>1893.9300000000001</ele>
        <time>2017-07-07T09:52:45Z</time>
      </trkpt>
      <trkpt lat="46.117279110476375" lon="11.898373989388347">
        <ele>1893.9300000000001</ele>
        <time>2017-07-07T09:52:47Z</time>
      </trkpt>
      <trkpt lat="46.117244996130466" lon="11.898251110687852">
        <ele>1894.4200000000001</ele>
        <time>2017-07-07T09:52:58Z</time>
      </trkpt>
      <trkpt lat="46.11726813018322" lon="11.898170476779342">
        <ele>1894.9000000000001</ele>
        <time>2017-07-07T09:53:12Z</time>
      </trkpt>
      <trkpt lat="46.117272740229964" lon="11.89809269271791">
        <ele>1896.3399999999999</ele>
        <time>2017-07-07T09:53:23Z</time>
      </trkpt>
      <trkpt lat="46.117253545671701" lon="11.898037036880851">
        <ele>1896.8199999999999</ele>
        <time>2017-07-07T09:53:32Z</time>
      </trkpt>
      <trkpt lat="46.11725932918489" lon="11.898018680512905">
        <ele>1896.8199999999999</ele>
        <time>2017-07-07T09:53:43Z</time>
      </trkpt>
      <trkpt lat="46.117279529571533" lon="11.89801256172359">
        <ele>1896.3399999999999</ele>
        <time>2017-07-07T09:53:57Z</time>
      </trkpt>
      <trkpt lat="46.117292186245322" lon="11.898027313873172">
        <ele>1897.3</ele>
        <time>2017-07-07T09:54:16Z</time>
      </trkpt>
      <trkpt lat="46.117302076891065" lon="11.898015579208732">
        <ele>1896.8199999999999</ele>
        <time>2017-07-07T09:54:27Z</time>
      </trkpt>
      <trkpt lat="46.117307022213936" lon="11.898004347458482">
        <ele>1896.8199999999999</ele>
        <time>2017-07-07T09:54:42Z</time>
      </trkpt>
      <trkpt lat="46.117300316691399" lon="11.89800719730556">
        <ele>1897.3</ele>
        <time>2017-07-07T09:55:00Z</time>
      </trkpt>
      <trkpt lat="46.117292856797576" lon="11.898014405742288">
        <ele>1896.3399999999999</ele>
        <time>2017-07-07T09:55:21Z</time>
      </trkpt>
      <trkpt lat="46.117284558713436" lon="11.897969814017415">
        <ele>1896.8199999999999</ele>
        <time>2017-07-07T09:55:28Z</time>
      </trkpt>
      <trkpt lat="46.117296628654003" lon="11.897928239777684">
        <ele>1897.3</ele>
        <time>2017-07-07T09:55:31Z</time>
      </trkpt>
      <trkpt lat="46.117343064397573" lon="11.89790016040206">
        <ele>1897.3</ele>
        <time>2017-07-07T09:55:37Z</time>
      </trkpt>
      <trkpt lat="46.117385812103748" lon="11.897944500669837">
        <ele>1897.3</ele>
        <time>2017-07-07T09:55:42Z</time>
      </trkpt>
      <trkpt lat="46.117478767409921" lon="11.897896723821759">
        <ele>1897.3</ele>
        <time>2017-07-07T09:55:53Z</time>
      </trkpt>
      <trkpt lat="46.117476085200906" lon="11.897862274199724">
        <ele>1896.8199999999999</ele>
        <time>2017-07-07T09:55:55Z</time>
      </trkpt>
      <trkpt lat="46.117483042180538" lon="11.897815586999059">
        <ele>1895.8599999999999</ele>
        <time>2017-07-07T09:55:59Z</time>
      </trkpt>
      <trkpt lat="46.117475749924779" lon="11.897738473489881">
        <ele>1895.8599999999999</ele>
        <time>2017-07-07T09:56:09Z</time>
      </trkpt>
      <trkpt lat="46.117464685812593" lon="11.897723888978362">
        <ele>1895.8599999999999</ele>
        <time>2017-07-07T09:56:13Z</time>
      </trkpt>
      <trkpt lat="46.117433169856668" lon="11.897686924785376">
        <ele>1895.3800000000001</ele>
        <time>2017-07-07T09:56:21Z</time>
      </trkpt>
      <trkpt lat="46.117409449070692" lon="11.897658007219434">
        <ele>1895.3800000000001</ele>
        <time>2017-07-07T09:56:30Z</time>
      </trkpt>
      <trkpt lat="46.117399642243981" lon="11.897639399394393">
        <ele>1894.9000000000001</ele>
        <time>2017-07-07T09:56:47Z</time>
      </trkpt>
      <trkpt lat="46.11738346517086" lon="11.897639483213425">
        <ele>1894.4200000000001</ele>
        <time>2017-07-07T09:56:57Z</time>
      </trkpt>
      <trkpt lat="46.117368713021278" lon="11.897627161815763">
        <ele>1894.4200000000001</ele>
        <time>2017-07-07T09:57:07Z</time>
      </trkpt>
      <trkpt lat="46.117361756041646" lon="11.897612996399403">
        <ele>1894.4200000000001</ele>
        <time>2017-07-07T09:57:18Z</time>
      </trkpt>
      <trkpt lat="46.117360414937139" lon="11.897588018327951">
        <ele>1893.45</ele>
        <time>2017-07-07T09:57:28Z</time>
      </trkpt>
      <trkpt lat="46.117355553433299" lon="11.897586341947317">
        <ele>1893.45</ele>
        <time>2017-07-07T09:57:30Z</time>
      </trkpt>
      <trkpt lat="46.11735069192946" lon="11.897593718022108">
        <ele>1893.45</ele>
        <time>2017-07-07T09:57:39Z</time>
      </trkpt>
      <trkpt lat="46.117373155429959" lon="11.897602351382375">
        <ele>1892.97</ele>
        <time>2017-07-07T09:57:55Z</time>
      </trkpt>
      <trkpt lat="46.117357145994902" lon="11.897590449079871">
        <ele>1893.45</ele>
        <time>2017-07-07T09:58:06Z</time>
      </trkpt>
      <trkpt lat="46.11736879684031" lon="11.89759774133563">
        <ele>1892.97</ele>
        <time>2017-07-07T09:58:16Z</time>
      </trkpt>
      <trkpt lat="46.11736829392612" lon="11.897592879831791">
        <ele>1893.45</ele>
        <time>2017-07-07T09:58:27Z</time>
      </trkpt>
      <trkpt lat="46.117388075217605" lon="11.897610062733293">
        <ele>1893.45</ele>
        <time>2017-07-07T09:58:39Z</time>
      </trkpt>
      <trkpt lat="46.117380196228623" lon="11.897603273391724">
        <ele>1892.97</ele>
        <time>2017-07-07T09:58:50Z</time>
      </trkpt>
      <trkpt lat="46.117361420765519" lon="11.89757326617837">
        <ele>1892.97</ele>
        <time>2017-07-07T09:59:02Z</time>
      </trkpt>
      <trkpt lat="46.117358235642314" lon="11.897572008892894">
        <ele>1892.97</ele>
        <time>2017-07-07T09:59:03Z</time>
      </trkpt>
      <trkpt lat="46.117344992235303" lon="11.897595562040806">
        <ele>1893.45</ele>
        <time>2017-07-07T09:59:13Z</time>
      </trkpt>
      <trkpt lat="46.117355972528458" lon="11.897619282826781">
        <ele>1892.97</ele>
        <time>2017-07-07T09:59:22Z</time>
      </trkpt>
      <trkpt lat="46.117349183186889" lon="11.897619115188718">
        <ele>1892.97</ele>
        <time>2017-07-07T09:59:32Z</time>
      </trkpt>
      <trkpt lat="46.117334179580212" lon="11.897620037198067">
        <ele>1892.49</ele>
        <time>2017-07-07T09:59:42Z</time>
      </trkpt>
      <trkpt lat="46.117331329733133" lon="11.897610062733293">
        <ele>1892.97</ele>
        <time>2017-07-07T09:59:57Z</time>
      </trkpt>
      <trkpt lat="46.117326887324452" lon="11.897587012499571">
        <ele>1892.97</ele>
        <time>2017-07-07T10:00:08Z</time>
      </trkpt>
      <trkpt lat="46.117314146831632" lon="11.897529261186719">
        <ele>1892.97</ele>
        <time>2017-07-07T10:00:18Z</time>
      </trkpt>
      <trkpt lat="46.117326803505421" lon="11.897430857643485">
        <ele>1892.49</ele>
        <time>2017-07-07T10:00:27Z</time>
      </trkpt>
      <trkpt lat="46.117366533726454" lon="11.897279564291239">
        <ele>1892.49</ele>
        <time>2017-07-07T10:00:39Z</time>
      </trkpt>
      <trkpt lat="46.117372652515769" lon="11.897266823798418">
        <ele>1892.01</ele>
        <time>2017-07-07T10:00:40Z</time>
      </trkpt>
      <trkpt lat="46.117450352758169" lon="11.897194320335984">
        <ele>1892.01</ele>
        <time>2017-07-07T10:00:52Z</time>
      </trkpt>
      <trkpt lat="46.117452532052994" lon="11.897186441347003">
        <ele>1892.49</ele>
        <time>2017-07-07T10:00:53Z</time>
      </trkpt>
      <trkpt lat="46.117449598386884" lon="11.897159703075886">
        <ele>1892.01</ele>
        <time>2017-07-07T10:00:55Z</time>
      </trkpt>
      <trkpt lat="46.117435935884714" lon="11.897081080824137">
        <ele>1891.53</ele>
        <time>2017-07-07T10:01:01Z</time>
      </trkpt>
      <trkpt lat="46.117501482367516" lon="11.896960884332657">
        <ele>1891.53</ele>
        <time>2017-07-07T10:01:13Z</time>
      </trkpt>
      <trkpt lat="46.117433002218604" lon="11.896868767216802">
        <ele>1891.53</ele>
        <time>2017-07-07T10:01:25Z</time>
      </trkpt>
      <trkpt lat="46.11741229891777" lon="11.896835071966052">
        <ele>1891.53</ele>
        <time>2017-07-07T10:01:28Z</time>
      </trkpt>
      <trkpt lat="46.117427553981543" lon="11.896766256541014">
        <ele>1891.53</ele>
        <time>2017-07-07T10:01:34Z</time>
      </trkpt>
      <trkpt lat="46.117482371628284" lon="11.896713702008128">
        <ele>1891.53</ele>
        <time>2017-07-07T10:01:40Z</time>
      </trkpt>
      <trkpt lat="46.117505170404911" lon="11.896672882139683">
        <ele>1891.53</ele>
        <time>2017-07-07T10:01:44Z</time>
      </trkpt>
      <trkpt lat="46.117506427690387" lon="11.896566348150373">
        <ele>1891.53</ele>
        <time>2017-07-07T10:01:54Z</time>
      </trkpt>
      <trkpt lat="46.117544565349817" lon="11.896445481106639">
        <ele>1891.05</ele>
        <time>2017-07-07T10:02:06Z</time>
      </trkpt>
      <trkpt lat="46.117540542036295" lon="11.896392339840531">
        <ele>1891.05</ele>
        <time>2017-07-07T10:02:16Z</time>
      </trkpt>
      <trkpt lat="46.117538278922439" lon="11.896386807784438">
        <ele>1892.01</ele>
        <time>2017-07-07T10:02:25Z</time>
      </trkpt>
      <trkpt lat="46.117513133212924" lon="11.896312292665243">
        <ele>1891.53</ele>
        <time>2017-07-07T10:02:39Z</time>
      </trkpt>
      <trkpt lat="46.117479018867016" lon="11.896245740354061">
        <ele>1892.49</ele>
        <time>2017-07-07T10:02:46Z</time>
      </trkpt>
      <trkpt lat="46.117465272545815" lon="11.896225539967418">
        <ele>1891.53</ele>
        <time>2017-07-07T10:02:48Z</time>
      </trkpt>
      <trkpt lat="46.117386315017939" lon="11.896142978221178">
        <ele>1891.53</ele>
        <time>2017-07-07T10:02:57Z</time>
      </trkpt>
      <trkpt lat="46.117351278662682" lon="11.896122358739376">
        <ele>1892.01</ele>
        <time>2017-07-07T10:03:02Z</time>
      </trkpt>
      <trkpt lat="46.117321606725454" lon="11.89612302929163">
        <ele>1892.01</ele>
        <time>2017-07-07T10:03:05Z</time>
      </trkpt>
      <trkpt lat="46.117326887324452" lon="11.896070726215839">
        <ele>1891.05</ele>
        <time>2017-07-07T10:03:15Z</time>
      </trkpt>
      <trkpt lat="46.117353038862348" lon="11.896036695688963">
        <ele>1891.53</ele>
        <time>2017-07-07T10:03:32Z</time>
      </trkpt>
      <trkpt lat="46.117350775748491" lon="11.896006101742387">
        <ele>1891.05</ele>
        <time>2017-07-07T10:03:52Z</time>
      </trkpt>
      <trkpt lat="46.117363097146153" lon="11.896005179733038">
        <ele>1892.01</ele>
        <time>2017-07-07T10:04:04Z</time>
      </trkpt>
      <trkpt lat="46.117371143773198" lon="11.896010879427195">
        <ele>1892.01</ele>
        <time>2017-07-07T10:04:18Z</time>
      </trkpt>
      <trkpt lat="46.117384051904082" lon="11.896023703739047">
        <ele>1891.53</ele>
        <time>2017-07-07T10:04:37Z</time>
      </trkpt>
      <trkpt lat="46.11739419400692" lon="11.896027307957411">
        <ele>1890.0899999999999</ele>
        <time>2017-07-07T10:04:51Z</time>
      </trkpt>
      <trkpt lat="46.117389500141144" lon="11.896011047065258">
        <ele>1892.01</ele>
        <time>2017-07-07T10:04:56Z</time>
      </trkpt>
      <trkpt lat="46.117383800446987" lon="11.89599109813571">
        <ele>1892.01</ele>
        <time>2017-07-07T10:05:08Z</time>
      </trkpt>
      <trkpt lat="46.117392433807254" lon="11.89601800404489">
        <ele>1892.01</ele>
        <time>2017-07-07T10:05:24Z</time>
      </trkpt>
      <trkpt lat="46.117401318624616" lon="11.896015992388129">
        <ele>1892.01</ele>
        <time>2017-07-07T10:05:43Z</time>
      </trkpt>
      <trkpt lat="46.117396205663681" lon="11.896022446453571">
        <ele>1891.53</ele>
        <time>2017-07-07T10:05:58Z</time>
      </trkpt>
      <trkpt lat="46.117377178743482" lon="11.895977267995477">
        <ele>1892.01</ele>
        <time>2017-07-07T10:06:16Z</time>
      </trkpt>
      <trkpt lat="46.117372736334801" lon="11.89597349613905">
        <ele>1891.53</ele>
        <time>2017-07-07T10:06:26Z</time>
      </trkpt>
      <trkpt lat="46.117385057732463" lon="11.895983470603824">
        <ele>1891.53</ele>
        <time>2017-07-07T10:06:45Z</time>
      </trkpt>
      <trkpt lat="46.117430152371526" lon="11.895965533331037">
        <ele>1892.01</ele>
        <time>2017-07-07T10:07:00Z</time>
      </trkpt>
      <trkpt lat="46.117481449618936" lon="11.895908871665597">
        <ele>1893.45</ele>
        <time>2017-07-07T10:07:12Z</time>
      </trkpt>
      <trkpt lat="46.117495615035295" lon="11.895865956321359">
        <ele>1894.4200000000001</ele>
        <time>2017-07-07T10:07:23Z</time>
      </trkpt>
      <trkpt lat="46.117494441568851" lon="11.895841732621193">
        <ele>1894.4200000000001</ele>
        <time>2017-07-07T10:07:34Z</time>
      </trkpt>
      <trkpt lat="46.117490921169519" lon="11.895864279940724">
        <ele>1894.4200000000001</ele>
        <time>2017-07-07T10:07:45Z</time>
      </trkpt>
      <trkpt lat="46.117487652227283" lon="11.895816083997488">
        <ele>1894.9000000000001</ele>
        <time>2017-07-07T10:07:59Z</time>
      </trkpt>
      <trkpt lat="46.11747482791543" lon="11.895800996571779">
        <ele>1894.9000000000001</ele>
        <time>2017-07-07T10:08:14Z</time>
      </trkpt>
      <trkpt lat="46.117467116564512" lon="11.895795883610845">
        <ele>1894.9000000000001</ele>
        <time>2017-07-07T10:08:16Z</time>
      </trkpt>
      <trkpt lat="46.117448844015598" lon="11.895779790356755">
        <ele>1894.4200000000001</ele>
        <time>2017-07-07T10:08:24Z</time>
      </trkpt>
      <trkpt lat="46.1174435634166" lon="11.89574433490634">
        <ele>1895.3800000000001</ele>
        <time>2017-07-07T10:08:34Z</time>
      </trkpt>
      <trkpt lat="46.117451190948486" lon="11.895713238045573">
        <ele>1895.8599999999999</ele>
        <time>2017-07-07T10:08:44Z</time>
      </trkpt>
      <trkpt lat="46.117428140714765" lon="11.895678620785475">
        <ele>1896.3399999999999</ele>
        <time>2017-07-07T10:08:50Z</time>
      </trkpt>
      <trkpt lat="46.117403581738472" lon="11.895548198372126">
        <ele>1897.3</ele>
        <time>2017-07-07T10:09:01Z</time>
      </trkpt>
      <trkpt lat="46.117395786568522" lon="11.895421799272299">
        <ele>1897.78</ele>
        <time>2017-07-07T10:09:11Z</time>
      </trkpt>
      <trkpt lat="46.117406096309423" lon="11.895334124565125">
        <ele>1899.22</ele>
        <time>2017-07-07T10:09:20Z</time>
      </trkpt>
      <trkpt lat="46.117458650842309" lon="11.895245611667633">
        <ele>1900.6600000000001</ele>
        <time>2017-07-07T10:09:30Z</time>
      </trkpt>
      <trkpt lat="46.117485137656331" lon="11.895176209509373">
        <ele>1901.6300000000001</ele>
        <time>2017-07-07T10:09:38Z</time>
      </trkpt>
      <trkpt lat="46.117460997775197" lon="11.895121224224567">
        <ele>1903.0699999999999</ele>
        <time>2017-07-07T10:09:47Z</time>
      </trkpt>
      <trkpt lat="46.117430487647653" lon="11.895065987482667">
        <ele>1904.03</ele>
        <time>2017-07-07T10:09:55Z</time>
      </trkpt>
      <trkpt lat="46.117436857894063" lon="11.894952999427915">
        <ele>1905.47</ele>
        <time>2017-07-07T10:10:05Z</time>
      </trkpt>
      <trkpt lat="46.11751832999289" lon="11.894874209538102">
        <ele>1906.4300000000001</ele>
        <time>2017-07-07T10:10:19Z</time>
      </trkpt>
      <trkpt lat="46.117537943646312" lon="11.894849231466651">
        <ele>1906.9100000000001</ele>
        <time>2017-07-07T10:10:23Z</time>
      </trkpt>
      <trkpt lat="46.117533836513758" lon="11.894758203998208">
        <ele>1907.3900000000001</ele>
        <time>2017-07-07T10:10:35Z</time>
      </trkpt>
      <trkpt lat="46.117507684975863" lon="11.894632391631603">
        <ele>1907.8699999999999</ele>
        <time>2017-07-07T10:10:47Z</time>
      </trkpt>
      <trkpt lat="46.117535512894392" lon="11.89451496116817">
        <ele>1909.3199999999999</ele>
        <time>2017-07-07T10:10:59Z</time>
      </trkpt>
      <trkpt lat="46.117506427690387" lon="11.894403817132115">
        <ele>1910.76</ele>
        <time>2017-07-07T10:11:13Z</time>
      </trkpt>
      <trkpt lat="46.117497207596898" lon="11.894252104684711">
        <ele>1912.6800000000001</ele>
        <time>2017-07-07T10:11:28Z</time>
      </trkpt>
      <trkpt lat="46.117512211203575" lon="11.894212290644646">
        <ele>1913.6400000000001</ele>
        <time>2017-07-07T10:11:40Z</time>
      </trkpt>
      <trkpt lat="46.117559233680367" lon="11.894170800223947">
        <ele>1914.5999999999999</ele>
        <time>2017-07-07T10:11:52Z</time>
      </trkpt>
      <trkpt lat="46.117577254772186" lon="11.894082119688392">
        <ele>1915.0799999999999</ele>
        <time>2017-07-07T10:12:03Z</time>
      </trkpt>
      <trkpt lat="46.117562921717763" lon="11.894045155495405">
        <ele>1915.5599999999999</ele>
        <time>2017-07-07T10:12:16Z</time>
      </trkpt>
      <trkpt lat="46.117585133761168" lon="11.893908614292741">
        <ele>1916.04</ele>
        <time>2017-07-07T10:12:26Z</time>
      </trkpt>
      <trkpt lat="46.117618074640632" lon="11.893827728927135">
        <ele>1916.53</ele>
        <time>2017-07-07T10:12:41Z</time>
      </trkpt>
      <trkpt lat="46.117615476250648" lon="11.893796883523464">
        <ele>1916.53</ele>
        <time>2017-07-07T10:12:53Z</time>
      </trkpt>
      <trkpt lat="46.117607345804572" lon="11.893745502457023">
        <ele>1916.53</ele>
        <time>2017-07-07T10:13:06Z</time>
      </trkpt>
      <trkpt lat="46.117553533986211" lon="11.893734438344836">
        <ele>1917.49</ele>
        <time>2017-07-07T10:13:17Z</time>
      </trkpt>
      <trkpt lat="46.11749678850174" lon="11.893690600991249">
        <ele>1918.9300000000001</ele>
        <time>2017-07-07T10:13:28Z</time>
      </trkpt>
      <trkpt lat="46.11749142408371" lon="11.893689343705773">
        <ele>1918.9300000000001</ele>
        <time>2017-07-07T10:13:30Z</time>
      </trkpt>
      <trkpt lat="46.117457477375865" lon="11.893700826913118">
        <ele>1919.4100000000001</ele>
        <time>2017-07-07T10:13:39Z</time>
      </trkpt>
      <trkpt lat="46.117410287261009" lon="11.893647853285074">
        <ele>1920.3699999999999</ele>
        <time>2017-07-07T10:13:52Z</time>
      </trkpt>
      <trkpt lat="46.117347506806254" lon="11.893611643463373">
        <ele>1921.8099999999999</ele>
        <time>2017-07-07T10:14:02Z</time>
      </trkpt>
      <trkpt lat="46.117361756041646" lon="11.893514497205615">
        <ele>1923.25</ele>
        <time>2017-07-07T10:14:12Z</time>
      </trkpt>
      <trkpt lat="46.117366114631295" lon="11.893420619890094">
        <ele>1925.1800000000001</ele>
        <time>2017-07-07T10:14:24Z</time>
      </trkpt>
      <trkpt lat="46.117384554818273" lon="11.893366724252701">
        <ele>1926.1400000000001</ele>
        <time>2017-07-07T10:14:33Z</time>
      </trkpt>
      <trkpt lat="46.117438366636634" lon="11.89334325492382">
        <ele>1928.0599999999999</ele>
        <time>2017-07-07T10:14:47Z</time>
      </trkpt>
      <trkpt lat="46.117469631135464" lon="11.893311319872737">
        <ele>1929.02</ele>
        <time>2017-07-07T10:14:54Z</time>
      </trkpt>
      <trkpt lat="46.117459489032626" lon="11.893253149464726">
        <ele>1929.98</ele>
        <time>2017-07-07T10:15:04Z</time>
      </trkpt>
      <trkpt lat="46.117474576458335" lon="11.893168240785599">
        <ele>1931.4300000000001</ele>
        <time>2017-07-07T10:15:16Z</time>
      </trkpt>
      <trkpt lat="46.117487652227283" lon="11.893139826133847">
        <ele>1932.8699999999999</ele>
        <time>2017-07-07T10:15:29Z</time>
      </trkpt>
      <trkpt lat="46.117541883140802" lon="11.893207635730505">
        <ele>1934.3099999999999</ele>
        <time>2017-07-07T10:15:40Z</time>
      </trkpt>
      <trkpt lat="46.117576165124774" lon="11.89327728934586">
        <ele>1936.23</ele>
        <time>2017-07-07T10:15:52Z</time>
      </trkpt>
      <trkpt lat="46.117586307227612" lon="11.893292125314474">
        <ele>1936.71</ele>
        <time>2017-07-07T10:16:00Z</time>
      </trkpt>
      <trkpt lat="46.117588821798563" lon="11.893308386206627">
        <ele>1936.71</ele>
        <time>2017-07-07T10:16:02Z</time>
      </trkpt>
      <trkpt lat="46.117604244500399" lon="11.893378123641014">
        <ele>1938.1600000000001</ele>
        <time>2017-07-07T10:16:12Z</time>
      </trkpt>
      <trkpt lat="46.117595946416259" lon="11.893462194129825">
        <ele>1939.1199999999999</ele>
        <time>2017-07-07T10:16:23Z</time>
      </trkpt>
      <trkpt lat="46.117612961679697" lon="11.893399162217975">
        <ele>1940.5599999999999</ele>
        <time>2017-07-07T10:16:34Z</time>
      </trkpt>
      <trkpt lat="46.117654033005238" lon="11.893318695947528">
        <ele>1942</ele>
        <time>2017-07-07T10:16:46Z</time>
      </trkpt>
      <trkpt lat="46.117680687457323" lon="11.89327041618526">
        <ele>1942.96</ele>
        <time>2017-07-07T10:16:58Z</time>
      </trkpt>
      <trkpt lat="46.117697199806571" lon="11.893231105059385">
        <ele>1943.9200000000001</ele>
        <time>2017-07-07T10:17:09Z</time>
      </trkpt>
      <trkpt lat="46.117689739912748" lon="11.893190536648035">
        <ele>1944.4000000000001</ele>
        <time>2017-07-07T10:17:19Z</time>
      </trkpt>
      <trkpt lat="46.117671635001898" lon="11.893167989328504">
        <ele>1945.8499999999999</ele>
        <time>2017-07-07T10:17:28Z</time>
      </trkpt>
      <trkpt lat="46.11764338798821" lon="11.893152231350541">
        <ele>1946.8099999999999</ele>
        <time>2017-07-07T10:17:37Z</time>
      </trkpt>
      <trkpt lat="46.117650093510747" lon="11.893048882484436">
        <ele>1948.25</ele>
        <time>2017-07-07T10:17:48Z</time>
      </trkpt>
      <trkpt lat="46.117671299725771" lon="11.892976965755224">
        <ele>1949.6900000000001</ele>
        <time>2017-07-07T10:18:00Z</time>
      </trkpt>
      <trkpt lat="46.117644561454654" lon="11.892905384302139">
        <ele>1951.6099999999999</ele>
        <time>2017-07-07T10:18:13Z</time>
      </trkpt>
      <trkpt lat="46.117628552019596" lon="11.892843944951892">
        <ele>1953.0599999999999</ele>
        <time>2017-07-07T10:18:25Z</time>
      </trkpt>
      <trkpt lat="46.1175955273211" lon="11.892787283286452">
        <ele>1954.5</ele>
        <time>2017-07-07T10:18:37Z</time>
      </trkpt>
      <trkpt lat="46.117593348026276" lon="11.892736405134201">
        <ele>1954.98</ele>
        <time>2017-07-07T10:18:47Z</time>
      </trkpt>
      <trkpt lat="46.117583625018597" lon="11.892701871693134">
        <ele>1954.98</ele>
        <time>2017-07-07T10:18:58Z</time>
      </trkpt>
      <trkpt lat="46.11758085899055" lon="11.892699440941215">
        <ele>1956.4200000000001</ele>
        <time>2017-07-07T10:19:00Z</time>
      </trkpt>
      <trkpt lat="46.117570381611586" lon="11.892682090401649">
        <ele>1956.4200000000001</ele>
        <time>2017-07-07T10:19:11Z</time>
      </trkpt>
      <trkpt lat="46.117568369954824" lon="11.892646551132202">
        <ele>1957.8599999999999</ele>
        <time>2017-07-07T10:19:24Z</time>
      </trkpt>
      <trkpt lat="46.117614218965173" lon="11.892676474526525">
        <ele>1958.8199999999999</ele>
        <time>2017-07-07T10:19:37Z</time>
      </trkpt>
      <trkpt lat="46.117668952792883" lon="11.892701201140881">
        <ele>1960.27</ele>
        <time>2017-07-07T10:19:46Z</time>
      </trkpt>
      <trkpt lat="46.117734415456653" lon="11.892735483124852">
        <ele>1961.71</ele>
        <time>2017-07-07T10:19:56Z</time>
      </trkpt>
      <trkpt lat="46.117759309709072" lon="11.892813351005316">
        <ele>1963.1500000000001</ele>
        <time>2017-07-07T10:20:05Z</time>
      </trkpt>
      <trkpt lat="46.117815217003226" lon="11.892832545563579">
        <ele>1964.5899999999999</ele>
        <time>2017-07-07T10:20:19Z</time>
      </trkpt>
      <trkpt lat="46.117850756272674" lon="11.89280865713954">
        <ele>1966.03</ele>
        <time>2017-07-07T10:20:28Z</time>
      </trkpt>
      <trkpt lat="46.117861988022923" lon="11.892775297164917">
        <ele>1966.51</ele>
        <time>2017-07-07T10:20:39Z</time>
      </trkpt>
      <trkpt lat="46.11789358779788" lon="11.892768675461411">
        <ele>1968.4400000000001</ele>
        <time>2017-07-07T10:20:50Z</time>
      </trkpt>
      <trkpt lat="46.117934659123421" lon="11.892649820074439">
        <ele>1981.4100000000001</ele>
        <time>2017-07-07T10:22:47Z</time>
      </trkpt>
      <trkpt lat="46.117916889488697" lon="11.892573712393641">
        <ele>1981.4100000000001</ele>
        <time>2017-07-07T10:22:56Z</time>
      </trkpt>
      <trkpt lat="46.117892749607563" lon="11.8925223313272">
        <ele>1982.8599999999999</ele>
        <time>2017-07-07T10:23:07Z</time>
      </trkpt>
      <trkpt lat="46.117880847305059" lon="11.892533227801323">
        <ele>1984.3</ele>
        <time>2017-07-07T10:23:16Z</time>
      </trkpt>
      <trkpt lat="46.117811612784863" lon="11.892496179789305">
        <ele>1985.26</ele>
        <time>2017-07-07T10:23:28Z</time>
      </trkpt>
      <trkpt lat="46.117785042151809" lon="11.892412528395653">
        <ele>1986.7</ele>
        <time>2017-07-07T10:23:39Z</time>
      </trkpt>
      <trkpt lat="46.117779342457652" lon="11.89236793667078">
        <ele>1987.6600000000001</ele>
        <time>2017-07-07T10:23:53Z</time>
      </trkpt>
      <trkpt lat="46.117733996361494" lon="11.892323512583971">
        <ele>1988.6199999999999</ele>
        <time>2017-07-07T10:24:02Z</time>
      </trkpt>
      <trkpt lat="46.117702648043633" lon="11.892251428216696">
        <ele>1991.51</ele>
        <time>2017-07-07T10:24:14Z</time>
      </trkpt>
      <trkpt lat="46.117640035226941" lon="11.8922667670995">
        <ele>1991.03</ele>
        <time>2017-07-07T10:24:23Z</time>
      </trkpt>
      <trkpt lat="46.117635508999228" lon="11.892270874232054">
        <ele>1991.03</ele>
        <time>2017-07-07T10:24:24Z</time>
      </trkpt>
      <trkpt lat="46.11759016290307" lon="11.892257547006011">
        <ele>1992.95</ele>
        <time>2017-07-07T10:24:34Z</time>
      </trkpt>
      <trkpt lat="46.117546074092388" lon="11.89222376793623">
        <ele>1993.9100000000001</ele>
        <time>2017-07-07T10:24:46Z</time>
      </trkpt>
      <trkpt lat="46.117602232843637" lon="11.892165094614029">
        <ele>1994.8699999999999</ele>
        <time>2017-07-07T10:24:57Z</time>
      </trkpt>
      <trkpt lat="46.117649842053652" lon="11.892106756567955">
        <ele>1996.3199999999999</ele>
        <time>2017-07-07T10:25:12Z</time>
      </trkpt>
      <trkpt lat="46.117668030783534" lon="11.892089322209358">
        <ele>1997.28</ele>
        <time>2017-07-07T10:25:22Z</time>
      </trkpt>
      <trkpt lat="46.117598963901401" lon="11.892108097672462">
        <ele>1998.72</ele>
        <time>2017-07-07T10:25:35Z</time>
      </trkpt>
      <trkpt lat="46.117550851777196" lon="11.892011370509863">
        <ele>2000.6400000000001</ele>
        <time>2017-07-07T10:25:49Z</time>
      </trkpt>
      <trkpt lat="46.117487736046314" lon="11.891922187060118">
        <ele>2002.0799999999999</ele>
        <time>2017-07-07T10:26:05Z</time>
      </trkpt>
      <trkpt lat="46.117447502911091" lon="11.891877427697182">
        <ele>2004.01</ele>
        <time>2017-07-07T10:26:17Z</time>
      </trkpt>
      <trkpt lat="46.117411963641644" lon="11.891868459060788">
        <ele>2004.01</ele>
        <time>2017-07-07T10:26:29Z</time>
      </trkpt>
      <trkpt lat="46.117375837638974" lon="11.891744155436754">
        <ele>2005.45</ele>
        <time>2017-07-07T10:26:40Z</time>
      </trkpt>
      <trkpt lat="46.117349099367857" lon="11.891593616455793">
        <ele>2007.3699999999999</ele>
        <time>2017-07-07T10:26:54Z</time>
      </trkpt>
      <trkpt lat="46.117383046075702" lon="11.891459338366985">
        <ele>2008.3299999999999</ele>
        <time>2017-07-07T10:27:06Z</time>
      </trkpt>
      <trkpt lat="46.117434678599238" lon="11.891369400545955">
        <ele>2009.77</ele>
        <time>2017-07-07T10:27:18Z</time>
      </trkpt>
      <trkpt lat="46.11748262308538" lon="11.891290191560984">
        <ele>2010.73</ele>
        <time>2017-07-07T10:27:31Z</time>
      </trkpt>
      <trkpt lat="46.117531154304743" lon="11.891233194619417">
        <ele>2012.1800000000001</ele>
        <time>2017-07-07T10:27:44Z</time>
      </trkpt>
      <trkpt lat="46.117509193718433" lon="11.89117519184947">
        <ele>2012.1800000000001</ele>
        <time>2017-07-07T10:27:55Z</time>
      </trkpt>
      <trkpt lat="46.117441635578871" lon="11.891143759712577">
        <ele>2013.6199999999999</ele>
        <time>2017-07-07T10:28:07Z</time>
      </trkpt>
      <trkpt lat="46.117429314181209" lon="11.891020210459828">
        <ele>2015.0599999999999</ele>
        <time>2017-07-07T10:28:20Z</time>
      </trkpt>
      <trkpt lat="46.117438115179539" lon="11.890927087515593">
        <ele>2015.0599999999999</ele>
        <time>2017-07-07T10:28:30Z</time>
      </trkpt>
      <trkpt lat="46.117441719397902" lon="11.890809573233128">
        <ele>2017.46</ele>
        <time>2017-07-07T10:28:44Z</time>
      </trkpt>
      <trkpt lat="46.117425877600908" lon="11.890702284872532">
        <ele>2018.4300000000001</ele>
        <time>2017-07-07T10:28:57Z</time>
      </trkpt>
      <trkpt lat="46.117386650294065" lon="11.890638750046492">
        <ele>2019.8699999999999</ele>
        <time>2017-07-07T10:29:06Z</time>
      </trkpt>
      <trkpt lat="46.117336442694068" lon="11.890566749498248">
        <ele>2020.8299999999999</ele>
        <time>2017-07-07T10:29:18Z</time>
      </trkpt>
      <trkpt lat="46.11725740134716" lon="11.890459628775716">
        <ele>2022.75</ele>
        <time>2017-07-07T10:29:33Z</time>
      </trkpt>
      <trkpt lat="46.117209289222956" lon="11.890358291566372">
        <ele>2024.6700000000001</ele>
        <time>2017-07-07T10:29:47Z</time>
      </trkpt>
      <trkpt lat="46.117157991975546" lon="11.890282435342669">
        <ele>2025.6400000000001</ele>
        <time>2017-07-07T10:29:58Z</time>
      </trkpt>
      <trkpt lat="46.117081800475717" lon="11.890196185559034">
        <ele>2026.5999999999999</ele>
        <time>2017-07-07T10:30:12Z</time>
      </trkpt>
      <trkpt lat="46.116996221244335" lon="11.890137596055865">
        <ele>2028.04</ele>
        <time>2017-07-07T10:30:26Z</time>
      </trkpt>
      <trkpt lat="46.1169324349612" lon="11.890086634084582">
        <ele>2029</ele>
        <time>2017-07-07T10:30:37Z</time>
      </trkpt>
      <trkpt lat="46.116860937327147" lon="11.890061739832163">
        <ele>2029.96</ele>
        <time>2017-07-07T10:30:47Z</time>
      </trkpt>
      <trkpt lat="46.11677024513483" lon="11.88996727578342">
        <ele>2031.4000000000001</ele>
        <time>2017-07-07T10:31:00Z</time>
      </trkpt>
      <trkpt lat="46.116675194352865" lon="11.889855042099953">
        <ele>2032.8399999999999</ele>
        <time>2017-07-07T10:31:16Z</time>
      </trkpt>
      <trkpt lat="46.116599924862385" lon="11.889755465090275">
        <ele>2033.8099999999999</ele>
        <time>2017-07-07T10:31:30Z</time>
      </trkpt>
      <trkpt lat="46.116541922092438" lon="11.8897161539644">
        <ele>2034.77</ele>
        <time>2017-07-07T10:31:40Z</time>
      </trkpt>
      <trkpt lat="46.116520464420319" lon="11.889703078195453">
        <ele>2035.25</ele>
        <time>2017-07-07T10:31:43Z</time>
      </trkpt>
      <trkpt lat="46.116489032283425" lon="11.889680111780763">
        <ele>2035.25</ele>
        <time>2017-07-07T10:31:47Z</time>
      </trkpt>
      <trkpt lat="46.11643454991281" lon="11.889633005484939">
        <ele>2035.25</ele>
        <time>2017-07-07T10:31:56Z</time>
      </trkpt>
      <trkpt lat="46.116388868540525" lon="11.889551281929016">
        <ele>2035.25</ele>
        <time>2017-07-07T10:32:07Z</time>
      </trkpt>
      <trkpt lat="46.116374284029007" lon="11.889497637748718">
        <ele>2036.6900000000001</ele>
        <time>2017-07-07T10:32:18Z</time>
      </trkpt>
      <trkpt lat="46.116372859105468" lon="11.889486070722342">
        <ele>2035.25</ele>
        <time>2017-07-07T10:32:31Z</time>
      </trkpt>
      <trkpt lat="46.116367410868406" lon="11.889482885599136">
        <ele>2035.73</ele>
        <time>2017-07-07T10:32:43Z</time>
      </trkpt>
      <trkpt lat="46.116364812478423" lon="11.889509540051222">
        <ele>2034.77</ele>
        <time>2017-07-07T10:32:54Z</time>
      </trkpt>
      <trkpt lat="46.116359699517488" lon="11.889494368806481">
        <ele>2035.25</ele>
        <time>2017-07-07T10:33:09Z</time>
      </trkpt>
      <trkpt lat="46.11636858433485" lon="11.889502750709653">
        <ele>2035.25</ele>
        <time>2017-07-07T10:33:36Z</time>
      </trkpt>
      <trkpt lat="46.116383587941527" lon="11.889539547264576">
        <ele>2035.25</ele>
        <time>2017-07-07T10:33:58Z</time>
      </trkpt>
      <trkpt lat="46.116364728659391" lon="11.889546671882272">
        <ele>2035.25</ele>
        <time>2017-07-07T10:34:29Z</time>
      </trkpt>
      <trkpt lat="46.116381827741861" lon="11.889537451788783">
        <ele>2035.25</ele>
        <time>2017-07-07T10:34:55Z</time>
      </trkpt>
      <trkpt lat="46.116380486637354" lon="11.889518173411489">
        <ele>2035.25</ele>
        <time>2017-07-07T10:35:18Z</time>
      </trkpt>
      <trkpt lat="46.116376630961895" lon="11.889514066278934">
        <ele>2035.25</ele>
        <time>2017-07-07T10:35:47Z</time>
      </trkpt>
      <trkpt lat="46.116392472758889" lon="11.889517335221171">
        <ele>2035.25</ele>
        <time>2017-07-07T10:36:10Z</time>
      </trkpt>
      <trkpt lat="46.116367829963565" lon="11.889511551707983">
        <ele>2035.25</ele>
        <time>2017-07-07T10:36:33Z</time>
      </trkpt>
      <trkpt lat="46.116357604041696" lon="11.889525214210153">
        <ele>2035.25</ele>
        <time>2017-07-07T10:37:05Z</time>
      </trkpt>
      <trkpt lat="46.116364477202296" lon="11.889521609991789">
        <ele>2035.25</ele>
        <time>2017-07-07T10:37:27Z</time>
      </trkpt>
      <trkpt lat="46.116383587941527" lon="11.889510964974761">
        <ele>2035.25</ele>
        <time>2017-07-07T10:37:54Z</time>
      </trkpt>
      <trkpt lat="46.116366824135184" lon="11.88952018506825">
        <ele>2035.73</ele>
        <time>2017-07-07T10:38:22Z</time>
      </trkpt>
      <trkpt lat="46.116373864933848" lon="11.889508953318">
        <ele>2034.77</ele>
        <time>2017-07-07T10:38:49Z</time>
      </trkpt>
      <trkpt lat="46.116370763629675" lon="11.889519514515996">
        <ele>2035.25</ele>
        <time>2017-07-07T10:39:12Z</time>
      </trkpt>
      <trkpt lat="46.116362800821662" lon="11.889515658840537">
        <ele>2035.25</ele>
        <time>2017-07-07T10:39:35Z</time>
      </trkpt>
      <trkpt lat="46.11636221408844" lon="11.889507109299302">
        <ele>2035.25</ele>
        <time>2017-07-07T10:39:51Z</time>
      </trkpt>
      <trkpt lat="46.116377133876085" lon="11.889485064893961">
        <ele>2036.21</ele>
        <time>2017-07-07T10:40:05Z</time>
      </trkpt>
      <trkpt lat="46.116374703124166" lon="11.88948548398912">
        <ele>2036.21</ele>
        <time>2017-07-07T10:40:30Z</time>
      </trkpt>
      <trkpt lat="46.116373781114817" lon="11.889468971639872">
        <ele>2035.73</ele>
        <time>2017-07-07T10:40:51Z</time>
      </trkpt>
      <trkpt lat="46.116397585719824" lon="11.889514736831188">
        <ele>2035.25</ele>
        <time>2017-07-07T10:41:09Z</time>
      </trkpt>
      <trkpt lat="46.116387946531177" lon="11.889524878934026">
        <ele>2035.25</ele>
        <time>2017-07-07T10:41:30Z</time>
      </trkpt>
      <trkpt lat="46.116400435566902" lon="11.88951431773603">
        <ele>2035.73</ele>
        <time>2017-07-07T10:41:59Z</time>
      </trkpt>
      <trkpt lat="46.116391634568572" lon="11.889519765973091">
        <ele>2035.25</ele>
        <time>2017-07-07T10:42:14Z</time>
      </trkpt>
      <trkpt lat="46.116385264322162" lon="11.889524292200804">
        <ele>2035.73</ele>
        <time>2017-07-07T10:42:42Z</time>
      </trkpt>
      <trkpt lat="46.116383755579591" lon="11.889516748487949">
        <ele>2035.25</ele>
        <time>2017-07-07T10:42:55Z</time>
      </trkpt>
      <trkpt lat="46.116384593769908" lon="11.889510964974761">
        <ele>2035.25</ele>
        <time>2017-07-07T10:42:59Z</time>
      </trkpt>
      <trkpt lat="46.116374116390944" lon="11.889533679932356">
        <ele>2035.73</ele>
        <time>2017-07-07T10:43:06Z</time>
      </trkpt>
      <trkpt lat="46.116362130269408" lon="11.88951431773603">
        <ele>2036.21</ele>
        <time>2017-07-07T10:43:18Z</time>
      </trkpt>
      <trkpt lat="46.116346959024668" lon="11.88944592140615">
        <ele>2036.21</ele>
        <time>2017-07-07T10:43:31Z</time>
      </trkpt>
      <trkpt lat="46.11630991101265" lon="11.889352463185787">
        <ele>2036.21</ele>
        <time>2017-07-07T10:43:41Z</time>
      </trkpt>
      <trkpt lat="46.116281496360898" lon="11.889263028278947">
        <ele>2036.21</ele>
        <time>2017-07-07T10:43:52Z</time>
      </trkpt>
      <trkpt lat="46.116261715069413" lon="11.88921625725925">
        <ele>2036.21</ele>
        <time>2017-07-07T10:44:06Z</time>
      </trkpt>
      <trkpt lat="46.11619608476758" lon="11.889061275869608">
        <ele>2036.21</ele>
        <time>2017-07-07T10:44:19Z</time>
      </trkpt>
      <trkpt lat="46.116128694266081" lon="11.888925489038229">
        <ele>2036.21</ele>
        <time>2017-07-07T10:44:30Z</time>
      </trkpt>
      <trkpt lat="46.116088377311826" lon="11.888761790469289">
        <ele>2036.6900000000001</ele>
        <time>2017-07-07T10:44:42Z</time>
      </trkpt>
      <trkpt lat="46.116068093106151" lon="11.888598762452602">
        <ele>2036.6900000000001</ele>
        <time>2017-07-07T10:44:56Z</time>
      </trkpt>
      <trkpt lat="46.116031212732196" lon="11.888462556526065">
        <ele>2036.6900000000001</ele>
        <time>2017-07-07T10:45:06Z</time>
      </trkpt>
      <trkpt lat="46.116018891334534" lon="11.888406062498689">
        <ele>2036.6900000000001</ele>
        <time>2017-07-07T10:45:10Z</time>
      </trkpt>
      <trkpt lat="46.115976143628359" lon="11.888234568759799">
        <ele>2036.6900000000001</ele>
        <time>2017-07-07T10:45:23Z</time>
      </trkpt>
      <trkpt lat="46.115931048989296" lon="11.888102134689689">
        <ele>2036.6900000000001</ele>
        <time>2017-07-07T10:45:35Z</time>
      </trkpt>
      <trkpt lat="46.115889055654407" lon="11.888009514659643">
        <ele>2036.6900000000001</ele>
        <time>2017-07-07T10:45:46Z</time>
      </trkpt>
      <trkpt lat="46.115851337090135" lon="11.887889904901385">
        <ele>2036.6900000000001</ele>
        <time>2017-07-07T10:45:57Z</time>
      </trkpt>
      <trkpt lat="46.115814372897148" lon="11.887798542156816">
        <ele>2037.6500000000001</ele>
        <time>2017-07-07T10:46:06Z</time>
      </trkpt>
      <trkpt lat="46.115775061771274" lon="11.887727128341794">
        <ele>2037.1700000000001</ele>
        <time>2017-07-07T10:46:14Z</time>
      </trkpt>
      <trkpt lat="46.115738349035382" lon="11.887633334845304">
        <ele>2037.1700000000001</ele>
        <time>2017-07-07T10:46:22Z</time>
      </trkpt>
      <trkpt lat="46.11565662547946" lon="11.887498972937465">
        <ele>2037.1700000000001</ele>
        <time>2017-07-07T10:46:35Z</time>
      </trkpt>
      <trkpt lat="46.115624187514186" lon="11.887437114492059">
        <ele>2036.6900000000001</ele>
        <time>2017-07-07T10:46:44Z</time>
      </trkpt>
      <trkpt lat="46.115594934672117" lon="11.887362180277705">
        <ele>2037.6500000000001</ele>
        <time>2017-07-07T10:46:54Z</time>
      </trkpt>
      <trkpt lat="46.115535171702504" lon="11.88724466599524">
        <ele>2036.6900000000001</ele>
        <time>2017-07-07T10:47:06Z</time>
      </trkpt>
      <trkpt lat="46.115461494773626" lon="11.887134024873376">
        <ele>2037.1700000000001</ele>
        <time>2017-07-07T10:47:18Z</time>
      </trkpt>
      <trkpt lat="46.115375328809023" lon="11.88700913451612">
        <ele>2037.1700000000001</ele>
        <time>2017-07-07T10:47:31Z</time>
      </trkpt>
      <trkpt lat="46.115328222513199" lon="11.886925650760531">
        <ele>2036.6900000000001</ele>
        <time>2017-07-07T10:47:43Z</time>
      </trkpt>
      <trkpt lat="46.115284971892834" lon="11.886883238330483">
        <ele>2036.6900000000001</ele>
        <time>2017-07-07T10:47:53Z</time>
      </trkpt>
      <trkpt lat="46.11521833576262" lon="11.88682054169476">
        <ele>2037.1700000000001</ele>
        <time>2017-07-07T10:48:05Z</time>
      </trkpt>
      <trkpt lat="46.115143988281488" lon="11.886727251112461">
        <ele>2036.6900000000001</ele>
        <time>2017-07-07T10:48:16Z</time>
      </trkpt>
      <trkpt lat="46.114998143166304" lon="11.886650053784251">
        <ele>2036.6900000000001</ele>
        <time>2017-07-07T10:48:31Z</time>
      </trkpt>
      <trkpt lat="46.114941481500864" lon="11.886633960530162">
        <ele>2036.6900000000001</ele>
        <time>2017-07-07T10:48:42Z</time>
      </trkpt>
      <trkpt lat="46.114901918917894" lon="11.886621806770563">
        <ele>2036.6900000000001</ele>
        <time>2017-07-07T10:48:51Z</time>
      </trkpt>
      <trkpt lat="46.114828996360302" lon="11.886592386290431">
        <ele>2037.1700000000001</ele>
        <time>2017-07-07T10:49:01Z</time>
      </trkpt>
      <trkpt lat="46.114781722426414" lon="11.886519715189934">
        <ele>2037.6500000000001</ele>
        <time>2017-07-07T10:49:10Z</time>
      </trkpt>
      <trkpt lat="46.114744590595365" lon="11.886431956663728">
        <ele>2038.6099999999999</ele>
        <time>2017-07-07T10:49:19Z</time>
      </trkpt>
      <trkpt lat="46.114683067426085" lon="11.886362303048372">
        <ele>2040.05</ele>
        <time>2017-07-07T10:49:30Z</time>
      </trkpt>
      <trkpt lat="46.114641074091196" lon="11.886285357177258">
        <ele>2041.5</ele>
        <time>2017-07-07T10:49:39Z</time>
      </trkpt>
      <trkpt lat="46.114638727158308" lon="11.886210590600967">
        <ele>2042.9400000000001</ele>
        <time>2017-07-07T10:49:48Z</time>
      </trkpt>
      <trkpt lat="46.114666722714901" lon="11.886117467656732">
        <ele>2043.4200000000001</ele>
        <time>2017-07-07T10:49:59Z</time>
      </trkpt>
      <trkpt lat="46.114668231457472" lon="11.886099949479103">
        <ele>2044.3800000000001</ele>
        <time>2017-07-07T10:50:01Z</time>
      </trkpt>
      <trkpt lat="46.114695807918906" lon="11.886024512350559">
        <ele>2045.8199999999999</ele>
        <time>2017-07-07T10:50:12Z</time>
      </trkpt>
      <trkpt lat="46.114700920879841" lon="11.885923510417342">
        <ele>2046.78</ele>
        <time>2017-07-07T10:50:23Z</time>
      </trkpt>
      <trkpt lat="46.114734699949622" lon="11.885764924809337">
        <ele>2047.75</ele>
        <time>2017-07-07T10:50:37Z</time>
      </trkpt>
      <trkpt lat="46.114770239219069" lon="11.885627964511514">
        <ele>2048.71</ele>
        <time>2017-07-07T10:50:49Z</time>
      </trkpt>
      <trkpt lat="46.114813489839435" lon="11.885508606210351">
        <ele>2050.1500000000001</ele>
        <time>2017-07-07T10:51:02Z</time>
      </trkpt>
      <trkpt lat="46.114834193140268" lon="11.885405005887151">
        <ele>2051.5900000000001</ele>
        <time>2017-07-07T10:51:13Z</time>
      </trkpt>
      <trkpt lat="46.114835534244776" lon="11.885242648422718">
        <ele>2052.5500000000002</ele>
        <time>2017-07-07T10:51:28Z</time>
      </trkpt>
      <trkpt lat="46.114851962774992" lon="11.885133264586329">
        <ele>2053.9899999999998</ele>
        <time>2017-07-07T10:51:39Z</time>
      </trkpt>
      <trkpt lat="46.114876354113221" lon="11.885023629292846">
        <ele>2054.96</ele>
        <time>2017-07-07T10:51:50Z</time>
      </trkpt>
      <trkpt lat="46.114945840090513" lon="11.884996136650443">
        <ele>2055.9200000000001</ele>
        <time>2017-07-07T10:52:02Z</time>
      </trkpt>
      <trkpt lat="46.11501851119101" lon="11.88494274392724">
        <ele>2056.8800000000001</ele>
        <time>2017-07-07T10:52:14Z</time>
      </trkpt>
      <trkpt lat="46.115071317180991" lon="11.88489580526948">
        <ele>2058.8000000000002</ele>
        <time>2017-07-07T10:52:26Z</time>
      </trkpt>
      <trkpt lat="46.115145077928901" lon="11.884815841913223">
        <ele>2060.2399999999998</ele>
        <time>2017-07-07T10:52:39Z</time>
      </trkpt>
      <trkpt lat="46.11520366743207" lon="11.884740153327584">
        <ele>2061.1999999999998</ele>
        <time>2017-07-07T10:52:51Z</time>
      </trkpt>
      <trkpt lat="46.115263514220715" lon="11.884675109758973">
        <ele>2062.6500000000001</ele>
        <time>2017-07-07T10:53:03Z</time>
      </trkpt>
      <trkpt lat="46.115315901115537" lon="11.884604031220078">
        <ele>2064.5700000000002</ele>
        <time>2017-07-07T10:53:15Z</time>
      </trkpt>
      <trkpt lat="46.115363007411361" lon="11.884513422846794">
        <ele>2065.5300000000002</ele>
        <time>2017-07-07T10:53:27Z</time>
      </trkpt>
      <trkpt lat="46.11542159691453" lon="11.884436728432775">
        <ele>2066.9699999999998</ele>
        <time>2017-07-07T10:53:40Z</time>
      </trkpt>
      <trkpt lat="46.115480186417699" lon="11.884347628802061">
        <ele>2068.8899999999999</ele>
        <time>2017-07-07T10:53:53Z</time>
      </trkpt>
      <trkpt lat="46.115546319633722" lon="11.884259032085538">
        <ele>2069.8600000000001</ele>
        <time>2017-07-07T10:54:06Z</time>
      </trkpt>
      <trkpt lat="46.115618236362934" lon="11.884167836979032">
        <ele>2071.7800000000002</ele>
        <time>2017-07-07T10:54:20Z</time>
      </trkpt>
      <trkpt lat="46.115672299638391" lon="11.884097931906581">
        <ele>2073.6999999999998</ele>
        <time>2017-07-07T10:54:33Z</time>
      </trkpt>
      <trkpt lat="46.115738181397319" lon="11.884019393473864">
        <ele>2074.6599999999999</ele>
        <time>2017-07-07T10:54:45Z</time>
      </trkpt>
      <trkpt lat="46.115783527493477" lon="11.883937502279878">
        <ele>2075.6199999999999</ele>
        <time>2017-07-07T10:54:55Z</time>
      </trkpt>
      <trkpt lat="46.115803560242057" lon="11.883887462317944">
        <ele>2076.5900000000001</ele>
        <time>2017-07-07T10:55:04Z</time>
      </trkpt>
      <trkpt lat="46.115828370675445" lon="11.883836584165692">
        <ele>2077.5500000000002</ele>
        <time>2017-07-07T10:55:15Z</time>
      </trkpt>
      <trkpt lat="46.115885702893138" lon="11.883730804547668">
        <ele>2077.5500000000002</ele>
        <time>2017-07-07T10:55:27Z</time>
      </trkpt>
      <trkpt lat="46.115937083959579" lon="11.883603483438492">
        <ele>2078.9899999999998</ele>
        <time>2017-07-07T10:55:40Z</time>
      </trkpt>
      <trkpt lat="46.115945465862751" lon="11.883581019937992">
        <ele>2078.9899999999998</ele>
        <time>2017-07-07T10:55:42Z</time>
      </trkpt>
      <trkpt lat="46.11599282361567" lon="11.883495692163706">
        <ele>2080.4299999999998</ele>
        <time>2017-07-07T10:55:52Z</time>
      </trkpt>
      <trkpt lat="46.116058202460408" lon="11.88336786814034">
        <ele>2080.9099999999999</ele>
        <time>2017-07-07T10:56:05Z</time>
      </trkpt>
      <trkpt lat="46.116107404232025" lon="11.883289916440845">
        <ele>2081.3899999999999</ele>
        <time>2017-07-07T10:56:14Z</time>
      </trkpt>
      <trkpt lat="46.116150571033359" lon="11.883220765739679">
        <ele>2081.8699999999999</ele>
        <time>2017-07-07T10:56:25Z</time>
      </trkpt>
      <trkpt lat="46.116192564368248" lon="11.8831108789891">
        <ele>2082.3499999999999</ele>
        <time>2017-07-07T10:56:38Z</time>
      </trkpt>
      <trkpt lat="46.116198431700468" lon="11.883095372468233">
        <ele>2082.3499999999999</ele>
        <time>2017-07-07T10:56:40Z</time>
      </trkpt>
      <trkpt lat="46.116218296810985" lon="11.882978780195117">
        <ele>2083.3099999999999</ele>
        <time>2017-07-07T10:56:52Z</time>
      </trkpt>
      <trkpt lat="46.1162468791008" lon="11.882873587310314">
        <ele>2084.2800000000002</ele>
        <time>2017-07-07T10:57:04Z</time>
      </trkpt>
      <trkpt lat="46.116267666220665" lon="11.882801754400134">
        <ele>2085.2399999999998</ele>
        <time>2017-07-07T10:57:13Z</time>
      </trkpt>
      <trkpt lat="46.116311335936189" lon="11.882680719718337">
        <ele>2085.7199999999998</ele>
        <time>2017-07-07T10:57:25Z</time>
      </trkpt>
      <trkpt lat="46.116314688697457" lon="11.882661525160074">
        <ele>2085.7199999999998</ele>
        <time>2017-07-07T10:57:27Z</time>
      </trkpt>
      <trkpt lat="46.116351149976254" lon="11.882580136880279">
        <ele>2086.6799999999998</ele>
        <time>2017-07-07T10:57:36Z</time>
      </trkpt>
      <trkpt lat="46.1163573525846" lon="11.882512327283621">
        <ele>2086.6799999999998</ele>
        <time>2017-07-07T10:57:45Z</time>
      </trkpt>
      <trkpt lat="46.116409404203296" lon="11.882394142448902">
        <ele>2087.6399999999999</ele>
        <time>2017-07-07T10:57:56Z</time>
      </trkpt>
      <trkpt lat="46.116456091403961" lon="11.882273945957422">
        <ele>2088.5999999999999</ele>
        <time>2017-07-07T10:58:08Z</time>
      </trkpt>
      <trkpt lat="46.116499761119485" lon="11.88216682523489">
        <ele>2089.5599999999999</ele>
        <time>2017-07-07T10:58:19Z</time>
      </trkpt>
      <trkpt lat="46.116516105830669" lon="11.882082503288984">
        <ele>2090.04</ele>
        <time>2017-07-07T10:58:30Z</time>
      </trkpt>
      <trkpt lat="46.116530438885093" lon="11.881997343152761">
        <ele>2090.04</ele>
        <time>2017-07-07T10:58:39Z</time>
      </trkpt>
      <trkpt lat="46.116534378379583" lon="11.881954008713365">
        <ele>2091</ele>
        <time>2017-07-07T10:58:43Z</time>
      </trkpt>
      <trkpt lat="46.116526834666729" lon="11.881835907697678">
        <ele>2091</ele>
        <time>2017-07-07T10:58:53Z</time>
      </trkpt>
      <trkpt lat="46.116539658978581" lon="11.881722500547767">
        <ele>2091</ele>
        <time>2017-07-07T10:59:04Z</time>
      </trkpt>
      <trkpt lat="46.116558602079749" lon="11.881577661260962">
        <ele>2091.9699999999998</ele>
        <time>2017-07-07T10:59:16Z</time>
      </trkpt>
      <trkpt lat="46.116559943184257" lon="11.881436007097363">
        <ele>2092.4499999999998</ele>
        <time>2017-07-07T10:59:28Z</time>
      </trkpt>
      <trkpt lat="46.116578048095107" lon="11.881356295198202">
        <ele>2093.4099999999999</ele>
        <time>2017-07-07T10:59:38Z</time>
      </trkpt>
      <trkpt lat="46.116594895720482" lon="11.881265100091696">
        <ele>2094.3699999999999</ele>
        <time>2017-07-07T10:59:47Z</time>
      </trkpt>
      <trkpt lat="46.116605624556541" lon="11.881110118702054">
        <ele>2095.3299999999999</ele>
        <time>2017-07-07T11:00:01Z</time>
      </trkpt>
      <trkpt lat="46.1166353803128" lon="11.881006099283695">
        <ele>2095.8099999999999</ele>
        <time>2017-07-07T11:00:13Z</time>
      </trkpt>
      <trkpt lat="46.11665247939527" lon="11.880904929712415">
        <ele>2097.25</ele>
        <time>2017-07-07T11:00:27Z</time>
      </trkpt>
      <trkpt lat="46.116659184917808" lon="11.880772495642304">
        <ele>2098.21</ele>
        <time>2017-07-07T11:00:39Z</time>
      </trkpt>
      <trkpt lat="46.116644181311131" lon="11.880610473453999">
        <ele>2098.6999999999998</ele>
        <time>2017-07-07T11:00:52Z</time>
      </trkpt>
      <trkpt lat="46.116658430546522" lon="11.880492707714438">
        <ele>2099.1799999999998</ele>
        <time>2017-07-07T11:01:06Z</time>
      </trkpt>
      <trkpt lat="46.116668405011296" lon="11.880373181775212">
        <ele>2100.1399999999999</ele>
        <time>2017-07-07T11:01:16Z</time>
      </trkpt>
      <trkpt lat="46.116666309535503" lon="11.880358764901757">
        <ele>2100.1399999999999</ele>
        <time>2017-07-07T11:01:17Z</time>
      </trkpt>
      <trkpt lat="46.116667315363884" lon="11.880229180678725">
        <ele>2100.6199999999999</ele>
        <time>2017-07-07T11:01:29Z</time>
      </trkpt>
      <trkpt lat="46.116632111370564" lon="11.880095321685076">
        <ele>2101.5799999999999</ele>
        <time>2017-07-07T11:01:42Z</time>
      </trkpt>
      <trkpt lat="46.116611240431666" lon="11.88000563532114">
        <ele>2102.0599999999999</ele>
        <time>2017-07-07T11:01:50Z</time>
      </trkpt>
      <trkpt lat="46.116590537130833" lon="11.879887450486422">
        <ele>2101.5799999999999</ele>
        <time>2017-07-07T11:02:04Z</time>
      </trkpt>
      <trkpt lat="46.11657234840095" lon="11.879833806306124">
        <ele>2101.5799999999999</ele>
        <time>2017-07-07T11:02:15Z</time>
      </trkpt>
      <trkpt lat="46.116565307602286" lon="11.87971050851047">
        <ele>2103.02</ele>
        <time>2017-07-07T11:02:27Z</time>
      </trkpt>
      <trkpt lat="46.116559272632003" lon="11.879600705578923">
        <ele>2104.46</ele>
        <time>2017-07-07T11:02:39Z</time>
      </trkpt>
      <trkpt lat="46.116520715877414" lon="11.879465002566576">
        <ele>2104.9400000000001</ele>
        <time>2017-07-07T11:02:52Z</time>
      </trkpt>
      <trkpt lat="46.116503952071071" lon="11.879348158836365">
        <ele>2105.9099999999999</ele>
        <time>2017-07-07T11:03:06Z</time>
      </trkpt>
      <trkpt lat="46.116479141637683" lon="11.879242043942213">
        <ele>2106.3899999999999</ele>
        <time>2017-07-07T11:03:16Z</time>
      </trkpt>
      <trkpt lat="46.116479728370905" lon="11.879111621528864">
        <ele>2108.3099999999999</ele>
        <time>2017-07-07T11:03:29Z</time>
      </trkpt>
      <trkpt lat="46.116459527984262" lon="11.87900684773922">
        <ele>2108.3099999999999</ele>
        <time>2017-07-07T11:03:40Z</time>
      </trkpt>
      <trkpt lat="46.116440165787935" lon="11.878943061456084">
        <ele>2109.27</ele>
        <time>2017-07-07T11:03:49Z</time>
      </trkpt>
      <trkpt lat="46.116421055048704" lon="11.878902995958924">
        <ele>2109.27</ele>
        <time>2017-07-07T11:03:59Z</time>
      </trkpt>
      <trkpt lat="46.116396998986602" lon="11.878799395635724">
        <ele>2110.71</ele>
        <time>2017-07-07T11:04:11Z</time>
      </trkpt>
      <trkpt lat="46.116368668153882" lon="11.878702165558934">
        <ele>2111.1900000000001</ele>
        <time>2017-07-07T11:04:20Z</time>
      </trkpt>
      <trkpt lat="46.116312425583601" lon="11.878541316837072">
        <ele>2112.1500000000001</ele>
        <time>2017-07-07T11:04:35Z</time>
      </trkpt>
      <trkpt lat="46.116272192448378" lon="11.878397231921554">
        <ele>2112.6300000000001</ele>
        <time>2017-07-07T11:04:48Z</time>
      </trkpt>
      <trkpt lat="46.116233384236693" lon="11.878275107592344">
        <ele>2113.5999999999999</ele>
        <time>2017-07-07T11:04:59Z</time>
      </trkpt>
      <trkpt lat="46.116176722571254" lon="11.878157090395689">
        <ele>2114.5599999999999</ele>
        <time>2017-07-07T11:05:11Z</time>
      </trkpt>
      <trkpt lat="46.116118300706148" lon="11.878034295514226">
        <ele>2115.52</ele>
        <time>2017-07-07T11:05:23Z</time>
      </trkpt>
      <trkpt lat="46.116075133904815" lon="11.877924492582679">
        <ele>2116</ele>
        <time>2017-07-07T11:05:36Z</time>
      </trkpt>
      <trkpt lat="46.116054933518171" lon="11.877844026312232">
        <ele>2116.48</ele>
        <time>2017-07-07T11:05:47Z</time>
      </trkpt>
      <trkpt lat="46.115990309044719" lon="11.877739252522588">
        <ele>2117.9200000000001</ele>
        <time>2017-07-07T11:06:01Z</time>
      </trkpt>
      <trkpt lat="46.115922331809998" lon="11.877603884786367">
        <ele>2118.4000000000001</ele>
        <time>2017-07-07T11:06:14Z</time>
      </trkpt>
      <trkpt lat="46.115873465314507" lon="11.877545127645135">
        <ele>2118.8800000000001</ele>
        <time>2017-07-07T11:06:23Z</time>
      </trkpt>
      <trkpt lat="46.115817138925195" lon="11.877459632232785">
        <ele>2120.3200000000002</ele>
        <time>2017-07-07T11:06:36Z</time>
      </trkpt>
      <trkpt lat="46.115772379562259" lon="11.877351002767682">
        <ele>2121.77</ele>
        <time>2017-07-07T11:06:51Z</time>
      </trkpt>
      <trkpt lat="46.115740612149239" lon="11.877273470163345">
        <ele>2122.73</ele>
        <time>2017-07-07T11:07:03Z</time>
      </trkpt>
      <trkpt lat="46.115715801715851" lon="11.877231141552329">
        <ele>2123.6900000000001</ele>
        <time>2017-07-07T11:07:15Z</time>
      </trkpt>
      <trkpt lat="46.115681352093816" lon="11.877171127125621">
        <ele>2124.6500000000001</ele>
        <time>2017-07-07T11:07:27Z</time>
      </trkpt>
      <trkpt lat="46.115652685984969" lon="11.877056043595076">
        <ele>2126.5700000000002</ele>
        <time>2017-07-07T11:07:40Z</time>
      </trkpt>
      <trkpt lat="46.115655619651079" lon="11.876944648101926">
        <ele>2128.5</ele>
        <time>2017-07-07T11:07:52Z</time>
      </trkpt>
      <trkpt lat="46.115642124786973" lon="11.876824954524636">
        <ele>2129.9400000000001</ele>
        <time>2017-07-07T11:08:07Z</time>
      </trkpt>
      <trkpt lat="46.115633323788643" lon="11.876769969239831">
        <ele>2131.3800000000001</ele>
        <time>2017-07-07T11:08:18Z</time>
      </trkpt>
      <trkpt lat="46.115675736218691" lon="11.876733927056193">
        <ele>2132.8200000000002</ele>
        <time>2017-07-07T11:08:29Z</time>
      </trkpt>
      <trkpt lat="46.115724770352244" lon="11.876701489090919">
        <ele>2134.2600000000002</ele>
        <time>2017-07-07T11:08:42Z</time>
      </trkpt>
      <trkpt lat="46.115767601877451" lon="11.876637618988752">
        <ele>2136.1900000000001</ele>
        <time>2017-07-07T11:08:55Z</time>
      </trkpt>
      <trkpt lat="46.115806577727199" lon="11.876611802726984">
        <ele>2137.6300000000001</ele>
        <time>2017-07-07T11:09:07Z</time>
      </trkpt>
      <trkpt lat="46.115836082026362" lon="11.87655245885253">
        <ele>2139.5500000000002</ele>
        <time>2017-07-07T11:09:20Z</time>
      </trkpt>
      <trkpt lat="46.115843458101153" lon="11.876494958996773">
        <ele>2140.5100000000002</ele>
        <time>2017-07-07T11:09:31Z</time>
      </trkpt>
      <trkpt lat="46.115878745913506" lon="11.876447265967727">
        <ele>2142.4400000000001</ele>
        <time>2017-07-07T11:09:44Z</time>
      </trkpt>
      <trkpt lat="46.115909842774272" lon="11.876409882679582">
        <ele>2143.8800000000001</ele>
        <time>2017-07-07T11:09:56Z</time>
      </trkpt>
      <trkpt lat="46.115944124758244" lon="11.876361267641187">
        <ele>2145.3200000000002</ele>
        <time>2017-07-07T11:10:08Z</time>
      </trkpt>
      <trkpt lat="46.116006150841713" lon="11.876327069476247">
        <ele>2147.2399999999998</ele>
        <time>2017-07-07T11:10:22Z</time>
      </trkpt>
      <trkpt lat="46.116049233824015" lon="11.876310724765062">
        <ele>2148.1999999999998</ele>
        <time>2017-07-07T11:10:32Z</time>
      </trkpt>
      <trkpt lat="46.1160724516958" lon="11.876309048384428">
        <ele>2148.6799999999998</ele>
        <time>2017-07-07T11:10:41Z</time>
      </trkpt>
      <trkpt lat="46.116112265735865" lon="11.876274514943361">
        <ele>2150.6100000000001</ele>
        <time>2017-07-07T11:10:52Z</time>
      </trkpt>
      <trkpt lat="46.116157276555896" lon="11.876310640946031">
        <ele>2151.5700000000002</ele>
        <time>2017-07-07T11:11:02Z</time>
      </trkpt>
      <trkpt lat="46.116210585460067" lon="11.876394376158714">
        <ele>2153.9699999999998</ele>
        <time>2017-07-07T11:11:19Z</time>
      </trkpt>
      <trkpt lat="46.116263810545206" lon="11.876437878236175">
        <ele>2155.4099999999999</ele>
        <time>2017-07-07T11:11:32Z</time>
      </trkpt>
      <trkpt lat="46.116311335936189" lon="11.876532090827823">
        <ele>2157.8200000000002</ele>
        <time>2017-07-07T11:11:47Z</time>
      </trkpt>
      <trkpt lat="46.116356011480093" lon="11.876598224043846">
        <ele>2158.7800000000002</ele>
        <time>2017-07-07T11:11:59Z</time>
      </trkpt>
      <trkpt lat="46.116366991773248" lon="11.876540472730994">
        <ele>2160.6999999999998</ele>
        <time>2017-07-07T11:12:12Z</time>
      </trkpt>
      <trkpt lat="46.116383839398623" lon="11.876491773873568">
        <ele>2160.6999999999998</ele>
        <time>2017-07-07T11:12:21Z</time>
      </trkpt>
      <trkpt lat="46.116409488022327" lon="11.876415079459548">
        <ele>2163.0999999999999</ele>
        <time>2017-07-07T11:12:34Z</time>
      </trkpt>
      <trkpt lat="46.116414181888103" lon="11.876339726150036">
        <ele>2165.0300000000002</ele>
        <time>2017-07-07T11:12:45Z</time>
      </trkpt>
      <trkpt lat="46.116416025906801" lon="11.876265965402126">
        <ele>2167.4299999999998</ele>
        <time>2017-07-07T11:13:00Z</time>
      </trkpt>
      <trkpt lat="46.116440752521157" lon="11.87620997428894">
        <ele>2169.3499999999999</ele>
        <time>2017-07-07T11:13:13Z</time>
      </trkpt>
      <trkpt lat="46.116475369781256" lon="11.876156246289611">
        <ele>2169.8299999999999</ele>
        <time>2017-07-07T11:13:21Z</time>
      </trkpt>
      <trkpt lat="46.116478806361556" lon="11.876056082546711">
        <ele>2170.79</ele>
        <time>2017-07-07T11:13:33Z</time>
      </trkpt>
      <trkpt lat="46.116483081132174" lon="11.876023393124342">
        <ele>2171.7600000000002</ele>
        <time>2017-07-07T11:13:37Z</time>
      </trkpt>
      <trkpt lat="46.116546951234341" lon="11.87593043781817">
        <ele>2171.7600000000002</ele>
        <time>2017-07-07T11:13:48Z</time>
      </trkpt>
      <trkpt lat="46.116499761119485" lon="11.875883163884282">
        <ele>2171.7600000000002</ele>
        <time>2017-07-07T11:13:58Z</time>
      </trkpt>
      <trkpt lat="46.11648048274219" lon="11.875773360952735">
        <ele>2171.27</ele>
        <time>2017-07-07T11:14:11Z</time>
      </trkpt>
      <trkpt lat="46.116527169942856" lon="11.875699935480952">
        <ele>2172.2399999999998</ele>
        <time>2017-07-07T11:14:20Z</time>
      </trkpt>
      <trkpt lat="46.116547202691436" lon="11.875617457553744">
        <ele>2172.2399999999998</ele>
        <time>2017-07-07T11:14:31Z</time>
      </trkpt>
      <trkpt lat="46.116543263196945" lon="11.875564903020859">
        <ele>2172.2399999999998</ele>
        <time>2017-07-07T11:14:36Z</time>
      </trkpt>
      <trkpt lat="46.116513926535845" lon="11.875534141436219">
        <ele>2173.6799999999998</ele>
        <time>2017-07-07T11:14:46Z</time>
      </trkpt>
      <trkpt lat="46.116510406136513" lon="11.875516623258591">
        <ele>2174.1599999999999</ele>
        <time>2017-07-07T11:14:48Z</time>
      </trkpt>
      <trkpt lat="46.116479896008968" lon="11.875398019328713">
        <ele>2174.6399999999999</ele>
        <time>2017-07-07T11:14:59Z</time>
      </trkpt>
      <trkpt lat="46.116476627066731" lon="11.875371113419533">
        <ele>2174.1599999999999</ele>
        <time>2017-07-07T11:15:01Z</time>
      </trkpt>
      <trkpt lat="46.116457851603627" lon="11.875292910262942">
        <ele>2175.1199999999999</ele>
        <time>2017-07-07T11:15:10Z</time>
      </trkpt>
      <trkpt lat="46.11645458266139" lon="11.875286372378469">
        <ele>2175.1199999999999</ele>
        <time>2017-07-07T11:15:11Z</time>
      </trkpt>
      <trkpt lat="46.116421641781926" lon="11.875231303274632">
        <ele>2175.5999999999999</ele>
        <time>2017-07-07T11:15:17Z</time>
      </trkpt>
      <trkpt lat="46.116406051442027" lon="11.875203726813197">
        <ele>2175.5999999999999</ele>
        <time>2017-07-07T11:15:20Z</time>
      </trkpt>
      <trkpt lat="46.116370093077421" lon="11.875116638839245">
        <ele>2176.5599999999999</ele>
        <time>2017-07-07T11:15:30Z</time>
      </trkpt>
      <trkpt lat="46.116311503574252" lon="11.875056372955441">
        <ele>2178</ele>
        <time>2017-07-07T11:15:41Z</time>
      </trkpt>
      <trkpt lat="46.116297086700797" lon="11.875052768737078">
        <ele>2178.48</ele>
        <time>2017-07-07T11:15:45Z</time>
      </trkpt>
      <trkpt lat="46.116265654563904" lon="11.874945228919387">
        <ele>2179.9299999999998</ele>
        <time>2017-07-07T11:15:55Z</time>
      </trkpt>
      <trkpt lat="46.116238916292787" lon="11.874899631366134">
        <ele>2180.4099999999999</ele>
        <time>2017-07-07T11:16:06Z</time>
      </trkpt>
      <trkpt lat="46.116225086152554" lon="11.874818746000528">
        <ele>2181.3699999999999</ele>
        <time>2017-07-07T11:16:18Z</time>
      </trkpt>
      <trkpt lat="46.116202874109149" lon="11.874824948608875">
        <ele>2181.3699999999999</ele>
        <time>2017-07-07T11:16:26Z</time>
      </trkpt>
      <trkpt lat="46.116163562983274" lon="11.874890746548772">
        <ele>2180.4099999999999</ele>
        <time>2017-07-07T11:16:32Z</time>
      </trkpt>
      <trkpt lat="46.116163479164243" lon="11.874881274998188">
        <ele>2179.4499999999998</ele>
        <time>2017-07-07T11:16:43Z</time>
      </trkpt>
      <trkpt lat="46.11617797985673" lon="11.874852441251278">
        <ele>2179.4499999999998</ele>
        <time>2017-07-07T11:16:57Z</time>
      </trkpt>
      <trkpt lat="46.116190804168582" lon="11.874851519241929">
        <ele>2179.9299999999998</ele>
        <time>2017-07-07T11:17:03Z</time>
      </trkpt>
      <trkpt lat="46.116213267669082" lon="11.87486375682056">
        <ele>2180.4099999999999</ele>
        <time>2017-07-07T11:17:06Z</time>
      </trkpt>
      <trkpt lat="46.116234222427011" lon="11.874829055741429">
        <ele>2179.9299999999998</ele>
        <time>2017-07-07T11:17:17Z</time>
      </trkpt>
      <trkpt lat="46.11621561460197" lon="11.874864511191845">
        <ele>2180.4099999999999</ele>
        <time>2017-07-07T11:17:29Z</time>
      </trkpt>
      <trkpt lat="46.116222068667412" lon="11.874851183965802">
        <ele>2180.4099999999999</ele>
        <time>2017-07-07T11:17:46Z</time>
      </trkpt>
      <trkpt lat="46.116229025647044" lon="11.874831821769476">
        <ele>2180.4099999999999</ele>
        <time>2017-07-07T11:18:03Z</time>
      </trkpt>
      <trkpt lat="46.116229277104139" lon="11.874823104590178">
        <ele>2180.4099999999999</ele>
        <time>2017-07-07T11:18:23Z</time>
      </trkpt>
      <trkpt lat="46.116218883544207" lon="11.874871803447604">
        <ele>2180.8899999999999</ele>
        <time>2017-07-07T11:18:41Z</time>
      </trkpt>
      <trkpt lat="46.116213770583272" lon="11.874891500920057">
        <ele>2180.4099999999999</ele>
        <time>2017-07-07T11:19:05Z</time>
      </trkpt>
      <trkpt lat="46.116231121122837" lon="11.874873647466302">
        <ele>2180.4099999999999</ele>
        <time>2017-07-07T11:19:30Z</time>
      </trkpt>
      <trkpt lat="46.116225002333522" lon="11.874876916408539">
        <ele>2180.4099999999999</ele>
        <time>2017-07-07T11:19:53Z</time>
      </trkpt>
      <trkpt lat="46.116205221042037" lon="11.874889573082328">
        <ele>2180.8899999999999</ele>
        <time>2017-07-07T11:20:27Z</time>
      </trkpt>
      <trkpt lat="46.116231707856059" lon="11.874862834811211">
        <ele>2180.4099999999999</ele>
        <time>2017-07-07T11:20:56Z</time>
      </trkpt>
      <trkpt lat="46.116220140829682" lon="11.874877335503697">
        <ele>2180.8899999999999</ele>
        <time>2017-07-07T11:21:25Z</time>
      </trkpt>
      <trkpt lat="46.116221314296126" lon="11.874871300533414">
        <ele>2180.8899999999999</ele>
        <time>2017-07-07T11:21:51Z</time>
      </trkpt>
      <trkpt lat="46.116247968748212" lon="11.874858560040593">
        <ele>2180.8899999999999</ele>
        <time>2017-07-07T11:22:23Z</time>
      </trkpt>
      <trkpt lat="46.116241682320833" lon="11.874868785962462">
        <ele>2180.8899999999999</ele>
        <time>2017-07-07T11:22:52Z</time>
      </trkpt>
      <trkpt lat="46.116258697584271" lon="11.874854872003198">
        <ele>2180.8899999999999</ele>
        <time>2017-07-07T11:23:31Z</time>
      </trkpt>
      <trkpt lat="46.116255344823003" lon="11.874858476221561">
        <ele>2180.8899999999999</ele>
        <time>2017-07-07T11:24:03Z</time>
      </trkpt>
      <trkpt lat="46.116259703412652" lon="11.87485252507031">
        <ele>2181.3699999999999</ele>
        <time>2017-07-07T11:24:28Z</time>
      </trkpt>
      <trkpt lat="46.116241011768579" lon="11.874863253906369">
        <ele>2181.3699999999999</ele>
        <time>2017-07-07T11:24:59Z</time>
      </trkpt>
      <trkpt lat="46.116232462227345" lon="11.874861409887671">
        <ele>2181.8499999999999</ele>
        <time>2017-07-07T11:25:28Z</time>
      </trkpt>
      <trkpt lat="46.116235479712486" lon="11.874875659123063">
        <ele>2181.8499999999999</ele>
        <time>2017-07-07T11:25:58Z</time>
      </trkpt>
      <trkpt lat="46.116237407550216" lon="11.874858308583498">
        <ele>2182.3299999999999</ele>
        <time>2017-07-07T11:26:24Z</time>
      </trkpt>
      <trkpt lat="46.116220727562904" lon="11.87486962415278">
        <ele>2182.3299999999999</ele>
        <time>2017-07-07T11:26:53Z</time>
      </trkpt>
      <trkpt lat="46.116229947656393" lon="11.874876413494349">
        <ele>2182.3299999999999</ele>
        <time>2017-07-07T11:27:28Z</time>
      </trkpt>
      <trkpt lat="46.116234138607979" lon="11.874880352988839">
        <ele>2182.3299999999999</ele>
        <time>2017-07-07T11:28:03Z</time>
      </trkpt>
      <trkpt lat="46.116241430863738" lon="11.874896110966802">
        <ele>2182.3299999999999</ele>
        <time>2017-07-07T11:28:35Z</time>
      </trkpt>
      <trkpt lat="46.116240508854389" lon="11.874878257513046">
        <ele>2182.3299999999999</ele>
        <time>2017-07-07T11:29:06Z</time>
      </trkpt>
      <trkpt lat="46.116239503026009" lon="11.874857051298022">
        <ele>2182.8099999999999</ele>
        <time>2017-07-07T11:29:28Z</time>
      </trkpt>
      <trkpt lat="46.116240844130516" lon="11.87484422698617">
        <ele>2183.29</ele>
        <time>2017-07-07T11:29:42Z</time>
      </trkpt>
      <trkpt lat="46.11623908393085" lon="11.874828720465302">
        <ele>2183.29</ele>
        <time>2017-07-07T11:30:07Z</time>
      </trkpt>
      <trkpt lat="46.116229109466076" lon="11.874856213107705">
        <ele>2183.29</ele>
        <time>2017-07-07T11:30:28Z</time>
      </trkpt>
      <trkpt lat="46.116235144436359" lon="11.874842718243599">
        <ele>2183.29</ele>
        <time>2017-07-07T11:30:50Z</time>
      </trkpt>
      <trkpt lat="46.116231037303805" lon="11.87485889531672">
        <ele>2183.29</ele>
        <time>2017-07-07T11:31:17Z</time>
      </trkpt>
      <trkpt lat="46.116215446963906" lon="11.874890914186835">
        <ele>2182.8099999999999</ele>
        <time>2017-07-07T11:31:41Z</time>
      </trkpt>
      <trkpt lat="46.116229109466076" lon="11.874910276383162">
        <ele>2183.29</ele>
        <time>2017-07-07T11:32:06Z</time>
      </trkpt>
      <trkpt lat="46.116254171356559" lon="11.874916311353445">
        <ele>2182.8099999999999</ele>
        <time>2017-07-07T11:32:31Z</time>
      </trkpt>
      <trkpt lat="46.116257859393954" lon="11.874903319403529">
        <ele>2183.29</ele>
        <time>2017-07-07T11:33:02Z</time>
      </trkpt>
      <trkpt lat="46.116240257397294" lon="11.87490189447999">
        <ele>2182.8099999999999</ele>
        <time>2017-07-07T11:33:31Z</time>
      </trkpt>
      <trkpt lat="46.116236820816994" lon="11.87492142431438">
        <ele>2183.77</ele>
        <time>2017-07-07T11:34:10Z</time>
      </trkpt>
      <trkpt lat="46.116227768361568" lon="11.874920418485999">
        <ele>2183.77</ele>
        <time>2017-07-07T11:34:47Z</time>
      </trkpt>
      <trkpt lat="46.116235144436359" lon="11.874929554760456">
        <ele>2183.77</ele>
        <time>2017-07-07T11:35:25Z</time>
      </trkpt>
      <trkpt lat="46.116237323731184" lon="11.874929638579488">
        <ele>2184.25</ele>
        <time>2017-07-07T11:35:51Z</time>
      </trkpt>
      <trkpt lat="46.116233468055725" lon="11.874944642186165">
        <ele>2184.25</ele>
        <time>2017-07-07T11:36:32Z</time>
      </trkpt>
      <trkpt lat="46.116243023425341" lon="11.874947240576148">
        <ele>2185.21</ele>
        <time>2017-07-07T11:37:08Z</time>
      </trkpt>
      <trkpt lat="46.116239838302135" lon="11.874948833137751">
        <ele>2184.73</ele>
        <time>2017-07-07T11:37:34Z</time>
      </trkpt>
      <trkpt lat="46.116243274882436" lon="11.874943720176816">
        <ele>2185.21</ele>
        <time>2017-07-07T11:38:00Z</time>
      </trkpt>
      <trkpt lat="46.116241682320833" lon="11.874944558367133">
        <ele>2185.21</ele>
        <time>2017-07-07T11:38:30Z</time>
      </trkpt>
      <trkpt lat="46.116236736997962" lon="11.874923184514046">
        <ele>2185.21</ele>
        <time>2017-07-07T11:38:59Z</time>
      </trkpt>
      <trkpt lat="46.116237575188279" lon="11.874902900308371">
        <ele>2185.6900000000001</ele>
        <time>2017-07-07T11:39:21Z</time>
      </trkpt>
      <trkpt lat="46.116234976798296" lon="11.874916814267635">
        <ele>2185.6900000000001</ele>
        <time>2017-07-07T11:39:49Z</time>
      </trkpt>
      <trkpt lat="46.116235228255391" lon="11.874922513961792">
        <ele>2185.6900000000001</ele>
        <time>2017-07-07T11:40:11Z</time>
      </trkpt>
      <trkpt lat="46.116226427257061" lon="11.874917987734079">
        <ele>2185.6900000000001</ele>
        <time>2017-07-07T11:40:36Z</time>
      </trkpt>
      <trkpt lat="46.11623615026474" lon="11.874917149543762">
        <ele>2185.6900000000001</ele>
        <time>2017-07-07T11:40:59Z</time>
      </trkpt>
      <trkpt lat="46.116239670664072" lon="11.874926453456283">
        <ele>2185.6900000000001</ele>
        <time>2017-07-07T11:41:27Z</time>
      </trkpt>
      <trkpt lat="46.116231372579932" lon="11.874919245019555">
        <ele>2185.6900000000001</ele>
        <time>2017-07-07T11:41:51Z</time>
      </trkpt>
      <trkpt lat="46.116237407550216" lon="11.874922849237919">
        <ele>2185.6900000000001</ele>
        <time>2017-07-07T11:42:12Z</time>
      </trkpt>
      <trkpt lat="46.11622734926641" lon="11.874924609437585">
        <ele>2185.6900000000001</ele>
        <time>2017-07-07T11:42:38Z</time>
      </trkpt>
      <trkpt lat="46.116245873272419" lon="11.874929387122393">
        <ele>2185.6900000000001</ele>
        <time>2017-07-07T11:43:08Z</time>
      </trkpt>
      <trkpt lat="46.116238664835691" lon="11.874909941107035">
        <ele>2185.6900000000001</ele>
        <time>2017-07-07T11:43:41Z</time>
      </trkpt>
      <trkpt lat="46.116241011768579" lon="11.874928465113044">
        <ele>2186.1799999999998</ele>
        <time>2017-07-07T11:44:03Z</time>
      </trkpt>
      <trkpt lat="46.116235898807645" lon="11.874879263341427">
        <ele>2185.21</ele>
        <time>2017-07-07T11:44:28Z</time>
      </trkpt>
      <trkpt lat="46.116237994283438" lon="11.874883538112044">
        <ele>2185.6900000000001</ele>
        <time>2017-07-07T11:44:54Z</time>
      </trkpt>
      <trkpt lat="46.116238832473755" lon="11.874889824539423">
        <ele>2185.6900000000001</ele>
        <time>2017-07-07T11:45:17Z</time>
      </trkpt>
      <trkpt lat="46.116240844130516" lon="11.874895859509706">
        <ele>2185.6900000000001</ele>
        <time>2017-07-07T11:45:44Z</time>
      </trkpt>
      <trkpt lat="46.116231540217996" lon="11.874901223927736">
        <ele>2185.6900000000001</ele>
        <time>2017-07-07T11:46:04Z</time>
      </trkpt>
      <trkpt lat="46.116233803331852" lon="11.874880352988839">
        <ele>2185.6900000000001</ele>
        <time>2017-07-07T11:46:24Z</time>
      </trkpt>
      <trkpt lat="46.116241095587611" lon="11.874890495091677">
        <ele>2185.6900000000001</ele>
        <time>2017-07-07T11:46:49Z</time>
      </trkpt>
      <trkpt lat="46.116241347044706" lon="11.874877503141761">
        <ele>2185.6900000000001</ele>
        <time>2017-07-07T11:47:20Z</time>
      </trkpt>
      <trkpt lat="46.116233551874757" lon="11.874880352988839">
        <ele>2185.6900000000001</ele>
        <time>2017-07-07T11:47:41Z</time>
      </trkpt>
      <trkpt lat="46.116230199113488" lon="11.8749082647264">
        <ele>2185.6900000000001</ele>
        <time>2017-07-07T11:48:10Z</time>
      </trkpt>
      <trkpt lat="46.116238161921501" lon="11.874901810660958">
        <ele>2186.1799999999998</ele>
        <time>2017-07-07T11:48:26Z</time>
      </trkpt>
      <trkpt lat="46.116228271275759" lon="11.874886052682996">
        <ele>2185.6900000000001</ele>
        <time>2017-07-07T11:48:49Z</time>
      </trkpt>
      <trkpt lat="46.116243861615658" lon="11.874879850074649">
        <ele>2186.1799999999998</ele>
        <time>2017-07-07T11:49:14Z</time>
      </trkpt>
      <trkpt lat="46.116244280710816" lon="11.874879682436585">
        <ele>2186.1799999999998</ele>
        <time>2017-07-07T11:49:40Z</time>
      </trkpt>
      <trkpt lat="46.11623908393085" lon="11.874877251684666">
        <ele>2186.1799999999998</ele>
        <time>2017-07-07T11:50:06Z</time>
      </trkpt>
      <trkpt lat="46.116222068667412" lon="11.874867780134082">
        <ele>2186.1799999999998</ele>
        <time>2017-07-07T11:50:32Z</time>
      </trkpt>
      <trkpt lat="46.116234473884106" lon="11.874841880053282">
        <ele>2186.6599999999999</ele>
        <time>2017-07-07T11:50:52Z</time>
      </trkpt>
      <trkpt lat="46.116224080324173" lon="11.874840203672647">
        <ele>2186.6599999999999</ele>
        <time>2017-07-07T11:51:05Z</time>
      </trkpt>
      <trkpt lat="46.116222906857729" lon="11.874858643859625">
        <ele>2186.6599999999999</ele>
        <time>2017-07-07T11:51:33Z</time>
      </trkpt>
      <trkpt lat="46.116216285154223" lon="11.874858476221561">
        <ele>2186.6599999999999</ele>
        <time>2017-07-07T11:51:56Z</time>
      </trkpt>
      <trkpt lat="46.116217207163572" lon="11.874865349382162">
        <ele>2186.6599999999999</ele>
        <time>2017-07-07T11:52:24Z</time>
      </trkpt>
      <trkpt lat="46.116224164143205" lon="11.874873479828238">
        <ele>2187.1399999999999</ele>
        <time>2017-07-07T11:52:53Z</time>
      </trkpt>
      <trkpt lat="46.116229025647044" lon="11.874876664951444">
        <ele>2187.1399999999999</ele>
        <time>2017-07-07T11:53:26Z</time>
      </trkpt>
      <trkpt lat="46.116234725341201" lon="11.874875742942095">
        <ele>2187.6199999999999</ele>
        <time>2017-07-07T11:53:59Z</time>
      </trkpt>
      <trkpt lat="46.116226427257061" lon="11.874877419322729">
        <ele>2187.6199999999999</ele>
        <time>2017-07-07T11:54:29Z</time>
      </trkpt>
      <trkpt lat="46.116226930171251" lon="11.874887142330408">
        <ele>2187.6199999999999</ele>
        <time>2017-07-07T11:54:53Z</time>
      </trkpt>
      <trkpt lat="46.11623271368444" lon="11.874909522011876">
        <ele>2188.0999999999999</ele>
        <time>2017-07-07T11:55:00Z</time>
      </trkpt>
      <trkpt lat="46.116226343438029" lon="11.874859901145101">
        <ele>2188.5799999999999</ele>
        <time>2017-07-07T11:55:10Z</time>
      </trkpt>
      <trkpt lat="46.116217039525509" lon="11.874840036034584">
        <ele>2188.0999999999999</ele>
        <time>2017-07-07T11:55:23Z</time>
      </trkpt>
      <trkpt lat="46.116242269054055" lon="11.874830480664968">
        <ele>2189.0599999999999</ele>
        <time>2017-07-07T11:55:34Z</time>
      </trkpt>
      <trkpt lat="46.116240592673421" lon="11.874804412946105">
        <ele>2189.0599999999999</ele>
        <time>2017-07-07T11:55:50Z</time>
      </trkpt>
      <trkpt lat="46.116228103637695" lon="11.874800473451614">
        <ele>2189.0599999999999</ele>
        <time>2017-07-07T11:56:05Z</time>
      </trkpt>
      <trkpt lat="46.116225002333522" lon="11.87478655949235">
        <ele>2189.0599999999999</ele>
        <time>2017-07-07T11:56:24Z</time>
      </trkpt>
      <trkpt lat="46.116234725341201" lon="11.874792762100697">
        <ele>2189.0599999999999</ele>
        <time>2017-07-07T11:56:44Z</time>
      </trkpt>
      <trkpt lat="46.116237239912152" lon="11.874793684110045">
        <ele>2189.0599999999999</ele>
        <time>2017-07-07T11:57:06Z</time>
      </trkpt>
      <trkpt lat="46.116203796118498" lon="11.874817153438926">
        <ele>2189.0599999999999</ele>
        <time>2017-07-07T11:57:16Z</time>
      </trkpt>
      <trkpt lat="46.116201533004642" lon="11.874800557270646">
        <ele>2189.0599999999999</ele>
        <time>2017-07-07T11:57:28Z</time>
      </trkpt>
      <trkpt lat="46.116212261840701" lon="11.874806256964803">
        <ele>2189.54</ele>
        <time>2017-07-07T11:57:38Z</time>
      </trkpt>
      <trkpt lat="46.116168256849051" lon="11.874790666624904">
        <ele>2189.0599999999999</ele>
        <time>2017-07-07T11:57:46Z</time>
      </trkpt>
      <trkpt lat="46.116113606840372" lon="11.874766023829579">
        <ele>2189.0599999999999</ele>
        <time>2017-07-07T11:57:57Z</time>
      </trkpt>
      <trkpt lat="46.116105141118169" lon="11.874765437096357">
        <ele>2188.5799999999999</ele>
        <time>2017-07-07T11:57:58Z</time>
      </trkpt>
      <trkpt lat="46.115976730361581" lon="11.874701734632254">
        <ele>2188.5799999999999</ele>
        <time>2017-07-07T11:58:12Z</time>
      </trkpt>
      <trkpt lat="46.115890815854073" lon="11.874631326645613">
        <ele>2190.02</ele>
        <time>2017-07-07T11:58:23Z</time>
      </trkpt>
      <trkpt lat="46.115874135866761" lon="11.874589500948787">
        <ele>2190.02</ele>
        <time>2017-07-07T11:58:27Z</time>
      </trkpt>
      <trkpt lat="46.115852510556579" lon="11.874439800158143">
        <ele>2189.0599999999999</ele>
        <time>2017-07-07T11:58:39Z</time>
      </trkpt>
      <trkpt lat="46.115838764235377" lon="11.874358663335443">
        <ele>2187.6199999999999</ele>
        <time>2017-07-07T11:58:49Z</time>
      </trkpt>
      <trkpt lat="46.115785874426365" lon="11.874231090769172">
        <ele>2187.1399999999999</ele>
        <time>2017-07-07T11:59:01Z</time>
      </trkpt>
      <trkpt lat="46.115740025416017" lon="11.874117264524102">
        <ele>2186.6599999999999</ele>
        <time>2017-07-07T11:59:13Z</time>
      </trkpt>
      <trkpt lat="46.115717897191644" lon="11.873997487127781">
        <ele>2186.1799999999998</ele>
        <time>2017-07-07T11:59:23Z</time>
      </trkpt>
      <trkpt lat="46.115713454782963" lon="11.873955242335796">
        <ele>2185.6900000000001</ele>
        <time>2017-07-07T11:59:27Z</time>
      </trkpt>
      <trkpt lat="46.115675820037723" lon="11.873796405270696">
        <ele>2184.25</ele>
        <time>2017-07-07T11:59:40Z</time>
      </trkpt>
      <trkpt lat="46.115672551095486" lon="11.873665228486061">
        <ele>2182.3299999999999</ele>
        <time>2017-07-07T11:59:50Z</time>
      </trkpt>
      <trkpt lat="46.115689566358924" lon="11.873503290116787">
        <ele>2179.9299999999998</ele>
        <time>2017-07-07T12:00:03Z</time>
      </trkpt>
      <trkpt lat="46.115712616592646" lon="11.873379070311785">
        <ele>2179.4499999999998</ele>
        <time>2017-07-07T12:00:14Z</time>
      </trkpt>
      <trkpt lat="46.115784281864762" lon="11.873250911012292">
        <ele>2178.9699999999998</ele>
        <time>2017-07-07T12:00:28Z</time>
      </trkpt>
      <trkpt lat="46.115799285471439" lon="11.873225849121809">
        <ele>2178.48</ele>
        <time>2017-07-07T12:00:31Z</time>
      </trkpt>
      <trkpt lat="46.115859299898148" lon="11.873057540506124">
        <ele>2178</ele>
        <time>2017-07-07T12:00:46Z</time>
      </trkpt>
      <trkpt lat="46.115937083959579" lon="11.872934577986598">
        <ele>2178</ele>
        <time>2017-07-07T12:01:01Z</time>
      </trkpt>
      <trkpt lat="46.115936078131199" lon="11.872921250760555">
        <ele>2177.52</ele>
        <time>2017-07-07T12:01:08Z</time>
      </trkpt>
      <trkpt lat="46.115871872752905" lon="11.872753780335188">
        <ele>2176.5599999999999</ele>
        <time>2017-07-07T12:01:22Z</time>
      </trkpt>
      <trkpt lat="46.11585552804172" lon="11.872700806707144">
        <ele>2175.1199999999999</ele>
        <time>2017-07-07T12:01:32Z</time>
      </trkpt>
      <trkpt lat="46.11586575396359" lon="11.872638696804643">
        <ele>2173.1999999999998</ele>
        <time>2017-07-07T12:01:42Z</time>
      </trkpt>
      <trkpt lat="46.115861730650067" lon="11.872557392343879">
        <ele>2170.79</ele>
        <time>2017-07-07T12:01:52Z</time>
      </trkpt>
      <trkpt lat="46.115824012085795" lon="11.872496707364917">
        <ele>2167.9099999999999</ele>
        <time>2017-07-07T12:02:05Z</time>
      </trkpt>
      <trkpt lat="46.115791406482458" lon="11.87242554500699">
        <ele>2165.5100000000002</ele>
        <time>2017-07-07T12:02:14Z</time>
      </trkpt>
      <trkpt lat="46.115747401490808" lon="11.872359495609999">
        <ele>2163.0999999999999</ele>
        <time>2017-07-07T12:02:26Z</time>
      </trkpt>
      <trkpt lat="46.115732900798321" lon="11.872262265533209">
        <ele>2160.2199999999998</ele>
        <time>2017-07-07T12:02:38Z</time>
      </trkpt>
      <trkpt lat="46.115707671269774" lon="11.872190181165934">
        <ele>2157.3400000000001</ele>
        <time>2017-07-07T12:02:49Z</time>
      </trkpt>
      <trkpt lat="46.115686381235719" lon="11.872074091807008">
        <ele>2154.4499999999998</ele>
        <time>2017-07-07T12:03:01Z</time>
      </trkpt>
      <trkpt lat="46.115649584680796" lon="11.871980968862772">
        <ele>2151.0900000000001</ele>
        <time>2017-07-07T12:03:12Z</time>
      </trkpt>
      <trkpt lat="46.115635251626372" lon="11.871905028820038">
        <ele>2149.1599999999999</ele>
        <time>2017-07-07T12:03:22Z</time>
      </trkpt>
      <trkpt lat="46.115606166422367" lon="11.871805200353265">
        <ele>2146.2800000000002</ele>
        <time>2017-07-07T12:03:33Z</time>
      </trkpt>
      <trkpt lat="46.115581104531884" lon="11.871698247268796">
        <ele>2143.8800000000001</ele>
        <time>2017-07-07T12:03:45Z</time>
      </trkpt>
      <trkpt lat="46.115565933287144" lon="11.871622977778316">
        <ele>2141.4699999999998</ele>
        <time>2017-07-07T12:03:56Z</time>
      </trkpt>
      <trkpt lat="46.115553192794323" lon="11.871526669710875">
        <ele>2139.0700000000002</ele>
        <time>2017-07-07T12:04:07Z</time>
      </trkpt>
      <trkpt lat="46.115536177530885" lon="11.871380489319563">
        <ele>2136.1900000000001</ele>
        <time>2017-07-07T12:04:20Z</time>
      </trkpt>
      <trkpt lat="46.115506757050753" lon="11.871318882331252">
        <ele>2133.7800000000002</ele>
        <time>2017-07-07T12:04:32Z</time>
      </trkpt>
      <trkpt lat="46.115483455359936" lon="11.871235817670822">
        <ele>2131.8600000000001</ele>
        <time>2017-07-07T12:04:40Z</time>
      </trkpt>
      <trkpt lat="46.11545043066144" lon="11.87108863145113">
        <ele>2128.98</ele>
        <time>2017-07-07T12:04:51Z</time>
      </trkpt>
      <trkpt lat="46.115424949675798" lon="11.871002716943622">
        <ele>2128.02</ele>
        <time>2017-07-07T12:04:58Z</time>
      </trkpt>
      <trkpt lat="46.115392427891493" lon="11.87096843495965">
        <ele>2127.0500000000002</ele>
        <time>2017-07-07T12:05:04Z</time>
      </trkpt>
      <trkpt lat="46.115317912772298" lon="11.870919903740287">
        <ele>2126.0900000000001</ele>
        <time>2017-07-07T12:05:13Z</time>
      </trkpt>
      <trkpt lat="46.11529259942472" lon="11.870852513238788">
        <ele>2125.1300000000001</ele>
        <time>2017-07-07T12:05:19Z</time>
      </trkpt>
      <trkpt lat="46.115268962457776" lon="11.870791325345635">
        <ele>2124.1700000000001</ele>
        <time>2017-07-07T12:05:29Z</time>
      </trkpt>
      <trkpt lat="46.115261586382985" lon="11.87073047272861">
        <ele>2123.21</ele>
        <time>2017-07-07T12:05:38Z</time>
      </trkpt>
      <trkpt lat="46.115257730707526" lon="11.870699124410748">
        <ele>2122.73</ele>
        <time>2017-07-07T12:05:41Z</time>
      </trkpt>
      <trkpt lat="46.11526376567781" lon="11.870561242103577">
        <ele>2122.73</ele>
        <time>2017-07-07T12:05:54Z</time>
      </trkpt>
      <trkpt lat="46.115273237228394" lon="11.870472813025117">
        <ele>2121.77</ele>
        <time>2017-07-07T12:06:03Z</time>
      </trkpt>
      <trkpt lat="46.115257227793336" lon="11.870393604040146">
        <ele>2120.8099999999999</ele>
        <time>2017-07-07T12:06:12Z</time>
      </trkpt>
      <trkpt lat="46.115246834233403" lon="11.870340965688229">
        <ele>2118.8800000000001</ele>
        <time>2017-07-07T12:06:20Z</time>
      </trkpt>
      <trkpt lat="46.115286396816373" lon="11.870265947654843">
        <ele>2117.9200000000001</ele>
        <time>2017-07-07T12:06:26Z</time>
      </trkpt>
      <trkpt lat="46.115286564454436" lon="11.870230995118618">
        <ele>2116.96</ele>
        <time>2017-07-07T12:06:35Z</time>
      </trkpt>
      <trkpt lat="46.115287654101849" lon="11.870206771418452">
        <ele>2117.9200000000001</ele>
        <time>2017-07-07T12:06:38Z</time>
      </trkpt>
      <trkpt lat="46.11527206376195" lon="11.870143823325634">
        <ele>2116.96</ele>
        <time>2017-07-07T12:06:44Z</time>
      </trkpt>
      <trkpt lat="46.115248762071133" lon="11.870079031214118">
        <ele>2116</ele>
        <time>2017-07-07T12:06:54Z</time>
      </trkpt>
      <trkpt lat="46.115278685465455" lon="11.870090430602431">
        <ele>2116.48</ele>
        <time>2017-07-07T12:07:07Z</time>
      </trkpt>
      <trkpt lat="46.115272901952267" lon="11.870117168873549">
        <ele>2116.48</ele>
        <time>2017-07-07T12:07:18Z</time>
      </trkpt>
      <trkpt lat="46.115267369896173" lon="11.870125383138657">
        <ele>2116.48</ele>
        <time>2017-07-07T12:07:32Z</time>
      </trkpt>
      <trkpt lat="46.115253288298845" lon="11.87010744586587">
        <ele>2116.48</ele>
        <time>2017-07-07T12:07:47Z</time>
      </trkpt>
      <trkpt lat="46.115246163681149" lon="11.870069056749344">
        <ele>2116</ele>
        <time>2017-07-07T12:07:52Z</time>
      </trkpt>
      <trkpt lat="46.115167373791337" lon="11.869890103116632">
        <ele>2112.6300000000001</ele>
        <time>2017-07-07T12:08:06Z</time>
      </trkpt>
      <trkpt lat="46.115130828693509" lon="11.869756076484919">
        <ele>2111.6700000000001</ele>
        <time>2017-07-07T12:08:15Z</time>
      </trkpt>
      <trkpt lat="46.115092188119888" lon="11.869603944942355">
        <ele>2109.75</ele>
        <time>2017-07-07T12:08:26Z</time>
      </trkpt>
      <trkpt lat="46.115069724619389" lon="11.869439072906971">
        <ele>2109.27</ele>
        <time>2017-07-07T12:08:37Z</time>
      </trkpt>
      <trkpt lat="46.115031419321895" lon="11.86927193775773">
        <ele>2107.3499999999999</ele>
        <time>2017-07-07T12:08:48Z</time>
      </trkpt>
      <trkpt lat="46.1150087043643" lon="11.86922156251967">
        <ele>2106.3899999999999</ele>
        <time>2017-07-07T12:08:52Z</time>
      </trkpt>
      <trkpt lat="46.114991940557957" lon="11.869165822863579">
        <ele>2106.3899999999999</ele>
        <time>2017-07-07T12:08:56Z</time>
      </trkpt>
      <trkpt lat="46.114982133731246" lon="11.86913313344121">
        <ele>2105.9099999999999</ele>
        <time>2017-07-07T12:08:59Z</time>
      </trkpt>
      <trkpt lat="46.114973081275821" lon="11.869097426533699">
        <ele>2105.9099999999999</ele>
        <time>2017-07-07T12:09:02Z</time>
      </trkpt>
      <trkpt lat="46.114935865625739" lon="11.869045626372099">
        <ele>2104.9400000000001</ele>
        <time>2017-07-07T12:09:08Z</time>
      </trkpt>
      <trkpt lat="46.114867720752954" lon="11.868895255029202">
        <ele>2103.02</ele>
        <time>2017-07-07T12:09:20Z</time>
      </trkpt>
      <trkpt lat="46.114808628335595" lon="11.868754522874951">
        <ele>2101.0999999999999</ele>
        <time>2017-07-07T12:09:31Z</time>
      </trkpt>
      <trkpt lat="46.114744422957301" lon="11.868601217865944">
        <ele>2099.1799999999998</ele>
        <time>2017-07-07T12:09:43Z</time>
      </trkpt>
      <trkpt lat="46.114675775170326" lon="11.868479261174798">
        <ele>2096.29</ele>
        <time>2017-07-07T12:09:55Z</time>
      </trkpt>
      <trkpt lat="46.114636128768325" lon="11.868422850966454">
        <ele>2094.3699999999999</ele>
        <time>2017-07-07T12:10:05Z</time>
      </trkpt>
      <trkpt lat="46.114578628912568" lon="11.86834741383791">
        <ele>2091.9699999999998</ele>
        <time>2017-07-07T12:10:16Z</time>
      </trkpt>
      <trkpt lat="46.114532276988029" lon="11.868262337520719">
        <ele>2090.52</ele>
        <time>2017-07-07T12:10:26Z</time>
      </trkpt>
      <trkpt lat="46.114488104358315" lon="11.868208693340421">
        <ele>2088.5999999999999</ele>
        <time>2017-07-07T12:10:35Z</time>
      </trkpt>
      <trkpt lat="46.114474022760987" lon="11.868137447163463">
        <ele>2088.5999999999999</ele>
        <time>2017-07-07T12:10:41Z</time>
      </trkpt>
      <trkpt lat="46.114451643079519" lon="11.868067961186171">
        <ele>2089.5599999999999</ele>
        <time>2017-07-07T12:10:51Z</time>
      </trkpt>
      <trkpt lat="46.114453068003058" lon="11.868002079427242">
        <ele>2089.5599999999999</ele>
        <time>2017-07-07T12:11:00Z</time>
      </trkpt>
      <trkpt lat="46.114411409944296" lon="11.867937790229917">
        <ele>2089.5599999999999</ele>
        <time>2017-07-07T12:11:13Z</time>
      </trkpt>
      <trkpt lat="46.11438911408186" lon="11.867893114686012">
        <ele>2089.0799999999999</ele>
        <time>2017-07-07T12:11:18Z</time>
      </trkpt>
      <trkpt lat="46.114381235092878" lon="11.867693960666656">
        <ele>2089.0799999999999</ele>
        <time>2017-07-07T12:11:32Z</time>
      </trkpt>
      <trkpt lat="46.114425240084529" lon="11.8675138335675">
        <ele>2089.5599999999999</ele>
        <time>2017-07-07T12:11:47Z</time>
      </trkpt>
      <trkpt lat="46.114456336945295" lon="11.867342591285706">
        <ele>2088.1199999999999</ele>
        <time>2017-07-07T12:12:01Z</time>
      </trkpt>
      <trkpt lat="46.114451643079519" lon="11.867239074781537">
        <ele>2087.1599999999999</ele>
        <time>2017-07-07T12:12:11Z</time>
      </trkpt>
      <trkpt lat="46.114422893151641" lon="11.867118878290057">
        <ele>2086.1999999999998</ele>
        <time>2017-07-07T12:12:22Z</time>
      </trkpt>
      <trkpt lat="46.114408560097218" lon="11.867020055651665">
        <ele>2085.7199999999998</ele>
        <time>2017-07-07T12:12:30Z</time>
      </trkpt>
      <trkpt lat="46.114375535398722" lon="11.866910168901086">
        <ele>2085.2399999999998</ele>
        <time>2017-07-07T12:12:39Z</time>
      </trkpt>
      <trkpt lat="46.1143300216645" lon="11.866784607991576">
        <ele>2083.3099999999999</ele>
        <time>2017-07-07T12:12:51Z</time>
      </trkpt>
      <trkpt lat="46.114301271736622" lon="11.866666423156857">
        <ele>2082.3499999999999</ele>
        <time>2017-07-07T12:13:00Z</time>
      </trkpt>
      <trkpt lat="46.114276377484202" lon="11.866527199745178">
        <ele>2081.8699999999999</ele>
        <time>2017-07-07T12:13:11Z</time>
      </trkpt>
      <trkpt lat="46.114250225946307" lon="11.86646425165236">
        <ele>2080.9099999999999</ele>
        <time>2017-07-07T12:13:19Z</time>
      </trkpt>
      <trkpt lat="46.11424352042377" lon="11.866384875029325">
        <ele>2079.4699999999998</ele>
        <time>2017-07-07T12:13:36Z</time>
      </trkpt>
      <trkpt lat="46.114234132692218" lon="11.866349000483751">
        <ele>2079.4699999999998</ele>
        <time>2017-07-07T12:13:39Z</time>
      </trkpt>
      <trkpt lat="46.114195324480534" lon="11.866253530606627">
        <ele>2077.5500000000002</ele>
        <time>2017-07-07T12:13:49Z</time>
      </trkpt>
      <trkpt lat="46.1141521576792" lon="11.866184631362557">
        <ele>2076.0999999999999</ele>
        <time>2017-07-07T12:13:59Z</time>
      </trkpt>
      <trkpt lat="46.114124078303576" lon="11.866143140941858">
        <ele>2075.1399999999999</ele>
        <time>2017-07-07T12:14:09Z</time>
      </trkpt>
      <trkpt lat="46.11406808719039" lon="11.86603182926774">
        <ele>2073.6999999999998</ele>
        <time>2017-07-07T12:14:19Z</time>
      </trkpt>
      <trkpt lat="46.114036571234465" lon="11.8659907579422">
        <ele>2073.2199999999998</ele>
        <time>2017-07-07T12:14:24Z</time>
      </trkpt>
      <trkpt lat="46.113992566242814" lon="11.86586863361299">
        <ele>2072.2600000000002</ele>
        <time>2017-07-07T12:14:34Z</time>
      </trkpt>
      <trkpt lat="46.113960463553667" lon="11.86579973436892">
        <ele>2072.2600000000002</ele>
        <time>2017-07-07T12:14:42Z</time>
      </trkpt>
      <trkpt lat="46.113885026425123" lon="11.865711389109492">
        <ele>2070.8200000000002</ele>
        <time>2017-07-07T12:14:53Z</time>
      </trkpt>
      <trkpt lat="46.113860132172704" lon="11.865643244236708">
        <ele>2070.8200000000002</ele>
        <time>2017-07-07T12:14:59Z</time>
      </trkpt>
      <trkpt lat="46.113802716135979" lon="11.865531848743558">
        <ele>2069.8600000000001</ele>
        <time>2017-07-07T12:15:09Z</time>
      </trkpt>
      <trkpt lat="46.113785365596414" lon="11.865426823496819">
        <ele>2070.8200000000002</ele>
        <time>2017-07-07T12:15:19Z</time>
      </trkpt>
      <trkpt lat="46.113765416666865" lon="11.86537217348814">
        <ele>2071.3000000000002</ele>
        <time>2017-07-07T12:15:24Z</time>
      </trkpt>
      <trkpt lat="46.113725854083896" lon="11.865258933976293">
        <ele>2071.7800000000002</ele>
        <time>2017-07-07T12:15:35Z</time>
      </trkpt>
      <trkpt lat="46.113688303157687" lon="11.865195902064443">
        <ele>2070.8200000000002</ele>
        <time>2017-07-07T12:15:45Z</time>
      </trkpt>
      <trkpt lat="46.113653015345335" lon="11.865138905122876">
        <ele>2069.8600000000001</ele>
        <time>2017-07-07T12:15:50Z</time>
      </trkpt>
      <trkpt lat="46.113579589873552" lon="11.865068413317204">
        <ele>2069.3800000000001</ele>
        <time>2017-07-07T12:16:00Z</time>
      </trkpt>
      <trkpt lat="46.113545140251517" lon="11.865061707794666">
        <ele>2067.9299999999998</ele>
        <time>2017-07-07T12:16:04Z</time>
      </trkpt>
      <trkpt lat="46.113523179665208" lon="11.865026755258441">
        <ele>2067.4499999999998</ele>
        <time>2017-07-07T12:16:16Z</time>
      </trkpt>
      <trkpt lat="46.113457549363375" lon="11.865003285929561">
        <ele>2066.0100000000002</ele>
        <time>2017-07-07T12:16:25Z</time>
      </trkpt>
      <trkpt lat="46.113446988165379" lon="11.864997586235404">
        <ele>2065.5300000000002</ele>
        <time>2017-07-07T12:16:26Z</time>
      </trkpt>
      <trkpt lat="46.113431230187416" lon="11.864978391677141">
        <ele>2065.0500000000002</ele>
        <time>2017-07-07T12:16:28Z</time>
      </trkpt>
      <trkpt lat="46.113343220204115" lon="11.864933632314205">
        <ele>2063.1300000000001</ele>
        <time>2017-07-07T12:16:38Z</time>
      </trkpt>
      <trkpt lat="46.113251773640513" lon="11.864871438592672">
        <ele>2060.7199999999998</ele>
        <time>2017-07-07T12:16:49Z</time>
      </trkpt>
      <trkpt lat="46.113244565203786" lon="11.864866577088833">
        <ele>2060.7199999999998</ele>
        <time>2017-07-07T12:16:50Z</time>
      </trkpt>
      <trkpt lat="46.113210618495941" lon="11.864839168265462">
        <ele>2061.1999999999998</ele>
        <time>2017-07-07T12:17:01Z</time>
      </trkpt>
      <trkpt lat="46.11322570592165" lon="11.864834390580654">
        <ele>2061.1999999999998</ele>
        <time>2017-07-07T12:17:11Z</time>
      </trkpt>
      <trkpt lat="46.113172983750701" lon="11.864788038656116">
        <ele>2060.7199999999998</ele>
        <time>2017-07-07T12:17:21Z</time>
      </trkpt>
      <trkpt lat="46.113114394247532" lon="11.864779908210039">
        <ele>2058.3200000000002</ele>
        <time>2017-07-07T12:17:30Z</time>
      </trkpt>
      <trkpt lat="46.113054547458887" lon="11.864719474688172">
        <ele>2055.4400000000001</ele>
        <time>2017-07-07T12:17:41Z</time>
      </trkpt>
      <trkpt lat="46.113018756732345" lon="11.864659460261464">
        <ele>2054.96</ele>
        <time>2017-07-07T12:17:47Z</time>
      </trkpt>
      <trkpt lat="46.112994616851211" lon="11.864638170227408">
        <ele>2054.4699999999998</ele>
        <time>2017-07-07T12:17:50Z</time>
      </trkpt>
      <trkpt lat="46.112965028733015" lon="11.864563571289182">
        <ele>2053.9899999999998</ele>
        <time>2017-07-07T12:18:00Z</time>
      </trkpt>
      <trkpt lat="46.112946588546038" lon="11.864509843289852">
        <ele>2053.0300000000002</ele>
        <time>2017-07-07T12:18:08Z</time>
      </trkpt>
      <trkpt lat="46.112936865538359" lon="11.864499868825078">
        <ele>2052.0700000000002</ele>
        <time>2017-07-07T12:18:18Z</time>
      </trkpt>
      <trkpt lat="46.112893782556057" lon="11.864551333710551">
        <ele>2049.6700000000001</ele>
        <time>2017-07-07T12:18:27Z</time>
      </trkpt>
      <trkpt lat="46.112856483086944" lon="11.864582933485508">
        <ele>2047.75</ele>
        <time>2017-07-07T12:18:37Z</time>
      </trkpt>
      <trkpt lat="46.112819770351052" lon="11.864552842453122">
        <ele>2046.78</ele>
        <time>2017-07-07T12:18:46Z</time>
      </trkpt>
      <trkpt lat="46.112787332385778" lon="11.864585280418396">
        <ele>2044.3800000000001</ele>
        <time>2017-07-07T12:18:58Z</time>
      </trkpt>
      <trkpt lat="46.11275221221149" lon="11.86461478471756">
        <ele>2042.46</ele>
        <time>2017-07-07T12:19:08Z</time>
      </trkpt>
      <trkpt lat="46.112719187512994" lon="11.864639176055789">
        <ele>2040.05</ele>
        <time>2017-07-07T12:19:19Z</time>
      </trkpt>
      <trkpt lat="46.112665878608823" lon="11.864608665928245">
        <ele>2038.1300000000001</ele>
        <time>2017-07-07T12:19:29Z</time>
      </trkpt>
      <trkpt lat="46.112658586353064" lon="11.864608665928245">
        <ele>2038.1300000000001</ele>
        <time>2017-07-07T12:19:30Z</time>
      </trkpt>
      <trkpt lat="46.11260712146759" lon="11.864617550745606">
        <ele>2035.73</ele>
        <time>2017-07-07T12:19:39Z</time>
      </trkpt>
      <trkpt lat="46.112575773149729" lon="11.864594165235758">
        <ele>2034.29</ele>
        <time>2017-07-07T12:19:44Z</time>
      </trkpt>
      <trkpt lat="46.112526822835207" lon="11.864514704793692">
        <ele>2033.3299999999999</ele>
        <time>2017-07-07T12:19:56Z</time>
      </trkpt>
      <trkpt lat="46.112501593306661" lon="11.864521242678165">
        <ele>2033.3299999999999</ele>
        <time>2017-07-07T12:20:13Z</time>
      </trkpt>
      <trkpt lat="46.112478040158749" lon="11.864440022036433">
        <ele>2034.77</ele>
        <time>2017-07-07T12:20:23Z</time>
      </trkpt>
      <trkpt lat="46.112457672134042" lon="11.864355364814401">
        <ele>2036.21</ele>
        <time>2017-07-07T12:20:34Z</time>
      </trkpt>
      <trkpt lat="46.112449793145061" lon="11.864320831373334">
        <ele>2036.6900000000001</ele>
        <time>2017-07-07T12:20:45Z</time>
      </trkpt>
      <trkpt lat="46.112443171441555" lon="11.864317394793034">
        <ele>2036.6900000000001</ele>
        <time>2017-07-07T12:20:48Z</time>
      </trkpt>
      <trkpt lat="46.112459348514676" lon="11.864201640710235">
        <ele>2037.6500000000001</ele>
        <time>2017-07-07T12:20:59Z</time>
      </trkpt>
      <trkpt lat="46.112459013238549" lon="11.864141123369336">
        <ele>2038.6099999999999</ele>
        <time>2017-07-07T12:21:10Z</time>
      </trkpt>
      <trkpt lat="46.112458761781454" lon="11.864099968224764">
        <ele>2039.0899999999999</ele>
        <time>2017-07-07T12:21:14Z</time>
      </trkpt>
      <trkpt lat="46.112431772053242" lon="11.863957475870848">
        <ele>2039.5699999999999</ele>
        <time>2017-07-07T12:21:28Z</time>
      </trkpt>
      <trkpt lat="46.112425234168768" lon="11.863948926329613">
        <ele>2040.05</ele>
        <time>2017-07-07T12:21:29Z</time>
      </trkpt>
      <trkpt lat="46.112394891679287" lon="11.863903915509582">
        <ele>2039.0899999999999</ele>
        <time>2017-07-07T12:21:36Z</time>
      </trkpt>
      <trkpt lat="46.112324651330709" lon="11.863897712901235">
        <ele>2038.1300000000001</ele>
        <time>2017-07-07T12:21:47Z</time>
      </trkpt>
      <trkpt lat="46.112294979393482" lon="11.863907352089882">
        <ele>2037.6500000000001</ele>
        <time>2017-07-07T12:21:50Z</time>
      </trkpt>
      <trkpt lat="46.112242005765438" lon="11.863890923559666">
        <ele>2038.1300000000001</ele>
        <time>2017-07-07T12:22:00Z</time>
      </trkpt>
      <trkpt lat="46.112218284979463" lon="11.863867789506912">
        <ele>2038.6099999999999</ele>
        <time>2017-07-07T12:22:10Z</time>
      </trkpt>
      <trkpt lat="46.112193055450916" lon="11.863840715959668">
        <ele>2040.05</ele>
        <time>2017-07-07T12:22:21Z</time>
      </trkpt>
      <trkpt lat="46.112174112349749" lon="11.863817581906915">
        <ele>2040.05</ele>
        <time>2017-07-07T12:22:34Z</time>
      </trkpt>
      <trkpt lat="46.112156342715025" lon="11.86376410536468">
        <ele>2041.02</ele>
        <time>2017-07-07T12:22:47Z</time>
      </trkpt>
      <trkpt lat="46.11213848926127" lon="11.86377726495266">
        <ele>2041.02</ele>
        <time>2017-07-07T12:22:58Z</time>
      </trkpt>
      <trkpt lat="46.112134046852589" lon="11.863772151991725">
        <ele>2040.54</ele>
        <time>2017-07-07T12:23:04Z</time>
      </trkpt>
      <trkpt lat="46.112082749605179" lon="11.863686153665185">
        <ele>2039.5699999999999</ele>
        <time>2017-07-07T12:23:14Z</time>
      </trkpt>
      <trkpt lat="46.112043103203177" lon="11.863563777878881">
        <ele>2039.0899999999999</ele>
        <time>2017-07-07T12:23:25Z</time>
      </trkpt>
      <trkpt lat="46.11207252368331" lon="11.863456992432475">
        <ele>2039.0899999999999</ele>
        <time>2017-07-07T12:23:38Z</time>
      </trkpt>
      <trkpt lat="46.112074870616198" lon="11.863389853388071">
        <ele>2041.02</ele>
        <time>2017-07-07T12:23:46Z</time>
      </trkpt>
      <trkpt lat="46.112087611109018" lon="11.863316260278225">
        <ele>2041.5</ele>
        <time>2017-07-07T12:23:54Z</time>
      </trkpt>
      <trkpt lat="46.112133711576462" lon="11.86321240849793">
        <ele>2041.02</ele>
        <time>2017-07-07T12:24:05Z</time>
      </trkpt>
      <trkpt lat="46.112131364643574" lon="11.863226993009448">
        <ele>2041.5</ele>
        <time>2017-07-07T12:24:15Z</time>
      </trkpt>
      <trkpt lat="46.112119629979134" lon="11.863234620541334">
        <ele>2041.02</ele>
        <time>2017-07-07T12:24:31Z</time>
      </trkpt>
      <trkpt lat="46.112125162035227" lon="11.863229339942336">
        <ele>2041.5</ele>
        <time>2017-07-07T12:24:34Z</time>
      </trkpt>
      <trkpt lat="46.112143434584141" lon="11.863177288323641">
        <ele>2041.5</ele>
        <time>2017-07-07T12:24:38Z</time>
      </trkpt>
      <trkpt lat="46.11215366050601" lon="11.863116770982742">
        <ele>2041.5</ele>
        <time>2017-07-07T12:24:42Z</time>
      </trkpt>
      <trkpt lat="46.112151145935059" lon="11.862980397418141">
        <ele>2039.5699999999999</ele>
        <time>2017-07-07T12:24:54Z</time>
      </trkpt>
      <trkpt lat="46.112143853679299" lon="11.862889872863889">
        <ele>2038.6099999999999</ele>
        <time>2017-07-07T12:25:00Z</time>
      </trkpt>
      <trkpt lat="46.112175285816193" lon="11.862784931436181">
        <ele>2040.05</ele>
        <time>2017-07-07T12:25:11Z</time>
      </trkpt>
      <trkpt lat="46.112192049622536" lon="11.862678397446871">
        <ele>2041.02</ele>
        <time>2017-07-07T12:25:21Z</time>
      </trkpt>
      <trkpt lat="46.112211747094989" lon="11.862560799345374">
        <ele>2041.5</ele>
        <time>2017-07-07T12:25:31Z</time>
      </trkpt>
      <trkpt lat="46.112214596942067" lon="11.862433813512325">
        <ele>2042.46</ele>
        <time>2017-07-07T12:25:44Z</time>
      </trkpt>
      <trkpt lat="46.112177297472954" lon="11.862300373613834">
        <ele>2042.9400000000001</ele>
        <time>2017-07-07T12:25:57Z</time>
      </trkpt>
      <trkpt lat="46.112160366028547" lon="11.862283190712333">
        <ele>2042.9400000000001</ele>
        <time>2017-07-07T12:26:05Z</time>
      </trkpt>
      <trkpt lat="46.112190457060933" lon="11.862243209034204">
        <ele>2043.9000000000001</ele>
        <time>2017-07-07T12:26:10Z</time>
      </trkpt>
      <trkpt lat="46.112204287201166" lon="11.86220683157444">
        <ele>2043.9000000000001</ele>
        <time>2017-07-07T12:26:14Z</time>
      </trkpt>
      <trkpt lat="46.112191379070282" lon="11.862154612317681">
        <ele>2044.3800000000001</ele>
        <time>2017-07-07T12:26:24Z</time>
      </trkpt>
      <trkpt lat="46.112177548930049" lon="11.862118067219853">
        <ele>2044.3800000000001</ele>
        <time>2017-07-07T12:26:40Z</time>
      </trkpt>
      <trkpt lat="46.112205879762769" lon="11.86209300532937">
        <ele>2044.3800000000001</ele>
        <time>2017-07-07T12:26:54Z</time>
      </trkpt>
      <trkpt lat="46.112212752923369" lon="11.862077079713345">
        <ele>2044.8599999999999</ele>
        <time>2017-07-07T12:27:06Z</time>
      </trkpt>
      <trkpt lat="46.112210154533386" lon="11.862086718901992">
        <ele>2045.8199999999999</ele>
        <time>2017-07-07T12:27:15Z</time>
      </trkpt>
      <trkpt lat="46.112194648012519" lon="11.862065512686968">
        <ele>2045.8199999999999</ele>
        <time>2017-07-07T12:27:23Z</time>
      </trkpt>
      <trkpt lat="46.112198503687978" lon="11.862003654241562">
        <ele>2044.8599999999999</ele>
        <time>2017-07-07T12:27:35Z</time>
      </trkpt>
      <trkpt lat="46.112225325778127" lon="11.861954871565104">
        <ele>2045.8199999999999</ele>
        <time>2017-07-07T12:27:42Z</time>
      </trkpt>
      <trkpt lat="46.112210992723703" lon="11.861908184364438">
        <ele>2044.8599999999999</ele>
        <time>2017-07-07T12:27:50Z</time>
      </trkpt>
      <trkpt lat="46.112217362970114" lon="11.86189997009933">
        <ele>2045.3399999999999</ele>
        <time>2017-07-07T12:27:59Z</time>
      </trkpt>
      <trkpt lat="46.112217782065272" lon="11.861886726692319">
        <ele>2045.3399999999999</ele>
        <time>2017-07-07T12:28:00Z</time>
      </trkpt>
      <trkpt lat="46.112217027693987" lon="11.861812463030219">
        <ele>2045.8199999999999</ele>
        <time>2017-07-07T12:28:06Z</time>
      </trkpt>
      <trkpt lat="46.112234964966774" lon="11.861679945141077">
        <ele>2046.78</ele>
        <time>2017-07-07T12:28:16Z</time>
      </trkpt>
      <trkpt lat="46.112237311899662" lon="11.861566537991166">
        <ele>2047.26</ele>
        <time>2017-07-07T12:28:26Z</time>
      </trkpt>
      <trkpt lat="46.112232953310013" lon="11.861541559919715">
        <ele>2047.26</ele>
        <time>2017-07-07T12:28:28Z</time>
      </trkpt>
      <trkpt lat="46.112209567800164" lon="11.861409796401858">
        <ele>2047.26</ele>
        <time>2017-07-07T12:28:39Z</time>
      </trkpt>
      <trkpt lat="46.112180817872286" lon="11.861304100602865">
        <ele>2047.75</ele>
        <time>2017-07-07T12:28:49Z</time>
      </trkpt>
      <trkpt lat="46.112164137884974" lon="11.861183736473322">
        <ele>2047.75</ele>
        <time>2017-07-07T12:28:59Z</time>
      </trkpt>
      <trkpt lat="46.112152906134725" lon="11.861098743975163">
        <ele>2048.71</ele>
        <time>2017-07-07T12:29:09Z</time>
      </trkpt>
      <trkpt lat="46.1121472902596" lon="11.861082147806883">
        <ele>2048.71</ele>
        <time>2017-07-07T12:29:24Z</time>
      </trkpt>
      <trkpt lat="46.112161036580801" lon="11.861028587445617">
        <ele>2048.71</ele>
        <time>2017-07-07T12:29:31Z</time>
      </trkpt>
      <trkpt lat="46.112146032974124" lon="11.860948707908392">
        <ele>2049.1900000000001</ele>
        <time>2017-07-07T12:29:38Z</time>
      </trkpt>
      <trkpt lat="46.11213656142354" lon="11.860835216939449">
        <ele>2049.1900000000001</ele>
        <time>2017-07-07T12:29:49Z</time>
      </trkpt>
      <trkpt lat="46.112106973305345" lon="11.860681576654315">
        <ele>2049.6700000000001</ele>
        <time>2017-07-07T12:30:01Z</time>
      </trkpt>
      <trkpt lat="46.112089455127716" lon="11.860652239993215">
        <ele>2049.1900000000001</ele>
        <time>2017-07-07T12:30:04Z</time>
      </trkpt>
      <trkpt lat="46.112100351601839" lon="11.860528942197561">
        <ele>2049.6700000000001</ele>
        <time>2017-07-07T12:30:13Z</time>
      </trkpt>
      <trkpt lat="46.112092221155763" lon="11.860406482592225">
        <ele>2050.1500000000001</ele>
        <time>2017-07-07T12:30:23Z</time>
      </trkpt>
      <trkpt lat="46.112086605280638" lon="11.860282765701413">
        <ele>2050.1500000000001</ele>
        <time>2017-07-07T12:30:33Z</time>
      </trkpt>
      <trkpt lat="46.112057771533728" lon="11.860112445428967">
        <ele>2050.6300000000001</ele>
        <time>2017-07-07T12:30:47Z</time>
      </trkpt>
      <trkpt lat="46.112033380195498" lon="11.859933827072382">
        <ele>2050.6300000000001</ele>
        <time>2017-07-07T12:31:00Z</time>
      </trkpt>
      <trkpt lat="46.1119953263551" lon="11.859750263392925">
        <ele>2051.1100000000001</ele>
        <time>2017-07-07T12:31:14Z</time>
      </trkpt>
      <trkpt lat="46.111972024664283" lon="11.859603663906455">
        <ele>2051.5900000000001</ele>
        <time>2017-07-07T12:31:26Z</time>
      </trkpt>
      <trkpt lat="46.111960289999843" lon="11.859476678073406">
        <ele>2051.5900000000001</ele>
        <time>2017-07-07T12:31:37Z</time>
      </trkpt>
      <trkpt lat="46.111959032714367" lon="11.859340136870742">
        <ele>2052.0700000000002</ele>
        <time>2017-07-07T12:31:48Z</time>
      </trkpt>
      <trkpt lat="46.111946711316705" lon="11.859155483543873">
        <ele>2051.5900000000001</ele>
        <time>2017-07-07T12:32:00Z</time>
      </trkpt>
      <trkpt lat="46.111931875348091" lon="11.858977451920509">
        <ele>2052.0700000000002</ele>
        <time>2017-07-07T12:32:13Z</time>
      </trkpt>
      <trkpt lat="46.111903628334403" lon="11.85880453325808">
        <ele>2051.5900000000001</ele>
        <time>2017-07-07T12:32:25Z</time>
      </trkpt>
      <trkpt lat="46.111895414069295" lon="11.858656173571944">
        <ele>2052.0700000000002</ele>
        <time>2017-07-07T12:32:37Z</time>
      </trkpt>
      <trkpt lat="46.11186389811337" lon="11.858489960432053">
        <ele>2052.0700000000002</ele>
        <time>2017-07-07T12:32:49Z</time>
      </trkpt>
      <trkpt lat="46.111857444047928" lon="11.858362639322877">
        <ele>2052.0700000000002</ele>
        <time>2017-07-07T12:33:00Z</time>
      </trkpt>
      <trkpt lat="46.111828442662954" lon="11.858179410919547">
        <ele>2051.1100000000001</ele>
        <time>2017-07-07T12:33:13Z</time>
      </trkpt>
      <trkpt lat="46.111810253933072" lon="11.858020490035415">
        <ele>2051.5900000000001</ele>
        <time>2017-07-07T12:33:24Z</time>
      </trkpt>
      <trkpt lat="46.111808158457279" lon="11.857874058187008">
        <ele>2052.0700000000002</ele>
        <time>2017-07-07T12:33:35Z</time>
      </trkpt>
      <trkpt lat="46.111807068809867" lon="11.857724357396364">
        <ele>2052.0700000000002</ele>
        <time>2017-07-07T12:33:46Z</time>
      </trkpt>
      <trkpt lat="46.111804721876979" lon="11.85755311511457">
        <ele>2052.5500000000002</ele>
        <time>2017-07-07T12:33:59Z</time>
      </trkpt>
      <trkpt lat="46.111810337752104" lon="11.857517743483186">
        <ele>2052.5500000000002</ele>
        <time>2017-07-07T12:34:02Z</time>
      </trkpt>
      <trkpt lat="46.111805057153106" lon="11.857340801507235">
        <ele>2053.0300000000002</ele>
        <time>2017-07-07T12:34:15Z</time>
      </trkpt>
      <trkpt lat="46.111810337752104" lon="11.857202248647809">
        <ele>2053.0300000000002</ele>
        <time>2017-07-07T12:34:25Z</time>
      </trkpt>
      <trkpt lat="46.111819976940751" lon="11.857164278626442">
        <ele>2053.5100000000002</ele>
        <time>2017-07-07T12:34:28Z</time>
      </trkpt>
      <trkpt lat="46.111836489289999" lon="11.856994209811091">
        <ele>2053.5100000000002</ele>
        <time>2017-07-07T12:34:41Z</time>
      </trkpt>
      <trkpt lat="46.111834058538079" lon="11.856846939772367">
        <ele>2054.4699999999998</ele>
        <time>2017-07-07T12:34:53Z</time>
      </trkpt>
      <trkpt lat="46.111845290288329" lon="11.856692712754011">
        <ele>2054.4699999999998</ele>
        <time>2017-07-07T12:35:04Z</time>
      </trkpt>
      <trkpt lat="46.111830621957779" lon="11.856641918420792">
        <ele>2053.9899999999998</ele>
        <time>2017-07-07T12:35:08Z</time>
      </trkpt>
      <trkpt lat="46.111814025789499" lon="11.856482746079564">
        <ele>2054.96</ele>
        <time>2017-07-07T12:35:21Z</time>
      </trkpt>
      <trkpt lat="46.111824251711369" lon="11.856433376669884">
        <ele>2054.96</ele>
        <time>2017-07-07T12:35:25Z</time>
      </trkpt>
      <trkpt lat="46.111844535917044" lon="11.856345450505614">
        <ele>2055.4400000000001</ele>
        <time>2017-07-07T12:35:32Z</time>
      </trkpt>
      <trkpt lat="46.111801788210869" lon="11.8561683408916">
        <ele>2055.4400000000001</ele>
        <time>2017-07-07T12:35:45Z</time>
      </trkpt>
      <trkpt lat="46.111776558682323" lon="11.856041941791773">
        <ele>2055.4400000000001</ele>
        <time>2017-07-07T12:35:55Z</time>
      </trkpt>
      <trkpt lat="46.111778318881989" lon="11.855878243222833">
        <ele>2055.4400000000001</ele>
        <time>2017-07-07T12:36:08Z</time>
      </trkpt>
      <trkpt lat="46.111785694956779" lon="11.855868855491281">
        <ele>2055.4400000000001</ele>
        <time>2017-07-07T12:36:22Z</time>
      </trkpt>
      <trkpt lat="46.111785527318716" lon="11.855854941532016">
        <ele>2055.4400000000001</ele>
        <time>2017-07-07T12:36:39Z</time>
      </trkpt>
      <trkpt lat="46.111785778775811" lon="11.855860976502299">
        <ele>2055.4400000000001</ele>
        <time>2017-07-07T12:36:56Z</time>
      </trkpt>
      <trkpt lat="46.111792400479317" lon="11.855856953188777">
        <ele>2055.9200000000001</ele>
        <time>2017-07-07T12:37:11Z</time>
      </trkpt>
      <trkpt lat="46.111795669421554" lon="11.855865335091949">
        <ele>2055.9200000000001</ele>
        <time>2017-07-07T12:37:26Z</time>
      </trkpt>
      <trkpt lat="46.111768679693341" lon="11.855867598205805">
        <ele>2055.9200000000001</ele>
        <time>2017-07-07T12:37:41Z</time>
      </trkpt>
      <trkpt lat="46.11177303828299" lon="11.855855528265238">
        <ele>2055.9200000000001</ele>
        <time>2017-07-07T12:37:53Z</time>
      </trkpt>
      <trkpt lat="46.111784605309367" lon="11.855857456102967">
        <ele>2055.9200000000001</ele>
        <time>2017-07-07T12:38:03Z</time>
      </trkpt>
      <trkpt lat="46.111785192042589" lon="11.855856450274587">
        <ele>2055.4400000000001</ele>
        <time>2017-07-07T12:38:15Z</time>
      </trkpt>
      <trkpt lat="46.111784940585494" lon="11.855861311778426">
        <ele>2055.4400000000001</ele>
        <time>2017-07-07T12:38:33Z</time>
      </trkpt>
      <trkpt lat="46.111789969727397" lon="11.85585561208427">
        <ele>2055.9200000000001</ele>
        <time>2017-07-07T12:38:51Z</time>
      </trkpt>
      <trkpt lat="46.111796759068966" lon="11.855869693681598">
        <ele>2055.4400000000001</ele>
        <time>2017-07-07T12:39:12Z</time>
      </trkpt>
      <trkpt lat="46.111794328317046" lon="11.855886792764068">
        <ele>2055.4400000000001</ele>
        <time>2017-07-07T12:39:26Z</time>
      </trkpt>
      <trkpt lat="46.111785946413875" lon="11.855858713388443">
        <ele>2055.4400000000001</ele>
        <time>2017-07-07T12:39:42Z</time>
      </trkpt>
      <trkpt lat="46.111784353852272" lon="11.85584731400013">
        <ele>2054.96</ele>
        <time>2017-07-07T12:40:09Z</time>
      </trkpt>
      <trkpt lat="46.111802458763123" lon="11.855866340920329">
        <ele>2055.4400000000001</ele>
        <time>2017-07-07T12:40:23Z</time>
      </trkpt>
      <trkpt lat="46.111811343580484" lon="11.85590255074203">
        <ele>2054.96</ele>
        <time>2017-07-07T12:40:46Z</time>
      </trkpt>
      <trkpt lat="46.111806817352772" lon="11.855900287628174">
        <ele>2055.4400000000001</ele>
        <time>2017-07-07T12:41:11Z</time>
      </trkpt>
      <trkpt lat="46.111801955848932" lon="11.855893163010478">
        <ele>2054.96</ele>
        <time>2017-07-07T12:41:31Z</time>
      </trkpt>
      <trkpt lat="46.111797681078315" lon="11.855898527428508">
        <ele>2054.96</ele>
        <time>2017-07-07T12:41:45Z</time>
      </trkpt>
      <trkpt lat="46.111801704391837" lon="11.855887966230512">
        <ele>2054.96</ele>
        <time>2017-07-07T12:42:05Z</time>
      </trkpt>
      <trkpt lat="46.111802961677313" lon="11.855889977887273">
        <ele>2055.4400000000001</ele>
        <time>2017-07-07T12:42:24Z</time>
      </trkpt>
      <trkpt lat="46.111780665814877" lon="11.855850499123335">
        <ele>2055.4400000000001</ele>
        <time>2017-07-07T12:42:35Z</time>
      </trkpt>
      <trkpt lat="46.111768009141088" lon="11.855775816366076">
        <ele>2054.96</ele>
        <time>2017-07-07T12:42:43Z</time>
      </trkpt>
      <trkpt lat="46.111730290576816" lon="11.855657547712326">
        <ele>2054.96</ele>
        <time>2017-07-07T12:42:54Z</time>
      </trkpt>
      <trkpt lat="46.111662732437253" lon="11.855460992082953">
        <ele>2054.96</ele>
        <time>2017-07-07T12:43:08Z</time>
      </trkpt>
      <trkpt lat="46.111619817093015" lon="11.855259574949741">
        <ele>2054.96</ele>
        <time>2017-07-07T12:43:21Z</time>
      </trkpt>
      <trkpt lat="46.111602382734418" lon="11.855126973241568">
        <ele>2054.4699999999998</ele>
        <time>2017-07-07T12:43:29Z</time>
      </trkpt>
      <trkpt lat="46.11154530197382" lon="11.854921448975801">
        <ele>2054.96</ele>
        <time>2017-07-07T12:43:43Z</time>
      </trkpt>
      <trkpt lat="46.111552258953452" lon="11.854849196970463">
        <ele>2054.4699999999998</ele>
        <time>2017-07-07T12:43:48Z</time>
      </trkpt>
      <trkpt lat="46.111545972526073" lon="11.854800498113036">
        <ele>2054.4699999999998</ele>
        <time>2017-07-07T12:43:52Z</time>
      </trkpt>
      <trkpt lat="46.111447652801871" lon="11.854547951370478">
        <ele>2053.5100000000002</ele>
        <time>2017-07-07T12:44:09Z</time>
      </trkpt>
      <trkpt lat="46.111418232321739" lon="11.854464048519731">
        <ele>2053.5100000000002</ele>
        <time>2017-07-07T12:44:18Z</time>
      </trkpt>
      <trkpt lat="46.111335922032595" lon="11.854296326637268">
        <ele>2053.5100000000002</ele>
        <time>2017-07-07T12:44:31Z</time>
      </trkpt>
      <trkpt lat="46.111346064135432" lon="11.854226253926754">
        <ele>2052.5500000000002</ele>
        <time>2017-07-07T12:44:36Z</time>
      </trkpt>
      <trkpt lat="46.111343214288354" lon="11.854144362732768">
        <ele>2052.0700000000002</ele>
        <time>2017-07-07T12:44:42Z</time>
      </trkpt>
      <trkpt lat="46.111333658918738" lon="11.85407655313611">
        <ele>2052.0700000000002</ele>
        <time>2017-07-07T12:44:55Z</time>
      </trkpt>
      <trkpt lat="46.111330222338438" lon="11.854075128212571">
        <ele>2052.0700000000002</ele>
        <time>2017-07-07T12:45:08Z</time>
      </trkpt>
      <trkpt lat="46.111327959224582" lon="11.854050820693374">
        <ele>2051.5900000000001</ele>
        <time>2017-07-07T12:45:15Z</time>
      </trkpt>
      <trkpt lat="46.11132150515914" lon="11.853992231190205">
        <ele>2052.5500000000002</ele>
        <time>2017-07-07T12:45:27Z</time>
      </trkpt>
      <trkpt lat="46.111279344186187" lon="11.853895839303732">
        <ele>2052.0700000000002</ele>
        <time>2017-07-07T12:45:39Z</time>
      </trkpt>
      <trkpt lat="46.111255120486021" lon="11.853816462680697">
        <ele>2053.0300000000002</ele>
        <time>2017-07-07T12:45:51Z</time>
      </trkpt>
      <trkpt lat="46.11124137416482" lon="11.853791400790215">
        <ele>2053.0300000000002</ele>
        <time>2017-07-07T12:45:54Z</time>
      </trkpt>
      <trkpt lat="46.111160572618246" lon="11.853691320866346">
        <ele>2053.0300000000002</ele>
        <time>2017-07-07T12:46:05Z</time>
      </trkpt>
      <trkpt lat="46.111191166564822" lon="11.853510690853">
        <ele>2053.0300000000002</ele>
        <time>2017-07-07T12:46:16Z</time>
      </trkpt>
      <trkpt lat="46.111226370558143" lon="11.85336702503264">
        <ele>2053.0300000000002</ele>
        <time>2017-07-07T12:46:27Z</time>
      </trkpt>
      <trkpt lat="46.111239194869995" lon="11.853344226256013">
        <ele>2053.0300000000002</ele>
        <time>2017-07-07T12:46:29Z</time>
      </trkpt>
      <trkpt lat="46.111299376934767" lon="11.853230483829975">
        <ele>2053.0300000000002</ele>
        <time>2017-07-07T12:46:40Z</time>
      </trkpt>
      <trkpt lat="46.111296191811562" lon="11.853175414726138">
        <ele>2053.0300000000002</ele>
        <time>2017-07-07T12:46:44Z</time>
      </trkpt>
      <trkpt lat="46.111266687512398" lon="11.853100983425975">
        <ele>2052.5500000000002</ele>
        <time>2017-07-07T12:46:50Z</time>
      </trkpt>
      <trkpt lat="46.111226286739111" lon="11.852953294292092">
        <ele>2053.0300000000002</ele>
        <time>2017-07-07T12:47:00Z</time>
      </trkpt>
      <trkpt lat="46.111234668642282" lon="11.852789930999279">
        <ele>2053.0300000000002</ele>
        <time>2017-07-07T12:47:10Z</time>
      </trkpt>
      <trkpt lat="46.111258808523417" lon="11.85261994600296">
        <ele>2053.0300000000002</ele>
        <time>2017-07-07T12:47:23Z</time>
      </trkpt>
      <trkpt lat="46.111263334751129" lon="11.852501928806305">
        <ele>2053.5100000000002</ele>
        <time>2017-07-07T12:47:31Z</time>
      </trkpt>
      <trkpt lat="46.111257215961814" lon="11.852397741749883">
        <ele>2053.5100000000002</ele>
        <time>2017-07-07T12:47:39Z</time>
      </trkpt>
      <trkpt lat="46.111236345022917" lon="11.852241167798638">
        <ele>2053.9899999999998</ele>
        <time>2017-07-07T12:47:51Z</time>
      </trkpt>
      <trkpt lat="46.111242966726422" lon="11.85208685696125">
        <ele>2053.5100000000002</ele>
        <time>2017-07-07T12:48:02Z</time>
      </trkpt>
      <trkpt lat="46.111251264810562" lon="11.851946208626032">
        <ele>2053.9899999999998</ele>
        <time>2017-07-07T12:48:11Z</time>
      </trkpt>
      <trkpt lat="46.111232405528426" lon="11.851810170337558">
        <ele>2053.0300000000002</ele>
        <time>2017-07-07T12:48:21Z</time>
      </trkpt>
      <trkpt lat="46.11113341525197" lon="11.851655775681138">
        <ele>2053.0300000000002</ele>
        <time>2017-07-07T12:48:34Z</time>
      </trkpt>
      <trkpt lat="46.111173396930099" lon="11.85149216093123">
        <ele>2053.0300000000002</ele>
        <time>2017-07-07T12:48:46Z</time>
      </trkpt>
      <trkpt lat="46.111238775774837" lon="11.851399624720216">
        <ele>2053.5100000000002</ele>
        <time>2017-07-07T12:48:58Z</time>
      </trkpt>
      <trkpt lat="46.111292084679008" lon="11.851255958899856">
        <ele>2053.5100000000002</ele>
        <time>2017-07-07T12:49:10Z</time>
      </trkpt>
      <trkpt lat="46.111305663362145" lon="11.851093685254455">
        <ele>2053.9899999999998</ele>
        <time>2017-07-07T12:49:23Z</time>
      </trkpt>
      <trkpt lat="46.111357128247619" lon="11.851010955870152">
        <ele>2054.4699999999998</ele>
        <time>2017-07-07T12:49:34Z</time>
      </trkpt>
      <trkpt lat="46.111395852640271" lon="11.850949181243777">
        <ele>2054.4699999999998</ele>
        <time>2017-07-07T12:49:40Z</time>
      </trkpt>
      <trkpt lat="46.111350506544113" lon="11.850770898163319">
        <ele>2054.96</ele>
        <time>2017-07-07T12:49:53Z</time>
      </trkpt>
      <trkpt lat="46.111308513209224" lon="11.850652378052473">
        <ele>2055.4400000000001</ele>
        <time>2017-07-07T12:50:02Z</time>
      </trkpt>
      <trkpt lat="46.111234584823251" lon="11.850470323115587">
        <ele>2055.9200000000001</ele>
        <time>2017-07-07T12:50:16Z</time>
      </trkpt>
      <trkpt lat="46.111232824623585" lon="11.850403435528278">
        <ele>2055.9200000000001</ele>
        <time>2017-07-07T12:50:20Z</time>
      </trkpt>
      <trkpt lat="46.111247912049294" lon="11.85031408444047">
        <ele>2055.9200000000001</ele>
        <time>2017-07-07T12:50:26Z</time>
      </trkpt>
      <trkpt lat="46.111181695014238" lon="11.85018508695066">
        <ele>2055.9200000000001</ele>
        <time>2017-07-07T12:50:37Z</time>
      </trkpt>
      <trkpt lat="46.111144563183188" lon="11.850115181878209">
        <ele>2055.9200000000001</ele>
        <time>2017-07-07T12:50:43Z</time>
      </trkpt>
      <trkpt lat="46.111117321997881" lon="11.849939581006765">
        <ele>2055.4400000000001</ele>
        <time>2017-07-07T12:50:55Z</time>
      </trkpt>
      <trkpt lat="46.111116399988532" lon="11.849921559914947">
        <ele>2055.4400000000001</ele>
        <time>2017-07-07T12:50:56Z</time>
      </trkpt>
      <trkpt lat="46.1111094430089" lon="11.849811086431146">
        <ele>2055.9200000000001</ele>
        <time>2017-07-07T12:51:03Z</time>
      </trkpt>
      <trkpt lat="46.111053116619587" lon="11.849673958495259">
        <ele>2055.9200000000001</ele>
        <time>2017-07-07T12:51:14Z</time>
      </trkpt>
      <trkpt lat="46.111012464389205" lon="11.849490813910961">
        <ele>2056.4000000000001</ele>
        <time>2017-07-07T12:51:28Z</time>
      </trkpt>
      <trkpt lat="46.110981367528439" lon="11.849369360134006">
        <ele>2056.8800000000001</ele>
        <time>2017-07-07T12:51:36Z</time>
      </trkpt>
      <trkpt lat="46.110842479392886" lon="11.849288307130337">
        <ele>2055.4400000000001</ele>
        <time>2017-07-07T12:51:50Z</time>
      </trkpt>
      <trkpt lat="46.1107312515378" lon="11.849196525290608">
        <ele>2055.9200000000001</ele>
        <time>2017-07-07T12:52:02Z</time>
      </trkpt>
      <trkpt lat="46.11070048995316" lon="11.849141707643867">
        <ele>2056.4000000000001</ele>
        <time>2017-07-07T12:52:07Z</time>
      </trkpt>
      <trkpt lat="46.110664447769523" lon="11.849054535850883">
        <ele>2057.3600000000001</ele>
        <time>2017-07-07T12:52:14Z</time>
      </trkpt>
      <trkpt lat="46.110655982047319" lon="11.848903326317668">
        <ele>2058.3200000000002</ele>
        <time>2017-07-07T12:52:25Z</time>
      </trkpt>
      <trkpt lat="46.110653635114431" lon="11.848766030743718">
        <ele>2059.2800000000002</ele>
        <time>2017-07-07T12:52:36Z</time>
      </trkpt>
      <trkpt lat="46.110691102221608" lon="11.848655641078949">
        <ele>2060.7199999999998</ele>
        <time>2017-07-07T12:52:48Z</time>
      </trkpt>
      <trkpt lat="46.11071364954114" lon="11.848566457629204">
        <ele>2060.7199999999998</ele>
        <time>2017-07-07T12:52:59Z</time>
      </trkpt>
      <trkpt lat="46.110753295943141" lon="11.848475933074951">
        <ele>2061.6799999999998</ele>
        <time>2017-07-07T12:53:10Z</time>
      </trkpt>
      <trkpt lat="46.110762599855661" lon="11.848437376320362">
        <ele>2061.1999999999998</ele>
        <time>2017-07-07T12:53:18Z</time>
      </trkpt>
      <trkpt lat="46.1107605881989" lon="11.848309636116028">
        <ele>2063.1300000000001</ele>
        <time>2017-07-07T12:53:30Z</time>
      </trkpt>
      <trkpt lat="46.110747847706079" lon="11.848226571455598">
        <ele>2064.0900000000001</ele>
        <time>2017-07-07T12:53:41Z</time>
      </trkpt>
      <trkpt lat="46.110747931525111" lon="11.848179465159774">
        <ele>2064.5700000000002</ele>
        <time>2017-07-07T12:53:53Z</time>
      </trkpt>
      <trkpt lat="46.110735526308417" lon="11.848155912011862">
        <ele>2065.0500000000002</ele>
        <time>2017-07-07T12:53:57Z</time>
      </trkpt>
      <trkpt lat="46.110719433054328" lon="11.848131101578474">
        <ele>2065.0500000000002</ele>
        <time>2017-07-07T12:54:01Z</time>
      </trkpt>
      <trkpt lat="46.110653048381209" lon="11.848016688600183">
        <ele>2065.0500000000002</ele>
        <time>2017-07-07T12:54:12Z</time>
      </trkpt>
      <trkpt lat="46.110586244612932" lon="11.847907472401857">
        <ele>2063.6100000000001</ele>
        <time>2017-07-07T12:54:23Z</time>
      </trkpt>
      <trkpt lat="46.110521033406258" lon="11.84782013297081">
        <ele>2061.1999999999998</ele>
        <time>2017-07-07T12:54:35Z</time>
      </trkpt>
      <trkpt lat="46.110477028414607" lon="11.847783252596855">
        <ele>2060.7199999999998</ele>
        <time>2017-07-07T12:54:44Z</time>
      </trkpt>
      <trkpt lat="46.110386503860354" lon="11.847689375281334">
        <ele>2059.7600000000002</ele>
        <time>2017-07-07T12:54:54Z</time>
      </trkpt>
      <trkpt lat="46.110322130843997" lon="11.847597174346447">
        <ele>2059.7600000000002</ele>
        <time>2017-07-07T12:55:03Z</time>
      </trkpt>
      <trkpt lat="46.110248705372214" lon="11.847480582073331">
        <ele>2059.2800000000002</ele>
        <time>2017-07-07T12:55:14Z</time>
      </trkpt>
      <trkpt lat="46.110201850533485" lon="11.847433308139443">
        <ele>2059.7600000000002</ele>
        <time>2017-07-07T12:55:25Z</time>
      </trkpt>
      <trkpt lat="46.110111074522138" lon="11.847364911809564">
        <ele>2059.7600000000002</ele>
        <time>2017-07-07T12:55:36Z</time>
      </trkpt>
      <trkpt lat="46.110080983489752" lon="11.847314368933439">
        <ele>2058.8000000000002</ele>
        <time>2017-07-07T12:55:40Z</time>
      </trkpt>
      <trkpt lat="46.109981741756201" lon="11.84723767451942">
        <ele>2057.8400000000001</ele>
        <time>2017-07-07T12:55:51Z</time>
      </trkpt>
      <trkpt lat="46.109896078705788" lon="11.84716684743762">
        <ele>2058.8000000000002</ele>
        <time>2017-07-07T12:56:04Z</time>
      </trkpt>
      <trkpt lat="46.109869256615639" lon="11.847099540755153">
        <ele>2060.2399999999998</ele>
        <time>2017-07-07T12:56:13Z</time>
      </trkpt>
      <trkpt lat="46.109854923561215" lon="11.847026953473687">
        <ele>2061.6799999999998</ele>
        <time>2017-07-07T12:56:24Z</time>
      </trkpt>
      <trkpt lat="46.109831370413303" lon="11.846972554922104">
        <ele>2062.6500000000001</ele>
        <time>2017-07-07T12:56:34Z</time>
      </trkpt>
      <trkpt lat="46.109810164198279" lon="11.846954617649317">
        <ele>2063.6100000000001</ele>
        <time>2017-07-07T12:56:40Z</time>
      </trkpt>
      <trkpt lat="46.109769428148866" lon="11.846914635971189">
        <ele>2063.6100000000001</ele>
        <time>2017-07-07T12:56:47Z</time>
      </trkpt>
      <trkpt lat="46.109688123688102" lon="11.846837606281042">
        <ele>2064.0900000000001</ele>
        <time>2017-07-07T12:57:00Z</time>
      </trkpt>
      <trkpt lat="46.109675467014313" lon="11.846766108646989">
        <ele>2065.0500000000002</ele>
        <time>2017-07-07T12:57:11Z</time>
      </trkpt>
      <trkpt lat="46.109642358496785" lon="11.846695449203253">
        <ele>2066.4899999999998</ele>
        <time>2017-07-07T12:57:22Z</time>
      </trkpt>
      <trkpt lat="46.109617967158556" lon="11.846627136692405">
        <ele>2068.4099999999999</ele>
        <time>2017-07-07T12:57:33Z</time>
      </trkpt>
      <trkpt lat="46.10958737321198" lon="11.846561254933476">
        <ele>2069.3800000000001</ele>
        <time>2017-07-07T12:57:44Z</time>
      </trkpt>
      <trkpt lat="46.109551498666406" lon="11.846509957686067">
        <ele>2070.8200000000002</ele>
        <time>2017-07-07T12:57:54Z</time>
      </trkpt>
      <trkpt lat="46.109508583322167" lon="11.846432844176888">
        <ele>2072.2600000000002</ele>
        <time>2017-07-07T12:58:06Z</time>
      </trkpt>
      <trkpt lat="46.109468517825007" lon="11.846402334049344">
        <ele>2073.6999999999998</ele>
        <time>2017-07-07T12:58:15Z</time>
      </trkpt>
      <trkpt lat="46.109417974948883" lon="11.846374925225973">
        <ele>2074.6599999999999</ele>
        <time>2017-07-07T12:58:27Z</time>
      </trkpt>
      <trkpt lat="46.109418394044042" lon="11.84636059217155">
        <ele>2075.6199999999999</ele>
        <time>2017-07-07T12:58:38Z</time>
      </trkpt>
      <trkpt lat="46.109389644116163" lon="11.84633226133883">
        <ele>2076.0999999999999</ele>
        <time>2017-07-07T12:58:47Z</time>
      </trkpt>
      <trkpt lat="46.109369862824678" lon="11.846263781189919">
        <ele>2078.5100000000002</ele>
        <time>2017-07-07T12:59:00Z</time>
      </trkpt>
      <trkpt lat="46.109336335211992" lon="11.846212232485414">
        <ele>2080.9099999999999</ele>
        <time>2017-07-07T12:59:17Z</time>
      </trkpt>
      <trkpt lat="46.109293755143881" lon="11.846149452030659">
        <ele>2082.3499999999999</ele>
        <time>2017-07-07T12:59:32Z</time>
      </trkpt>
      <trkpt lat="46.109255868941545" lon="11.846109805628657">
        <ele>2083.3099999999999</ele>
        <time>2017-07-07T12:59:43Z</time>
      </trkpt>
      <trkpt lat="46.109175654128194" lon="11.846030345186591">
        <ele>2083.79</ele>
        <time>2017-07-07T12:59:55Z</time>
      </trkpt>
      <trkpt lat="46.109146485105157" lon="11.845968067646027">
        <ele>2084.7600000000002</ele>
        <time>2017-07-07T13:00:03Z</time>
      </trkpt>
      <trkpt lat="46.109101558104157" lon="11.845885254442692">
        <ele>2086.1999999999998</ele>
        <time>2017-07-07T13:00:14Z</time>
      </trkpt>
      <trkpt lat="46.109006674960256" lon="11.845808057114482">
        <ele>2086.1999999999998</ele>
        <time>2017-07-07T13:00:26Z</time>
      </trkpt>
      <trkpt lat="46.108916820958257" lon="11.845777546986938">
        <ele>2085.7199999999998</ele>
        <time>2017-07-07T13:00:35Z</time>
      </trkpt>
      <trkpt lat="46.108834762126207" lon="11.845709150657058">
        <ele>2086.6799999999998</ele>
        <time>2017-07-07T13:00:47Z</time>
      </trkpt>
      <trkpt lat="46.108796373009682" lon="11.845696410164237">
        <ele>2086.1999999999998</ele>
        <time>2017-07-07T13:00:53Z</time>
      </trkpt>
      <trkpt lat="46.108722193166614" lon="11.845641592517495">
        <ele>2086.6799999999998</ele>
        <time>2017-07-07T13:01:04Z</time>
      </trkpt>
      <trkpt lat="46.108666118234396" lon="11.845584344118834">
        <ele>2088.5999999999999</ele>
        <time>2017-07-07T13:01:15Z</time>
      </trkpt>
      <trkpt lat="46.108618173748255" lon="11.845520390197635">
        <ele>2091</ele>
        <time>2017-07-07T13:01:28Z</time>
      </trkpt>
      <trkpt lat="46.108594285324216" lon="11.845502285286784">
        <ele>2091</ele>
        <time>2017-07-07T13:01:42Z</time>
      </trkpt>
      <trkpt lat="46.108528152108192" lon="11.84544637799263">
        <ele>2091.9699999999998</ele>
        <time>2017-07-07T13:01:52Z</time>
      </trkpt>
      <trkpt lat="46.108460677787662" lon="11.845379155129194">
        <ele>2094.3699999999999</ele>
        <time>2017-07-07T13:02:04Z</time>
      </trkpt>
      <trkpt lat="46.108400076627731" lon="11.845314027741551">
        <ele>2095.8099999999999</ele>
        <time>2017-07-07T13:02:17Z</time>
      </trkpt>
      <trkpt lat="46.108360514044762" lon="11.845296593382955">
        <ele>2096.77</ele>
        <time>2017-07-07T13:02:28Z</time>
      </trkpt>
      <trkpt lat="46.108275186270475" lon="11.845261221751571">
        <ele>2098.21</ele>
        <time>2017-07-07T13:02:39Z</time>
      </trkpt>
      <trkpt lat="46.108181308954954" lon="11.845235154032707">
        <ele>2098.6999999999998</ele>
        <time>2017-07-07T13:02:51Z</time>
      </trkpt>
      <trkpt lat="46.108103608712554" lon="11.845195926725864">
        <ele>2100.1399999999999</ele>
        <time>2017-07-07T13:03:04Z</time>
      </trkpt>
      <trkpt lat="46.108048288151622" lon="11.845123842358589">
        <ele>2101.5799999999999</ele>
        <time>2017-07-07T13:03:14Z</time>
      </trkpt>
      <trkpt lat="46.107994979247451" lon="11.845027953386307">
        <ele>2103.02</ele>
        <time>2017-07-07T13:03:27Z</time>
      </trkpt>
      <trkpt lat="46.107995482161641" lon="11.845038011670113">
        <ele>2103.5</ele>
        <time>2017-07-07T13:03:37Z</time>
      </trkpt>
      <trkpt lat="46.107995733618736" lon="11.845023175701499">
        <ele>2103.5</ele>
        <time>2017-07-07T13:03:49Z</time>
      </trkpt>
      <trkpt lat="46.107917111366987" lon="11.84493818320334">
        <ele>2104.9400000000001</ele>
        <time>2017-07-07T13:04:00Z</time>
      </trkpt>
      <trkpt lat="46.107871094718575" lon="11.84489811770618">
        <ele>2105.9099999999999</ele>
        <time>2017-07-07T13:04:06Z</time>
      </trkpt>
      <trkpt lat="46.107788700610399" lon="11.844847658649087">
        <ele>2106.3899999999999</ele>
        <time>2017-07-07T13:04:16Z</time>
      </trkpt>
      <trkpt lat="46.10772323794663" lon="11.844764593988657">
        <ele>2107.8299999999999</ele>
        <time>2017-07-07T13:04:27Z</time>
      </trkpt>
      <trkpt lat="46.107695661485195" lon="11.844711704179645">
        <ele>2108.79</ele>
        <time>2017-07-07T13:04:33Z</time>
      </trkpt>
      <trkpt lat="46.107611171901226" lon="11.844645403325558">
        <ele>2110.23</ele>
        <time>2017-07-07T13:04:45Z</time>
      </trkpt>
      <trkpt lat="46.10753414221108" lon="11.844584466889501">
        <ele>2111.6700000000001</ele>
        <time>2017-07-07T13:04:56Z</time>
      </trkpt>
      <trkpt lat="46.107546212151647" lon="11.84458052739501">
        <ele>2111.6700000000001</ele>
        <time>2017-07-07T13:05:07Z</time>
      </trkpt>
      <trkpt lat="46.107494495809078" lon="11.844569379463792">
        <ele>2112.6300000000001</ele>
        <time>2017-07-07T13:05:13Z</time>
      </trkpt>
      <trkpt lat="46.10740371979773" lon="11.844482626765966">
        <ele>2113.1199999999999</ele>
        <time>2017-07-07T13:05:25Z</time>
      </trkpt>
      <trkpt lat="46.10734261572361" lon="11.844395371153951">
        <ele>2115.04</ele>
        <time>2017-07-07T13:05:35Z</time>
      </trkpt>
      <trkpt lat="46.107262820005417" lon="11.844315743073821">
        <ele>2116</ele>
        <time>2017-07-07T13:05:47Z</time>
      </trkpt>
      <trkpt lat="46.107196435332298" lon="11.844283388927579">
        <ele>2117.9200000000001</ele>
        <time>2017-07-07T13:05:58Z</time>
      </trkpt>
      <trkpt lat="46.107140779495239" lon="11.84421013109386">
        <ele>2118.4000000000001</ele>
        <time>2017-07-07T13:06:11Z</time>
      </trkpt>
      <trkpt lat="46.107076406478882" lon="11.844078870490193">
        <ele>2118.4000000000001</ele>
        <time>2017-07-07T13:06:23Z</time>
      </trkpt>
      <trkpt lat="46.107034916058183" lon="11.843932354822755">
        <ele>2119.8400000000001</ele>
        <time>2017-07-07T13:06:35Z</time>
      </trkpt>
      <trkpt lat="46.107023265212774" lon="11.843801010400057">
        <ele>2121.77</ele>
        <time>2017-07-07T13:06:47Z</time>
      </trkpt>
      <trkpt lat="46.107004825025797" lon="11.843670252710581">
        <ele>2122.25</ele>
        <time>2017-07-07T13:06:59Z</time>
      </trkpt>
      <trkpt lat="46.106977500021458" lon="11.843515690416098">
        <ele>2122.73</ele>
        <time>2017-07-07T13:07:12Z</time>
      </trkpt>
      <trkpt lat="46.106957718729973" lon="11.843380825594068">
        <ele>2122.25</ele>
        <time>2017-07-07T13:07:23Z</time>
      </trkpt>
      <trkpt lat="46.106941793113947" lon="11.843297677114606">
        <ele>2121.29</ele>
        <time>2017-07-07T13:07:32Z</time>
      </trkpt>
      <trkpt lat="46.10690038651228" lon="11.843098606914282">
        <ele>2120.8099999999999</ele>
        <time>2017-07-07T13:07:45Z</time>
      </trkpt>
      <trkpt lat="46.106867445632815" lon="11.842856705188751">
        <ele>2118.8800000000001</ele>
        <time>2017-07-07T13:07:59Z</time>
      </trkpt>
      <trkpt lat="46.106869373470545" lon="11.842742124572396">
        <ele>2117.9200000000001</ele>
        <time>2017-07-07T13:08:05Z</time>
      </trkpt>
      <trkpt lat="46.106833247467875" lon="11.842521848157048">
        <ele>2116</ele>
        <time>2017-07-07T13:08:18Z</time>
      </trkpt>
      <trkpt lat="46.106839952990413" lon="11.842326885089278">
        <ele>2114.0799999999999</ele>
        <time>2017-07-07T13:08:29Z</time>
      </trkpt>
      <trkpt lat="46.106879599392414" lon="11.842121779918671">
        <ele>2111.6700000000001</ele>
        <time>2017-07-07T13:08:41Z</time>
      </trkpt>
      <trkpt lat="46.106892758980393" lon="11.841956069692969">
        <ele>2109.27</ele>
        <time>2017-07-07T13:08:51Z</time>
      </trkpt>
      <trkpt lat="46.106898374855518" lon="11.841903682798147">
        <ele>2107.8299999999999</ele>
        <time>2017-07-07T13:08:55Z</time>
      </trkpt>
      <trkpt lat="46.106925029307604" lon="11.841737469658256">
        <ele>2106.8699999999999</ele>
        <time>2017-07-07T13:09:07Z</time>
      </trkpt>
      <trkpt lat="46.1069062538445" lon="11.841533957049251">
        <ele>2103.98</ele>
        <time>2017-07-07T13:09:21Z</time>
      </trkpt>
      <trkpt lat="46.106904493644834" lon="11.841519037261605">
        <ele>2103.98</ele>
        <time>2017-07-07T13:09:22Z</time>
      </trkpt>
      <trkpt lat="46.106885466724634" lon="11.841409234330058">
        <ele>2103.5</ele>
        <time>2017-07-07T13:09:33Z</time>
      </trkpt>
      <trkpt lat="46.106886640191078" lon="11.841400936245918">
        <ele>2103.5</ele>
        <time>2017-07-07T13:09:52Z</time>
      </trkpt>
      <trkpt lat="46.106838611885905" lon="11.841213181614876">
        <ele>2101.5799999999999</ele>
        <time>2017-07-07T13:10:03Z</time>
      </trkpt>
      <trkpt lat="46.106811873614788" lon="11.841025426983833">
        <ele>2099.1799999999998</ele>
        <time>2017-07-07T13:10:15Z</time>
      </trkpt>
      <trkpt lat="46.106774741783738" lon="11.840811772271991">
        <ele>2096.77</ele>
        <time>2017-07-07T13:10:28Z</time>
      </trkpt>
      <trkpt lat="46.106683714315295" lon="11.840644218027592">
        <ele>2094.8499999999999</ele>
        <time>2017-07-07T13:10:40Z</time>
      </trkpt>
      <trkpt lat="46.106591429561377" lon="11.840551011264324">
        <ele>2092.9299999999998</ele>
        <time>2017-07-07T13:10:51Z</time>
      </trkpt>
      <trkpt lat="46.106590256094933" lon="11.840544138103724">
        <ele>2093.4099999999999</ele>
        <time>2017-07-07T13:10:52Z</time>
      </trkpt>
      <trkpt lat="46.106532840058208" lon="11.840427545830607">
        <ele>2091.4899999999998</ele>
        <time>2017-07-07T13:11:01Z</time>
      </trkpt>
      <trkpt lat="46.106500485911965" lon="11.840361831709743">
        <ele>2090.52</ele>
        <time>2017-07-07T13:11:06Z</time>
      </trkpt>
      <trkpt lat="46.106431754305959" lon="11.840165695175529">
        <ele>2087.1599999999999</ele>
        <time>2017-07-07T13:11:20Z</time>
      </trkpt>
      <trkpt lat="46.106338631361723" lon="11.839971654117107">
        <ele>2085.2399999999998</ele>
        <time>2017-07-07T13:11:34Z</time>
      </trkpt>
      <trkpt lat="46.106273587793112" lon="11.839855061843991">
        <ele>2083.79</ele>
        <time>2017-07-07T13:11:44Z</time>
      </trkpt>
      <trkpt lat="46.10624517314136" lon="11.839782055467367">
        <ele>2082.8299999999999</ele>
        <time>2017-07-07T13:11:49Z</time>
      </trkpt>
      <trkpt lat="46.106170071288943" lon="11.83962388895452">
        <ele>2081.3899999999999</ele>
        <time>2017-07-07T13:12:01Z</time>
      </trkpt>
      <trkpt lat="46.10611324198544" lon="11.839472176507115">
        <ele>2078.9899999999998</ele>
        <time>2017-07-07T13:12:14Z</time>
      </trkpt>
      <trkpt lat="46.106077535077929" lon="11.839414844289422">
        <ele>2078.0300000000002</ele>
        <time>2017-07-07T13:12:19Z</time>
      </trkpt>
      <trkpt lat="46.105995224788785" lon="11.839245110750198">
        <ele>2075.6199999999999</ele>
        <time>2017-07-07T13:12:32Z</time>
      </trkpt>
      <trkpt lat="46.105914674699306" lon="11.83903799392283">
        <ele>2073.6999999999998</ele>
        <time>2017-07-07T13:12:46Z</time>
      </trkpt>
      <trkpt lat="46.105831526219845" lon="11.838882844895124">
        <ele>2070.3400000000001</ele>
        <time>2017-07-07T13:12:59Z</time>
      </trkpt>
      <trkpt lat="46.105767739936709" lon="11.838757283985615">
        <ele>2068.8899999999999</ele>
        <time>2017-07-07T13:13:11Z</time>
      </trkpt>
      <trkpt lat="46.105761453509331" lon="11.838749404996634">
        <ele>2068.8899999999999</ele>
        <time>2017-07-07T13:13:13Z</time>
      </trkpt>
      <trkpt lat="46.10571501776576" lon="11.83866667561233">
        <ele>2067.4499999999998</ele>
        <time>2017-07-07T13:13:19Z</time>
      </trkpt>
      <trkpt lat="46.105586690828204" lon="11.838477412238717">
        <ele>2064.5700000000002</ele>
        <time>2017-07-07T13:13:35Z</time>
      </trkpt>
      <trkpt lat="46.105499435216188" lon="11.838302062824368">
        <ele>2061.6799999999998</ele>
        <time>2017-07-07T13:13:48Z</time>
      </trkpt>
      <trkpt lat="46.105400444939733" lon="11.838128725066781">
        <ele>2059.7600000000002</ele>
        <time>2017-07-07T13:14:01Z</time>
      </trkpt>
      <trkpt lat="46.105384938418865" lon="11.838113889098167">
        <ele>2059.2800000000002</ele>
        <time>2017-07-07T13:14:04Z</time>
      </trkpt>
      <trkpt lat="46.105383262038231" lon="11.838165186345577">
        <ele>2058.3200000000002</ele>
        <time>2017-07-07T13:14:15Z</time>
      </trkpt>
      <trkpt lat="46.105391392484307" lon="11.838189912959933">
        <ele>2058.3200000000002</ele>
        <time>2017-07-07T13:14:20Z</time>
      </trkpt>
      <trkpt lat="46.105419220402837" lon="11.838409854099154">
        <ele>2055.4400000000001</ele>
        <time>2017-07-07T13:14:33Z</time>
      </trkpt>
      <trkpt lat="46.105424584820867" lon="11.838620575144887">
        <ele>2053.5100000000002</ele>
        <time>2017-07-07T13:14:46Z</time>
      </trkpt>
      <trkpt lat="46.105450987815857" lon="11.838762061670423">
        <ele>2051.5900000000001</ele>
        <time>2017-07-07T13:14:55Z</time>
      </trkpt>
      <trkpt lat="46.105436738580465" lon="11.838982002809644">
        <ele>2049.6700000000001</ele>
        <time>2017-07-07T13:15:08Z</time>
      </trkpt>
      <trkpt lat="46.10536809079349" lon="11.839191969484091">
        <ele>2046.78</ele>
        <time>2017-07-07T13:15:22Z</time>
      </trkpt>
      <trkpt lat="46.105298353359103" lon="11.839389195665717">
        <ele>2043.9000000000001</ele>
        <time>2017-07-07T13:15:35Z</time>
      </trkpt>
      <trkpt lat="46.105216545984149" lon="11.839458597823977">
        <ele>2041.98</ele>
        <time>2017-07-07T13:15:46Z</time>
      </trkpt>
      <trkpt lat="46.105218725278974" lon="11.839455915614963">
        <ele>2041.98</ele>
        <time>2017-07-07T13:15:55Z</time>
      </trkpt>
      <trkpt lat="46.10517505556345" lon="11.839466476812959">
        <ele>2041.98</ele>
        <time>2017-07-07T13:15:59Z</time>
      </trkpt>
      <trkpt lat="46.105002304539084" lon="11.839479049667716">
        <ele>2038.6099999999999</ele>
        <time>2017-07-07T13:16:14Z</time>
      </trkpt>
      <trkpt lat="46.104891831055284" lon="11.83936002664268">
        <ele>2035.73</ele>
        <time>2017-07-07T13:16:25Z</time>
      </trkpt>
      <trkpt lat="46.104764677584171" lon="11.839205967262387">
        <ele>2032.3599999999999</ele>
        <time>2017-07-07T13:16:39Z</time>
      </trkpt>
      <trkpt lat="46.104756379500031" lon="11.839197752997279">
        <ele>2032.3599999999999</ele>
        <time>2017-07-07T13:16:40Z</time>
      </trkpt>
      <trkpt lat="46.104734838008881" lon="11.839186688885093">
        <ele>2032.3599999999999</ele>
        <time>2017-07-07T13:16:43Z</time>
      </trkpt>
      <trkpt lat="46.104617742821574" lon="11.839219126850367">
        <ele>2030.4400000000001</ele>
        <time>2017-07-07T13:16:54Z</time>
      </trkpt>
      <trkpt lat="46.104515483602881" lon="11.839277967810631">
        <ele>2028.52</ele>
        <time>2017-07-07T13:17:04Z</time>
      </trkpt>
      <trkpt lat="46.104496791958809" lon="11.839337227866054">
        <ele>2027.5599999999999</ele>
        <time>2017-07-07T13:17:08Z</time>
      </trkpt>
      <trkpt lat="46.104335524141788" lon="11.839413084089756">
        <ele>2025.6400000000001</ele>
        <time>2017-07-07T13:17:22Z</time>
      </trkpt>
      <trkpt lat="46.104239048436284" lon="11.839361116290092">
        <ele>2023.23</ele>
        <time>2017-07-07T13:17:34Z</time>
      </trkpt>
      <trkpt lat="46.104232259094715" lon="11.839361116290092">
        <ele>2023.23</ele>
        <time>2017-07-07T13:17:49Z</time>
      </trkpt>
      <trkpt lat="46.104207448661327" lon="11.839366396889091">
        <ele>2023.23</ele>
        <time>2017-07-07T13:18:01Z</time>
      </trkpt>
      <trkpt lat="46.104095382615924" lon="11.839330270886421">
        <ele>2020.8299999999999</ele>
        <time>2017-07-07T13:18:12Z</time>
      </trkpt>
      <trkpt lat="46.103998906910419" lon="11.839395985007286">
        <ele>2019.3900000000001</ele>
        <time>2017-07-07T13:18:24Z</time>
      </trkpt>
      <trkpt lat="46.104000750929117" lon="11.839403863996267">
        <ele>2018.9100000000001</ele>
        <time>2017-07-07T13:18:36Z</time>
      </trkpt>
      <trkpt lat="46.103911818936467" lon="11.839444683864713">
        <ele>2018.4300000000001</ele>
        <time>2017-07-07T13:18:48Z</time>
      </trkpt>
      <trkpt lat="46.103741750121117" lon="11.839397996664047">
        <ele>2015.54</ele>
        <time>2017-07-07T13:19:02Z</time>
      </trkpt>
      <trkpt lat="46.103728590533137" lon="11.839395398274064">
        <ele>2015.54</ele>
        <time>2017-07-07T13:19:03Z</time>
      </trkpt>
      <trkpt lat="46.103595737367868" lon="11.839489610865712">
        <ele>2012.6600000000001</ele>
        <time>2017-07-07T13:19:16Z</time>
      </trkpt>
      <trkpt lat="46.103448551148176" lon="11.839422220364213">
        <ele>2010.25</ele>
        <time>2017-07-07T13:19:29Z</time>
      </trkpt>
      <trkpt lat="46.103311507031322" lon="11.839235639199615">
        <ele>2007.3699999999999</ele>
        <time>2017-07-07T13:19:44Z</time>
      </trkpt>
      <trkpt lat="46.103170355781913" lon="11.839143102988601">
        <ele>2004.49</ele>
        <time>2017-07-07T13:19:58Z</time>
      </trkpt>
      <trkpt lat="46.103047728538513" lon="11.839099014177918">
        <ele>2002.5599999999999</ele>
        <time>2017-07-07T13:20:09Z</time>
      </trkpt>
      <trkpt lat="46.103020487353206" lon="11.839037658646703">
        <ele>2001.5999999999999</ele>
        <time>2017-07-07T13:20:13Z</time>
      </trkpt>
      <trkpt lat="46.102874223142862" lon="11.83884353376925">
        <ele>1998.24</ele>
        <time>2017-07-07T13:20:29Z</time>
      </trkpt>
      <trkpt lat="46.102756289765239" lon="11.838689306750894">
        <ele>1996.3199999999999</ele>
        <time>2017-07-07T13:20:42Z</time>
      </trkpt>
      <trkpt lat="46.102645229548216" lon="11.838671369478106">
        <ele>1994.8699999999999</ele>
        <time>2017-07-07T13:20:53Z</time>
      </trkpt>
      <trkpt lat="46.102494187653065" lon="11.838763989508152">
        <ele>1991.99</ele>
        <time>2017-07-07T13:21:08Z</time>
      </trkpt>
      <trkpt lat="46.102340715005994" lon="11.838847054168582">
        <ele>1989.0999999999999</ele>
        <time>2017-07-07T13:21:23Z</time>
      </trkpt>
      <trkpt lat="46.102233929559588" lon="11.838974040001631">
        <ele>1986.7</ele>
        <time>2017-07-07T13:21:36Z</time>
      </trkpt>
      <trkpt lat="46.102225547656417" lon="11.838982170447707">
        <ele>1986.7</ele>
        <time>2017-07-07T13:21:37Z</time>
      </trkpt>
      <trkpt lat="46.102192271500826" lon="11.838982170447707">
        <ele>1986.22</ele>
        <time>2017-07-07T13:21:40Z</time>
      </trkpt>
      <trkpt lat="46.102176010608673" lon="11.838962808251381">
        <ele>1985.74</ele>
        <time>2017-07-07T13:21:42Z</time>
      </trkpt>
      <trkpt lat="46.10217098146677" lon="11.838900865986943">
        <ele>1985.74</ele>
        <time>2017-07-07T13:21:46Z</time>
      </trkpt>
      <trkpt lat="46.102193864062428" lon="11.838754434138536">
        <ele>1983.3399999999999</ele>
        <time>2017-07-07T13:21:57Z</time>
      </trkpt>
      <trkpt lat="46.102228984236717" lon="11.838672542944551">
        <ele>1982.8599999999999</ele>
        <time>2017-07-07T13:22:03Z</time>
      </trkpt>
      <trkpt lat="46.102284472435713" lon="11.838471628725529">
        <ele>1982.8599999999999</ele>
        <time>2017-07-07T13:22:16Z</time>
      </trkpt>
      <trkpt lat="46.102289669215679" lon="11.838459223508835">
        <ele>1982.8599999999999</ele>
        <time>2017-07-07T13:22:17Z</time>
      </trkpt>
      <trkpt lat="46.102331411093473" lon="11.838207598775625">
        <ele>1979.49</ele>
        <time>2017-07-07T13:22:32Z</time>
      </trkpt>
      <trkpt lat="46.102199396118522" lon="11.838094191625714">
        <ele>1976.6099999999999</ele>
        <time>2017-07-07T13:22:45Z</time>
      </trkpt>
      <trkpt lat="46.10212697647512" lon="11.838050186634064">
        <ele>1974.6900000000001</ele>
        <time>2017-07-07T13:22:52Z</time>
      </trkpt>
      <trkpt lat="46.101992363110185" lon="11.838029148057103">
        <ele>1972.76</ele>
        <time>2017-07-07T13:23:04Z</time>
      </trkpt>
      <trkpt lat="46.101872585713863" lon="11.838049348443747">
        <ele>1970.3599999999999</ele>
        <time>2017-07-07T13:23:16Z</time>
      </trkpt>
      <trkpt lat="46.101804608479142" lon="11.838059742003679">
        <ele>1969.4000000000001</ele>
        <time>2017-07-07T13:23:22Z</time>
      </trkpt>
      <trkpt lat="46.101740906015038" lon="11.838047001510859">
        <ele>1967.96</ele>
        <time>2017-07-07T13:23:27Z</time>
      </trkpt>
      <trkpt lat="46.101610567420721" lon="11.837990758940578">
        <ele>1966.51</ele>
        <time>2017-07-07T13:23:39Z</time>
      </trkpt>
      <trkpt lat="46.101488778367639" lon="11.837850613519549">
        <ele>1963.6300000000001</ele>
        <time>2017-07-07T13:23:52Z</time>
      </trkpt>
      <trkpt lat="46.101350979879498" lon="11.837647100910544">
        <ele>1962.1900000000001</ele>
        <time>2017-07-07T13:24:07Z</time>
      </trkpt>
      <trkpt lat="46.101235141977668" lon="11.83760829269886">
        <ele>1960.75</ele>
        <time>2017-07-07T13:24:18Z</time>
      </trkpt>
      <trkpt lat="46.101209996268153" lon="11.837714239954948">
        <ele>1959.3</ele>
        <time>2017-07-07T13:24:24Z</time>
      </trkpt>
      <trkpt lat="46.101210583001375" lon="11.837739553302526">
        <ele>1959.3</ele>
        <time>2017-07-07T13:24:25Z</time>
      </trkpt>
      <trkpt lat="46.101129278540611" lon="11.837913477793336">
        <ele>1957.8599999999999</ele>
        <time>2017-07-07T13:24:37Z</time>
      </trkpt>
      <trkpt lat="46.101071527227759" lon="11.837924625724554">
        <ele>1956.9000000000001</ele>
        <time>2017-07-07T13:24:42Z</time>
      </trkpt>
      <trkpt lat="46.10104126855731" lon="11.837947089225054">
        <ele>1955.9400000000001</ele>
        <time>2017-07-07T13:24:47Z</time>
      </trkpt>
      <trkpt lat="46.10100707039237" lon="11.837968714535236">
        <ele>1955.9400000000001</ele>
        <time>2017-07-07T13:24:51Z</time>
      </trkpt>
      <trkpt lat="46.100896345451474" lon="11.838085725903511">
        <ele>1953.54</ele>
        <time>2017-07-07T13:25:04Z</time>
      </trkpt>
      <trkpt lat="46.10076617449522" lon="11.838140375912189">
        <ele>1951.6099999999999</ele>
        <time>2017-07-07T13:25:16Z</time>
      </trkpt>
      <trkpt lat="46.100626112893224" lon="11.838198713958263">
        <ele>1950.1700000000001</ele>
        <time>2017-07-07T13:25:28Z</time>
      </trkpt>
      <trkpt lat="46.10060540959239" lon="11.838218411430717">
        <ele>1950.1700000000001</ele>
        <time>2017-07-07T13:25:30Z</time>
      </trkpt>
      <trkpt lat="46.10054430551827" lon="11.838242383673787">
        <ele>1948.73</ele>
        <time>2017-07-07T13:25:35Z</time>
      </trkpt>
      <trkpt lat="46.100370967760682" lon="11.838359478861094">
        <ele>1946.3299999999999</ele>
        <time>2017-07-07T13:25:51Z</time>
      </trkpt>
      <trkpt lat="46.100213136523962" lon="11.838382026180625">
        <ele>1944.4000000000001</ele>
        <time>2017-07-07T13:26:04Z</time>
      </trkpt>
      <trkpt lat="46.100030243396759" lon="11.838365262374282">
        <ele>1942</ele>
        <time>2017-07-07T13:26:19Z</time>
      </trkpt>
      <trkpt lat="46.099911304190755" lon="11.838269121944904">
        <ele>1940.0799999999999</ele>
        <time>2017-07-07T13:26:30Z</time>
      </trkpt>
      <trkpt lat="46.099791023880243" lon="11.838199635967612">
        <ele>1939.5999999999999</ele>
        <time>2017-07-07T13:26:41Z</time>
      </trkpt>
      <trkpt lat="46.099646100774407" lon="11.838229559361935">
        <ele>1939.1199999999999</ele>
        <time>2017-07-07T13:26:54Z</time>
      </trkpt>
      <trkpt lat="46.099526658654213" lon="11.838272977620363">
        <ele>1940.0799999999999</ele>
        <time>2017-07-07T13:27:04Z</time>
      </trkpt>
      <trkpt lat="46.099372683092952" lon="11.83829284273088">
        <ele>1939.1199999999999</ele>
        <time>2017-07-07T13:27:17Z</time>
      </trkpt>
      <trkpt lat="46.099283248186111" lon="11.838296866044402">
        <ele>1938.6400000000001</ele>
        <time>2017-07-07T13:27:24Z</time>
      </trkpt>
      <trkpt lat="46.099212085828185" lon="11.838230649009347">
        <ele>1938.6400000000001</ele>
        <time>2017-07-07T13:27:31Z</time>
      </trkpt>
      <trkpt lat="46.099112927913666" lon="11.838077595457435">
        <ele>1937.6700000000001</ele>
        <time>2017-07-07T13:27:43Z</time>
      </trkpt>
      <trkpt lat="46.099000358954072" lon="11.837971732020378">
        <ele>1937.1900000000001</ele>
        <time>2017-07-07T13:27:55Z</time>
      </trkpt>
      <trkpt lat="46.098894830793142" lon="11.83797282166779">
        <ele>1937.1900000000001</ele>
        <time>2017-07-07T13:28:05Z</time>
      </trkpt>
      <trkpt lat="46.098718475550413" lon="11.838067034259439">
        <ele>1935.75</ele>
        <time>2017-07-07T13:28:20Z</time>
      </trkpt>
      <trkpt lat="46.09857807867229" lon="11.838163090869784">
        <ele>1935.27</ele>
        <time>2017-07-07T13:28:33Z</time>
      </trkpt>
      <trkpt lat="46.098469281569123" lon="11.838247999548912">
        <ele>1936.23</ele>
        <time>2017-07-07T13:28:45Z</time>
      </trkpt>
      <trkpt lat="46.098345397040248" lon="11.838324693962932">
        <ele>1936.71</ele>
        <time>2017-07-07T13:28:56Z</time>
      </trkpt>
      <trkpt lat="46.098286053165793" lon="11.838374063372612">
        <ele>1936.71</ele>
        <time>2017-07-07T13:29:02Z</time>
      </trkpt>
      <trkpt lat="46.098148338496685" lon="11.838441286236048">
        <ele>1937.1900000000001</ele>
        <time>2017-07-07T13:29:15Z</time>
      </trkpt>
      <trkpt lat="46.098061501979828" lon="11.838478334248066">
        <ele>1937.6700000000001</ele>
        <time>2017-07-07T13:29:26Z</time>
      </trkpt>
      <trkpt lat="46.097970055416226" lon="11.838514963164926">
        <ele>1938.1600000000001</ele>
        <time>2017-07-07T13:29:36Z</time>
      </trkpt>
      <trkpt lat="46.097851200029254" lon="11.838520495221019">
        <ele>1938.6400000000001</ele>
        <time>2017-07-07T13:29:47Z</time>
      </trkpt>
      <trkpt lat="46.097837537527084" lon="11.838520830497146">
        <ele>1938.6400000000001</ele>
        <time>2017-07-07T13:29:48Z</time>
      </trkpt>
      <trkpt lat="46.09774743206799" lon="11.838522171601653">
        <ele>1938.6400000000001</ele>
        <time>2017-07-07T13:29:56Z</time>
      </trkpt>
      <trkpt lat="46.097683981060982" lon="11.838519405573606">
        <ele>1939.5999999999999</ele>
        <time>2017-07-07T13:30:01Z</time>
      </trkpt>
      <trkpt lat="46.097571076825261" lon="11.838445393368602">
        <ele>1940.5599999999999</ele>
        <time>2017-07-07T13:30:13Z</time>
      </trkpt>
      <trkpt lat="46.097513912245631" lon="11.838389486074448">
        <ele>1941.04</ele>
        <time>2017-07-07T13:30:20Z</time>
      </trkpt>
      <trkpt lat="46.097413999959826" lon="11.838349839672446">
        <ele>1941.04</ele>
        <time>2017-07-07T13:30:30Z</time>
      </trkpt>
      <trkpt lat="46.097295312210917" lon="11.838256968185306">
        <ele>1941.52</ele>
        <time>2017-07-07T13:30:42Z</time>
      </trkpt>
      <trkpt lat="46.097155585885048" lon="11.838197624310851">
        <ele>1941.52</ele>
        <time>2017-07-07T13:30:55Z</time>
      </trkpt>
      <trkpt lat="46.097000688314438" lon="11.83821564540267">
        <ele>1941.52</ele>
        <time>2017-07-07T13:31:08Z</time>
      </trkpt>
      <trkpt lat="46.096822405233979" lon="11.838267864659429">
        <ele>1941.04</ele>
        <time>2017-07-07T13:31:23Z</time>
      </trkpt>
      <trkpt lat="46.09670321457088" lon="11.838328549638391">
        <ele>1941.52</ele>
        <time>2017-07-07T13:31:34Z</time>
      </trkpt>
      <trkpt lat="46.09657471999526" lon="11.838378924876451">
        <ele>1941.52</ele>
        <time>2017-07-07T13:31:45Z</time>
      </trkpt>
      <trkpt lat="46.096444884315133" lon="11.83843307197094">
        <ele>1942</ele>
        <time>2017-07-07T13:31:56Z</time>
      </trkpt>
      <trkpt lat="46.096314880996943" lon="11.838488224893808">
        <ele>1942</ele>
        <time>2017-07-07T13:32:07Z</time>
      </trkpt>
      <trkpt lat="46.096178842708468" lon="11.838553855195642">
        <ele>1942</ele>
        <time>2017-07-07T13:32:19Z</time>
      </trkpt>
      <trkpt lat="46.096029225736856" lon="11.838601799681783">
        <ele>1942.48</ele>
        <time>2017-07-07T13:32:32Z</time>
      </trkpt>
      <trkpt lat="46.096017910167575" lon="11.838607164099813">
        <ele>1942.48</ele>
        <time>2017-07-07T13:32:33Z</time>
      </trkpt>
      <trkpt lat="46.096005253493786" lon="11.838600039482117">
        <ele>1942.96</ele>
        <time>2017-07-07T13:32:41Z</time>
      </trkpt>
      <trkpt lat="46.096001397818327" lon="11.838596435263753">
        <ele>1942.96</ele>
        <time>2017-07-07T13:32:55Z</time>
      </trkpt>
      <trkpt lat="46.096002571284771" lon="11.838602889329195">
        <ele>1942.96</ele>
        <time>2017-07-07T13:33:15Z</time>
      </trkpt>
      <trkpt lat="46.096005085855722" lon="11.838617222383618">
        <ele>1942.48</ele>
        <time>2017-07-07T13:33:33Z</time>
      </trkpt>
      <trkpt lat="46.095999889075756" lon="11.838606661185622">
        <ele>1942.48</ele>
        <time>2017-07-07T13:33:46Z</time>
      </trkpt>
      <trkpt lat="46.095898719504476" lon="11.838640943169594">
        <ele>1942.96</ele>
        <time>2017-07-07T13:33:56Z</time>
      </trkpt>
      <trkpt lat="46.095755305141211" lon="11.83869450353086">
        <ele>1943.4400000000001</ele>
        <time>2017-07-07T13:34:10Z</time>
      </trkpt>
      <trkpt lat="46.095689171925187" lon="11.838704897090793">
        <ele>1943.9200000000001</ele>
        <time>2017-07-07T13:34:16Z</time>
      </trkpt>
      <trkpt lat="46.0955451708287" lon="11.83877999894321">
        <ele>1944.8800000000001</ele>
        <time>2017-07-07T13:34:29Z</time>
      </trkpt>
      <trkpt lat="46.0954933706671" lon="11.838798271492124">
        <ele>1945.3599999999999</ele>
        <time>2017-07-07T13:34:34Z</time>
      </trkpt>
      <trkpt lat="46.095445929095149" lon="11.838808665052056">
        <ele>1945.8499999999999</ele>
        <time>2017-07-07T13:34:38Z</time>
      </trkpt>
      <trkpt lat="46.095344927161932" lon="11.838840181007981">
        <ele>1945.8499999999999</ele>
        <time>2017-07-07T13:34:50Z</time>
      </trkpt>
      <trkpt lat="46.095314249396324" lon="11.838847976177931">
        <ele>1945.8499999999999</ele>
        <time>2017-07-07T13:34:58Z</time>
      </trkpt>
      <trkpt lat="46.095311734825373" lon="11.838860716670752">
        <ele>1945.8499999999999</ele>
        <time>2017-07-07T13:35:02Z</time>
      </trkpt>
      <trkpt lat="46.095269322395325" lon="11.838917713612318">
        <ele>1945.8499999999999</ele>
        <time>2017-07-07T13:35:07Z</time>
      </trkpt>
      <trkpt lat="46.095112413167953" lon="11.839068420231342">
        <ele>1945.8499999999999</ele>
        <time>2017-07-07T13:35:24Z</time>
      </trkpt>
      <trkpt lat="46.095002442598343" lon="11.839203871786594">
        <ele>1946.8099999999999</ele>
        <time>2017-07-07T13:35:36Z</time>
      </trkpt>
      <trkpt lat="46.094912253320217" lon="11.839321469888091">
        <ele>1947.29</ele>
        <time>2017-07-07T13:35:47Z</time>
      </trkpt>
      <trkpt lat="46.094817873090506" lon="11.839433619752526">
        <ele>1947.77</ele>
        <time>2017-07-07T13:35:58Z</time>
      </trkpt>
      <trkpt lat="46.094715781509876" lon="11.839561276137829">
        <ele>1948.73</ele>
        <time>2017-07-07T13:36:10Z</time>
      </trkpt>
      <trkpt lat="46.094614695757627" lon="11.839652135968208">
        <ele>1948.73</ele>
        <time>2017-07-07T13:36:21Z</time>
      </trkpt>
      <trkpt lat="46.094527607783675" lon="11.839742492884398">
        <ele>1949.21</ele>
        <time>2017-07-07T13:36:31Z</time>
      </trkpt>
      <trkpt lat="46.094417050480843" lon="11.839837962761521">
        <ele>1949.6900000000001</ele>
        <time>2017-07-07T13:36:43Z</time>
      </trkpt>
      <trkpt lat="46.094289142638445" lon="11.839902671054006">
        <ele>1950.1700000000001</ele>
        <time>2017-07-07T13:36:54Z</time>
      </trkpt>
      <trkpt lat="46.09428302384913" lon="11.839905520901084">
        <ele>1950.1700000000001</ele>
        <time>2017-07-07T13:36:55Z</time>
      </trkpt>
      <trkpt lat="46.094229212030768" lon="11.839931253343821">
        <ele>1950.1700000000001</ele>
        <time>2017-07-07T13:37:00Z</time>
      </trkpt>
      <trkpt lat="46.094104154035449" lon="11.840019095689058">
        <ele>1950.6500000000001</ele>
        <time>2017-07-07T13:37:12Z</time>
      </trkpt>
      <trkpt lat="46.093989573419094" lon="11.840092856436968">
        <ele>1951.1300000000001</ele>
        <time>2017-07-07T13:37:24Z</time>
      </trkpt>
      <trkpt lat="46.093961326405406" lon="11.840092604979873">
        <ele>1951.1300000000001</ele>
        <time>2017-07-07T13:37:34Z</time>
      </trkpt>
      <trkpt lat="46.093834759667516" lon="11.840079696848989">
        <ele>1952.5699999999999</ele>
        <time>2017-07-07T13:37:48Z</time>
      </trkpt>
      <trkpt lat="46.093740463256836" lon="11.840093275532126">
        <ele>1954.02</ele>
        <time>2017-07-07T13:37:59Z</time>
      </trkpt>
      <trkpt lat="46.093633342534304" lon="11.840140130370855">
        <ele>1954.98</ele>
        <time>2017-07-07T13:38:11Z</time>
      </trkpt>
      <trkpt lat="46.093526221811771" lon="11.840169969946146">
        <ele>1956.9000000000001</ele>
        <time>2017-07-07T13:38:24Z</time>
      </trkpt>
      <trkpt lat="46.093435445800424" lon="11.840225122869015">
        <ele>1957.8599999999999</ele>
        <time>2017-07-07T13:38:36Z</time>
      </trkpt>
      <trkpt lat="46.093321200460196" lon="11.840242557227612">
        <ele>1959.3</ele>
        <time>2017-07-07T13:38:49Z</time>
      </trkpt>
      <trkpt lat="46.093312734737992" lon="11.84024641290307">
        <ele>1959.3</ele>
        <time>2017-07-07T13:38:50Z</time>
      </trkpt>
      <trkpt lat="46.093218857422471" lon="11.840273654088378">
        <ele>1960.75</ele>
        <time>2017-07-07T13:39:00Z</time>
      </trkpt>
      <trkpt lat="46.093124393373728" lon="11.840312629938126">
        <ele>1961.71</ele>
        <time>2017-07-07T13:39:11Z</time>
      </trkpt>
      <trkpt lat="46.093054320663214" lon="11.840358562767506">
        <ele>1962.6700000000001</ele>
        <time>2017-07-07T13:39:20Z</time>
      </trkpt>
      <trkpt lat="46.092981062829494" lon="11.840428970754147">
        <ele>1963.6300000000001</ele>
        <time>2017-07-07T13:39:31Z</time>
      </trkpt>
      <trkpt lat="46.092974105849862" lon="11.840436514467001">
        <ele>1964.1099999999999</ele>
        <time>2017-07-07T13:39:32Z</time>
      </trkpt>
      <trkpt lat="46.092886431142688" lon="11.840540952980518">
        <ele>1964.5899999999999</ele>
        <time>2017-07-07T13:39:44Z</time>
      </trkpt>
      <trkpt lat="46.092824907973409" lon="11.840633573010564">
        <ele>1965.55</ele>
        <time>2017-07-07T13:39:54Z</time>
      </trkpt>
      <trkpt lat="46.092766150832176" lon="11.840715212747455">
        <ele>1966.99</ele>
        <time>2017-07-07T13:40:03Z</time>
      </trkpt>
      <trkpt lat="46.09271845780313" lon="11.840812526643276">
        <ele>1967.96</ele>
        <time>2017-07-07T13:40:12Z</time>
      </trkpt>
      <trkpt lat="46.092664310708642" lon="11.84092266485095">
        <ele>1968.9200000000001</ele>
        <time>2017-07-07T13:40:22Z</time>
      </trkpt>
      <trkpt lat="46.0926129296422" lon="11.841010423377156">
        <ele>1970.3599999999999</ele>
        <time>2017-07-07T13:40:31Z</time>
      </trkpt>
      <trkpt lat="46.092558614909649" lon="11.841088375076652">
        <ele>1970.8399999999999</ele>
        <time>2017-07-07T13:40:39Z</time>
      </trkpt>
      <trkpt lat="46.092511508613825" lon="11.841178983449936">
        <ele>1971.3199999999999</ele>
        <time>2017-07-07T13:40:48Z</time>
      </trkpt>
      <trkpt lat="46.092430958524346" lon="11.841273196041584">
        <ele>1972.76</ele>
        <time>2017-07-07T13:41:00Z</time>
      </trkpt>
      <trkpt lat="46.092356024309993" lon="11.841348381713033">
        <ele>1973.72</ele>
        <time>2017-07-07T13:41:10Z</time>
      </trkpt>
      <trkpt lat="46.092325011268258" lon="11.841376880183816">
        <ele>1973.72</ele>
        <time>2017-07-07T13:41:14Z</time>
      </trkpt>
      <trkpt lat="46.092271534726024" lon="11.841450976207852">
        <ele>1974.6900000000001</ele>
        <time>2017-07-07T13:41:23Z</time>
      </trkpt>
      <trkpt lat="46.092216381803155" lon="11.841495735570788">
        <ele>1975.1700000000001</ele>
        <time>2017-07-07T13:41:31Z</time>
      </trkpt>
      <trkpt lat="46.09214530326426" lon="11.841541836038232">
        <ele>1976.1300000000001</ele>
        <time>2017-07-07T13:41:40Z</time>
      </trkpt>
      <trkpt lat="46.092087887227535" lon="11.841587265953422">
        <ele>1976.6099999999999</ele>
        <time>2017-07-07T13:41:50Z</time>
      </trkpt>
      <trkpt lat="46.092100040987134" lon="11.841590870171785">
        <ele>1976.6099999999999</ele>
        <time>2017-07-07T13:42:00Z</time>
      </trkpt>
      <trkpt lat="46.092077074572444" lon="11.841589277610183">
        <ele>1977.0899999999999</ele>
        <time>2017-07-07T13:42:08Z</time>
      </trkpt>
      <trkpt lat="46.092082355171442" lon="11.841584919020534">
        <ele>1976.6099999999999</ele>
        <time>2017-07-07T13:42:17Z</time>
      </trkpt>
      <trkpt lat="46.092065423727036" lon="11.841541333124042">
        <ele>1977.0899999999999</ele>
        <time>2017-07-07T13:42:35Z</time>
      </trkpt>
      <trkpt lat="46.091997781768441" lon="11.841611908748746">
        <ele>1978.53</ele>
        <time>2017-07-07T13:42:45Z</time>
      </trkpt>
      <trkpt lat="46.091931732371449" lon="11.84164778329432">
        <ele>1979.97</ele>
        <time>2017-07-07T13:42:54Z</time>
      </trkpt>
      <trkpt lat="46.091911867260933" lon="11.841667229309678">
        <ele>1979.97</ele>
        <time>2017-07-07T13:42:57Z</time>
      </trkpt>
      <trkpt lat="46.091841794550419" lon="11.841717856004834">
        <ele>1980.9300000000001</ele>
        <time>2017-07-07T13:43:07Z</time>
      </trkpt>
      <trkpt lat="46.091746492311358" lon="11.841772841289639">
        <ele>1981.9000000000001</ele>
        <time>2017-07-07T13:43:20Z</time>
      </trkpt>
      <trkpt lat="46.091671390458941" lon="11.841857582330704">
        <ele>1983.3399999999999</ele>
        <time>2017-07-07T13:43:32Z</time>
      </trkpt>
      <trkpt lat="46.09166250564158" lon="11.841876190155745">
        <ele>1983.3399999999999</ele>
        <time>2017-07-07T13:43:34Z</time>
      </trkpt>
      <trkpt lat="46.091590924188495" lon="11.841940646991134">
        <ele>1984.78</ele>
        <time>2017-07-07T13:43:45Z</time>
      </trkpt>
      <trkpt lat="46.091565694659948" lon="11.841960679739714">
        <ele>1985.26</ele>
        <time>2017-07-07T13:43:48Z</time>
      </trkpt>
      <trkpt lat="46.091489838436246" lon="11.84201767668128">
        <ele>1986.22</ele>
        <time>2017-07-07T13:43:58Z</time>
      </trkpt>
      <trkpt lat="46.091416999697685" lon="11.842089341953397">
        <ele>1987.1800000000001</ele>
        <time>2017-07-07T13:44:10Z</time>
      </trkpt>
      <trkpt lat="46.091364026069641" lon="11.842145081609488">
        <ele>1988.6199999999999</ele>
        <time>2017-07-07T13:44:18Z</time>
      </trkpt>
      <trkpt lat="46.091253887861967" lon="11.842250442132354">
        <ele>1989.0999999999999</ele>
        <time>2017-07-07T13:44:30Z</time>
      </trkpt>
      <trkpt lat="46.091159339994192" lon="11.842360580340028">
        <ele>1990.55</ele>
        <time>2017-07-07T13:44:43Z</time>
      </trkpt>
      <trkpt lat="46.091080801561475" lon="11.842432580888271">
        <ele>1992.95</ele>
        <time>2017-07-07T13:44:55Z</time>
      </trkpt>
      <trkpt lat="46.091010812669992" lon="11.842487147077918">
        <ele>1993.9100000000001</ele>
        <time>2017-07-07T13:45:06Z</time>
      </trkpt>
      <trkpt lat="46.090979715809226" lon="11.842570714652538">
        <ele>1995.3499999999999</ele>
        <time>2017-07-07T13:45:17Z</time>
      </trkpt>
      <trkpt lat="46.09090561978519" lon="11.842743214219809">
        <ele>1995.8299999999999</ele>
        <time>2017-07-07T13:45:30Z</time>
      </trkpt>
      <trkpt lat="46.090823728591204" lon="11.842912277206779">
        <ele>1995.8299999999999</ele>
        <time>2017-07-07T13:45:43Z</time>
      </trkpt>
      <trkpt lat="46.090677883476019" lon="11.843050578609109">
        <ele>1995.3499999999999</ele>
        <time>2017-07-07T13:45:57Z</time>
      </trkpt>
      <trkpt lat="46.090594315901399" lon="11.843083687126637">
        <ele>1994.3900000000001</ele>
        <time>2017-07-07T13:46:04Z</time>
      </trkpt>
      <trkpt lat="46.090550310909748" lon="11.843138420954347">
        <ele>1994.3900000000001</ele>
        <time>2017-07-07T13:46:09Z</time>
      </trkpt>
      <trkpt lat="46.090432209894061" lon="11.843247972428799">
        <ele>1995.3499999999999</ele>
        <time>2017-07-07T13:46:21Z</time>
      </trkpt>
      <trkpt lat="46.090420978143811" lon="11.843248978257179">
        <ele>1995.3499999999999</ele>
        <time>2017-07-07T13:46:22Z</time>
      </trkpt>
      <trkpt lat="46.090397341176867" lon="11.843244452029467">
        <ele>1995.3499999999999</ele>
        <time>2017-07-07T13:46:24Z</time>
      </trkpt>
      <trkpt lat="46.090348307043314" lon="11.84324512258172">
        <ele>1995.8299999999999</ele>
        <time>2017-07-07T13:46:29Z</time>
      </trkpt>
      <trkpt lat="46.090317294001579" lon="11.843247972428799">
        <ele>1996.3199999999999</ele>
        <time>2017-07-07T13:46:32Z</time>
      </trkpt>
      <trkpt lat="46.090203383937478" lon="11.843270938843489">
        <ele>1997.76</ele>
        <time>2017-07-07T13:46:44Z</time>
      </trkpt>
      <trkpt lat="46.090112524107099" lon="11.843298012390733">
        <ele>1998.72</ele>
        <time>2017-07-07T13:46:55Z</time>
      </trkpt>
      <trkpt lat="46.090035578235984" lon="11.84331108815968">
        <ele>2000.1600000000001</ele>
        <time>2017-07-07T13:47:05Z</time>
      </trkpt>
      <trkpt lat="46.089998027309775" lon="11.843290468677878">
        <ele>1999.6800000000001</ele>
        <time>2017-07-07T13:47:14Z</time>
      </trkpt>
      <trkpt lat="46.089921249076724" lon="11.8431840185076">
        <ele>1998.72</ele>
        <time>2017-07-07T13:47:24Z</time>
      </trkpt>
      <trkpt lat="46.089912783354521" lon="11.843181923031807">
        <ele>1998.72</ele>
        <time>2017-07-07T13:47:25Z</time>
      </trkpt>
      <trkpt lat="46.089869784191251" lon="11.843202793970704">
        <ele>1997.76</ele>
        <time>2017-07-07T13:47:29Z</time>
      </trkpt>
      <trkpt lat="46.089787976816297" lon="11.843236153945327">
        <ele>1995.3499999999999</ele>
        <time>2017-07-07T13:47:39Z</time>
      </trkpt>
      <trkpt lat="46.089779594913125" lon="11.843228777870536">
        <ele>1995.3499999999999</ele>
        <time>2017-07-07T13:47:45Z</time>
      </trkpt>
      <trkpt lat="46.089629223570228" lon="11.843246212229133">
        <ele>1991.99</ele>
        <time>2017-07-07T13:47:57Z</time>
      </trkpt>
      <trkpt lat="46.089480528607965" lon="11.843220898881555">
        <ele>1988.6199999999999</ele>
        <time>2017-07-07T13:48:08Z</time>
      </trkpt>
      <trkpt lat="46.089344909414649" lon="11.84319332242012">
        <ele>1986.22</ele>
        <time>2017-07-07T13:48:19Z</time>
      </trkpt>
      <trkpt lat="46.089312974363565" lon="11.843171948567033">
        <ele>1985.26</ele>
        <time>2017-07-07T13:48:22Z</time>
      </trkpt>
      <trkpt lat="46.089277267456055" lon="11.84300372377038">
        <ele>1981.4100000000001</ele>
        <time>2017-07-07T13:48:30Z</time>
      </trkpt>
      <trkpt lat="46.089261090382934" lon="11.842932980507612">
        <ele>1979.97</ele>
        <time>2017-07-07T13:48:33Z</time>
      </trkpt>
      <trkpt lat="46.089255809783936" lon="11.842704238370061">
        <ele>1979.49</ele>
        <time>2017-07-07T13:48:45Z</time>
      </trkpt>
      <trkpt lat="46.089281961321831" lon="11.842588735744357">
        <ele>1980.45</ele>
        <time>2017-07-07T13:48:55Z</time>
      </trkpt>
      <trkpt lat="46.089256899431348" lon="11.842538863420486">
        <ele>1979.97</ele>
        <time>2017-07-07T13:49:06Z</time>
      </trkpt>
      <trkpt lat="46.089229742065072" lon="11.842507096007466">
        <ele>1979.97</ele>
        <time>2017-07-07T13:49:10Z</time>
      </trkpt>
      <trkpt lat="46.089132763445377" lon="11.842492260038853">
        <ele>1979.97</ele>
        <time>2017-07-07T13:49:18Z</time>
      </trkpt>
      <trkpt lat="46.089141815900803" lon="11.842343732714653">
        <ele>1979.97</ele>
        <time>2017-07-07T13:49:29Z</time>
      </trkpt>
      <trkpt lat="46.089159920811653" lon="11.842290172353387">
        <ele>1979.97</ele>
        <time>2017-07-07T13:49:37Z</time>
      </trkpt>
      <trkpt lat="46.089162435382605" lon="11.842284053564072">
        <ele>1979.49</ele>
        <time>2017-07-07T13:49:52Z</time>
      </trkpt>
      <trkpt lat="46.089155143126845" lon="11.842302326112986">
        <ele>1979.01</ele>
        <time>2017-07-07T13:50:01Z</time>
      </trkpt>
      <trkpt lat="46.089161848649383" lon="11.842294279485941">
        <ele>1979.49</ele>
        <time>2017-07-07T13:50:10Z</time>
      </trkpt>
      <trkpt lat="46.089166793972254" lon="11.842310037463903">
        <ele>1979.49</ele>
        <time>2017-07-07T13:50:33Z</time>
      </trkpt>
      <trkpt lat="46.089168386533856" lon="11.842292686924338">
        <ele>1979.01</ele>
        <time>2017-07-07T13:50:46Z</time>
      </trkpt>
    </trkseg>
  </trk>

  <trk>
    <name>7-rif-dal-piaz-p-croce-d-aune2017-07-08</name>
    <extensions>
      <gpxx:TrackExtension>
        <gpxx:DisplayColor>Yellow</gpxx:DisplayColor>
      </gpxx:TrackExtension>
    </extensions>
    <trkseg>
      <trkpt lat="46.089218175038695" lon="11.842339960858226">
        <ele>1926.1400000000001</ele>
        <time>2017-07-08T05:51:19Z</time>
      </trkpt>
      <trkpt lat="46.089250613003969" lon="11.842344822362065">
        <ele>1926.1400000000001</ele>
        <time>2017-07-08T05:51:36Z</time>
      </trkpt>
      <trkpt lat="46.089253965765238" lon="11.842405674979091">
        <ele>1926.1400000000001</ele>
        <time>2017-07-08T05:51:52Z</time>
      </trkpt>
      <trkpt lat="46.089287325739861" lon="11.842383798211813">
        <ele>1927.5799999999999</ele>
        <time>2017-07-08T05:51:58Z</time>
      </trkpt>
      <trkpt lat="46.089274920523167" lon="11.842376422137022">
        <ele>1931.9100000000001</ele>
        <time>2017-07-08T05:52:03Z</time>
      </trkpt>
      <trkpt lat="46.089273244142532" lon="11.842371644452214">
        <ele>1935.27</ele>
        <time>2017-07-08T05:52:06Z</time>
      </trkpt>
      <trkpt lat="46.089276596903801" lon="11.842373823747039">
        <ele>1938.6400000000001</ele>
        <time>2017-07-08T05:52:09Z</time>
      </trkpt>
      <trkpt lat="46.089275255799294" lon="11.842373739928007">
        <ele>1941.52</ele>
        <time>2017-07-08T05:52:12Z</time>
      </trkpt>
      <trkpt lat="46.08927265740931" lon="11.842369129881263">
        <ele>1945.3599999999999</ele>
        <time>2017-07-08T05:52:16Z</time>
      </trkpt>
      <trkpt lat="46.089280368760228" lon="11.842381451278925">
        <ele>1948.73</ele>
        <time>2017-07-08T05:52:21Z</time>
      </trkpt>
      <trkpt lat="46.089275758713484" lon="11.842362005263567">
        <ele>1951.6099999999999</ele>
        <time>2017-07-08T05:52:26Z</time>
      </trkpt>
      <trkpt lat="46.089285230264068" lon="11.842341721057892">
        <ele>1954.98</ele>
        <time>2017-07-08T05:52:32Z</time>
      </trkpt>
      <trkpt lat="46.089283553883433" lon="11.842325795441866">
        <ele>1956.9000000000001</ele>
        <time>2017-07-08T05:52:36Z</time>
      </trkpt>
      <trkpt lat="46.089284224435687" lon="11.842316910624504">
        <ele>1959.78</ele>
        <time>2017-07-08T05:52:43Z</time>
      </trkpt>
      <trkpt lat="46.08927852474153" lon="11.842310959473252">
        <ele>1964.5899999999999</ele>
        <time>2017-07-08T05:52:52Z</time>
      </trkpt>
      <trkpt lat="46.089279865846038" lon="11.842309953644872">
        <ele>1963.6300000000001</ele>
        <time>2017-07-08T05:52:53Z</time>
      </trkpt>
      <trkpt lat="46.089282045140862" lon="11.842299727723002">
        <ele>1966.51</ele>
        <time>2017-07-08T05:53:06Z</time>
      </trkpt>
      <trkpt lat="46.089278273284435" lon="11.842290004715323">
        <ele>1969.8800000000001</ele>
        <time>2017-07-08T05:53:22Z</time>
      </trkpt>
      <trkpt lat="46.089283218607306" lon="11.842271732166409">
        <ele>1972.28</ele>
        <time>2017-07-08T05:53:45Z</time>
      </trkpt>
      <trkpt lat="46.089287409558892" lon="11.842270055785775">
        <ele>1973.24</ele>
        <time>2017-07-08T05:54:05Z</time>
      </trkpt>
      <trkpt lat="46.089294450357556" lon="11.842291094362736">
        <ele>1973.24</ele>
        <time>2017-07-08T05:54:29Z</time>
      </trkpt>
      <trkpt lat="46.089291432872415" lon="11.842281790450215">
        <ele>1972.76</ele>
        <time>2017-07-08T05:54:46Z</time>
      </trkpt>
      <trkpt lat="46.089289840310812" lon="11.842279527336359">
        <ele>1972.76</ele>
        <time>2017-07-08T05:55:05Z</time>
      </trkpt>
      <trkpt lat="46.089293276891112" lon="11.842293189838529">
        <ele>1973.24</ele>
        <time>2017-07-08T05:55:23Z</time>
      </trkpt>
      <trkpt lat="46.089295540004969" lon="11.842288076877594">
        <ele>1973.24</ele>
        <time>2017-07-08T05:55:51Z</time>
      </trkpt>
      <trkpt lat="46.089305430650711" lon="11.842278270050883">
        <ele>1973.24</ele>
        <time>2017-07-08T05:56:17Z</time>
      </trkpt>
      <trkpt lat="46.089316913858056" lon="11.842248262837529">
        <ele>1972.76</ele>
        <time>2017-07-08T05:56:47Z</time>
      </trkpt>
      <trkpt lat="46.089315572753549" lon="11.842252118512988">
        <ele>1972.76</ele>
        <time>2017-07-08T05:57:07Z</time>
      </trkpt>
      <trkpt lat="46.089296964928508" lon="11.842203084379435">
        <ele>1973.24</ele>
        <time>2017-07-08T05:57:26Z</time>
      </trkpt>
      <trkpt lat="46.089299898594618" lon="11.842184476554394">
        <ele>1973.24</ele>
        <time>2017-07-08T05:57:47Z</time>
      </trkpt>
      <trkpt lat="46.089322026818991" lon="11.842182464897633">
        <ele>1973.24</ele>
        <time>2017-07-08T05:58:11Z</time>
      </trkpt>
      <trkpt lat="46.089319512248039" lon="11.842239629477262">
        <ele>1973.24</ele>
        <time>2017-07-08T05:58:37Z</time>
      </trkpt>
      <trkpt lat="46.089303754270077" lon="11.842240216210485">
        <ele>1974.6900000000001</ele>
        <time>2017-07-08T05:58:54Z</time>
      </trkpt>
      <trkpt lat="46.089293360710144" lon="11.842224625870585">
        <ele>1973.72</ele>
        <time>2017-07-08T05:59:07Z</time>
      </trkpt>
      <trkpt lat="46.08928145840764" lon="11.842234265059233">
        <ele>1974.2</ele>
        <time>2017-07-08T05:59:32Z</time>
      </trkpt>
      <trkpt lat="46.089289169758558" lon="11.842254130169749">
        <ele>1974.2</ele>
        <time>2017-07-08T05:59:58Z</time>
      </trkpt>
      <trkpt lat="46.089287828654051" lon="11.842268630862236">
        <ele>1974.2</ele>
        <time>2017-07-08T06:00:21Z</time>
      </trkpt>
      <trkpt lat="46.089284308254719" lon="11.842273743823171">
        <ele>1974.2</ele>
        <time>2017-07-08T06:00:47Z</time>
      </trkpt>
      <trkpt lat="46.08928631991148" lon="11.842289417982101">
        <ele>1974.2</ele>
        <time>2017-07-08T06:01:08Z</time>
      </trkpt>
      <trkpt lat="46.08928925357759" lon="11.842278270050883">
        <ele>1974.2</ele>
        <time>2017-07-08T06:01:30Z</time>
      </trkpt>
      <trkpt lat="46.089296210557222" lon="11.842275336384773">
        <ele>1974.2</ele>
        <time>2017-07-08T06:01:55Z</time>
      </trkpt>
      <trkpt lat="46.089293947443366" lon="11.842277850955725">
        <ele>1974.2</ele>
        <time>2017-07-08T06:02:16Z</time>
      </trkpt>
      <trkpt lat="46.089289421215653" lon="11.842271732166409">
        <ele>1974.2</ele>
        <time>2017-07-08T06:02:43Z</time>
      </trkpt>
      <trkpt lat="46.089286487549543" lon="11.84228204190731">
        <ele>1974.2</ele>
        <time>2017-07-08T06:03:02Z</time>
      </trkpt>
      <trkpt lat="46.089281290769577" lon="11.842272067442536">
        <ele>1974.2</ele>
        <time>2017-07-08T06:03:26Z</time>
      </trkpt>
      <trkpt lat="46.089282128959894" lon="11.84225220233202">
        <ele>1974.2</ele>
        <time>2017-07-08T06:03:49Z</time>
      </trkpt>
      <trkpt lat="46.089289085939527" lon="11.842264104634523">
        <ele>1974.2</ele>
        <time>2017-07-08T06:04:08Z</time>
      </trkpt>
      <trkpt lat="46.089283972978592" lon="11.842271229252219">
        <ele>1974.2</ele>
        <time>2017-07-08T06:04:38Z</time>
      </trkpt>
      <trkpt lat="46.089273998513818" lon="11.842280868440866">
        <ele>1974.2</ele>
        <time>2017-07-08T06:05:10Z</time>
      </trkpt>
      <trkpt lat="46.089271400123835" lon="11.842292938381433">
        <ele>1974.2</ele>
        <time>2017-07-08T06:05:30Z</time>
      </trkpt>
      <trkpt lat="46.089271735399961" lon="11.842282461002469">
        <ele>1974.2</ele>
        <time>2017-07-08T06:06:01Z</time>
      </trkpt>
      <trkpt lat="46.089279782027006" lon="11.842279443517327">
        <ele>1974.2</ele>
        <time>2017-07-08T06:06:22Z</time>
      </trkpt>
      <trkpt lat="46.089269388467073" lon="11.842273995280266">
        <ele>1974.2</ele>
        <time>2017-07-08T06:06:39Z</time>
      </trkpt>
      <trkpt lat="46.089284643530846" lon="11.84228640049696">
        <ele>1975.6500000000001</ele>
        <time>2017-07-08T06:06:57Z</time>
      </trkpt>
      <trkpt lat="46.089286906644702" lon="11.842308696359396">
        <ele>1974.2</ele>
        <time>2017-07-08T06:07:18Z</time>
      </trkpt>
      <trkpt lat="46.089291516691446" lon="11.842309115454555">
        <ele>1974.2</ele>
        <time>2017-07-08T06:07:47Z</time>
      </trkpt>
      <trkpt lat="46.089300401508808" lon="11.842305259779096">
        <ele>1974.2</ele>
        <time>2017-07-08T06:08:06Z</time>
      </trkpt>
      <trkpt lat="46.089298892766237" lon="11.842327304184437">
        <ele>1974.2</ele>
        <time>2017-07-08T06:08:31Z</time>
      </trkpt>
      <trkpt lat="46.089285900816321" lon="11.842316994443536">
        <ele>1973.72</ele>
        <time>2017-07-08T06:08:49Z</time>
      </trkpt>
      <trkpt lat="46.08925849199295" lon="11.8422981351614">
        <ele>1974.6900000000001</ele>
        <time>2017-07-08T06:09:13Z</time>
      </trkpt>
      <trkpt lat="46.08926871791482" lon="11.842292351648211">
        <ele>1973.72</ele>
        <time>2017-07-08T06:09:26Z</time>
      </trkpt>
      <trkpt lat="46.08926679007709" lon="11.842290004715323">
        <ele>1973.72</ele>
        <time>2017-07-08T06:09:27Z</time>
      </trkpt>
      <trkpt lat="46.089283050969243" lon="11.842273324728012">
        <ele>1974.6900000000001</ele>
        <time>2017-07-08T06:09:34Z</time>
      </trkpt>
      <trkpt lat="46.089273495599627" lon="11.842273408547044">
        <ele>1974.6900000000001</ele>
        <time>2017-07-08T06:09:45Z</time>
      </trkpt>
      <trkpt lat="46.089285146445036" lon="11.842295620590448">
        <ele>1974.6900000000001</ele>
        <time>2017-07-08T06:09:58Z</time>
      </trkpt>
      <trkpt lat="46.08927701599896" lon="11.842311630025506">
        <ele>1974.6900000000001</ele>
        <time>2017-07-08T06:10:14Z</time>
      </trkpt>
      <trkpt lat="46.089288666844368" lon="11.842343481257558">
        <ele>1974.6900000000001</ele>
        <time>2017-07-08T06:10:26Z</time>
      </trkpt>
      <trkpt lat="46.089284978806973" lon="11.842352701351047">
        <ele>1974.6900000000001</ele>
        <time>2017-07-08T06:10:45Z</time>
      </trkpt>
      <trkpt lat="46.089288666844368" lon="11.842341972514987">
        <ele>1974.6900000000001</ele>
        <time>2017-07-08T06:10:57Z</time>
      </trkpt>
      <trkpt lat="46.089323284104466" lon="11.842357898131013">
        <ele>1974.6900000000001</ele>
        <time>2017-07-08T06:11:06Z</time>
      </trkpt>
      <trkpt lat="46.089315824210644" lon="11.842379523441195">
        <ele>1974.6900000000001</ele>
        <time>2017-07-08T06:11:19Z</time>
      </trkpt>
      <trkpt lat="46.089280368760228" lon="11.842355383560061">
        <ele>1974.6900000000001</ele>
        <time>2017-07-08T06:11:28Z</time>
      </trkpt>
      <trkpt lat="46.089268298819661" lon="11.842354964464903">
        <ele>1974.6900000000001</ele>
        <time>2017-07-08T06:11:41Z</time>
      </trkpt>
      <trkpt lat="46.089280284941196" lon="11.842355132102966">
        <ele>1974.6900000000001</ele>
        <time>2017-07-08T06:11:58Z</time>
      </trkpt>
      <trkpt lat="46.089324625208974" lon="11.842328645288944">
        <ele>1975.1700000000001</ele>
        <time>2017-07-08T06:12:14Z</time>
      </trkpt>
      <trkpt lat="46.089338455349207" lon="11.842343481257558">
        <ele>1974.6900000000001</ele>
        <time>2017-07-08T06:12:27Z</time>
      </trkpt>
      <trkpt lat="46.089328564703465" lon="11.842325963079929">
        <ele>1975.1700000000001</ele>
        <time>2017-07-08T06:12:39Z</time>
      </trkpt>
      <trkpt lat="46.08930048532784" lon="11.842298051342368">
        <ele>1975.1700000000001</ele>
        <time>2017-07-08T06:12:53Z</time>
      </trkpt>
      <trkpt lat="46.089284224435687" lon="11.842287657782435">
        <ele>1974.6900000000001</ele>
        <time>2017-07-08T06:13:12Z</time>
      </trkpt>
      <trkpt lat="46.089280117303133" lon="11.842290004715323">
        <ele>1974.6900000000001</ele>
        <time>2017-07-08T06:13:13Z</time>
      </trkpt>
      <trkpt lat="46.089233178645372" lon="11.842243568971753">
        <ele>1975.1700000000001</ele>
        <time>2017-07-08T06:13:23Z</time>
      </trkpt>
      <trkpt lat="46.089226137846708" lon="11.84220090508461">
        <ele>1974.6900000000001</ele>
        <time>2017-07-08T06:13:35Z</time>
      </trkpt>
      <trkpt lat="46.089223707094789" lon="11.842211466282606">
        <ele>1974.6900000000001</ele>
        <time>2017-07-08T06:13:56Z</time>
      </trkpt>
      <trkpt lat="46.089216666296124" lon="11.842197133228183">
        <ele>1974.6900000000001</ele>
        <time>2017-07-08T06:14:08Z</time>
      </trkpt>
      <trkpt lat="46.08921398408711" lon="11.842216830700636">
        <ele>1974.6900000000001</ele>
        <time>2017-07-08T06:14:21Z</time>
      </trkpt>
      <trkpt lat="46.089218091219664" lon="11.842229487374425">
        <ele>1974.2</ele>
        <time>2017-07-08T06:14:34Z</time>
      </trkpt>
      <trkpt lat="46.089203925803304" lon="11.842259997501969">
        <ele>1974.2</ele>
        <time>2017-07-08T06:14:58Z</time>
      </trkpt>
      <trkpt lat="46.089210882782936" lon="11.842257315292954">
        <ele>1974.6900000000001</ele>
        <time>2017-07-08T06:15:16Z</time>
      </trkpt>
      <trkpt lat="46.089211888611317" lon="11.842242646962404">
        <ele>1974.6900000000001</ele>
        <time>2017-07-08T06:15:36Z</time>
      </trkpt>
      <trkpt lat="46.089217839762568" lon="11.842240216210485">
        <ele>1974.6900000000001</ele>
        <time>2017-07-08T06:15:49Z</time>
      </trkpt>
      <trkpt lat="46.089204763993621" lon="11.842245496809483">
        <ele>1975.1700000000001</ele>
        <time>2017-07-08T06:16:07Z</time>
      </trkpt>
      <trkpt lat="46.089196549728513" lon="11.842215321958065">
        <ele>1975.1700000000001</ele>
        <time>2017-07-08T06:16:19Z</time>
      </trkpt>
      <trkpt lat="46.089180875569582" lon="11.842218339443207">
        <ele>1974.6900000000001</ele>
        <time>2017-07-08T06:16:31Z</time>
      </trkpt>
      <trkpt lat="46.089172996580601" lon="11.842202413827181">
        <ele>1974.2</ele>
        <time>2017-07-08T06:16:46Z</time>
      </trkpt>
      <trkpt lat="46.089126896113157" lon="11.842240551486611">
        <ele>1972.28</ele>
        <time>2017-07-08T06:16:57Z</time>
      </trkpt>
      <trkpt lat="46.089121950790286" lon="11.842283718287945">
        <ele>1971.8</ele>
        <time>2017-07-08T06:17:03Z</time>
      </trkpt>
      <trkpt lat="46.089058751240373" lon="11.842364268377423">
        <ele>1971.3199999999999</ele>
        <time>2017-07-08T06:17:15Z</time>
      </trkpt>
      <trkpt lat="46.089017428457737" lon="11.842365860939026">
        <ele>1970.3599999999999</ele>
        <time>2017-07-08T06:17:25Z</time>
      </trkpt>
      <trkpt lat="46.089007034897804" lon="11.842362256720662">
        <ele>1969.8800000000001</ele>
        <time>2017-07-08T06:17:28Z</time>
      </trkpt>
      <trkpt lat="46.088906619697809" lon="11.842350019142032">
        <ele>1967.48</ele>
        <time>2017-07-08T06:17:41Z</time>
      </trkpt>
      <trkpt lat="46.088894214481115" lon="11.842334261164069">
        <ele>1967.48</ele>
        <time>2017-07-08T06:17:44Z</time>
      </trkpt>
      <trkpt lat="46.088857166469097" lon="11.842350773513317">
        <ele>1966.51</ele>
        <time>2017-07-08T06:17:55Z</time>
      </trkpt>
      <trkpt lat="46.088852388784289" lon="11.842357311397791">
        <ele>1966.03</ele>
        <time>2017-07-08T06:17:56Z</time>
      </trkpt>
      <trkpt lat="46.088822716847062" lon="11.842344654724002">
        <ele>1965.55</ele>
        <time>2017-07-08T06:18:04Z</time>
      </trkpt>
      <trkpt lat="46.088760104030371" lon="11.84233769774437">
        <ele>1963.6300000000001</ele>
        <time>2017-07-08T06:18:10Z</time>
      </trkpt>
      <trkpt lat="46.088748537003994" lon="11.842304756864905">
        <ele>1963.1500000000001</ele>
        <time>2017-07-08T06:18:20Z</time>
      </trkpt>
      <trkpt lat="46.088746609166265" lon="11.842298386618495">
        <ele>1963.1500000000001</ele>
        <time>2017-07-08T06:18:32Z</time>
      </trkpt>
      <trkpt lat="46.088748788461089" lon="11.842262009158731">
        <ele>1963.1500000000001</ele>
        <time>2017-07-08T06:18:36Z</time>
      </trkpt>
      <trkpt lat="46.088703945279121" lon="11.842248849570751">
        <ele>1962.1900000000001</ele>
        <time>2017-07-08T06:18:43Z</time>
      </trkpt>
      <trkpt lat="46.088665639981627" lon="11.842228649184108">
        <ele>1959.78</ele>
        <time>2017-07-08T06:18:48Z</time>
      </trkpt>
      <trkpt lat="46.088608643040061" lon="11.842197217047215">
        <ele>1958.3399999999999</ele>
        <time>2017-07-08T06:18:56Z</time>
      </trkpt>
      <trkpt lat="46.088562542572618" lon="11.842201156541705">
        <ele>1957.8599999999999</ele>
        <time>2017-07-08T06:19:02Z</time>
      </trkpt>
      <trkpt lat="46.088502025231719" lon="11.842213729396462">
        <ele>1955.46</ele>
        <time>2017-07-08T06:19:09Z</time>
      </trkpt>
      <trkpt lat="46.088480399921536" lon="11.842207778245211">
        <ele>1954.02</ele>
        <time>2017-07-08T06:19:16Z</time>
      </trkpt>
      <trkpt lat="46.088422564789653" lon="11.84222630225122">
        <ele>1953.0599999999999</ele>
        <time>2017-07-08T06:19:30Z</time>
      </trkpt>
      <trkpt lat="46.088329693302512" lon="11.84228204190731">
        <ele>1949.6900000000001</ele>
        <time>2017-07-08T06:19:43Z</time>
      </trkpt>
      <trkpt lat="46.088235815986991" lon="11.842381786555052">
        <ele>1947.29</ele>
        <time>2017-07-08T06:19:56Z</time>
      </trkpt>
      <trkpt lat="46.088197929784656" lon="11.842403998598456">
        <ele>1945.8499999999999</ele>
        <time>2017-07-08T06:20:06Z</time>
      </trkpt>
      <trkpt lat="46.088192649185658" lon="11.842378433793783">
        <ele>1945.8499999999999</ele>
        <time>2017-07-08T06:20:21Z</time>
      </trkpt>
      <trkpt lat="46.088187703862786" lon="11.842374661937356">
        <ele>1945.8499999999999</ele>
        <time>2017-07-08T06:20:36Z</time>
      </trkpt>
      <trkpt lat="46.088179741054773" lon="11.842443645000458">
        <ele>1945.3599999999999</ele>
        <time>2017-07-08T06:20:41Z</time>
      </trkpt>
      <trkpt lat="46.088097179308534" lon="11.842618575319648">
        <ele>1942</ele>
        <time>2017-07-08T06:20:54Z</time>
      </trkpt>
      <trkpt lat="46.088037500157952" lon="11.842740448191762">
        <ele>1942</ele>
        <time>2017-07-08T06:21:04Z</time>
      </trkpt>
      <trkpt lat="46.087979665026069" lon="11.842851508408785">
        <ele>1939.1199999999999</ele>
        <time>2017-07-08T06:21:14Z</time>
      </trkpt>
      <trkpt lat="46.087906993925571" lon="11.842884197831154">
        <ele>1937.1900000000001</ele>
        <time>2017-07-08T06:21:24Z</time>
      </trkpt>
      <trkpt lat="46.087857121601701" lon="11.842877911403775">
        <ele>1935.75</ele>
        <time>2017-07-08T06:21:31Z</time>
      </trkpt>
      <trkpt lat="46.087762070819736" lon="11.842865506187081">
        <ele>1933.3499999999999</ele>
        <time>2017-07-08T06:21:42Z</time>
      </trkpt>
      <trkpt lat="46.087681436911225" lon="11.842907750979066">
        <ele>1931.9100000000001</ele>
        <time>2017-07-08T06:21:52Z</time>
      </trkpt>
      <trkpt lat="46.087560234591365" lon="11.843038341030478">
        <ele>1929.5</ele>
        <time>2017-07-08T06:22:06Z</time>
      </trkpt>
      <trkpt lat="46.087496699765325" lon="11.84311218559742">
        <ele>1927.0999999999999</ele>
        <time>2017-07-08T06:22:16Z</time>
      </trkpt>
      <trkpt lat="46.087447917088866" lon="11.843187035992742">
        <ele>1925.6600000000001</ele>
        <time>2017-07-08T06:22:24Z</time>
      </trkpt>
      <trkpt lat="46.087381364777684" lon="11.843251325190067">
        <ele>1923.74</ele>
        <time>2017-07-08T06:22:33Z</time>
      </trkpt>
      <trkpt lat="46.087330486625433" lon="11.843291390687227">
        <ele>1920.8499999999999</ele>
        <time>2017-07-08T06:22:44Z</time>
      </trkpt>
      <trkpt lat="46.087268963456154" lon="11.843314440920949">
        <ele>1918.45</ele>
        <time>2017-07-08T06:22:56Z</time>
      </trkpt>
      <trkpt lat="46.087243398651481" lon="11.843298180028796">
        <ele>1917.49</ele>
        <time>2017-07-08T06:23:01Z</time>
      </trkpt>
      <trkpt lat="46.087210038676858" lon="11.843275297433138">
        <ele>1916.53</ele>
        <time>2017-07-08T06:23:11Z</time>
      </trkpt>
      <trkpt lat="46.087197046726942" lon="11.843349477276206">
        <ele>1916.04</ele>
        <time>2017-07-08T06:23:27Z</time>
      </trkpt>
      <trkpt lat="46.087102247402072" lon="11.843444611877203">
        <ele>1915.0799999999999</ele>
        <time>2017-07-08T06:23:38Z</time>
      </trkpt>
      <trkpt lat="46.087037539109588" lon="11.843490460887551">
        <ele>1915.0799999999999</ele>
        <time>2017-07-08T06:23:53Z</time>
      </trkpt>
      <trkpt lat="46.087039299309254" lon="11.843495238572359">
        <ele>1914.5999999999999</ele>
        <time>2017-07-08T06:24:10Z</time>
      </trkpt>
      <trkpt lat="46.087029157206416" lon="11.843496831133962">
        <ele>1914.5999999999999</ele>
        <time>2017-07-08T06:24:20Z</time>
      </trkpt>
      <trkpt lat="46.086965957656503" lon="11.84355634264648">
        <ele>1914.5999999999999</ele>
        <time>2017-07-08T06:24:26Z</time>
      </trkpt>
      <trkpt lat="46.086799409240484" lon="11.843661200255156">
        <ele>1913.6400000000001</ele>
        <time>2017-07-08T06:24:41Z</time>
      </trkpt>
      <trkpt lat="46.086659515276551" lon="11.843755161389709">
        <ele>1912.6800000000001</ele>
        <time>2017-07-08T06:24:53Z</time>
      </trkpt>
      <trkpt lat="46.086635626852512" lon="11.843767734244466">
        <ele>1912.2</ele>
        <time>2017-07-08T06:24:55Z</time>
      </trkpt>
      <trkpt lat="46.08651040121913" lon="11.843916093930602">
        <ele>1912.6800000000001</ele>
        <time>2017-07-08T06:25:09Z</time>
      </trkpt>
      <trkpt lat="46.086490955203772" lon="11.843954985961318">
        <ele>1911.24</ele>
        <time>2017-07-08T06:25:12Z</time>
      </trkpt>
      <trkpt lat="46.086366148665547" lon="11.844120947644114">
        <ele>1910.28</ele>
        <time>2017-07-08T06:25:25Z</time>
      </trkpt>
      <trkpt lat="46.086242515593767" lon="11.844259332865477">
        <ele>1909.3199999999999</ele>
        <time>2017-07-08T06:25:38Z</time>
      </trkpt>
      <trkpt lat="46.086065825074911" lon="11.844474580138922">
        <ele>1907.8699999999999</ele>
        <time>2017-07-08T06:25:55Z</time>
      </trkpt>
      <trkpt lat="46.085977647453547" lon="11.84475009329617">
        <ele>1907.8699999999999</ele>
        <time>2017-07-08T06:26:12Z</time>
      </trkpt>
      <trkpt lat="46.086043361574411" lon="11.844974225386977">
        <ele>1908.3499999999999</ele>
        <time>2017-07-08T06:26:25Z</time>
      </trkpt>
      <trkpt lat="46.086090551689267" lon="11.845035161823034">
        <ele>1908.8299999999999</ele>
        <time>2017-07-08T06:26:30Z</time>
      </trkpt>
      <trkpt lat="46.086132545024157" lon="11.845207242295146">
        <ele>1909.3199999999999</ele>
        <time>2017-07-08T06:26:42Z</time>
      </trkpt>
      <trkpt lat="46.086102789267898" lon="11.845439421012998">
        <ele>1909.8</ele>
        <time>2017-07-08T06:26:55Z</time>
      </trkpt>
      <trkpt lat="46.086131287738681" lon="11.845648717135191">
        <ele>1908.8299999999999</ele>
        <time>2017-07-08T06:27:06Z</time>
      </trkpt>
      <trkpt lat="46.086193900555372" lon="11.845831777900457">
        <ele>1907.8699999999999</ele>
        <time>2017-07-08T06:27:17Z</time>
      </trkpt>
      <trkpt lat="46.086112344637513" lon="11.846009725704789">
        <ele>1906.4300000000001</ele>
        <time>2017-07-08T06:27:29Z</time>
      </trkpt>
      <trkpt lat="46.085955435410142" lon="11.846119863912463">
        <ele>1904.99</ele>
        <time>2017-07-08T06:27:43Z</time>
      </trkpt>
      <trkpt lat="46.085817134007812" lon="11.846227487549186">
        <ele>1904.03</ele>
        <time>2017-07-08T06:27:54Z</time>
      </trkpt>
      <trkpt lat="46.085761897265911" lon="11.846249448135495">
        <ele>1903.55</ele>
        <time>2017-07-08T06:27:58Z</time>
      </trkpt>
      <trkpt lat="46.085775308310986" lon="11.846144339069724">
        <ele>1902.5899999999999</ele>
        <time>2017-07-08T06:28:04Z</time>
      </trkpt>
      <trkpt lat="46.085944036021829" lon="11.845999583601952">
        <ele>1899.7</ele>
        <time>2017-07-08T06:28:19Z</time>
      </trkpt>
      <trkpt lat="46.086011342704296" lon="11.845787605270743">
        <ele>1898.74</ele>
        <time>2017-07-08T06:28:33Z</time>
      </trkpt>
      <trkpt lat="46.085940767079592" lon="11.845583589747548">
        <ele>1897.3</ele>
        <time>2017-07-08T06:28:46Z</time>
      </trkpt>
      <trkpt lat="46.085915705189109" lon="11.845332635566592">
        <ele>1896.3399999999999</ele>
        <time>2017-07-08T06:28:59Z</time>
      </trkpt>
      <trkpt lat="46.085873292759061" lon="11.845111856237054">
        <ele>1894.4200000000001</ele>
        <time>2017-07-08T06:29:12Z</time>
      </trkpt>
      <trkpt lat="46.085802633315325" lon="11.844866182655096">
        <ele>1892.49</ele>
        <time>2017-07-08T06:29:28Z</time>
      </trkpt>
      <trkpt lat="46.085824677720666" lon="11.844641799107194">
        <ele>1890.5699999999999</ele>
        <time>2017-07-08T06:29:42Z</time>
      </trkpt>
      <trkpt lat="46.085844626650214" lon="11.844476424157619">
        <ele>1889.1300000000001</ele>
        <time>2017-07-08T06:29:54Z</time>
      </trkpt>
      <trkpt lat="46.085855020210147" lon="11.844299733638763">
        <ele>1887.21</ele>
        <time>2017-07-08T06:30:07Z</time>
      </trkpt>
      <trkpt lat="46.085887458175421" lon="11.844109632074833">
        <ele>1885.28</ele>
        <time>2017-07-08T06:30:22Z</time>
      </trkpt>
      <trkpt lat="46.085956692695618" lon="11.843944089487195">
        <ele>1883.3599999999999</ele>
        <time>2017-07-08T06:30:36Z</time>
      </trkpt>
      <trkpt lat="46.086054258048534" lon="11.843816433101892">
        <ele>1881.9200000000001</ele>
        <time>2017-07-08T06:30:50Z</time>
      </trkpt>
      <trkpt lat="46.086028777062893" lon="11.843785084784031">
        <ele>1880.96</ele>
        <time>2017-07-08T06:30:58Z</time>
      </trkpt>
      <trkpt lat="46.086022071540356" lon="11.843789275735617">
        <ele>1880.48</ele>
        <time>2017-07-08T06:30:59Z</time>
      </trkpt>
      <trkpt lat="46.085949735715985" lon="11.8439248111099">
        <ele>1879.03</ele>
        <time>2017-07-08T06:31:12Z</time>
      </trkpt>
      <trkpt lat="46.085845632478595" lon="11.844024220481515">
        <ele>1877.5899999999999</ele>
        <time>2017-07-08T06:31:26Z</time>
      </trkpt>
      <trkpt lat="46.085789054632187" lon="11.844107620418072">
        <ele>1876.6300000000001</ele>
        <time>2017-07-08T06:31:35Z</time>
      </trkpt>
      <trkpt lat="46.085751838982105" lon="11.844325130805373">
        <ele>1874.71</ele>
        <time>2017-07-08T06:31:50Z</time>
      </trkpt>
      <trkpt lat="46.08572568744421" lon="11.844480279833078">
        <ele>1873.75</ele>
        <time>2017-07-08T06:32:01Z</time>
      </trkpt>
      <trkpt lat="46.085629547014832" lon="11.844641547650099">
        <ele>1871.8199999999999</ele>
        <time>2017-07-08T06:32:15Z</time>
      </trkpt>
      <trkpt lat="46.08555712737143" lon="11.844750596210361">
        <ele>1870.3800000000001</ele>
        <time>2017-07-08T06:32:27Z</time>
      </trkpt>
      <trkpt lat="46.085549248382449" lon="11.844963831827044">
        <ele>1869.9000000000001</ele>
        <time>2017-07-08T06:32:41Z</time>
      </trkpt>
      <trkpt lat="46.085596857592463" lon="11.845178743824363">
        <ele>1867.98</ele>
        <time>2017-07-08T06:32:55Z</time>
      </trkpt>
      <trkpt lat="46.085635581985116" lon="11.845384184271097">
        <ele>1867.02</ele>
        <time>2017-07-08T06:33:08Z</time>
      </trkpt>
      <trkpt lat="46.085609598085284" lon="11.845553247258067">
        <ele>1865.5799999999999</ele>
        <time>2017-07-08T06:33:19Z</time>
      </trkpt>
      <trkpt lat="46.085551008582115" lon="11.845625415444374">
        <ele>1865.5799999999999</ele>
        <time>2017-07-08T06:33:25Z</time>
      </trkpt>
      <trkpt lat="46.08552728779614" lon="11.845624493435025">
        <ele>1865.0899999999999</ele>
        <time>2017-07-08T06:33:27Z</time>
      </trkpt>
      <trkpt lat="46.08538169413805" lon="11.845605131238699">
        <ele>1864.1300000000001</ele>
        <time>2017-07-08T06:33:41Z</time>
      </trkpt>
      <trkpt lat="46.085279015824199" lon="11.845528855919838">
        <ele>1862.6900000000001</ele>
        <time>2017-07-08T06:33:53Z</time>
      </trkpt>
      <trkpt lat="46.0852116253227" lon="11.845527766272426">
        <ele>1861.73</ele>
        <time>2017-07-08T06:34:00Z</time>
      </trkpt>
      <trkpt lat="46.085119256749749" lon="11.84553581289947">
        <ele>1860.77</ele>
        <time>2017-07-08T06:34:09Z</time>
      </trkpt>
      <trkpt lat="46.084982128813863" lon="11.845548050478101">
        <ele>1858.8499999999999</ele>
        <time>2017-07-08T06:34:22Z</time>
      </trkpt>
      <trkpt lat="46.084876768290997" lon="11.845649220049381">
        <ele>1857.4000000000001</ele>
        <time>2017-07-08T06:34:35Z</time>
      </trkpt>
      <trkpt lat="46.08480267226696" lon="11.845774613320827">
        <ele>1855.48</ele>
        <time>2017-07-08T06:34:49Z</time>
      </trkpt>
      <trkpt lat="46.084791356697679" lon="11.845773942768574">
        <ele>1855.96</ele>
        <time>2017-07-08T06:34:53Z</time>
      </trkpt>
      <trkpt lat="46.084625395014882" lon="11.845769165083766">
        <ele>1854.52</ele>
        <time>2017-07-08T06:35:05Z</time>
      </trkpt>
      <trkpt lat="46.084559261798859" lon="11.845818618312478">
        <ele>1854.04</ele>
        <time>2017-07-08T06:35:12Z</time>
      </trkpt>
      <trkpt lat="46.084454488009214" lon="11.845925655215979">
        <ele>1850.6800000000001</ele>
        <time>2017-07-08T06:35:25Z</time>
      </trkpt>
      <trkpt lat="46.084401682019234" lon="11.845949124544859">
        <ele>1849.71</ele>
        <time>2017-07-08T06:35:37Z</time>
      </trkpt>
      <trkpt lat="46.084352312609553" lon="11.845948370173573">
        <ele>1848.75</ele>
        <time>2017-07-08T06:35:47Z</time>
      </trkpt>
      <trkpt lat="46.084308978170156" lon="11.845969408750534">
        <ele>1847.3099999999999</ele>
        <time>2017-07-08T06:35:57Z</time>
      </trkpt>
      <trkpt lat="46.084264302626252" lon="11.845966055989265">
        <ele>1845.3900000000001</ele>
        <time>2017-07-08T06:36:07Z</time>
      </trkpt>
      <trkpt lat="46.084233205765486" lon="11.845931271091104">
        <ele>1842.98</ele>
        <time>2017-07-08T06:36:17Z</time>
      </trkpt>
      <trkpt lat="46.084223231300712" lon="11.845933785662055">
        <ele>1841.0599999999999</ele>
        <time>2017-07-08T06:36:26Z</time>
      </trkpt>
      <trkpt lat="46.084159696474671" lon="11.845948286354542">
        <ele>1840.0999999999999</ele>
        <time>2017-07-08T06:36:37Z</time>
      </trkpt>
      <trkpt lat="46.084127174690366" lon="11.845902185887098">
        <ele>1838.6600000000001</ele>
        <time>2017-07-08T06:36:44Z</time>
      </trkpt>
      <trkpt lat="46.084110997617245" lon="11.845887014642358">
        <ele>1837.22</ele>
        <time>2017-07-08T06:36:48Z</time>
      </trkpt>
      <trkpt lat="46.084075793623924" lon="11.845849882811308">
        <ele>1836.74</ele>
        <time>2017-07-08T06:36:57Z</time>
      </trkpt>
      <trkpt lat="46.08406581915915" lon="11.845835298299789">
        <ele>1836.74</ele>
        <time>2017-07-08T06:37:11Z</time>
      </trkpt>
      <trkpt lat="46.084063975140452" lon="11.845850385725498">
        <ele>1836.74</ele>
        <time>2017-07-08T06:37:23Z</time>
      </trkpt>
      <trkpt lat="46.084050899371505" lon="11.845820629969239">
        <ele>1835.29</ele>
        <time>2017-07-08T06:37:37Z</time>
      </trkpt>
      <trkpt lat="46.084080990403891" lon="11.845866478979588">
        <ele>1835.29</ele>
        <time>2017-07-08T06:37:53Z</time>
      </trkpt>
      <trkpt lat="46.084071937948465" lon="11.845859521999955">
        <ele>1835.29</ele>
        <time>2017-07-08T06:38:09Z</time>
      </trkpt>
      <trkpt lat="46.084041595458984" lon="11.845834711566567">
        <ele>1834.8099999999999</ele>
        <time>2017-07-08T06:38:30Z</time>
      </trkpt>
      <trkpt lat="46.084008822217584" lon="11.845785258337855">
        <ele>1831.9300000000001</ele>
        <time>2017-07-08T06:38:39Z</time>
      </trkpt>
      <trkpt lat="46.08395341783762" lon="11.845747204497457">
        <ele>1830.01</ele>
        <time>2017-07-08T06:38:48Z</time>
      </trkpt>
      <trkpt lat="46.083945874124765" lon="11.845746533945203">
        <ele>1829.05</ele>
        <time>2017-07-08T06:38:50Z</time>
      </trkpt>
      <trkpt lat="46.08394218608737" lon="11.845681490376592">
        <ele>1827.5999999999999</ele>
        <time>2017-07-08T06:38:58Z</time>
      </trkpt>
      <trkpt lat="46.083892229944468" lon="11.845645532011986">
        <ele>1826.1600000000001</ele>
        <time>2017-07-08T06:39:07Z</time>
      </trkpt>
      <trkpt lat="46.083877142518759" lon="11.84562960639596">
        <ele>1825.2</ele>
        <time>2017-07-08T06:39:11Z</time>
      </trkpt>
      <trkpt lat="46.083852415904403" lon="11.845590798184276">
        <ele>1823.76</ele>
        <time>2017-07-08T06:39:18Z</time>
      </trkpt>
      <trkpt lat="46.08384688384831" lon="11.845589289441705">
        <ele>1823.76</ele>
        <time>2017-07-08T06:39:19Z</time>
      </trkpt>
      <trkpt lat="46.083789383992553" lon="11.845556600019336">
        <ele>1822.8</ele>
        <time>2017-07-08T06:39:28Z</time>
      </trkpt>
      <trkpt lat="46.083803465589881" lon="11.845549307763577">
        <ele>1822.8</ele>
        <time>2017-07-08T06:39:47Z</time>
      </trkpt>
      <trkpt lat="46.08373356051743" lon="11.845535645261407">
        <ele>1822.3199999999999</ele>
        <time>2017-07-08T06:39:58Z</time>
      </trkpt>
      <trkpt lat="46.083731800317764" lon="11.845541261136532">
        <ele>1821.8399999999999</ele>
        <time>2017-07-08T06:40:08Z</time>
      </trkpt>
      <trkpt lat="46.083692237734795" lon="11.845543021336198">
        <ele>1821.8399999999999</ele>
        <time>2017-07-08T06:40:18Z</time>
      </trkpt>
      <trkpt lat="46.083620321005583" lon="11.845514606684446">
        <ele>1820.8699999999999</ele>
        <time>2017-07-08T06:40:28Z</time>
      </trkpt>
      <trkpt lat="46.08350339345634" lon="11.845577554777265">
        <ele>1819.4300000000001</ele>
        <time>2017-07-08T06:40:40Z</time>
      </trkpt>
      <trkpt lat="46.083364672958851" lon="11.845589205622673">
        <ele>1817.99</ele>
        <time>2017-07-08T06:40:52Z</time>
      </trkpt>
      <trkpt lat="46.083270879462361" lon="11.84561250731349">
        <ele>1817.03</ele>
        <time>2017-07-08T06:41:00Z</time>
      </trkpt>
      <trkpt lat="46.083188317716122" lon="11.845676628872752">
        <ele>1816.0699999999999</ele>
        <time>2017-07-08T06:41:11Z</time>
      </trkpt>
      <trkpt lat="46.083191251382232" lon="11.845674030482769">
        <ele>1816.0699999999999</ele>
        <time>2017-07-08T06:41:17Z</time>
      </trkpt>
      <trkpt lat="46.083170883357525" lon="11.845674281939864">
        <ele>1815.5899999999999</ele>
        <time>2017-07-08T06:41:19Z</time>
      </trkpt>
      <trkpt lat="46.083093853667378" lon="11.845700517296791">
        <ele>1814.6300000000001</ele>
        <time>2017-07-08T06:41:25Z</time>
      </trkpt>
      <trkpt lat="46.082931244745851" lon="11.845736475661397">
        <ele>1813.1800000000001</ele>
        <time>2017-07-08T06:41:38Z</time>
      </trkpt>
      <trkpt lat="46.082792188972235" lon="11.84580210596323">
        <ele>1810.78</ele>
        <time>2017-07-08T06:41:50Z</time>
      </trkpt>
      <trkpt lat="46.082782130688429" lon="11.84578500688076">
        <ele>1810.78</ele>
        <time>2017-07-08T06:41:59Z</time>
      </trkpt>
      <trkpt lat="46.082714656367898" lon="11.845804285258055">
        <ele>1810.78</ele>
        <time>2017-07-08T06:42:08Z</time>
      </trkpt>
      <trkpt lat="46.082698898389935" lon="11.845797076821327">
        <ele>1811.26</ele>
        <time>2017-07-08T06:42:10Z</time>
      </trkpt>
      <trkpt lat="46.082677859812975" lon="11.845789449289441">
        <ele>1811.26</ele>
        <time>2017-07-08T06:42:13Z</time>
      </trkpt>
      <trkpt lat="46.082630753517151" lon="11.845804871991277">
        <ele>1810.78</ele>
        <time>2017-07-08T06:42:27Z</time>
      </trkpt>
      <trkpt lat="46.082632513716817" lon="11.845804369077086">
        <ele>1810.78</ele>
        <time>2017-07-08T06:42:42Z</time>
      </trkpt>
      <trkpt lat="46.082639303058386" lon="11.845797663554549">
        <ele>1811.26</ele>
        <time>2017-07-08T06:43:02Z</time>
      </trkpt>
      <trkpt lat="46.082677943632007" lon="11.845820210874081">
        <ele>1811.26</ele>
        <time>2017-07-08T06:43:14Z</time>
      </trkpt>
      <trkpt lat="46.082683727145195" lon="11.845809565857053">
        <ele>1811.26</ele>
        <time>2017-07-08T06:43:21Z</time>
      </trkpt>
      <trkpt lat="46.082744160667062" lon="11.845802441239357">
        <ele>1810.78</ele>
        <time>2017-07-08T06:43:29Z</time>
      </trkpt>
      <trkpt lat="46.082787998020649" lon="11.845716945827007">
        <ele>1809.8199999999999</ele>
        <time>2017-07-08T06:43:40Z</time>
      </trkpt>
      <trkpt lat="46.082792272791266" lon="11.845710324123502">
        <ele>1809.8199999999999</ele>
        <time>2017-07-08T06:43:41Z</time>
      </trkpt>
      <trkpt lat="46.082884138450027" lon="11.845642514526844">
        <ele>1807.9000000000001</ele>
        <time>2017-07-08T06:43:53Z</time>
      </trkpt>
      <trkpt lat="46.082910373806953" lon="11.845617368817329">
        <ele>1807.4200000000001</ele>
        <time>2017-07-08T06:43:57Z</time>
      </trkpt>
      <trkpt lat="46.082916492596269" lon="11.845602951943874">
        <ele>1807.4200000000001</ele>
        <time>2017-07-08T06:43:59Z</time>
      </trkpt>
      <trkpt lat="46.083037108182907" lon="11.845511337742209">
        <ele>1805.49</ele>
        <time>2017-07-08T06:44:12Z</time>
      </trkpt>
      <trkpt lat="46.083057057112455" lon="11.845515193417668">
        <ele>1805.97</ele>
        <time>2017-07-08T06:44:20Z</time>
      </trkpt>
      <trkpt lat="46.08306753449142" lon="11.845483258366585">
        <ele>1804.05</ele>
        <time>2017-07-08T06:44:29Z</time>
      </trkpt>
      <trkpt lat="46.083051860332489" lon="11.845459705218673">
        <ele>1803.0899999999999</ele>
        <time>2017-07-08T06:44:37Z</time>
      </trkpt>
      <trkpt lat="46.083006765693426" lon="11.84543514624238">
        <ele>1801.1700000000001</ele>
        <time>2017-07-08T06:44:45Z</time>
      </trkpt>
      <trkpt lat="46.08293023891747" lon="11.845455262809992">
        <ele>1798.76</ele>
        <time>2017-07-08T06:44:56Z</time>
      </trkpt>
      <trkpt lat="46.082902578637004" lon="11.845486778765917">
        <ele>1797.3199999999999</ele>
        <time>2017-07-08T06:45:05Z</time>
      </trkpt>
      <trkpt lat="46.082849269732833" lon="11.845458280295134">
        <ele>1794.9200000000001</ele>
        <time>2017-07-08T06:45:14Z</time>
      </trkpt>
      <trkpt lat="46.082830494269729" lon="11.84545811265707">
        <ele>1793.96</ele>
        <time>2017-07-08T06:45:19Z</time>
      </trkpt>
      <trkpt lat="46.082789422944188" lon="11.845468338578939">
        <ele>1793</ele>
        <time>2017-07-08T06:45:28Z</time>
      </trkpt>
      <trkpt lat="46.082711303606629" lon="11.845453334972262">
        <ele>1790.5899999999999</ele>
        <time>2017-07-08T06:45:38Z</time>
      </trkpt>
      <trkpt lat="46.082667633891106" lon="11.845432296395302">
        <ele>1789.1500000000001</ele>
        <time>2017-07-08T06:45:47Z</time>
      </trkpt>
      <trkpt lat="46.082664113491774" lon="11.845429865643382">
        <ele>1789.1500000000001</ele>
        <time>2017-07-08T06:45:48Z</time>
      </trkpt>
      <trkpt lat="46.082607870921493" lon="11.845408072695136">
        <ele>1787.23</ele>
        <time>2017-07-08T06:45:58Z</time>
      </trkpt>
      <trkpt lat="46.082526063546538" lon="11.845352416858077">
        <ele>1784.3399999999999</ele>
        <time>2017-07-08T06:46:10Z</time>
      </trkpt>
      <trkpt lat="46.082500917837024" lon="11.845336239784956">
        <ele>1783.8599999999999</ele>
        <time>2017-07-08T06:46:13Z</time>
      </trkpt>
      <trkpt lat="46.082387762144208" lon="11.845297683030367">
        <ele>1781.46</ele>
        <time>2017-07-08T06:46:25Z</time>
      </trkpt>
      <trkpt lat="46.082328334450722" lon="11.845286032184958">
        <ele>1780.5</ele>
        <time>2017-07-08T06:46:31Z</time>
      </trkpt>
      <trkpt lat="46.082164384424686" lon="11.845262395218015">
        <ele>1780.02</ele>
        <time>2017-07-08T06:46:45Z</time>
      </trkpt>
      <trkpt lat="46.082063969224691" lon="11.845227107405663">
        <ele>1777.6099999999999</ele>
        <time>2017-07-08T06:46:56Z</time>
      </trkpt>
      <trkpt lat="46.081912089139223" lon="11.845238087698817">
        <ele>1776.1700000000001</ele>
        <time>2017-07-08T06:47:09Z</time>
      </trkpt>
      <trkpt lat="46.081872945651412" lon="11.845213277265429">
        <ele>1775.21</ele>
        <time>2017-07-08T06:47:21Z</time>
      </trkpt>
      <trkpt lat="46.081773703917861" lon="11.845223922282457">
        <ele>1772.8099999999999</ele>
        <time>2017-07-08T06:47:33Z</time>
      </trkpt>
      <trkpt lat="46.081759873777628" lon="11.845200955867767">
        <ele>1771.8499999999999</ele>
        <time>2017-07-08T06:47:37Z</time>
      </trkpt>
      <trkpt lat="46.081724669784307" lon="11.845206739380956">
        <ele>1770.4100000000001</ele>
        <time>2017-07-08T06:47:41Z</time>
      </trkpt>
      <trkpt lat="46.081689046695828" lon="11.845218390226364">
        <ele>1769.4400000000001</ele>
        <time>2017-07-08T06:47:46Z</time>
      </trkpt>
      <trkpt lat="46.081673456355929" lon="11.845208834856749">
        <ele>1768.96</ele>
        <time>2017-07-08T06:47:48Z</time>
      </trkpt>
      <trkpt lat="46.08157622627914" lon="11.845260299742222">
        <ele>1766.5599999999999</ele>
        <time>2017-07-08T06:47:59Z</time>
      </trkpt>
      <trkpt lat="46.081547979265451" lon="11.845272537320852">
        <ele>1766.0799999999999</ele>
        <time>2017-07-08T06:48:02Z</time>
      </trkpt>
      <trkpt lat="46.081480588763952" lon="11.845280583947897">
        <ele>1763.6800000000001</ele>
        <time>2017-07-08T06:48:15Z</time>
      </trkpt>
      <trkpt lat="46.08143356628716" lon="11.845255438238382">
        <ele>1762.23</ele>
        <time>2017-07-08T06:48:25Z</time>
      </trkpt>
      <trkpt lat="46.08132560737431" lon="11.845262395218015">
        <ele>1758.8699999999999</ele>
        <time>2017-07-08T06:48:37Z</time>
      </trkpt>
      <trkpt lat="46.081273136660457" lon="11.84531101025641">
        <ele>1757.9100000000001</ele>
        <time>2017-07-08T06:48:47Z</time>
      </trkpt>
      <trkpt lat="46.081257630139589" lon="11.845344202592969">
        <ele>1759.3499999999999</ele>
        <time>2017-07-08T06:48:51Z</time>
      </trkpt>
      <trkpt lat="46.081248912960291" lon="11.845362223684788">
        <ele>1760.3099999999999</ele>
        <time>2017-07-08T06:49:02Z</time>
      </trkpt>
      <trkpt lat="46.081241872161627" lon="11.845363732427359">
        <ele>1760.79</ele>
        <time>2017-07-08T06:49:19Z</time>
      </trkpt>
      <trkpt lat="46.081240111961961" lon="11.845305394381285">
        <ele>1759.3499999999999</ele>
        <time>2017-07-08T06:49:34Z</time>
      </trkpt>
      <trkpt lat="46.081211278215051" lon="11.845268933102489">
        <ele>1757.4300000000001</ele>
        <time>2017-07-08T06:49:41Z</time>
      </trkpt>
      <trkpt lat="46.081219324842095" lon="11.845234651118517">
        <ele>1755.99</ele>
        <time>2017-07-08T06:49:50Z</time>
      </trkpt>
      <trkpt lat="46.081233322620392" lon="11.845254180952907">
        <ele>1755.99</ele>
        <time>2017-07-08T06:50:02Z</time>
      </trkpt>
      <trkpt lat="46.081234328448772" lon="11.845251750200987">
        <ele>1755.99</ele>
        <time>2017-07-08T06:50:12Z</time>
      </trkpt>
      <trkpt lat="46.081242207437754" lon="11.845207158476114">
        <ele>1755.5</ele>
        <time>2017-07-08T06:50:26Z</time>
      </trkpt>
      <trkpt lat="46.081275148317218" lon="11.845178492367268">
        <ele>1754.0599999999999</ele>
        <time>2017-07-08T06:50:35Z</time>
      </trkpt>
      <trkpt lat="46.081272047013044" lon="11.845129206776619">
        <ele>1752.1400000000001</ele>
        <time>2017-07-08T06:50:46Z</time>
      </trkpt>
      <trkpt lat="46.081324350088835" lon="11.845053434371948">
        <ele>1750.7</ele>
        <time>2017-07-08T06:50:56Z</time>
      </trkpt>
      <trkpt lat="46.08137690462172" lon="11.844966765493155">
        <ele>1747.3299999999999</ele>
        <time>2017-07-08T06:51:06Z</time>
      </trkpt>
      <trkpt lat="46.081413449719548" lon="11.844885628670454">
        <ele>1745.8900000000001</ele>
        <time>2017-07-08T06:51:16Z</time>
      </trkpt>
      <trkpt lat="46.081438679248095" lon="11.844822932034731">
        <ele>1743.97</ele>
        <time>2017-07-08T06:51:26Z</time>
      </trkpt>
      <trkpt lat="46.081464746966958" lon="11.844787560403347">
        <ele>1743.01</ele>
        <time>2017-07-08T06:51:37Z</time>
      </trkpt>
      <trkpt lat="46.081442283466458" lon="11.844765264540911">
        <ele>1741.0799999999999</ele>
        <time>2017-07-08T06:51:46Z</time>
      </trkpt>
      <trkpt lat="46.081480756402016" lon="11.844726791605353">
        <ele>1739.1600000000001</ele>
        <time>2017-07-08T06:51:53Z</time>
      </trkpt>
      <trkpt lat="46.081546135246754" lon="11.844641631469131">
        <ele>1737.24</ele>
        <time>2017-07-08T06:52:04Z</time>
      </trkpt>
      <trkpt lat="46.081561390310526" lon="11.844577174633741">
        <ele>1735.3199999999999</ele>
        <time>2017-07-08T06:52:14Z</time>
      </trkpt>
      <trkpt lat="46.081522414460778" lon="11.844580862671137">
        <ele>1733.8800000000001</ele>
        <time>2017-07-08T06:52:20Z</time>
      </trkpt>
      <trkpt lat="46.081393333151937" lon="11.844619670882821">
        <ele>1730.99</ele>
        <time>2017-07-08T06:52:34Z</time>
      </trkpt>
      <trkpt lat="46.081307670101523" lon="11.844654539600015">
        <ele>1729.0699999999999</ele>
        <time>2017-07-08T06:52:47Z</time>
      </trkpt>
      <trkpt lat="46.081238435581326" lon="11.844643307849765">
        <ele>1727.1500000000001</ele>
        <time>2017-07-08T06:52:58Z</time>
      </trkpt>
      <trkpt lat="46.081194598227739" lon="11.844623610377312">
        <ele>1725.7</ele>
        <time>2017-07-08T06:53:06Z</time>
      </trkpt>
      <trkpt lat="46.081152772530913" lon="11.844570385292172">
        <ele>1724.26</ele>
        <time>2017-07-08T06:53:13Z</time>
      </trkpt>
      <trkpt lat="46.081211613491178" lon="11.84450232423842">
        <ele>1722.3399999999999</ele>
        <time>2017-07-08T06:53:22Z</time>
      </trkpt>
      <trkpt lat="46.081243464723229" lon="11.844436107203364">
        <ele>1720.4200000000001</ele>
        <time>2017-07-08T06:53:32Z</time>
      </trkpt>
      <trkpt lat="46.081302976235747" lon="11.844339547678828">
        <ele>1718.01</ele>
        <time>2017-07-08T06:53:45Z</time>
      </trkpt>
      <trkpt lat="46.081358380615711" lon="11.844255477190018">
        <ele>1715.6099999999999</ele>
        <time>2017-07-08T06:53:56Z</time>
      </trkpt>
      <trkpt lat="46.081400541588664" lon="11.844182722270489">
        <ele>1713.21</ele>
        <time>2017-07-08T06:54:06Z</time>
      </trkpt>
      <trkpt lat="46.08143406920135" lon="11.844121450558305">
        <ele>1710.8</ele>
        <time>2017-07-08T06:54:16Z</time>
      </trkpt>
      <trkpt lat="46.08146290294826" lon="11.844034697860479">
        <ele>1708.4000000000001</ele>
        <time>2017-07-08T06:54:26Z</time>
      </trkpt>
      <trkpt lat="46.081515289843082" lon="11.844008546322584">
        <ele>1707.9200000000001</ele>
        <time>2017-07-08T06:54:37Z</time>
      </trkpt>
      <trkpt lat="46.081523587927222" lon="11.843955907970667">
        <ele>1706</ele>
        <time>2017-07-08T06:54:43Z</time>
      </trkpt>
      <trkpt lat="46.081561893224716" lon="11.843919111415744">
        <ele>1705.04</ele>
        <time>2017-07-08T06:54:49Z</time>
      </trkpt>
      <trkpt lat="46.081601623445749" lon="11.843859013170004">
        <ele>1703.5899999999999</ele>
        <time>2017-07-08T06:54:58Z</time>
      </trkpt>
      <trkpt lat="46.081624841317534" lon="11.8437694106251">
        <ele>1701.1900000000001</ele>
        <time>2017-07-08T06:55:08Z</time>
      </trkpt>
      <trkpt lat="46.081694411113858" lon="11.843703864142299">
        <ele>1699.27</ele>
        <time>2017-07-08T06:55:18Z</time>
      </trkpt>
      <trkpt lat="46.081733470782638" lon="11.84364091604948">
        <ele>1697.3399999999999</ele>
        <time>2017-07-08T06:55:27Z</time>
      </trkpt>
      <trkpt lat="46.081773117184639" lon="11.843551816418767">
        <ele>1694.9400000000001</ele>
        <time>2017-07-08T06:55:37Z</time>
      </trkpt>
      <trkpt lat="46.081800861284137" lon="11.843531196936965">
        <ele>1693.98</ele>
        <time>2017-07-08T06:55:41Z</time>
      </trkpt>
      <trkpt lat="46.081821313127875" lon="11.843520049005747">
        <ele>1693.5</ele>
        <time>2017-07-08T06:55:45Z</time>
      </trkpt>
      <trkpt lat="46.081807482987642" lon="11.843499261885881">
        <ele>1692.0599999999999</ele>
        <time>2017-07-08T06:55:55Z</time>
      </trkpt>
      <trkpt lat="46.081696087494493" lon="11.843581739813089">
        <ele>1690.6199999999999</ele>
        <time>2017-07-08T06:56:07Z</time>
      </trkpt>
      <trkpt lat="46.081573879346251" lon="11.84363504871726">
        <ele>1689.6500000000001</ele>
        <time>2017-07-08T06:56:19Z</time>
      </trkpt>
      <trkpt lat="46.081441529095173" lon="11.843649633228779">
        <ele>1687.73</ele>
        <time>2017-07-08T06:56:31Z</time>
      </trkpt>
      <trkpt lat="46.081335917115211" lon="11.843705289065838">
        <ele>1685.8099999999999</ele>
        <time>2017-07-08T06:56:42Z</time>
      </trkpt>
      <trkpt lat="46.081314375624061" lon="11.84371811337769">
        <ele>1685.8099999999999</ele>
        <time>2017-07-08T06:56:44Z</time>
      </trkpt>
      <trkpt lat="46.081160316243768" lon="11.843784749507904">
        <ele>1683.8900000000001</ele>
        <time>2017-07-08T06:56:58Z</time>
      </trkpt>
      <trkpt lat="46.081046154722571" lon="11.843701768666506">
        <ele>1683.4100000000001</ele>
        <time>2017-07-08T06:57:08Z</time>
      </trkpt>
      <trkpt lat="46.080938531085849" lon="11.843755831941962">
        <ele>1681.96</ele>
        <time>2017-07-08T06:57:20Z</time>
      </trkpt>
      <trkpt lat="46.080860076472163" lon="11.843850882723927">
        <ele>1681</ele>
        <time>2017-07-08T06:57:31Z</time>
      </trkpt>
      <trkpt lat="46.080818250775337" lon="11.843902263790369">
        <ele>1680.52</ele>
        <time>2017-07-08T06:57:35Z</time>
      </trkpt>
      <trkpt lat="46.080661425366998" lon="11.84404500760138">
        <ele>1679.0799999999999</ele>
        <time>2017-07-08T06:57:51Z</time>
      </trkpt>
      <trkpt lat="46.080486914142966" lon="11.844143411144614">
        <ele>1677.6400000000001</ele>
        <time>2017-07-08T06:58:06Z</time>
      </trkpt>
      <trkpt lat="46.080347103998065" lon="11.844186075031757">
        <ele>1677.1600000000001</ele>
        <time>2017-07-08T06:58:18Z</time>
      </trkpt>
      <trkpt lat="46.080188099294901" lon="11.844185991212726">
        <ele>1676.2</ele>
        <time>2017-07-08T06:58:30Z</time>
      </trkpt>
      <trkpt lat="46.079994225874543" lon="11.844143243506551">
        <ele>1674.75</ele>
        <time>2017-07-08T06:58:46Z</time>
      </trkpt>
      <trkpt lat="46.079831114038825" lon="11.844110218808055">
        <ele>1672.8299999999999</ele>
        <time>2017-07-08T06:58:59Z</time>
      </trkpt>
      <trkpt lat="46.079712593927979" lon="11.843965882435441">
        <ele>1670.9100000000001</ele>
        <time>2017-07-08T06:59:11Z</time>
      </trkpt>
      <trkpt lat="46.07966423034668" lon="11.843737978488207">
        <ele>1670.4300000000001</ele>
        <time>2017-07-08T06:59:25Z</time>
      </trkpt>
      <trkpt lat="46.07959876768291" lon="11.843593893572688">
        <ele>1668.51</ele>
        <time>2017-07-08T06:59:36Z</time>
      </trkpt>
      <trkpt lat="46.07955627143383" lon="11.84355441480875">
        <ele>1668.02</ele>
        <time>2017-07-08T06:59:40Z</time>
      </trkpt>
      <trkpt lat="46.07942970469594" lon="11.843402199447155">
        <ele>1665.6199999999999</ele>
        <time>2017-07-08T06:59:55Z</time>
      </trkpt>
      <trkpt lat="46.079419227316976" lon="11.843399098142982">
        <ele>1665.6199999999999</ele>
        <time>2017-07-08T06:59:56Z</time>
      </trkpt>
      <trkpt lat="46.079327277839184" lon="11.843306142836809">
        <ele>1664.6600000000001</ele>
        <time>2017-07-08T07:00:06Z</time>
      </trkpt>
      <trkpt lat="46.079241447150707" lon="11.84315518476069">
        <ele>1663.22</ele>
        <time>2017-07-08T07:00:17Z</time>
      </trkpt>
      <trkpt lat="46.079150503501296" lon="11.843067007139325">
        <ele>1662.26</ele>
        <time>2017-07-08T07:00:27Z</time>
      </trkpt>
      <trkpt lat="46.0789879783988" lon="11.843108413740993">
        <ele>1661.3</ele>
        <time>2017-07-08T07:00:40Z</time>
      </trkpt>
      <trkpt lat="46.078957719728351" lon="11.843116376549006">
        <ele>1661.3</ele>
        <time>2017-07-08T07:00:43Z</time>
      </trkpt>
      <trkpt lat="46.078904578462243" lon="11.843049237504601">
        <ele>1660.3299999999999</ele>
        <time>2017-07-08T07:00:48Z</time>
      </trkpt>
      <trkpt lat="46.078866356983781" lon="11.842816974967718">
        <ele>1659.3699999999999</ele>
        <time>2017-07-08T07:01:02Z</time>
      </trkpt>
      <trkpt lat="46.078809108585119" lon="11.842635087668896">
        <ele>1656.49</ele>
        <time>2017-07-08T07:01:15Z</time>
      </trkpt>
      <trkpt lat="46.078795278444886" lon="11.842630477622151">
        <ele>1655.53</ele>
        <time>2017-07-08T07:01:16Z</time>
      </trkpt>
      <trkpt lat="46.078739371150732" lon="11.842617820948362">
        <ele>1656.49</ele>
        <time>2017-07-08T07:01:21Z</time>
      </trkpt>
      <trkpt lat="46.07868212275207" lon="11.842629052698612">
        <ele>1656.97</ele>
        <time>2017-07-08T07:01:26Z</time>
      </trkpt>
      <trkpt lat="46.078660413622856" lon="11.842635422945023">
        <ele>1656.01</ele>
        <time>2017-07-08T07:01:28Z</time>
      </trkpt>
      <trkpt lat="46.078486992046237" lon="11.842596447095275">
        <ele>1653.5999999999999</ele>
        <time>2017-07-08T07:01:44Z</time>
      </trkpt>
      <trkpt lat="46.0783351957798" lon="11.842488152906299">
        <ele>1652.1600000000001</ele>
        <time>2017-07-08T07:01:57Z</time>
      </trkpt>
      <trkpt lat="46.078159008175135" lon="11.842391090467572">
        <ele>1649.76</ele>
        <time>2017-07-08T07:02:13Z</time>
      </trkpt>
      <trkpt lat="46.07801123522222" lon="11.842281371355057">
        <ele>1648.3199999999999</ele>
        <time>2017-07-08T07:02:28Z</time>
      </trkpt>
      <trkpt lat="46.077984664589167" lon="11.842189840972424">
        <ele>1647.8399999999999</ele>
        <time>2017-07-08T07:02:39Z</time>
      </trkpt>
      <trkpt lat="46.077994639053941" lon="11.842168467119336">
        <ele>1647.8399999999999</ele>
        <time>2017-07-08T07:02:52Z</time>
      </trkpt>
      <trkpt lat="46.077993381768465" lon="11.842179112136364">
        <ele>1647.3599999999999</ele>
        <time>2017-07-08T07:03:06Z</time>
      </trkpt>
      <trkpt lat="46.078012743964791" lon="11.842196462675929">
        <ele>1647.8399999999999</ele>
        <time>2017-07-08T07:03:23Z</time>
      </trkpt>
      <trkpt lat="46.078012576326728" lon="11.842157319188118">
        <ele>1647.3599999999999</ele>
        <time>2017-07-08T07:03:39Z</time>
      </trkpt>
      <trkpt lat="46.078010816127062" lon="11.84217450208962">
        <ele>1647.3599999999999</ele>
        <time>2017-07-08T07:03:57Z</time>
      </trkpt>
      <trkpt lat="46.078000590205193" lon="11.842167042195797">
        <ele>1647.3599999999999</ele>
        <time>2017-07-08T07:04:22Z</time>
      </trkpt>
      <trkpt lat="46.078035794198513" lon="11.842171987518668">
        <ele>1647.3599999999999</ele>
        <time>2017-07-08T07:04:46Z</time>
      </trkpt>
      <trkpt lat="46.078034956008196" lon="11.842151787132025">
        <ele>1646.8800000000001</ele>
        <time>2017-07-08T07:05:06Z</time>
      </trkpt>
      <trkpt lat="46.078026993200183" lon="11.84213544242084">
        <ele>1647.3599999999999</ele>
        <time>2017-07-08T07:05:19Z</time>
      </trkpt>
      <trkpt lat="46.078002182766795" lon="11.84211834333837">
        <ele>1647.3599999999999</ele>
        <time>2017-07-08T07:05:39Z</time>
      </trkpt>
      <trkpt lat="46.078003523871303" lon="11.842125467956066">
        <ele>1647.3599999999999</ele>
        <time>2017-07-08T07:05:56Z</time>
      </trkpt>
      <trkpt lat="46.07800243422389" lon="11.842119013890624">
        <ele>1647.3599999999999</ele>
        <time>2017-07-08T07:06:10Z</time>
      </trkpt>
      <trkpt lat="46.07800142839551" lon="11.842139465734363">
        <ele>1646.8800000000001</ele>
        <time>2017-07-08T07:06:24Z</time>
      </trkpt>
      <trkpt lat="46.077989609912038" lon="11.842156983911991">
        <ele>1646.8800000000001</ele>
        <time>2017-07-08T07:06:39Z</time>
      </trkpt>
      <trkpt lat="46.077974773943424" lon="11.842184644192457">
        <ele>1646.8800000000001</ele>
        <time>2017-07-08T07:06:57Z</time>
      </trkpt>
      <trkpt lat="46.077973935753107" lon="11.842198641970754">
        <ele>1646.8800000000001</ele>
        <time>2017-07-08T07:07:16Z</time>
      </trkpt>
      <trkpt lat="46.077978545799851" lon="11.842160755768418">
        <ele>1646.8800000000001</ele>
        <time>2017-07-08T07:07:36Z</time>
      </trkpt>
      <trkpt lat="46.077961949631572" lon="11.842177100479603">
        <ele>1646.8800000000001</ele>
        <time>2017-07-08T07:07:51Z</time>
      </trkpt>
      <trkpt lat="46.077966140583158" lon="11.842143153771758">
        <ele>1646.8800000000001</ele>
        <time>2017-07-08T07:08:09Z</time>
      </trkpt>
      <trkpt lat="46.07800142839551" lon="11.842082217335701">
        <ele>1645.4300000000001</ele>
        <time>2017-07-08T07:08:19Z</time>
      </trkpt>
      <trkpt lat="46.078057335689664" lon="11.842084480449557">
        <ele>1644.47</ele>
        <time>2017-07-08T07:08:27Z</time>
      </trkpt>
      <trkpt lat="46.078141909092665" lon="11.842124294489622">
        <ele>1643.03</ele>
        <time>2017-07-08T07:08:37Z</time>
      </trkpt>
      <trkpt lat="46.078215418383479" lon="11.842123288661242">
        <ele>1642.0699999999999</ele>
        <time>2017-07-08T07:08:47Z</time>
      </trkpt>
      <trkpt lat="46.078262943774462" lon="11.842093532904983">
        <ele>1641.1099999999999</ele>
        <time>2017-07-08T07:08:53Z</time>
      </trkpt>
      <trkpt lat="46.078345002606511" lon="11.842063441872597">
        <ele>1639.6700000000001</ele>
        <time>2017-07-08T07:09:04Z</time>
      </trkpt>
      <trkpt lat="46.078369058668613" lon="11.842065704986453">
        <ele>1639.1900000000001</ele>
        <time>2017-07-08T07:09:07Z</time>
      </trkpt>
      <trkpt lat="46.078447513282299" lon="11.842082301154733">
        <ele>1637.74</ele>
        <time>2017-07-08T07:09:18Z</time>
      </trkpt>
      <trkpt lat="46.078549018129706" lon="11.842112559825182">
        <ele>1636.78</ele>
        <time>2017-07-08T07:09:29Z</time>
      </trkpt>
      <trkpt lat="46.078633675351739" lon="11.842113398015499">
        <ele>1635.8199999999999</ele>
        <time>2017-07-08T07:09:39Z</time>
      </trkpt>
      <trkpt lat="46.07871824875474" lon="11.842059753835201">
        <ele>1634.8599999999999</ele>
        <time>2017-07-08T07:09:51Z</time>
      </trkpt>
      <trkpt lat="46.078676758334041" lon="11.842026561498642">
        <ele>1632.46</ele>
        <time>2017-07-08T07:10:03Z</time>
      </trkpt>
      <trkpt lat="46.078613391146064" lon="11.8419976439327">
        <ele>1630.53</ele>
        <time>2017-07-08T07:10:14Z</time>
      </trkpt>
      <trkpt lat="46.078590340912342" lon="11.841971073299646">
        <ele>1630.05</ele>
        <time>2017-07-08T07:10:17Z</time>
      </trkpt>
      <trkpt lat="46.078510461375117" lon="11.841856073588133">
        <ele>1628.6099999999999</ele>
        <time>2017-07-08T07:10:30Z</time>
      </trkpt>
      <trkpt lat="46.078406358137727" lon="11.841745767742395">
        <ele>1627.1700000000001</ele>
        <time>2017-07-08T07:10:44Z</time>
      </trkpt>
      <trkpt lat="46.078336285427213" lon="11.841658176854253">
        <ele>1625.73</ele>
        <time>2017-07-08T07:10:55Z</time>
      </trkpt>
      <trkpt lat="46.078234110027552" lon="11.841566897928715">
        <ele>1625.25</ele>
        <time>2017-07-08T07:11:05Z</time>
      </trkpt>
      <trkpt lat="46.078151213005185" lon="11.841422058641911">
        <ele>1624.77</ele>
        <time>2017-07-08T07:11:17Z</time>
      </trkpt>
      <trkpt lat="46.078101675957441" lon="11.841310495510697">
        <ele>1626.21</ele>
        <time>2017-07-08T07:11:27Z</time>
      </trkpt>
      <trkpt lat="46.078066052868962" lon="11.841167416423559">
        <ele>1626.6900000000001</ele>
        <time>2017-07-08T07:11:38Z</time>
      </trkpt>
      <trkpt lat="46.078025065362453" lon="11.84097102843225">
        <ele>1625.25</ele>
        <time>2017-07-08T07:11:51Z</time>
      </trkpt>
      <trkpt lat="46.078031687065959" lon="11.84095585718751">
        <ele>1625.25</ele>
        <time>2017-07-08T07:11:52Z</time>
      </trkpt>
      <trkpt lat="46.078065633773804" lon="11.840815376490355">
        <ele>1622.8399999999999</ele>
        <time>2017-07-08T07:12:04Z</time>
      </trkpt>
      <trkpt lat="46.078032273799181" lon="11.840741448104382">
        <ele>1620.9200000000001</ele>
        <time>2017-07-08T07:12:13Z</time>
      </trkpt>
      <trkpt lat="46.077933451160789" lon="11.840666849166155">
        <ele>1619.48</ele>
        <time>2017-07-08T07:12:26Z</time>
      </trkpt>
      <trkpt lat="46.077894642949104" lon="11.84069249778986">
        <ele>1617.5599999999999</ele>
        <time>2017-07-08T07:12:35Z</time>
      </trkpt>
      <trkpt lat="46.077855164185166" lon="11.840735329315066">
        <ele>1615.6300000000001</ele>
        <time>2017-07-08T07:12:43Z</time>
      </trkpt>
      <trkpt lat="46.077755838632584" lon="11.840830715373158">
        <ele>1613.71</ele>
        <time>2017-07-08T07:12:54Z</time>
      </trkpt>
      <trkpt lat="46.077704038470984" lon="11.840926436707377">
        <ele>1612.27</ele>
        <time>2017-07-08T07:13:05Z</time>
      </trkpt>
      <trkpt lat="46.077663470059633" lon="11.84103699401021">
        <ele>1610.8299999999999</ele>
        <time>2017-07-08T07:13:16Z</time>
      </trkpt>
      <trkpt lat="46.077590882778168" lon="11.841173199936748">
        <ele>1608.4200000000001</ele>
        <time>2017-07-08T07:13:26Z</time>
      </trkpt>
      <trkpt lat="46.077527012676001" lon="11.841237740591168">
        <ele>1606.98</ele>
        <time>2017-07-08T07:13:34Z</time>
      </trkpt>
      <trkpt lat="46.077508991584182" lon="11.841250229626894">
        <ele>1606.02</ele>
        <time>2017-07-08T07:13:36Z</time>
      </trkpt>
      <trkpt lat="46.077436320483685" lon="11.841305131092668">
        <ele>1604.0999999999999</ele>
        <time>2017-07-08T07:13:48Z</time>
      </trkpt>
      <trkpt lat="46.077353255823255" lon="11.841320637613535">
        <ele>1601.6900000000001</ele>
        <time>2017-07-08T07:14:00Z</time>
      </trkpt>
      <trkpt lat="46.077275555580854" lon="11.841353913769126">
        <ele>1599.77</ele>
        <time>2017-07-08T07:14:12Z</time>
      </trkpt>
      <trkpt lat="46.077206237241626" lon="11.841354668140411">
        <ele>1597.8499999999999</ele>
        <time>2017-07-08T07:14:23Z</time>
      </trkpt>
      <trkpt lat="46.077121328562498" lon="11.841320218518376">
        <ele>1595.45</ele>
        <time>2017-07-08T07:14:33Z</time>
      </trkpt>
      <trkpt lat="46.077027870342135" lon="11.841346705332398">
        <ele>1593.52</ele>
        <time>2017-07-08T07:14:44Z</time>
      </trkpt>
      <trkpt lat="46.076987637206912" lon="11.841401187703013">
        <ele>1592.5599999999999</ele>
        <time>2017-07-08T07:14:54Z</time>
      </trkpt>
      <trkpt lat="46.076951259747148" lon="11.841417951509356">
        <ele>1591.1199999999999</ele>
        <time>2017-07-08T07:15:04Z</time>
      </trkpt>
      <trkpt lat="46.076888311654329" lon="11.841478887945414">
        <ele>1589.2</ele>
        <time>2017-07-08T07:15:15Z</time>
      </trkpt>
      <trkpt lat="46.076813293620944" lon="11.84152758680284">
        <ele>1588.24</ele>
        <time>2017-07-08T07:15:24Z</time>
      </trkpt>
      <trkpt lat="46.076744478195906" lon="11.841461872681975">
        <ele>1586.79</ele>
        <time>2017-07-08T07:15:35Z</time>
      </trkpt>
      <trkpt lat="46.076666191220284" lon="11.84133849106729">
        <ele>1584.8699999999999</ele>
        <time>2017-07-08T07:15:45Z</time>
      </trkpt>
      <trkpt lat="46.076547922566533" lon="11.841240087524056">
        <ele>1583.9100000000001</ele>
        <time>2017-07-08T07:15:57Z</time>
      </trkpt>
      <trkpt lat="46.076437784358859" lon="11.841113520786166">
        <ele>1581.99</ele>
        <time>2017-07-08T07:16:08Z</time>
      </trkpt>
      <trkpt lat="46.076365616172552" lon="11.841007573530078">
        <ele>1580.0599999999999</ele>
        <time>2017-07-08T07:16:18Z</time>
      </trkpt>
      <trkpt lat="46.076289005577564" lon="11.840894417837262">
        <ele>1578.1400000000001</ele>
        <time>2017-07-08T07:16:29Z</time>
      </trkpt>
      <trkpt lat="46.07619890011847" lon="11.840840857475996">
        <ele>1576.7</ele>
        <time>2017-07-08T07:16:40Z</time>
      </trkpt>
      <trkpt lat="46.076102089136839" lon="11.840787380933762">
        <ele>1574.78</ele>
        <time>2017-07-08T07:16:51Z</time>
      </trkpt>
      <trkpt lat="46.076012654229999" lon="11.840660814195871">
        <ele>1572.3699999999999</ele>
        <time>2017-07-08T07:17:02Z</time>
      </trkpt>
      <trkpt lat="46.075976947322488" lon="11.8405747320503">
        <ele>1570.9300000000001</ele>
        <time>2017-07-08T07:17:10Z</time>
      </trkpt>
      <trkpt lat="46.075880220159888" lon="11.840451182797551">
        <ele>1568.53</ele>
        <time>2017-07-08T07:17:24Z</time>
      </trkpt>
      <trkpt lat="46.075833113864064" lon="11.840413296595216">
        <ele>1568.05</ele>
        <time>2017-07-08T07:17:29Z</time>
      </trkpt>
      <trkpt lat="46.075766226276755" lon="11.840304164215922">
        <ele>1566.1199999999999</ele>
        <time>2017-07-08T07:17:40Z</time>
      </trkpt>
      <trkpt lat="46.075683748349547" lon="11.840158151462674">
        <ele>1564.6800000000001</ele>
        <time>2017-07-08T07:17:52Z</time>
      </trkpt>
      <trkpt lat="46.075629768893123" lon="11.840047594159842">
        <ele>1563.24</ele>
        <time>2017-07-08T07:18:03Z</time>
      </trkpt>
      <trkpt lat="46.075610825791955" lon="11.840005097910762">
        <ele>1562.76</ele>
        <time>2017-07-08T07:18:06Z</time>
      </trkpt>
      <trkpt lat="46.075532957911491" lon="11.839926140382886">
        <ele>1561.8</ele>
        <time>2017-07-08T07:18:16Z</time>
      </trkpt>
      <trkpt lat="46.075452575460076" lon="11.839837627485394">
        <ele>1560.8399999999999</ele>
        <time>2017-07-08T07:18:28Z</time>
      </trkpt>
      <trkpt lat="46.075419131666422" lon="11.839804518967867">
        <ele>1559.4000000000001</ele>
        <time>2017-07-08T07:18:38Z</time>
      </trkpt>
      <trkpt lat="46.075355848297477" lon="11.839772667735815">
        <ele>1556.99</ele>
        <time>2017-07-08T07:18:46Z</time>
      </trkpt>
      <trkpt lat="46.07535014860332" lon="11.839773338288069">
        <ele>1556.99</ele>
        <time>2017-07-08T07:18:47Z</time>
      </trkpt>
      <trkpt lat="46.075311508029699" lon="11.839759172871709">
        <ele>1558.4300000000001</ele>
        <time>2017-07-08T07:18:52Z</time>
      </trkpt>
      <trkpt lat="46.075179912149906" lon="11.839632354676723">
        <ele>1557.47</ele>
        <time>2017-07-08T07:19:04Z</time>
      </trkpt>
      <trkpt lat="46.07515174895525" lon="11.839557839557528">
        <ele>1556.51</ele>
        <time>2017-07-08T07:19:10Z</time>
      </trkpt>
      <trkpt lat="46.075042281299829" lon="11.839448623359203">
        <ele>1554.5899999999999</ele>
        <time>2017-07-08T07:19:22Z</time>
      </trkpt>
      <trkpt lat="46.074921749532223" lon="11.839338401332498">
        <ele>1552.6700000000001</ele>
        <time>2017-07-08T07:19:35Z</time>
      </trkpt>
      <trkpt lat="46.074868105351925" lon="11.83926279656589">
        <ele>1550.74</ele>
        <time>2017-07-08T07:19:46Z</time>
      </trkpt>
      <trkpt lat="46.074856705963612" lon="11.839139750227332">
        <ele>1548.3399999999999</ele>
        <time>2017-07-08T07:19:57Z</time>
      </trkpt>
      <trkpt lat="46.074830889701843" lon="11.839046543464065">
        <ele>1547.3800000000001</ele>
        <time>2017-07-08T07:20:03Z</time>
      </trkpt>
      <trkpt lat="46.074752015992999" lon="11.838876474648714">
        <ele>1544.98</ele>
        <time>2017-07-08T07:20:17Z</time>
      </trkpt>
      <trkpt lat="46.074710190296173" lon="11.838762480765581">
        <ele>1543.53</ele>
        <time>2017-07-08T07:20:28Z</time>
      </trkpt>
      <trkpt lat="46.074688564985991" lon="11.838649157434702">
        <ele>1541.6099999999999</ele>
        <time>2017-07-08T07:20:40Z</time>
      </trkpt>
      <trkpt lat="46.074679177254438" lon="11.838588640093803">
        <ele>1540.6500000000001</ele>
        <time>2017-07-08T07:20:54Z</time>
      </trkpt>
      <trkpt lat="46.074665933847427" lon="11.838508006185293">
        <ele>1538.73</ele>
        <time>2017-07-08T07:21:05Z</time>
      </trkpt>
      <trkpt lat="46.074649756774306" lon="11.838419744744897">
        <ele>1537.77</ele>
        <time>2017-07-08T07:21:14Z</time>
      </trkpt>
      <trkpt lat="46.074636094272137" lon="11.83836568146944">
        <ele>1536.3199999999999</ele>
        <time>2017-07-08T07:21:25Z</time>
      </trkpt>
      <trkpt lat="46.074607260525227" lon="11.838318658992648">
        <ele>1536.3199999999999</ele>
        <time>2017-07-08T07:21:35Z</time>
      </trkpt>
      <trkpt lat="46.074583288282156" lon="11.838203324005008">
        <ele>1533.4400000000001</ele>
        <time>2017-07-08T07:21:46Z</time>
      </trkpt>
      <trkpt lat="46.074554957449436" lon="11.838075835257769">
        <ele>1531.52</ele>
        <time>2017-07-08T07:21:59Z</time>
      </trkpt>
      <trkpt lat="46.074541211128235" lon="11.838000565767288">
        <ele>1530.0799999999999</ele>
        <time>2017-07-08T07:22:06Z</time>
      </trkpt>
      <trkpt lat="46.07454146258533" lon="11.837974917143583">
        <ele>1529.5899999999999</ele>
        <time>2017-07-08T07:22:09Z</time>
      </trkpt>
      <trkpt lat="46.074522687122226" lon="11.837866203859448">
        <ele>1528.1500000000001</ele>
        <time>2017-07-08T07:22:17Z</time>
      </trkpt>
      <trkpt lat="46.074484549462795" lon="11.837730836123228">
        <ele>1527.1900000000001</ele>
        <time>2017-07-08T07:22:27Z</time>
      </trkpt>
      <trkpt lat="46.074472479522228" lon="11.837670234963298">
        <ele>1526.23</ele>
        <time>2017-07-08T07:22:34Z</time>
      </trkpt>
      <trkpt lat="46.074435850605369" lon="11.837560515850782">
        <ele>1523.3499999999999</ele>
        <time>2017-07-08T07:22:45Z</time>
      </trkpt>
      <trkpt lat="46.074403747916222" lon="11.837482480332255">
        <ele>1521.4200000000001</ele>
        <time>2017-07-08T07:22:55Z</time>
      </trkpt>
      <trkpt lat="46.074362341314554" lon="11.837333114817739">
        <ele>1519.5</ele>
        <time>2017-07-08T07:23:05Z</time>
      </trkpt>
      <trkpt lat="46.074328813701868" lon="11.837176121771336">
        <ele>1517.0999999999999</ele>
        <time>2017-07-08T07:23:18Z</time>
      </trkpt>
      <trkpt lat="46.074304422363639" lon="11.837022732943296">
        <ele>1515.1800000000001</ele>
        <time>2017-07-08T07:23:29Z</time>
      </trkpt>
      <trkpt lat="46.074271816760302" lon="11.836884682998061">
        <ele>1513.25</ele>
        <time>2017-07-08T07:23:40Z</time>
      </trkpt>
      <trkpt lat="46.074258824810386" lon="11.836814358830452">
        <ele>1512.77</ele>
        <time>2017-07-08T07:23:51Z</time>
      </trkpt>
      <trkpt lat="46.0742511972785" lon="11.836792230606079">
        <ele>1512.77</ele>
        <time>2017-07-08T07:24:09Z</time>
      </trkpt>
      <trkpt lat="46.074305009096861" lon="11.836780831217766">
        <ele>1511.8099999999999</ele>
        <time>2017-07-08T07:24:23Z</time>
      </trkpt>
      <trkpt lat="46.074252454563975" lon="11.836842689663172">
        <ele>1512.77</ele>
        <time>2017-07-08T07:24:34Z</time>
      </trkpt>
      <trkpt lat="46.074266619980335" lon="11.836812179535627">
        <ele>1512.77</ele>
        <time>2017-07-08T07:24:53Z</time>
      </trkpt>
      <trkpt lat="46.07423703186214" lon="11.836777394637465">
        <ele>1512.29</ele>
        <time>2017-07-08T07:25:12Z</time>
      </trkpt>
      <trkpt lat="46.074239630252123" lon="11.836790973320603">
        <ele>1512.77</ele>
        <time>2017-07-08T07:25:38Z</time>
      </trkpt>
      <trkpt lat="46.07425513677299" lon="11.836802121251822">
        <ele>1512.29</ele>
        <time>2017-07-08T07:25:59Z</time>
      </trkpt>
      <trkpt lat="46.074257818982005" lon="11.836768090724945">
        <ele>1511.8099999999999</ele>
        <time>2017-07-08T07:26:18Z</time>
      </trkpt>
      <trkpt lat="46.074201827868819" lon="11.83664127252996">
        <ele>1510.8499999999999</ele>
        <time>2017-07-08T07:26:30Z</time>
      </trkpt>
      <trkpt lat="46.074178777635098" lon="11.836494002491236">
        <ele>1508.9300000000001</ele>
        <time>2017-07-08T07:26:41Z</time>
      </trkpt>
      <trkpt lat="46.074187913909554" lon="11.836307672783732">
        <ele>1506.04</ele>
        <time>2017-07-08T07:26:55Z</time>
      </trkpt>
      <trkpt lat="46.074192272499204" lon="11.836213292554021">
        <ele>1504.5999999999999</ele>
        <time>2017-07-08T07:27:06Z</time>
      </trkpt>
      <trkpt lat="46.074176179245114" lon="11.836197953671217">
        <ele>1504.1199999999999</ele>
        <time>2017-07-08T07:27:10Z</time>
      </trkpt>
      <trkpt lat="46.074178861454129" lon="11.836119834333658">
        <ele>1502.6800000000001</ele>
        <time>2017-07-08T07:27:19Z</time>
      </trkpt>
      <trkpt lat="46.074191769585013" lon="11.83600852265954">
        <ele>1499.3099999999999</ele>
        <time>2017-07-08T07:27:31Z</time>
      </trkpt>
      <trkpt lat="46.074218507856131" lon="11.835922943428159">
        <ele>1497.3900000000001</ele>
        <time>2017-07-08T07:27:42Z</time>
      </trkpt>
      <trkpt lat="46.074253628030419" lon="11.835804674774408">
        <ele>1496.4300000000001</ele>
        <time>2017-07-08T07:27:53Z</time>
      </trkpt>
      <trkpt lat="46.074263686314225" lon="11.835760166868567">
        <ele>1494.51</ele>
        <time>2017-07-08T07:27:57Z</time>
      </trkpt>
      <trkpt lat="46.074250191450119" lon="11.835656315088272">
        <ele>1492.0999999999999</ele>
        <time>2017-07-08T07:28:09Z</time>
      </trkpt>
      <trkpt lat="46.074285311624408" lon="11.835566628724337">
        <ele>1490.1800000000001</ele>
        <time>2017-07-08T07:28:19Z</time>
      </trkpt>
      <trkpt lat="46.074296124279499" lon="11.835450958460569">
        <ele>1487.3</ele>
        <time>2017-07-08T07:28:31Z</time>
      </trkpt>
      <trkpt lat="46.07428103685379" lon="11.835298491641879">
        <ele>1484.8900000000001</ele>
        <time>2017-07-08T07:28:43Z</time>
      </trkpt>
      <trkpt lat="46.074264692142606" lon="11.835151808336377">
        <ele>1482.01</ele>
        <time>2017-07-08T07:28:55Z</time>
      </trkpt>
      <trkpt lat="46.074240216985345" lon="11.835029516369104">
        <ele>1479.1300000000001</ele>
        <time>2017-07-08T07:29:06Z</time>
      </trkpt>
      <trkpt lat="46.07426343485713" lon="11.834972184151411">
        <ele>1478.6500000000001</ele>
        <time>2017-07-08T07:29:11Z</time>
      </trkpt>
      <trkpt lat="46.074319593608379" lon="11.834841342642903">
        <ele>1475.76</ele>
        <time>2017-07-08T07:29:23Z</time>
      </trkpt>
      <trkpt lat="46.07431523501873" lon="11.834808485582471">
        <ele>1474.8</ele>
        <time>2017-07-08T07:29:26Z</time>
      </trkpt>
      <trkpt lat="46.074303165078163" lon="11.834687702357769">
        <ele>1472.4000000000001</ele>
        <time>2017-07-08T07:29:37Z</time>
      </trkpt>
      <trkpt lat="46.074302913621068" lon="11.834593741223216">
        <ele>1469.99</ele>
        <time>2017-07-08T07:29:48Z</time>
      </trkpt>
      <trkpt lat="46.074287910014391" lon="11.834552334621549">
        <ele>1469.51</ele>
        <time>2017-07-08T07:29:52Z</time>
      </trkpt>
      <trkpt lat="46.074269888922572" lon="11.834518555551767">
        <ele>1468.55</ele>
        <time>2017-07-08T07:29:55Z</time>
      </trkpt>
      <trkpt lat="46.074247257784009" lon="11.83442635461688">
        <ele>1466.1500000000001</ele>
        <time>2017-07-08T07:30:07Z</time>
      </trkpt>
      <trkpt lat="46.074226386845112" lon="11.834343876689672">
        <ele>1464.23</ele>
        <time>2017-07-08T07:30:19Z</time>
      </trkpt>
      <trkpt lat="46.074209455400705" lon="11.834308002144098">
        <ele>1461.8199999999999</ele>
        <time>2017-07-08T07:30:30Z</time>
      </trkpt>
      <trkpt lat="46.074180537834764" lon="11.834367262199521">
        <ele>1460.3800000000001</ele>
        <time>2017-07-08T07:30:41Z</time>
      </trkpt>
      <trkpt lat="46.074137538671494" lon="11.834392994642258">
        <ele>1457.98</ele>
        <time>2017-07-08T07:30:52Z</time>
      </trkpt>
      <trkpt lat="46.074099149554968" lon="11.834324011579156">
        <ele>1456.05</ele>
        <time>2017-07-08T07:31:03Z</time>
      </trkpt>
      <trkpt lat="46.074048271402717" lon="11.834286041557789">
        <ele>1454.1300000000001</ele>
        <time>2017-07-08T07:31:11Z</time>
      </trkpt>
      <trkpt lat="46.074096886441112" lon="11.834199037402868">
        <ele>1451.73</ele>
        <time>2017-07-08T07:31:21Z</time>
      </trkpt>
      <trkpt lat="46.074107196182013" lon="11.834102980792522">
        <ele>1450.29</ele>
        <time>2017-07-08T07:31:31Z</time>
      </trkpt>
      <trkpt lat="46.074117003008723" lon="11.834036344662309">
        <ele>1448.3599999999999</ele>
        <time>2017-07-08T07:31:42Z</time>
      </trkpt>
      <trkpt lat="46.074114572256804" lon="11.83396409265697">
        <ele>1445.96</ele>
        <time>2017-07-08T07:31:52Z</time>
      </trkpt>
      <trkpt lat="46.074147429317236" lon="11.833898881450295">
        <ele>1444.04</ele>
        <time>2017-07-08T07:32:03Z</time>
      </trkpt>
      <trkpt lat="46.07414080761373" lon="11.833837861195207">
        <ele>1442.1099999999999</ele>
        <time>2017-07-08T07:32:14Z</time>
      </trkpt>
      <trkpt lat="46.074124211445451" lon="11.833765860646963">
        <ele>1439.71</ele>
        <time>2017-07-08T07:32:24Z</time>
      </trkpt>
      <trkpt lat="46.074111051857471" lon="11.833692854270339">
        <ele>1437.79</ele>
        <time>2017-07-08T07:32:34Z</time>
      </trkpt>
      <trkpt lat="46.074127145111561" lon="11.833602162078023">
        <ele>1435.8699999999999</ele>
        <time>2017-07-08T07:32:46Z</time>
      </trkpt>
      <trkpt lat="46.074138460680842" lon="11.833567293360829">
        <ele>1434.4200000000001</ele>
        <time>2017-07-08T07:32:55Z</time>
      </trkpt>
      <trkpt lat="46.074162097647786" lon="11.833492442965508">
        <ele>1432.5</ele>
        <time>2017-07-08T07:33:06Z</time>
      </trkpt>
      <trkpt lat="46.074173832312226" lon="11.833386328071356">
        <ele>1429.1400000000001</ele>
        <time>2017-07-08T07:33:18Z</time>
      </trkpt>
      <trkpt lat="46.074152290821075" lon="11.833277614787221">
        <ele>1427.21</ele>
        <time>2017-07-08T07:33:29Z</time>
      </trkpt>
      <trkpt lat="46.07421456836164" lon="11.833202010020614">
        <ele>1424.8099999999999</ele>
        <time>2017-07-08T07:33:41Z</time>
      </trkpt>
      <trkpt lat="46.074190763756633" lon="11.833104360848665">
        <ele>1422.4100000000001</ele>
        <time>2017-07-08T07:33:52Z</time>
      </trkpt>
      <trkpt lat="46.074174167588353" lon="11.832984248176217">
        <ele>1419.52</ele>
        <time>2017-07-08T07:34:04Z</time>
      </trkpt>
      <trkpt lat="46.074192691594362" lon="11.832899423316121">
        <ele>1417.5999999999999</ele>
        <time>2017-07-08T07:34:14Z</time>
      </trkpt>
      <trkpt lat="46.074188835918903" lon="11.832862542942166">
        <ele>1416.6400000000001</ele>
        <time>2017-07-08T07:34:18Z</time>
      </trkpt>
      <trkpt lat="46.074174670502543" lon="11.832728264853358">
        <ele>1414.24</ele>
        <time>2017-07-08T07:34:29Z</time>
      </trkpt>
      <trkpt lat="46.074165618047118" lon="11.832643691450357">
        <ele>1412.3099999999999</ele>
        <time>2017-07-08T07:34:40Z</time>
      </trkpt>
      <trkpt lat="46.074178861454129" lon="11.83257345110178">
        <ele>1410.8699999999999</ele>
        <time>2017-07-08T07:34:49Z</time>
      </trkpt>
      <trkpt lat="46.074171653017402" lon="11.832479573786259">
        <ele>1408.47</ele>
        <time>2017-07-08T07:35:01Z</time>
      </trkpt>
      <trkpt lat="46.074188584461808" lon="11.832404555752873">
        <ele>1406.0699999999999</ele>
        <time>2017-07-08T07:35:12Z</time>
      </trkpt>
      <trkpt lat="46.074182717129588" lon="11.83230665512383">
        <ele>1404.1400000000001</ele>
        <time>2017-07-08T07:35:24Z</time>
      </trkpt>
      <trkpt lat="46.074199061840773" lon="11.832231720909476">
        <ele>1403.1800000000001</ele>
        <time>2017-07-08T07:35:34Z</time>
      </trkpt>
      <trkpt lat="46.074216412380338" lon="11.832107752561569">
        <ele>1401.26</ele>
        <time>2017-07-08T07:35:46Z</time>
      </trkpt>
      <trkpt lat="46.074220854789019" lon="11.832061652094126">
        <ele>1399.8199999999999</ele>
        <time>2017-07-08T07:35:55Z</time>
      </trkpt>
      <trkpt lat="46.074204342439771" lon="11.832040781155229">
        <ele>1399.3399999999999</ele>
        <time>2017-07-08T07:36:05Z</time>
      </trkpt>
      <trkpt lat="46.074169976636767" lon="11.832037176936865">
        <ele>1397.4100000000001</ele>
        <time>2017-07-08T07:36:15Z</time>
      </trkpt>
      <trkpt lat="46.074147680774331" lon="11.832056790590286">
        <ele>1395.49</ele>
        <time>2017-07-08T07:36:24Z</time>
      </trkpt>
      <trkpt lat="46.074107866734266" lon="11.832105489447713">
        <ele>1394.05</ele>
        <time>2017-07-08T07:36:36Z</time>
      </trkpt>
      <trkpt lat="46.074077691882849" lon="11.832098783925176">
        <ele>1392.6099999999999</ele>
        <time>2017-07-08T07:36:43Z</time>
      </trkpt>
      <trkpt lat="46.074031926691532" lon="11.832107584923506">
        <ele>1391.1700000000001</ele>
        <time>2017-07-08T07:36:51Z</time>
      </trkpt>
      <trkpt lat="46.073993286117911" lon="11.832159971818328">
        <ele>1388.76</ele>
        <time>2017-07-08T07:37:01Z</time>
      </trkpt>
      <trkpt lat="46.073939055204391" lon="11.832215124741197">
        <ele>1386.8399999999999</ele>
        <time>2017-07-08T07:37:12Z</time>
      </trkpt>
      <trkpt lat="46.073890775442123" lon="11.83226415887475">
        <ele>1384.9200000000001</ele>
        <time>2017-07-08T07:37:21Z</time>
      </trkpt>
      <trkpt lat="46.073812069371343" lon="11.832335572689772">
        <ele>1382.99</ele>
        <time>2017-07-08T07:37:32Z</time>
      </trkpt>
      <trkpt lat="46.073750546202064" lon="11.832385193556547">
        <ele>1381.55</ele>
        <time>2017-07-08T07:37:42Z</time>
      </trkpt>
      <trkpt lat="46.073701763525605" lon="11.832446213811636">
        <ele>1379.6300000000001</ele>
        <time>2017-07-08T07:37:53Z</time>
      </trkpt>
      <trkpt lat="46.073656585067511" lon="11.832492146641016">
        <ele>1378.1900000000001</ele>
        <time>2017-07-08T07:38:02Z</time>
      </trkpt>
      <trkpt lat="46.073574526235461" lon="11.832558447495103">
        <ele>1375.78</ele>
        <time>2017-07-08T07:38:14Z</time>
      </trkpt>
      <trkpt lat="46.073554074391723" lon="11.832593316212296">
        <ele>1375.3</ele>
        <time>2017-07-08T07:38:18Z</time>
      </trkpt>
      <trkpt lat="46.07345131225884" lon="11.832629526033998">
        <ele>1373.8599999999999</ele>
        <time>2017-07-08T07:38:28Z</time>
      </trkpt>
      <trkpt lat="46.073377802968025" lon="11.83271124958992">
        <ele>1372.4200000000001</ele>
        <time>2017-07-08T07:38:39Z</time>
      </trkpt>
      <trkpt lat="46.07333161868155" lon="11.832727175205946">
        <ele>1371.9400000000001</ele>
        <time>2017-07-08T07:38:44Z</time>
      </trkpt>
      <trkpt lat="46.073232628405094" lon="11.832799343392253">
        <ele>1370.5</ele>
        <time>2017-07-08T07:38:56Z</time>
      </trkpt>
      <trkpt lat="46.073164064437151" lon="11.83286271058023">
        <ele>1369.54</ele>
        <time>2017-07-08T07:39:04Z</time>
      </trkpt>
      <trkpt lat="46.073069516569376" lon="11.832917863503098">
        <ele>1367.6099999999999</ele>
        <time>2017-07-08T07:39:13Z</time>
      </trkpt>
      <trkpt lat="46.07304185628891" lon="11.832976536825299">
        <ele>1366.6500000000001</ele>
        <time>2017-07-08T07:39:19Z</time>
      </trkpt>
      <trkpt lat="46.072963485494256" lon="11.833086591213942">
        <ele>1364.73</ele>
        <time>2017-07-08T07:39:31Z</time>
      </trkpt>
      <trkpt lat="46.072949739173055" lon="11.833097655326128">
        <ele>1364.25</ele>
        <time>2017-07-08T07:39:33Z</time>
      </trkpt>
      <trkpt lat="46.072886707261205" lon="11.833167057484388">
        <ele>1362.3299999999999</ele>
        <time>2017-07-08T07:39:44Z</time>
      </trkpt>
      <trkpt lat="46.072873463854194" lon="11.833185078576207">
        <ele>1361.8399999999999</ele>
        <time>2017-07-08T07:39:46Z</time>
      </trkpt>
      <trkpt lat="46.072774054482579" lon="11.833292450755835">
        <ele>1359.9200000000001</ele>
        <time>2017-07-08T07:39:58Z</time>
      </trkpt>
      <trkpt lat="46.072681685909629" lon="11.833331845700741">
        <ele>1357.52</ele>
        <time>2017-07-08T07:40:07Z</time>
      </trkpt>
      <trkpt lat="46.072636842727661" lon="11.833376856520772">
        <ele>1357.52</ele>
        <time>2017-07-08T07:40:13Z</time>
      </trkpt>
      <trkpt lat="46.072510778903961" lon="11.833433518186212">
        <ele>1355.5999999999999</ele>
        <time>2017-07-08T07:40:24Z</time>
      </trkpt>
      <trkpt lat="46.072489907965064" lon="11.833438379690051">
        <ele>1355.5999999999999</ele>
        <time>2017-07-08T07:40:26Z</time>
      </trkpt>
      <trkpt lat="46.072418494150043" lon="11.833460088819265">
        <ele>1354.6300000000001</ele>
        <time>2017-07-08T07:40:31Z</time>
      </trkpt>
      <trkpt lat="46.072315732017159" lon="11.833495460450649">
        <ele>1354.1500000000001</ele>
        <time>2017-07-08T07:40:42Z</time>
      </trkpt>
      <trkpt lat="46.072256974875927" lon="11.833603251725435">
        <ele>1353.1900000000001</ele>
        <time>2017-07-08T07:40:52Z</time>
      </trkpt>
      <trkpt lat="46.072197295725346" lon="11.833693776279688">
        <ele>1351.75</ele>
        <time>2017-07-08T07:41:03Z</time>
      </trkpt>
      <trkpt lat="46.072106687352061" lon="11.833755131810904">
        <ele>1350.3099999999999</ele>
        <time>2017-07-08T07:41:14Z</time>
      </trkpt>
      <trkpt lat="46.072048516944051" lon="11.833845740184188">
        <ele>1348.3900000000001</ele>
        <time>2017-07-08T07:41:23Z</time>
      </trkpt>
      <trkpt lat="46.071988167241216" lon="11.83392939157784">
        <ele>1346.9400000000001</ele>
        <time>2017-07-08T07:41:32Z</time>
      </trkpt>
      <trkpt lat="46.071884650737047" lon="11.833971971645951">
        <ele>1345.02</ele>
        <time>2017-07-08T07:41:45Z</time>
      </trkpt>
      <trkpt lat="46.071754982694983" lon="11.834001140668988">
        <ele>1343.0999999999999</ele>
        <time>2017-07-08T07:41:55Z</time>
      </trkpt>
      <trkpt lat="46.071690358221531" lon="11.834109770134091">
        <ele>1340.7</ele>
        <time>2017-07-08T07:42:06Z</time>
      </trkpt>
      <trkpt lat="46.071679461747408" lon="11.834122091531754">
        <ele>1339.73</ele>
        <time>2017-07-08T07:42:08Z</time>
      </trkpt>
      <trkpt lat="46.071650963276625" lon="11.834257207810879">
        <ele>1337.8099999999999</ele>
        <time>2017-07-08T07:42:20Z</time>
      </trkpt>
      <trkpt lat="46.071591367945075" lon="11.83433348312974">
        <ele>1335.8900000000001</ele>
        <time>2017-07-08T07:42:29Z</time>
      </trkpt>
      <trkpt lat="46.071499334648252" lon="11.834396179765463">
        <ele>1333.01</ele>
        <time>2017-07-08T07:42:40Z</time>
      </trkpt>
      <trkpt lat="46.071402188390493" lon="11.834398359060287">
        <ele>1330.5999999999999</ele>
        <time>2017-07-08T07:42:52Z</time>
      </trkpt>
      <trkpt lat="46.07125885784626" lon="11.834404645487666">
        <ele>1328.2</ele>
        <time>2017-07-08T07:43:05Z</time>
      </trkpt>
      <trkpt lat="46.07120948843658" lon="11.834467509761453">
        <ele>1326.28</ele>
        <time>2017-07-08T07:43:15Z</time>
      </trkpt>
      <trkpt lat="46.071169255301356" lon="11.834528027102351">
        <ele>1323.8699999999999</ele>
        <time>2017-07-08T07:43:26Z</time>
      </trkpt>
      <trkpt lat="46.071107145398855" lon="11.834569685161114">
        <ele>1321.95</ele>
        <time>2017-07-08T07:43:36Z</time>
      </trkpt>
      <trkpt lat="46.071043023839593" lon="11.834579072892666">
        <ele>1320.99</ele>
        <time>2017-07-08T07:43:44Z</time>
      </trkpt>
      <trkpt lat="46.070946212857962" lon="11.834610421210527">
        <ele>1319.0699999999999</ele>
        <time>2017-07-08T07:43:54Z</time>
      </trkpt>
      <trkpt lat="46.070857951417565" lon="11.834604386240244">
        <ele>1315.7</ele>
        <time>2017-07-08T07:44:03Z</time>
      </trkpt>
      <trkpt lat="46.070833811536431" lon="11.834634309634566">
        <ele>1314.74</ele>
        <time>2017-07-08T07:44:12Z</time>
      </trkpt>
      <trkpt lat="46.070808079093695" lon="11.834646798670292">
        <ele>1313.78</ele>
        <time>2017-07-08T07:44:18Z</time>
      </trkpt>
      <trkpt lat="46.070766923949122" lon="11.834635986015201">
        <ele>1312.3399999999999</ele>
        <time>2017-07-08T07:44:28Z</time>
      </trkpt>
      <trkpt lat="46.070749070495367" lon="11.834680745378137">
        <ele>1311.3800000000001</ele>
        <time>2017-07-08T07:44:37Z</time>
      </trkpt>
      <trkpt lat="46.070640608668327" lon="11.834702957421541">
        <ele>1308.49</ele>
        <time>2017-07-08T07:44:50Z</time>
      </trkpt>
      <trkpt lat="46.070565842092037" lon="11.834705052897334">
        <ele>1306.0899999999999</ele>
        <time>2017-07-08T07:45:01Z</time>
      </trkpt>
      <trkpt lat="46.070557460188866" lon="11.834715697914362">
        <ele>1305.6099999999999</ele>
        <time>2017-07-08T07:45:03Z</time>
      </trkpt>
      <trkpt lat="46.070469031110406" lon="11.834743022918701">
        <ele>1303.6900000000001</ele>
        <time>2017-07-08T07:45:14Z</time>
      </trkpt>
      <trkpt lat="46.070433324202895" lon="11.834846707060933">
        <ele>1302.24</ele>
        <time>2017-07-08T07:45:22Z</time>
      </trkpt>
      <trkpt lat="46.07036761008203" lon="11.834920551627874">
        <ele>1300.3199999999999</ele>
        <time>2017-07-08T07:45:33Z</time>
      </trkpt>
      <trkpt lat="46.07029820792377" lon="11.835001185536385">
        <ele>1297.4400000000001</ele>
        <time>2017-07-08T07:45:45Z</time>
      </trkpt>
      <trkpt lat="46.070250933989882" lon="11.835099421441555">
        <ele>1295.99</ele>
        <time>2017-07-08T07:45:53Z</time>
      </trkpt>
      <trkpt lat="46.07012864202261" lon="11.835131524130702">
        <ele>1293.5899999999999</ele>
        <time>2017-07-08T07:46:05Z</time>
      </trkpt>
      <trkpt lat="46.070030741393566" lon="11.835171924903989">
        <ele>1291.6700000000001</ele>
        <time>2017-07-08T07:46:16Z</time>
      </trkpt>
      <trkpt lat="46.069995788857341" lon="11.835269825533032">
        <ele>1290.23</ele>
        <time>2017-07-08T07:46:26Z</time>
      </trkpt>
      <trkpt lat="46.069960920140147" lon="11.835403768345714">
        <ele>1287.8199999999999</ele>
        <time>2017-07-08T07:46:38Z</time>
      </trkpt>
      <trkpt lat="46.069875340908766" lon="11.8354631960392">
        <ele>1285.4200000000001</ele>
        <time>2017-07-08T07:46:51Z</time>
      </trkpt>
      <trkpt lat="46.069785486906767" lon="11.835484066978097">
        <ele>1283.5</ele>
        <time>2017-07-08T07:47:02Z</time>
      </trkpt>
      <trkpt lat="46.069644503295422" lon="11.835457077249885">
        <ele>1281.5699999999999</ele>
        <time>2017-07-08T07:47:16Z</time>
      </trkpt>
      <trkpt lat="46.069541741162539" lon="11.835458083078265">
        <ele>1279.1700000000001</ele>
        <time>2017-07-08T07:47:28Z</time>
      </trkpt>
      <trkpt lat="46.069441577419639" lon="11.83549546636641">
        <ele>1276.77</ele>
        <time>2017-07-08T07:47:40Z</time>
      </trkpt>
      <trkpt lat="46.069740727543831" lon="11.836042804643512">
        <ele>1275.8099999999999</ele>
        <time>2017-07-08T07:47:52Z</time>
      </trkpt>
      <trkpt lat="46.069733519107103" lon="11.836099047213793">
        <ele>1274.8499999999999</ele>
        <time>2017-07-08T07:48:01Z</time>
      </trkpt>
      <trkpt lat="46.069760089740157" lon="11.83605395257473">
        <ele>1275.3299999999999</ele>
        <time>2017-07-08T07:48:18Z</time>
      </trkpt>
      <trkpt lat="46.069760927930474" lon="11.836108602583408">
        <ele>1274.8499999999999</ele>
        <time>2017-07-08T07:48:33Z</time>
      </trkpt>
      <trkpt lat="46.069880118593574" lon="11.836106926202774">
        <ele>1274.8499999999999</ele>
        <time>2017-07-08T07:49:00Z</time>
      </trkpt>
      <trkpt lat="46.069843824952841" lon="11.836135843768716">
        <ele>1274.8499999999999</ele>
        <time>2017-07-08T07:49:30Z</time>
      </trkpt>
      <trkpt lat="46.069830749183893" lon="11.836098963394761">
        <ele>1274.8499999999999</ele>
        <time>2017-07-08T07:50:00Z</time>
      </trkpt>
      <trkpt lat="46.069753551855683" lon="11.836067195981741">
        <ele>1275.3299999999999</ele>
        <time>2017-07-08T07:50:09Z</time>
      </trkpt>
      <trkpt lat="46.069741230458021" lon="11.836000476032495">
        <ele>1275.3299999999999</ele>
        <time>2017-07-08T07:50:30Z</time>
      </trkpt>
      <trkpt lat="46.069764532148838" lon="11.836047749966383">
        <ele>1274.3599999999999</ele>
        <time>2017-07-08T07:50:40Z</time>
      </trkpt>
      <trkpt lat="46.069808788597584" lon="11.836095694452524">
        <ele>1274.8499999999999</ele>
        <time>2017-07-08T07:51:08Z</time>
      </trkpt>
      <trkpt lat="46.069858744740486" lon="11.836142716929317">
        <ele>1274.3599999999999</ele>
        <time>2017-07-08T07:51:40Z</time>
      </trkpt>
      <trkpt lat="46.069845501333475" lon="11.836187811568379">
        <ele>1273.8800000000001</ele>
        <time>2017-07-08T07:52:07Z</time>
      </trkpt>
      <trkpt lat="46.069827312603593" lon="11.836181860417128">
        <ele>1273.8800000000001</ele>
        <time>2017-07-08T07:52:33Z</time>
      </trkpt>
      <trkpt lat="46.069846255704761" lon="11.83611991815269">
        <ele>1273.8800000000001</ele>
        <time>2017-07-08T07:53:04Z</time>
      </trkpt>
      <trkpt lat="46.069848434999585" lon="11.836165180429816">
        <ele>1273.4000000000001</ele>
        <time>2017-07-08T07:53:39Z</time>
      </trkpt>
      <trkpt lat="46.069816751405597" lon="11.83617951348424">
        <ele>1273.4000000000001</ele>
        <time>2017-07-08T07:54:11Z</time>
      </trkpt>
      <trkpt lat="46.069789929315448" lon="11.836204240098596">
        <ele>1273.4000000000001</ele>
        <time>2017-07-08T07:54:38Z</time>
      </trkpt>
      <trkpt lat="46.069739554077387" lon="11.836200971156359">
        <ele>1272.9200000000001</ele>
        <time>2017-07-08T07:55:01Z</time>
      </trkpt>
      <trkpt lat="46.069808704778552" lon="11.83616534806788">
        <ele>1272.9200000000001</ele>
        <time>2017-07-08T07:55:30Z</time>
      </trkpt>
      <trkpt lat="46.069801496341825" lon="11.836139280349016">
        <ele>1272.9200000000001</ele>
        <time>2017-07-08T07:56:01Z</time>
      </trkpt>
      <trkpt lat="46.069801663979888" lon="11.83613995090127">
        <ele>1272.4400000000001</ele>
        <time>2017-07-08T07:56:33Z</time>
      </trkpt>
      <trkpt lat="46.069794707000256" lon="11.836142800748348">
        <ele>1272.9200000000001</ele>
        <time>2017-07-08T07:56:58Z</time>
      </trkpt>
      <trkpt lat="46.069794539362192" lon="11.836115391924977">
        <ele>1272.4400000000001</ele>
        <time>2017-07-08T07:57:18Z</time>
      </trkpt>
      <trkpt lat="46.069799987599254" lon="11.836100304499269">
        <ele>1272.4400000000001</ele>
        <time>2017-07-08T07:57:36Z</time>
      </trkpt>
      <trkpt lat="46.06984181329608" lon="11.836160654202104">
        <ele>1272.4400000000001</ele>
        <time>2017-07-08T07:58:10Z</time>
      </trkpt>
      <trkpt lat="46.069844663143158" lon="11.836188901215792">
        <ele>1271.96</ele>
        <time>2017-07-08T07:58:33Z</time>
      </trkpt>
      <trkpt lat="46.069830916821957" lon="11.836229050531983">
        <ele>1271.96</ele>
        <time>2017-07-08T07:59:01Z</time>
      </trkpt>
      <trkpt lat="46.069823876023293" lon="11.836210107430816">
        <ele>1271.96</ele>
        <time>2017-07-08T07:59:31Z</time>
      </trkpt>
      <trkpt lat="46.069865198805928" lon="11.836238438263535">
        <ele>1271.96</ele>
        <time>2017-07-08T07:59:51Z</time>
      </trkpt>
      <trkpt lat="46.069833347573876" lon="11.836193595081568">
        <ele>1272.9200000000001</ele>
        <time>2017-07-08T07:59:59Z</time>
      </trkpt>
      <trkpt lat="46.069773249328136" lon="11.836210023611784">
        <ele>1272.4400000000001</ele>
        <time>2017-07-08T08:00:10Z</time>
      </trkpt>
      <trkpt lat="46.069755982607603" lon="11.836230894550681">
        <ele>1272.9200000000001</ele>
        <time>2017-07-08T08:00:22Z</time>
      </trkpt>
      <trkpt lat="46.069727651774883" lon="11.836264673620462">
        <ele>1272.9200000000001</ele>
        <time>2017-07-08T08:00:44Z</time>
      </trkpt>
      <trkpt lat="46.0697475168854" lon="11.836201306432486">
        <ele>1272.9200000000001</ele>
        <time>2017-07-08T08:00:58Z</time>
      </trkpt>
      <trkpt lat="46.069798227399588" lon="11.836166270077229">
        <ele>1272.4400000000001</ele>
        <time>2017-07-08T08:01:16Z</time>
      </trkpt>
      <trkpt lat="46.069804513826966" lon="11.836193762719631">
        <ele>1272.4400000000001</ele>
        <time>2017-07-08T08:01:34Z</time>
      </trkpt>
      <trkpt lat="46.069825468584895" lon="11.836213879287243">
        <ele>1271.96</ele>
        <time>2017-07-08T08:01:47Z</time>
      </trkpt>
      <trkpt lat="46.069811973720789" lon="11.836235588416457">
        <ele>1271.96</ele>
        <time>2017-07-08T08:02:01Z</time>
      </trkpt>
      <trkpt lat="46.069789258763194" lon="11.836176663637161">
        <ele>1271.48</ele>
        <time>2017-07-08T08:02:18Z</time>
      </trkpt>
      <trkpt lat="46.069813147187233" lon="11.836234414950013">
        <ele>1270.52</ele>
        <time>2017-07-08T08:02:31Z</time>
      </trkpt>
      <trkpt lat="46.069765537977219" lon="11.836266098544002">
        <ele>1268.5999999999999</ele>
        <time>2017-07-08T08:02:44Z</time>
      </trkpt>
      <trkpt lat="46.069698985666037" lon="11.836316306143999">
        <ele>1265.71</ele>
        <time>2017-07-08T08:02:56Z</time>
      </trkpt>
      <trkpt lat="46.069693034514785" lon="11.836467180401087">
        <ele>1262.8299999999999</ele>
        <time>2017-07-08T08:03:10Z</time>
      </trkpt>
      <trkpt lat="46.069592954590917" lon="11.836427198722959">
        <ele>1260.9100000000001</ele>
        <time>2017-07-08T08:03:20Z</time>
      </trkpt>
      <trkpt lat="46.069520283490419" lon="11.836371291428804">
        <ele>1258.98</ele>
        <time>2017-07-08T08:03:29Z</time>
      </trkpt>
      <trkpt lat="46.069480385631323" lon="11.83635301887989">
        <ele>1256.0999999999999</ele>
        <time>2017-07-08T08:03:39Z</time>
      </trkpt>
      <trkpt lat="46.0694176889956" lon="11.836307588964701">
        <ele>1253.22</ele>
        <time>2017-07-08T08:03:50Z</time>
      </trkpt>
      <trkpt lat="46.069323979318142" lon="11.83621421456337">
        <ele>1250.8099999999999</ele>
        <time>2017-07-08T08:04:00Z</time>
      </trkpt>
      <trkpt lat="46.069282740354538" lon="11.836129892617464">
        <ele>1248.4100000000001</ele>
        <time>2017-07-08T08:04:12Z</time>
      </trkpt>
      <trkpt lat="46.069204285740852" lon="11.836014557629824">
        <ele>1246.01</ele>
        <time>2017-07-08T08:04:26Z</time>
      </trkpt>
      <trkpt lat="46.069122478365898" lon="11.83597675524652">
        <ele>1244.0799999999999</ele>
        <time>2017-07-08T08:04:39Z</time>
      </trkpt>
      <trkpt lat="46.069131195545197" lon="11.836044564843178">
        <ele>1242.1600000000001</ele>
        <time>2017-07-08T08:04:50Z</time>
      </trkpt>
      <trkpt lat="46.069149132817984" lon="11.836134921759367">
        <ele>1240.72</ele>
        <time>2017-07-08T08:05:01Z</time>
      </trkpt>
      <trkpt lat="46.069189198315144" lon="11.836253358051181">
        <ele>1239.76</ele>
        <time>2017-07-08T08:05:11Z</time>
      </trkpt>
      <trkpt lat="46.06920663267374" lon="11.836445471271873">
        <ele>1237.3499999999999</ele>
        <time>2017-07-08T08:05:24Z</time>
      </trkpt>
      <trkpt lat="46.069250889122486" lon="11.836644290015101">
        <ele>1235.9100000000001</ele>
        <time>2017-07-08T08:05:37Z</time>
      </trkpt>
      <trkpt lat="46.06928089633584" lon="11.836774963885546">
        <ele>1234.47</ele>
        <time>2017-07-08T08:05:48Z</time>
      </trkpt>
      <trkpt lat="46.069344263523817" lon="11.836894070729613">
        <ele>1233.99</ele>
        <time>2017-07-08T08:06:00Z</time>
      </trkpt>
      <trkpt lat="46.069368738681078" lon="11.836985852569342">
        <ele>1233.03</ele>
        <time>2017-07-08T08:06:11Z</time>
      </trkpt>
      <trkpt lat="46.069409726187587" lon="11.83710839599371">
        <ele>1231.1099999999999</ele>
        <time>2017-07-08T08:06:23Z</time>
      </trkpt>
      <trkpt lat="46.069440487772226" lon="11.837185677140951">
        <ele>1228.22</ele>
        <time>2017-07-08T08:06:36Z</time>
      </trkpt>
      <trkpt lat="46.069495975971222" lon="11.837225239723921">
        <ele>1226.3</ele>
        <time>2017-07-08T08:06:49Z</time>
      </trkpt>
      <trkpt lat="46.069542076438665" lon="11.837364044040442">
        <ele>1224.8599999999999</ele>
        <time>2017-07-08T08:06:59Z</time>
      </trkpt>
      <trkpt lat="46.069535203278065" lon="11.837497316300869">
        <ele>1222.45</ele>
        <time>2017-07-08T08:07:10Z</time>
      </trkpt>
      <trkpt lat="46.069520199671388" lon="11.83763955719769">
        <ele>1221.01</ele>
        <time>2017-07-08T08:07:22Z</time>
      </trkpt>
      <trkpt lat="46.069461442530155" lon="11.837630588561296">
        <ele>1220.53</ele>
        <time>2017-07-08T08:07:34Z</time>
      </trkpt>
      <trkpt lat="46.069431267678738" lon="11.837682723999023">
        <ele>1218.1300000000001</ele>
        <time>2017-07-08T08:07:45Z</time>
      </trkpt>
      <trkpt lat="46.069396231323481" lon="11.837740978226066">
        <ele>1216.21</ele>
        <time>2017-07-08T08:07:53Z</time>
      </trkpt>
      <trkpt lat="46.069336216896772" lon="11.837648442015052">
        <ele>1213.8</ele>
        <time>2017-07-08T08:08:05Z</time>
      </trkpt>
      <trkpt lat="46.069333031773567" lon="11.837574010714889">
        <ele>1211.4000000000001</ele>
        <time>2017-07-08T08:08:18Z</time>
      </trkpt>
      <trkpt lat="46.069241333752871" lon="11.837518103420734">
        <ele>1209.48</ele>
        <time>2017-07-08T08:08:29Z</time>
      </trkpt>
      <trkpt lat="46.069185175001621" lon="11.83751542121172">
        <ele>1207.55</ele>
        <time>2017-07-08T08:08:40Z</time>
      </trkpt>
      <trkpt lat="46.069129016250372" lon="11.837519025430083">
        <ele>1205.1500000000001</ele>
        <time>2017-07-08T08:08:51Z</time>
      </trkpt>
      <trkpt lat="46.069113677367568" lon="11.837458508089185">
        <ele>1203.71</ele>
        <time>2017-07-08T08:09:01Z</time>
      </trkpt>
      <trkpt lat="46.069040670990944" lon="11.837419532239437">
        <ele>1201.3</ele>
        <time>2017-07-08T08:09:14Z</time>
      </trkpt>
      <trkpt lat="46.068984847515821" lon="11.837376030161977">
        <ele>1198.9000000000001</ele>
        <time>2017-07-08T08:09:23Z</time>
      </trkpt>
      <trkpt lat="46.068951152265072" lon="11.837342670187354">
        <ele>1196.98</ele>
        <time>2017-07-08T08:09:33Z</time>
      </trkpt>
      <trkpt lat="46.068922989070415" lon="11.837281314656138">
        <ele>1194.5799999999999</ele>
        <time>2017-07-08T08:09:44Z</time>
      </trkpt>
      <trkpt lat="46.068865992128849" lon="11.837214846163988">
        <ele>1193.1300000000001</ele>
        <time>2017-07-08T08:09:57Z</time>
      </trkpt>
      <trkpt lat="46.068837745115161" lon="11.837200848385692">
        <ele>1192.6500000000001</ele>
        <time>2017-07-08T08:10:11Z</time>
      </trkpt>
      <trkpt lat="46.068808995187283" lon="11.8371123354882">
        <ele>1191.6900000000001</ele>
        <time>2017-07-08T08:10:23Z</time>
      </trkpt>
      <trkpt lat="46.068734899163246" lon="11.837085764855146">
        <ele>1189.77</ele>
        <time>2017-07-08T08:10:34Z</time>
      </trkpt>
      <trkpt lat="46.068696426227689" lon="11.837056092917919">
        <ele>1188.8099999999999</ele>
        <time>2017-07-08T08:10:39Z</time>
      </trkpt>
      <trkpt lat="46.068620570003986" lon="11.836963891983032">
        <ele>1188.3299999999999</ele>
        <time>2017-07-08T08:10:46Z</time>
      </trkpt>
      <trkpt lat="46.068568434566259" lon="11.836934722959995">
        <ele>1187.3699999999999</ele>
        <time>2017-07-08T08:10:53Z</time>
      </trkpt>
      <trkpt lat="46.068467851728201" lon="11.836834559217095">
        <ele>1185.9200000000001</ele>
        <time>2017-07-08T08:11:06Z</time>
      </trkpt>
      <trkpt lat="46.068360479548573" lon="11.836765995249152">
        <ele>1184.48</ele>
        <time>2017-07-08T08:11:19Z</time>
      </trkpt>
      <trkpt lat="46.068254867568612" lon="11.836736323311925">
        <ele>1182.5599999999999</ele>
        <time>2017-07-08T08:11:32Z</time>
      </trkpt>
      <trkpt lat="46.068187309429049" lon="11.836691480129957">
        <ele>1181.1199999999999</ele>
        <time>2017-07-08T08:11:43Z</time>
      </trkpt>
      <trkpt lat="46.068107513710856" lon="11.836628615856171">
        <ele>1178.71</ele>
        <time>2017-07-08T08:11:55Z</time>
      </trkpt>
      <trkpt lat="46.068046912550926" lon="11.836551586166024">
        <ele>1176.3099999999999</ele>
        <time>2017-07-08T08:12:07Z</time>
      </trkpt>
      <trkpt lat="46.067974409088492" lon="11.836440777406096">
        <ele>1174.3900000000001</ele>
        <time>2017-07-08T08:12:19Z</time>
      </trkpt>
      <trkpt lat="46.067900564521551" lon="11.836333237588406">
        <ele>1172.95</ele>
        <time>2017-07-08T08:12:30Z</time>
      </trkpt>
      <trkpt lat="46.067862510681152" lon="11.836287388578057">
        <ele>1171.02</ele>
        <time>2017-07-08T08:12:41Z</time>
      </trkpt>
      <trkpt lat="46.067852200940251" lon="11.836274731904268">
        <ele>1171.02</ele>
        <time>2017-07-08T08:12:42Z</time>
      </trkpt>
      <trkpt lat="46.067759161815047" lon="11.83616585098207">
        <ele>1169.0999999999999</ele>
        <time>2017-07-08T08:12:53Z</time>
      </trkpt>
      <trkpt lat="46.067696884274483" lon="11.836107093840837">
        <ele>1166.7</ele>
        <time>2017-07-08T08:13:04Z</time>
      </trkpt>
      <trkpt lat="46.067632511258125" lon="11.835978934541345">
        <ele>1165.26</ele>
        <time>2017-07-08T08:13:16Z</time>
      </trkpt>
      <trkpt lat="46.067566545680165" lon="11.835908442735672">
        <ele>1163.3299999999999</ele>
        <time>2017-07-08T08:13:27Z</time>
      </trkpt>
      <trkpt lat="46.067519187927246" lon="11.835784390568733">
        <ele>1161.8900000000001</ele>
        <time>2017-07-08T08:13:38Z</time>
      </trkpt>
      <trkpt lat="46.067564617842436" lon="11.835633181035519">
        <ele>1159.97</ele>
        <time>2017-07-08T08:13:49Z</time>
      </trkpt>
      <trkpt lat="46.067620860412717" lon="11.835495298728347">
        <ele>1158.53</ele>
        <time>2017-07-08T08:14:00Z</time>
      </trkpt>
      <trkpt lat="46.067676097154617" lon="11.835333527997136">
        <ele>1157.0799999999999</ele>
        <time>2017-07-08T08:14:13Z</time>
      </trkpt>
      <trkpt lat="46.06770015321672" lon="11.835233280435205">
        <ele>1154.6800000000001</ele>
        <time>2017-07-08T08:14:24Z</time>
      </trkpt>
      <trkpt lat="46.067729657515883" lon="11.835193801671267">
        <ele>1153.72</ele>
        <time>2017-07-08T08:14:38Z</time>
      </trkpt>
      <trkpt lat="46.067708535119891" lon="11.835099086165428">
        <ele>1151.3199999999999</ele>
        <time>2017-07-08T08:14:49Z</time>
      </trkpt>
      <trkpt lat="46.06768112629652" lon="11.835092380642891">
        <ele>1150.3499999999999</ele>
        <time>2017-07-08T08:15:00Z</time>
      </trkpt>
      <trkpt lat="46.067615495994687" lon="11.835064301267266">
        <ele>1148.4300000000001</ele>
        <time>2017-07-08T08:15:14Z</time>
      </trkpt>
      <trkpt lat="46.067582136020064" lon="11.835021134465933">
        <ele>1146.51</ele>
        <time>2017-07-08T08:15:23Z</time>
      </trkpt>
      <trkpt lat="46.067566042765975" lon="11.834997832775116">
        <ele>1144.5899999999999</ele>
        <time>2017-07-08T08:15:32Z</time>
      </trkpt>
      <trkpt lat="46.067537628114223" lon="11.834920383989811">
        <ele>1142.1800000000001</ele>
        <time>2017-07-08T08:15:43Z</time>
      </trkpt>
      <trkpt lat="46.067463951185346" lon="11.834890628233552">
        <ele>1140.26</ele>
        <time>2017-07-08T08:15:54Z</time>
      </trkpt>
      <trkpt lat="46.067453138530254" lon="11.834878642112017">
        <ele>1139.3</ele>
        <time>2017-07-08T08:15:58Z</time>
      </trkpt>
      <trkpt lat="46.067386418581009" lon="11.834863219410181">
        <ele>1137.8599999999999</ele>
        <time>2017-07-08T08:16:08Z</time>
      </trkpt>
      <trkpt lat="46.067348783835769" lon="11.834837906062603">
        <ele>1136.4200000000001</ele>
        <time>2017-07-08T08:16:18Z</time>
      </trkpt>
      <trkpt lat="46.067380886524916" lon="11.83485240675509">
        <ele>1136.4200000000001</ele>
        <time>2017-07-08T08:16:35Z</time>
      </trkpt>
      <trkpt lat="46.067353980615735" lon="11.834823489189148">
        <ele>1135.9400000000001</ele>
        <time>2017-07-08T08:16:48Z</time>
      </trkpt>
      <trkpt lat="46.067303437739611" lon="11.834815191105008">
        <ele>1135.45</ele>
        <time>2017-07-08T08:17:02Z</time>
      </trkpt>
      <trkpt lat="46.067217942327261" lon="11.834806306287646">
        <ele>1134.01</ele>
        <time>2017-07-08T08:17:12Z</time>
      </trkpt>
      <trkpt lat="46.067196149379015" lon="11.834767078980803">
        <ele>1132.5699999999999</ele>
        <time>2017-07-08T08:17:22Z</time>
      </trkpt>
      <trkpt lat="46.067209392786026" lon="11.834721900522709">
        <ele>1132.5699999999999</ele>
        <time>2017-07-08T08:17:31Z</time>
      </trkpt>
      <trkpt lat="46.067247865721583" lon="11.83471268042922">
        <ele>1132.0899999999999</ele>
        <time>2017-07-08T08:17:43Z</time>
      </trkpt>
      <trkpt lat="46.067236801609397" lon="11.834703041240573">
        <ele>1132.0899999999999</ele>
        <time>2017-07-08T08:17:46Z</time>
      </trkpt>
      <trkpt lat="46.067138146609068" lon="11.834587454795837">
        <ele>1130.1700000000001</ele>
        <time>2017-07-08T08:17:57Z</time>
      </trkpt>
      <trkpt lat="46.067081820219755" lon="11.834481758996844">
        <ele>1128.24</ele>
        <time>2017-07-08T08:18:09Z</time>
      </trkpt>
      <trkpt lat="46.067011496052146" lon="11.834323005750775">
        <ele>1125.3599999999999</ele>
        <time>2017-07-08T08:18:23Z</time>
      </trkpt>
      <trkpt lat="46.067009652033448" lon="11.834246562793851">
        <ele>1124.8800000000001</ele>
        <time>2017-07-08T08:18:35Z</time>
      </trkpt>
      <trkpt lat="46.066992720589042" lon="11.834158720448613">
        <ele>1124.4000000000001</ele>
        <time>2017-07-08T08:18:41Z</time>
      </trkpt>
      <trkpt lat="46.066970843821764" lon="11.834049671888351">
        <ele>1122.96</ele>
        <time>2017-07-08T08:18:51Z</time>
      </trkpt>
      <trkpt lat="46.066976292058825" lon="11.833977168425918">
        <ele>1122.96</ele>
        <time>2017-07-08T08:19:00Z</time>
      </trkpt>
      <trkpt lat="46.066990289837122" lon="11.833864012733102">
        <ele>1121.52</ele>
        <time>2017-07-08T08:19:10Z</time>
      </trkpt>
      <trkpt lat="46.066971765831113" lon="11.833760580047965">
        <ele>1120.55</ele>
        <time>2017-07-08T08:19:21Z</time>
      </trkpt>
      <trkpt lat="46.066963216289878" lon="11.833739038556814">
        <ele>1120.55</ele>
        <time>2017-07-08T08:19:33Z</time>
      </trkpt>
      <trkpt lat="46.066937651485205" lon="11.83369779959321">
        <ele>1118.6300000000001</ele>
        <time>2017-07-08T08:19:42Z</time>
      </trkpt>
      <trkpt lat="46.066896663978696" lon="11.833637366071343">
        <ele>1116.23</ele>
        <time>2017-07-08T08:19:52Z</time>
      </trkpt>
      <trkpt lat="46.066888701170683" lon="11.833486491814256">
        <ele>1114.79</ele>
        <time>2017-07-08T08:20:04Z</time>
      </trkpt>
      <trkpt lat="46.066879648715258" lon="11.833393201231956">
        <ele>1112.8599999999999</ele>
        <time>2017-07-08T08:20:14Z</time>
      </trkpt>
      <trkpt lat="46.066836062818766" lon="11.833330923691392">
        <ele>1110.9400000000001</ele>
        <time>2017-07-08T08:20:23Z</time>
      </trkpt>
      <trkpt lat="46.066796081140637" lon="11.833225982263684">
        <ele>1108.54</ele>
        <time>2017-07-08T08:20:35Z</time>
      </trkpt>
      <trkpt lat="46.066758027300239" lon="11.833143001422286">
        <ele>1106.6099999999999</ele>
        <time>2017-07-08T08:20:45Z</time>
      </trkpt>
      <trkpt lat="46.066760625690222" lon="11.832994474098086">
        <ele>1105.6500000000001</ele>
        <time>2017-07-08T08:20:57Z</time>
      </trkpt>
      <trkpt lat="46.06671754270792" lon="11.832929262891412">
        <ele>1104.21</ele>
        <time>2017-07-08T08:21:07Z</time>
      </trkpt>
      <trkpt lat="46.066680829972029" lon="11.832841839641333">
        <ele>1102.77</ele>
        <time>2017-07-08T08:21:14Z</time>
      </trkpt>
      <trkpt lat="46.066629197448492" lon="11.832736227661371">
        <ele>1102.29</ele>
        <time>2017-07-08T08:21:25Z</time>
      </trkpt>
      <trkpt lat="46.066589551046491" lon="11.832659030333161">
        <ele>1101.3299999999999</ele>
        <time>2017-07-08T08:21:36Z</time>
      </trkpt>
      <trkpt lat="46.066506570205092" lon="11.832555430009961">
        <ele>1099.4000000000001</ele>
        <time>2017-07-08T08:21:48Z</time>
      </trkpt>
      <trkpt lat="46.066453596577048" lon="11.832501282915473">
        <ele>1098.4400000000001</ele>
        <time>2017-07-08T08:21:54Z</time>
      </trkpt>
      <trkpt lat="46.066376399248838" lon="11.832392401993275">
        <ele>1097.48</ele>
        <time>2017-07-08T08:22:06Z</time>
      </trkpt>
      <trkpt lat="46.06631638482213" lon="11.832310929894447">
        <ele>1095.5599999999999</ele>
        <time>2017-07-08T08:22:15Z</time>
      </trkpt>
      <trkpt lat="46.066264836117625" lon="11.832259632647038">
        <ele>1094.1199999999999</ele>
        <time>2017-07-08T08:22:26Z</time>
      </trkpt>
      <trkpt lat="46.066221250221133" lon="11.832209676504135">
        <ele>1092.2</ele>
        <time>2017-07-08T08:22:36Z</time>
      </trkpt>
      <trkpt lat="46.066130893304944" lon="11.832115883007646">
        <ele>1089.3099999999999</ele>
        <time>2017-07-08T08:22:49Z</time>
      </trkpt>
      <trkpt lat="46.066060904413462" lon="11.832028543576598">
        <ele>1086.9100000000001</ele>
        <time>2017-07-08T08:23:02Z</time>
      </trkpt>
      <trkpt lat="46.0660329926759" lon="11.832005409523845">
        <ele>1086.4300000000001</ele>
        <time>2017-07-08T08:23:07Z</time>
      </trkpt>
      <trkpt lat="46.065939702093601" lon="11.83188890106976">
        <ele>1084.5</ele>
        <time>2017-07-08T08:23:20Z</time>
      </trkpt>
      <trkpt lat="46.065933164209127" lon="11.831878758966923">
        <ele>1084.02</ele>
        <time>2017-07-08T08:23:21Z</time>
      </trkpt>
      <trkpt lat="46.065865773707628" lon="11.831778762862086">
        <ele>1082.0999999999999</ele>
        <time>2017-07-08T08:23:32Z</time>
      </trkpt>
      <trkpt lat="46.065856888890266" lon="11.831761915236712">
        <ele>1082.0999999999999</ele>
        <time>2017-07-08T08:23:34Z</time>
      </trkpt>
      <trkpt lat="46.065776087343693" lon="11.831629732623696">
        <ele>1079.7</ele>
        <time>2017-07-08T08:23:46Z</time>
      </trkpt>
      <trkpt lat="46.065718587487936" lon="11.831555720418692">
        <ele>1078.26</ele>
        <time>2017-07-08T08:23:54Z</time>
      </trkpt>
      <trkpt lat="46.065653963014483" lon="11.831405768170953">
        <ele>1075.8499999999999</ele>
        <time>2017-07-08T08:24:07Z</time>
      </trkpt>
      <trkpt lat="46.065613310784101" lon="11.831275848671794">
        <ele>1073.9300000000001</ele>
        <time>2017-07-08T08:24:18Z</time>
      </trkpt>
      <trkpt lat="46.065577520057559" lon="11.831170152872801">
        <ele>1072.01</ele>
        <time>2017-07-08T08:24:30Z</time>
      </trkpt>
      <trkpt lat="46.065523121505976" lon="11.831121370196342">
        <ele>1070.5699999999999</ele>
        <time>2017-07-08T08:24:42Z</time>
      </trkpt>
      <trkpt lat="46.065532341599464" lon="11.831030175089836">
        <ele>1070.0799999999999</ele>
        <time>2017-07-08T08:24:55Z</time>
      </trkpt>
      <trkpt lat="46.065541058778763" lon="11.831045681610703">
        <ele>1069.5999999999999</ele>
        <time>2017-07-08T08:25:04Z</time>
      </trkpt>
      <trkpt lat="46.065539801493287" lon="11.831027492880821">
        <ele>1068.6400000000001</ele>
        <time>2017-07-08T08:25:13Z</time>
      </trkpt>
      <trkpt lat="46.065512308850884" lon="11.831042664125562">
        <ele>1068.6400000000001</ele>
        <time>2017-07-08T08:25:37Z</time>
      </trkpt>
      <trkpt lat="46.065538208931684" lon="11.831022631376982">
        <ele>1068.6400000000001</ele>
        <time>2017-07-08T08:25:53Z</time>
      </trkpt>
      <trkpt lat="46.06553846038878" lon="11.831024475395679">
        <ele>1069.1199999999999</ele>
        <time>2017-07-08T08:26:06Z</time>
      </trkpt>
      <trkpt lat="46.065558912232518" lon="11.831050207838416">
        <ele>1068.6400000000001</ele>
        <time>2017-07-08T08:26:17Z</time>
      </trkpt>
      <trkpt lat="46.065535023808479" lon="11.831060601398349">
        <ele>1068.6400000000001</ele>
        <time>2017-07-08T08:26:30Z</time>
      </trkpt>
      <trkpt lat="46.065531587228179" lon="11.83102740906179">
        <ele>1069.1199999999999</ele>
        <time>2017-07-08T08:26:40Z</time>
      </trkpt>
      <trkpt lat="46.065525719895959" lon="11.831015925854445">
        <ele>1068.1600000000001</ele>
        <time>2017-07-08T08:27:01Z</time>
      </trkpt>
      <trkpt lat="46.065541226416826" lon="11.831016764044762">
        <ele>1067.6800000000001</ele>
        <time>2017-07-08T08:27:26Z</time>
      </trkpt>
      <trkpt lat="46.065545249730349" lon="11.831053057685494">
        <ele>1067.6800000000001</ele>
        <time>2017-07-08T08:27:49Z</time>
      </trkpt>
      <trkpt lat="46.065538628026843" lon="11.831031767651439">
        <ele>1067.6800000000001</ele>
        <time>2017-07-08T08:28:11Z</time>
      </trkpt>
      <trkpt lat="46.06554189696908" lon="11.831036126241088">
        <ele>1067.2</ele>
        <time>2017-07-08T08:28:32Z</time>
      </trkpt>
      <trkpt lat="46.06549889780581" lon="11.831026403233409">
        <ele>1067.2</ele>
        <time>2017-07-08T08:28:59Z</time>
      </trkpt>
      <trkpt lat="46.065477943047881" lon="11.83102497830987">
        <ele>1067.2</ele>
        <time>2017-07-08T08:29:15Z</time>
      </trkpt>
      <trkpt lat="46.065512308850884" lon="11.831028833985329">
        <ele>1066.72</ele>
        <time>2017-07-08T08:29:45Z</time>
      </trkpt>
      <trkpt lat="46.06549940072" lon="11.831079628318548">
        <ele>1066.72</ele>
        <time>2017-07-08T08:30:10Z</time>
      </trkpt>
      <trkpt lat="46.065500238910317" lon="11.83103914372623">
        <ele>1066.72</ele>
        <time>2017-07-08T08:30:33Z</time>
      </trkpt>
      <trkpt lat="46.065497724339366" lon="11.831018775701523">
        <ele>1066.24</ele>
        <time>2017-07-08T08:30:55Z</time>
      </trkpt>
      <trkpt lat="46.065515074878931" lon="11.831010896712542">
        <ele>1066.24</ele>
        <time>2017-07-08T08:31:20Z</time>
      </trkpt>
      <trkpt lat="46.065503424033523" lon="11.831029253080487">
        <ele>1066.24</ele>
        <time>2017-07-08T08:31:46Z</time>
      </trkpt>
      <trkpt lat="46.065492276102304" lon="11.831018440425396">
        <ele>1065.76</ele>
        <time>2017-07-08T08:32:12Z</time>
      </trkpt>
      <trkpt lat="46.065507614985108" lon="11.831015171483159">
        <ele>1065.76</ele>
        <time>2017-07-08T08:32:37Z</time>
      </trkpt>
      <trkpt lat="46.065493617206812" lon="11.830980889499187">
        <ele>1065.76</ele>
        <time>2017-07-08T08:32:58Z</time>
      </trkpt>
      <trkpt lat="46.065515074878931" lon="11.831033024936914">
        <ele>1065.76</ele>
        <time>2017-07-08T08:33:19Z</time>
      </trkpt>
      <trkpt lat="46.065508956089616" lon="11.831005029380322">
        <ele>1065.28</ele>
        <time>2017-07-08T08:33:46Z</time>
      </trkpt>
      <trkpt lat="46.065491270273924" lon="11.831020871177316">
        <ele>1065.28</ele>
        <time>2017-07-08T08:34:10Z</time>
      </trkpt>
      <trkpt lat="46.065467800945044" lon="11.831036796793342">
        <ele>1065.28</ele>
        <time>2017-07-08T08:34:35Z</time>
      </trkpt>
      <trkpt lat="46.065478529781103" lon="11.831055739894509">
        <ele>1064.8</ele>
        <time>2017-07-08T08:35:00Z</time>
      </trkpt>
      <trkpt lat="46.065509039908648" lon="11.831042831763625">
        <ele>1064.8</ele>
        <time>2017-07-08T08:35:17Z</time>
      </trkpt>
      <trkpt lat="46.065518679097295" lon="11.831020032986999">
        <ele>1065.28</ele>
        <time>2017-07-08T08:35:44Z</time>
      </trkpt>
      <trkpt lat="46.065517170354724" lon="11.831024223938584">
        <ele>1064.8</ele>
        <time>2017-07-08T08:36:13Z</time>
      </trkpt>
      <trkpt lat="46.065548351034522" lon="11.831073677167296">
        <ele>1064.8</ele>
        <time>2017-07-08T08:36:40Z</time>
      </trkpt>
      <trkpt lat="46.065523540601134" lon="11.831050291657448">
        <ele>1064.8</ele>
        <time>2017-07-08T08:37:05Z</time>
      </trkpt>
      <trkpt lat="46.065477021038532" lon="11.831029923632741">
        <ele>1064.8</ele>
        <time>2017-07-08T08:37:34Z</time>
      </trkpt>
      <trkpt lat="46.065499149262905" lon="11.831032689660788">
        <ele>1064.8</ele>
        <time>2017-07-08T08:38:01Z</time>
      </trkpt>
      <trkpt lat="46.065500825643539" lon="11.830977033823729">
        <ele>1064.8</ele>
        <time>2017-07-08T08:38:31Z</time>
      </trkpt>
      <trkpt lat="46.065529743209481" lon="11.831065881997347">
        <ele>1064.8</ele>
        <time>2017-07-08T08:38:56Z</time>
      </trkpt>
      <trkpt lat="46.065511638298631" lon="11.83102497830987">
        <ele>1064.8</ele>
        <time>2017-07-08T08:39:19Z</time>
      </trkpt>
      <trkpt lat="46.065507279708982" lon="11.831053895875812">
        <ele>1064.3199999999999</ele>
        <time>2017-07-08T08:39:49Z</time>
      </trkpt>
      <trkpt lat="46.065494203940034" lon="11.831061020493507">
        <ele>1064.3199999999999</ele>
        <time>2017-07-08T08:40:17Z</time>
      </trkpt>
      <trkpt lat="46.065525803714991" lon="11.831060852855444">
        <ele>1064.3199999999999</ele>
        <time>2017-07-08T08:40:45Z</time>
      </trkpt>
      <trkpt lat="46.065511554479599" lon="11.831062445417047">
        <ele>1064.3199999999999</ele>
        <time>2017-07-08T08:41:13Z</time>
      </trkpt>
      <trkpt lat="46.065494958311319" lon="11.831066636368632">
        <ele>1063.8399999999999</ele>
        <time>2017-07-08T08:41:41Z</time>
      </trkpt>
      <trkpt lat="46.065481128171086" lon="11.831049118191004">
        <ele>1063.3599999999999</ele>
        <time>2017-07-08T08:42:12Z</time>
      </trkpt>
      <trkpt lat="46.065514907240868" lon="11.831052387133241">
        <ele>1063.3599999999999</ele>
        <time>2017-07-08T08:42:37Z</time>
      </trkpt>
      <trkpt lat="46.065525803714991" lon="11.831032522022724">
        <ele>1063.3599999999999</ele>
        <time>2017-07-08T08:42:58Z</time>
      </trkpt>
      <trkpt lat="46.065524881705642" lon="11.831041825935245">
        <ele>1062.8699999999999</ele>
        <time>2017-07-08T08:43:23Z</time>
      </trkpt>
      <trkpt lat="46.06549889780581" lon="11.831040903925896">
        <ele>1062.8699999999999</ele>
        <time>2017-07-08T08:43:52Z</time>
      </trkpt>
      <trkpt lat="46.065443158149719" lon="11.83106604963541">
        <ele>1062.8699999999999</ele>
        <time>2017-07-08T08:44:18Z</time>
      </trkpt>
      <trkpt lat="46.065471991896629" lon="11.831042161211371">
        <ele>1062.3900000000001</ele>
        <time>2017-07-08T08:44:45Z</time>
      </trkpt>
      <trkpt lat="46.065479284152389" lon="11.831018775701523">
        <ele>1062.3900000000001</ele>
        <time>2017-07-08T08:45:11Z</time>
      </trkpt>
      <trkpt lat="46.065484313294291" lon="11.83101374655962">
        <ele>1062.3900000000001</ele>
        <time>2017-07-08T08:45:35Z</time>
      </trkpt>
      <trkpt lat="46.065468471497297" lon="11.831023972481489">
        <ele>1062.3900000000001</ele>
        <time>2017-07-08T08:45:59Z</time>
      </trkpt>
      <trkpt lat="46.065464029088616" lon="11.831015087664127">
        <ele>1062.3900000000001</ele>
        <time>2017-07-08T08:46:23Z</time>
      </trkpt>
      <trkpt lat="46.065484564751387" lon="11.831010980531573">
        <ele>1062.3900000000001</ele>
        <time>2017-07-08T08:46:49Z</time>
      </trkpt>
      <trkpt lat="46.065467800945044" lon="11.831048615276814">
        <ele>1062.3900000000001</ele>
        <time>2017-07-08T08:47:15Z</time>
      </trkpt>
      <trkpt lat="46.065477607771754" lon="11.831032689660788">
        <ele>1062.8699999999999</ele>
        <time>2017-07-08T08:47:37Z</time>
      </trkpt>
      <trkpt lat="46.065493281930685" lon="11.831062026321888">
        <ele>1062.8699999999999</ele>
        <time>2017-07-08T08:47:56Z</time>
      </trkpt>
      <trkpt lat="46.065496299415827" lon="11.831033946946263">
        <ele>1062.8699999999999</ele>
        <time>2017-07-08T08:48:20Z</time>
      </trkpt>
      <trkpt lat="46.065484816208482" lon="11.831042999401689">
        <ele>1062.8699999999999</ele>
        <time>2017-07-08T08:48:49Z</time>
      </trkpt>
      <trkpt lat="46.065483726561069" lon="11.831040233373642">
        <ele>1062.8699999999999</ele>
        <time>2017-07-08T08:49:17Z</time>
      </trkpt>
      <trkpt lat="46.06547936797142" lon="11.83102305047214">
        <ele>1062.8699999999999</ele>
        <time>2017-07-08T08:49:44Z</time>
      </trkpt>
      <trkpt lat="46.065451875329018" lon="11.831038724631071">
        <ele>1062.8699999999999</ele>
        <time>2017-07-08T08:50:07Z</time>
      </trkpt>
      <trkpt lat="46.065463526174426" lon="11.831056326627731">
        <ele>1062.8699999999999</ele>
        <time>2017-07-08T08:50:32Z</time>
      </trkpt>
      <trkpt lat="46.06546956114471" lon="11.831065881997347">
        <ele>1062.8699999999999</ele>
        <time>2017-07-08T08:51:02Z</time>
      </trkpt>
      <trkpt lat="46.065488085150719" lon="11.831028247252107">
        <ele>1062.8699999999999</ele>
        <time>2017-07-08T08:51:35Z</time>
      </trkpt>
      <trkpt lat="46.065495377406478" lon="11.831052554771304">
        <ele>1062.8699999999999</ele>
        <time>2017-07-08T08:51:56Z</time>
      </trkpt>
      <trkpt lat="46.065475009381771" lon="11.830978291109204">
        <ele>1062.8699999999999</ele>
        <time>2017-07-08T08:52:25Z</time>
      </trkpt>
      <trkpt lat="46.065503424033523" lon="11.830973429605365">
        <ele>1062.3900000000001</ele>
        <time>2017-07-08T08:52:59Z</time>
      </trkpt>
      <trkpt lat="46.065469728782773" lon="11.830955659970641">
        <ele>1062.8699999999999</ele>
        <time>2017-07-08T08:53:26Z</time>
      </trkpt>
      <trkpt lat="46.065481463447213" lon="11.830985080450773">
        <ele>1062.8699999999999</ele>
        <time>2017-07-08T08:53:55Z</time>
      </trkpt>
      <trkpt lat="46.065494371578097" lon="11.831017518416047">
        <ele>1062.8699999999999</ele>
        <time>2017-07-08T08:54:24Z</time>
      </trkpt>
      <trkpt lat="46.06549009680748" lon="11.831012070178986">
        <ele>1063.3599999999999</ele>
        <time>2017-07-08T08:54:56Z</time>
      </trkpt>
      <trkpt lat="46.065467968583107" lon="11.830988097935915">
        <ele>1063.3599999999999</ele>
        <time>2017-07-08T08:55:28Z</time>
      </trkpt>
      <trkpt lat="46.065458999946713" lon="11.831090776249766">
        <ele>1063.8399999999999</ele>
        <time>2017-07-08T08:55:53Z</time>
      </trkpt>
      <trkpt lat="46.065428238362074" lon="11.831068145111203">
        <ele>1063.3599999999999</ele>
        <time>2017-07-08T08:56:17Z</time>
      </trkpt>
      <trkpt lat="46.065458664670587" lon="11.831040903925896">
        <ele>1063.8399999999999</ele>
        <time>2017-07-08T08:56:41Z</time>
      </trkpt>
      <trkpt lat="46.065470902249217" lon="11.831043837592006">
        <ele>1063.8399999999999</ele>
        <time>2017-07-08T08:57:10Z</time>
      </trkpt>
      <trkpt lat="46.065501412376761" lon="11.8310113158077">
        <ele>1063.8399999999999</ele>
        <time>2017-07-08T08:57:38Z</time>
      </trkpt>
      <trkpt lat="46.065516583621502" lon="11.831006202846766">
        <ele>1063.8399999999999</ele>
        <time>2017-07-08T08:58:03Z</time>
      </trkpt>
      <trkpt lat="46.065528485924006" lon="11.831002263352275">
        <ele>1063.8399999999999</ele>
        <time>2017-07-08T08:58:31Z</time>
      </trkpt>
      <trkpt lat="46.065541813150048" lon="11.830996479839087">
        <ele>1063.8399999999999</ele>
        <time>2017-07-08T08:58:54Z</time>
      </trkpt>
      <trkpt lat="46.065511303022504" lon="11.831014500930905">
        <ele>1063.8399999999999</ele>
        <time>2017-07-08T08:59:25Z</time>
      </trkpt>
      <trkpt lat="46.065527480095625" lon="11.831037634983659">
        <ele>1063.8399999999999</ele>
        <time>2017-07-08T08:59:45Z</time>
      </trkpt>
      <trkpt lat="46.065528653562069" lon="11.831028079614043">
        <ele>1063.8399999999999</ele>
        <time>2017-07-08T08:59:47Z</time>
      </trkpt>
      <trkpt lat="46.065539047122002" lon="11.831048280000687">
        <ele>1064.3199999999999</ele>
        <time>2017-07-08T08:59:53Z</time>
      </trkpt>
      <trkpt lat="46.065552961081266" lon="11.831117095425725">
        <ele>1064.3199999999999</ele>
        <time>2017-07-08T09:00:06Z</time>
      </trkpt>
      <trkpt lat="46.065542483702302" lon="11.83111784979701">
        <ele>1064.3199999999999</ele>
        <time>2017-07-08T09:00:18Z</time>
      </trkpt>
      <trkpt lat="46.065485654398799" lon="11.830903021618724">
        <ele>1063.3599999999999</ele>
        <time>2017-07-08T09:00:31Z</time>
      </trkpt>
      <trkpt lat="46.065459167584777" lon="11.830789698287845">
        <ele>1062.3900000000001</ele>
        <time>2017-07-08T09:00:40Z</time>
      </trkpt>
      <trkpt lat="46.065356573089957" lon="11.830698000267148">
        <ele>1061.9100000000001</ele>
        <time>2017-07-08T09:00:53Z</time>
      </trkpt>
      <trkpt lat="46.06522623449564" lon="11.830628346651793">
        <ele>1060.47</ele>
        <time>2017-07-08T09:01:07Z</time>
      </trkpt>
      <trkpt lat="46.065077455714345" lon="11.83055785484612">
        <ele>1059.51</ele>
        <time>2017-07-08T09:01:21Z</time>
      </trkpt>
      <trkpt lat="46.064998414367437" lon="11.830501528456807">
        <ele>1059.03</ele>
        <time>2017-07-08T09:01:33Z</time>
      </trkpt>
      <trkpt lat="46.064941082149744" lon="11.830488033592701">
        <ele>1058.55</ele>
        <time>2017-07-08T09:01:41Z</time>
      </trkpt>
      <trkpt lat="46.064749388024211" lon="11.83035216294229">
        <ele>1057.5899999999999</ele>
        <time>2017-07-08T09:01:57Z</time>
      </trkpt>
      <trkpt lat="46.064590299502015" lon="11.830307319760323">
        <ele>1057.1099999999999</ele>
        <time>2017-07-08T09:02:11Z</time>
      </trkpt>
      <trkpt lat="46.064464906230569" lon="11.830352330580354">
        <ele>1057.5899999999999</ele>
        <time>2017-07-08T09:02:23Z</time>
      </trkpt>
      <trkpt lat="46.064356444403529" lon="11.830422906205058">
        <ele>1058.0699999999999</ele>
        <time>2017-07-08T09:02:35Z</time>
      </trkpt>
      <trkpt lat="46.064275139942765" lon="11.830477472394705">
        <ele>1058.55</ele>
        <time>2017-07-08T09:02:47Z</time>
      </trkpt>
      <trkpt lat="46.064244965091348" lon="11.8305036239326">
        <ele>1058.55</ele>
        <time>2017-07-08T09:02:51Z</time>
      </trkpt>
      <trkpt lat="46.064072297886014" lon="11.830528350546956">
        <ele>1058.55</ele>
        <time>2017-07-08T09:03:06Z</time>
      </trkpt>
      <trkpt lat="46.063920501619577" lon="11.830428270623088">
        <ele>1058.0699999999999</ele>
        <time>2017-07-08T09:03:19Z</time>
      </trkpt>
      <trkpt lat="46.063760910183191" lon="11.830295417457819">
        <ele>1057.1099999999999</ele>
        <time>2017-07-08T09:03:34Z</time>
      </trkpt>
      <trkpt lat="46.063640546053648" lon="11.830174047499895">
        <ele>1056.1500000000001</ele>
        <time>2017-07-08T09:03:47Z</time>
      </trkpt>
      <trkpt lat="46.063492689281702" lon="11.830024179071188">
        <ele>1054.22</ele>
        <time>2017-07-08T09:04:02Z</time>
      </trkpt>
      <trkpt lat="46.063365032896399" lon="11.830063154920936">
        <ele>1053.74</ele>
        <time>2017-07-08T09:04:14Z</time>
      </trkpt>
      <trkpt lat="46.063244165852666" lon="11.830083606764674">
        <ele>1052.78</ele>
        <time>2017-07-08T09:04:26Z</time>
      </trkpt>
      <trkpt lat="46.063169818371534" lon="11.830177903175354">
        <ele>1051.3399999999999</ele>
        <time>2017-07-08T09:04:38Z</time>
      </trkpt>
      <trkpt lat="46.063062362372875" lon="11.830216124653816">
        <ele>1048.45</ele>
        <time>2017-07-08T09:04:50Z</time>
      </trkpt>
      <trkpt lat="46.063017016276717" lon="11.830212855711579">
        <ele>1047.97</ele>
        <time>2017-07-08T09:04:54Z</time>
      </trkpt>
      <trkpt lat="46.062899250537157" lon="11.830223668366671">
        <ele>1046.53</ele>
        <time>2017-07-08T09:05:05Z</time>
      </trkpt>
      <trkpt lat="46.062748627737164" lon="11.830207239836454">
        <ele>1044.6099999999999</ele>
        <time>2017-07-08T09:05:18Z</time>
      </trkpt>
      <trkpt lat="46.062589623034" lon="11.83017966337502">
        <ele>1042.21</ele>
        <time>2017-07-08T09:05:32Z</time>
      </trkpt>
      <trkpt lat="46.062476467341185" lon="11.830123504623771">
        <ele>1040.28</ele>
        <time>2017-07-08T09:05:43Z</time>
      </trkpt>
      <trkpt lat="46.062409747391939" lon="11.830080673098564">
        <ele>1039.3199999999999</ele>
        <time>2017-07-08T09:05:50Z</time>
      </trkpt>
      <trkpt lat="46.062251077964902" lon="11.829980257898569">
        <ele>1036.4400000000001</ele>
        <time>2017-07-08T09:06:04Z</time>
      </trkpt>
      <trkpt lat="46.062136245891452" lon="11.829871963709593">
        <ele>1035.48</ele>
        <time>2017-07-08T09:06:16Z</time>
      </trkpt>
      <trkpt lat="46.062038848176599" lon="11.82976383715868">
        <ele>1035.48</ele>
        <time>2017-07-08T09:06:29Z</time>
      </trkpt>
      <trkpt lat="46.061986964195967" lon="11.829715222120285">
        <ele>1036.4400000000001</ele>
        <time>2017-07-08T09:06:39Z</time>
      </trkpt>
      <trkpt lat="46.061983108520508" lon="11.829635510221124">
        <ele>1036.9200000000001</ele>
        <time>2017-07-08T09:06:47Z</time>
      </trkpt>
      <trkpt lat="46.061995094642043" lon="11.829580524936318">
        <ele>1036.9200000000001</ele>
        <time>2017-07-08T09:06:55Z</time>
      </trkpt>
      <trkpt lat="46.061977911740541" lon="11.829595528542995">
        <ele>1036.9200000000001</ele>
        <time>2017-07-08T09:07:04Z</time>
      </trkpt>
      <trkpt lat="46.061995681375265" lon="11.82960843667388">
        <ele>1035.96</ele>
        <time>2017-07-08T09:07:13Z</time>
      </trkpt>
      <trkpt lat="46.061972212046385" lon="11.829588739201427">
        <ele>1036.4400000000001</ele>
        <time>2017-07-08T09:07:24Z</time>
      </trkpt>
    </trkseg>
  </trk>

</gpx>